<?xml version="1.0" encoding="UTF-8"?>
<gpx version="1.1" creator="https://www.youtrack.es" xsi:schemaLocation="http://www.topografix.com/GPX/1/1 http://www.topografix.com/GPX/1/1/gpx.xsd http://www.garmin.com/xmlschemas/GpxExtensions/v3 http://www.garmin.com/xmlschemas/GpxExtensionsv3.xsd http://www.garmin.com/xmlschemas/TrackPointExtension/v1 http://www.garmin.com/xmlschemas/TrackPointExtensionv1.xsd" xmlns:gpxtpx="http://www.garmin.com/xmlschemas/TrackPointExtension/v1" xmlns:gpxx="http://www.garmin.com/xmlschemas/GpxExtensions/v3" xmlns:xsi="http://www.w3.org/2001/XMLSchema-instance">
  <metadata>
    <author>
      <name>Mamen Etxaniz</name>
      <email id="mamenetxaniz" domain="gmail.com"/>
    </author>
    <link href="https://www.youtrack.es">
      <text>YouTrack.es</text>
    </link>
    <time>2026-05-09T03:55:45Z</time>
  </metadata>
  <trk>
    <src>https://www.youtrack.es</src>
    <link href="https://www.youtrack.es/ruta/19283-great-himalaya-trail">
      <text>YouTrack.es</text>
    </link>
    <trkseg>
      <trkpt lat="27.354973" lon="87.667586">
        <ele>1771.30004882813</ele>
        <time>2019-10-01T12:39:14.048Z</time>
      </trkpt>
      <trkpt lat="27.355443" lon="87.66817">
        <ele>1866</ele>
        <time>2019-10-01T12:40:18.048Z</time>
      </trkpt>
      <trkpt lat="27.355963" lon="87.668732">
        <ele>1858</ele>
        <time>2019-10-01T12:41:32.048Z</time>
      </trkpt>
      <trkpt lat="27.356351" lon="87.669422">
        <ele>1860</ele>
        <time>2019-10-01T12:42:33.048Z</time>
      </trkpt>
      <trkpt lat="27.356728" lon="87.669601">
        <ele>1856.71720064</ele>
        <time>2019-10-01T12:43:41.048Z</time>
      </trkpt>
      <trkpt lat="27.357008" lon="87.668775">
        <ele>1849.23440128</ele>
        <time>2019-10-01T12:44:47.048Z</time>
      </trkpt>
      <trkpt lat="27.356887" lon="87.66824">
        <ele>1837.91720064</ele>
        <time>2019-10-01T12:45:49.048Z</time>
      </trkpt>
      <trkpt lat="27.35683" lon="87.667694">
        <ele>1823.51720064</ele>
        <time>2019-10-01T12:46:53.048Z</time>
      </trkpt>
      <trkpt lat="27.356809" lon="87.666928">
        <ele>1815.85160192</ele>
        <time>2019-10-01T12:48:02.048Z</time>
      </trkpt>
      <trkpt lat="27.356916" lon="87.66626">
        <ele>1804.63440128</ele>
        <time>2019-10-01T12:49:05.048Z</time>
      </trkpt>
      <trkpt lat="27.356884" lon="87.665609">
        <ele>1789.41720064</ele>
        <time>2019-10-01T12:50:14.048Z</time>
      </trkpt>
      <trkpt lat="27.356937" lon="87.664902">
        <ele>1777.11731792038</ele>
        <time>2019-10-01T12:51:17.048Z</time>
      </trkpt>
      <trkpt lat="27.357338" lon="87.663786">
        <ele>1765.03636428735</ele>
        <time>2019-10-01T12:52:58.048Z</time>
      </trkpt>
      <trkpt lat="27.357584" lon="87.6632">
        <ele>1760</ele>
        <time>2019-10-01T12:53:43.048Z</time>
      </trkpt>
      <trkpt lat="27.357721" lon="87.662639">
        <ele>1757</ele>
        <time>2019-10-01T12:54:28.048Z</time>
      </trkpt>
      <trkpt lat="27.35787" lon="87.661972">
        <ele>1750.11720064</ele>
        <time>2019-10-01T12:55:17.048Z</time>
      </trkpt>
      <trkpt lat="27.358316" lon="87.661594">
        <ele>1739.01720064</ele>
        <time>2019-10-01T12:56:18.048Z</time>
      </trkpt>
      <trkpt lat="27.358261" lon="87.660844">
        <ele>1730.18279936</ele>
        <time>2019-10-01T12:57:20.048Z</time>
      </trkpt>
      <trkpt lat="27.358208" lon="87.660052">
        <ele>1731</ele>
        <time>2019-10-01T12:58:16.048Z</time>
      </trkpt>
      <trkpt lat="27.358463" lon="87.659283">
        <ele>1728</ele>
        <time>2019-10-01T12:59:16.048Z</time>
      </trkpt>
      <trkpt lat="27.358492" lon="87.658429">
        <ele>1724</ele>
        <time>2019-10-01T13:00:18.048Z</time>
      </trkpt>
      <trkpt lat="27.358821" lon="87.658779">
        <ele>1724.78279936</ele>
        <time>2019-10-01T13:01:16.048Z</time>
      </trkpt>
      <trkpt lat="27.358734" lon="87.658369">
        <ele>1716.23616455102</ele>
        <time>2019-10-01T13:02:17.048Z</time>
      </trkpt>
      <trkpt lat="27.358776" lon="87.657866">
        <ele>1701.21720064</ele>
        <time>2019-10-01T13:03:16.048Z</time>
      </trkpt>
      <trkpt lat="27.35891" lon="87.657263">
        <ele>1690</ele>
        <time>2019-10-01T13:04:17.048Z</time>
      </trkpt>
      <trkpt lat="27.359224" lon="87.656948">
        <ele>1680.11720064</ele>
        <time>2019-10-01T13:05:17.048Z</time>
      </trkpt>
      <trkpt lat="27.359424" lon="87.656561">
        <ele>1667.21720064</ele>
        <time>2019-10-01T13:06:16.048Z</time>
      </trkpt>
      <trkpt lat="27.359694" lon="87.65589">
        <ele>1659</ele>
        <time>2019-10-01T13:07:16.048Z</time>
      </trkpt>
      <trkpt lat="27.359745" lon="87.655378">
        <ele>1650.21720064</ele>
        <time>2019-10-01T13:08:16.048Z</time>
      </trkpt>
      <trkpt lat="27.360169" lon="87.654718">
        <ele>1642</ele>
        <time>2019-10-01T13:09:18.048Z</time>
      </trkpt>
      <trkpt lat="27.35983" lon="87.654502">
        <ele>1635</ele>
        <time>2019-10-01T13:10:16.048Z</time>
      </trkpt>
      <trkpt lat="27.359305" lon="87.654034">
        <ele>1627</ele>
        <time>2019-10-01T13:11:16.048Z</time>
      </trkpt>
      <trkpt lat="27.359238" lon="87.653697">
        <ele>1623</ele>
        <time>2019-10-01T13:12:16.048Z</time>
      </trkpt>
      <trkpt lat="27.35941" lon="87.653657">
        <ele>1618.21712147532</ele>
        <time>2019-10-01T13:13:16.048Z</time>
      </trkpt>
      <trkpt lat="27.359498" lon="87.65339">
        <ele>1611</ele>
        <time>2019-10-01T13:14:16.048Z</time>
      </trkpt>
      <trkpt lat="27.359619" lon="87.652929">
        <ele>1603.21741798841</ele>
        <time>2019-10-01T13:15:16.048Z</time>
      </trkpt>
      <trkpt lat="27.360052" lon="87.652353">
        <ele>1595.11720064</ele>
        <time>2019-10-01T13:16:17.048Z</time>
      </trkpt>
      <trkpt lat="27.36053" lon="87.651828">
        <ele>1584</ele>
        <time>2019-10-01T13:17:17.048Z</time>
      </trkpt>
      <trkpt lat="27.360643" lon="87.651086">
        <ele>1574.23440128</ele>
        <time>2019-10-01T13:18:17.048Z</time>
      </trkpt>
      <trkpt lat="27.360723" lon="87.650336">
        <ele>1566</ele>
        <time>2019-10-01T13:19:16.048Z</time>
      </trkpt>
      <trkpt lat="27.361034" lon="87.65083">
        <ele>1559.11720064</ele>
        <time>2019-10-01T13:20:17.048Z</time>
      </trkpt>
      <trkpt lat="27.361137" lon="87.6505">
        <ele>1552.21720064</ele>
        <time>2019-10-01T13:21:16.048Z</time>
      </trkpt>
      <trkpt lat="27.36133" lon="87.650009">
        <ele>1545.98279936</ele>
        <time>2019-10-01T13:22:18.048Z</time>
      </trkpt>
      <trkpt lat="27.361204" lon="87.649268">
        <ele>1536.21720064</ele>
        <time>2019-10-01T13:23:16.048Z</time>
      </trkpt>
      <trkpt lat="27.361619" lon="87.648639">
        <ele>1527.11720064</ele>
        <time>2019-10-01T13:24:17.048Z</time>
      </trkpt>
      <trkpt lat="27.361741" lon="87.648429">
        <ele>1521.43440128</ele>
        <time>2019-10-01T13:25:16.048Z</time>
      </trkpt>
      <trkpt lat="27.36193" lon="87.64789">
        <ele>1509.11720064</ele>
        <time>2019-10-01T13:26:17.048Z</time>
      </trkpt>
      <trkpt lat="27.362166" lon="87.64785">
        <ele>1499</ele>
        <time>2019-10-01T13:27:16.048Z</time>
      </trkpt>
      <trkpt lat="27.36251" lon="87.647559">
        <ele>1484.83440128</ele>
        <time>2019-10-01T13:28:19.048Z</time>
      </trkpt>
      <trkpt lat="27.362718" lon="87.647225">
        <ele>1479</ele>
        <time>2019-10-01T13:29:19.048Z</time>
      </trkpt>
      <trkpt lat="27.363048" lon="87.646723">
        <ele>1473.5860032</ele>
        <time>2019-10-01T13:30:19.048Z</time>
      </trkpt>
      <trkpt lat="27.363187" lon="87.646157">
        <ele>1463.03440128</ele>
        <time>2019-10-01T13:31:18.048Z</time>
      </trkpt>
      <trkpt lat="27.363329" lon="87.645809">
        <ele>1448.23616455102</ele>
        <time>2019-10-01T13:32:17.048Z</time>
      </trkpt>
      <trkpt lat="27.363497" lon="87.645457">
        <ele>1435.43440128</ele>
        <time>2019-10-01T13:33:16.048Z</time>
      </trkpt>
      <trkpt lat="27.363692" lon="87.644793">
        <ele>1422.21720064</ele>
        <time>2019-10-01T13:34:16.048Z</time>
      </trkpt>
      <trkpt lat="27.363984" lon="87.644125">
        <ele>1418.21720064</ele>
        <time>2019-10-01T13:35:16.048Z</time>
      </trkpt>
      <trkpt lat="27.364144" lon="87.643782">
        <ele>1407.03832337777</ele>
        <time>2019-10-01T13:36:18.048Z</time>
      </trkpt>
      <trkpt lat="27.364244" lon="87.643498">
        <ele>1394.5860032</ele>
        <time>2019-10-01T13:37:19.048Z</time>
      </trkpt>
      <trkpt lat="27.364453" lon="87.643083">
        <ele>1381.21720064</ele>
        <time>2019-10-01T13:38:16.048Z</time>
      </trkpt>
      <trkpt lat="27.364377" lon="87.642928">
        <ele>1375.18279936</ele>
        <time>2019-10-01T13:39:20.048Z</time>
      </trkpt>
      <trkpt lat="27.364502" lon="87.643143">
        <ele>1374.98279936</ele>
        <time>2019-10-01T13:40:18.048Z</time>
      </trkpt>
      <trkpt lat="27.36435" lon="87.642979">
        <ele>1375.98279936</ele>
        <time>2019-10-01T13:41:18.048Z</time>
      </trkpt>
      <trkpt lat="27.364462" lon="87.642966">
        <ele>1376</ele>
        <time>2019-10-01T13:43:18.048Z</time>
      </trkpt>
      <trkpt lat="27.364533" lon="87.642851">
        <ele>1376</ele>
        <time>2019-10-01T13:44:18.048Z</time>
      </trkpt>
      <trkpt lat="27.364568" lon="87.642661">
        <ele>1372</ele>
        <time>2019-10-01T13:48:18.048Z</time>
      </trkpt>
      <trkpt lat="27.364775" lon="87.642251">
        <ele>1358.23440128</ele>
        <time>2019-10-01T13:49:17.048Z</time>
      </trkpt>
      <trkpt lat="27.36499" lon="87.641975">
        <ele>1347.66880256</ele>
        <time>2019-10-01T13:50:19.048Z</time>
      </trkpt>
      <trkpt lat="27.365091" lon="87.641482">
        <ele>1337.01720064</ele>
        <time>2019-10-01T13:51:18.048Z</time>
      </trkpt>
      <trkpt lat="27.365242" lon="87.641423">
        <ele>1325.21720064</ele>
        <time>2019-10-01T13:52:16.048Z</time>
      </trkpt>
      <trkpt lat="27.365376" lon="87.641086">
        <ele>1316.01720064</ele>
        <time>2019-10-01T13:53:18.048Z</time>
      </trkpt>
      <trkpt lat="27.365588" lon="87.640928">
        <ele>1303.43440128</ele>
        <time>2019-10-01T13:54:16.048Z</time>
      </trkpt>
      <trkpt lat="27.365387" lon="87.640353">
        <ele>1297</ele>
        <time>2019-10-01T13:55:16.048Z</time>
      </trkpt>
      <trkpt lat="27.365349" lon="87.639673">
        <ele>1287</ele>
        <time>2019-10-01T13:56:18.048Z</time>
      </trkpt>
      <trkpt lat="27.365594" lon="87.639188">
        <ele>1274.11720064</ele>
        <time>2019-10-01T13:57:17.048Z</time>
      </trkpt>
      <trkpt lat="27.36582" lon="87.638705">
        <ele>1260.43440128</ele>
        <time>2019-10-01T13:58:16.048Z</time>
      </trkpt>
      <trkpt lat="27.366129" lon="87.638506">
        <ele>1247.21741798841</ele>
        <time>2019-10-01T13:59:16.048Z</time>
      </trkpt>
      <trkpt lat="27.366381" lon="87.637901">
        <ele>1245</ele>
        <time>2019-10-01T14:00:17.048Z</time>
      </trkpt>
      <trkpt lat="27.366422" lon="87.637119">
        <ele>1238.01720064</ele>
        <time>2019-10-01T14:01:18.048Z</time>
      </trkpt>
      <trkpt lat="27.366627" lon="87.636687">
        <ele>1231</ele>
        <time>2019-10-01T14:02:18.048Z</time>
      </trkpt>
      <trkpt lat="27.366966" lon="87.636478">
        <ele>1220.01720064</ele>
        <time>2019-10-01T14:03:18.048Z</time>
      </trkpt>
      <trkpt lat="27.367015" lon="87.635954">
        <ele>1212.81720064</ele>
        <time>2019-10-01T14:04:20.048Z</time>
      </trkpt>
      <trkpt lat="27.367629" lon="87.635613">
        <ele>1207</ele>
        <time>2019-10-01T14:05:16.048Z</time>
      </trkpt>
      <trkpt lat="27.367902" lon="87.63495">
        <ele>1199.01720064</ele>
        <time>2019-10-01T14:06:18.048Z</time>
      </trkpt>
      <trkpt lat="27.367904" lon="87.634558">
        <ele>1189.01720064</ele>
        <time>2019-10-01T14:07:18.048Z</time>
      </trkpt>
      <trkpt lat="27.367712" lon="87.63438">
        <ele>1180.11896215183</ele>
        <time>2019-10-01T14:08:17.048Z</time>
      </trkpt>
      <trkpt lat="27.36733" lon="87.634062">
        <ele>1165.81720064</ele>
        <time>2019-10-01T14:09:20.048Z</time>
      </trkpt>
      <trkpt lat="27.367181" lon="87.633523">
        <ele>1158.43440128</ele>
        <time>2019-10-01T14:10:16.048Z</time>
      </trkpt>
      <trkpt lat="27.366776" lon="87.6331">
        <ele>1124.65160192</ele>
        <time>2019-10-01T14:11:16.048Z</time>
      </trkpt>
      <trkpt lat="27.366916" lon="87.63273">
        <ele>1116.66880256</ele>
        <time>2019-10-01T14:12:19.048Z</time>
      </trkpt>
      <trkpt lat="27.366962" lon="87.632154">
        <ele>1112.01720064</ele>
        <time>2019-10-01T14:13:18.048Z</time>
      </trkpt>
      <trkpt lat="27.366759" lon="87.631412">
        <ele>1097.01720064</ele>
        <time>2019-10-01T14:14:18.048Z</time>
      </trkpt>
      <trkpt lat="27.366814" lon="87.630727">
        <ele>1084.43440128</ele>
        <time>2019-10-01T14:15:16.048Z</time>
      </trkpt>
      <trkpt lat="27.367289" lon="87.630355">
        <ele>1075.71720064</ele>
        <time>2019-10-01T14:16:21.048Z</time>
      </trkpt>
      <trkpt lat="27.367195" lon="87.63005">
        <ele>1069</ele>
        <time>2019-10-01T14:17:17.048Z</time>
      </trkpt>
      <trkpt lat="27.367307" lon="87.629601">
        <ele>1062</ele>
        <time>2019-10-01T14:18:17.048Z</time>
      </trkpt>
      <trkpt lat="27.367206" lon="87.629107">
        <ele>1054.78279936</ele>
        <time>2019-10-01T14:19:16.048Z</time>
      </trkpt>
      <trkpt lat="27.367205" lon="87.628718">
        <ele>1045.01720064</ele>
        <time>2019-10-01T14:20:18.048Z</time>
      </trkpt>
      <trkpt lat="27.366912" lon="87.62829">
        <ele>1026.7518499906</ele>
        <time>2019-10-01T14:21:19.048Z</time>
      </trkpt>
      <trkpt lat="27.367162" lon="87.627922">
        <ele>1020.11720064</ele>
        <time>2019-10-01T14:22:17.048Z</time>
      </trkpt>
      <trkpt lat="27.367407" lon="87.627625">
        <ele>1012.88279936</ele>
        <time>2019-10-01T14:23:17.048Z</time>
      </trkpt>
      <trkpt lat="27.367563" lon="87.627269">
        <ele>1007.30320384</ele>
        <time>2019-10-01T14:24:16.048Z</time>
      </trkpt>
      <trkpt lat="27.367836" lon="87.626876">
        <ele>1014.56559872</ele>
        <time>2019-10-01T14:25:16.048Z</time>
      </trkpt>
      <trkpt lat="27.368044" lon="87.626603">
        <ele>1025</ele>
        <time>2019-10-01T14:26:16.048Z</time>
      </trkpt>
      <trkpt lat="27.368282" lon="87.626219">
        <ele>1006.43440128</ele>
        <time>2019-10-01T14:27:16.048Z</time>
      </trkpt>
      <trkpt lat="27.368394" lon="87.625977">
        <ele>994.0860032</ele>
        <time>2019-10-01T14:28:18.048Z</time>
      </trkpt>
      <trkpt lat="27.368363" lon="87.625675">
        <ele>993.01720064</ele>
        <time>2019-10-01T14:29:18.048Z</time>
      </trkpt>
      <trkpt lat="27.367821" lon="87.625723">
        <ele>974.50320384</ele>
        <time>2019-10-01T14:30:19.048Z</time>
      </trkpt>
      <trkpt lat="27.367637" lon="87.625524">
        <ele>958</ele>
        <time>2019-10-01T14:31:17.048Z</time>
      </trkpt>
      <trkpt lat="27.367466" lon="87.625217">
        <ele>965</ele>
        <time>2019-10-01T14:32:16.048Z</time>
      </trkpt>
      <trkpt lat="27.367692" lon="87.625074">
        <ele>956.66880256</ele>
        <time>2019-10-01T14:33:19.048Z</time>
      </trkpt>
      <trkpt lat="27.367151" lon="87.625299">
        <ele>939.71720064</ele>
        <time>2019-10-01T14:34:21.048Z</time>
      </trkpt>
      <trkpt lat="27.36685" lon="87.625009">
        <ele>928.83440128</ele>
        <time>2019-10-01T14:35:19.048Z</time>
      </trkpt>
      <trkpt lat="27.366341" lon="87.625122">
        <ele>926</ele>
        <time>2019-10-01T14:36:18.048Z</time>
      </trkpt>
      <trkpt lat="27.366035" lon="87.62475">
        <ele>924.11720064</ele>
        <time>2019-10-01T14:37:17.048Z</time>
      </trkpt>
      <trkpt lat="27.365871" lon="87.624355">
        <ele>914.01720064</ele>
        <time>2019-10-01T14:38:18.048Z</time>
      </trkpt>
      <trkpt lat="27.36592" lon="87.624064">
        <ele>911</ele>
        <time>2019-10-01T14:39:19.048Z</time>
      </trkpt>
      <trkpt lat="27.365851" lon="87.623817">
        <ele>905.03440128</ele>
        <time>2019-10-01T14:40:18.048Z</time>
      </trkpt>
      <trkpt lat="27.365856" lon="87.623481">
        <ele>904</ele>
        <time>2019-10-01T14:41:16.048Z</time>
      </trkpt>
      <trkpt lat="27.36588" lon="87.623267">
        <ele>907.18279936</ele>
        <time>2019-10-01T14:42:20.048Z</time>
      </trkpt>
      <trkpt lat="27.366045" lon="87.623036">
        <ele>911.01720064</ele>
        <time>2019-10-01T14:43:18.048Z</time>
      </trkpt>
      <trkpt lat="27.366023" lon="87.622447">
        <ele>895.43440128</ele>
        <time>2019-10-01T14:44:16.048Z</time>
      </trkpt>
      <trkpt lat="27.366044" lon="87.621934">
        <ele>887.26880256</ele>
        <time>2019-10-01T14:45:20.048Z</time>
      </trkpt>
      <trkpt lat="27.365822" lon="87.621595">
        <ele>873.4139968</ele>
        <time>2019-10-01T14:46:21.048Z</time>
      </trkpt>
      <trkpt lat="27.365516" lon="87.621581">
        <ele>877</ele>
        <time>2019-10-01T14:47:19.048Z</time>
      </trkpt>
      <trkpt lat="27.365448" lon="87.621796">
        <ele>657.099975585938</ele>
        <time>2019-10-02T06:18:06.093Z</time>
      </trkpt>
      <trkpt lat="27.365452" lon="87.621733">
        <ele>0</ele>
        <time>2019-10-02T06:18:12.093Z</time>
      </trkpt>
      <trkpt lat="27.365695" lon="87.621098">
        <ele>583</ele>
        <time>2019-10-02T06:19:20.093Z</time>
      </trkpt>
      <trkpt lat="27.365912" lon="87.620578">
        <ele>583</ele>
        <time>2019-10-02T06:20:21.093Z</time>
      </trkpt>
      <trkpt lat="27.366126" lon="87.619985">
        <ele>583</ele>
        <time>2019-10-02T06:21:34.093Z</time>
      </trkpt>
      <trkpt lat="27.366086" lon="87.619941">
        <ele>582</ele>
        <time>2019-10-02T06:22:50.093Z</time>
      </trkpt>
      <trkpt lat="27.365687" lon="87.619589">
        <ele>580.72530048</ele>
        <time>2019-10-02T06:23:52.093Z</time>
      </trkpt>
      <trkpt lat="27.365434" lon="87.619638">
        <ele>588.848752798802</ele>
        <time>2019-10-02T06:24:54.093Z</time>
      </trkpt>
      <trkpt lat="27.365273" lon="87.619421">
        <ele>598</ele>
        <time>2019-10-02T06:26:22.093Z</time>
      </trkpt>
      <trkpt lat="27.365121" lon="87.619083">
        <ele>606.72530048</ele>
        <time>2019-10-02T06:27:52.093Z</time>
      </trkpt>
      <trkpt lat="27.365545" lon="87.618963">
        <ele>612</ele>
        <time>2019-10-02T06:29:40.093Z</time>
      </trkpt>
      <trkpt lat="27.366249" lon="87.618012">
        <ele>606.82530048</ele>
        <time>2019-10-02T06:31:13.093Z</time>
      </trkpt>
      <trkpt lat="27.366599" lon="87.617576">
        <ele>613.82530048</ele>
        <time>2019-10-02T06:32:13.093Z</time>
      </trkpt>
      <trkpt lat="27.367067" lon="87.617299">
        <ele>621.45060096</ele>
        <time>2019-10-02T06:33:22.093Z</time>
      </trkpt>
      <trkpt lat="27.367064" lon="87.616666">
        <ele>624.72530048</ele>
        <time>2019-10-02T06:34:22.093Z</time>
      </trkpt>
      <trkpt lat="27.367318" lon="87.616152">
        <ele>630.45080064</ele>
        <time>2019-10-02T06:35:22.093Z</time>
      </trkpt>
      <trkpt lat="27.367468" lon="87.615539">
        <ele>633.72530048</ele>
        <time>2019-10-02T06:36:22.093Z</time>
      </trkpt>
      <trkpt lat="27.367146" lon="87.615267">
        <ele>638.22530048</ele>
        <time>2019-10-02T06:37:07.093Z</time>
      </trkpt>
      <trkpt lat="27.366826" lon="87.615038">
        <ele>643</ele>
        <time>2019-10-02T06:37:52.093Z</time>
      </trkpt>
      <trkpt lat="27.366688" lon="87.614549">
        <ele>647.05060096</ele>
        <time>2019-10-02T06:38:45.093Z</time>
      </trkpt>
      <trkpt lat="27.366511" lon="87.61419">
        <ele>652</ele>
        <time>2019-10-02T06:39:40.093Z</time>
      </trkpt>
      <trkpt lat="27.366274" lon="87.614104">
        <ele>664.848752798802</ele>
        <time>2019-10-02T06:41:14.093Z</time>
      </trkpt>
      <trkpt lat="27.36616" lon="87.613995">
        <ele>669.42530048</ele>
        <time>2019-10-02T06:41:59.093Z</time>
      </trkpt>
      <trkpt lat="27.366084" lon="87.613631">
        <ele>678.72530048</ele>
        <time>2019-10-02T06:43:22.093Z</time>
      </trkpt>
      <trkpt lat="27.365956" lon="87.613522">
        <ele>685.72530048</ele>
        <time>2019-10-02T06:44:22.093Z</time>
      </trkpt>
      <trkpt lat="27.365852" lon="87.613388">
        <ele>692.72530048</ele>
        <time>2019-10-02T06:45:22.093Z</time>
      </trkpt>
      <trkpt lat="27.365745" lon="87.613334">
        <ele>697.22530048</ele>
        <time>2019-10-02T06:46:07.093Z</time>
      </trkpt>
      <trkpt lat="27.365676" lon="87.613025">
        <ele>706.02530048</ele>
        <time>2019-10-02T06:47:25.093Z</time>
      </trkpt>
      <trkpt lat="27.365634" lon="87.61283">
        <ele>710.52530048</ele>
        <time>2019-10-02T06:48:10.093Z</time>
      </trkpt>
      <trkpt lat="27.365332" lon="87.612573">
        <ele>715.72530048</ele>
        <time>2019-10-02T06:49:22.093Z</time>
      </trkpt>
      <trkpt lat="27.365323" lon="87.612437">
        <ele>722.45060096</ele>
        <time>2019-10-02T06:50:22.093Z</time>
      </trkpt>
      <trkpt lat="27.365444" lon="87.612372">
        <ele>725.72530048</ele>
        <time>2019-10-02T06:51:22.093Z</time>
      </trkpt>
      <trkpt lat="27.365393" lon="87.612144">
        <ele>734</ele>
        <time>2019-10-02T06:52:56.093Z</time>
      </trkpt>
      <trkpt lat="27.365315" lon="87.61189">
        <ele>736</ele>
        <time>2019-10-02T06:53:43.093Z</time>
      </trkpt>
      <trkpt lat="27.365288" lon="87.611567">
        <ele>741.82530048</ele>
        <time>2019-10-02T06:55:13.093Z</time>
      </trkpt>
      <trkpt lat="27.365086" lon="87.611409">
        <ele>745.32530048</ele>
        <time>2019-10-02T06:55:58.093Z</time>
      </trkpt>
      <trkpt lat="27.364998" lon="87.610866">
        <ele>751</ele>
        <time>2019-10-02T06:57:22.093Z</time>
      </trkpt>
      <trkpt lat="27.364881" lon="87.610615">
        <ele>754</ele>
        <time>2019-10-02T06:58:22.093Z</time>
      </trkpt>
      <trkpt lat="27.364771" lon="87.610472">
        <ele>759.72530048</ele>
        <time>2019-10-02T06:59:22.093Z</time>
      </trkpt>
      <trkpt lat="27.364674" lon="87.610354">
        <ele>763.22530048</ele>
        <time>2019-10-02T07:00:07.093Z</time>
      </trkpt>
      <trkpt lat="27.364618" lon="87.610208">
        <ele>768</ele>
        <time>2019-10-02T07:00:52.093Z</time>
      </trkpt>
      <trkpt lat="27.364544" lon="87.610057">
        <ele>772.82530048</ele>
        <time>2019-10-02T07:01:43.093Z</time>
      </trkpt>
      <trkpt lat="27.364607" lon="87.609757">
        <ele>780.05060096</ele>
        <time>2019-10-02T07:02:45.093Z</time>
      </trkpt>
      <trkpt lat="27.364613" lon="87.609546">
        <ele>787</ele>
        <time>2019-10-02T07:03:44.093Z</time>
      </trkpt>
      <trkpt lat="27.364658" lon="87.609382">
        <ele>794.85060096</ele>
        <time>2019-10-02T07:04:44.093Z</time>
      </trkpt>
      <trkpt lat="27.364612" lon="87.609105">
        <ele>799.72530048</ele>
        <time>2019-10-02T07:05:42.093Z</time>
      </trkpt>
      <trkpt lat="27.364342" lon="87.609252">
        <ele>805.72530048</ele>
        <time>2019-10-02T07:06:42.093Z</time>
      </trkpt>
      <trkpt lat="27.364172" lon="87.608905">
        <ele>812.25060096</ele>
        <time>2019-10-02T07:07:41.093Z</time>
      </trkpt>
      <trkpt lat="27.364138" lon="87.608754">
        <ele>819.92530048</ele>
        <time>2019-10-02T07:08:44.093Z</time>
      </trkpt>
      <trkpt lat="27.363956" lon="87.608352">
        <ele>824.62530048</ele>
        <time>2019-10-02T07:09:41.093Z</time>
      </trkpt>
      <trkpt lat="27.363812" lon="87.608039">
        <ele>833</ele>
        <time>2019-10-02T07:11:05.093Z</time>
      </trkpt>
      <trkpt lat="27.363893" lon="87.607668">
        <ele>835</ele>
        <time>2019-10-02T07:11:50.093Z</time>
      </trkpt>
      <trkpt lat="27.36396" lon="87.607422">
        <ele>841.12530048</ele>
        <time>2019-10-02T07:12:46.093Z</time>
      </trkpt>
      <trkpt lat="27.364371" lon="87.607305">
        <ele>848.92530048</ele>
        <time>2019-10-02T07:13:54.093Z</time>
      </trkpt>
      <trkpt lat="27.36462" lon="87.607082">
        <ele>853</ele>
        <time>2019-10-02T07:14:40.093Z</time>
      </trkpt>
      <trkpt lat="27.364507" lon="87.606966">
        <ele>859</ele>
        <time>2019-10-02T07:15:44.093Z</time>
      </trkpt>
      <trkpt lat="27.36444" lon="87.606742">
        <ele>865.65060096</ele>
        <time>2019-10-02T07:16:43.093Z</time>
      </trkpt>
      <trkpt lat="27.364229" lon="87.606788">
        <ele>872.65060096</ele>
        <time>2019-10-02T07:17:43.093Z</time>
      </trkpt>
      <trkpt lat="27.364021" lon="87.606795">
        <ele>878.85060096</ele>
        <time>2019-10-02T07:18:49.093Z</time>
      </trkpt>
      <trkpt lat="27.363924" lon="87.606558">
        <ele>886</ele>
        <time>2019-10-02T07:19:49.093Z</time>
      </trkpt>
      <trkpt lat="27.363668" lon="87.6065">
        <ele>891.62530048</ele>
        <time>2019-10-02T07:20:41.093Z</time>
      </trkpt>
      <trkpt lat="27.363557" lon="87.606432">
        <ele>898</ele>
        <time>2019-10-02T07:21:44.093Z</time>
      </trkpt>
      <trkpt lat="27.363168" lon="87.606166">
        <ele>907</ele>
        <time>2019-10-02T07:23:14.093Z</time>
      </trkpt>
      <trkpt lat="27.362922" lon="87.605914">
        <ele>908.85060096</ele>
        <time>2019-10-02T07:23:59.093Z</time>
      </trkpt>
      <trkpt lat="27.362683" lon="87.605818">
        <ele>913</ele>
        <time>2019-10-02T07:25:22.093Z</time>
      </trkpt>
      <trkpt lat="27.362572" lon="87.605456">
        <ele>915.72530048</ele>
        <time>2019-10-02T07:26:22.093Z</time>
      </trkpt>
      <trkpt lat="27.362574" lon="87.60518">
        <ele>919.45060096</ele>
        <time>2019-10-02T07:27:22.093Z</time>
      </trkpt>
      <trkpt lat="27.362608" lon="87.604944">
        <ele>922.22530048</ele>
        <time>2019-10-02T07:28:07.093Z</time>
      </trkpt>
      <trkpt lat="27.36248" lon="87.604782">
        <ele>925</ele>
        <time>2019-10-02T07:28:52.093Z</time>
      </trkpt>
      <trkpt lat="27.362372" lon="87.604461">
        <ele>928.22530048</ele>
        <time>2019-10-02T07:29:47.093Z</time>
      </trkpt>
      <trkpt lat="27.362182" lon="87.604145">
        <ele>933</ele>
        <time>2019-10-02T07:30:51.093Z</time>
      </trkpt>
      <trkpt lat="27.362098" lon="87.603692">
        <ele>936</ele>
        <time>2019-10-02T07:31:50.093Z</time>
      </trkpt>
      <trkpt lat="27.361981" lon="87.603573">
        <ele>939.92530048</ele>
        <time>2019-10-02T07:32:44.093Z</time>
      </trkpt>
      <trkpt lat="27.361831" lon="87.603577">
        <ele>947.02530048</ele>
        <time>2019-10-02T07:33:45.093Z</time>
      </trkpt>
      <trkpt lat="27.361894" lon="87.603403">
        <ele>950</ele>
        <time>2019-10-02T07:34:43.093Z</time>
      </trkpt>
      <trkpt lat="27.361713" lon="87.603056">
        <ele>956.72530048</ele>
        <time>2019-10-02T07:35:42.093Z</time>
      </trkpt>
      <trkpt lat="27.361762" lon="87.602796">
        <ele>963.85060096</ele>
        <time>2019-10-02T07:36:44.093Z</time>
      </trkpt>
      <trkpt lat="27.361516" lon="87.602721">
        <ele>970.85060096</ele>
        <time>2019-10-02T07:37:44.093Z</time>
      </trkpt>
      <trkpt lat="27.361182" lon="87.602512">
        <ele>974</ele>
        <time>2019-10-02T07:38:41.093Z</time>
      </trkpt>
      <trkpt lat="27.360972" lon="87.602283">
        <ele>980.42530048</ele>
        <time>2019-10-02T07:39:49.093Z</time>
      </trkpt>
      <trkpt lat="27.360782" lon="87.602042">
        <ele>984.42530048</ele>
        <time>2019-10-02T07:40:49.093Z</time>
      </trkpt>
      <trkpt lat="27.360694" lon="87.601771">
        <ele>994</ele>
        <time>2019-10-02T07:42:20.093Z</time>
      </trkpt>
      <trkpt lat="27.36073" lon="87.60163">
        <ele>998.05060096</ele>
        <time>2019-10-02T07:43:05.093Z</time>
      </trkpt>
      <trkpt lat="27.360746" lon="87.601425">
        <ele>1007.72530048</ele>
        <time>2019-10-02T07:44:22.093Z</time>
      </trkpt>
      <trkpt lat="27.360687" lon="87.601322">
        <ele>1012</ele>
        <time>2019-10-02T07:45:22.093Z</time>
      </trkpt>
      <trkpt lat="27.360843" lon="87.601198">
        <ele>1012.07469952</ele>
        <time>2019-10-02T07:50:44.093Z</time>
      </trkpt>
      <trkpt lat="27.360618" lon="87.601132">
        <ele>1016.85060096</ele>
        <time>2019-10-02T07:51:44.093Z</time>
      </trkpt>
      <trkpt lat="27.36035" lon="87.600923">
        <ele>1032</ele>
        <time>2019-10-02T07:53:45.093Z</time>
      </trkpt>
      <trkpt lat="27.360523" lon="87.600757">
        <ele>1037.72530048</ele>
        <time>2019-10-02T07:54:42.093Z</time>
      </trkpt>
      <trkpt lat="27.360684" lon="87.600547">
        <ele>1043</ele>
        <time>2019-10-02T07:55:42.093Z</time>
      </trkpt>
      <trkpt lat="27.360702" lon="87.600809">
        <ele>1050.92530048</ele>
        <time>2019-10-02T07:56:44.093Z</time>
      </trkpt>
      <trkpt lat="27.360739" lon="87.600423">
        <ele>1056.62530048</ele>
        <time>2019-10-02T07:57:41.093Z</time>
      </trkpt>
      <trkpt lat="27.360788" lon="87.600269">
        <ele>1062.92530048</ele>
        <time>2019-10-02T07:58:44.093Z</time>
      </trkpt>
      <trkpt lat="27.361063" lon="87.599986">
        <ele>1066.82530048</ele>
        <time>2019-10-02T07:59:43.093Z</time>
      </trkpt>
      <trkpt lat="27.360831" lon="87.600023">
        <ele>1069.82530048</ele>
        <time>2019-10-02T08:00:43.093Z</time>
      </trkpt>
      <trkpt lat="27.360906" lon="87.60011">
        <ele>1074.92530048</ele>
        <time>2019-10-02T08:01:44.093Z</time>
      </trkpt>
      <trkpt lat="27.361188" lon="87.599597">
        <ele>1081.72530048</ele>
        <time>2019-10-02T08:02:42.093Z</time>
      </trkpt>
      <trkpt lat="27.361185" lon="87.599396">
        <ele>1088.45060096</ele>
        <time>2019-10-02T08:03:42.093Z</time>
      </trkpt>
      <trkpt lat="27.361045" lon="87.599567">
        <ele>1090</ele>
        <time>2019-10-02T08:04:42.093Z</time>
      </trkpt>
      <trkpt lat="27.361027" lon="87.599212">
        <ele>1092</ele>
        <time>2019-10-02T08:05:42.093Z</time>
      </trkpt>
      <trkpt lat="27.360379" lon="87.599594">
        <ele>1097</ele>
        <time>2019-10-02T08:06:42.093Z</time>
      </trkpt>
      <trkpt lat="27.360735" lon="87.599026">
        <ele>1097.07469952</ele>
        <time>2019-10-02T08:07:44.093Z</time>
      </trkpt>
      <trkpt lat="27.360427" lon="87.598922">
        <ele>1097.72530048</ele>
        <time>2019-10-02T08:09:12.093Z</time>
      </trkpt>
      <trkpt lat="27.359997" lon="87.598438">
        <ele>1100.72530048</ele>
        <time>2019-10-02T08:10:12.093Z</time>
      </trkpt>
      <trkpt lat="27.360082" lon="87.59784">
        <ele>1105</ele>
        <time>2019-10-02T08:11:22.093Z</time>
      </trkpt>
      <trkpt lat="27.360129" lon="87.597389">
        <ele>1109.72530048</ele>
        <time>2019-10-02T08:12:22.093Z</time>
      </trkpt>
      <trkpt lat="27.360137" lon="87.5968">
        <ele>1114</ele>
        <time>2019-10-02T08:13:22.093Z</time>
      </trkpt>
      <trkpt lat="27.360342" lon="87.59652">
        <ele>1119</ele>
        <time>2019-10-02T08:14:22.093Z</time>
      </trkpt>
      <trkpt lat="27.360675" lon="87.596213">
        <ele>1121</ele>
        <time>2019-10-02T08:15:07.093Z</time>
      </trkpt>
      <trkpt lat="27.360986" lon="87.595898">
        <ele>1123</ele>
        <time>2019-10-02T08:15:52.093Z</time>
      </trkpt>
      <trkpt lat="27.361457" lon="87.595788">
        <ele>1127.82530048</ele>
        <time>2019-10-02T08:16:43.093Z</time>
      </trkpt>
      <trkpt lat="27.361687" lon="87.595591">
        <ele>1135.65060096</ele>
        <time>2019-10-02T08:17:43.093Z</time>
      </trkpt>
      <trkpt lat="27.361905" lon="87.595394">
        <ele>1141.45060096</ele>
        <time>2019-10-02T08:18:42.093Z</time>
      </trkpt>
      <trkpt lat="27.36216" lon="87.595226">
        <ele>1148</ele>
        <time>2019-10-02T08:19:40.093Z</time>
      </trkpt>
      <trkpt lat="27.362072" lon="87.59501">
        <ele>1154</ele>
        <time>2019-10-02T08:20:42.093Z</time>
      </trkpt>
      <trkpt lat="27.362094" lon="87.595134">
        <ele>1155</ele>
        <time>2019-10-02T08:21:42.093Z</time>
      </trkpt>
      <trkpt lat="27.362046" lon="87.594966">
        <ele>1155</ele>
        <time>2019-10-02T08:24:44.093Z</time>
      </trkpt>
      <trkpt lat="27.362282" lon="87.594978">
        <ele>1155.27469952</ele>
        <time>2019-10-02T08:26:42.093Z</time>
      </trkpt>
      <trkpt lat="27.362042" lon="87.595163">
        <ele>1155</ele>
        <time>2019-10-02T08:27:42.093Z</time>
      </trkpt>
      <trkpt lat="27.361787" lon="87.595066">
        <ele>1156</ele>
        <time>2019-10-02T08:28:43.093Z</time>
      </trkpt>
      <trkpt lat="27.362123" lon="87.595161">
        <ele>1156</ele>
        <time>2019-10-02T08:29:45.093Z</time>
      </trkpt>
      <trkpt lat="27.361692" lon="87.595256">
        <ele>1160</ele>
        <time>2019-10-02T08:30:42.093Z</time>
      </trkpt>
      <trkpt lat="27.361677" lon="87.594908">
        <ele>1162.82447626756</ele>
        <time>2019-10-02T08:31:43.093Z</time>
      </trkpt>
      <trkpt lat="27.361474" lon="87.595039">
        <ele>1165.85060096</ele>
        <time>2019-10-02T08:32:44.093Z</time>
      </trkpt>
      <trkpt lat="27.360943" lon="87.595297">
        <ele>1168.62530048</ele>
        <time>2019-10-02T08:34:41.093Z</time>
      </trkpt>
      <trkpt lat="27.360813" lon="87.595044">
        <ele>1178.92530048</ele>
        <time>2019-10-02T08:35:44.093Z</time>
      </trkpt>
      <trkpt lat="27.360618" lon="87.595007">
        <ele>1184.72530048</ele>
        <time>2019-10-02T08:36:42.093Z</time>
      </trkpt>
      <trkpt lat="27.360437" lon="87.594958">
        <ele>1189.72530048</ele>
        <time>2019-10-02T08:37:42.093Z</time>
      </trkpt>
      <trkpt lat="27.360168" lon="87.594955">
        <ele>1198.72530048</ele>
        <time>2019-10-02T08:38:42.093Z</time>
      </trkpt>
      <trkpt lat="27.359962" lon="87.594928">
        <ele>1206</ele>
        <time>2019-10-02T08:39:46.093Z</time>
      </trkpt>
      <trkpt lat="27.359696" lon="87.594879">
        <ele>1213.12530048</ele>
        <time>2019-10-02T08:40:46.093Z</time>
      </trkpt>
      <trkpt lat="27.359483" lon="87.594804">
        <ele>1220.02530048</ele>
        <time>2019-10-02T08:41:45.093Z</time>
      </trkpt>
      <trkpt lat="27.359042" lon="87.594758">
        <ele>1225.1235470131</ele>
        <time>2019-10-02T08:42:46.093Z</time>
      </trkpt>
      <trkpt lat="27.358812" lon="87.594833">
        <ele>1233</ele>
        <time>2019-10-02T08:43:47.093Z</time>
      </trkpt>
      <trkpt lat="27.358432" lon="87.594791">
        <ele>1233.25060096</ele>
        <time>2019-10-02T08:44:46.093Z</time>
      </trkpt>
      <trkpt lat="27.358019" lon="87.594686">
        <ele>1236.02527521288</ele>
        <time>2019-10-02T08:45:45.093Z</time>
      </trkpt>
      <trkpt lat="27.357946" lon="87.594195">
        <ele>1231</ele>
        <time>2019-10-02T08:46:47.093Z</time>
      </trkpt>
      <trkpt lat="27.35775" lon="87.593898">
        <ele>1235</ele>
        <time>2019-10-02T08:47:47.093Z</time>
      </trkpt>
      <trkpt lat="27.35761" lon="87.593936">
        <ele>1237.05055042575</ele>
        <time>2019-10-02T08:48:45.093Z</time>
      </trkpt>
      <trkpt lat="27.357213" lon="87.593645">
        <ele>1242.92530048</ele>
        <time>2019-10-02T08:49:44.093Z</time>
      </trkpt>
      <trkpt lat="27.357" lon="87.593186">
        <ele>1245</ele>
        <time>2019-10-02T08:50:53.093Z</time>
      </trkpt>
      <trkpt lat="27.356631" lon="87.592871">
        <ele>1245.22507547655</ele>
        <time>2019-10-02T08:51:47.093Z</time>
      </trkpt>
      <trkpt lat="27.356899" lon="87.592411">
        <ele>1247</ele>
        <time>2019-10-02T08:53:05.093Z</time>
      </trkpt>
      <trkpt lat="27.356835" lon="87.592252">
        <ele>1247</ele>
        <time>2019-10-02T08:53:51.093Z</time>
      </trkpt>
      <trkpt lat="27.357128" lon="87.591432">
        <ele>1253</ele>
        <time>2019-10-02T08:56:14.093Z</time>
      </trkpt>
      <trkpt lat="27.356899" lon="87.591196">
        <ele>1254.42530048</ele>
        <time>2019-10-02T08:56:59.093Z</time>
      </trkpt>
      <trkpt lat="27.356814" lon="87.590938">
        <ele>1255</ele>
        <time>2019-10-02T08:58:22.093Z</time>
      </trkpt>
      <trkpt lat="27.356585" lon="87.590278">
        <ele>1251</ele>
        <time>2019-10-02T08:59:22.093Z</time>
      </trkpt>
      <trkpt lat="27.356218" lon="87.589709">
        <ele>1253</ele>
        <time>2019-10-02T09:00:22.093Z</time>
      </trkpt>
      <trkpt lat="27.356065" lon="87.589408">
        <ele>1254</ele>
        <time>2019-10-02T09:01:07.093Z</time>
      </trkpt>
      <trkpt lat="27.356279" lon="87.588952">
        <ele>1255</ele>
        <time>2019-10-02T09:01:52.093Z</time>
      </trkpt>
      <trkpt lat="27.356256" lon="87.588281">
        <ele>1258.92530048</ele>
        <time>2019-10-02T09:02:54.093Z</time>
      </trkpt>
      <trkpt lat="27.356217" lon="87.587581">
        <ele>1258</ele>
        <time>2019-10-02T09:03:53.093Z</time>
      </trkpt>
      <trkpt lat="27.356149" lon="87.586879">
        <ele>1257.07469952</ele>
        <time>2019-10-02T09:04:54.093Z</time>
      </trkpt>
      <trkpt lat="27.356578" lon="87.586051">
        <ele>1259.32530048</ele>
        <time>2019-10-02T09:06:18.093Z</time>
      </trkpt>
      <trkpt lat="27.356573" lon="87.585768">
        <ele>1260.42530048</ele>
        <time>2019-10-02T09:07:29.093Z</time>
      </trkpt>
      <trkpt lat="27.356061" lon="87.585085">
        <ele>1261.82530048</ele>
        <time>2019-10-02T09:08:33.093Z</time>
      </trkpt>
      <trkpt lat="27.355693" lon="87.584306">
        <ele>1271.72530048</ele>
        <time>2019-10-02T09:10:22.093Z</time>
      </trkpt>
      <trkpt lat="27.355501" lon="87.583708">
        <ele>1273</ele>
        <time>2019-10-02T09:11:22.093Z</time>
      </trkpt>
      <trkpt lat="27.354882" lon="87.583075">
        <ele>1272.05060096</ele>
        <time>2019-10-02T09:13:00.093Z</time>
      </trkpt>
      <trkpt lat="27.354586" lon="87.582731">
        <ele>1278</ele>
        <time>2019-10-02T09:13:45.093Z</time>
      </trkpt>
      <trkpt lat="27.354259" lon="87.582465">
        <ele>1281.12530048</ele>
        <time>2019-10-02T09:14:46.093Z</time>
      </trkpt>
      <trkpt lat="27.354403" lon="87.582107">
        <ele>1284.07469952</ele>
        <time>2019-10-02T09:15:44.093Z</time>
      </trkpt>
      <trkpt lat="27.354363" lon="87.58181">
        <ele>1289.05060096</ele>
        <time>2019-10-02T09:16:45.093Z</time>
      </trkpt>
      <trkpt lat="27.354444" lon="87.581239">
        <ele>1294</ele>
        <time>2019-10-02T09:17:45.093Z</time>
      </trkpt>
      <trkpt lat="27.354299" lon="87.58073">
        <ele>1298.02527521288</ele>
        <time>2019-10-02T09:18:45.093Z</time>
      </trkpt>
      <trkpt lat="27.353855" lon="87.580092">
        <ele>1302</ele>
        <time>2019-10-02T09:19:44.093Z</time>
      </trkpt>
      <trkpt lat="27.353596" lon="87.579613">
        <ele>1302</ele>
        <time>2019-10-02T09:20:44.093Z</time>
      </trkpt>
      <trkpt lat="27.353964" lon="87.579109">
        <ele>1306</ele>
        <time>2019-10-02T09:22:03.093Z</time>
      </trkpt>
      <trkpt lat="27.354052" lon="87.57894">
        <ele>1310</ele>
        <time>2019-10-02T09:22:48.093Z</time>
      </trkpt>
      <trkpt lat="27.354368" lon="87.578764">
        <ele>1311</ele>
        <time>2019-10-02T09:23:45.093Z</time>
      </trkpt>
      <trkpt lat="27.35471" lon="87.578465">
        <ele>1309</ele>
        <time>2019-10-02T09:24:44.093Z</time>
      </trkpt>
      <trkpt lat="27.354888" lon="87.577877">
        <ele>1306</ele>
        <time>2019-10-02T09:25:45.093Z</time>
      </trkpt>
      <trkpt lat="27.354983" lon="87.577418">
        <ele>1307</ele>
        <time>2019-10-02T09:26:44.093Z</time>
      </trkpt>
      <trkpt lat="27.354743" lon="87.576783">
        <ele>1304.07469952</ele>
        <time>2019-10-02T09:27:44.093Z</time>
      </trkpt>
      <trkpt lat="27.354616" lon="87.576164">
        <ele>1305</ele>
        <time>2019-10-02T09:28:44.093Z</time>
      </trkpt>
      <trkpt lat="27.354552" lon="87.575467">
        <ele>1306</ele>
        <time>2019-10-02T09:29:45.093Z</time>
      </trkpt>
      <trkpt lat="27.354457" lon="87.574709">
        <ele>1305</ele>
        <time>2019-10-02T09:30:44.093Z</time>
      </trkpt>
      <trkpt lat="27.3541" lon="87.574081">
        <ele>1302</ele>
        <time>2019-10-02T09:31:44.093Z</time>
      </trkpt>
      <trkpt lat="27.353928" lon="87.573552">
        <ele>1301.07469952</ele>
        <time>2019-10-02T09:32:44.093Z</time>
      </trkpt>
      <trkpt lat="27.353668" lon="87.573288">
        <ele>1302</ele>
        <time>2019-10-02T09:33:43.093Z</time>
      </trkpt>
      <trkpt lat="27.353789" lon="87.572764">
        <ele>1303.85060096</ele>
        <time>2019-10-02T09:34:44.093Z</time>
      </trkpt>
      <trkpt lat="27.353493" lon="87.572271">
        <ele>1305.92530048</ele>
        <time>2019-10-02T09:35:44.093Z</time>
      </trkpt>
      <trkpt lat="27.353441" lon="87.571602">
        <ele>1305.92530048</ele>
        <time>2019-10-02T09:36:44.093Z</time>
      </trkpt>
      <trkpt lat="27.35359" lon="87.570974">
        <ele>1306.07469952</ele>
        <time>2019-10-02T09:37:44.093Z</time>
      </trkpt>
      <trkpt lat="27.353791" lon="87.570294">
        <ele>1303</ele>
        <time>2019-10-02T09:38:44.093Z</time>
      </trkpt>
      <trkpt lat="27.354114" lon="87.569751">
        <ele>1303.02530048</ele>
        <time>2019-10-02T09:39:45.093Z</time>
      </trkpt>
      <trkpt lat="27.354408" lon="87.568993">
        <ele>1306.92530048</ele>
        <time>2019-10-02T09:40:44.093Z</time>
      </trkpt>
      <trkpt lat="27.354998" lon="87.568569">
        <ele>1313</ele>
        <time>2019-10-02T09:42:07.093Z</time>
      </trkpt>
      <trkpt lat="27.356221" lon="87.567617">
        <ele>1322</ele>
        <time>2019-10-02T09:44:36.093Z</time>
      </trkpt>
      <trkpt lat="27.357715" lon="87.566461">
        <ele>1324</ele>
        <time>2019-10-02T09:47:34.093Z</time>
      </trkpt>
      <trkpt lat="27.358387" lon="87.565809">
        <ele>1333.72530048</ele>
        <time>2019-10-02T09:49:22.093Z</time>
      </trkpt>
      <trkpt lat="27.358618" lon="87.565207">
        <ele>1339.72530048</ele>
        <time>2019-10-02T09:50:22.093Z</time>
      </trkpt>
      <trkpt lat="27.358975" lon="87.564731">
        <ele>1342.72530048</ele>
        <time>2019-10-02T09:51:22.093Z</time>
      </trkpt>
      <trkpt lat="27.358367" lon="87.563738">
        <ele>1343.02530048</ele>
        <time>2019-10-02T09:53:05.093Z</time>
      </trkpt>
      <trkpt lat="27.358131" lon="87.563227">
        <ele>1344.52530048</ele>
        <time>2019-10-02T09:53:50.093Z</time>
      </trkpt>
      <trkpt lat="27.357722" lon="87.562701">
        <ele>1346</ele>
        <time>2019-10-02T09:54:45.093Z</time>
      </trkpt>
      <trkpt lat="27.357215" lon="87.562418">
        <ele>1347.92530048</ele>
        <time>2019-10-02T09:55:44.093Z</time>
      </trkpt>
      <trkpt lat="27.356491" lon="87.562196">
        <ele>1349.82530048</ele>
        <time>2019-10-02T09:56:43.093Z</time>
      </trkpt>
      <trkpt lat="27.355985" lon="87.561954">
        <ele>1353.72502559359</ele>
        <time>2019-10-02T09:57:42.093Z</time>
      </trkpt>
      <trkpt lat="27.355433" lon="87.561653">
        <ele>1356</ele>
        <time>2019-10-02T09:58:44.093Z</time>
      </trkpt>
      <trkpt lat="27.354934" lon="87.561268">
        <ele>1358</ele>
        <time>2019-10-02T09:59:43.093Z</time>
      </trkpt>
      <trkpt lat="27.354303" lon="87.561017">
        <ele>1359.92530048</ele>
        <time>2019-10-02T10:00:44.093Z</time>
      </trkpt>
      <trkpt lat="27.353835" lon="87.560745">
        <ele>1363.07469952</ele>
        <time>2019-10-02T10:01:44.093Z</time>
      </trkpt>
      <trkpt lat="27.353413" lon="87.560337">
        <ele>1366.92515073356</ele>
        <time>2019-10-02T10:02:44.093Z</time>
      </trkpt>
      <trkpt lat="27.352905" lon="87.55995">
        <ele>1372</ele>
        <time>2019-10-02T10:03:43.093Z</time>
      </trkpt>
      <trkpt lat="27.352637" lon="87.559404">
        <ele>1375.05060096</ele>
        <time>2019-10-02T10:04:40.093Z</time>
      </trkpt>
      <trkpt lat="27.352754" lon="87.559298">
        <ele>1376.97469952</ele>
        <time>2019-10-02T10:06:45.093Z</time>
      </trkpt>
      <trkpt lat="27.352694" lon="87.559205">
        <ele>1377</ele>
        <time>2019-10-02T10:07:41.093Z</time>
      </trkpt>
      <trkpt lat="27.352706" lon="87.559414">
        <ele>1377</ele>
        <time>2019-10-02T10:08:44.093Z</time>
      </trkpt>
      <trkpt lat="27.352756" lon="87.559273">
        <ele>1377</ele>
        <time>2019-10-02T10:09:42.093Z</time>
      </trkpt>
      <trkpt lat="27.352598" lon="87.559278">
        <ele>1378</ele>
        <time>2019-10-02T10:10:43.093Z</time>
      </trkpt>
      <trkpt lat="27.352816" lon="87.559261">
        <ele>1378</ele>
        <time>2019-10-02T10:12:43.093Z</time>
      </trkpt>
      <trkpt lat="27.352709" lon="87.559393">
        <ele>1379</ele>
        <time>2019-10-02T10:13:42.093Z</time>
      </trkpt>
      <trkpt lat="27.35277" lon="87.55915">
        <ele>1379.27469952</ele>
        <time>2019-10-02T10:14:42.093Z</time>
      </trkpt>
      <trkpt lat="27.352619" lon="87.559183">
        <ele>1379</ele>
        <time>2019-10-02T10:15:42.093Z</time>
      </trkpt>
      <trkpt lat="27.352554" lon="87.559064">
        <ele>1381</ele>
        <time>2019-10-02T10:16:40.093Z</time>
      </trkpt>
      <trkpt lat="27.352346" lon="87.558764">
        <ele>1384.52530048</ele>
        <time>2019-10-02T10:17:40.093Z</time>
      </trkpt>
      <trkpt lat="27.352012" lon="87.558646">
        <ele>1388.92530048</ele>
        <time>2019-10-02T10:18:44.093Z</time>
      </trkpt>
      <trkpt lat="27.351597" lon="87.558093">
        <ele>1392</ele>
        <time>2019-10-02T10:19:43.093Z</time>
      </trkpt>
      <trkpt lat="27.351136" lon="87.557818">
        <ele>1396</ele>
        <time>2019-10-02T10:20:42.093Z</time>
      </trkpt>
      <trkpt lat="27.350581" lon="87.557493">
        <ele>1399</ele>
        <time>2019-10-02T10:21:42.093Z</time>
      </trkpt>
      <trkpt lat="27.3502" lon="87.557191">
        <ele>1401.05060096</ele>
        <time>2019-10-02T10:22:40.093Z</time>
      </trkpt>
      <trkpt lat="27.350073" lon="87.556508">
        <ele>1403.27469952</ele>
        <time>2019-10-02T10:23:42.093Z</time>
      </trkpt>
      <trkpt lat="27.349785" lon="87.555951">
        <ele>1407.10739968</ele>
        <time>2019-10-02T10:24:40.377Z</time>
      </trkpt>
      <trkpt lat="27.349418" lon="87.555526">
        <ele>1413.05060096</ele>
        <time>2019-10-02T10:25:40.093Z</time>
      </trkpt>
      <trkpt lat="27.349114" lon="87.555197">
        <ele>1419</ele>
        <time>2019-10-02T10:26:40.093Z</time>
      </trkpt>
      <trkpt lat="27.348864" lon="87.555313">
        <ele>1421</ele>
        <time>2019-10-02T10:27:42.093Z</time>
      </trkpt>
      <trkpt lat="27.348742" lon="87.555477">
        <ele>1420</ele>
        <time>2019-10-02T10:28:47.093Z</time>
      </trkpt>
      <trkpt lat="27.348164" lon="87.555465">
        <ele>1421</ele>
        <time>2019-10-02T10:29:45.093Z</time>
      </trkpt>
      <trkpt lat="27.347509" lon="87.555477">
        <ele>1420.97469952</ele>
        <time>2019-10-02T10:30:45.093Z</time>
      </trkpt>
      <trkpt lat="27.347157" lon="87.555303">
        <ele>1416</ele>
        <time>2019-10-02T10:31:44.093Z</time>
      </trkpt>
      <trkpt lat="27.347403" lon="87.554713">
        <ele>1421</ele>
        <time>2019-10-02T10:32:42.093Z</time>
      </trkpt>
      <trkpt lat="27.346984" lon="87.554373">
        <ele>1419</ele>
        <time>2019-10-02T10:33:41.093Z</time>
      </trkpt>
      <trkpt lat="27.346551" lon="87.553835">
        <ele>1420</ele>
        <time>2019-10-02T10:34:43.093Z</time>
      </trkpt>
      <trkpt lat="27.346025" lon="87.553513">
        <ele>1420.62530048</ele>
        <time>2019-10-02T10:35:41.093Z</time>
      </trkpt>
      <trkpt lat="27.34566" lon="87.552991">
        <ele>1427</ele>
        <time>2019-10-02T10:36:42.093Z</time>
      </trkpt>
      <trkpt lat="27.345111" lon="87.552471">
        <ele>1425</ele>
        <time>2019-10-02T10:37:45.093Z</time>
      </trkpt>
      <trkpt lat="27.344652" lon="87.552165">
        <ele>1425</ele>
        <time>2019-10-02T10:38:44.093Z</time>
      </trkpt>
      <trkpt lat="27.344226" lon="87.551753">
        <ele>1428.27469952</ele>
        <time>2019-10-02T10:39:42.093Z</time>
      </trkpt>
      <trkpt lat="27.343904" lon="87.551164">
        <ele>1429</ele>
        <time>2019-10-02T10:40:41.093Z</time>
      </trkpt>
      <trkpt lat="27.343572" lon="87.550528">
        <ele>1431</ele>
        <time>2019-10-02T10:41:43.093Z</time>
      </trkpt>
      <trkpt lat="27.343488" lon="87.549914">
        <ele>1435</ele>
        <time>2019-10-02T10:42:43.093Z</time>
      </trkpt>
      <trkpt lat="27.343159" lon="87.549147">
        <ele>1435</ele>
        <time>2019-10-02T10:43:44.093Z</time>
      </trkpt>
      <trkpt lat="27.342872" lon="87.548913">
        <ele>1433</ele>
        <time>2019-10-02T10:44:43.093Z</time>
      </trkpt>
      <trkpt lat="27.343251" lon="87.548868">
        <ele>1432.52530048</ele>
        <time>2019-10-02T10:45:40.093Z</time>
      </trkpt>
      <trkpt lat="27.343683" lon="87.548652">
        <ele>1438.72530048</ele>
        <time>2019-10-02T10:46:42.093Z</time>
      </trkpt>
      <trkpt lat="27.34415" lon="87.548327">
        <ele>1443.17469952</ele>
        <time>2019-10-02T10:47:43.093Z</time>
      </trkpt>
      <trkpt lat="27.344406" lon="87.547921">
        <ele>1446.92530048</ele>
        <time>2019-10-02T10:48:44.093Z</time>
      </trkpt>
      <trkpt lat="27.344884" lon="87.547649">
        <ele>1450</ele>
        <time>2019-10-02T10:49:43.093Z</time>
      </trkpt>
      <trkpt lat="27.345228" lon="87.547324">
        <ele>1454.25060096</ele>
        <time>2019-10-02T10:50:41.093Z</time>
      </trkpt>
      <trkpt lat="27.345803" lon="87.54692">
        <ele>1455.07469952</ele>
        <time>2019-10-02T10:51:44.093Z</time>
      </trkpt>
      <trkpt lat="27.346156" lon="87.546503">
        <ele>1460.92530048</ele>
        <time>2019-10-02T10:52:44.093Z</time>
      </trkpt>
      <trkpt lat="27.346565" lon="87.546407">
        <ele>1466.72530048</ele>
        <time>2019-10-02T10:53:42.093Z</time>
      </trkpt>
      <trkpt lat="27.347103" lon="87.546343">
        <ele>1472</ele>
        <time>2019-10-02T10:54:43.093Z</time>
      </trkpt>
      <trkpt lat="27.347324" lon="87.54625">
        <ele>1479.82530048</ele>
        <time>2019-10-02T10:55:43.093Z</time>
      </trkpt>
      <trkpt lat="27.347941" lon="87.546135">
        <ele>1479.02530048</ele>
        <time>2019-10-02T10:56:45.093Z</time>
      </trkpt>
      <trkpt lat="27.348384" lon="87.545743">
        <ele>1483</ele>
        <time>2019-10-02T10:57:43.093Z</time>
      </trkpt>
      <trkpt lat="27.349127" lon="87.545659">
        <ele>1485.92530048</ele>
        <time>2019-10-02T10:58:44.093Z</time>
      </trkpt>
      <trkpt lat="27.349684" lon="87.54574">
        <ele>1486.92530048</ele>
        <time>2019-10-02T10:59:44.093Z</time>
      </trkpt>
      <trkpt lat="27.350298" lon="87.545681">
        <ele>1492</ele>
        <time>2019-10-02T11:00:43.093Z</time>
      </trkpt>
      <trkpt lat="27.350922" lon="87.545451">
        <ele>1491.82530048</ele>
        <time>2019-10-02T11:01:43.093Z</time>
      </trkpt>
      <trkpt lat="27.351438" lon="87.545246">
        <ele>1498.05060096</ele>
        <time>2019-10-02T11:02:40.093Z</time>
      </trkpt>
      <trkpt lat="27.351744" lon="87.5449">
        <ele>1500.52530048</ele>
        <time>2019-10-02T11:03:40.093Z</time>
      </trkpt>
      <trkpt lat="27.351832" lon="87.544341">
        <ele>1502</ele>
        <time>2019-10-02T11:04:44.093Z</time>
      </trkpt>
      <trkpt lat="27.351427" lon="87.543777">
        <ele>1504.07469952</ele>
        <time>2019-10-02T11:05:44.093Z</time>
      </trkpt>
      <trkpt lat="27.351059" lon="87.543207">
        <ele>1506</ele>
        <time>2019-10-02T11:06:43.093Z</time>
      </trkpt>
      <trkpt lat="27.350563" lon="87.542706">
        <ele>1507.92530048</ele>
        <time>2019-10-02T11:07:44.093Z</time>
      </trkpt>
      <trkpt lat="27.350605" lon="87.542135">
        <ele>1510.92530048</ele>
        <time>2019-10-02T11:08:44.093Z</time>
      </trkpt>
      <trkpt lat="27.350443" lon="87.541394">
        <ele>1511.62760064</ele>
        <time>2019-10-02T11:09:51.116Z</time>
      </trkpt>
      <trkpt lat="27.350358" lon="87.540769">
        <ele>1516.6344</ele>
        <time>2019-10-02T11:10:51.184Z</time>
      </trkpt>
      <trkpt lat="27.350304" lon="87.540468">
        <ele>1520</ele>
        <time>2019-10-02T11:11:44.093Z</time>
      </trkpt>
      <trkpt lat="27.350001" lon="87.539889">
        <ele>1520</ele>
        <time>2019-10-02T11:12:43.093Z</time>
      </trkpt>
      <trkpt lat="27.34998" lon="87.539207">
        <ele>1524</ele>
        <time>2019-10-02T11:13:43.093Z</time>
      </trkpt>
      <trkpt lat="27.349909" lon="87.538535">
        <ele>1525.52530048</ele>
        <time>2019-10-02T11:14:40.093Z</time>
      </trkpt>
      <trkpt lat="27.349859" lon="87.537793">
        <ele>1525</ele>
        <time>2019-10-02T11:15:43.093Z</time>
      </trkpt>
      <trkpt lat="27.34997" lon="87.53709">
        <ele>1525</ele>
        <time>2019-10-02T11:16:42.093Z</time>
      </trkpt>
      <trkpt lat="27.349947" lon="87.536349">
        <ele>1525.52530048</ele>
        <time>2019-10-02T11:17:40.093Z</time>
      </trkpt>
      <trkpt lat="27.350053" lon="87.535731">
        <ele>1524</ele>
        <time>2019-10-02T11:18:44.093Z</time>
      </trkpt>
      <trkpt lat="27.350134" lon="87.535024">
        <ele>1524</ele>
        <time>2019-10-02T11:19:40.093Z</time>
      </trkpt>
      <trkpt lat="27.349908" lon="87.534428">
        <ele>1526</ele>
        <time>2019-10-02T11:20:41.093Z</time>
      </trkpt>
      <trkpt lat="27.350061" lon="87.534575">
        <ele>1527</ele>
        <time>2019-10-02T11:21:40.093Z</time>
      </trkpt>
      <trkpt lat="27.350044" lon="87.534197">
        <ele>1522.17469952</ele>
        <time>2019-10-02T11:22:43.093Z</time>
      </trkpt>
      <trkpt lat="27.349915" lon="87.534138">
        <ele>1522</ele>
        <time>2019-10-02T11:23:42.093Z</time>
      </trkpt>
      <trkpt lat="27.350013" lon="87.534428">
        <ele>1524.04965091503</ele>
        <time>2019-10-02T11:24:40.093Z</time>
      </trkpt>
      <trkpt lat="27.350123" lon="87.534397">
        <ele>1526</ele>
        <time>2019-10-02T11:25:43.093Z</time>
      </trkpt>
      <trkpt lat="27.350015" lon="87.534408">
        <ele>1526</ele>
        <time>2019-10-02T11:26:43.093Z</time>
      </trkpt>
      <trkpt lat="27.35023" lon="87.534383">
        <ele>1526</ele>
        <time>2019-10-02T11:27:42.093Z</time>
      </trkpt>
      <trkpt lat="27.349871" lon="87.53445">
        <ele>1683.80004882813</ele>
        <time>2019-10-03T05:31:03.214Z</time>
      </trkpt>
      <trkpt lat="27.349948" lon="87.534387">
        <ele>1649</ele>
        <time>2019-10-03T05:31:29.214Z</time>
      </trkpt>
      <trkpt lat="27.34977" lon="87.534285">
        <ele>1656</ele>
        <time>2019-10-03T05:33:33.214Z</time>
      </trkpt>
      <trkpt lat="27.349323" lon="87.53409">
        <ele>1662</ele>
        <time>2019-10-03T05:34:34.214Z</time>
      </trkpt>
      <trkpt lat="27.348842" lon="87.533756">
        <ele>1668.57240064</ele>
        <time>2019-10-03T05:35:48.214Z</time>
      </trkpt>
      <trkpt lat="27.348401" lon="87.533628">
        <ele>1669.12759936</ele>
        <time>2019-10-03T05:36:51.214Z</time>
      </trkpt>
      <trkpt lat="27.348196" lon="87.533424">
        <ele>1679</ele>
        <time>2019-10-03T05:38:04.214Z</time>
      </trkpt>
      <trkpt lat="27.347891" lon="87.533315">
        <ele>1688</ele>
        <time>2019-10-03T05:39:13.214Z</time>
      </trkpt>
      <trkpt lat="27.347604" lon="87.533103">
        <ele>1695.34480128</ele>
        <time>2019-10-03T05:40:24.214Z</time>
      </trkpt>
      <trkpt lat="27.347385" lon="87.5328">
        <ele>1701.62759936</ele>
        <time>2019-10-03T05:41:26.214Z</time>
      </trkpt>
      <trkpt lat="27.347062" lon="87.532771">
        <ele>1706</ele>
        <time>2019-10-03T05:42:27.214Z</time>
      </trkpt>
      <trkpt lat="27.346651" lon="87.532662">
        <ele>1710</ele>
        <time>2019-10-03T05:44:47.214Z</time>
      </trkpt>
      <trkpt lat="27.346387" lon="87.53259">
        <ele>1714.97240064</ele>
        <time>2019-10-03T05:45:32.214Z</time>
      </trkpt>
      <trkpt lat="27.346157" lon="87.532559">
        <ele>1719</ele>
        <time>2019-10-03T05:46:17.214Z</time>
      </trkpt>
      <trkpt lat="27.346013" lon="87.532531">
        <ele>1725.54480128</ele>
        <time>2019-10-03T05:47:10.214Z</time>
      </trkpt>
      <trkpt lat="27.345831" lon="87.532342">
        <ele>1732.47240064</ele>
        <time>2019-10-03T05:48:07.214Z</time>
      </trkpt>
      <trkpt lat="27.345628" lon="87.532035">
        <ele>1738.47240064</ele>
        <time>2019-10-03T05:49:07.214Z</time>
      </trkpt>
      <trkpt lat="27.345257" lon="87.531728">
        <ele>1742.94480128</ele>
        <time>2019-10-03T05:50:07.214Z</time>
      </trkpt>
      <trkpt lat="27.344773" lon="87.531691">
        <ele>1748</ele>
        <time>2019-10-03T05:51:05.214Z</time>
      </trkpt>
      <trkpt lat="27.344352" lon="87.531619">
        <ele>1752.47240064</ele>
        <time>2019-10-03T05:52:07.214Z</time>
      </trkpt>
      <trkpt lat="27.343839" lon="87.531455">
        <ele>1758.54480128</ele>
        <time>2019-10-03T05:54:05.214Z</time>
      </trkpt>
      <trkpt lat="27.343429" lon="87.53133">
        <ele>1764.94385772431</ele>
        <time>2019-10-03T05:55:07.214Z</time>
      </trkpt>
      <trkpt lat="27.34304" lon="87.531214">
        <ele>1770.47240064</ele>
        <time>2019-10-03T05:56:07.214Z</time>
      </trkpt>
      <trkpt lat="27.342545" lon="87.531111">
        <ele>1775.57240064</ele>
        <time>2019-10-03T05:57:08.214Z</time>
      </trkpt>
      <trkpt lat="27.342128" lon="87.530975">
        <ele>1779.47240064</ele>
        <time>2019-10-03T05:58:07.214Z</time>
      </trkpt>
      <trkpt lat="27.341775" lon="87.53094">
        <ele>1782</ele>
        <time>2019-10-03T05:59:08.214Z</time>
      </trkpt>
      <trkpt lat="27.341716" lon="87.53046">
        <ele>1786</ele>
        <time>2019-10-03T06:00:05.214Z</time>
      </trkpt>
      <trkpt lat="27.341104" lon="87.530225">
        <ele>1789</ele>
        <time>2019-10-03T06:01:09.214Z</time>
      </trkpt>
      <trkpt lat="27.3407" lon="87.53019">
        <ele>1793.57240064</ele>
        <time>2019-10-03T06:02:08.214Z</time>
      </trkpt>
      <trkpt lat="27.340464" lon="87.53016">
        <ele>1800.27240064</ele>
        <time>2019-10-03T06:03:05.214Z</time>
      </trkpt>
      <trkpt lat="27.339865" lon="87.530036">
        <ele>1807.1408</ele>
        <time>2019-10-03T06:04:43.214Z</time>
      </trkpt>
      <trkpt lat="27.339629" lon="87.529943">
        <ele>1812.57250048</ele>
        <time>2019-10-03T06:05:28.214Z</time>
      </trkpt>
      <trkpt lat="27.339355" lon="87.529727">
        <ele>1819.47240064</ele>
        <time>2019-10-03T06:06:47.214Z</time>
      </trkpt>
      <trkpt lat="27.338911" lon="87.529569">
        <ele>1826</ele>
        <time>2019-10-03T06:07:47.214Z</time>
      </trkpt>
      <trkpt lat="27.33834" lon="87.529545">
        <ele>1832.97240064</ele>
        <time>2019-10-03T06:09:32.214Z</time>
      </trkpt>
      <trkpt lat="27.338225" lon="87.529516">
        <ele>1834</ele>
        <time>2019-10-03T06:11:09.214Z</time>
      </trkpt>
      <trkpt lat="27.337847" lon="87.52924">
        <ele>1838</ele>
        <time>2019-10-03T06:12:08.214Z</time>
      </trkpt>
      <trkpt lat="27.33743" lon="87.52909">
        <ele>1851.57240064</ele>
        <time>2019-10-03T06:14:08.214Z</time>
      </trkpt>
      <trkpt lat="27.337177" lon="87.52893">
        <ele>1857.27240064</ele>
        <time>2019-10-03T06:15:05.214Z</time>
      </trkpt>
      <trkpt lat="27.337001" lon="87.528788">
        <ele>1864.54480128</ele>
        <time>2019-10-03T06:16:05.214Z</time>
      </trkpt>
      <trkpt lat="27.336793" lon="87.528718">
        <ele>1873.57240064</ele>
        <time>2019-10-03T06:17:38.214Z</time>
      </trkpt>
      <trkpt lat="27.336619" lon="87.52867">
        <ele>1875</ele>
        <time>2019-10-03T06:22:32.214Z</time>
      </trkpt>
      <trkpt lat="27.336293" lon="87.528816">
        <ele>1878.47240064</ele>
        <time>2019-10-03T06:23:17.214Z</time>
      </trkpt>
      <trkpt lat="27.335851" lon="87.528765">
        <ele>1892.16821328117</ele>
        <time>2019-10-03T06:25:04.214Z</time>
      </trkpt>
      <trkpt lat="27.335209" lon="87.528217">
        <ele>1898.96846369243</ele>
        <time>2019-10-03T06:26:52.214Z</time>
      </trkpt>
      <trkpt lat="27.335054" lon="87.52776">
        <ele>1904.77240064</ele>
        <time>2019-10-03T06:28:00.214Z</time>
      </trkpt>
      <trkpt lat="27.334819" lon="87.527132">
        <ele>1910</ele>
        <time>2019-10-03T06:29:47.214Z</time>
      </trkpt>
      <trkpt lat="27.334398" lon="87.526855">
        <ele>1915.47240064</ele>
        <time>2019-10-03T06:30:47.214Z</time>
      </trkpt>
      <trkpt lat="27.333883" lon="87.526374">
        <ele>1923.07240064</ele>
        <time>2019-10-03T06:32:23.214Z</time>
      </trkpt>
      <trkpt lat="27.333716" lon="87.526245">
        <ele>1925.14480128</ele>
        <time>2019-10-03T06:33:08.214Z</time>
      </trkpt>
      <trkpt lat="27.333586" lon="87.525489">
        <ele>1931</ele>
        <time>2019-10-03T06:34:12.214Z</time>
      </trkpt>
      <trkpt lat="27.333336" lon="87.525269">
        <ele>1936</ele>
        <time>2019-10-03T06:35:11.214Z</time>
      </trkpt>
      <trkpt lat="27.333017" lon="87.524725">
        <ele>1940.77240064</ele>
        <time>2019-10-03T06:36:10.214Z</time>
      </trkpt>
      <trkpt lat="27.332664" lon="87.524506">
        <ele>1944.87240064</ele>
        <time>2019-10-03T06:37:11.214Z</time>
      </trkpt>
      <trkpt lat="27.33276" lon="87.524166">
        <ele>1949.54480128</ele>
        <time>2019-10-03T06:38:10.214Z</time>
      </trkpt>
      <trkpt lat="27.332382" lon="87.523725">
        <ele>1953</ele>
        <time>2019-10-03T06:39:10.214Z</time>
      </trkpt>
      <trkpt lat="27.332432" lon="87.523532">
        <ele>1957</ele>
        <time>2019-10-03T06:40:10.214Z</time>
      </trkpt>
      <trkpt lat="27.332727" lon="87.522956">
        <ele>1963.67207281775</ele>
        <time>2019-10-03T06:41:09.214Z</time>
      </trkpt>
      <trkpt lat="27.332754" lon="87.522354">
        <ele>1963.77162925766</ele>
        <time>2019-10-03T06:42:10.214Z</time>
      </trkpt>
      <trkpt lat="27.332883" lon="87.522004">
        <ele>1968.14480128</ele>
        <time>2019-10-03T06:43:08.214Z</time>
      </trkpt>
      <trkpt lat="27.332815" lon="87.521819">
        <ele>1969</ele>
        <time>2019-10-03T06:44:10.214Z</time>
      </trkpt>
      <trkpt lat="27.332681" lon="87.522054">
        <ele>1971</ele>
        <time>2019-10-03T06:45:07.214Z</time>
      </trkpt>
      <trkpt lat="27.332007" lon="87.522206">
        <ele>1982.14422438247</ele>
        <time>2019-10-03T06:47:03.214Z</time>
      </trkpt>
      <trkpt lat="27.331811" lon="87.522165">
        <ele>1990.47240064</ele>
        <time>2019-10-03T06:48:07.214Z</time>
      </trkpt>
      <trkpt lat="27.331466" lon="87.522134">
        <ele>1995.94480128</ele>
        <time>2019-10-03T06:49:47.214Z</time>
      </trkpt>
      <trkpt lat="27.33131" lon="87.522099">
        <ele>2003.47192886216</ele>
        <time>2019-10-03T06:50:47.214Z</time>
      </trkpt>
      <trkpt lat="27.331043" lon="87.522058">
        <ele>2009</ele>
        <time>2019-10-03T06:51:47.214Z</time>
      </trkpt>
      <trkpt lat="27.330866" lon="87.522039">
        <ele>2014.97240064</ele>
        <time>2019-10-03T06:52:32.214Z</time>
      </trkpt>
      <trkpt lat="27.330641" lon="87.52188">
        <ele>2029</ele>
        <time>2019-10-03T06:54:37.214Z</time>
      </trkpt>
      <trkpt lat="27.33053" lon="87.521852">
        <ele>2035.57240064</ele>
        <time>2019-10-03T06:55:38.214Z</time>
      </trkpt>
      <trkpt lat="27.33045" lon="87.521763">
        <ele>2040.94480128</ele>
        <time>2019-10-03T06:56:47.214Z</time>
      </trkpt>
      <trkpt lat="27.330283" lon="87.521724">
        <ele>2048.47240064</ele>
        <time>2019-10-03T06:57:47.214Z</time>
      </trkpt>
      <trkpt lat="27.329909" lon="87.521549">
        <ele>2054.97240064</ele>
        <time>2019-10-03T06:59:02.214Z</time>
      </trkpt>
      <trkpt lat="27.329653" lon="87.521198">
        <ele>2063.97240064</ele>
        <time>2019-10-03T07:00:32.214Z</time>
      </trkpt>
      <trkpt lat="27.329553" lon="87.520967">
        <ele>2069.47240064</ele>
        <time>2019-10-03T07:01:17.214Z</time>
      </trkpt>
      <trkpt lat="27.329158" lon="87.521039">
        <ele>2074.57240064</ele>
        <time>2019-10-03T07:02:08.214Z</time>
      </trkpt>
      <trkpt lat="27.328973" lon="87.520593">
        <ele>2080.67172912583</ele>
        <time>2019-10-03T07:03:09.214Z</time>
      </trkpt>
      <trkpt lat="27.328763" lon="87.520632">
        <ele>2087.27240064</ele>
        <time>2019-10-03T07:04:05.214Z</time>
      </trkpt>
      <trkpt lat="27.328777" lon="87.520243">
        <ele>2095.14480128</ele>
        <time>2019-10-03T07:05:08.214Z</time>
      </trkpt>
      <trkpt lat="27.328819" lon="87.520081">
        <ele>2103.02759936</ele>
        <time>2019-10-03T07:06:22.214Z</time>
      </trkpt>
      <trkpt lat="27.328743" lon="87.519818">
        <ele>2108.57240064</ele>
        <time>2019-10-03T07:07:08.214Z</time>
      </trkpt>
      <trkpt lat="27.328641" lon="87.519645">
        <ele>2114.47240064</ele>
        <time>2019-10-03T07:08:07.214Z</time>
      </trkpt>
      <trkpt lat="27.328362" lon="87.519498">
        <ele>2120.57240064</ele>
        <time>2019-10-03T07:09:08.214Z</time>
      </trkpt>
      <trkpt lat="27.32806" lon="87.519268">
        <ele>2125.94374536337</ele>
        <time>2019-10-03T07:10:07.214Z</time>
      </trkpt>
      <trkpt lat="27.327903" lon="87.519214">
        <ele>2130.57240064</ele>
        <time>2019-10-03T07:11:08.214Z</time>
      </trkpt>
      <trkpt lat="27.327721" lon="87.519286">
        <ele>2133.37240064</ele>
        <time>2019-10-03T07:12:06.214Z</time>
      </trkpt>
      <trkpt lat="27.327481" lon="87.518996">
        <ele>2141.74480128</ele>
        <time>2019-10-03T07:13:11.214Z</time>
      </trkpt>
      <trkpt lat="27.327403" lon="87.51874">
        <ele>2156.17240064</ele>
        <time>2019-10-03T07:15:14.214Z</time>
      </trkpt>
      <trkpt lat="27.327456" lon="87.518568">
        <ele>2162.57240064</ele>
        <time>2019-10-03T07:16:08.214Z</time>
      </trkpt>
      <trkpt lat="27.327422" lon="87.518308">
        <ele>2167.57240064</ele>
        <time>2019-10-03T07:17:08.214Z</time>
      </trkpt>
      <trkpt lat="27.327122" lon="87.518281">
        <ele>2175</ele>
        <time>2019-10-03T07:18:08.214Z</time>
      </trkpt>
      <trkpt lat="27.326882" lon="87.518182">
        <ele>2180.47240064</ele>
        <time>2019-10-03T07:19:07.214Z</time>
      </trkpt>
      <trkpt lat="27.326805" lon="87.518015">
        <ele>2188.92759936</ele>
        <time>2019-10-03T07:20:13.214Z</time>
      </trkpt>
      <trkpt lat="27.326545" lon="87.517976">
        <ele>2193</ele>
        <time>2019-10-03T07:21:08.214Z</time>
      </trkpt>
      <trkpt lat="27.326542" lon="87.517556">
        <ele>2197.67240064</ele>
        <time>2019-10-03T07:22:09.214Z</time>
      </trkpt>
      <trkpt lat="27.326314" lon="87.517443">
        <ele>2204.14480128</ele>
        <time>2019-10-03T07:23:08.214Z</time>
      </trkpt>
      <trkpt lat="27.326029" lon="87.517199">
        <ele>2210</ele>
        <time>2019-10-03T07:24:09.214Z</time>
      </trkpt>
      <trkpt lat="27.325808" lon="87.516897">
        <ele>2216</ele>
        <time>2019-10-03T07:25:08.214Z</time>
      </trkpt>
      <trkpt lat="27.32548" lon="87.516515">
        <ele>2213</ele>
        <time>2019-10-03T07:26:10.214Z</time>
      </trkpt>
      <trkpt lat="27.325228" lon="87.516344">
        <ele>2218.74480128</ele>
        <time>2019-10-03T07:27:06.214Z</time>
      </trkpt>
      <trkpt lat="27.324931" lon="87.516165">
        <ele>2227.57240064</ele>
        <time>2019-10-03T07:28:08.214Z</time>
      </trkpt>
      <trkpt lat="27.324789" lon="87.515976">
        <ele>2232.57240064</ele>
        <time>2019-10-03T07:29:08.214Z</time>
      </trkpt>
      <trkpt lat="27.324618" lon="87.515782">
        <ele>2239.94480128</ele>
        <time>2019-10-03T07:30:17.214Z</time>
      </trkpt>
      <trkpt lat="27.324441" lon="87.51563">
        <ele>2245.74480128</ele>
        <time>2019-10-03T07:31:11.214Z</time>
      </trkpt>
      <trkpt lat="27.324403" lon="87.515497">
        <ele>2252.77240064</ele>
        <time>2019-10-03T07:32:10.214Z</time>
      </trkpt>
      <trkpt lat="27.3244" lon="87.515346">
        <ele>2262.27240064</ele>
        <time>2019-10-03T07:34:05.214Z</time>
      </trkpt>
      <trkpt lat="27.324354" lon="87.514973">
        <ele>2267.94480128</ele>
        <time>2019-10-03T07:35:07.214Z</time>
      </trkpt>
      <trkpt lat="27.324435" lon="87.514688">
        <ele>2274</ele>
        <time>2019-10-03T07:36:09.214Z</time>
      </trkpt>
      <trkpt lat="27.324322" lon="87.514889">
        <ele>2274</ele>
        <time>2019-10-03T07:37:06.214Z</time>
      </trkpt>
      <trkpt lat="27.324403" lon="87.515022">
        <ele>2274</ele>
        <time>2019-10-03T07:38:07.214Z</time>
      </trkpt>
      <trkpt lat="27.324379" lon="87.514816">
        <ele>2272</ele>
        <time>2019-10-03T07:39:06.214Z</time>
      </trkpt>
      <trkpt lat="27.324479" lon="87.51481">
        <ele>2271.67240064</ele>
        <time>2019-10-03T07:42:09.214Z</time>
      </trkpt>
      <trkpt lat="27.324476" lon="87.514683">
        <ele>2277.47240064</ele>
        <time>2019-10-03T07:43:07.214Z</time>
      </trkpt>
      <trkpt lat="27.324492" lon="87.514441">
        <ele>2282.67240064</ele>
        <time>2019-10-03T07:44:09.214Z</time>
      </trkpt>
      <trkpt lat="27.324564" lon="87.514235">
        <ele>2289</ele>
        <time>2019-10-03T07:45:06.214Z</time>
      </trkpt>
      <trkpt lat="27.324684" lon="87.513548">
        <ele>2294</ele>
        <time>2019-10-03T07:46:12.214Z</time>
      </trkpt>
      <trkpt lat="27.324555" lon="87.51353">
        <ele>2298.41720192</ele>
        <time>2019-10-03T07:47:07.214Z</time>
      </trkpt>
      <trkpt lat="27.324672" lon="87.512966">
        <ele>2305.34480128</ele>
        <time>2019-10-03T07:48:09.214Z</time>
      </trkpt>
      <trkpt lat="27.32455" lon="87.512961">
        <ele>2311</ele>
        <time>2019-10-03T07:49:08.214Z</time>
      </trkpt>
      <trkpt lat="27.324437" lon="87.513293">
        <ele>2316.47240064</ele>
        <time>2019-10-03T07:50:07.214Z</time>
      </trkpt>
      <trkpt lat="27.324592" lon="87.512782">
        <ele>2323.27240064</ele>
        <time>2019-10-03T07:51:15.214Z</time>
      </trkpt>
      <trkpt lat="27.324331" lon="87.512783">
        <ele>2328</ele>
        <time>2019-10-03T07:52:10.214Z</time>
      </trkpt>
      <trkpt lat="27.324372" lon="87.51259">
        <ele>2335.74480128</ele>
        <time>2019-10-03T07:53:11.214Z</time>
      </trkpt>
      <trkpt lat="27.324299" lon="87.512422">
        <ele>2340.87240064</ele>
        <time>2019-10-03T07:54:11.214Z</time>
      </trkpt>
      <trkpt lat="27.324078" lon="87.512477">
        <ele>2345.87240064</ele>
        <time>2019-10-03T07:55:11.214Z</time>
      </trkpt>
      <trkpt lat="27.324136" lon="87.512307">
        <ele>2351.01720192</ele>
        <time>2019-10-03T07:56:09.214Z</time>
      </trkpt>
      <trkpt lat="27.323907" lon="87.512292">
        <ele>2360.67240064</ele>
        <time>2019-10-03T07:58:09.214Z</time>
      </trkpt>
      <trkpt lat="27.323822" lon="87.512026">
        <ele>2369.94480128</ele>
        <time>2019-10-03T07:59:22.214Z</time>
      </trkpt>
      <trkpt lat="27.323767" lon="87.512143">
        <ele>2373.94480128</ele>
        <time>2019-10-03T08:00:07.214Z</time>
      </trkpt>
      <trkpt lat="27.323654" lon="87.512221">
        <ele>2386.54480128</ele>
        <time>2019-10-03T08:02:10.214Z</time>
      </trkpt>
      <trkpt lat="27.323316" lon="87.512238">
        <ele>2392</ele>
        <time>2019-10-03T08:03:10.214Z</time>
      </trkpt>
      <trkpt lat="27.323294" lon="87.512063">
        <ele>2397.57240064</ele>
        <time>2019-10-03T08:04:08.214Z</time>
      </trkpt>
      <trkpt lat="27.323157" lon="87.512083">
        <ele>2404.47240064</ele>
        <time>2019-10-03T08:05:07.214Z</time>
      </trkpt>
      <trkpt lat="27.323163" lon="87.511452">
        <ele>2411</ele>
        <time>2019-10-03T08:06:10.214Z</time>
      </trkpt>
      <trkpt lat="27.322748" lon="87.511578">
        <ele>2414</ele>
        <time>2019-10-03T08:07:10.214Z</time>
      </trkpt>
      <trkpt lat="27.322157" lon="87.511495">
        <ele>2423.77085842979</ele>
        <time>2019-10-03T08:09:00.214Z</time>
      </trkpt>
      <trkpt lat="27.322039" lon="87.51146">
        <ele>2430.47240064</ele>
        <time>2019-10-03T08:10:47.214Z</time>
      </trkpt>
      <trkpt lat="27.321975" lon="87.511368">
        <ele>2436.54480128</ele>
        <time>2019-10-03T08:11:50.214Z</time>
      </trkpt>
      <trkpt lat="27.321854" lon="87.511102">
        <ele>2447.37017932712</ele>
        <time>2019-10-03T08:13:46.214Z</time>
      </trkpt>
      <trkpt lat="27.321764" lon="87.511064">
        <ele>2452</ele>
        <time>2019-10-03T08:14:31.214Z</time>
      </trkpt>
      <trkpt lat="27.321709" lon="87.510976">
        <ele>2458</ele>
        <time>2019-10-03T08:15:16.214Z</time>
      </trkpt>
      <trkpt lat="27.321598" lon="87.510966">
        <ele>2461.67240064</ele>
        <time>2019-10-03T08:16:09.214Z</time>
      </trkpt>
      <trkpt lat="27.321433" lon="87.510851">
        <ele>2468</ele>
        <time>2019-10-03T08:17:07.214Z</time>
      </trkpt>
      <trkpt lat="27.321231" lon="87.51081">
        <ele>2472.41720192</ele>
        <time>2019-10-03T08:18:07.214Z</time>
      </trkpt>
      <trkpt lat="27.321069" lon="87.510583">
        <ele>2483.14480128</ele>
        <time>2019-10-03T08:20:08.214Z</time>
      </trkpt>
      <trkpt lat="27.320902" lon="87.510312">
        <ele>2489.57240064</ele>
        <time>2019-10-03T08:21:08.214Z</time>
      </trkpt>
      <trkpt lat="27.320735" lon="87.510169">
        <ele>2495.14480128</ele>
        <time>2019-10-03T08:22:08.214Z</time>
      </trkpt>
      <trkpt lat="27.32063" lon="87.510205">
        <ele>2498</ele>
        <time>2019-10-03T08:24:06.214Z</time>
      </trkpt>
      <trkpt lat="27.32057" lon="87.510306">
        <ele>2498</ele>
        <time>2019-10-03T08:25:08.214Z</time>
      </trkpt>
      <trkpt lat="27.320674" lon="87.510212">
        <ele>2496</ele>
        <time>2019-10-03T08:27:07.214Z</time>
      </trkpt>
      <trkpt lat="27.320806" lon="87.510245">
        <ele>2496</ele>
        <time>2019-10-03T08:30:08.214Z</time>
      </trkpt>
      <trkpt lat="27.320547" lon="87.510091">
        <ele>2501.47240064</ele>
        <time>2019-10-03T08:31:07.214Z</time>
      </trkpt>
      <trkpt lat="27.320359" lon="87.510123">
        <ele>2505.74480128</ele>
        <time>2019-10-03T08:32:06.214Z</time>
      </trkpt>
      <trkpt lat="27.320255" lon="87.510061">
        <ele>2513.14480128</ele>
        <time>2019-10-03T08:33:08.214Z</time>
      </trkpt>
      <trkpt lat="27.320111" lon="87.509999">
        <ele>2518.57240064</ele>
        <time>2019-10-03T08:34:08.214Z</time>
      </trkpt>
      <trkpt lat="27.319922" lon="87.509909">
        <ele>2525</ele>
        <time>2019-10-03T08:35:10.214Z</time>
      </trkpt>
      <trkpt lat="27.319811" lon="87.509924">
        <ele>2529.57240064</ele>
        <time>2019-10-03T08:36:08.214Z</time>
      </trkpt>
      <trkpt lat="27.31962" lon="87.509932">
        <ele>2537.14480128</ele>
        <time>2019-10-03T08:37:08.214Z</time>
      </trkpt>
      <trkpt lat="27.319478" lon="87.509946">
        <ele>2540.67240064</ele>
        <time>2019-10-03T08:38:09.214Z</time>
      </trkpt>
      <trkpt lat="27.319305" lon="87.509782">
        <ele>2547</ele>
        <time>2019-10-03T08:39:09.214Z</time>
      </trkpt>
      <trkpt lat="27.319177" lon="87.509696">
        <ele>2553.14394549944</ele>
        <time>2019-10-03T08:40:08.214Z</time>
      </trkpt>
      <trkpt lat="27.319029" lon="87.509722">
        <ele>2560.34480128</ele>
        <time>2019-10-03T08:41:09.214Z</time>
      </trkpt>
      <trkpt lat="27.318898" lon="87.509721">
        <ele>2565</ele>
        <time>2019-10-03T08:42:12.214Z</time>
      </trkpt>
      <trkpt lat="27.318707" lon="87.509823">
        <ele>2578</ele>
        <time>2019-10-03T08:44:08.214Z</time>
      </trkpt>
      <trkpt lat="27.318383" lon="87.509769">
        <ele>2590.57240064</ele>
        <time>2019-10-03T08:46:08.214Z</time>
      </trkpt>
      <trkpt lat="27.318096" lon="87.509931">
        <ele>2595.27240064</ele>
        <time>2019-10-03T08:47:05.214Z</time>
      </trkpt>
      <trkpt lat="27.31771" lon="87.510007">
        <ele>2599.94480128</ele>
        <time>2019-10-03T08:48:07.214Z</time>
      </trkpt>
      <trkpt lat="27.317445" lon="87.509957">
        <ele>2612.27240064</ele>
        <time>2019-10-03T08:50:05.214Z</time>
      </trkpt>
      <trkpt lat="27.317098" lon="87.509684">
        <ele>2616</ele>
        <time>2019-10-03T08:51:10.214Z</time>
      </trkpt>
      <trkpt lat="27.317033" lon="87.509808">
        <ele>2619</ele>
        <time>2019-10-03T08:52:06.214Z</time>
      </trkpt>
      <trkpt lat="27.316715" lon="87.509623">
        <ele>2624</ele>
        <time>2019-10-03T08:53:08.214Z</time>
      </trkpt>
      <trkpt lat="27.316396" lon="87.509647">
        <ele>2627.57240064</ele>
        <time>2019-10-03T08:54:08.214Z</time>
      </trkpt>
      <trkpt lat="27.316061" lon="87.509441">
        <ele>2632</ele>
        <time>2019-10-03T08:55:09.214Z</time>
      </trkpt>
      <trkpt lat="27.315703" lon="87.509459">
        <ele>2637.47240064</ele>
        <time>2019-10-03T08:56:07.214Z</time>
      </trkpt>
      <trkpt lat="27.315542" lon="87.50952">
        <ele>2644.67240064</ele>
        <time>2019-10-03T08:57:09.214Z</time>
      </trkpt>
      <trkpt lat="27.315298" lon="87.509397">
        <ele>2650.57240064</ele>
        <time>2019-10-03T08:58:08.214Z</time>
      </trkpt>
      <trkpt lat="27.314977" lon="87.509453">
        <ele>2657</ele>
        <time>2019-10-03T08:59:09.214Z</time>
      </trkpt>
      <trkpt lat="27.314577" lon="87.509678">
        <ele>2661.14480128</ele>
        <time>2019-10-03T09:00:08.214Z</time>
      </trkpt>
      <trkpt lat="27.314384" lon="87.509616">
        <ele>2667.74480128</ele>
        <time>2019-10-03T09:01:11.214Z</time>
      </trkpt>
      <trkpt lat="27.313958" lon="87.509404">
        <ele>2671.74480128</ele>
        <time>2019-10-03T09:02:16.214Z</time>
      </trkpt>
      <trkpt lat="27.313876" lon="87.509225">
        <ele>2676.37240064</ele>
        <time>2019-10-03T09:03:06.214Z</time>
      </trkpt>
      <trkpt lat="27.31338" lon="87.508769">
        <ele>2691.14251551775</ele>
        <time>2019-10-03T09:05:38.214Z</time>
      </trkpt>
      <trkpt lat="27.313329" lon="87.508644">
        <ele>2695</ele>
        <time>2019-10-03T09:06:29.214Z</time>
      </trkpt>
      <trkpt lat="27.313343" lon="87.508407">
        <ele>2700</ele>
        <time>2019-10-03T09:07:47.214Z</time>
      </trkpt>
      <trkpt lat="27.313235" lon="87.508356">
        <ele>2706</ele>
        <time>2019-10-03T09:08:47.214Z</time>
      </trkpt>
      <trkpt lat="27.312995" lon="87.508357">
        <ele>2710.47240064</ele>
        <time>2019-10-03T09:09:47.214Z</time>
      </trkpt>
      <trkpt lat="27.312791" lon="87.508365">
        <ele>2717.94480128</ele>
        <time>2019-10-03T09:11:17.214Z</time>
      </trkpt>
      <trkpt lat="27.312643" lon="87.508279">
        <ele>2721.37240064</ele>
        <time>2019-10-03T09:12:06.214Z</time>
      </trkpt>
      <trkpt lat="27.312559" lon="87.508401">
        <ele>2726</ele>
        <time>2019-10-03T09:13:10.214Z</time>
      </trkpt>
      <trkpt lat="27.3125" lon="87.508024">
        <ele>2731.57240064</ele>
        <time>2019-10-03T09:14:08.214Z</time>
      </trkpt>
      <trkpt lat="27.312618" lon="87.508018">
        <ele>2733.77240064</ele>
        <time>2019-10-03T09:15:10.214Z</time>
      </trkpt>
      <trkpt lat="27.312482" lon="87.50792">
        <ele>2737.57240064</ele>
        <time>2019-10-03T09:16:08.214Z</time>
      </trkpt>
      <trkpt lat="27.312528" lon="87.507472">
        <ele>2745.74480128</ele>
        <time>2019-10-03T09:17:11.214Z</time>
      </trkpt>
      <trkpt lat="27.31234" lon="87.5075">
        <ele>2749.94480128</ele>
        <time>2019-10-03T09:18:12.214Z</time>
      </trkpt>
      <trkpt lat="27.312396" lon="87.507218">
        <ele>2755.47240064</ele>
        <time>2019-10-03T09:19:07.214Z</time>
      </trkpt>
      <trkpt lat="27.312348" lon="87.507099">
        <ele>2760.87240064</ele>
        <time>2019-10-03T09:20:11.214Z</time>
      </trkpt>
      <trkpt lat="27.312363" lon="87.506851">
        <ele>2767</ele>
        <time>2019-10-03T09:21:09.214Z</time>
      </trkpt>
      <trkpt lat="27.312054" lon="87.506613">
        <ele>2766.57240064</ele>
        <time>2019-10-03T09:22:08.214Z</time>
      </trkpt>
      <trkpt lat="27.311944" lon="87.506563">
        <ele>2767</ele>
        <time>2019-10-03T09:25:05.214Z</time>
      </trkpt>
      <trkpt lat="27.311872" lon="87.506412">
        <ele>2775.54480128</ele>
        <time>2019-10-03T09:27:05.214Z</time>
      </trkpt>
      <trkpt lat="27.311546" lon="87.506362">
        <ele>2783.14480128</ele>
        <time>2019-10-03T09:28:08.214Z</time>
      </trkpt>
      <trkpt lat="27.311425" lon="87.506412">
        <ele>2785.34480128</ele>
        <time>2019-10-03T09:29:09.214Z</time>
      </trkpt>
      <trkpt lat="27.31125" lon="87.506413">
        <ele>2786</ele>
        <time>2019-10-03T09:30:05.214Z</time>
      </trkpt>
      <trkpt lat="27.311095" lon="87.506563">
        <ele>2793.47240064</ele>
        <time>2019-10-03T09:31:07.214Z</time>
      </trkpt>
      <trkpt lat="27.310898" lon="87.506589">
        <ele>2798.47240064</ele>
        <time>2019-10-03T09:32:07.214Z</time>
      </trkpt>
      <trkpt lat="27.310714" lon="87.506392">
        <ele>2805</ele>
        <time>2019-10-03T09:33:07.214Z</time>
      </trkpt>
      <trkpt lat="27.310686" lon="87.506592">
        <ele>2810.81720192</ele>
        <time>2019-10-03T09:34:05.214Z</time>
      </trkpt>
      <trkpt lat="27.310548" lon="87.506662">
        <ele>2821.37240064</ele>
        <time>2019-10-03T09:36:06.214Z</time>
      </trkpt>
      <trkpt lat="27.310449" lon="87.506671">
        <ele>2829</ele>
        <time>2019-10-03T09:37:07.214Z</time>
      </trkpt>
      <trkpt lat="27.310336" lon="87.506762">
        <ele>2834</ele>
        <time>2019-10-03T09:38:08.214Z</time>
      </trkpt>
      <trkpt lat="27.310129" lon="87.506618">
        <ele>2840.34480128</ele>
        <time>2019-10-03T09:39:09.214Z</time>
      </trkpt>
      <trkpt lat="27.30989" lon="87.506683">
        <ele>2852</ele>
        <time>2019-10-03T09:41:08.214Z</time>
      </trkpt>
      <trkpt lat="27.309747" lon="87.506697">
        <ele>2856.57240064</ele>
        <time>2019-10-03T09:42:08.214Z</time>
      </trkpt>
      <trkpt lat="27.309598" lon="87.506859">
        <ele>2863.47240064</ele>
        <time>2019-10-03T09:43:07.214Z</time>
      </trkpt>
      <trkpt lat="27.3095" lon="87.506738">
        <ele>2866.57240064</ele>
        <time>2019-10-03T09:44:08.214Z</time>
      </trkpt>
      <trkpt lat="27.309134" lon="87.506833">
        <ele>2879.57240064</ele>
        <time>2019-10-03T09:46:08.214Z</time>
      </trkpt>
      <trkpt lat="27.3091" lon="87.506949">
        <ele>2885.34480128</ele>
        <time>2019-10-03T09:47:09.214Z</time>
      </trkpt>
      <trkpt lat="27.30903" lon="87.506712">
        <ele>2888</ele>
        <time>2019-10-03T09:48:09.214Z</time>
      </trkpt>
      <trkpt lat="27.308902" lon="87.506746">
        <ele>2894</ele>
        <time>2019-10-03T09:49:06.214Z</time>
      </trkpt>
      <trkpt lat="27.308815" lon="87.506819">
        <ele>2893.67240064</ele>
        <time>2019-10-03T09:50:09.214Z</time>
      </trkpt>
      <trkpt lat="27.308771" lon="87.506957">
        <ele>2895.37240064</ele>
        <time>2019-10-03T09:51:06.214Z</time>
      </trkpt>
      <trkpt lat="27.308821" lon="87.506731">
        <ele>2896.41720192</ele>
        <time>2019-10-03T09:52:07.214Z</time>
      </trkpt>
      <trkpt lat="27.308637" lon="87.50631">
        <ele>2902</ele>
        <time>2019-10-03T09:53:07.214Z</time>
      </trkpt>
      <trkpt lat="27.308649" lon="87.505825">
        <ele>2902.37240064</ele>
        <time>2019-10-03T09:54:06.214Z</time>
      </trkpt>
      <trkpt lat="27.308668" lon="87.505261">
        <ele>2901</ele>
        <time>2019-10-03T09:55:06.214Z</time>
      </trkpt>
      <trkpt lat="27.308334" lon="87.505457">
        <ele>2900</ele>
        <time>2019-10-03T09:56:11.214Z</time>
      </trkpt>
      <trkpt lat="27.308617" lon="87.50494">
        <ele>2901.23448871659</ele>
        <time>2019-10-03T09:57:50.214Z</time>
      </trkpt>
      <trkpt lat="27.30848" lon="87.505097">
        <ele>2901.72759936</ele>
        <time>2019-10-03T09:58:35.214Z</time>
      </trkpt>
      <trkpt lat="27.308572" lon="87.50518">
        <ele>2902</ele>
        <time>2019-10-03T10:00:47.214Z</time>
      </trkpt>
      <trkpt lat="27.308585" lon="87.505112">
        <ele>2901.32759936</ele>
        <time>2019-10-03T10:01:59.214Z</time>
      </trkpt>
      <trkpt lat="27.308621" lon="87.505309">
        <ele>2902</ele>
        <time>2019-10-03T10:03:47.214Z</time>
      </trkpt>
      <trkpt lat="27.308743" lon="87.505217">
        <ele>2902</ele>
        <time>2019-10-03T10:09:47.214Z</time>
      </trkpt>
      <trkpt lat="27.308722" lon="87.505095">
        <ele>2902</ele>
        <time>2019-10-03T10:10:47.214Z</time>
      </trkpt>
      <trkpt lat="27.308788" lon="87.504973">
        <ele>2902</ele>
        <time>2019-10-03T10:14:08.214Z</time>
      </trkpt>
      <trkpt lat="27.308698" lon="87.505072">
        <ele>2902</ele>
        <time>2019-10-03T10:15:05.214Z</time>
      </trkpt>
      <trkpt lat="27.308822" lon="87.505102">
        <ele>2902</ele>
        <time>2019-10-03T10:17:07.214Z</time>
      </trkpt>
      <trkpt lat="27.308692" lon="87.505078">
        <ele>2902</ele>
        <time>2019-10-03T10:19:05.214Z</time>
      </trkpt>
      <trkpt lat="27.308709" lon="87.504857">
        <ele>2902</ele>
        <time>2019-10-03T10:26:06.214Z</time>
      </trkpt>
      <trkpt lat="27.308732" lon="87.504978">
        <ele>2902</ele>
        <time>2019-10-03T10:27:09.214Z</time>
      </trkpt>
      <trkpt lat="27.308651" lon="87.504687">
        <ele>2902</ele>
        <time>2019-10-03T10:28:16.214Z</time>
      </trkpt>
      <trkpt lat="27.308702" lon="87.505218">
        <ele>2902</ele>
        <time>2019-10-03T10:29:09.214Z</time>
      </trkpt>
      <trkpt lat="27.308587" lon="87.504924">
        <ele>2902</ele>
        <time>2019-10-03T10:31:02.214Z</time>
      </trkpt>
      <trkpt lat="27.308525" lon="87.505121">
        <ele>2902</ele>
        <time>2019-10-03T10:31:47.214Z</time>
      </trkpt>
      <trkpt lat="27.308515" lon="87.505154">
        <ele>2902</ele>
        <time>2019-10-03T10:32:47.214Z</time>
      </trkpt>
      <trkpt lat="27.308448" lon="87.505082">
        <ele>2902</ele>
        <time>2019-10-03T10:33:47.214Z</time>
      </trkpt>
      <trkpt lat="27.308619" lon="87.505063">
        <ele>2902</ele>
        <time>2019-10-03T10:34:47.214Z</time>
      </trkpt>
      <trkpt lat="27.308612" lon="87.504686">
        <ele>2902</ele>
        <time>2019-10-03T10:35:47.214Z</time>
      </trkpt>
      <trkpt lat="27.308497" lon="87.504329">
        <ele>2902</ele>
        <time>2019-10-03T10:36:32.214Z</time>
      </trkpt>
      <trkpt lat="27.30849" lon="87.504057">
        <ele>2902</ele>
        <time>2019-10-03T10:37:17.214Z</time>
      </trkpt>
      <trkpt lat="27.308678" lon="87.503818">
        <ele>2902</ele>
        <time>2019-10-03T10:38:07.214Z</time>
      </trkpt>
      <trkpt lat="27.308583" lon="87.503604">
        <ele>2892.52807113785</ele>
        <time>2019-10-03T10:39:07.214Z</time>
      </trkpt>
      <trkpt lat="27.308396" lon="87.503811">
        <ele>2884.65519872</ele>
        <time>2019-10-03T10:40:09.214Z</time>
      </trkpt>
      <trkpt lat="27.308518" lon="87.503544">
        <ele>2875</ele>
        <time>2019-10-03T10:41:07.214Z</time>
      </trkpt>
      <trkpt lat="27.308474" lon="87.503114">
        <ele>2864.52759936</ele>
        <time>2019-10-03T10:42:07.214Z</time>
      </trkpt>
      <trkpt lat="27.308501" lon="87.502619">
        <ele>2855.52759936</ele>
        <time>2019-10-03T10:43:07.214Z</time>
      </trkpt>
      <trkpt lat="27.30848" lon="87.502212">
        <ele>2849.72759936</ele>
        <time>2019-10-03T10:44:05.214Z</time>
      </trkpt>
      <trkpt lat="27.308368" lon="87.501773">
        <ele>2835</ele>
        <time>2019-10-03T10:45:08.214Z</time>
      </trkpt>
      <trkpt lat="27.308227" lon="87.50151">
        <ele>2823.28279808</ele>
        <time>2019-10-03T10:46:08.214Z</time>
      </trkpt>
      <trkpt lat="27.308114" lon="87.50112">
        <ele>2812.05519872</ele>
        <time>2019-10-03T10:47:07.214Z</time>
      </trkpt>
      <trkpt lat="27.307886" lon="87.500943">
        <ele>2803.72759936</ele>
        <time>2019-10-03T10:48:05.214Z</time>
      </trkpt>
      <trkpt lat="27.307773" lon="87.50061">
        <ele>2791.72759936</ele>
        <time>2019-10-03T10:49:05.214Z</time>
      </trkpt>
      <trkpt lat="27.307793" lon="87.500176">
        <ele>2784</ele>
        <time>2019-10-03T10:50:05.214Z</time>
      </trkpt>
      <trkpt lat="27.307827" lon="87.499714">
        <ele>2774.42759936</ele>
        <time>2019-10-03T10:51:08.214Z</time>
      </trkpt>
      <trkpt lat="27.307761" lon="87.499491">
        <ele>2767.72759936</ele>
        <time>2019-10-03T10:52:05.214Z</time>
      </trkpt>
      <trkpt lat="27.307772" lon="87.499143">
        <ele>2756.45519872</ele>
        <time>2019-10-03T10:53:05.214Z</time>
      </trkpt>
      <trkpt lat="27.307677" lon="87.498686">
        <ele>2744.72759936</ele>
        <time>2019-10-03T10:54:05.214Z</time>
      </trkpt>
      <trkpt lat="27.307474" lon="87.498393">
        <ele>2734.72759936</ele>
        <time>2019-10-03T10:55:05.214Z</time>
      </trkpt>
      <trkpt lat="27.307446" lon="87.498057">
        <ele>2725</ele>
        <time>2019-10-03T10:56:05.214Z</time>
      </trkpt>
      <trkpt lat="27.307452" lon="87.497552">
        <ele>2719</ele>
        <time>2019-10-03T10:57:06.214Z</time>
      </trkpt>
      <trkpt lat="27.307286" lon="87.497054">
        <ele>2713.67240064</ele>
        <time>2019-10-03T10:58:09.214Z</time>
      </trkpt>
      <trkpt lat="27.307023" lon="87.49658">
        <ele>2707.62885747742</ele>
        <time>2019-10-03T10:59:06.214Z</time>
      </trkpt>
      <trkpt lat="27.30693" lon="87.496062">
        <ele>2696.65519872</ele>
        <time>2019-10-03T11:00:09.214Z</time>
      </trkpt>
      <trkpt lat="27.306756" lon="87.495598">
        <ele>2687</ele>
        <time>2019-10-03T11:01:07.214Z</time>
      </trkpt>
      <trkpt lat="27.306674" lon="87.495296">
        <ele>2676.72759936</ele>
        <time>2019-10-03T11:02:05.214Z</time>
      </trkpt>
      <trkpt lat="27.306745" lon="87.495172">
        <ele>2674.62759936</ele>
        <time>2019-10-03T11:03:06.214Z</time>
      </trkpt>
      <trkpt lat="27.30663" lon="87.494727">
        <ele>2665</ele>
        <time>2019-10-03T11:04:08.214Z</time>
      </trkpt>
      <trkpt lat="27.306757" lon="87.49439">
        <ele>2659.52759936</ele>
        <time>2019-10-03T11:05:07.214Z</time>
      </trkpt>
      <trkpt lat="27.307088" lon="87.494006">
        <ele>2652</ele>
        <time>2019-10-03T11:06:11.214Z</time>
      </trkpt>
      <trkpt lat="27.307189" lon="87.49385">
        <ele>2648.32759936</ele>
        <time>2019-10-03T11:07:09.214Z</time>
      </trkpt>
      <trkpt lat="27.30726" lon="87.49394">
        <ele>2649</ele>
        <time>2019-10-03T11:08:09.214Z</time>
      </trkpt>
      <trkpt lat="27.30716" lon="87.493795">
        <ele>2648.57240064</ele>
        <time>2019-10-03T11:09:08.214Z</time>
      </trkpt>
      <trkpt lat="27.30705" lon="87.493306">
        <ele>2640.67240064</ele>
        <time>2019-10-03T11:10:09.214Z</time>
      </trkpt>
      <trkpt lat="27.306848" lon="87.492926">
        <ele>2634.32759936</ele>
        <time>2019-10-03T11:12:09.214Z</time>
      </trkpt>
      <trkpt lat="27.306574" lon="87.492483">
        <ele>2624.37240064</ele>
        <time>2019-10-03T11:13:16.214Z</time>
      </trkpt>
      <trkpt lat="27.306381" lon="87.491925">
        <ele>2620.67240064</ele>
        <time>2019-10-03T11:14:09.214Z</time>
      </trkpt>
      <trkpt lat="27.306116" lon="87.491551">
        <ele>2622.27240064</ele>
        <time>2019-10-03T11:15:05.214Z</time>
      </trkpt>
      <trkpt lat="27.306303" lon="87.491233">
        <ele>2627.34480128</ele>
        <time>2019-10-03T11:16:09.214Z</time>
      </trkpt>
      <trkpt lat="27.306107" lon="87.490726">
        <ele>2629</ele>
        <time>2019-10-03T11:17:05.214Z</time>
      </trkpt>
      <trkpt lat="27.306042" lon="87.490188">
        <ele>2620.72759936</ele>
        <time>2019-10-03T11:18:05.214Z</time>
      </trkpt>
      <trkpt lat="27.306307" lon="87.489774">
        <ele>2609.45519872</ele>
        <time>2019-10-03T11:19:05.214Z</time>
      </trkpt>
      <trkpt lat="27.306569" lon="87.489344">
        <ele>2600</ele>
        <time>2019-10-03T11:20:05.214Z</time>
      </trkpt>
      <trkpt lat="27.306588" lon="87.488804">
        <ele>2588.72759936</ele>
        <time>2019-10-03T11:21:05.214Z</time>
      </trkpt>
      <trkpt lat="27.30672" lon="87.488286">
        <ele>2578</ele>
        <time>2019-10-03T11:22:06.214Z</time>
      </trkpt>
      <trkpt lat="27.306763" lon="87.488018">
        <ele>2567.37240064</ele>
        <time>2019-10-03T11:23:06.214Z</time>
      </trkpt>
      <trkpt lat="27.306844" lon="87.487666">
        <ele>2555.62759936</ele>
        <time>2019-10-03T11:24:06.214Z</time>
      </trkpt>
      <trkpt lat="27.306781" lon="87.487396">
        <ele>2545</ele>
        <time>2019-10-03T11:25:06.214Z</time>
      </trkpt>
      <trkpt lat="27.306783" lon="87.487239">
        <ele>2534.88391380904</ele>
        <time>2019-10-03T11:26:06.214Z</time>
      </trkpt>
      <trkpt lat="27.306845" lon="87.486947">
        <ele>2524</ele>
        <time>2019-10-03T11:27:08.214Z</time>
      </trkpt>
      <trkpt lat="27.306956" lon="87.486801">
        <ele>2513</ele>
        <time>2019-10-03T11:28:09.214Z</time>
      </trkpt>
      <trkpt lat="27.307122" lon="87.48672">
        <ele>2505.42759936</ele>
        <time>2019-10-03T11:29:08.214Z</time>
      </trkpt>
      <trkpt lat="27.30714" lon="87.486301">
        <ele>2504</ele>
        <time>2019-10-03T11:30:08.214Z</time>
      </trkpt>
      <trkpt lat="27.307105" lon="87.486044">
        <ele>2492.62759936</ele>
        <time>2019-10-03T11:31:06.214Z</time>
      </trkpt>
      <trkpt lat="27.306957" lon="87.485634">
        <ele>2482.42759936</ele>
        <time>2019-10-03T11:32:08.214Z</time>
      </trkpt>
      <trkpt lat="27.30681" lon="87.485352">
        <ele>2471</ele>
        <time>2019-10-03T11:33:07.214Z</time>
      </trkpt>
      <trkpt lat="27.306573" lon="87.485012">
        <ele>2460.85519872</ele>
        <time>2019-10-03T11:34:13.214Z</time>
      </trkpt>
      <trkpt lat="27.306441" lon="87.484668">
        <ele>2454</ele>
        <time>2019-10-03T11:35:10.214Z</time>
      </trkpt>
      <trkpt lat="27.305861" lon="87.483516">
        <ele>2425</ele>
        <time>2019-10-03T11:37:45.214Z</time>
      </trkpt>
      <trkpt lat="27.305541" lon="87.483289">
        <ele>2419.68279808</ele>
        <time>2019-10-03T11:38:30.214Z</time>
      </trkpt>
      <trkpt lat="27.305338" lon="87.483058">
        <ele>2414.58279808</ele>
        <time>2019-10-03T11:39:47.214Z</time>
      </trkpt>
      <trkpt lat="27.30544" lon="87.482585">
        <ele>2401.52759936</ele>
        <time>2019-10-03T11:40:47.214Z</time>
      </trkpt>
      <trkpt lat="27.305139" lon="87.482096">
        <ele>2389.05519872</ele>
        <time>2019-10-03T11:41:47.214Z</time>
      </trkpt>
      <trkpt lat="27.304971" lon="87.481744">
        <ele>2383</ele>
        <time>2019-10-03T11:42:32.214Z</time>
      </trkpt>
      <trkpt lat="27.305117" lon="87.481351">
        <ele>2371.05519872</ele>
        <time>2019-10-03T11:43:17.214Z</time>
      </trkpt>
      <trkpt lat="27.305213" lon="87.481043">
        <ele>2360.32759936</ele>
        <time>2019-10-03T11:44:09.214Z</time>
      </trkpt>
      <trkpt lat="27.305477" lon="87.480804">
        <ele>2350</ele>
        <time>2019-10-03T11:45:06.214Z</time>
      </trkpt>
      <trkpt lat="27.305515" lon="87.480346">
        <ele>2339.72787140152</ele>
        <time>2019-10-03T11:46:05.214Z</time>
      </trkpt>
      <trkpt lat="27.305877" lon="87.480169">
        <ele>2329.32759936</ele>
        <time>2019-10-03T11:47:09.214Z</time>
      </trkpt>
      <trkpt lat="27.306031" lon="87.480106">
        <ele>2321</ele>
        <time>2019-10-03T11:48:07.214Z</time>
      </trkpt>
      <trkpt lat="27.305896" lon="87.479509">
        <ele>2319</ele>
        <time>2019-10-03T11:49:09.214Z</time>
      </trkpt>
      <trkpt lat="27.305845" lon="87.478955">
        <ele>2312.62759936</ele>
        <time>2019-10-03T11:50:06.214Z</time>
      </trkpt>
      <trkpt lat="27.305993" lon="87.478358">
        <ele>2306.42817100601</ele>
        <time>2019-10-03T11:51:08.214Z</time>
      </trkpt>
      <trkpt lat="27.305854" lon="87.477828">
        <ele>2303</ele>
        <time>2019-10-03T11:52:09.214Z</time>
      </trkpt>
      <trkpt lat="27.305617" lon="87.477669">
        <ele>2299.18279808</ele>
        <time>2019-10-03T11:53:05.214Z</time>
      </trkpt>
      <trkpt lat="27.305335" lon="87.477214">
        <ele>2287.05519872</ele>
        <time>2019-10-03T11:54:07.214Z</time>
      </trkpt>
      <trkpt lat="27.305059" lon="87.476722">
        <ele>2279.37240064</ele>
        <time>2019-10-03T11:55:06.214Z</time>
      </trkpt>
      <trkpt lat="27.305135" lon="87.47604">
        <ele>2276</ele>
        <time>2019-10-03T11:56:08.214Z</time>
      </trkpt>
      <trkpt lat="27.305548" lon="87.475688">
        <ele>2265.32759936</ele>
        <time>2019-10-03T11:57:09.214Z</time>
      </trkpt>
      <trkpt lat="27.305358" lon="87.475165">
        <ele>2260</ele>
        <time>2019-10-03T11:58:06.214Z</time>
      </trkpt>
      <trkpt lat="27.305342" lon="87.474425">
        <ele>2255.37240064</ele>
        <time>2019-10-03T11:59:06.214Z</time>
      </trkpt>
      <trkpt lat="27.30515" lon="87.473826">
        <ele>2254</ele>
        <time>2019-10-03T12:00:06.214Z</time>
      </trkpt>
      <trkpt lat="27.304998" lon="87.473406">
        <ele>2250</ele>
        <time>2019-10-03T12:01:08.214Z</time>
      </trkpt>
      <trkpt lat="27.304841" lon="87.472857">
        <ele>2248</ele>
        <time>2019-10-03T12:02:06.214Z</time>
      </trkpt>
      <trkpt lat="27.304755" lon="87.472421">
        <ele>2244.32759936</ele>
        <time>2019-10-03T12:03:09.214Z</time>
      </trkpt>
      <trkpt lat="27.304578" lon="87.472021">
        <ele>2235.52759936</ele>
        <time>2019-10-03T12:04:07.214Z</time>
      </trkpt>
      <trkpt lat="27.304443" lon="87.471724">
        <ele>2223.85519872</ele>
        <time>2019-10-03T12:05:08.214Z</time>
      </trkpt>
      <trkpt lat="27.304183" lon="87.471251">
        <ele>2214</ele>
        <time>2019-10-03T12:06:09.214Z</time>
      </trkpt>
      <trkpt lat="27.303784" lon="87.470808">
        <ele>2207.42759936</ele>
        <time>2019-10-03T12:07:08.214Z</time>
      </trkpt>
      <trkpt lat="27.303543" lon="87.470259">
        <ele>2198.62759936</ele>
        <time>2019-10-03T12:08:06.214Z</time>
      </trkpt>
      <trkpt lat="27.303521" lon="87.469847">
        <ele>2186.62759936</ele>
        <time>2019-10-03T12:09:06.214Z</time>
      </trkpt>
      <trkpt lat="27.303454" lon="87.469422">
        <ele>2174.47240064</ele>
        <time>2019-10-03T12:10:07.214Z</time>
      </trkpt>
      <trkpt lat="27.303425" lon="87.468697">
        <ele>2170</ele>
        <time>2019-10-03T12:11:07.214Z</time>
      </trkpt>
      <trkpt lat="27.303571" lon="87.468021">
        <ele>2163.94385772431</ele>
        <time>2019-10-03T12:12:07.214Z</time>
      </trkpt>
      <trkpt lat="27.303955" lon="87.467864">
        <ele>2160</ele>
        <time>2019-10-03T12:13:09.214Z</time>
      </trkpt>
      <trkpt lat="27.304261" lon="87.467654">
        <ele>2152</ele>
        <time>2019-10-03T12:14:09.214Z</time>
      </trkpt>
      <trkpt lat="27.30413" lon="87.467217">
        <ele>2153</ele>
        <time>2019-10-03T12:15:08.214Z</time>
      </trkpt>
      <trkpt lat="27.304235" lon="87.466496">
        <ele>2150</ele>
        <time>2019-10-03T12:16:07.214Z</time>
      </trkpt>
      <trkpt lat="27.304343" lon="87.465801">
        <ele>2149</ele>
        <time>2019-10-03T12:17:06.214Z</time>
      </trkpt>
      <trkpt lat="27.30424" lon="87.465219">
        <ele>2139</ele>
        <time>2019-10-03T12:18:08.214Z</time>
      </trkpt>
      <trkpt lat="27.303921" lon="87.464832">
        <ele>2127.25519872</ele>
        <time>2019-10-03T12:19:06.214Z</time>
      </trkpt>
      <trkpt lat="27.303747" lon="87.464557">
        <ele>2114</ele>
        <time>2019-10-03T12:20:07.214Z</time>
      </trkpt>
      <trkpt lat="27.303784" lon="87.464124">
        <ele>2101.05519872</ele>
        <time>2019-10-03T12:21:07.214Z</time>
      </trkpt>
      <trkpt lat="27.303795" lon="87.463971">
        <ele>2090.88279808</ele>
        <time>2019-10-03T12:22:06.214Z</time>
      </trkpt>
      <trkpt lat="27.303552" lon="87.463756">
        <ele>2078</ele>
        <time>2019-10-03T12:23:07.214Z</time>
      </trkpt>
      <trkpt lat="27.303494" lon="87.463355">
        <ele>2070</ele>
        <time>2019-10-03T12:24:06.214Z</time>
      </trkpt>
      <trkpt lat="27.303432" lon="87.463031">
        <ele>2060</ele>
        <time>2019-10-03T12:25:06.214Z</time>
      </trkpt>
      <trkpt lat="27.303559" lon="87.462713">
        <ele>2053</ele>
        <time>2019-10-03T12:27:09.214Z</time>
      </trkpt>
      <trkpt lat="27.30333" lon="87.462479">
        <ele>2045.57240064</ele>
        <time>2019-10-03T12:28:08.214Z</time>
      </trkpt>
      <trkpt lat="27.303194" lon="87.46223">
        <ele>2041</ele>
        <time>2019-10-03T12:29:06.214Z</time>
      </trkpt>
      <trkpt lat="27.303436" lon="87.46161">
        <ele>2032</ele>
        <time>2019-10-03T12:30:08.214Z</time>
      </trkpt>
      <trkpt lat="27.303311" lon="87.46129">
        <ele>2020.62885747742</ele>
        <time>2019-10-03T12:31:06.214Z</time>
      </trkpt>
      <trkpt lat="27.303258" lon="87.461114">
        <ele>2008.62759936</ele>
        <time>2019-10-03T12:32:06.214Z</time>
      </trkpt>
      <trkpt lat="27.303174" lon="87.460838">
        <ele>1998</ele>
        <time>2019-10-03T12:33:06.214Z</time>
      </trkpt>
      <trkpt lat="27.303102" lon="87.460482">
        <ele>1988</ele>
        <time>2019-10-03T12:34:07.214Z</time>
      </trkpt>
      <trkpt lat="27.303134" lon="87.460308">
        <ele>1982.47240064</ele>
        <time>2019-10-03T12:35:07.214Z</time>
      </trkpt>
      <trkpt lat="27.303106" lon="87.459981">
        <ele>1972.25519872</ele>
        <time>2019-10-03T12:36:06.214Z</time>
      </trkpt>
      <trkpt lat="27.303082" lon="87.459692">
        <ele>1959.62759936</ele>
        <time>2019-10-03T12:37:06.214Z</time>
      </trkpt>
      <trkpt lat="27.30286" lon="87.459505">
        <ele>1948.62759936</ele>
        <time>2019-10-03T12:38:06.214Z</time>
      </trkpt>
      <trkpt lat="27.302613" lon="87.45947">
        <ele>1939.62759936</ele>
        <time>2019-10-03T12:39:06.214Z</time>
      </trkpt>
      <trkpt lat="27.302296" lon="87.45919">
        <ele>1927.52759936</ele>
        <time>2019-10-03T12:40:07.214Z</time>
      </trkpt>
      <trkpt lat="27.302138" lon="87.459022">
        <ele>1918.47240064</ele>
        <time>2019-10-03T12:41:07.214Z</time>
      </trkpt>
      <trkpt lat="27.302021" lon="87.458502">
        <ele>1903.52759936</ele>
        <time>2019-10-03T12:43:07.214Z</time>
      </trkpt>
      <trkpt lat="27.30197" lon="87.45816">
        <ele>1892.25519872</ele>
        <time>2019-10-03T12:44:06.214Z</time>
      </trkpt>
      <trkpt lat="27.301991" lon="87.458029">
        <ele>1886.57240064</ele>
        <time>2019-10-03T12:46:08.214Z</time>
      </trkpt>
      <trkpt lat="27.301998" lon="87.457609">
        <ele>1875.62759936</ele>
        <time>2019-10-03T12:47:06.214Z</time>
      </trkpt>
      <trkpt lat="27.301855" lon="87.457494">
        <ele>1869.85519872</ele>
        <time>2019-10-03T12:48:08.214Z</time>
      </trkpt>
      <trkpt lat="27.301688" lon="87.457255">
        <ele>1863</ele>
        <time>2019-10-03T12:49:06.214Z</time>
      </trkpt>
      <trkpt lat="27.301588" lon="87.456911">
        <ele>1859</ele>
        <time>2019-10-03T12:50:07.214Z</time>
      </trkpt>
      <trkpt lat="27.301446" lon="87.456773">
        <ele>1858.47240064</ele>
        <time>2019-10-03T12:51:07.214Z</time>
      </trkpt>
      <trkpt lat="27.301308" lon="87.456808">
        <ele>1858</ele>
        <time>2019-10-03T12:52:08.214Z</time>
      </trkpt>
      <trkpt lat="27.30146" lon="87.456775">
        <ele>1859</ele>
        <time>2019-10-03T12:53:07.214Z</time>
      </trkpt>
      <trkpt lat="27.301259" lon="87.456213">
        <ele>1842.25519872</ele>
        <time>2019-10-03T12:57:06.214Z</time>
      </trkpt>
      <trkpt lat="27.301043" lon="87.45582">
        <ele>1830</ele>
        <time>2019-10-03T12:58:06.214Z</time>
      </trkpt>
      <trkpt lat="27.300805" lon="87.455494">
        <ele>1820</ele>
        <time>2019-10-03T12:59:07.214Z</time>
      </trkpt>
      <trkpt lat="27.300523" lon="87.455248">
        <ele>1810.52759936</ele>
        <time>2019-10-03T13:00:07.214Z</time>
      </trkpt>
      <trkpt lat="27.300223" lon="87.454722">
        <ele>1801.05519872</ele>
        <time>2019-10-03T13:01:07.214Z</time>
      </trkpt>
      <trkpt lat="27.300061" lon="87.454104">
        <ele>1793</ele>
        <time>2019-10-03T13:02:06.214Z</time>
      </trkpt>
      <trkpt lat="27.299956" lon="87.45378">
        <ele>1790</ele>
        <time>2019-10-03T13:03:08.214Z</time>
      </trkpt>
      <trkpt lat="27.299725" lon="87.453415">
        <ele>1782.47240064</ele>
        <time>2019-10-03T13:04:07.214Z</time>
      </trkpt>
      <trkpt lat="27.299562" lon="87.452866">
        <ele>1776</ele>
        <time>2019-10-03T13:05:07.214Z</time>
      </trkpt>
      <trkpt lat="27.299359" lon="87.45243">
        <ele>1773.52759936</ele>
        <time>2019-10-03T13:06:07.214Z</time>
      </trkpt>
      <trkpt lat="27.299192" lon="87.45191">
        <ele>1768</ele>
        <time>2019-10-03T13:07:07.214Z</time>
      </trkpt>
      <trkpt lat="27.299093" lon="87.451563">
        <ele>1759.32759936</ele>
        <time>2019-10-03T13:08:09.214Z</time>
      </trkpt>
      <trkpt lat="27.298848" lon="87.451134">
        <ele>1751</ele>
        <time>2019-10-03T13:09:07.214Z</time>
      </trkpt>
      <trkpt lat="27.298868" lon="87.450652">
        <ele>1738.25519872</ele>
        <time>2019-10-03T13:10:06.214Z</time>
      </trkpt>
      <trkpt lat="27.298837" lon="87.450261">
        <ele>1725.05519872</ele>
        <time>2019-10-03T13:11:07.214Z</time>
      </trkpt>
      <trkpt lat="27.298676" lon="87.449812">
        <ele>1715.42759936</ele>
        <time>2019-10-03T13:12:08.214Z</time>
      </trkpt>
      <trkpt lat="27.298669" lon="87.449465">
        <ele>1702.52759936</ele>
        <time>2019-10-03T13:13:07.214Z</time>
      </trkpt>
      <trkpt lat="27.298438" lon="87.448795">
        <ele>1693.05519872</ele>
        <time>2019-10-03T13:14:07.214Z</time>
      </trkpt>
      <trkpt lat="27.298352" lon="87.448136">
        <ele>1686</ele>
        <time>2019-10-03T13:15:08.214Z</time>
      </trkpt>
      <trkpt lat="27.298423" lon="87.447544">
        <ele>1676.57240064</ele>
        <time>2019-10-03T13:16:08.214Z</time>
      </trkpt>
      <trkpt lat="27.298211" lon="87.447075">
        <ele>1669</ele>
        <time>2019-10-03T13:17:07.214Z</time>
      </trkpt>
      <trkpt lat="27.298172" lon="87.44672">
        <ele>1656.62759936</ele>
        <time>2019-10-03T13:18:06.214Z</time>
      </trkpt>
      <trkpt lat="27.29822" lon="87.446414">
        <ele>1644</ele>
        <time>2019-10-03T13:19:06.214Z</time>
      </trkpt>
      <trkpt lat="27.298294" lon="87.446019">
        <ele>1630</ele>
        <time>2019-10-03T13:20:08.214Z</time>
      </trkpt>
      <trkpt lat="27.298374" lon="87.445709">
        <ele>1616.85519872</ele>
        <time>2019-10-03T13:21:08.214Z</time>
      </trkpt>
      <trkpt lat="27.298523" lon="87.445406">
        <ele>1604.85519872</ele>
        <time>2019-10-03T13:22:08.214Z</time>
      </trkpt>
      <trkpt lat="27.298663" lon="87.44486">
        <ele>1599.52759936</ele>
        <time>2019-10-03T13:23:07.214Z</time>
      </trkpt>
      <trkpt lat="27.29882" lon="87.444539">
        <ele>1587.42759936</ele>
        <time>2019-10-03T13:24:08.214Z</time>
      </trkpt>
      <trkpt lat="27.298964" lon="87.443943">
        <ele>1581.42759936</ele>
        <time>2019-10-03T13:25:08.214Z</time>
      </trkpt>
      <trkpt lat="27.299428" lon="87.443165">
        <ele>1571.92759936</ele>
        <time>2019-10-03T13:26:23.214Z</time>
      </trkpt>
      <trkpt lat="27.299717" lon="87.44288">
        <ele>1567.42759936</ele>
        <time>2019-10-03T13:27:08.214Z</time>
      </trkpt>
      <trkpt lat="27.29962" lon="87.44285">
        <ele>1564</ele>
        <time>2019-10-03T13:32:30.214Z</time>
      </trkpt>
      <trkpt lat="27.299615" lon="87.442663">
        <ele>1560</ele>
        <time>2019-10-03T13:34:35.214Z</time>
      </trkpt>
      <trkpt lat="27.299623" lon="87.442669">
        <ele>1560</ele>
        <time>2019-10-03T13:34:39.214Z</time>
      </trkpt>
      <trkpt lat="27.299872" lon="87.442772">
        <ele>1587.09997558594</ele>
        <time>2019-10-04T06:23:39.911Z</time>
      </trkpt>
      <trkpt lat="27.299926" lon="87.442814">
        <ele>1539</ele>
        <time>2019-10-04T06:26:11.911Z</time>
      </trkpt>
      <trkpt lat="27.300065" lon="87.442751">
        <ele>1539</ele>
        <time>2019-10-04T06:27:26.911Z</time>
      </trkpt>
      <trkpt lat="27.300319" lon="87.442675">
        <ele>1527</ele>
        <time>2019-10-04T06:29:32.911Z</time>
      </trkpt>
      <trkpt lat="27.300679" lon="87.442474">
        <ele>1514</ele>
        <time>2019-10-04T06:30:40.911Z</time>
      </trkpt>
      <trkpt lat="27.300891" lon="87.442087">
        <ele>1504.69490048</ele>
        <time>2019-10-04T06:31:41.911Z</time>
      </trkpt>
      <trkpt lat="27.301136" lon="87.44169">
        <ele>1494.69490048</ele>
        <time>2019-10-04T06:32:41.911Z</time>
      </trkpt>
      <trkpt lat="27.301258" lon="87.441029">
        <ele>1488.17960192</ele>
        <time>2019-10-04T06:33:45.911Z</time>
      </trkpt>
      <trkpt lat="27.301618" lon="87.440895">
        <ele>1476.19490048</ele>
        <time>2019-10-04T06:34:56.911Z</time>
      </trkpt>
      <trkpt lat="27.301834" lon="87.440731">
        <ele>1464.29490048</ele>
        <time>2019-10-04T06:36:05.911Z</time>
      </trkpt>
      <trkpt lat="27.301959" lon="87.440488">
        <ele>1457.78980096</ele>
        <time>2019-10-04T06:37:24.911Z</time>
      </trkpt>
      <trkpt lat="27.302189" lon="87.440543">
        <ele>1448</ele>
        <time>2019-10-04T06:38:09.911Z</time>
      </trkpt>
      <trkpt lat="27.302343" lon="87.440461">
        <ele>1440.78980096</ele>
        <time>2019-10-04T06:38:54.911Z</time>
      </trkpt>
      <trkpt lat="27.302513" lon="87.440217">
        <ele>1431.49490048</ele>
        <time>2019-10-04T06:39:43.911Z</time>
      </trkpt>
      <trkpt lat="27.302679" lon="87.440119">
        <ele>1419.1948190601</ele>
        <time>2019-10-04T06:40:46.911Z</time>
      </trkpt>
      <trkpt lat="27.302734" lon="87.439724">
        <ele>1408.19490048</ele>
        <time>2019-10-04T06:41:46.911Z</time>
      </trkpt>
      <trkpt lat="27.302714" lon="87.439418">
        <ele>1394.37960192</ele>
        <time>2019-10-04T06:42:47.911Z</time>
      </trkpt>
      <trkpt lat="27.302767" lon="87.43923">
        <ele>1383.4745024</ele>
        <time>2019-10-04T06:43:49.911Z</time>
      </trkpt>
      <trkpt lat="27.302735" lon="87.438615">
        <ele>1371.39490048</ele>
        <time>2019-10-04T06:44:54.911Z</time>
      </trkpt>
      <trkpt lat="27.302683" lon="87.437943">
        <ele>1359.77960192</ele>
        <time>2019-10-04T06:46:01.911Z</time>
      </trkpt>
      <trkpt lat="27.302593" lon="87.437503">
        <ele>1352.98980096</ele>
        <time>2019-10-04T06:46:48.911Z</time>
      </trkpt>
      <trkpt lat="27.302755" lon="87.437641">
        <ele>1341.78980096</ele>
        <time>2019-10-04T06:47:44.911Z</time>
      </trkpt>
      <trkpt lat="27.303169" lon="87.437708">
        <ele>1328.98980096</ele>
        <time>2019-10-04T06:48:48.911Z</time>
      </trkpt>
      <trkpt lat="27.303853" lon="87.436895">
        <ele>1289</ele>
        <time>2019-10-04T06:53:23.911Z</time>
      </trkpt>
      <trkpt lat="27.307986" lon="87.447672">
        <ele>1290</ele>
        <time>2019-10-04T06:54:08.911Z</time>
      </trkpt>
      <trkpt lat="27.308494" lon="87.446747">
        <ele>1288.39490048</ele>
        <time>2019-10-04T06:55:24.911Z</time>
      </trkpt>
      <trkpt lat="27.308755" lon="87.446099">
        <ele>1289.29490048</ele>
        <time>2019-10-04T06:56:25.911Z</time>
      </trkpt>
      <trkpt lat="27.309242" lon="87.445607">
        <ele>1287.90509952</ele>
        <time>2019-10-04T06:57:27.911Z</time>
      </trkpt>
      <trkpt lat="27.303827" lon="87.433801">
        <ele>1290</ele>
        <time>2019-10-04T06:58:11.911Z</time>
      </trkpt>
      <trkpt lat="27.303754" lon="87.433318">
        <ele>1292</ele>
        <time>2019-10-04T06:58:56.911Z</time>
      </trkpt>
      <trkpt lat="27.303602" lon="87.432842">
        <ele>1295.41019904</ele>
        <time>2019-10-04T06:59:45.911Z</time>
      </trkpt>
      <trkpt lat="27.303367" lon="87.432182">
        <ele>1302</ele>
        <time>2019-10-04T07:00:43.911Z</time>
      </trkpt>
      <trkpt lat="27.302926" lon="87.431602">
        <ele>1306.80509952</ele>
        <time>2019-10-04T07:01:56.911Z</time>
      </trkpt>
      <trkpt lat="27.302836" lon="87.430968">
        <ele>1312.90509952</ele>
        <time>2019-10-04T07:02:57.911Z</time>
      </trkpt>
      <trkpt lat="27.302961" lon="87.430234">
        <ele>1315.41019904</ele>
        <time>2019-10-04T07:03:45.911Z</time>
      </trkpt>
      <trkpt lat="27.303083" lon="87.429488">
        <ele>1313.70509952</ele>
        <time>2019-10-04T07:04:45.911Z</time>
      </trkpt>
      <trkpt lat="27.303222" lon="87.428864">
        <ele>1315</ele>
        <time>2019-10-04T07:05:45.911Z</time>
      </trkpt>
      <trkpt lat="27.303404" lon="87.428332">
        <ele>1320.80509952</ele>
        <time>2019-10-04T07:06:46.911Z</time>
      </trkpt>
      <trkpt lat="27.303865" lon="87.427501">
        <ele>1327.61019904</ele>
        <time>2019-10-04T07:07:46.911Z</time>
      </trkpt>
      <trkpt lat="27.303939" lon="87.426968">
        <ele>1328.80509952</ele>
        <time>2019-10-04T07:08:46.911Z</time>
      </trkpt>
      <trkpt lat="27.303962" lon="87.426613">
        <ele>1332.70509952</ele>
        <time>2019-10-04T07:09:45.911Z</time>
      </trkpt>
      <trkpt lat="27.304038" lon="87.42599">
        <ele>1337.81019904</ele>
        <time>2019-10-04T07:10:47.911Z</time>
      </trkpt>
      <trkpt lat="27.304214" lon="87.42536">
        <ele>1338.90509952</ele>
        <time>2019-10-04T07:11:47.911Z</time>
      </trkpt>
      <trkpt lat="27.304518" lon="87.422543">
        <ele>1363</ele>
        <time>2019-10-04T07:16:53.911Z</time>
      </trkpt>
      <trkpt lat="27.304452" lon="87.420782">
        <ele>1380</ele>
        <time>2019-10-04T07:23:25.911Z</time>
      </trkpt>
      <trkpt lat="27.304377" lon="87.420709">
        <ele>1380</ele>
        <time>2019-10-04T07:24:38.911Z</time>
      </trkpt>
      <trkpt lat="27.304069" lon="87.420425">
        <ele>1380.60509952</ele>
        <time>2019-10-04T07:26:24.911Z</time>
      </trkpt>
      <trkpt lat="27.303683" lon="87.419795">
        <ele>1383.60509952</ele>
        <time>2019-10-04T07:27:24.911Z</time>
      </trkpt>
      <trkpt lat="27.303687" lon="87.418634">
        <ele>1386</ele>
        <time>2019-10-04T07:28:56.911Z</time>
      </trkpt>
      <trkpt lat="27.303883" lon="87.418472">
        <ele>1384</ele>
        <time>2019-10-04T07:29:45.911Z</time>
      </trkpt>
      <trkpt lat="27.304057" lon="87.417757">
        <ele>1381.78980096</ele>
        <time>2019-10-04T07:30:44.911Z</time>
      </trkpt>
      <trkpt lat="27.304208" lon="87.416941">
        <ele>1380.90509952</ele>
        <time>2019-10-04T07:31:47.911Z</time>
      </trkpt>
      <trkpt lat="27.304219" lon="87.416263">
        <ele>1386</ele>
        <time>2019-10-04T07:32:43.911Z</time>
      </trkpt>
      <trkpt lat="27.304195" lon="87.415663">
        <ele>1390.21019904</ele>
        <time>2019-10-04T07:33:44.911Z</time>
      </trkpt>
      <trkpt lat="27.304343" lon="87.414859">
        <ele>1398</ele>
        <time>2019-10-04T07:34:48.911Z</time>
      </trkpt>
      <trkpt lat="27.304343" lon="87.414312">
        <ele>1401.70509952</ele>
        <time>2019-10-04T07:35:45.911Z</time>
      </trkpt>
      <trkpt lat="27.304333" lon="87.413547">
        <ele>1404</ele>
        <time>2019-10-04T07:36:45.911Z</time>
      </trkpt>
      <trkpt lat="27.304167" lon="87.413206">
        <ele>1407.70509952</ele>
        <time>2019-10-04T07:37:45.911Z</time>
      </trkpt>
      <trkpt lat="27.304419" lon="87.412564">
        <ele>1410</ele>
        <time>2019-10-04T07:38:45.911Z</time>
      </trkpt>
      <trkpt lat="27.304268" lon="87.411891">
        <ele>1413.70509952</ele>
        <time>2019-10-04T07:39:45.911Z</time>
      </trkpt>
      <trkpt lat="27.30411" lon="87.411254">
        <ele>1417.70509952</ele>
        <time>2019-10-04T07:40:45.911Z</time>
      </trkpt>
      <trkpt lat="27.304022" lon="87.410739">
        <ele>1421.60509952</ele>
        <time>2019-10-04T07:41:44.911Z</time>
      </trkpt>
      <trkpt lat="27.304321" lon="87.410178">
        <ele>1424.60509952</ele>
        <time>2019-10-04T07:42:44.911Z</time>
      </trkpt>
      <trkpt lat="27.304898" lon="87.40998">
        <ele>1428.70509952</ele>
        <time>2019-10-04T07:43:45.911Z</time>
      </trkpt>
      <trkpt lat="27.305565" lon="87.409701">
        <ele>1432</ele>
        <time>2019-10-04T07:44:47.911Z</time>
      </trkpt>
      <trkpt lat="27.305771" lon="87.409429">
        <ele>1433</ele>
        <time>2019-10-04T07:45:46.911Z</time>
      </trkpt>
      <trkpt lat="27.306412" lon="87.409469">
        <ele>1435.29490048</ele>
        <time>2019-10-04T07:46:45.911Z</time>
      </trkpt>
      <trkpt lat="27.306996" lon="87.409133">
        <ele>1435.39490048</ele>
        <time>2019-10-04T07:47:44.911Z</time>
      </trkpt>
      <trkpt lat="27.307686" lon="87.409112">
        <ele>1431.00509952</ele>
        <time>2019-10-04T07:48:48.911Z</time>
      </trkpt>
      <trkpt lat="27.308369" lon="87.408753">
        <ele>1429.18980096</ele>
        <time>2019-10-04T07:49:47.911Z</time>
      </trkpt>
      <trkpt lat="27.308506" lon="87.408856">
        <ele>1421.29490048</ele>
        <time>2019-10-04T07:50:45.911Z</time>
      </trkpt>
      <trkpt lat="27.309073" lon="87.408766">
        <ele>1416</ele>
        <time>2019-10-04T07:51:46.911Z</time>
      </trkpt>
      <trkpt lat="27.309455" lon="87.408233">
        <ele>1416</ele>
        <time>2019-10-04T07:52:46.911Z</time>
      </trkpt>
      <trkpt lat="27.309794" lon="87.407793">
        <ele>1424</ele>
        <time>2019-10-04T07:53:45.911Z</time>
      </trkpt>
      <trkpt lat="27.310089" lon="87.407611">
        <ele>1427.0509952</ele>
        <time>2019-10-04T07:54:48.911Z</time>
      </trkpt>
      <trkpt lat="27.310143" lon="87.407462">
        <ele>1463</ele>
        <time>2019-10-04T07:55:45.911Z</time>
      </trkpt>
      <trkpt lat="27.31008" lon="87.407592">
        <ele>1453.30509952</ele>
        <time>2019-10-04T07:57:51.911Z</time>
      </trkpt>
      <trkpt lat="27.310006" lon="87.407222">
        <ele>1469.70509952</ele>
        <time>2019-10-04T07:58:45.911Z</time>
      </trkpt>
      <trkpt lat="27.30967" lon="87.406612">
        <ele>1476</ele>
        <time>2019-10-04T07:59:47.911Z</time>
      </trkpt>
      <trkpt lat="27.309033" lon="87.406318">
        <ele>1470.29490048</ele>
        <time>2019-10-04T08:00:45.911Z</time>
      </trkpt>
      <trkpt lat="27.308604" lon="87.405752">
        <ele>1458.29490048</ele>
        <time>2019-10-04T08:01:45.911Z</time>
      </trkpt>
      <trkpt lat="27.308313" lon="87.405261">
        <ele>1446.77960192</ele>
        <time>2019-10-04T08:02:46.911Z</time>
      </trkpt>
      <trkpt lat="27.308112" lon="87.404794">
        <ele>1434.17960192</ele>
        <time>2019-10-04T08:03:45.911Z</time>
      </trkpt>
      <trkpt lat="27.30794" lon="87.404357">
        <ele>1419</ele>
        <time>2019-10-04T08:04:45.911Z</time>
      </trkpt>
      <trkpt lat="27.308098" lon="87.403772">
        <ele>1368.16940288</ele>
        <time>2019-10-04T08:06:46.911Z</time>
      </trkpt>
      <trkpt lat="27.307978" lon="87.40309">
        <ele>1348</ele>
        <time>2019-10-04T08:07:46.911Z</time>
      </trkpt>
      <trkpt lat="27.30806" lon="87.402388">
        <ele>1337.19490048</ele>
        <time>2019-10-04T08:08:46.911Z</time>
      </trkpt>
      <trkpt lat="27.308024" lon="87.401944">
        <ele>1332</ele>
        <time>2019-10-04T08:09:44.911Z</time>
      </trkpt>
      <trkpt lat="27.307898" lon="87.401319">
        <ele>1326.39490048</ele>
        <time>2019-10-04T08:10:44.911Z</time>
      </trkpt>
      <trkpt lat="27.307573" lon="87.400738">
        <ele>1332.19490048</ele>
        <time>2019-10-04T08:11:46.911Z</time>
      </trkpt>
      <trkpt lat="27.307047" lon="87.400821">
        <ele>1358.11529856</ele>
        <time>2019-10-04T08:12:45.911Z</time>
      </trkpt>
      <trkpt lat="27.307301" lon="87.400177">
        <ele>1363.77960192</ele>
        <time>2019-10-04T08:13:46.911Z</time>
      </trkpt>
      <trkpt lat="27.307289" lon="87.399631">
        <ele>1368.44079616</ele>
        <time>2019-10-04T08:14:46.911Z</time>
      </trkpt>
      <trkpt lat="27.307039" lon="87.399278">
        <ele>1364.29490048</ele>
        <time>2019-10-04T08:15:45.911Z</time>
      </trkpt>
      <trkpt lat="27.307448" lon="87.398835">
        <ele>1369.70509952</ele>
        <time>2019-10-04T08:16:45.911Z</time>
      </trkpt>
      <trkpt lat="27.307538" lon="87.398215">
        <ele>1362.81019904</ele>
        <time>2019-10-04T08:17:47.911Z</time>
      </trkpt>
      <trkpt lat="27.307533" lon="87.397642">
        <ele>1369.60509952</ele>
        <time>2019-10-04T08:18:44.911Z</time>
      </trkpt>
      <trkpt lat="27.308068" lon="87.39742">
        <ele>1374.22039808</ele>
        <time>2019-10-04T08:19:46.911Z</time>
      </trkpt>
      <trkpt lat="27.308659" lon="87.397042">
        <ele>1377.29490048</ele>
        <time>2019-10-04T08:20:45.911Z</time>
      </trkpt>
      <trkpt lat="27.309138" lon="87.396654">
        <ele>1354.18980096</ele>
        <time>2019-10-04T08:21:47.911Z</time>
      </trkpt>
      <trkpt lat="27.309367" lon="87.395965">
        <ele>1340</ele>
        <time>2019-10-04T08:22:44.911Z</time>
      </trkpt>
      <trkpt lat="27.30967" lon="87.395099">
        <ele>1326</ele>
        <time>2019-10-04T08:23:44.911Z</time>
      </trkpt>
      <trkpt lat="27.309444" lon="87.394545">
        <ele>1309.58980096</ele>
        <time>2019-10-04T08:24:45.911Z</time>
      </trkpt>
      <trkpt lat="27.309337" lon="87.393866">
        <ele>1300.39490048</ele>
        <time>2019-10-04T08:25:44.911Z</time>
      </trkpt>
      <trkpt lat="27.30916" lon="87.393018">
        <ele>1306.0254976</ele>
        <time>2019-10-04T08:26:44.911Z</time>
      </trkpt>
      <trkpt lat="27.308747" lon="87.392428">
        <ele>1315</ele>
        <time>2019-10-04T08:27:44.911Z</time>
      </trkpt>
      <trkpt lat="27.308446" lon="87.391755">
        <ele>1312.0254976</ele>
        <time>2019-10-04T08:28:44.911Z</time>
      </trkpt>
      <trkpt lat="27.308102" lon="87.391212">
        <ele>1325</ele>
        <time>2019-10-04T08:29:46.911Z</time>
      </trkpt>
      <trkpt lat="27.308173" lon="87.390447">
        <ele>1314.37960192</ele>
        <time>2019-10-04T08:30:47.911Z</time>
      </trkpt>
      <trkpt lat="27.308314" lon="87.389766">
        <ele>1308.4745024</ele>
        <time>2019-10-04T08:31:45.911Z</time>
      </trkpt>
      <trkpt lat="27.308069" lon="87.389013">
        <ele>1297</ele>
        <time>2019-10-04T08:32:46.911Z</time>
      </trkpt>
      <trkpt lat="27.307765" lon="87.388482">
        <ele>1275.58470144</ele>
        <time>2019-10-04T08:33:46.911Z</time>
      </trkpt>
      <trkpt lat="27.307606" lon="87.387806">
        <ele>1266.19490048</ele>
        <time>2019-10-04T08:34:46.911Z</time>
      </trkpt>
      <trkpt lat="27.307702" lon="87.38703">
        <ele>1261.21019904</ele>
        <time>2019-10-04T08:35:44.911Z</time>
      </trkpt>
      <trkpt lat="27.30774" lon="87.386363">
        <ele>1258.09490048</ele>
        <time>2019-10-04T08:36:47.911Z</time>
      </trkpt>
      <trkpt lat="27.30737" lon="87.385765">
        <ele>1272.0254976</ele>
        <time>2019-10-04T08:37:48.911Z</time>
      </trkpt>
      <trkpt lat="27.307309" lon="87.38517">
        <ele>1282</ele>
        <time>2019-10-04T08:38:49.911Z</time>
      </trkpt>
      <trkpt lat="27.307244" lon="87.384453">
        <ele>1286.10509952</ele>
        <time>2019-10-04T08:39:49.911Z</time>
      </trkpt>
      <trkpt lat="27.306979" lon="87.383951">
        <ele>1299.41019904</ele>
        <time>2019-10-04T08:40:45.911Z</time>
      </trkpt>
      <trkpt lat="27.306809" lon="87.383184">
        <ele>1297.29490048</ele>
        <time>2019-10-04T08:41:45.911Z</time>
      </trkpt>
      <trkpt lat="27.306607" lon="87.382405">
        <ele>1299.61019904</ele>
        <time>2019-10-04T08:42:46.911Z</time>
      </trkpt>
      <trkpt lat="27.306318" lon="87.381766">
        <ele>1305.38980096</ele>
        <time>2019-10-04T08:43:46.911Z</time>
      </trkpt>
      <trkpt lat="27.306175" lon="87.381145">
        <ele>1316</ele>
        <time>2019-10-04T08:44:43.911Z</time>
      </trkpt>
      <trkpt lat="27.306674" lon="87.380882">
        <ele>1294.95920384</ele>
        <time>2019-10-04T08:45:43.911Z</time>
      </trkpt>
      <trkpt lat="27.307038" lon="87.380045">
        <ele>1273.19490048</ele>
        <time>2019-10-04T08:46:46.911Z</time>
      </trkpt>
      <trkpt lat="27.307321" lon="87.379463">
        <ele>1262.77960192</ele>
        <time>2019-10-04T08:47:46.911Z</time>
      </trkpt>
      <trkpt lat="27.307681" lon="87.378745">
        <ele>1256.19490048</ele>
        <time>2019-10-04T08:48:46.911Z</time>
      </trkpt>
      <trkpt lat="27.30773" lon="87.378273">
        <ele>1257.29490048</ele>
        <time>2019-10-04T08:49:45.911Z</time>
      </trkpt>
      <trkpt lat="27.307837" lon="87.378246">
        <ele>1244.98980096</ele>
        <time>2019-10-04T08:53:43.911Z</time>
      </trkpt>
      <trkpt lat="27.307754" lon="87.378366">
        <ele>1187.46430336</ele>
        <time>2019-10-04T08:54:43.911Z</time>
      </trkpt>
      <trkpt lat="27.308251" lon="87.378205">
        <ele>1112.29490048</ele>
        <time>2019-10-04T08:58:45.911Z</time>
      </trkpt>
      <trkpt lat="27.308722" lon="87.377668">
        <ele>1126.63569664</ele>
        <time>2019-10-04T08:59:46.911Z</time>
      </trkpt>
      <trkpt lat="27.309135" lon="87.377035">
        <ele>1142.70509952</ele>
        <time>2019-10-04T09:00:45.911Z</time>
      </trkpt>
      <trkpt lat="27.30954" lon="87.376286">
        <ele>1369.60509952</ele>
        <time>2019-10-04T09:01:44.911Z</time>
      </trkpt>
      <trkpt lat="27.310194" lon="87.37585">
        <ele>1484</ele>
        <time>2019-10-04T09:02:44.911Z</time>
      </trkpt>
      <trkpt lat="27.310775" lon="87.375197">
        <ele>1477.19490048</ele>
        <time>2019-10-04T09:03:46.911Z</time>
      </trkpt>
      <trkpt lat="27.310141" lon="87.374702">
        <ele>1474.39490048</ele>
        <time>2019-10-04T09:04:44.911Z</time>
      </trkpt>
      <trkpt lat="27.310362" lon="87.373873">
        <ele>1472</ele>
        <time>2019-10-04T09:05:44.911Z</time>
      </trkpt>
      <trkpt lat="27.310844" lon="87.373123">
        <ele>1469</ele>
        <time>2019-10-04T09:06:46.911Z</time>
      </trkpt>
      <trkpt lat="27.311354" lon="87.37273">
        <ele>1469</ele>
        <time>2019-10-04T09:07:45.911Z</time>
      </trkpt>
      <trkpt lat="27.311406" lon="87.372201">
        <ele>1467.50509952</ele>
        <time>2019-10-04T09:08:43.911Z</time>
      </trkpt>
      <trkpt lat="27.311902" lon="87.371738">
        <ele>1465</ele>
        <time>2019-10-04T09:09:44.911Z</time>
      </trkpt>
      <trkpt lat="27.312059" lon="87.370859">
        <ele>1461</ele>
        <time>2019-10-04T09:10:44.911Z</time>
      </trkpt>
      <trkpt lat="27.312313" lon="87.370061">
        <ele>1456</ele>
        <time>2019-10-04T09:11:46.911Z</time>
      </trkpt>
      <trkpt lat="27.31263" lon="87.369307">
        <ele>1457.41019904</ele>
        <time>2019-10-04T09:12:45.911Z</time>
      </trkpt>
      <trkpt lat="27.312997" lon="87.368686">
        <ele>1458</ele>
        <time>2019-10-04T09:13:46.911Z</time>
      </trkpt>
      <trkpt lat="27.313489" lon="87.368215">
        <ele>1462.41019904</ele>
        <time>2019-10-04T09:14:45.911Z</time>
      </trkpt>
      <trkpt lat="27.31394" lon="87.367591">
        <ele>1461.19490048</ele>
        <time>2019-10-04T09:15:46.911Z</time>
      </trkpt>
      <trkpt lat="27.313969" lon="87.366953">
        <ele>1466.61019904</ele>
        <time>2019-10-04T09:16:46.911Z</time>
      </trkpt>
      <trkpt lat="27.313829" lon="87.366267">
        <ele>1470</ele>
        <time>2019-10-04T09:17:45.911Z</time>
      </trkpt>
      <trkpt lat="27.313831" lon="87.366008">
        <ele>1468.58980096</ele>
        <time>2019-10-04T09:18:45.911Z</time>
      </trkpt>
      <trkpt lat="27.3145" lon="87.365384">
        <ele>1463.38980096</ele>
        <time>2019-10-04T09:19:46.911Z</time>
      </trkpt>
      <trkpt lat="27.314301" lon="87.364582">
        <ele>1450.29490048</ele>
        <time>2019-10-04T09:20:45.911Z</time>
      </trkpt>
      <trkpt lat="27.314245" lon="87.364385">
        <ele>1458.19490048</ele>
        <time>2019-10-04T09:21:46.911Z</time>
      </trkpt>
      <trkpt lat="27.314408" lon="87.364183">
        <ele>1475.23432957083</ele>
        <time>2019-10-04T09:23:52.911Z</time>
      </trkpt>
      <trkpt lat="27.314683" lon="87.363688">
        <ele>1477</ele>
        <time>2019-10-04T09:24:44.911Z</time>
      </trkpt>
      <trkpt lat="27.314316" lon="87.362563">
        <ele>1478.39490048</ele>
        <time>2019-10-04T09:26:24.911Z</time>
      </trkpt>
      <trkpt lat="27.314307" lon="87.36193">
        <ele>1472.39490048</ele>
        <time>2019-10-04T09:27:24.911Z</time>
      </trkpt>
      <trkpt lat="27.314195" lon="87.36116">
        <ele>1463.57960192</ele>
        <time>2019-10-04T09:28:24.911Z</time>
      </trkpt>
      <trkpt lat="27.314156" lon="87.360607">
        <ele>1456</ele>
        <time>2019-10-04T09:29:09.911Z</time>
      </trkpt>
      <trkpt lat="27.314144" lon="87.360054">
        <ele>1450</ele>
        <time>2019-10-04T09:29:54.911Z</time>
      </trkpt>
      <trkpt lat="27.313893" lon="87.359395">
        <ele>1451.19490048</ele>
        <time>2019-10-04T09:30:46.911Z</time>
      </trkpt>
      <trkpt lat="27.313547" lon="87.358713">
        <ele>1456.01019904</ele>
        <time>2019-10-04T09:31:43.911Z</time>
      </trkpt>
      <trkpt lat="27.313261" lon="87.357998">
        <ele>1460.78980096</ele>
        <time>2019-10-04T09:32:44.911Z</time>
      </trkpt>
      <trkpt lat="27.313108" lon="87.357322">
        <ele>1453.38980096</ele>
        <time>2019-10-04T09:33:46.911Z</time>
      </trkpt>
      <trkpt lat="27.313138" lon="87.356655">
        <ele>1450</ele>
        <time>2019-10-04T09:34:44.911Z</time>
      </trkpt>
      <trkpt lat="27.312728" lon="87.355962">
        <ele>1441</ele>
        <time>2019-10-04T09:35:45.911Z</time>
      </trkpt>
      <trkpt lat="27.312912" lon="87.355338">
        <ele>1450.49490048</ele>
        <time>2019-10-04T09:36:43.911Z</time>
      </trkpt>
      <trkpt lat="27.312747" lon="87.354721">
        <ele>1437.39490048</ele>
        <time>2019-10-04T09:37:44.911Z</time>
      </trkpt>
      <trkpt lat="27.312514" lon="87.354022">
        <ele>1429.58980096</ele>
        <time>2019-10-04T09:38:45.911Z</time>
      </trkpt>
      <trkpt lat="27.312418" lon="87.353782">
        <ele>1415.9745024</ele>
        <time>2019-10-04T09:39:44.911Z</time>
      </trkpt>
      <trkpt lat="27.312068" lon="87.353313">
        <ele>1408.58980096</ele>
        <time>2019-10-04T09:40:45.911Z</time>
      </trkpt>
      <trkpt lat="27.311458" lon="87.353074">
        <ele>1397.18470144</ele>
        <time>2019-10-04T09:41:44.911Z</time>
      </trkpt>
      <trkpt lat="27.311167" lon="87.352635">
        <ele>1395.76430336</ele>
        <time>2019-10-04T09:42:44.911Z</time>
      </trkpt>
      <trkpt lat="27.311192" lon="87.351805">
        <ele>1371.24100096</ele>
        <time>2019-10-04T09:43:52.655Z</time>
      </trkpt>
      <trkpt lat="27.311192" lon="87.351414">
        <ele>1367.81529856</ele>
        <time>2019-10-04T09:44:44.911Z</time>
      </trkpt>
      <trkpt lat="27.311168" lon="87.351634">
        <ele>1339.98470144</ele>
        <time>2019-10-04T09:47:48.911Z</time>
      </trkpt>
      <trkpt lat="27.311291" lon="87.351478">
        <ele>1338.02039808</ele>
        <time>2019-10-04T09:49:48.911Z</time>
      </trkpt>
      <trkpt lat="27.311122" lon="87.351612">
        <ele>1352</ele>
        <time>2019-10-04T09:51:09.911Z</time>
      </trkpt>
      <trkpt lat="27.311077" lon="87.351275">
        <ele>1380.26119424</ele>
        <time>2019-10-04T09:51:54.911Z</time>
      </trkpt>
      <trkpt lat="27.310724" lon="87.350602">
        <ele>1394.80509952</ele>
        <time>2019-10-04T09:52:46.911Z</time>
      </trkpt>
      <trkpt lat="27.31042" lon="87.350263">
        <ele>1380.50630016</ele>
        <time>2019-10-04T09:53:43.797Z</time>
      </trkpt>
      <trkpt lat="27.310258" lon="87.349715">
        <ele>1371.39490048</ele>
        <time>2019-10-04T09:54:44.911Z</time>
      </trkpt>
      <trkpt lat="27.31002" lon="87.349036">
        <ele>1368.41019904</ele>
        <time>2019-10-04T09:55:45.911Z</time>
      </trkpt>
      <trkpt lat="27.309584" lon="87.34828">
        <ele>1380.84079616</ele>
        <time>2019-10-04T09:56:44.911Z</time>
      </trkpt>
      <trkpt lat="27.309319" lon="87.347536">
        <ele>1403</ele>
        <time>2019-10-04T09:57:44.911Z</time>
      </trkpt>
      <trkpt lat="27.309171" lon="87.346716">
        <ele>1412.81529856</ele>
        <time>2019-10-04T09:58:44.911Z</time>
      </trkpt>
      <trkpt lat="27.308954" lon="87.345871">
        <ele>1422.21019904</ele>
        <time>2019-10-04T09:59:44.911Z</time>
      </trkpt>
      <trkpt lat="27.308395" lon="87.345319">
        <ele>1428</ele>
        <time>2019-10-04T10:00:44.911Z</time>
      </trkpt>
      <trkpt lat="27.307897" lon="87.344758">
        <ele>1430</ele>
        <time>2019-10-04T10:01:45.911Z</time>
      </trkpt>
      <trkpt lat="27.307523" lon="87.344556">
        <ele>1435.70509952</ele>
        <time>2019-10-04T10:02:45.911Z</time>
      </trkpt>
      <trkpt lat="27.307279" lon="87.343905">
        <ele>1448.82039808</ele>
        <time>2019-10-04T10:03:45.911Z</time>
      </trkpt>
      <trkpt lat="27.307124" lon="87.34322">
        <ele>1466.0254976</ele>
        <time>2019-10-04T10:04:44.911Z</time>
      </trkpt>
      <trkpt lat="27.30682" lon="87.34252">
        <ele>1476.21019904</ele>
        <time>2019-10-04T10:05:44.911Z</time>
      </trkpt>
      <trkpt lat="27.306476" lon="87.341802">
        <ele>1486.9745024</ele>
        <time>2019-10-04T10:06:46.911Z</time>
      </trkpt>
      <trkpt lat="27.30607" lon="87.341564">
        <ele>1481.39490048</ele>
        <time>2019-10-04T10:07:44.911Z</time>
      </trkpt>
      <trkpt lat="27.305653" lon="87.34076">
        <ele>1495.11529856</ele>
        <time>2019-10-04T10:08:45.911Z</time>
      </trkpt>
      <trkpt lat="27.305171" lon="87.34005">
        <ele>1501</ele>
        <time>2019-10-04T10:09:44.911Z</time>
      </trkpt>
      <trkpt lat="27.304547" lon="87.339451">
        <ele>1498.42039808</ele>
        <time>2019-10-04T10:10:44.911Z</time>
      </trkpt>
      <trkpt lat="27.304025" lon="87.338873">
        <ele>1504</ele>
        <time>2019-10-04T10:11:44.911Z</time>
      </trkpt>
      <trkpt lat="27.303667" lon="87.338108">
        <ele>1400</ele>
        <time>2019-10-04T10:12:44.911Z</time>
      </trkpt>
      <trkpt lat="27.303115" lon="87.337572">
        <ele>1395.39490048</ele>
        <time>2019-10-04T10:13:44.911Z</time>
      </trkpt>
      <trkpt lat="27.302552" lon="87.336983">
        <ele>1391</ele>
        <time>2019-10-04T10:14:44.911Z</time>
      </trkpt>
      <trkpt lat="27.301991" lon="87.336453">
        <ele>1384.77960192</ele>
        <time>2019-10-04T10:15:46.911Z</time>
      </trkpt>
      <trkpt lat="27.301501" lon="87.335805">
        <ele>1378.58980096</ele>
        <time>2019-10-04T10:16:45.911Z</time>
      </trkpt>
      <trkpt lat="27.300846" lon="87.335239">
        <ele>1370.18980096</ele>
        <time>2019-10-04T10:17:47.911Z</time>
      </trkpt>
      <trkpt lat="27.300533" lon="87.334714">
        <ele>1367.39490048</ele>
        <time>2019-10-04T10:18:44.911Z</time>
      </trkpt>
      <trkpt lat="27.300105" lon="87.33401">
        <ele>1363</ele>
        <time>2019-10-04T10:19:45.911Z</time>
      </trkpt>
      <trkpt lat="27.299819" lon="87.333225">
        <ele>1358.29490048</ele>
        <time>2019-10-04T10:20:45.911Z</time>
      </trkpt>
      <trkpt lat="27.299415" lon="87.332329">
        <ele>1358</ele>
        <time>2019-10-04T10:21:55.911Z</time>
      </trkpt>
      <trkpt lat="27.299252" lon="87.33161">
        <ele>1356.80509952</ele>
        <time>2019-10-04T10:22:46.911Z</time>
      </trkpt>
      <trkpt lat="27.298721" lon="87.331022">
        <ele>1354.29490048</ele>
        <time>2019-10-04T10:23:45.911Z</time>
      </trkpt>
      <trkpt lat="27.298151" lon="87.330461">
        <ele>1352</ele>
        <time>2019-10-04T10:24:43.911Z</time>
      </trkpt>
      <trkpt lat="27.297535" lon="87.32991">
        <ele>1344.19490048</ele>
        <time>2019-10-04T10:25:46.911Z</time>
      </trkpt>
      <trkpt lat="27.297218" lon="87.329158">
        <ele>1340.29490048</ele>
        <time>2019-10-04T10:26:45.911Z</time>
      </trkpt>
      <trkpt lat="27.297295" lon="87.328418">
        <ele>1342</ele>
        <time>2019-10-04T10:27:45.911Z</time>
      </trkpt>
      <trkpt lat="27.296805" lon="87.327938">
        <ele>1339</ele>
        <time>2019-10-04T10:28:46.911Z</time>
      </trkpt>
      <trkpt lat="27.296764" lon="87.32756">
        <ele>1339.19490048</ele>
        <time>2019-10-04T10:29:46.911Z</time>
      </trkpt>
      <trkpt lat="27.296965" lon="87.32746">
        <ele>1330.19490048</ele>
        <time>2019-10-04T10:30:46.911Z</time>
      </trkpt>
      <trkpt lat="27.297514" lon="87.327805">
        <ele>1324.19490048</ele>
        <time>2019-10-04T10:31:46.911Z</time>
      </trkpt>
      <trkpt lat="27.297825" lon="87.327742">
        <ele>1318</ele>
        <time>2019-10-04T10:32:46.911Z</time>
      </trkpt>
      <trkpt lat="27.298215" lon="87.327606">
        <ele>1305.77960192</ele>
        <time>2019-10-04T10:33:46.911Z</time>
      </trkpt>
      <trkpt lat="27.297951" lon="87.327609">
        <ele>1304.81019904</ele>
        <time>2019-10-04T10:34:47.911Z</time>
      </trkpt>
      <trkpt lat="27.297764" lon="87.327529">
        <ele>1309</ele>
        <time>2019-10-04T10:35:55.911Z</time>
      </trkpt>
      <trkpt lat="27.29752" lon="87.32724">
        <ele>1309.70509952</ele>
        <time>2019-10-04T10:36:45.911Z</time>
      </trkpt>
      <trkpt lat="27.297102" lon="87.327002">
        <ele>1310</ele>
        <time>2019-10-04T10:37:46.911Z</time>
      </trkpt>
      <trkpt lat="27.296861" lon="87.326134">
        <ele>1303.38980096</ele>
        <time>2019-10-04T10:38:46.911Z</time>
      </trkpt>
      <trkpt lat="27.296709" lon="87.325514">
        <ele>1298.29490048</ele>
        <time>2019-10-04T10:39:45.911Z</time>
      </trkpt>
      <trkpt lat="27.29678" lon="87.324765">
        <ele>1297</ele>
        <time>2019-10-04T10:40:45.911Z</time>
      </trkpt>
      <trkpt lat="27.296285" lon="87.324092">
        <ele>1292.29490048</ele>
        <time>2019-10-04T10:41:45.911Z</time>
      </trkpt>
      <trkpt lat="27.295738" lon="87.323507">
        <ele>1288.29490048</ele>
        <time>2019-10-04T10:42:45.911Z</time>
      </trkpt>
      <trkpt lat="27.29574" lon="87.322875">
        <ele>1283</ele>
        <time>2019-10-04T10:43:45.911Z</time>
      </trkpt>
      <trkpt lat="27.295757" lon="87.322103">
        <ele>1279.29490048</ele>
        <time>2019-10-04T10:44:45.911Z</time>
      </trkpt>
      <trkpt lat="27.295569" lon="87.321293">
        <ele>1276.29490048</ele>
        <time>2019-10-04T10:45:45.911Z</time>
      </trkpt>
      <trkpt lat="27.295507" lon="87.320802">
        <ele>1274.60509952</ele>
        <time>2019-10-04T10:46:44.911Z</time>
      </trkpt>
      <trkpt lat="27.295329" lon="87.320197">
        <ele>1275</ele>
        <time>2019-10-04T10:47:44.911Z</time>
      </trkpt>
      <trkpt lat="27.294665" lon="87.319935">
        <ele>1271.29490048</ele>
        <time>2019-10-04T10:48:45.911Z</time>
      </trkpt>
      <trkpt lat="27.294226" lon="87.319753">
        <ele>1267.19490048</ele>
        <time>2019-10-04T10:49:46.911Z</time>
      </trkpt>
      <trkpt lat="27.29392" lon="87.318978">
        <ele>1261.29490048</ele>
        <time>2019-10-04T10:50:45.911Z</time>
      </trkpt>
      <trkpt lat="27.293442" lon="87.318633">
        <ele>1256.58980096</ele>
        <time>2019-10-04T10:51:45.911Z</time>
      </trkpt>
      <trkpt lat="27.293343" lon="87.31817">
        <ele>1251.29490048</ele>
        <time>2019-10-04T10:52:45.911Z</time>
      </trkpt>
      <trkpt lat="27.293179" lon="87.317583">
        <ele>1249</ele>
        <time>2019-10-04T10:53:45.911Z</time>
      </trkpt>
      <trkpt lat="27.292882" lon="87.317401">
        <ele>1249</ele>
        <time>2019-10-04T10:54:45.911Z</time>
      </trkpt>
      <trkpt lat="27.29237" lon="87.317243">
        <ele>1250</ele>
        <time>2019-10-04T10:55:45.911Z</time>
      </trkpt>
      <trkpt lat="27.292052" lon="87.316672">
        <ele>1249</ele>
        <time>2019-10-04T10:56:47.911Z</time>
      </trkpt>
      <trkpt lat="27.291799" lon="87.316661">
        <ele>1247.19490048</ele>
        <time>2019-10-04T10:57:46.911Z</time>
      </trkpt>
      <trkpt lat="27.291335" lon="87.316326">
        <ele>1247</ele>
        <time>2019-10-04T10:58:44.911Z</time>
      </trkpt>
      <trkpt lat="27.291533" lon="87.316213">
        <ele>1247.80509952</ele>
        <time>2019-10-04T10:59:46.911Z</time>
      </trkpt>
      <trkpt lat="27.291324" lon="87.316064">
        <ele>1248</ele>
        <time>2019-10-04T11:01:46.911Z</time>
      </trkpt>
      <trkpt lat="27.291101" lon="87.315944">
        <ele>1248</ele>
        <time>2019-10-04T11:02:45.911Z</time>
      </trkpt>
      <trkpt lat="27.290978" lon="87.315455">
        <ele>1247.60509952</ele>
        <time>2019-10-04T11:03:44.911Z</time>
      </trkpt>
      <trkpt lat="27.29084" lon="87.315022">
        <ele>1248.80509952</ele>
        <time>2019-10-04T11:04:46.911Z</time>
      </trkpt>
      <trkpt lat="27.29056" lon="87.314704">
        <ele>1252.70509952</ele>
        <time>2019-10-04T11:05:45.911Z</time>
      </trkpt>
      <trkpt lat="27.29006" lon="87.314413">
        <ele>1253.80509952</ele>
        <time>2019-10-04T11:06:46.911Z</time>
      </trkpt>
      <trkpt lat="27.289916" lon="87.314251">
        <ele>1255.98980096</ele>
        <time>2019-10-04T11:07:48.911Z</time>
      </trkpt>
      <trkpt lat="27.289702" lon="87.313721">
        <ele>1247.80509952</ele>
        <time>2019-10-04T11:08:46.911Z</time>
      </trkpt>
      <trkpt lat="27.289658" lon="87.312967">
        <ele>1251.90509952</ele>
        <time>2019-10-04T11:09:47.911Z</time>
      </trkpt>
      <trkpt lat="27.289396" lon="87.312254">
        <ele>1252.90509952</ele>
        <time>2019-10-04T11:10:47.911Z</time>
      </trkpt>
      <trkpt lat="27.289382" lon="87.31112">
        <ele>1255</ele>
        <time>2019-10-04T11:12:36.598Z</time>
      </trkpt>
      <trkpt lat="27.289388" lon="87.31046">
        <ele>1257.41019904</ele>
        <time>2019-10-04T11:13:20.911Z</time>
      </trkpt>
      <trkpt lat="27.289534" lon="87.310324">
        <ele>1262</ele>
        <time>2019-10-04T11:14:02.911Z</time>
      </trkpt>
      <trkpt lat="27.289416" lon="87.309896">
        <ele>1254</ele>
        <time>2019-10-05T05:18:51.613Z</time>
      </trkpt>
      <trkpt lat="27.289448" lon="87.309665">
        <ele>1254</ele>
        <time>2019-10-05T05:20:49.613Z</time>
      </trkpt>
      <trkpt lat="27.289545" lon="87.309011">
        <ele>1254</ele>
        <time>2019-10-05T05:21:51.613Z</time>
      </trkpt>
      <trkpt lat="27.289458" lon="87.308232">
        <ele>1246.21291199639</ele>
        <time>2019-10-05T05:22:54.613Z</time>
      </trkpt>
      <trkpt lat="27.289299" lon="87.307394">
        <ele>1239.71269888</ele>
        <time>2019-10-05T05:23:59.613Z</time>
      </trkpt>
      <trkpt lat="27.289224" lon="87.306582">
        <ele>1236.31269888</ele>
        <time>2019-10-05T05:25:03.613Z</time>
      </trkpt>
      <trkpt lat="27.28897" lon="87.305831">
        <ele>1231</ele>
        <time>2019-10-05T05:26:06.613Z</time>
      </trkpt>
      <trkpt lat="27.28877" lon="87.304983">
        <ele>1226.18711382654</ele>
        <time>2019-10-05T05:27:08.613Z</time>
      </trkpt>
      <trkpt lat="27.289066" lon="87.304205">
        <ele>1230</ele>
        <time>2019-10-05T05:28:13.613Z</time>
      </trkpt>
      <trkpt lat="27.289266" lon="87.303481">
        <ele>1236.28658702215</ele>
        <time>2019-10-05T05:29:19.613Z</time>
      </trkpt>
      <trkpt lat="27.2893" lon="87.302693">
        <ele>1241</ele>
        <time>2019-10-05T05:30:25.613Z</time>
      </trkpt>
      <trkpt lat="27.289224" lon="87.302253">
        <ele>1241.8871881999</ele>
        <time>2019-10-05T05:31:25.613Z</time>
      </trkpt>
      <trkpt lat="27.289272" lon="87.301544">
        <ele>1245</ele>
        <time>2019-10-05T05:32:36.613Z</time>
      </trkpt>
      <trkpt lat="27.28918" lon="87.301215">
        <ele>1247</ele>
        <time>2019-10-05T05:33:21.613Z</time>
      </trkpt>
      <trkpt lat="27.289048" lon="87.300926">
        <ele>1247</ele>
        <time>2019-10-05T05:34:06.613Z</time>
      </trkpt>
      <trkpt lat="27.288933" lon="87.300307">
        <ele>1249.91269888</ele>
        <time>2019-10-05T05:34:57.613Z</time>
      </trkpt>
      <trkpt lat="27.288984" lon="87.300003">
        <ele>1252</ele>
        <time>2019-10-05T05:35:54.613Z</time>
      </trkpt>
      <trkpt lat="27.288818" lon="87.299825">
        <ele>1258.08730112</ele>
        <time>2019-10-05T05:36:57.613Z</time>
      </trkpt>
      <trkpt lat="27.288608" lon="87.299779">
        <ele>1265.78708800361</ele>
        <time>2019-10-05T05:37:54.613Z</time>
      </trkpt>
      <trkpt lat="27.288334" lon="87.299497">
        <ele>1273.98728839619</ele>
        <time>2019-10-05T05:38:56.613Z</time>
      </trkpt>
      <trkpt lat="27.288108" lon="87.299387">
        <ele>1280.78708800361</ele>
        <time>2019-10-05T05:39:54.613Z</time>
      </trkpt>
      <trkpt lat="27.287774" lon="87.299143">
        <ele>1284.18730112</ele>
        <time>2019-10-05T05:40:58.613Z</time>
      </trkpt>
      <trkpt lat="27.287526" lon="87.298685">
        <ele>1291.38730112</ele>
        <time>2019-10-05T05:42:00.613Z</time>
      </trkpt>
      <trkpt lat="27.287211" lon="87.298398">
        <ele>1296</ele>
        <time>2019-10-05T05:42:56.613Z</time>
      </trkpt>
      <trkpt lat="27.287114" lon="87.297804">
        <ele>1301</ele>
        <time>2019-10-05T05:43:54.613Z</time>
      </trkpt>
      <trkpt lat="27.286899" lon="87.297455">
        <ele>1304</ele>
        <time>2019-10-05T05:44:58.613Z</time>
      </trkpt>
      <trkpt lat="27.286734" lon="87.296896">
        <ele>1305</ele>
        <time>2019-10-05T05:45:58.613Z</time>
      </trkpt>
      <trkpt lat="27.286709" lon="87.296182">
        <ele>1308.18730112</ele>
        <time>2019-10-05T05:46:58.613Z</time>
      </trkpt>
      <trkpt lat="27.286416" lon="87.29562">
        <ele>1314.37460224</ele>
        <time>2019-10-05T05:47:58.613Z</time>
      </trkpt>
      <trkpt lat="27.285892" lon="87.295317">
        <ele>1320.18711382654</ele>
        <time>2019-10-05T05:48:58.613Z</time>
      </trkpt>
      <trkpt lat="27.285793" lon="87.294702">
        <ele>1325</ele>
        <time>2019-10-05T05:49:57.613Z</time>
      </trkpt>
      <trkpt lat="27.28516" lon="87.294454">
        <ele>1328</ele>
        <time>2019-10-05T05:50:58.613Z</time>
      </trkpt>
      <trkpt lat="27.284686" lon="87.294012">
        <ele>1331.98728839619</ele>
        <time>2019-10-05T05:51:56.613Z</time>
      </trkpt>
      <trkpt lat="27.284295" lon="87.293657">
        <ele>1338.88727687438</ele>
        <time>2019-10-05T05:52:55.613Z</time>
      </trkpt>
      <trkpt lat="27.283961" lon="87.293077">
        <ele>1344.18730112</ele>
        <time>2019-10-05T05:53:58.613Z</time>
      </trkpt>
      <trkpt lat="27.283634" lon="87.292484">
        <ele>1348.18730112</ele>
        <time>2019-10-05T05:54:58.613Z</time>
      </trkpt>
      <trkpt lat="27.283265" lon="87.291852">
        <ele>1349.8871881999</ele>
        <time>2019-10-05T05:55:55.613Z</time>
      </trkpt>
      <trkpt lat="27.282725" lon="87.291759">
        <ele>1352.8871881999</ele>
        <time>2019-10-05T05:56:55.613Z</time>
      </trkpt>
      <trkpt lat="27.282065" lon="87.292084">
        <ele>1356.38730112</ele>
        <time>2019-10-05T05:58:00.613Z</time>
      </trkpt>
      <trkpt lat="27.28173" lon="87.292078">
        <ele>1359.98728839619</ele>
        <time>2019-10-05T05:58:56.613Z</time>
      </trkpt>
      <trkpt lat="27.281728" lon="87.291385">
        <ele>1363.18730112</ele>
        <time>2019-10-05T05:59:58.613Z</time>
      </trkpt>
      <trkpt lat="27.281623" lon="87.290826">
        <ele>1369</ele>
        <time>2019-10-05T06:00:58.613Z</time>
      </trkpt>
      <trkpt lat="27.281187" lon="87.290429">
        <ele>1372.48730112</ele>
        <time>2019-10-05T06:02:01.613Z</time>
      </trkpt>
      <trkpt lat="27.280709" lon="87.290154">
        <ele>1378.17460224</ele>
        <time>2019-10-05T06:02:57.613Z</time>
      </trkpt>
      <trkpt lat="27.280515" lon="87.289442">
        <ele>1384.37134388543</ele>
        <time>2019-10-05T06:03:58.613Z</time>
      </trkpt>
      <trkpt lat="27.280086" lon="87.288876">
        <ele>1388</ele>
        <time>2019-10-05T06:04:58.613Z</time>
      </trkpt>
      <trkpt lat="27.280095" lon="87.288111">
        <ele>1391.18730112</ele>
        <time>2019-10-05T06:05:58.613Z</time>
      </trkpt>
      <trkpt lat="27.279922" lon="87.287294">
        <ele>1396.18730112</ele>
        <time>2019-10-05T06:06:58.613Z</time>
      </trkpt>
      <trkpt lat="27.279188" lon="87.286997">
        <ele>1403</ele>
        <time>2019-10-05T06:08:18.613Z</time>
      </trkpt>
      <trkpt lat="27.278707" lon="87.28672">
        <ele>1404</ele>
        <time>2019-10-05T06:09:03.613Z</time>
      </trkpt>
      <trkpt lat="27.278476" lon="87.286214">
        <ele>1409</ele>
        <time>2019-10-05T06:09:59.613Z</time>
      </trkpt>
      <trkpt lat="27.278115" lon="87.286156">
        <ele>1413.18730112</ele>
        <time>2019-10-05T06:10:58.613Z</time>
      </trkpt>
      <trkpt lat="27.277826" lon="87.286054">
        <ele>1416.98727566318</ele>
        <time>2019-10-05T06:11:56.613Z</time>
      </trkpt>
      <trkpt lat="27.277261" lon="87.285679">
        <ele>1422</ele>
        <time>2019-10-05T06:12:58.613Z</time>
      </trkpt>
      <trkpt lat="27.277138" lon="87.284908">
        <ele>1419</ele>
        <time>2019-10-05T06:13:57.613Z</time>
      </trkpt>
      <trkpt lat="27.277249" lon="87.284076">
        <ele>1419</ele>
        <time>2019-10-05T06:15:01.613Z</time>
      </trkpt>
      <trkpt lat="27.276879" lon="87.284085">
        <ele>1419</ele>
        <time>2019-10-05T06:15:58.613Z</time>
      </trkpt>
      <trkpt lat="27.276267" lon="87.283791">
        <ele>1419</ele>
        <time>2019-10-05T06:16:56.613Z</time>
      </trkpt>
      <trkpt lat="27.275864" lon="87.283108">
        <ele>1419</ele>
        <time>2019-10-05T06:17:56.613Z</time>
      </trkpt>
      <trkpt lat="27.275396" lon="87.282561">
        <ele>1418.01271160381</ele>
        <time>2019-10-05T06:18:56.613Z</time>
      </trkpt>
      <trkpt lat="27.275009" lon="87.282008">
        <ele>1411.62539776</ele>
        <time>2019-10-05T06:19:58.613Z</time>
      </trkpt>
      <trkpt lat="27.27435" lon="87.281576">
        <ele>1409</ele>
        <time>2019-10-05T06:20:58.613Z</time>
      </trkpt>
      <trkpt lat="27.274352" lon="87.281196">
        <ele>1408</ele>
        <time>2019-10-05T06:22:03.613Z</time>
      </trkpt>
      <trkpt lat="27.274121" lon="87.280745">
        <ele>1407.62539776</ele>
        <time>2019-10-05T06:22:58.613Z</time>
      </trkpt>
      <trkpt lat="27.273628" lon="87.280298">
        <ele>1403.1128118001</ele>
        <time>2019-10-05T06:23:55.613Z</time>
      </trkpt>
      <trkpt lat="27.273249" lon="87.279543">
        <ele>1401.91278617755</ele>
        <time>2019-10-05T06:24:57.613Z</time>
      </trkpt>
      <trkpt lat="27.273171" lon="87.279453">
        <ele>1400</ele>
        <time>2019-10-05T06:25:58.613Z</time>
      </trkpt>
      <trkpt lat="27.273128" lon="87.278721">
        <ele>1398</ele>
        <time>2019-10-05T06:26:55.613Z</time>
      </trkpt>
      <trkpt lat="27.272936" lon="87.277939">
        <ele>1400</ele>
        <time>2019-10-05T06:27:55.613Z</time>
      </trkpt>
      <trkpt lat="27.273675" lon="87.27727">
        <ele>1397.82539776</ele>
        <time>2019-10-05T06:28:57.613Z</time>
      </trkpt>
      <trkpt lat="27.273589" lon="87.276642">
        <ele>1393.01271160381</ele>
        <time>2019-10-05T06:29:56.613Z</time>
      </trkpt>
      <trkpt lat="27.274006" lon="87.27601">
        <ele>1387.1128118001</ele>
        <time>2019-10-05T06:30:55.613Z</time>
      </trkpt>
      <trkpt lat="27.274256" lon="87.275127">
        <ele>1379.91361337044</ele>
        <time>2019-10-05T06:31:57.613Z</time>
      </trkpt>
      <trkpt lat="27.274192" lon="87.274551">
        <ele>1376</ele>
        <time>2019-10-05T06:32:56.613Z</time>
      </trkpt>
      <trkpt lat="27.273915" lon="87.273781">
        <ele>1369.62539776</ele>
        <time>2019-10-05T06:33:58.613Z</time>
      </trkpt>
      <trkpt lat="27.273641" lon="87.273222">
        <ele>1359.43809664</ele>
        <time>2019-10-05T06:34:58.613Z</time>
      </trkpt>
      <trkpt lat="27.273216" lon="87.272619">
        <ele>1348.1128118001</ele>
        <time>2019-10-05T06:35:55.613Z</time>
      </trkpt>
      <trkpt lat="27.27287" lon="87.271938">
        <ele>1338.04405451958</ele>
        <time>2019-10-05T06:36:56.613Z</time>
      </trkpt>
      <trkpt lat="27.272759" lon="87.271431">
        <ele>1328.62539776</ele>
        <time>2019-10-05T06:37:58.613Z</time>
      </trkpt>
      <trkpt lat="27.272426" lon="87.270904">
        <ele>1318.73809664</ele>
        <time>2019-10-05T06:38:57.613Z</time>
      </trkpt>
      <trkpt lat="27.27223" lon="87.270277">
        <ele>1310.82539776</ele>
        <time>2019-10-05T06:39:57.613Z</time>
      </trkpt>
      <trkpt lat="27.272171" lon="87.269708">
        <ele>1302.25079552</ele>
        <time>2019-10-05T06:40:58.613Z</time>
      </trkpt>
      <trkpt lat="27.271931" lon="87.269068">
        <ele>1293.81269888</ele>
        <time>2019-10-05T06:41:58.613Z</time>
      </trkpt>
      <trkpt lat="27.27202" lon="87.268354">
        <ele>1290.82539776</ele>
        <time>2019-10-05T06:42:57.613Z</time>
      </trkpt>
      <trkpt lat="27.272" lon="87.267688">
        <ele>1281.62539776</ele>
        <time>2019-10-05T06:43:58.613Z</time>
      </trkpt>
      <trkpt lat="27.271875" lon="87.267138">
        <ele>1278.01271160381</ele>
        <time>2019-10-05T06:44:56.613Z</time>
      </trkpt>
      <trkpt lat="27.271896" lon="87.266298">
        <ele>1276.62539776</ele>
        <time>2019-10-05T06:45:58.613Z</time>
      </trkpt>
      <trkpt lat="27.271873" lon="87.265821">
        <ele>1270.21291199639</ele>
        <time>2019-10-05T06:46:54.613Z</time>
      </trkpt>
      <trkpt lat="27.271868" lon="87.26496">
        <ele>1270</ele>
        <time>2019-10-05T06:47:58.613Z</time>
      </trkpt>
      <trkpt lat="27.2717" lon="87.264226">
        <ele>1270.1128118001</ele>
        <time>2019-10-05T06:48:55.613Z</time>
      </trkpt>
      <trkpt lat="27.271709" lon="87.263231">
        <ele>1268</ele>
        <time>2019-10-05T06:49:56.613Z</time>
      </trkpt>
      <trkpt lat="27.271828" lon="87.26248">
        <ele>1266</ele>
        <time>2019-10-05T06:50:58.613Z</time>
      </trkpt>
      <trkpt lat="27.272156" lon="87.262401">
        <ele>1261.82539776</ele>
        <time>2019-10-05T06:51:57.613Z</time>
      </trkpt>
      <trkpt lat="27.27239" lon="87.261689">
        <ele>1249.43809664</ele>
        <time>2019-10-05T06:52:58.613Z</time>
      </trkpt>
      <trkpt lat="27.272637" lon="87.261216">
        <ele>1238.73809664</ele>
        <time>2019-10-05T06:53:57.613Z</time>
      </trkpt>
      <trkpt lat="27.272965" lon="87.260788">
        <ele>1227.62519808</ele>
        <time>2019-10-05T06:54:58.614Z</time>
      </trkpt>
      <trkpt lat="27.273157" lon="87.260326">
        <ele>1216.1128118001</ele>
        <time>2019-10-05T06:55:55.613Z</time>
      </trkpt>
      <trkpt lat="27.273294" lon="87.259859">
        <ele>1211</ele>
        <time>2019-10-05T06:56:55.613Z</time>
      </trkpt>
      <trkpt lat="27.273168" lon="87.260459">
        <ele>1210</ele>
        <time>2019-10-05T06:57:55.613Z</time>
      </trkpt>
      <trkpt lat="27.273183" lon="87.26033">
        <ele>1209.62539776</ele>
        <time>2019-10-05T06:58:58.613Z</time>
      </trkpt>
      <trkpt lat="27.273234" lon="87.260232">
        <ele>1208.1128118001</ele>
        <time>2019-10-05T06:59:55.613Z</time>
      </trkpt>
      <trkpt lat="27.273495" lon="87.259647">
        <ele>1201.43809664</ele>
        <time>2019-10-05T07:00:58.613Z</time>
      </trkpt>
      <trkpt lat="27.273811" lon="87.259265">
        <ele>1187.62539776</ele>
        <time>2019-10-05T07:01:58.613Z</time>
      </trkpt>
      <trkpt lat="27.274036" lon="87.258863">
        <ele>1179.1128118001</ele>
        <time>2019-10-05T07:02:55.613Z</time>
      </trkpt>
      <trkpt lat="27.274328" lon="87.258545">
        <ele>1165.42539776</ele>
        <time>2019-10-05T07:03:59.613Z</time>
      </trkpt>
      <trkpt lat="27.274463" lon="87.258283">
        <ele>1151.42539776</ele>
        <time>2019-10-05T07:04:59.613Z</time>
      </trkpt>
      <trkpt lat="27.274663" lon="87.257766">
        <ele>1144.71269888</ele>
        <time>2019-10-05T07:05:59.613Z</time>
      </trkpt>
      <trkpt lat="27.27428" lon="87.257111">
        <ele>1138.42539776</ele>
        <time>2019-10-05T07:06:59.613Z</time>
      </trkpt>
      <trkpt lat="27.2745" lon="87.256807">
        <ele>1128.71269888</ele>
        <time>2019-10-05T07:07:59.613Z</time>
      </trkpt>
      <trkpt lat="27.274681" lon="87.256172">
        <ele>1119.85079552</ele>
        <time>2019-10-05T07:08:59.613Z</time>
      </trkpt>
      <trkpt lat="27.274797" lon="87.255454">
        <ele>1109.43809664</ele>
        <time>2019-10-05T07:09:58.613Z</time>
      </trkpt>
      <trkpt lat="27.274813" lon="87.255331">
        <ele>1107</ele>
        <time>2019-10-05T07:10:58.613Z</time>
      </trkpt>
      <trkpt lat="27.274461" lon="87.25494">
        <ele>1106</ele>
        <time>2019-10-05T07:11:59.613Z</time>
      </trkpt>
      <trkpt lat="27.274436" lon="87.254536">
        <ele>1102.62539776</ele>
        <time>2019-10-05T07:12:58.613Z</time>
      </trkpt>
      <trkpt lat="27.274544" lon="87.254278">
        <ele>1095.62539776</ele>
        <time>2019-10-05T07:13:58.613Z</time>
      </trkpt>
      <trkpt lat="27.274787" lon="87.25406">
        <ele>1086.81269888</ele>
        <time>2019-10-05T07:14:58.613Z</time>
      </trkpt>
      <trkpt lat="27.274974" lon="87.253539">
        <ele>1076.91269888</ele>
        <time>2019-10-05T07:15:57.613Z</time>
      </trkpt>
      <trkpt lat="27.274944" lon="87.253053">
        <ele>1069.43809664</ele>
        <time>2019-10-05T07:16:58.613Z</time>
      </trkpt>
      <trkpt lat="27.275196" lon="87.252627">
        <ele>1058.81351317415</ele>
        <time>2019-10-05T07:17:58.613Z</time>
      </trkpt>
      <trkpt lat="27.275348" lon="87.251967">
        <ele>1047.81269888</ele>
        <time>2019-10-05T07:18:58.613Z</time>
      </trkpt>
      <trkpt lat="27.275694" lon="87.251219">
        <ele>1041.43809664</ele>
        <time>2019-10-05T07:19:58.613Z</time>
      </trkpt>
      <trkpt lat="27.27576" lon="87.250448">
        <ele>1032.25079552</ele>
        <time>2019-10-05T07:20:58.613Z</time>
      </trkpt>
      <trkpt lat="27.276108" lon="87.249773">
        <ele>1024.62577234691</ele>
        <time>2019-10-05T07:21:58.613Z</time>
      </trkpt>
      <trkpt lat="27.276397" lon="87.249012">
        <ele>1017.42539776</ele>
        <time>2019-10-05T07:22:59.613Z</time>
      </trkpt>
      <trkpt lat="27.276724" lon="87.248458">
        <ele>1013.81269888</ele>
        <time>2019-10-05T07:23:58.613Z</time>
      </trkpt>
      <trkpt lat="27.277006" lon="87.248325">
        <ele>1008.62614570785</ele>
        <time>2019-10-05T07:24:58.613Z</time>
      </trkpt>
      <trkpt lat="27.277484" lon="87.247838">
        <ele>1004.62539776</ele>
        <time>2019-10-05T07:25:58.613Z</time>
      </trkpt>
      <trkpt lat="27.278164" lon="87.247388">
        <ele>995.813513174147</ele>
        <time>2019-10-05T07:26:58.613Z</time>
      </trkpt>
      <trkpt lat="27.278657" lon="87.246832">
        <ele>995.62539776</ele>
        <time>2019-10-05T07:27:58.613Z</time>
      </trkpt>
      <trkpt lat="27.2789" lon="87.246533">
        <ele>991.71269888</ele>
        <time>2019-10-05T07:28:59.613Z</time>
      </trkpt>
      <trkpt lat="27.278806" lon="87.246579">
        <ele>990.81269888</ele>
        <time>2019-10-05T07:32:58.613Z</time>
      </trkpt>
      <trkpt lat="27.278932" lon="87.246554">
        <ele>990</ele>
        <time>2019-10-05T07:34:00.613Z</time>
      </trkpt>
      <trkpt lat="27.278537" lon="87.246112">
        <ele>987.62539776</ele>
        <time>2019-10-05T07:35:58.613Z</time>
      </trkpt>
      <trkpt lat="27.278166" lon="87.245627">
        <ele>977.713412977854</ele>
        <time>2019-10-05T07:36:59.613Z</time>
      </trkpt>
      <trkpt lat="27.278378" lon="87.244965">
        <ele>974</ele>
        <time>2019-10-05T07:37:59.613Z</time>
      </trkpt>
      <trkpt lat="27.27824" lon="87.244164">
        <ele>972</ele>
        <time>2019-10-05T07:38:59.613Z</time>
      </trkpt>
      <trkpt lat="27.278182" lon="87.243564">
        <ele>974.28730112</ele>
        <time>2019-10-05T07:39:59.613Z</time>
      </trkpt>
      <trkpt lat="27.278172" lon="87.244216">
        <ele>971.71269888</ele>
        <time>2019-10-05T07:41:59.613Z</time>
      </trkpt>
      <trkpt lat="27.27836" lon="87.244898">
        <ele>974</ele>
        <time>2019-10-05T07:43:00.613Z</time>
      </trkpt>
      <trkpt lat="27.278448" lon="87.245521">
        <ele>973.42539776</ele>
        <time>2019-10-05T07:43:59.613Z</time>
      </trkpt>
      <trkpt lat="27.278607" lon="87.244834">
        <ele>959.71269888</ele>
        <time>2019-10-05T07:44:59.613Z</time>
      </trkpt>
      <trkpt lat="27.2786" lon="87.244269">
        <ele>952.13809664</ele>
        <time>2019-10-05T07:45:59.613Z</time>
      </trkpt>
      <trkpt lat="27.278673" lon="87.243873">
        <ele>948.43809664</ele>
        <time>2019-10-05T07:46:58.613Z</time>
      </trkpt>
      <trkpt lat="27.279185" lon="87.243485">
        <ele>938.81269888</ele>
        <time>2019-10-05T07:47:58.613Z</time>
      </trkpt>
      <trkpt lat="27.279326" lon="87.242696">
        <ele>934.81269888</ele>
        <time>2019-10-05T07:48:58.613Z</time>
      </trkpt>
      <trkpt lat="27.279526" lon="87.242044">
        <ele>928.82539776</ele>
        <time>2019-10-05T07:49:57.613Z</time>
      </trkpt>
      <trkpt lat="27.27991" lon="87.241512">
        <ele>921.627026348294</ele>
        <time>2019-10-05T07:50:58.613Z</time>
      </trkpt>
      <trkpt lat="27.280235" lon="87.240929">
        <ele>915.62539776</ele>
        <time>2019-10-05T07:51:58.613Z</time>
      </trkpt>
      <trkpt lat="27.280442" lon="87.240281">
        <ele>913</ele>
        <time>2019-10-05T07:52:58.613Z</time>
      </trkpt>
      <trkpt lat="27.280767" lon="87.23965">
        <ele>915.18730112</ele>
        <time>2019-10-05T07:53:58.613Z</time>
      </trkpt>
      <trkpt lat="27.281055" lon="87.239264">
        <ele>912.51269888</ele>
        <time>2019-10-05T07:55:01.613Z</time>
      </trkpt>
      <trkpt lat="27.281594" lon="87.238819">
        <ele>906.73809664</ele>
        <time>2019-10-05T07:55:57.613Z</time>
      </trkpt>
      <trkpt lat="27.282119" lon="87.23863">
        <ele>898.43809664</ele>
        <time>2019-10-05T07:56:58.613Z</time>
      </trkpt>
      <trkpt lat="27.282712" lon="87.238149">
        <ele>891.43809664</ele>
        <time>2019-10-05T07:57:58.613Z</time>
      </trkpt>
      <trkpt lat="27.283278" lon="87.237906">
        <ele>881.050846415228</ele>
        <time>2019-10-05T07:58:56.613Z</time>
      </trkpt>
      <trkpt lat="27.283841" lon="87.237934">
        <ele>876.012711603807</ele>
        <time>2019-10-05T07:59:56.613Z</time>
      </trkpt>
      <trkpt lat="27.284625" lon="87.23801">
        <ele>869.91269888</ele>
        <time>2019-10-05T08:00:57.613Z</time>
      </trkpt>
      <trkpt lat="27.285009" lon="87.238153">
        <ele>867.112811800099</ele>
        <time>2019-10-05T08:01:55.613Z</time>
      </trkpt>
      <trkpt lat="27.285142" lon="87.238042">
        <ele>863.987288396193</ele>
        <time>2019-10-05T08:02:56.613Z</time>
      </trkpt>
      <trkpt lat="27.285273" lon="87.237399">
        <ele>854.112811800099</ele>
        <time>2019-10-05T08:03:55.613Z</time>
      </trkpt>
      <trkpt lat="27.285609" lon="87.23673">
        <ele>841.62539776</ele>
        <time>2019-10-05T08:05:03.613Z</time>
      </trkpt>
      <trkpt lat="27.286043" lon="87.236331">
        <ele>832.43809664</ele>
        <time>2019-10-05T08:05:58.613Z</time>
      </trkpt>
      <trkpt lat="27.286479" lon="87.235734">
        <ele>825.012711603807</ele>
        <time>2019-10-05T08:06:56.613Z</time>
      </trkpt>
      <trkpt lat="27.286934" lon="87.23558">
        <ele>818.014684839859</ele>
        <time>2019-10-05T08:07:56.613Z</time>
      </trkpt>
      <trkpt lat="27.287541" lon="87.235428">
        <ele>810.65079552</ele>
        <time>2019-10-05T08:08:57.613Z</time>
      </trkpt>
      <trkpt lat="27.287954" lon="87.235083">
        <ele>805.81269888</ele>
        <time>2019-10-05T08:09:58.613Z</time>
      </trkpt>
      <trkpt lat="27.288039" lon="87.234336">
        <ele>796.81269888</ele>
        <time>2019-10-05T08:10:58.613Z</time>
      </trkpt>
      <trkpt lat="27.287984" lon="87.233765">
        <ele>793.62539776</ele>
        <time>2019-10-05T08:11:58.613Z</time>
      </trkpt>
      <trkpt lat="27.288375" lon="87.233354">
        <ele>782.65079552</ele>
        <time>2019-10-05T08:12:57.613Z</time>
      </trkpt>
      <trkpt lat="27.288598" lon="87.233103">
        <ele>766.91269888</ele>
        <time>2019-10-05T08:13:57.613Z</time>
      </trkpt>
      <trkpt lat="27.289008" lon="87.232852">
        <ele>753.81269888</ele>
        <time>2019-10-05T08:14:58.613Z</time>
      </trkpt>
      <trkpt lat="27.289418" lon="87.232195">
        <ele>745.02734369511</ele>
        <time>2019-10-05T08:16:01.613Z</time>
      </trkpt>
      <trkpt lat="27.289897" lon="87.231608">
        <ele>738.82539776</ele>
        <time>2019-10-05T08:16:57.613Z</time>
      </trkpt>
      <trkpt lat="27.290113" lon="87.231113">
        <ele>733.012711603807</ele>
        <time>2019-10-05T08:17:56.613Z</time>
      </trkpt>
      <trkpt lat="27.289997" lon="87.231095">
        <ele>732.91269888</ele>
        <time>2019-10-05T08:18:57.613Z</time>
      </trkpt>
      <trkpt lat="27.290466" lon="87.231452">
        <ele>720.82539776</ele>
        <time>2019-10-05T08:19:57.613Z</time>
      </trkpt>
      <trkpt lat="27.290341" lon="87.231456">
        <ele>718</ele>
        <time>2019-10-05T08:21:58.613Z</time>
      </trkpt>
      <trkpt lat="27.290292" lon="87.231555">
        <ele>719</ele>
        <time>2019-10-05T08:24:36.613Z</time>
      </trkpt>
      <trkpt lat="27.290645" lon="87.231454">
        <ele>707.82539776</ele>
        <time>2019-10-05T08:29:57.613Z</time>
      </trkpt>
      <trkpt lat="27.290925" lon="87.231328">
        <ele>697.91269888</ele>
        <time>2019-10-05T08:30:57.613Z</time>
      </trkpt>
      <trkpt lat="27.291024" lon="87.231251">
        <ele>696.81269888</ele>
        <time>2019-10-05T08:33:58.613Z</time>
      </trkpt>
      <trkpt lat="27.291217" lon="87.231299">
        <ele>691.71269888</ele>
        <time>2019-10-05T08:34:59.613Z</time>
      </trkpt>
      <trkpt lat="27.291044" lon="87.231166">
        <ele>690.686613847004</ele>
        <time>2019-10-05T08:36:13.613Z</time>
      </trkpt>
      <trkpt lat="27.291309" lon="87.231108">
        <ele>686.625772346912</ele>
        <time>2019-10-05T08:37:08.613Z</time>
      </trkpt>
      <trkpt lat="27.291758" lon="87.230745">
        <ele>679.71269888</ele>
        <time>2019-10-05T08:37:59.613Z</time>
      </trkpt>
      <trkpt lat="27.292066" lon="87.230108">
        <ele>673.82539776</ele>
        <time>2019-10-05T08:38:57.613Z</time>
      </trkpt>
      <trkpt lat="27.292106" lon="87.230528">
        <ele>667.025423207614</ele>
        <time>2019-10-05T08:39:56.613Z</time>
      </trkpt>
      <trkpt lat="27.292536" lon="87.230726">
        <ele>663.012711603807</ele>
        <time>2019-10-05T08:40:56.613Z</time>
      </trkpt>
      <trkpt lat="27.292636" lon="87.230318">
        <ele>662</ele>
        <time>2019-10-05T08:41:54.613Z</time>
      </trkpt>
      <trkpt lat="27.292601" lon="87.229911">
        <ele>661</ele>
        <time>2019-10-05T08:42:56.613Z</time>
      </trkpt>
      <trkpt lat="27.292733" lon="87.229185">
        <ele>657.43809664</ele>
        <time>2019-10-05T08:43:58.613Z</time>
      </trkpt>
      <trkpt lat="27.292821" lon="87.229059">
        <ele>654</ele>
        <time>2019-10-05T08:44:54.613Z</time>
      </trkpt>
      <trkpt lat="27.293076" lon="87.228719">
        <ele>652</ele>
        <time>2019-10-05T08:47:55.613Z</time>
      </trkpt>
      <trkpt lat="27.293074" lon="87.227996">
        <ele>649.65079552</ele>
        <time>2019-10-05T08:48:57.613Z</time>
      </trkpt>
      <trkpt lat="27.29304" lon="87.227414">
        <ele>639</ele>
        <time>2019-10-05T08:49:57.613Z</time>
      </trkpt>
      <trkpt lat="27.29338" lon="87.227209">
        <ele>637</ele>
        <time>2019-10-05T08:50:55.613Z</time>
      </trkpt>
      <trkpt lat="27.293435" lon="87.226464">
        <ele>632.65079552</ele>
        <time>2019-10-05T08:51:57.613Z</time>
      </trkpt>
      <trkpt lat="27.293774" lon="87.226118">
        <ele>628</ele>
        <time>2019-10-05T08:52:54.613Z</time>
      </trkpt>
      <trkpt lat="27.294225" lon="87.226114">
        <ele>618.43809664</ele>
        <time>2019-10-05T08:53:58.613Z</time>
      </trkpt>
      <trkpt lat="27.294399" lon="87.225918">
        <ele>610.82539776</ele>
        <time>2019-10-05T08:54:57.613Z</time>
      </trkpt>
      <trkpt lat="27.294412" lon="87.225617">
        <ele>601.225623600199</ele>
        <time>2019-10-05T08:55:55.613Z</time>
      </trkpt>
      <trkpt lat="27.294943" lon="87.22587">
        <ele>588.85079552</ele>
        <time>2019-10-05T08:56:59.613Z</time>
      </trkpt>
      <trkpt lat="27.295396" lon="87.225981">
        <ele>577.82539776</ele>
        <time>2019-10-05T08:57:57.613Z</time>
      </trkpt>
      <trkpt lat="27.295572" lon="87.226203">
        <ele>567.0634944</ele>
        <time>2019-10-05T08:58:58.613Z</time>
      </trkpt>
      <trkpt lat="27.295998" lon="87.226276">
        <ele>556.73809664</ele>
        <time>2019-10-05T08:59:57.613Z</time>
      </trkpt>
      <trkpt lat="27.29634" lon="87.226534">
        <ele>546.42739968</ele>
        <time>2019-10-05T09:00:54.613Z</time>
      </trkpt>
      <trkpt lat="27.296566" lon="87.226846">
        <ele>537.65079552</ele>
        <time>2019-10-05T09:01:57.613Z</time>
      </trkpt>
      <trkpt lat="27.296997" lon="87.227296">
        <ele>530.012711603807</ele>
        <time>2019-10-05T09:02:56.613Z</time>
      </trkpt>
      <trkpt lat="27.297343" lon="87.227333">
        <ele>522.82539776</ele>
        <time>2019-10-05T09:03:57.613Z</time>
      </trkpt>
      <trkpt lat="27.297372" lon="87.227733">
        <ele>515.225623600199</ele>
        <time>2019-10-05T09:04:55.613Z</time>
      </trkpt>
      <trkpt lat="27.297789" lon="87.227564">
        <ele>506.42539776</ele>
        <time>2019-10-05T09:05:59.613Z</time>
      </trkpt>
      <trkpt lat="27.298283" lon="87.227028">
        <ele>502.012711603807</ele>
        <time>2019-10-05T09:06:56.613Z</time>
      </trkpt>
      <trkpt lat="27.298308" lon="87.226524">
        <ele>494.025423207614</ele>
        <time>2019-10-05T09:07:56.613Z</time>
      </trkpt>
      <trkpt lat="27.298451" lon="87.225882">
        <ele>492</ele>
        <time>2019-10-05T09:08:57.613Z</time>
      </trkpt>
      <trkpt lat="27.298943" lon="87.225594">
        <ele>488</ele>
        <time>2019-10-05T09:09:59.613Z</time>
      </trkpt>
      <trkpt lat="27.298799" lon="87.224808">
        <ele>486</ele>
        <time>2019-10-05T09:10:56.613Z</time>
      </trkpt>
      <trkpt lat="27.298801" lon="87.224141">
        <ele>481.62539776</ele>
        <time>2019-10-05T09:11:58.613Z</time>
      </trkpt>
      <trkpt lat="27.299173" lon="87.223874">
        <ele>475.012711603807</ele>
        <time>2019-10-05T09:12:56.613Z</time>
      </trkpt>
      <trkpt lat="27.299477" lon="87.223222">
        <ele>465.225623600199</ele>
        <time>2019-10-05T09:13:55.613Z</time>
      </trkpt>
      <trkpt lat="27.299363" lon="87.222914">
        <ele>457</ele>
        <time>2019-10-05T09:14:58.613Z</time>
      </trkpt>
      <trkpt lat="27.29924" lon="87.22251">
        <ele>447.225623600199</ele>
        <time>2019-10-05T09:15:55.613Z</time>
      </trkpt>
      <trkpt lat="27.298772" lon="87.222097">
        <ele>436.82539776</ele>
        <time>2019-10-05T09:16:57.613Z</time>
      </trkpt>
      <trkpt lat="27.298841" lon="87.221757">
        <ele>433.225623600199</ele>
        <time>2019-10-05T09:17:55.613Z</time>
      </trkpt>
      <trkpt lat="27.298756" lon="87.221172">
        <ele>426.43809664</ele>
        <time>2019-10-05T09:18:58.613Z</time>
      </trkpt>
      <trkpt lat="27.298596" lon="87.220709">
        <ele>423</ele>
        <time>2019-10-05T09:19:56.613Z</time>
      </trkpt>
      <trkpt lat="27.298383" lon="87.220524">
        <ele>416</ele>
        <time>2019-10-05T09:20:55.613Z</time>
      </trkpt>
      <trkpt lat="27.298568" lon="87.220584">
        <ele>419</ele>
        <time>2019-10-05T09:21:57.613Z</time>
      </trkpt>
      <trkpt lat="27.298371" lon="87.220482">
        <ele>418</ele>
        <time>2019-10-05T09:22:56.613Z</time>
      </trkpt>
      <trkpt lat="27.298718" lon="87.220524">
        <ele>417.012711603807</ele>
        <time>2019-10-05T09:24:56.613Z</time>
      </trkpt>
      <trkpt lat="27.298299" lon="87.220453">
        <ele>418</ele>
        <time>2019-10-05T09:27:12.613Z</time>
      </trkpt>
      <trkpt lat="27.297927" lon="87.220206">
        <ele>420</ele>
        <time>2019-10-05T09:27:57.613Z</time>
      </trkpt>
      <trkpt lat="27.297051" lon="87.21971">
        <ele>423.97460224</ele>
        <time>2019-10-05T09:29:36.613Z</time>
      </trkpt>
      <trkpt lat="27.296473" lon="87.219524">
        <ele>427.97460224</ele>
        <time>2019-10-05T09:30:36.613Z</time>
      </trkpt>
      <trkpt lat="27.296243" lon="87.218977">
        <ele>425.01269888</ele>
        <time>2019-10-05T09:31:36.613Z</time>
      </trkpt>
      <trkpt lat="27.296199" lon="87.218377">
        <ele>420</ele>
        <time>2019-10-05T09:32:21.613Z</time>
      </trkpt>
      <trkpt lat="27.295581" lon="87.21847">
        <ele>414.01269888</ele>
        <time>2019-10-05T09:33:06.613Z</time>
      </trkpt>
      <trkpt lat="27.295035" lon="87.218327">
        <ele>407.012711603807</ele>
        <time>2019-10-05T09:33:56.613Z</time>
      </trkpt>
      <trkpt lat="27.294477" lon="87.217776">
        <ele>402.012711603807</ele>
        <time>2019-10-05T09:34:56.613Z</time>
      </trkpt>
      <trkpt lat="27.29418" lon="87.217052">
        <ele>395.012711603807</ele>
        <time>2019-10-05T09:35:56.613Z</time>
      </trkpt>
      <trkpt lat="27.294147" lon="87.216186">
        <ele>385.43809664</ele>
        <time>2019-10-05T09:36:58.613Z</time>
      </trkpt>
      <trkpt lat="27.293938" lon="87.215487">
        <ele>379</ele>
        <time>2019-10-05T09:37:54.613Z</time>
      </trkpt>
      <trkpt lat="27.293383" lon="87.215339">
        <ele>377</ele>
        <time>2019-10-05T09:38:56.613Z</time>
      </trkpt>
      <trkpt lat="27.292658" lon="87.215478">
        <ele>373.112811800099</ele>
        <time>2019-10-05T09:39:55.613Z</time>
      </trkpt>
      <trkpt lat="27.291853" lon="87.215409">
        <ele>367.22539776</ele>
        <time>2019-10-05T09:41:00.613Z</time>
      </trkpt>
      <trkpt lat="27.29126" lon="87.214936">
        <ele>365</ele>
        <time>2019-10-05T09:41:54.613Z</time>
      </trkpt>
      <trkpt lat="27.290432" lon="87.215073">
        <ele>359</ele>
        <time>2019-10-05T09:42:57.613Z</time>
      </trkpt>
      <trkpt lat="27.289958" lon="87.215374">
        <ele>354.62539776</ele>
        <time>2019-10-05T09:43:58.613Z</time>
      </trkpt>
      <trkpt lat="27.289611" lon="87.214698">
        <ele>352</ele>
        <time>2019-10-05T09:44:56.613Z</time>
      </trkpt>
      <trkpt lat="27.289087" lon="87.214252">
        <ele>349.91269888</ele>
        <time>2019-10-05T09:45:57.613Z</time>
      </trkpt>
      <trkpt lat="27.288524" lon="87.21381">
        <ele>345.012711603807</ele>
        <time>2019-10-05T09:46:56.613Z</time>
      </trkpt>
      <trkpt lat="27.287943" lon="87.213463">
        <ele>337.038134811421</ele>
        <time>2019-10-05T09:47:56.613Z</time>
      </trkpt>
      <trkpt lat="27.287466" lon="87.21275">
        <ele>334</ele>
        <time>2019-10-05T09:48:57.613Z</time>
      </trkpt>
      <trkpt lat="27.28698" lon="87.212217">
        <ele>331.81269888</ele>
        <time>2019-10-05T09:49:58.613Z</time>
      </trkpt>
      <trkpt lat="27.286998" lon="87.211984">
        <ele>330</ele>
        <time>2019-10-05T09:50:58.613Z</time>
      </trkpt>
      <trkpt lat="27.28684" lon="87.211873">
        <ele>331.987288396193</ele>
        <time>2019-10-05T09:51:56.613Z</time>
      </trkpt>
      <trkpt lat="27.286981" lon="87.211893">
        <ele>331.513212585269</ele>
        <time>2019-10-05T09:53:21.613Z</time>
      </trkpt>
      <trkpt lat="27.286992" lon="87.212011">
        <ele>331.01269888</ele>
        <time>2019-10-05T09:54:06.613Z</time>
      </trkpt>
      <trkpt lat="27.286896" lon="87.212112">
        <ele>332</ele>
        <time>2019-10-05T09:54:55.613Z</time>
      </trkpt>
      <trkpt lat="27.286938" lon="87.211907">
        <ele>332.08730112</ele>
        <time>2019-10-05T09:56:57.613Z</time>
      </trkpt>
      <trkpt lat="27.287417" lon="87.21195">
        <ele>332</ele>
        <time>2019-10-05T09:59:00.613Z</time>
      </trkpt>
      <trkpt lat="27.287665" lon="87.211857">
        <ele>332.987288396193</ele>
        <time>2019-10-05T09:59:56.613Z</time>
      </trkpt>
      <trkpt lat="27.286902" lon="87.212096">
        <ele>332</ele>
        <time>2019-10-05T10:01:33.613Z</time>
      </trkpt>
      <trkpt lat="27.286296" lon="87.212118">
        <ele>333.813513174147</ele>
        <time>2019-10-05T10:02:18.613Z</time>
      </trkpt>
      <trkpt lat="27.286763" lon="87.212036">
        <ele>332</ele>
        <time>2019-10-05T10:03:37.613Z</time>
      </trkpt>
      <trkpt lat="27.286888" lon="87.212151">
        <ele>332</ele>
        <time>2019-10-05T10:06:21.613Z</time>
      </trkpt>
      <trkpt lat="27.287937" lon="87.212027">
        <ele>332</ele>
        <time>2019-10-05T10:07:06.613Z</time>
      </trkpt>
      <trkpt lat="27.286098" lon="87.212221">
        <ele>332</ele>
        <time>2019-10-05T10:07:58.613Z</time>
      </trkpt>
      <trkpt lat="27.286864" lon="87.212153">
        <ele>332</ele>
        <time>2019-10-05T10:08:57.613Z</time>
      </trkpt>
      <trkpt lat="27.286388" lon="87.212556">
        <ele>332</ele>
        <time>2019-10-05T10:11:00.613Z</time>
      </trkpt>
      <trkpt lat="27.286988" lon="87.211975">
        <ele>332</ele>
        <time>2019-10-05T10:11:59.613Z</time>
      </trkpt>
      <trkpt lat="27.286819" lon="87.212018">
        <ele>332</ele>
        <time>2019-10-05T10:14:55.613Z</time>
      </trkpt>
      <trkpt lat="27.286705" lon="87.212017">
        <ele>332</ele>
        <time>2019-10-05T10:16:36.613Z</time>
      </trkpt>
      <trkpt lat="27.287016" lon="87.211988">
        <ele>332</ele>
        <time>2019-10-05T10:19:21.613Z</time>
      </trkpt>
      <trkpt lat="27.287788" lon="87.212055">
        <ele>332</ele>
        <time>2019-10-05T10:20:06.613Z</time>
      </trkpt>
      <trkpt lat="27.287021" lon="87.212089">
        <ele>332</ele>
        <time>2019-10-05T10:20:57.613Z</time>
      </trkpt>
      <trkpt lat="27.28703" lon="87.211964">
        <ele>332</ele>
        <time>2019-10-05T10:21:56.613Z</time>
      </trkpt>
      <trkpt lat="27.287098" lon="87.212046">
        <ele>332</ele>
        <time>2019-10-05T10:23:42.613Z</time>
      </trkpt>
      <trkpt lat="27.286991" lon="87.212075">
        <ele>332</ele>
        <time>2019-10-05T10:24:27.613Z</time>
      </trkpt>
      <trkpt lat="27.286865" lon="87.212086">
        <ele>332</ele>
        <time>2019-10-05T10:27:36.613Z</time>
      </trkpt>
      <trkpt lat="27.286909" lon="87.211984">
        <ele>332</ele>
        <time>2019-10-05T10:30:56.613Z</time>
      </trkpt>
      <trkpt lat="27.287172" lon="87.211959">
        <ele>332</ele>
        <time>2019-10-05T10:31:57.613Z</time>
      </trkpt>
      <trkpt lat="27.28695" lon="87.21192">
        <ele>332</ele>
        <time>2019-10-05T10:33:10.613Z</time>
      </trkpt>
      <trkpt lat="27.287367" lon="87.211991">
        <ele>332</ele>
        <time>2019-10-05T10:34:56.613Z</time>
      </trkpt>
      <trkpt lat="27.287253" lon="87.212036">
        <ele>332</ele>
        <time>2019-10-05T10:35:55.613Z</time>
      </trkpt>
      <trkpt lat="27.287117" lon="87.212014">
        <ele>332</ele>
        <time>2019-10-05T10:38:37.613Z</time>
      </trkpt>
      <trkpt lat="27.286896" lon="87.212202">
        <ele>332</ele>
        <time>2019-10-05T10:40:21.613Z</time>
      </trkpt>
      <trkpt lat="27.286942" lon="87.21202">
        <ele>332</ele>
        <time>2019-10-05T10:41:06.613Z</time>
      </trkpt>
      <trkpt lat="27.287384" lon="87.211812">
        <ele>332</ele>
        <time>2019-10-05T10:44:03.613Z</time>
      </trkpt>
      <trkpt lat="27.286666" lon="87.211951">
        <ele>332</ele>
        <time>2019-10-05T10:44:56.613Z</time>
      </trkpt>
      <trkpt lat="27.287192" lon="87.212142">
        <ele>332</ele>
        <time>2019-10-05T10:45:59.613Z</time>
      </trkpt>
      <trkpt lat="27.287038" lon="87.21217">
        <ele>332</ele>
        <time>2019-10-05T10:47:28.613Z</time>
      </trkpt>
      <trkpt lat="27.286739" lon="87.212037">
        <ele>332</ele>
        <time>2019-10-05T10:48:13.613Z</time>
      </trkpt>
      <trkpt lat="27.286998" lon="87.212099">
        <ele>332</ele>
        <time>2019-10-05T10:50:36.613Z</time>
      </trkpt>
      <trkpt lat="27.287133" lon="87.21155">
        <ele>332</ele>
        <time>2019-10-05T10:52:21.613Z</time>
      </trkpt>
      <trkpt lat="27.286978" lon="87.212359">
        <ele>332</ele>
        <time>2019-10-05T10:55:19.613Z</time>
      </trkpt>
      <trkpt lat="27.287041" lon="87.212031">
        <ele>332</ele>
        <time>2019-10-05T10:57:18.613Z</time>
      </trkpt>
      <trkpt lat="27.28705" lon="87.212077">
        <ele>332</ele>
        <time>2019-10-05T10:58:47.613Z</time>
      </trkpt>
      <trkpt lat="27.289609" lon="87.212455">
        <ele>325</ele>
        <time>2019-10-05T10:59:49.613Z</time>
      </trkpt>
      <trkpt lat="27.288444" lon="87.210718">
        <ele>351.093497747505</ele>
        <time>2019-10-05T11:00:50.613Z</time>
      </trkpt>
      <trkpt lat="27.289901" lon="87.21036">
        <ele>398.4315008</ele>
        <time>2019-10-05T11:02:21.613Z</time>
      </trkpt>
      <trkpt lat="27.288845" lon="87.209347">
        <ele>414</ele>
        <time>2019-10-05T11:03:06.613Z</time>
      </trkpt>
      <trkpt lat="27.292197" lon="87.207388">
        <ele>416.34920448</ele>
        <time>2019-10-05T11:03:57.613Z</time>
      </trkpt>
      <trkpt lat="27.299445" lon="87.204263">
        <ele>428.17460224</ele>
        <time>2019-10-05T11:04:57.613Z</time>
      </trkpt>
      <trkpt lat="27.308217" lon="87.201637">
        <ele>434.82539776</ele>
        <time>2019-10-05T11:05:57.613Z</time>
      </trkpt>
      <trkpt lat="27.319774" lon="87.197477">
        <ele>435.221057902718</ele>
        <time>2019-10-05T11:07:54.545Z</time>
      </trkpt>
      <trkpt lat="27.321029" lon="87.197433">
        <ele>435</ele>
        <time>2019-10-05T11:09:49.613Z</time>
      </trkpt>
      <trkpt lat="27.321153" lon="87.197165">
        <ele>436</ele>
        <time>2019-10-05T11:12:36.613Z</time>
      </trkpt>
      <trkpt lat="27.326492" lon="87.196361">
        <ele>443.96190336</ele>
        <time>2019-10-05T11:13:36.613Z</time>
      </trkpt>
      <trkpt lat="27.335951" lon="87.196862">
        <ele>482.773374436876</ele>
        <time>2019-10-05T11:15:20.613Z</time>
      </trkpt>
      <trkpt lat="27.339617" lon="87.196297">
        <ele>500.32380672</ele>
        <time>2019-10-05T11:16:05.613Z</time>
      </trkpt>
      <trkpt lat="27.342842" lon="87.195866">
        <ele>521.71110784</ele>
        <time>2019-10-05T11:17:00.613Z</time>
      </trkpt>
      <trkpt lat="27.343306" lon="87.19671">
        <ele>548.911018773351</ele>
        <time>2019-10-05T11:17:56.613Z</time>
      </trkpt>
      <trkpt lat="27.343774" lon="87.197269">
        <ele>578.38730112</ele>
        <time>2019-10-05T11:19:00.613Z</time>
      </trkpt>
      <trkpt lat="27.346848" lon="87.198668">
        <ele>596.774376399801</ele>
        <time>2019-10-05T11:19:55.613Z</time>
      </trkpt>
      <trkpt lat="27.347973" lon="87.20045">
        <ele>627.31110784</ele>
        <time>2019-10-05T11:20:58.613Z</time>
      </trkpt>
      <trkpt lat="27.349158" lon="87.202747">
        <ele>650.34920448</ele>
        <time>2019-10-05T11:21:57.613Z</time>
      </trkpt>
      <trkpt lat="27.350248" lon="87.20401">
        <ele>669.949153584772</ele>
        <time>2019-10-05T11:22:56.613Z</time>
      </trkpt>
      <trkpt lat="27.351573" lon="87.207152">
        <ele>688.987288396193</ele>
        <time>2019-10-05T11:23:56.613Z</time>
      </trkpt>
      <trkpt lat="27.353108" lon="87.209168">
        <ele>716.661564599702</ele>
        <time>2019-10-05T11:24:55.613Z</time>
      </trkpt>
      <trkpt lat="27.354309" lon="87.210698">
        <ele>740.911018773351</ele>
        <time>2019-10-05T11:25:56.613Z</time>
      </trkpt>
      <trkpt lat="27.355013" lon="87.20893">
        <ele>764.34920448</ele>
        <time>2019-10-05T11:26:57.613Z</time>
      </trkpt>
      <trkpt lat="27.356046" lon="87.20786">
        <ele>786.923730377158</ele>
        <time>2019-10-05T11:27:56.613Z</time>
      </trkpt>
      <trkpt lat="27.358377" lon="87.203065">
        <ele>848.432069275938</ele>
        <time>2019-10-05T11:30:25.613Z</time>
      </trkpt>
      <trkpt lat="27.359763" lon="87.205685">
        <ele>870.547655338912</ele>
        <time>2019-10-05T11:31:10.613Z</time>
      </trkpt>
      <trkpt lat="27.361999" lon="87.208674">
        <ele>900.96190336</ele>
        <time>2019-10-05T11:32:36.613Z</time>
      </trkpt>
      <trkpt lat="27.364939" lon="87.207998">
        <ele>926.91110784</ele>
        <time>2019-10-05T11:33:36.613Z</time>
      </trkpt>
      <trkpt lat="27.367108" lon="87.209065">
        <ele>947.94920448</ele>
        <time>2019-10-05T11:34:36.613Z</time>
      </trkpt>
      <trkpt lat="27.368313" lon="87.208599">
        <ele>968.947149658923</ele>
        <time>2019-10-05T11:35:21.613Z</time>
      </trkpt>
      <trkpt lat="27.370819" lon="87.208661">
        <ele>988.94920448</ele>
        <time>2019-10-05T11:36:06.613Z</time>
      </trkpt>
      <trkpt lat="27.37282" lon="87.209269">
        <ele>1008.5487527996</ele>
        <time>2019-10-05T11:36:55.613Z</time>
      </trkpt>
      <trkpt lat="27.375535" lon="87.20913">
        <ele>1014</ele>
        <time>2019-10-05T11:37:56.613Z</time>
      </trkpt>
      <trkpt lat="27.376312" lon="87.20919">
        <ele>1019</ele>
        <time>2019-10-05T11:38:56.613Z</time>
      </trkpt>
      <trkpt lat="27.376976" lon="87.209341">
        <ele>1023.18730112</ele>
        <time>2019-10-05T11:39:58.613Z</time>
      </trkpt>
      <trkpt lat="27.378345" lon="87.209486">
        <ele>1025.97457679239</ele>
        <time>2019-10-05T11:40:56.613Z</time>
      </trkpt>
      <trkpt lat="27.379674" lon="87.208108">
        <ele>1037.78708800361</ele>
        <time>2019-10-05T11:41:54.613Z</time>
      </trkpt>
      <trkpt lat="27.380704" lon="87.207072">
        <ele>1045</ele>
        <time>2019-10-05T11:42:57.613Z</time>
      </trkpt>
      <trkpt lat="27.380948" lon="87.206955">
        <ele>987.400024414063</ele>
        <time>2019-10-06T06:09:33.056Z</time>
      </trkpt>
      <trkpt lat="27.380816" lon="87.207082">
        <ele>1024</ele>
        <time>2019-10-06T06:10:19.056Z</time>
      </trkpt>
      <trkpt lat="27.380384" lon="87.207195">
        <ele>1020</ele>
        <time>2019-10-06T06:11:22.056Z</time>
      </trkpt>
      <trkpt lat="27.38011" lon="87.207858">
        <ele>1016.05539968</ele>
        <time>2019-10-06T06:12:22.056Z</time>
      </trkpt>
      <trkpt lat="27.379448" lon="87.207899">
        <ele>1013</ele>
        <time>2019-10-06T06:13:31.056Z</time>
      </trkpt>
      <trkpt lat="27.379146" lon="87.207808">
        <ele>1012</ele>
        <time>2019-10-06T06:14:32.056Z</time>
      </trkpt>
      <trkpt lat="27.378672" lon="87.207844">
        <ele>1012</ele>
        <time>2019-10-06T06:15:36.056Z</time>
      </trkpt>
      <trkpt lat="27.378408" lon="87.207477">
        <ele>1015</ele>
        <time>2019-10-06T06:16:36.056Z</time>
      </trkpt>
      <trkpt lat="27.377947" lon="87.207664">
        <ele>1017.84460032</ele>
        <time>2019-10-06T06:17:41.056Z</time>
      </trkpt>
      <trkpt lat="27.377596" lon="87.20828">
        <ele>1019</ele>
        <time>2019-10-06T06:18:43.056Z</time>
      </trkpt>
      <trkpt lat="27.37701" lon="87.208221">
        <ele>1023</ele>
        <time>2019-10-06T06:19:43.056Z</time>
      </trkpt>
      <trkpt lat="27.376538" lon="87.207867">
        <ele>1022</ele>
        <time>2019-10-06T06:20:49.056Z</time>
      </trkpt>
      <trkpt lat="27.376137" lon="87.207659">
        <ele>1021</ele>
        <time>2019-10-06T06:21:52.056Z</time>
      </trkpt>
      <trkpt lat="27.375818" lon="87.207544">
        <ele>1019</ele>
        <time>2019-10-06T06:23:18.056Z</time>
      </trkpt>
      <trkpt lat="27.37555" lon="87.207474">
        <ele>1018</ele>
        <time>2019-10-06T06:24:03.056Z</time>
      </trkpt>
      <trkpt lat="27.375259" lon="87.207492">
        <ele>1017.45539968</ele>
        <time>2019-10-06T06:24:48.056Z</time>
      </trkpt>
      <trkpt lat="27.374826" lon="87.207348">
        <ele>1016.25539968</ele>
        <time>2019-10-06T06:25:40.056Z</time>
      </trkpt>
      <trkpt lat="27.37451" lon="87.206664">
        <ele>1007.75529984</ele>
        <time>2019-10-06T06:26:45.056Z</time>
      </trkpt>
      <trkpt lat="27.37488" lon="87.206623">
        <ele>997.15539968</ele>
        <time>2019-10-06T06:27:41.056Z</time>
      </trkpt>
      <trkpt lat="27.375664" lon="87.206602">
        <ele>990.31079936</ele>
        <time>2019-10-06T06:28:41.056Z</time>
      </trkpt>
      <trkpt lat="27.376322" lon="87.206647">
        <ele>985</ele>
        <time>2019-10-06T06:29:40.056Z</time>
      </trkpt>
      <trkpt lat="27.376545" lon="87.206301">
        <ele>978.51079936</ele>
        <time>2019-10-06T06:30:40.056Z</time>
      </trkpt>
      <trkpt lat="27.376515" lon="87.205802">
        <ele>967.51079936</ele>
        <time>2019-10-06T06:31:40.056Z</time>
      </trkpt>
      <trkpt lat="27.376441" lon="87.20545">
        <ele>956.35539968</ele>
        <time>2019-10-06T06:32:39.056Z</time>
      </trkpt>
      <trkpt lat="27.37647" lon="87.204847">
        <ele>950.65539968</ele>
        <time>2019-10-06T06:33:36.056Z</time>
      </trkpt>
      <trkpt lat="27.376411" lon="87.204231">
        <ele>941.51079936</ele>
        <time>2019-10-06T06:34:40.056Z</time>
      </trkpt>
      <trkpt lat="27.37645" lon="87.203703">
        <ele>931.51079936</ele>
        <time>2019-10-06T06:35:40.056Z</time>
      </trkpt>
      <trkpt lat="27.376492" lon="87.203121">
        <ele>922.25539968</ele>
        <time>2019-10-06T06:36:40.056Z</time>
      </trkpt>
      <trkpt lat="27.376623" lon="87.202694">
        <ele>916.06619904</ele>
        <time>2019-10-06T06:37:39.056Z</time>
      </trkpt>
      <trkpt lat="27.376636" lon="87.202135">
        <ele>904.05539968</ele>
        <time>2019-10-06T06:38:42.056Z</time>
      </trkpt>
      <trkpt lat="27.376847" lon="87.201738">
        <ele>896.11079936</ele>
        <time>2019-10-06T06:39:42.056Z</time>
      </trkpt>
      <trkpt lat="27.376712" lon="87.201496">
        <ele>883.76619904</ele>
        <time>2019-10-06T06:40:40.056Z</time>
      </trkpt>
      <trkpt lat="27.376652" lon="87.201188">
        <ele>870.76619904</ele>
        <time>2019-10-06T06:41:40.056Z</time>
      </trkpt>
      <trkpt lat="27.376516" lon="87.20089">
        <ele>859.25539968</ele>
        <time>2019-10-06T06:42:40.056Z</time>
      </trkpt>
      <trkpt lat="27.376471" lon="87.200666">
        <ele>847.31079936</ele>
        <time>2019-10-06T06:43:41.056Z</time>
      </trkpt>
      <trkpt lat="27.376202" lon="87.200303">
        <ele>833.76619904</ele>
        <time>2019-10-06T06:44:40.056Z</time>
      </trkpt>
      <trkpt lat="27.376175" lon="87.200039">
        <ele>823.71079936</ele>
        <time>2019-10-06T06:45:39.056Z</time>
      </trkpt>
      <trkpt lat="27.376344" lon="87.199464">
        <ele>813.31079936</ele>
        <time>2019-10-06T06:46:41.056Z</time>
      </trkpt>
      <trkpt lat="27.376317" lon="87.198865">
        <ele>807.25539968</ele>
        <time>2019-10-06T06:47:40.056Z</time>
      </trkpt>
      <trkpt lat="27.376265" lon="87.198652">
        <ele>797.45539968</ele>
        <time>2019-10-06T06:48:38.056Z</time>
      </trkpt>
      <trkpt lat="27.376304" lon="87.198377">
        <ele>788.55539968</ele>
        <time>2019-10-06T06:50:37.056Z</time>
      </trkpt>
      <trkpt lat="27.37659" lon="87.197772">
        <ele>780.51079936</ele>
        <time>2019-10-06T06:51:40.056Z</time>
      </trkpt>
      <trkpt lat="27.376884" lon="87.197372">
        <ele>771.76619904</ele>
        <time>2019-10-06T06:52:40.056Z</time>
      </trkpt>
      <trkpt lat="27.377147" lon="87.197038">
        <ele>762.31079936</ele>
        <time>2019-10-06T06:53:36.056Z</time>
      </trkpt>
      <trkpt lat="27.377412" lon="87.196824">
        <ele>751.35539968</ele>
        <time>2019-10-06T06:54:39.056Z</time>
      </trkpt>
      <trkpt lat="27.377692" lon="87.196976">
        <ele>739.51079936</ele>
        <time>2019-10-06T06:55:40.056Z</time>
      </trkpt>
      <trkpt lat="27.377993" lon="87.19676">
        <ele>729.91079936</ele>
        <time>2019-10-06T06:56:38.056Z</time>
      </trkpt>
      <trkpt lat="27.377618" lon="87.196461">
        <ele>724.74460032</ele>
        <time>2019-10-06T06:58:40.056Z</time>
      </trkpt>
      <trkpt lat="27.377353" lon="87.196002">
        <ele>727.31079936</ele>
        <time>2019-10-06T06:59:41.056Z</time>
      </trkpt>
      <trkpt lat="27.3774" lon="87.195683">
        <ele>716.35539968</ele>
        <time>2019-10-06T07:00:39.056Z</time>
      </trkpt>
      <trkpt lat="27.37781" lon="87.195446">
        <ele>705.35539968</ele>
        <time>2019-10-06T07:01:39.056Z</time>
      </trkpt>
      <trkpt lat="27.378303" lon="87.194992">
        <ele>697</ele>
        <time>2019-10-06T07:02:39.056Z</time>
      </trkpt>
      <trkpt lat="27.378694" lon="87.194854">
        <ele>687.35539968</ele>
        <time>2019-10-06T07:03:39.056Z</time>
      </trkpt>
      <trkpt lat="27.378939" lon="87.194401">
        <ele>675.91079936</ele>
        <time>2019-10-06T07:04:38.056Z</time>
      </trkpt>
      <trkpt lat="27.378582" lon="87.194012">
        <ele>664.91079936</ele>
        <time>2019-10-06T07:05:38.056Z</time>
      </trkpt>
      <trkpt lat="27.378264" lon="87.193425">
        <ele>653.11079936</ele>
        <time>2019-10-06T07:06:37.056Z</time>
      </trkpt>
      <trkpt lat="27.378218" lon="87.193201">
        <ele>642.45539968</ele>
        <time>2019-10-06T07:07:38.056Z</time>
      </trkpt>
      <trkpt lat="27.378351" lon="87.192859">
        <ele>627.76619904</ele>
        <time>2019-10-06T07:08:40.056Z</time>
      </trkpt>
      <trkpt lat="27.378248" lon="87.192555">
        <ele>616.55539968</ele>
        <time>2019-10-06T07:09:47.056Z</time>
      </trkpt>
      <trkpt lat="27.377764" lon="87.192692">
        <ele>606.15539968</ele>
        <time>2019-10-06T07:10:41.056Z</time>
      </trkpt>
      <trkpt lat="27.377987" lon="87.192374">
        <ele>598.91079936</ele>
        <time>2019-10-06T07:11:58.056Z</time>
      </trkpt>
      <trkpt lat="27.378198" lon="87.192304">
        <ele>597.95539968</ele>
        <time>2019-10-06T07:12:43.056Z</time>
      </trkpt>
      <trkpt lat="27.378162" lon="87.191544">
        <ele>592.35539968</ele>
        <time>2019-10-06T07:13:39.056Z</time>
      </trkpt>
      <trkpt lat="27.377683" lon="87.1909">
        <ele>587</ele>
        <time>2019-10-06T07:14:39.056Z</time>
      </trkpt>
      <trkpt lat="27.37806" lon="87.190203">
        <ele>580.76619904</ele>
        <time>2019-10-06T07:15:40.056Z</time>
      </trkpt>
      <trkpt lat="27.378235" lon="87.190002">
        <ele>576</ele>
        <time>2019-10-06T07:16:50.056Z</time>
      </trkpt>
      <trkpt lat="27.37835" lon="87.190513">
        <ele>565.91059968</ele>
        <time>2019-10-06T07:18:38.056Z</time>
      </trkpt>
      <trkpt lat="27.378392" lon="87.190058">
        <ele>571.46619904</ele>
        <time>2019-10-06T07:19:41.056Z</time>
      </trkpt>
      <trkpt lat="27.378574" lon="87.189797">
        <ele>558.51079936</ele>
        <time>2019-10-06T07:20:40.056Z</time>
      </trkpt>
      <trkpt lat="27.378754" lon="87.189604">
        <ele>546.31079936</ele>
        <time>2019-10-06T07:21:41.056Z</time>
      </trkpt>
      <trkpt lat="27.379132" lon="87.189175">
        <ele>535.91079936</ele>
        <time>2019-10-06T07:22:38.056Z</time>
      </trkpt>
      <trkpt lat="27.379213" lon="87.188903">
        <ele>522.51079936</ele>
        <time>2019-10-06T07:23:40.056Z</time>
      </trkpt>
      <trkpt lat="27.379218" lon="87.188779">
        <ele>519</ele>
        <time>2019-10-06T07:24:40.056Z</time>
      </trkpt>
      <trkpt lat="27.37923" lon="87.188659">
        <ele>512.76619904</ele>
        <time>2019-10-06T07:26:40.056Z</time>
      </trkpt>
      <trkpt lat="27.379245" lon="87.188425">
        <ele>507</ele>
        <time>2019-10-06T07:27:39.056Z</time>
      </trkpt>
      <trkpt lat="27.379258" lon="87.188116">
        <ele>514</ele>
        <time>2019-10-06T07:28:41.056Z</time>
      </trkpt>
      <trkpt lat="27.377546" lon="87.187244">
        <ele>483.118326055777</ele>
        <time>2019-10-06T07:36:52.056Z</time>
      </trkpt>
      <trkpt lat="27.37711" lon="87.186618">
        <ele>475</ele>
        <time>2019-10-06T07:38:09.056Z</time>
      </trkpt>
      <trkpt lat="27.376855" lon="87.186328">
        <ele>469</ele>
        <time>2019-10-06T07:39:18.056Z</time>
      </trkpt>
      <trkpt lat="27.376743" lon="87.185947">
        <ele>463.91079936</ele>
        <time>2019-10-06T07:40:18.056Z</time>
      </trkpt>
      <trkpt lat="27.37641" lon="87.18571">
        <ele>451.91079936</ele>
        <time>2019-10-06T07:41:18.056Z</time>
      </trkpt>
      <trkpt lat="27.376068" lon="87.185368">
        <ele>447.91079936</ele>
        <time>2019-10-06T07:42:18.056Z</time>
      </trkpt>
      <trkpt lat="27.375809" lon="87.185099">
        <ele>445.04460032</ele>
        <time>2019-10-06T07:43:03.056Z</time>
      </trkpt>
      <trkpt lat="27.37562" lon="87.184801">
        <ele>445</ele>
        <time>2019-10-06T07:43:48.056Z</time>
      </trkpt>
      <trkpt lat="27.37537" lon="87.184725">
        <ele>449</ele>
        <time>2019-10-06T07:44:41.056Z</time>
      </trkpt>
      <trkpt lat="27.374968" lon="87.184604">
        <ele>447.575822984226</ele>
        <time>2019-10-06T07:45:39.056Z</time>
      </trkpt>
      <trkpt lat="27.374484" lon="87.184304">
        <ele>450.64460032</ele>
        <time>2019-10-06T07:46:39.056Z</time>
      </trkpt>
      <trkpt lat="27.374095" lon="87.18427">
        <ele>449.55539968</ele>
        <time>2019-10-06T07:47:37.056Z</time>
      </trkpt>
      <trkpt lat="27.373621" lon="87.184014">
        <ele>441.64460032</ele>
        <time>2019-10-06T07:48:39.056Z</time>
      </trkpt>
      <trkpt lat="27.37314" lon="87.183585">
        <ele>445</ele>
        <time>2019-10-06T07:49:42.056Z</time>
      </trkpt>
      <trkpt lat="27.372722" lon="87.183255">
        <ele>444</ele>
        <time>2019-10-06T07:50:37.056Z</time>
      </trkpt>
      <trkpt lat="27.3722" lon="87.183308">
        <ele>443.08920064</ele>
        <time>2019-10-06T07:51:38.056Z</time>
      </trkpt>
      <trkpt lat="27.371858" lon="87.182803">
        <ele>446</ele>
        <time>2019-10-06T07:52:37.056Z</time>
      </trkpt>
      <trkpt lat="27.371939" lon="87.182461">
        <ele>447.17840128</ele>
        <time>2019-10-06T07:53:38.056Z</time>
      </trkpt>
      <trkpt lat="27.372212" lon="87.181666">
        <ele>455.35539968</ele>
        <time>2019-10-06T07:54:39.056Z</time>
      </trkpt>
      <trkpt lat="27.37186" lon="87.181464">
        <ele>457.35539968</ele>
        <time>2019-10-06T07:55:39.056Z</time>
      </trkpt>
      <trkpt lat="27.371493" lon="87.181258">
        <ele>448.71079936</ele>
        <time>2019-10-06T07:56:39.056Z</time>
      </trkpt>
      <trkpt lat="27.371206" lon="87.180987">
        <ele>438.25539968</ele>
        <time>2019-10-06T07:57:40.056Z</time>
      </trkpt>
      <trkpt lat="27.371026" lon="87.180432">
        <ele>435</ele>
        <time>2019-10-06T07:58:37.056Z</time>
      </trkpt>
      <trkpt lat="27.370829" lon="87.179894">
        <ele>431.55539968</ele>
        <time>2019-10-06T07:59:37.056Z</time>
      </trkpt>
      <trkpt lat="27.370769" lon="87.179405">
        <ele>426.75539968</ele>
        <time>2019-10-06T08:00:45.056Z</time>
      </trkpt>
      <trkpt lat="27.370387" lon="87.17915">
        <ele>422</ele>
        <time>2019-10-06T08:01:39.056Z</time>
      </trkpt>
      <trkpt lat="27.370538" lon="87.178599">
        <ele>424.64460032</ele>
        <time>2019-10-06T08:02:39.056Z</time>
      </trkpt>
      <trkpt lat="27.370792" lon="87.178028">
        <ele>424</ele>
        <time>2019-10-06T08:03:39.056Z</time>
      </trkpt>
      <trkpt lat="27.371109" lon="87.177536">
        <ele>417.367832774106</ele>
        <time>2019-10-06T08:04:38.056Z</time>
      </trkpt>
      <trkpt lat="27.371452" lon="87.177097">
        <ele>410.45539968</ele>
        <time>2019-10-06T08:05:38.056Z</time>
      </trkpt>
      <trkpt lat="27.37199" lon="87.176809">
        <ele>409.45539968</ele>
        <time>2019-10-06T08:06:38.056Z</time>
      </trkpt>
      <trkpt lat="27.372644" lon="87.176558">
        <ele>408.91079936</ele>
        <time>2019-10-06T08:07:38.056Z</time>
      </trkpt>
      <trkpt lat="27.372588" lon="87.176142">
        <ele>407.64460032</ele>
        <time>2019-10-06T08:08:39.056Z</time>
      </trkpt>
      <trkpt lat="27.372688" lon="87.175798">
        <ele>405.06619904</ele>
        <time>2019-10-06T08:09:39.056Z</time>
      </trkpt>
      <trkpt lat="27.3728" lon="87.17569">
        <ele>401.544055741965</ele>
        <time>2019-10-06T08:10:38.056Z</time>
      </trkpt>
      <trkpt lat="27.372732" lon="87.175405">
        <ele>398.11079936</ele>
        <time>2019-10-06T08:11:37.056Z</time>
      </trkpt>
      <trkpt lat="27.372572" lon="87.175658">
        <ele>393.25539968</ele>
        <time>2019-10-06T08:12:40.056Z</time>
      </trkpt>
      <trkpt lat="27.37225" lon="87.175872">
        <ele>386</ele>
        <time>2019-10-06T08:13:40.056Z</time>
      </trkpt>
      <trkpt lat="27.371843" lon="87.176141">
        <ele>388.54460032</ele>
        <time>2019-10-06T08:14:38.056Z</time>
      </trkpt>
      <trkpt lat="27.371554" lon="87.175992">
        <ele>381.71079936</ele>
        <time>2019-10-06T08:15:39.056Z</time>
      </trkpt>
      <trkpt lat="27.371383" lon="87.175935">
        <ele>366.36619904</ele>
        <time>2019-10-06T08:16:38.056Z</time>
      </trkpt>
      <trkpt lat="27.3712" lon="87.175675">
        <ele>357.31079936</ele>
        <time>2019-10-06T08:17:36.056Z</time>
      </trkpt>
      <trkpt lat="27.37101" lon="87.175559">
        <ele>339</ele>
        <time>2019-10-06T08:18:38.056Z</time>
      </trkpt>
      <trkpt lat="27.371051" lon="87.175351">
        <ele>335</ele>
        <time>2019-10-06T08:19:38.056Z</time>
      </trkpt>
      <trkpt lat="27.371157" lon="87.174727">
        <ele>340</ele>
        <time>2019-10-06T08:20:39.056Z</time>
      </trkpt>
      <trkpt lat="27.371041" lon="87.174598">
        <ele>349.721278668904</ele>
        <time>2019-10-06T08:21:36.056Z</time>
      </trkpt>
      <trkpt lat="27.370943" lon="87.174229">
        <ele>353.64460032</ele>
        <time>2019-10-06T08:22:39.056Z</time>
      </trkpt>
      <trkpt lat="27.371311" lon="87.174053">
        <ele>344.25539968</ele>
        <time>2019-10-06T08:23:40.056Z</time>
      </trkpt>
      <trkpt lat="27.372032" lon="87.17388">
        <ele>333.56619904</ele>
        <time>2019-10-06T08:24:54.056Z</time>
      </trkpt>
      <trkpt lat="27.372272" lon="87.173874">
        <ele>318.62159872</ele>
        <time>2019-10-06T08:26:06.056Z</time>
      </trkpt>
      <trkpt lat="27.372267" lon="87.173749">
        <ele>313.95539968</ele>
        <time>2019-10-06T08:27:13.056Z</time>
      </trkpt>
      <trkpt lat="27.372205" lon="87.173804">
        <ele>282.02159872</ele>
        <time>2019-10-06T08:28:20.056Z</time>
      </trkpt>
      <trkpt lat="27.371982" lon="87.173636">
        <ele>273.45539968</ele>
        <time>2019-10-06T08:31:38.056Z</time>
      </trkpt>
      <trkpt lat="27.371876" lon="87.173803">
        <ele>284.44460032</ele>
        <time>2019-10-06T08:32:47.056Z</time>
      </trkpt>
      <trkpt lat="27.37207" lon="87.173731">
        <ele>321</ele>
        <time>2019-10-06T08:35:18.056Z</time>
      </trkpt>
      <trkpt lat="27.372577" lon="87.173398">
        <ele>359.24460032</ele>
        <time>2019-10-06T08:38:15.056Z</time>
      </trkpt>
      <trkpt lat="27.372952" lon="87.17273">
        <ele>369.08920064</ele>
        <time>2019-10-06T08:39:18.056Z</time>
      </trkpt>
      <trkpt lat="27.373528" lon="87.172202">
        <ele>382.08920064</ele>
        <time>2019-10-06T08:40:18.056Z</time>
      </trkpt>
      <trkpt lat="27.374108" lon="87.17171">
        <ele>387.54460032</ele>
        <time>2019-10-06T08:41:18.056Z</time>
      </trkpt>
      <trkpt lat="27.374699" lon="87.171382">
        <ele>385.45539968</ele>
        <time>2019-10-06T08:42:18.056Z</time>
      </trkpt>
      <trkpt lat="27.375022" lon="87.171033">
        <ele>383</ele>
        <time>2019-10-06T08:43:03.056Z</time>
      </trkpt>
      <trkpt lat="27.375393" lon="87.170594">
        <ele>380.33239808</ele>
        <time>2019-10-06T08:43:57.056Z</time>
      </trkpt>
      <trkpt lat="27.375816" lon="87.170314">
        <ele>366</ele>
        <time>2019-10-06T08:44:43.056Z</time>
      </trkpt>
      <trkpt lat="27.376288" lon="87.169624">
        <ele>363</ele>
        <time>2019-10-06T08:45:43.056Z</time>
      </trkpt>
      <trkpt lat="27.376532" lon="87.168944">
        <ele>367</ele>
        <time>2019-10-06T08:46:41.056Z</time>
      </trkpt>
      <trkpt lat="27.377019" lon="87.168498">
        <ele>367.45539968</ele>
        <time>2019-10-06T08:47:38.056Z</time>
      </trkpt>
      <trkpt lat="27.377577" lon="87.167866">
        <ele>360.76619904</ele>
        <time>2019-10-06T08:48:40.056Z</time>
      </trkpt>
      <trkpt lat="27.377952" lon="87.167278">
        <ele>358.25539968</ele>
        <time>2019-10-06T08:49:40.056Z</time>
      </trkpt>
      <trkpt lat="27.378168" lon="87.166541">
        <ele>353.25539968</ele>
        <time>2019-10-06T08:50:40.056Z</time>
      </trkpt>
      <trkpt lat="27.378582" lon="87.166048">
        <ele>349.71079936</ele>
        <time>2019-10-06T08:51:39.056Z</time>
      </trkpt>
      <trkpt lat="27.379042" lon="87.165502">
        <ele>339.91079936</ele>
        <time>2019-10-06T08:52:38.056Z</time>
      </trkpt>
      <trkpt lat="27.379492" lon="87.164835">
        <ele>329.51079936</ele>
        <time>2019-10-06T08:53:40.056Z</time>
      </trkpt>
      <trkpt lat="27.379705" lon="87.164134">
        <ele>320</ele>
        <time>2019-10-06T08:54:39.056Z</time>
      </trkpt>
      <trkpt lat="27.379964" lon="87.163414">
        <ele>311.45539968</ele>
        <time>2019-10-06T08:55:38.056Z</time>
      </trkpt>
      <trkpt lat="27.380253" lon="87.162657">
        <ele>310</ele>
        <time>2019-10-06T08:56:40.056Z</time>
      </trkpt>
      <trkpt lat="27.380435" lon="87.162533">
        <ele>305.76619904</ele>
        <time>2019-10-06T08:57:40.056Z</time>
      </trkpt>
      <trkpt lat="27.380536" lon="87.161837">
        <ele>301</ele>
        <time>2019-10-06T08:58:40.056Z</time>
      </trkpt>
      <trkpt lat="27.380673" lon="87.161222">
        <ele>299</ele>
        <time>2019-10-06T08:59:39.056Z</time>
      </trkpt>
      <trkpt lat="27.380882" lon="87.160541">
        <ele>297</ele>
        <time>2019-10-06T09:00:39.056Z</time>
      </trkpt>
      <trkpt lat="27.380964" lon="87.159716">
        <ele>290.45539968</ele>
        <time>2019-10-06T09:01:38.056Z</time>
      </trkpt>
      <trkpt lat="27.381188" lon="87.158994">
        <ele>287</ele>
        <time>2019-10-06T09:02:40.056Z</time>
      </trkpt>
      <trkpt lat="27.38131" lon="87.158321">
        <ele>285</ele>
        <time>2019-10-06T09:03:38.056Z</time>
      </trkpt>
      <trkpt lat="27.381622" lon="87.157552">
        <ele>283.64460032</ele>
        <time>2019-10-06T09:04:39.056Z</time>
      </trkpt>
      <trkpt lat="27.381872" lon="87.156918">
        <ele>283.54460032</ele>
        <time>2019-10-06T09:05:38.056Z</time>
      </trkpt>
      <trkpt lat="27.382351" lon="87.156273">
        <ele>286.54460032</ele>
        <time>2019-10-06T09:06:38.056Z</time>
      </trkpt>
      <trkpt lat="27.382777" lon="87.155744">
        <ele>291.54460032</ele>
        <time>2019-10-06T09:07:38.056Z</time>
      </trkpt>
      <trkpt lat="27.383426" lon="87.155388">
        <ele>295.44460032</ele>
        <time>2019-10-06T09:08:37.056Z</time>
      </trkpt>
      <trkpt lat="27.383394" lon="87.155119">
        <ele>285.51079936</ele>
        <time>2019-10-06T09:09:40.056Z</time>
      </trkpt>
      <trkpt lat="27.38395" lon="87.154906">
        <ele>287</ele>
        <time>2019-10-06T09:10:40.056Z</time>
      </trkpt>
      <trkpt lat="27.384488" lon="87.154567">
        <ele>283.91079936</ele>
        <time>2019-10-06T09:11:38.056Z</time>
      </trkpt>
      <trkpt lat="27.38499" lon="87.15409">
        <ele>276.25539968</ele>
        <time>2019-10-06T09:12:40.056Z</time>
      </trkpt>
      <trkpt lat="27.385547" lon="87.153716">
        <ele>274.54460032</ele>
        <time>2019-10-06T09:13:38.056Z</time>
      </trkpt>
      <trkpt lat="27.386027" lon="87.153314">
        <ele>276.31079936</ele>
        <time>2019-10-06T09:14:36.056Z</time>
      </trkpt>
      <trkpt lat="27.386402" lon="87.153456">
        <ele>265.71079936</ele>
        <time>2019-10-06T09:15:39.056Z</time>
      </trkpt>
      <trkpt lat="27.386608" lon="87.153604">
        <ele>261</ele>
        <time>2019-10-06T09:16:38.056Z</time>
      </trkpt>
      <trkpt lat="27.386813" lon="87.153172">
        <ele>248</ele>
        <time>2019-10-06T09:18:37.056Z</time>
      </trkpt>
      <trkpt lat="27.386867" lon="87.152821">
        <ele>250.84460032</ele>
        <time>2019-10-06T09:19:41.056Z</time>
      </trkpt>
      <trkpt lat="27.387166" lon="87.152359">
        <ele>248</ele>
        <time>2019-10-06T09:20:38.056Z</time>
      </trkpt>
      <trkpt lat="27.387651" lon="87.151921">
        <ele>242.74460032</ele>
        <time>2019-10-06T09:21:40.056Z</time>
      </trkpt>
      <trkpt lat="27.388026" lon="87.151691">
        <ele>243</ele>
        <time>2019-10-06T09:22:38.056Z</time>
      </trkpt>
      <trkpt lat="27.388498" lon="87.151184">
        <ele>240</ele>
        <time>2019-10-06T09:23:39.056Z</time>
      </trkpt>
      <trkpt lat="27.388916" lon="87.150711">
        <ele>235</ele>
        <time>2019-10-06T09:24:38.056Z</time>
      </trkpt>
      <trkpt lat="27.389124" lon="87.150305">
        <ele>230</ele>
        <time>2019-10-06T09:25:37.056Z</time>
      </trkpt>
      <trkpt lat="27.389517" lon="87.150016">
        <ele>226.64460032</ele>
        <time>2019-10-06T09:26:39.056Z</time>
      </trkpt>
      <trkpt lat="27.38977" lon="87.149413">
        <ele>230.44460032</ele>
        <time>2019-10-06T09:27:37.056Z</time>
      </trkpt>
      <trkpt lat="27.391065" lon="87.147598">
        <ele>260.038832701059</ele>
        <time>2019-10-06T09:32:13.056Z</time>
      </trkpt>
      <trkpt lat="27.391216" lon="87.147034">
        <ele>265.54460032</ele>
        <time>2019-10-06T09:32:58.056Z</time>
      </trkpt>
      <trkpt lat="27.391459" lon="87.146834">
        <ele>264</ele>
        <time>2019-10-06T09:34:20.056Z</time>
      </trkpt>
      <trkpt lat="27.391885" lon="87.146331">
        <ele>267</ele>
        <time>2019-10-06T09:35:29.056Z</time>
      </trkpt>
      <trkpt lat="27.392203" lon="87.145896">
        <ele>264</ele>
        <time>2019-10-06T09:37:03.056Z</time>
      </trkpt>
      <trkpt lat="27.392443" lon="87.145653">
        <ele>265.54460032</ele>
        <time>2019-10-06T09:37:48.056Z</time>
      </trkpt>
      <trkpt lat="27.392724" lon="87.14525">
        <ele>266</ele>
        <time>2019-10-06T09:38:42.056Z</time>
      </trkpt>
      <trkpt lat="27.393049" lon="87.144721">
        <ele>266</ele>
        <time>2019-10-06T09:39:42.056Z</time>
      </trkpt>
      <trkpt lat="27.39318" lon="87.144178">
        <ele>261.05539968</ele>
        <time>2019-10-06T09:40:42.056Z</time>
      </trkpt>
      <trkpt lat="27.393399" lon="87.143912">
        <ele>262.04460032</ele>
        <time>2019-10-06T09:41:43.056Z</time>
      </trkpt>
      <trkpt lat="27.393372" lon="87.143456">
        <ele>258</ele>
        <time>2019-10-06T09:42:44.056Z</time>
      </trkpt>
      <trkpt lat="27.393802" lon="87.143294">
        <ele>261</ele>
        <time>2019-10-06T09:43:41.056Z</time>
      </trkpt>
      <trkpt lat="27.394049" lon="87.142674">
        <ele>249.442714926809</ele>
        <time>2019-10-06T09:45:29.056Z</time>
      </trkpt>
      <trkpt lat="27.393504" lon="87.142405">
        <ele>236</ele>
        <time>2019-10-06T09:47:28.056Z</time>
      </trkpt>
      <trkpt lat="27.392916" lon="87.142301">
        <ele>239.06619904</ele>
        <time>2019-10-06T09:48:29.056Z</time>
      </trkpt>
      <trkpt lat="27.392695" lon="87.142302">
        <ele>232.45539968</ele>
        <time>2019-10-06T09:50:18.056Z</time>
      </trkpt>
      <trkpt lat="27.392526" lon="87.142328">
        <ele>207.7769984</ele>
        <time>2019-10-06T09:52:59.056Z</time>
      </trkpt>
      <trkpt lat="27.392643" lon="87.142321">
        <ele>194.71079936</ele>
        <time>2019-10-06T09:53:44.056Z</time>
      </trkpt>
      <trkpt lat="27.392516" lon="87.14238">
        <ele>187.45539968</ele>
        <time>2019-10-06T09:54:38.056Z</time>
      </trkpt>
      <trkpt lat="27.392727" lon="87.14234">
        <ele>183.74460032</ele>
        <time>2019-10-06T09:55:40.056Z</time>
      </trkpt>
      <trkpt lat="27.392564" lon="87.142267">
        <ele>181.64460032</ele>
        <time>2019-10-06T09:56:39.056Z</time>
      </trkpt>
      <trkpt lat="27.392684" lon="87.142288">
        <ele>187</ele>
        <time>2019-10-06T09:57:40.056Z</time>
      </trkpt>
      <trkpt lat="27.392518" lon="87.142327">
        <ele>192</ele>
        <time>2019-10-06T10:02:39.056Z</time>
      </trkpt>
      <trkpt lat="27.39261" lon="87.14228">
        <ele>192.45539968</ele>
        <time>2019-10-06T10:03:38.056Z</time>
      </trkpt>
      <trkpt lat="27.392774" lon="87.142368">
        <ele>183</ele>
        <time>2019-10-06T10:04:37.056Z</time>
      </trkpt>
      <trkpt lat="27.39298" lon="87.142566">
        <ele>179</ele>
        <time>2019-10-06T10:05:37.056Z</time>
      </trkpt>
      <trkpt lat="27.392725" lon="87.142305">
        <ele>182</ele>
        <time>2019-10-06T10:06:42.056Z</time>
      </trkpt>
      <trkpt lat="27.392585" lon="87.142229">
        <ele>187.64460032</ele>
        <time>2019-10-06T10:08:39.056Z</time>
      </trkpt>
      <trkpt lat="27.392738" lon="87.141565">
        <ele>190.66120064</ele>
        <time>2019-10-06T10:09:49.222Z</time>
      </trkpt>
      <trkpt lat="27.393024" lon="87.141164">
        <ele>197.23380096</ele>
        <time>2019-10-06T10:10:40.056Z</time>
      </trkpt>
      <trkpt lat="27.392985" lon="87.140413">
        <ele>207.44460032</ele>
        <time>2019-10-06T10:11:37.056Z</time>
      </trkpt>
      <trkpt lat="27.392683" lon="87.13989">
        <ele>211</ele>
        <time>2019-10-06T10:12:39.056Z</time>
      </trkpt>
      <trkpt lat="27.392701" lon="87.139198">
        <ele>213.34460032</ele>
        <time>2019-10-06T10:13:36.056Z</time>
      </trkpt>
      <trkpt lat="27.392743" lon="87.13852">
        <ele>220.88920064</ele>
        <time>2019-10-06T10:14:37.056Z</time>
      </trkpt>
      <trkpt lat="27.392862" lon="87.137724">
        <ele>224.64460032</ele>
        <time>2019-10-06T10:15:39.056Z</time>
      </trkpt>
      <trkpt lat="27.392971" lon="87.136947">
        <ele>230</ele>
        <time>2019-10-06T10:16:39.056Z</time>
      </trkpt>
      <trkpt lat="27.392802" lon="87.136269">
        <ele>230.34460032</ele>
        <time>2019-10-06T10:17:36.056Z</time>
      </trkpt>
      <trkpt lat="27.392612" lon="87.1355">
        <ele>231.54460032</ele>
        <time>2019-10-06T10:18:38.056Z</time>
      </trkpt>
      <trkpt lat="27.392188" lon="87.134957">
        <ele>230</ele>
        <time>2019-10-06T10:19:39.056Z</time>
      </trkpt>
      <trkpt lat="27.391858" lon="87.13452">
        <ele>222.71079936</ele>
        <time>2019-10-06T10:20:39.056Z</time>
      </trkpt>
      <trkpt lat="27.391953" lon="87.134293">
        <ele>221</ele>
        <time>2019-10-06T10:21:39.056Z</time>
      </trkpt>
      <trkpt lat="27.391777" lon="87.134114">
        <ele>203.42159872</ele>
        <time>2019-10-06T10:22:39.056Z</time>
      </trkpt>
      <trkpt lat="27.391937" lon="87.134099">
        <ele>188.31079936</ele>
        <time>2019-10-06T10:23:36.056Z</time>
      </trkpt>
      <trkpt lat="27.392026" lon="87.133861">
        <ele>185.68920064</ele>
        <time>2019-10-06T10:24:36.056Z</time>
      </trkpt>
      <trkpt lat="27.392958" lon="87.133982">
        <ele>189.65539968</ele>
        <time>2019-10-06T10:25:36.056Z</time>
      </trkpt>
      <trkpt lat="27.393123" lon="87.133774">
        <ele>195.28920064</ele>
        <time>2019-10-06T10:26:39.056Z</time>
      </trkpt>
      <trkpt lat="27.392915" lon="87.133406">
        <ele>197.14460032</ele>
        <time>2019-10-06T10:27:44.056Z</time>
      </trkpt>
      <trkpt lat="27.392606" lon="87.133226">
        <ele>197.44460032</ele>
        <time>2019-10-06T10:28:37.056Z</time>
      </trkpt>
      <trkpt lat="27.392531" lon="87.132964">
        <ele>200.74460032</ele>
        <time>2019-10-06T10:29:40.056Z</time>
      </trkpt>
      <trkpt lat="27.392836" lon="87.13292">
        <ele>198.45539968</ele>
        <time>2019-10-06T10:30:38.056Z</time>
      </trkpt>
      <trkpt lat="27.393143" lon="87.132593">
        <ele>199</ele>
        <time>2019-10-06T10:31:41.056Z</time>
      </trkpt>
      <trkpt lat="27.393164" lon="87.132254">
        <ele>202.74460032</ele>
        <time>2019-10-06T10:32:40.056Z</time>
      </trkpt>
      <trkpt lat="27.392878" lon="87.132298">
        <ele>201.08920064</ele>
        <time>2019-10-06T10:33:38.056Z</time>
      </trkpt>
      <trkpt lat="27.392544" lon="87.132577">
        <ele>198.55539968</ele>
        <time>2019-10-06T10:34:37.056Z</time>
      </trkpt>
      <trkpt lat="27.392069" lon="87.13242">
        <ele>196.71079936</ele>
        <time>2019-10-06T10:35:39.056Z</time>
      </trkpt>
      <trkpt lat="27.391768" lon="87.132661">
        <ele>193</ele>
        <time>2019-10-06T10:36:40.056Z</time>
      </trkpt>
      <trkpt lat="27.391614" lon="87.132405">
        <ele>185.11079936</ele>
        <time>2019-10-06T10:37:37.056Z</time>
      </trkpt>
      <trkpt lat="27.391682" lon="87.132659">
        <ele>184.35539968</ele>
        <time>2019-10-06T10:38:39.056Z</time>
      </trkpt>
      <trkpt lat="27.391608" lon="87.132335">
        <ele>177.02159872</ele>
        <time>2019-10-06T10:39:40.056Z</time>
      </trkpt>
      <trkpt lat="27.39123" lon="87.132404">
        <ele>168.44460032</ele>
        <time>2019-10-06T10:40:37.056Z</time>
      </trkpt>
      <trkpt lat="27.391898" lon="87.132582">
        <ele>166</ele>
        <time>2019-10-06T10:41:37.056Z</time>
      </trkpt>
      <trkpt lat="27.392474" lon="87.132381">
        <ele>181.93380096</ele>
        <time>2019-10-06T10:42:39.056Z</time>
      </trkpt>
      <trkpt lat="27.393053" lon="87.132364">
        <ele>201.33380096</ele>
        <time>2019-10-06T10:43:37.056Z</time>
      </trkpt>
      <trkpt lat="27.393005" lon="87.132113">
        <ele>208.34460032</ele>
        <time>2019-10-06T10:44:36.056Z</time>
      </trkpt>
      <trkpt lat="27.39282" lon="87.132178">
        <ele>212</ele>
        <time>2019-10-06T10:45:40.056Z</time>
      </trkpt>
      <trkpt lat="27.392868" lon="87.131908">
        <ele>214.14460032</ele>
        <time>2019-10-06T10:47:44.056Z</time>
      </trkpt>
      <trkpt lat="27.392832" lon="87.131695">
        <ele>212.44460032</ele>
        <time>2019-10-06T10:48:37.056Z</time>
      </trkpt>
      <trkpt lat="27.392941" lon="87.131359">
        <ele>206.12669952</ele>
        <time>2019-10-06T10:49:51.343Z</time>
      </trkpt>
      <trkpt lat="27.392952" lon="87.13123">
        <ele>200.64460032</ele>
        <time>2019-10-06T10:50:39.056Z</time>
      </trkpt>
      <trkpt lat="27.392832" lon="87.130974">
        <ele>193.71079936</ele>
        <time>2019-10-06T10:51:39.056Z</time>
      </trkpt>
      <trkpt lat="27.392981" lon="87.130643">
        <ele>187</ele>
        <time>2019-10-06T10:52:36.056Z</time>
      </trkpt>
      <trkpt lat="27.393038" lon="87.130504">
        <ele>187</ele>
        <time>2019-10-06T10:53:40.056Z</time>
      </trkpt>
      <trkpt lat="27.393225" lon="87.13024">
        <ele>187.45539968</ele>
        <time>2019-10-06T10:54:38.056Z</time>
      </trkpt>
      <trkpt lat="27.39317" lon="87.129981">
        <ele>184</ele>
        <time>2019-10-06T10:55:39.056Z</time>
      </trkpt>
      <trkpt lat="27.39317" lon="87.129844">
        <ele>181.51079936</ele>
        <time>2019-10-06T10:56:40.056Z</time>
      </trkpt>
      <trkpt lat="27.393235" lon="87.129709">
        <ele>182.55539968</ele>
        <time>2019-10-06T10:58:37.056Z</time>
      </trkpt>
      <trkpt lat="27.393117" lon="87.129545">
        <ele>190.77840128</ele>
        <time>2019-10-06T10:59:37.056Z</time>
      </trkpt>
      <trkpt lat="27.393242" lon="87.129529">
        <ele>206.35539968</ele>
        <time>2019-10-06T11:00:39.056Z</time>
      </trkpt>
      <trkpt lat="27.393171" lon="87.12941">
        <ele>196.45539968</ele>
        <time>2019-10-06T11:01:38.056Z</time>
      </trkpt>
      <trkpt lat="27.393125" lon="87.12954">
        <ele>198.35539968</ele>
        <time>2019-10-06T11:02:39.056Z</time>
      </trkpt>
      <trkpt lat="27.393154" lon="87.129151">
        <ele>199.54460032</ele>
        <time>2019-10-06T11:04:38.056Z</time>
      </trkpt>
      <trkpt lat="27.393607" lon="87.129136">
        <ele>207.34460032</ele>
        <time>2019-10-06T11:05:36.056Z</time>
      </trkpt>
      <trkpt lat="27.393526" lon="87.128959">
        <ele>210.54460032</ele>
        <time>2019-10-06T11:06:38.056Z</time>
      </trkpt>
      <trkpt lat="27.393716" lon="87.128875">
        <ele>218.28920064</ele>
        <time>2019-10-06T11:07:39.056Z</time>
      </trkpt>
      <trkpt lat="27.393666" lon="87.128575">
        <ele>222</ele>
        <time>2019-10-06T11:08:36.056Z</time>
      </trkpt>
      <trkpt lat="27.393749" lon="87.128128">
        <ele>225.45539968</ele>
        <time>2019-10-06T11:09:38.056Z</time>
      </trkpt>
      <trkpt lat="27.393512" lon="87.127915">
        <ele>226</ele>
        <time>2019-10-06T11:10:36.056Z</time>
      </trkpt>
      <trkpt lat="27.394177" lon="87.127556">
        <ele>228.65539968</ele>
        <time>2019-10-06T11:11:36.056Z</time>
      </trkpt>
      <trkpt lat="27.394219" lon="87.127384">
        <ele>225.35539968</ele>
        <time>2019-10-06T11:12:39.056Z</time>
      </trkpt>
      <trkpt lat="27.394427" lon="87.127531">
        <ele>210.76619904</ele>
        <time>2019-10-06T11:13:40.056Z</time>
      </trkpt>
      <trkpt lat="27.395152" lon="87.126895">
        <ele>217.64460032</ele>
        <time>2019-10-06T11:14:39.056Z</time>
      </trkpt>
      <trkpt lat="27.394997" lon="87.12637">
        <ele>217.74460032</ele>
        <time>2019-10-06T11:15:40.056Z</time>
      </trkpt>
      <trkpt lat="27.395276" lon="87.126096">
        <ele>218</ele>
        <time>2019-10-06T11:16:40.056Z</time>
      </trkpt>
      <trkpt lat="27.395288" lon="87.125931">
        <ele>220</ele>
        <time>2019-10-06T11:17:36.056Z</time>
      </trkpt>
      <trkpt lat="27.395551" lon="87.125616">
        <ele>220</ele>
        <time>2019-10-06T11:18:38.056Z</time>
      </trkpt>
      <trkpt lat="27.395714" lon="87.125283">
        <ele>218</ele>
        <time>2019-10-06T11:19:39.056Z</time>
      </trkpt>
      <trkpt lat="27.396029" lon="87.125097">
        <ele>218</ele>
        <time>2019-10-06T11:20:38.056Z</time>
      </trkpt>
      <trkpt lat="27.396551" lon="87.124817">
        <ele>210.65539968</ele>
        <time>2019-10-06T11:21:36.056Z</time>
      </trkpt>
      <trkpt lat="27.396802" lon="87.12439">
        <ele>209</ele>
        <time>2019-10-06T11:22:39.056Z</time>
      </trkpt>
      <trkpt lat="27.39707" lon="87.12423">
        <ele>204</ele>
        <time>2019-10-06T11:23:38.056Z</time>
      </trkpt>
      <trkpt lat="27.396866" lon="87.124158">
        <ele>204</ele>
        <time>2019-10-06T11:24:39.056Z</time>
      </trkpt>
      <trkpt lat="27.397243" lon="87.123934">
        <ele>206.08920064</ele>
        <time>2019-10-06T11:25:38.056Z</time>
      </trkpt>
      <trkpt lat="27.397568" lon="87.123642">
        <ele>212.74460032</ele>
        <time>2019-10-06T11:26:40.056Z</time>
      </trkpt>
      <trkpt lat="27.397727" lon="87.123441">
        <ele>214.25539968</ele>
        <time>2019-10-06T11:27:40.056Z</time>
      </trkpt>
      <trkpt lat="27.397968" lon="87.123282">
        <ele>215</ele>
        <time>2019-10-06T11:28:37.056Z</time>
      </trkpt>
      <trkpt lat="27.39815" lon="87.122939">
        <ele>219.08920064</ele>
        <time>2019-10-06T11:29:38.056Z</time>
      </trkpt>
      <trkpt lat="27.398333" lon="87.122667">
        <ele>219.51079936</ele>
        <time>2019-10-06T11:30:40.056Z</time>
      </trkpt>
      <trkpt lat="27.39866" lon="87.122582">
        <ele>216.35539968</ele>
        <time>2019-10-06T11:31:39.056Z</time>
      </trkpt>
      <trkpt lat="27.398735" lon="87.122236">
        <ele>217.88920064</ele>
        <time>2019-10-06T11:32:42.056Z</time>
      </trkpt>
      <trkpt lat="27.398883" lon="87.122038">
        <ele>223.48920064</ele>
        <time>2019-10-06T11:33:40.056Z</time>
      </trkpt>
      <trkpt lat="27.399167" lon="87.121826">
        <ele>231.63380096</ele>
        <time>2019-10-06T11:34:38.056Z</time>
      </trkpt>
      <trkpt lat="27.398966" lon="87.121921">
        <ele>310.64460032</ele>
        <time>2019-10-06T11:39:39.056Z</time>
      </trkpt>
      <trkpt lat="27.399085" lon="87.121882">
        <ele>326.21220224</ele>
        <time>2019-10-06T11:40:40.056Z</time>
      </trkpt>
      <trkpt lat="27.399326" lon="87.12222">
        <ele>344.17840128</ele>
        <time>2019-10-06T11:41:38.056Z</time>
      </trkpt>
      <trkpt lat="27.399081" lon="87.121796">
        <ele>328.76619904</ele>
        <time>2019-10-06T11:42:40.056Z</time>
      </trkpt>
      <trkpt lat="27.399266" lon="87.121798">
        <ele>317.34460032</ele>
        <time>2019-10-06T11:44:36.056Z</time>
      </trkpt>
      <trkpt lat="27.399105" lon="87.12188">
        <ele>310</ele>
        <time>2019-10-06T11:47:40.056Z</time>
      </trkpt>
      <trkpt lat="27.399104" lon="87.121722">
        <ele>309.25539968</ele>
        <time>2019-10-06T11:48:40.056Z</time>
      </trkpt>
      <trkpt lat="27.399281" lon="87.12188">
        <ele>303.45539968</ele>
        <time>2019-10-06T11:50:38.056Z</time>
      </trkpt>
      <trkpt lat="27.399416" lon="87.121665">
        <ele>294.74460032</ele>
        <time>2019-10-06T11:51:40.056Z</time>
      </trkpt>
      <trkpt lat="27.39956" lon="87.121606">
        <ele>298.08920064</ele>
        <time>2019-10-06T11:52:38.056Z</time>
      </trkpt>
      <trkpt lat="27.399802" lon="87.121376">
        <ele>299</ele>
        <time>2019-10-06T11:53:38.056Z</time>
      </trkpt>
      <trkpt lat="27.400111" lon="87.121154">
        <ele>291.71079936</ele>
        <time>2019-10-06T11:54:39.056Z</time>
      </trkpt>
      <trkpt lat="27.400515" lon="87.12116">
        <ele>278.76619904</ele>
        <time>2019-10-06T11:55:40.056Z</time>
      </trkpt>
      <trkpt lat="27.400588" lon="87.121004">
        <ele>273.55539968</ele>
        <time>2019-10-06T11:56:37.056Z</time>
      </trkpt>
      <trkpt lat="27.400724" lon="87.121044">
        <ele>268.96619904</ele>
        <time>2019-10-06T11:57:36.056Z</time>
      </trkpt>
      <trkpt lat="27.400828" lon="87.121026">
        <ele>230</ele>
        <time>2019-10-06T11:59:38.056Z</time>
      </trkpt>
      <trkpt lat="27.400977" lon="87.121014">
        <ele>201.55539968</ele>
        <time>2019-10-06T12:02:37.056Z</time>
      </trkpt>
      <trkpt lat="27.40111" lon="87.120997">
        <ele>205</ele>
        <time>2019-10-06T12:03:40.056Z</time>
      </trkpt>
      <trkpt lat="27.401295" lon="87.120644">
        <ele>210.28920064</ele>
        <time>2019-10-06T12:04:39.056Z</time>
      </trkpt>
      <trkpt lat="27.40093" lon="87.120359">
        <ele>217</ele>
        <time>2019-10-06T12:05:39.056Z</time>
      </trkpt>
      <trkpt lat="27.40114" lon="87.120161">
        <ele>222</ele>
        <time>2019-10-06T12:06:39.056Z</time>
      </trkpt>
      <trkpt lat="27.40091" lon="87.119788">
        <ele>233.23380096</ele>
        <time>2019-10-06T12:07:40.056Z</time>
      </trkpt>
      <trkpt lat="27.40094" lon="87.119265">
        <ele>241.68920064</ele>
        <time>2019-10-06T12:08:36.056Z</time>
      </trkpt>
      <trkpt lat="27.400821" lon="87.118869">
        <ele>253.64460032</ele>
        <time>2019-10-06T12:09:39.056Z</time>
      </trkpt>
      <trkpt lat="27.400829" lon="87.118512">
        <ele>254</ele>
        <time>2019-10-06T12:10:36.056Z</time>
      </trkpt>
      <trkpt lat="27.40154" lon="87.118612">
        <ele>279.57840128</ele>
        <time>2019-10-06T12:11:39.056Z</time>
      </trkpt>
      <trkpt lat="27.402092" lon="87.118622">
        <ele>289.28920064</ele>
        <time>2019-10-06T12:12:39.056Z</time>
      </trkpt>
      <trkpt lat="27.402286" lon="87.118039">
        <ele>285.11079936</ele>
        <time>2019-10-06T12:13:37.056Z</time>
      </trkpt>
      <trkpt lat="27.402494" lon="87.117516">
        <ele>286.48920064</ele>
        <time>2019-10-06T12:14:40.056Z</time>
      </trkpt>
      <trkpt lat="27.402428" lon="87.116948">
        <ele>302.63380096</ele>
        <time>2019-10-06T12:15:38.056Z</time>
      </trkpt>
      <trkpt lat="27.403071" lon="87.116668">
        <ele>313.7230016</ele>
        <time>2019-10-06T12:17:00.056Z</time>
      </trkpt>
      <trkpt lat="27.403214" lon="87.116391">
        <ele>326.74460032</ele>
        <time>2019-10-06T12:17:50.056Z</time>
      </trkpt>
      <trkpt lat="27.403461" lon="87.116183">
        <ele>339.68920064</ele>
        <time>2019-10-06T12:19:01.056Z</time>
      </trkpt>
      <trkpt lat="27.403872" lon="87.116342">
        <ele>343.68920064</ele>
        <time>2019-10-06T12:19:46.056Z</time>
      </trkpt>
      <trkpt lat="27.404258" lon="87.116085">
        <ele>350.28920064</ele>
        <time>2019-10-06T12:20:39.056Z</time>
      </trkpt>
      <trkpt lat="27.404497" lon="87.115634">
        <ele>359</ele>
        <time>2019-10-06T12:21:39.056Z</time>
      </trkpt>
      <trkpt lat="27.404615" lon="87.115274">
        <ele>368.63380096</ele>
        <time>2019-10-06T12:22:58.056Z</time>
      </trkpt>
      <trkpt lat="27.404751" lon="87.115066">
        <ele>373.04460032</ele>
        <time>2019-10-06T12:23:43.056Z</time>
      </trkpt>
      <trkpt lat="27.404862" lon="87.114859">
        <ele>380.33380096</ele>
        <time>2019-10-06T12:24:37.056Z</time>
      </trkpt>
      <trkpt lat="27.405134" lon="87.114881">
        <ele>383</ele>
        <time>2019-10-06T12:25:39.056Z</time>
      </trkpt>
      <trkpt lat="27.40511" lon="87.114642">
        <ele>385</ele>
        <time>2019-10-06T12:26:39.056Z</time>
      </trkpt>
      <trkpt lat="27.405776" lon="87.114883">
        <ele>385.25539968</ele>
        <time>2019-10-06T12:29:40.056Z</time>
      </trkpt>
      <trkpt lat="27.406015" lon="87.114755">
        <ele>381</ele>
        <time>2019-10-06T12:30:37.056Z</time>
      </trkpt>
      <trkpt lat="27.406111" lon="87.114888">
        <ele>380.08920064</ele>
        <time>2019-10-06T12:32:18.056Z</time>
      </trkpt>
      <trkpt lat="27.406237" lon="87.114847">
        <ele>393.17840128</ele>
        <time>2019-10-06T12:33:18.056Z</time>
      </trkpt>
      <trkpt lat="27.406278" lon="87.114828">
        <ele>398.08920064</ele>
        <time>2019-10-06T12:34:18.056Z</time>
      </trkpt>
      <trkpt lat="27.406525" lon="87.114729">
        <ele>395.91079936</ele>
        <time>2019-10-06T12:35:03.056Z</time>
      </trkpt>
      <trkpt lat="27.406755" lon="87.114581">
        <ele>390</ele>
        <time>2019-10-06T12:35:48.056Z</time>
      </trkpt>
      <trkpt lat="27.40695" lon="87.114242">
        <ele>387.31079936</ele>
        <time>2019-10-06T12:36:41.056Z</time>
      </trkpt>
      <trkpt lat="27.407085" lon="87.113855">
        <ele>377.11079936</ele>
        <time>2019-10-06T12:37:42.056Z</time>
      </trkpt>
      <trkpt lat="27.407423" lon="87.113502">
        <ele>370.15539968</ele>
        <time>2019-10-06T12:38:41.056Z</time>
      </trkpt>
      <trkpt lat="27.407834" lon="87.113491">
        <ele>363.71079936</ele>
        <time>2019-10-06T12:39:39.056Z</time>
      </trkpt>
      <trkpt lat="27.408294" lon="87.113312">
        <ele>354.06619904</ele>
        <time>2019-10-06T12:40:39.056Z</time>
      </trkpt>
      <trkpt lat="27.408511" lon="87.11287">
        <ele>339.51079936</ele>
        <time>2019-10-06T12:41:40.056Z</time>
      </trkpt>
      <trkpt lat="27.408848" lon="87.112831">
        <ele>331.06619904</ele>
        <time>2019-10-06T12:42:39.056Z</time>
      </trkpt>
      <trkpt lat="27.409142" lon="87.112543">
        <ele>584.93073152</ele>
        <time>2019-10-06T12:43:39.056Z</time>
      </trkpt>
      <trkpt lat="27.409267" lon="87.112005">
        <ele>762.28920064</ele>
        <time>2019-10-06T12:44:39.056Z</time>
      </trkpt>
      <trkpt lat="27.409239" lon="87.11129">
        <ele>854.63380096</ele>
        <time>2019-10-06T12:45:38.056Z</time>
      </trkpt>
      <trkpt lat="27.409884" lon="87.111157">
        <ele>859.74460032</ele>
        <time>2019-10-06T12:46:40.056Z</time>
      </trkpt>
      <trkpt lat="27.410454" lon="87.111137">
        <ele>861.48920064</ele>
        <time>2019-10-06T12:47:40.056Z</time>
      </trkpt>
      <trkpt lat="27.410712" lon="87.111059">
        <ele>855</ele>
        <time>2019-10-06T12:48:39.056Z</time>
      </trkpt>
      <trkpt lat="27.411048" lon="87.111309">
        <ele>850.22159872</ele>
        <time>2019-10-06T12:49:42.056Z</time>
      </trkpt>
      <trkpt lat="27.411429" lon="87.11132">
        <ele>855.48920064</ele>
        <time>2019-10-06T12:50:40.056Z</time>
      </trkpt>
      <trkpt lat="27.411679" lon="87.111306">
        <ele>863.34460032</ele>
        <time>2019-10-06T12:51:36.056Z</time>
      </trkpt>
      <trkpt lat="27.412194" lon="87.111202">
        <ele>870.66779904</ele>
        <time>2019-10-06T12:52:49.271Z</time>
      </trkpt>
      <trkpt lat="27.412268" lon="87.11079">
        <ele>867</ele>
        <time>2019-10-06T12:53:39.056Z</time>
      </trkpt>
      <trkpt lat="27.412775" lon="87.110728">
        <ele>866.25539968</ele>
        <time>2019-10-06T12:54:40.056Z</time>
      </trkpt>
      <trkpt lat="27.412872" lon="87.110369">
        <ele>862.15539968</ele>
        <time>2019-10-06T12:55:41.056Z</time>
      </trkpt>
      <trkpt lat="27.412787" lon="87.109735">
        <ele>859.45539968</ele>
        <time>2019-10-06T12:56:38.056Z</time>
      </trkpt>
      <trkpt lat="27.413025" lon="87.109613">
        <ele>891.96521984</ele>
        <time>2019-10-06T12:57:39.056Z</time>
      </trkpt>
      <trkpt lat="27.413083" lon="87.109168">
        <ele>906.00139904</ele>
        <time>2019-10-06T12:58:49.272Z</time>
      </trkpt>
      <trkpt lat="27.413398" lon="87.108699">
        <ele>909</ele>
        <time>2019-10-06T12:59:39.056Z</time>
      </trkpt>
      <trkpt lat="27.413705" lon="87.108075">
        <ele>905.84460032</ele>
        <time>2019-10-06T13:00:41.056Z</time>
      </trkpt>
      <trkpt lat="27.413613" lon="87.107543">
        <ele>905.08920064</ele>
        <time>2019-10-06T13:01:38.056Z</time>
      </trkpt>
      <trkpt lat="27.413026" lon="87.107356">
        <ele>902.76619904</ele>
        <time>2019-10-06T13:02:40.056Z</time>
      </trkpt>
      <trkpt lat="27.412432" lon="87.107309">
        <ele>876.13239808</ele>
        <time>2019-10-06T13:03:39.056Z</time>
      </trkpt>
      <trkpt lat="27.411428" lon="87.107194">
        <ele>869</ele>
        <time>2019-10-06T13:04:38.056Z</time>
      </trkpt>
      <trkpt lat="27.411491" lon="87.107049">
        <ele>861.36619904</ele>
        <time>2019-10-06T13:05:38.056Z</time>
      </trkpt>
      <trkpt lat="27.411784" lon="87.107188">
        <ele>850.64460032</ele>
        <time>2019-10-06T13:06:39.056Z</time>
      </trkpt>
      <trkpt lat="27.411661" lon="87.107223">
        <ele>859.57840128</ele>
        <time>2019-10-06T13:07:39.056Z</time>
      </trkpt>
      <trkpt lat="27.411271" lon="87.106984">
        <ele>909.91220224</ele>
        <time>2019-10-06T13:11:41.056Z</time>
      </trkpt>
      <trkpt lat="27.410753" lon="87.106471">
        <ele>927.632167225894</ele>
        <time>2019-10-06T13:12:38.056Z</time>
      </trkpt>
      <trkpt lat="27.410838" lon="87.105721">
        <ele>933.28920064</ele>
        <time>2019-10-06T13:13:39.056Z</time>
      </trkpt>
      <trkpt lat="27.410887" lon="87.105152">
        <ele>941</ele>
        <time>2019-10-06T13:14:38.056Z</time>
      </trkpt>
      <trkpt lat="27.410385" lon="87.104537">
        <ele>932.36619904</ele>
        <time>2019-10-06T13:15:38.056Z</time>
      </trkpt>
      <trkpt lat="27.40981" lon="87.104317">
        <ele>909.76619904</ele>
        <time>2019-10-06T13:16:40.056Z</time>
      </trkpt>
      <trkpt lat="27.409115" lon="87.104178">
        <ele>891</ele>
        <time>2019-10-06T13:17:40.056Z</time>
      </trkpt>
      <trkpt lat="27.408778" lon="87.103706">
        <ele>858.4336</ele>
        <time>2019-10-06T13:19:28.274Z</time>
      </trkpt>
      <trkpt lat="27.408723" lon="87.103293">
        <ele>856.91079936</ele>
        <time>2019-10-06T13:20:13.056Z</time>
      </trkpt>
      <trkpt lat="27.408609" lon="87.102971">
        <ele>843.91079936</ele>
        <time>2019-10-06T13:21:18.056Z</time>
      </trkpt>
      <trkpt lat="27.408246" lon="87.102589">
        <ele>834.45539968</ele>
        <time>2019-10-06T13:22:18.056Z</time>
      </trkpt>
      <trkpt lat="27.407534" lon="87.102267">
        <ele>829</ele>
        <time>2019-10-06T13:23:18.056Z</time>
      </trkpt>
      <trkpt lat="27.406875" lon="87.101347">
        <ele>819.35539968</ele>
        <time>2019-10-06T13:24:59.056Z</time>
      </trkpt>
      <trkpt lat="27.406583" lon="87.100982">
        <ele>813.85539968</ele>
        <time>2019-10-06T13:25:44.056Z</time>
      </trkpt>
      <trkpt lat="27.406602" lon="87.100209">
        <ele>809.45539968</ele>
        <time>2019-10-06T13:26:38.056Z</time>
      </trkpt>
      <trkpt lat="27.406657" lon="87.099365">
        <ele>805</ele>
        <time>2019-10-06T13:27:39.056Z</time>
      </trkpt>
      <trkpt lat="27.406451" lon="87.098665">
        <ele>805</ele>
        <time>2019-10-06T13:28:38.056Z</time>
      </trkpt>
      <trkpt lat="27.406883" lon="87.098204">
        <ele>806</ele>
        <time>2019-10-06T13:29:38.056Z</time>
      </trkpt>
      <trkpt lat="27.407091" lon="87.097532">
        <ele>809</ele>
        <time>2019-10-06T13:30:38.056Z</time>
      </trkpt>
      <trkpt lat="27.407156" lon="87.096799">
        <ele>808.45539968</ele>
        <time>2019-10-06T13:31:38.056Z</time>
      </trkpt>
      <trkpt lat="27.407252" lon="87.096181">
        <ele>803.65539968</ele>
        <time>2019-10-06T13:32:36.056Z</time>
      </trkpt>
      <trkpt lat="27.407547" lon="87.095745">
        <ele>804</ele>
        <time>2019-10-06T13:33:38.056Z</time>
      </trkpt>
      <trkpt lat="27.407886" lon="87.095194">
        <ele>798.35539968</ele>
        <time>2019-10-06T13:34:39.056Z</time>
      </trkpt>
      <trkpt lat="27.407896" lon="87.094475">
        <ele>794.35539968</ele>
        <time>2019-10-06T13:35:39.056Z</time>
      </trkpt>
      <trkpt lat="27.408232" lon="87.093744">
        <ele>790.65539968</ele>
        <time>2019-10-06T13:36:36.056Z</time>
      </trkpt>
      <trkpt lat="27.408196" lon="87.093626">
        <ele>789.34460032</ele>
        <time>2019-10-06T13:37:36.056Z</time>
      </trkpt>
      <trkpt lat="27.408048" lon="87.093641">
        <ele>789</ele>
        <time>2019-10-06T13:38:39.056Z</time>
      </trkpt>
      <trkpt lat="27.408393" lon="87.093676">
        <ele>789</ele>
        <time>2019-10-06T13:39:38.056Z</time>
      </trkpt>
      <trkpt lat="27.408139" lon="87.093736">
        <ele>789</ele>
        <time>2019-10-06T13:40:39.056Z</time>
      </trkpt>
      <trkpt lat="27.408223" lon="87.093585">
        <ele>790</ele>
        <time>2019-10-06T13:43:40.056Z</time>
      </trkpt>
      <trkpt lat="27.407594" lon="87.093356">
        <ele>783.71079936</ele>
        <time>2019-10-06T13:44:39.056Z</time>
      </trkpt>
      <trkpt lat="27.407521" lon="87.092709">
        <ele>778</ele>
        <time>2019-10-06T13:45:36.056Z</time>
      </trkpt>
      <trkpt lat="27.406956" lon="87.09215">
        <ele>768.35539968</ele>
        <time>2019-10-06T13:46:39.056Z</time>
      </trkpt>
      <trkpt lat="27.406526" lon="87.091566">
        <ele>763</ele>
        <time>2019-10-06T13:47:38.056Z</time>
      </trkpt>
      <trkpt lat="27.406662" lon="87.09097">
        <ele>758</ele>
        <time>2019-10-06T13:48:36.056Z</time>
      </trkpt>
      <trkpt lat="27.406698" lon="87.091085">
        <ele>757</ele>
        <time>2019-10-06T13:49:36.056Z</time>
      </trkpt>
      <trkpt lat="27.406786" lon="87.091512">
        <ele>751</ele>
        <time>2019-10-06T13:50:36.056Z</time>
      </trkpt>
      <trkpt lat="27.406866" lon="87.091292">
        <ele>747</ele>
        <time>2019-10-06T13:51:36.056Z</time>
      </trkpt>
      <trkpt lat="27.407049" lon="87.090696">
        <ele>737.65539968</ele>
        <time>2019-10-06T13:52:36.056Z</time>
      </trkpt>
      <trkpt lat="27.407046" lon="87.08993">
        <ele>727.71079936</ele>
        <time>2019-10-06T13:53:39.056Z</time>
      </trkpt>
      <trkpt lat="27.406792" lon="87.089339">
        <ele>714.35539968</ele>
        <time>2019-10-06T13:54:39.056Z</time>
      </trkpt>
      <trkpt lat="27.407198" lon="87.089431">
        <ele>704.96619904</ele>
        <time>2019-10-06T13:55:36.056Z</time>
      </trkpt>
      <trkpt lat="27.407308" lon="87.089124">
        <ele>691.91079936</ele>
        <time>2019-10-06T13:56:38.056Z</time>
      </trkpt>
      <trkpt lat="27.407088" lon="87.08842">
        <ele>679.91079936</ele>
        <time>2019-10-06T13:57:38.056Z</time>
      </trkpt>
      <trkpt lat="27.406574" lon="87.087916">
        <ele>671.45539968</ele>
        <time>2019-10-06T13:58:38.056Z</time>
      </trkpt>
      <trkpt lat="27.406577" lon="87.087272">
        <ele>664.45539968</ele>
        <time>2019-10-06T13:59:38.056Z</time>
      </trkpt>
      <trkpt lat="27.40643" lon="87.086402">
        <ele>660.64460032</ele>
        <time>2019-10-06T14:00:39.056Z</time>
      </trkpt>
      <trkpt lat="27.406307" lon="87.085807">
        <ele>663</ele>
        <time>2019-10-06T14:01:39.056Z</time>
      </trkpt>
      <trkpt lat="27.406136" lon="87.085215">
        <ele>661</ele>
        <time>2019-10-06T14:02:39.056Z</time>
      </trkpt>
      <trkpt lat="27.406278" lon="87.084492">
        <ele>654.35539968</ele>
        <time>2019-10-06T14:03:39.056Z</time>
      </trkpt>
      <trkpt lat="27.406559" lon="87.083791">
        <ele>649.95539968</ele>
        <time>2019-10-06T14:04:43.056Z</time>
      </trkpt>
      <trkpt lat="27.406784" lon="87.08321">
        <ele>645.44460032</ele>
        <time>2019-10-06T14:05:37.056Z</time>
      </trkpt>
      <trkpt lat="27.40692" lon="87.082444">
        <ele>647</ele>
        <time>2019-10-06T14:06:38.056Z</time>
      </trkpt>
      <trkpt lat="27.406451" lon="87.081807">
        <ele>645.08920064</ele>
        <time>2019-10-06T14:07:38.056Z</time>
      </trkpt>
      <trkpt lat="27.406246" lon="87.08115">
        <ele>643</ele>
        <time>2019-10-06T14:08:38.056Z</time>
      </trkpt>
      <trkpt lat="27.406156" lon="87.080542">
        <ele>635.31079936</ele>
        <time>2019-10-06T14:09:36.056Z</time>
      </trkpt>
      <trkpt lat="27.4056" lon="87.080693">
        <ele>621.31079936</ele>
        <time>2019-10-06T14:10:36.056Z</time>
      </trkpt>
      <trkpt lat="27.405139" lon="87.080351">
        <ele>616</ele>
        <time>2019-10-06T14:11:36.056Z</time>
      </trkpt>
      <trkpt lat="27.405255" lon="87.080388">
        <ele>616</ele>
        <time>2019-10-06T14:12:39.056Z</time>
      </trkpt>
      <trkpt lat="27.405338" lon="87.080266">
        <ele>616</ele>
        <time>2019-10-06T14:14:39.056Z</time>
      </trkpt>
      <trkpt lat="27.405224" lon="87.07977">
        <ele>616</ele>
        <time>2019-10-06T14:17:39.056Z</time>
      </trkpt>
      <trkpt lat="27.404743" lon="87.079442">
        <ele>621.54460032</ele>
        <time>2019-10-06T14:18:38.056Z</time>
      </trkpt>
      <trkpt lat="27.404624" lon="87.078859">
        <ele>628.64460032</ele>
        <time>2019-10-06T14:19:39.056Z</time>
      </trkpt>
      <trkpt lat="27.405066" lon="87.078234">
        <ele>630.34460032</ele>
        <time>2019-10-06T14:20:36.056Z</time>
      </trkpt>
      <trkpt lat="27.405464" lon="87.077916">
        <ele>636.74460032</ele>
        <time>2019-10-06T14:21:40.056Z</time>
      </trkpt>
      <trkpt lat="27.405566" lon="87.077651">
        <ele>638.64460032</ele>
        <time>2019-10-06T14:22:39.056Z</time>
      </trkpt>
      <trkpt lat="27.405451" lon="87.07697">
        <ele>642</ele>
        <time>2019-10-06T14:23:39.056Z</time>
      </trkpt>
      <trkpt lat="27.405432" lon="87.076505">
        <ele>648.287911492113</ele>
        <time>2019-10-06T14:24:39.056Z</time>
      </trkpt>
      <trkpt lat="27.4055" lon="87.076237">
        <ele>648.45539968</ele>
        <time>2019-10-06T14:25:38.056Z</time>
      </trkpt>
      <trkpt lat="27.405744" lon="87.075691">
        <ele>641.45539968</ele>
        <time>2019-10-06T14:26:38.056Z</time>
      </trkpt>
      <trkpt lat="27.405974" lon="87.075193">
        <ele>643</ele>
        <time>2019-10-06T14:27:38.056Z</time>
      </trkpt>
      <trkpt lat="27.406014" lon="87.07508">
        <ele>642.25539968</ele>
        <time>2019-10-06T14:28:40.056Z</time>
      </trkpt>
      <trkpt lat="27.40596" lon="87.074769">
        <ele>649.64460032</ele>
        <time>2019-10-06T14:29:39.056Z</time>
      </trkpt>
      <trkpt lat="27.405972" lon="87.074514">
        <ele>656.68920064</ele>
        <time>2019-10-06T14:30:41.056Z</time>
      </trkpt>
      <trkpt lat="27.405907" lon="87.074316">
        <ele>663</ele>
        <time>2019-10-06T14:31:40.056Z</time>
      </trkpt>
      <trkpt lat="27.405925" lon="87.074081">
        <ele>669.64460032</ele>
        <time>2019-10-06T14:32:39.056Z</time>
      </trkpt>
      <trkpt lat="27.405749" lon="87.073867">
        <ele>673.28920064</ele>
        <time>2019-10-06T14:33:39.056Z</time>
      </trkpt>
      <trkpt lat="27.405638" lon="87.073601">
        <ele>679</ele>
        <time>2019-10-06T14:34:41.056Z</time>
      </trkpt>
      <trkpt lat="27.405425" lon="87.073343">
        <ele>686.84460032</ele>
        <time>2019-10-06T14:35:41.056Z</time>
      </trkpt>
      <trkpt lat="27.405425" lon="87.07316">
        <ele>692.74460032</ele>
        <time>2019-10-06T14:36:40.056Z</time>
      </trkpt>
      <trkpt lat="27.405316" lon="87.07309">
        <ele>697</ele>
        <time>2019-10-06T14:37:38.056Z</time>
      </trkpt>
      <trkpt lat="27.405206" lon="87.0729">
        <ele>698.08920064</ele>
        <time>2019-10-06T14:38:38.056Z</time>
      </trkpt>
      <trkpt lat="27.405296" lon="87.072836">
        <ele>701</ele>
        <time>2019-10-06T14:41:41.056Z</time>
      </trkpt>
      <trkpt lat="27.405604" lon="87.072865">
        <ele>709.68920064</ele>
        <time>2019-10-06T14:42:41.056Z</time>
      </trkpt>
      <trkpt lat="27.405765" lon="87.072718">
        <ele>712</ele>
        <time>2019-10-06T14:43:41.056Z</time>
      </trkpt>
      <trkpt lat="27.405635" lon="87.072724">
        <ele>714.84460032</ele>
        <time>2019-10-06T14:44:41.056Z</time>
      </trkpt>
      <trkpt lat="27.405699" lon="87.072882">
        <ele>709</ele>
        <time>2019-10-06T14:45:43.056Z</time>
      </trkpt>
      <trkpt lat="27.40585" lon="87.072806">
        <ele>700.55539968</ele>
        <time>2019-10-06T14:47:07.056Z</time>
      </trkpt>
      <trkpt lat="27.405913" lon="87.072918">
        <ele>699.16619904</ele>
        <time>2019-10-06T14:47:52.056Z</time>
      </trkpt>
      <trkpt lat="27.406089" lon="87.07298">
        <ele>704</ele>
        <time>2019-10-06T14:49:18.056Z</time>
      </trkpt>
      <trkpt lat="27.406138" lon="87.07293">
        <ele>697.25539968</ele>
        <time>2019-10-06T14:50:20.056Z</time>
      </trkpt>
      <trkpt lat="27.405917" lon="87.072945">
        <ele>683</ele>
        <time>2019-10-06T14:52:03.056Z</time>
      </trkpt>
      <trkpt lat="27.405728" lon="87.072791">
        <ele>680.54460032</ele>
        <time>2019-10-06T14:52:48.056Z</time>
      </trkpt>
      <trkpt lat="27.405571" lon="87.072708">
        <ele>680</ele>
        <time>2019-10-06T14:53:40.056Z</time>
      </trkpt>
      <trkpt lat="27.405321" lon="87.072876">
        <ele>687.48920064</ele>
        <time>2019-10-06T14:54:40.056Z</time>
      </trkpt>
      <trkpt lat="27.405152" lon="87.072948">
        <ele>681.51079936</ele>
        <time>2019-10-06T14:55:40.056Z</time>
      </trkpt>
      <trkpt lat="27.405265" lon="87.072781">
        <ele>676</ele>
        <time>2019-10-06T14:57:37.056Z</time>
      </trkpt>
      <trkpt lat="27.404892" lon="87.072596">
        <ele>682.88920064</ele>
        <time>2019-10-06T14:58:52.056Z</time>
      </trkpt>
      <trkpt lat="27.404666" lon="87.072399">
        <ele>688</ele>
        <time>2019-10-06T14:59:41.056Z</time>
      </trkpt>
      <trkpt lat="27.404369" lon="87.072166">
        <ele>711</ele>
        <time>2019-10-06T15:01:40.056Z</time>
      </trkpt>
      <trkpt lat="27.404232" lon="87.07197">
        <ele>710</ele>
        <time>2019-10-06T15:03:39.056Z</time>
      </trkpt>
      <trkpt lat="27.404056" lon="87.071837">
        <ele>715.35539968</ele>
        <time>2019-10-06T15:04:39.056Z</time>
      </trkpt>
      <trkpt lat="27.404109" lon="87.071605">
        <ele>719.28920064</ele>
        <time>2019-10-06T15:05:39.056Z</time>
      </trkpt>
      <trkpt lat="27.403776" lon="87.07132">
        <ele>733.55539968</ele>
        <time>2019-10-06T15:06:37.056Z</time>
      </trkpt>
      <trkpt lat="27.403713" lon="87.07148">
        <ele>712.76619904</ele>
        <time>2019-10-06T15:07:40.056Z</time>
      </trkpt>
      <trkpt lat="27.403527" lon="87.071395">
        <ele>709.08920064</ele>
        <time>2019-10-06T15:08:38.056Z</time>
      </trkpt>
      <trkpt lat="27.403298" lon="87.071238">
        <ele>703.93380096</ele>
        <time>2019-10-06T15:10:39.056Z</time>
      </trkpt>
      <trkpt lat="27.40315" lon="87.070693">
        <ele>714.23380096</ele>
        <time>2019-10-06T15:11:40.056Z</time>
      </trkpt>
      <trkpt lat="27.403692" lon="87.07038">
        <ele>720.25539968</ele>
        <time>2019-10-06T15:12:40.056Z</time>
      </trkpt>
      <trkpt lat="27.40395" lon="87.069834">
        <ele>719.25539968</ele>
        <time>2019-10-06T15:13:40.056Z</time>
      </trkpt>
      <trkpt lat="27.404131" lon="87.06917">
        <ele>716</ele>
        <time>2019-10-06T15:14:39.056Z</time>
      </trkpt>
      <trkpt lat="27.404286" lon="87.068523">
        <ele>708.51079936</ele>
        <time>2019-10-06T15:15:40.056Z</time>
      </trkpt>
      <trkpt lat="27.404272" lon="87.067814">
        <ele>702.35539968</ele>
        <time>2019-10-06T15:16:39.056Z</time>
      </trkpt>
      <trkpt lat="27.40439" lon="87.067312">
        <ele>697.74460032</ele>
        <time>2019-10-06T15:17:40.056Z</time>
      </trkpt>
      <trkpt lat="27.403989" lon="87.066736">
        <ele>710.17840128</ele>
        <time>2019-10-06T15:18:38.056Z</time>
      </trkpt>
      <trkpt lat="27.403767" lon="87.066148">
        <ele>727.74460032</ele>
        <time>2019-10-06T15:19:40.056Z</time>
      </trkpt>
      <trkpt lat="27.40361" lon="87.065513">
        <ele>739</ele>
        <time>2019-10-06T15:21:14.056Z</time>
      </trkpt>
      <trkpt lat="27.403559" lon="87.065315">
        <ele>739.71079936</ele>
        <time>2019-10-06T15:21:59.056Z</time>
      </trkpt>
      <trkpt lat="27.406394" lon="86.978616">
        <ele>1558.69995117188</ele>
        <time>2019-10-07T11:14:12.056Z</time>
      </trkpt>
      <trkpt lat="27.40634" lon="86.978487">
        <ele>1497</ele>
        <time>2019-10-07T11:16:20.056Z</time>
      </trkpt>
      <trkpt lat="27.406442" lon="86.978212">
        <ele>1504.27719936</ele>
        <time>2019-10-07T11:17:28.056Z</time>
      </trkpt>
      <trkpt lat="27.406641" lon="86.978053">
        <ele>1511.43859968</ele>
        <time>2019-10-07T11:18:56.056Z</time>
      </trkpt>
      <trkpt lat="27.406874" lon="86.977846">
        <ele>1516.16140032</ele>
        <time>2019-10-07T11:20:00.056Z</time>
      </trkpt>
      <trkpt lat="27.406944" lon="86.977518">
        <ele>1523</ele>
        <time>2019-10-07T11:21:13.056Z</time>
      </trkpt>
      <trkpt lat="27.40688" lon="86.977238">
        <ele>1532</ele>
        <time>2019-10-07T11:23:26.056Z</time>
      </trkpt>
      <trkpt lat="27.407015" lon="86.977161">
        <ele>1543.13859968</ele>
        <time>2019-10-07T11:24:53.056Z</time>
      </trkpt>
      <trkpt lat="27.407238" lon="86.976933">
        <ele>1551.07719936</ele>
        <time>2019-10-07T11:26:12.056Z</time>
      </trkpt>
      <trkpt lat="27.407332" lon="86.976665">
        <ele>1566</ele>
        <time>2019-10-07T11:28:20.056Z</time>
      </trkpt>
      <trkpt lat="27.407334" lon="86.976534">
        <ele>1576.73859968</ele>
        <time>2019-10-07T11:29:59.056Z</time>
      </trkpt>
      <trkpt lat="27.407234" lon="86.976385">
        <ele>1582.43859968</ele>
        <time>2019-10-07T11:30:56.056Z</time>
      </trkpt>
      <trkpt lat="27.407165" lon="86.976242">
        <ele>1596.43859968</ele>
        <time>2019-10-07T11:32:56.056Z</time>
      </trkpt>
      <trkpt lat="27.40737" lon="86.976176">
        <ele>1609.61579904</ele>
        <time>2019-10-07T11:34:57.056Z</time>
      </trkpt>
      <trkpt lat="27.407417" lon="86.976049">
        <ele>1616.23859968</ele>
        <time>2019-10-07T11:35:54.056Z</time>
      </trkpt>
      <trkpt lat="27.407373" lon="86.975829">
        <ele>1627</ele>
        <time>2019-10-07T11:37:36.056Z</time>
      </trkpt>
      <trkpt lat="27.407353" lon="86.975656">
        <ele>1633.03859968</ele>
        <time>2019-10-07T11:38:32.056Z</time>
      </trkpt>
      <trkpt lat="27.407474" lon="86.975672">
        <ele>1638.67719936</ele>
        <time>2019-10-07T11:39:35.056Z</time>
      </trkpt>
      <trkpt lat="27.407556" lon="86.975581">
        <ele>1645.67719936</ele>
        <time>2019-10-07T11:40:35.056Z</time>
      </trkpt>
      <trkpt lat="27.407629" lon="86.975502">
        <ele>1652.87719936</ele>
        <time>2019-10-07T11:41:36.056Z</time>
      </trkpt>
      <trkpt lat="27.407707" lon="86.975322">
        <ele>1663.83843816987</ele>
        <time>2019-10-07T11:43:20.056Z</time>
      </trkpt>
      <trkpt lat="27.407539" lon="86.975168">
        <ele>1675.07719936</ele>
        <time>2019-10-07T11:44:57.056Z</time>
      </trkpt>
      <trkpt lat="27.407448" lon="86.974897">
        <ele>1680.87719936</ele>
        <time>2019-10-07T11:45:56.056Z</time>
      </trkpt>
      <trkpt lat="27.407493" lon="86.974722">
        <ele>1688.23859968</ele>
        <time>2019-10-07T11:47:04.056Z</time>
      </trkpt>
      <trkpt lat="27.407726" lon="86.974541">
        <ele>1700.87618810911</ele>
        <time>2019-10-07T11:48:56.056Z</time>
      </trkpt>
      <trkpt lat="27.407858" lon="86.974461">
        <ele>1714.53859968</ele>
        <time>2019-10-07T11:50:57.056Z</time>
      </trkpt>
      <trkpt lat="27.407686" lon="86.974363">
        <ele>1720.43859968</ele>
        <time>2019-10-07T11:51:56.056Z</time>
      </trkpt>
      <trkpt lat="27.40785" lon="86.974368">
        <ele>1725.46140032</ele>
        <time>2019-10-07T11:52:57.056Z</time>
      </trkpt>
      <trkpt lat="27.407904" lon="86.974204">
        <ele>1732</ele>
        <time>2019-10-07T11:53:55.056Z</time>
      </trkpt>
      <trkpt lat="27.407836" lon="86.973877">
        <ele>1744.43859968</ele>
        <time>2019-10-07T11:55:56.056Z</time>
      </trkpt>
      <trkpt lat="27.407922" lon="86.973753">
        <ele>1750.47719936</ele>
        <time>2019-10-07T11:56:59.056Z</time>
      </trkpt>
      <trkpt lat="27.407912" lon="86.973549">
        <ele>1755.33859968</ele>
        <time>2019-10-07T11:57:55.056Z</time>
      </trkpt>
      <trkpt lat="27.407897" lon="86.973384">
        <ele>1769.67719936</ele>
        <time>2019-10-07T11:59:55.056Z</time>
      </trkpt>
      <trkpt lat="27.407974" lon="86.973081">
        <ele>1781.87719936</ele>
        <time>2019-10-07T12:01:56.056Z</time>
      </trkpt>
      <trkpt lat="27.408047" lon="86.972864">
        <ele>1788</ele>
        <time>2019-10-07T12:02:55.056Z</time>
      </trkpt>
      <trkpt lat="27.408146" lon="86.973082">
        <ele>1801.47719936</ele>
        <time>2019-10-07T12:04:54.056Z</time>
      </trkpt>
      <trkpt lat="27.40834" lon="86.973068">
        <ele>1808</ele>
        <time>2019-10-07T12:05:57.056Z</time>
      </trkpt>
      <trkpt lat="27.408457" lon="86.972964">
        <ele>1813.43859968</ele>
        <time>2019-10-07T12:06:56.056Z</time>
      </trkpt>
      <trkpt lat="27.408366" lon="86.972778">
        <ele>1820.07719936</ele>
        <time>2019-10-07T12:07:57.056Z</time>
      </trkpt>
      <trkpt lat="27.408495" lon="86.972631">
        <ele>1832.43859968</ele>
        <time>2019-10-07T12:09:56.056Z</time>
      </trkpt>
      <trkpt lat="27.40855" lon="86.972463">
        <ele>1838.87719936</ele>
        <time>2019-10-07T12:10:56.056Z</time>
      </trkpt>
      <trkpt lat="27.408437" lon="86.972246">
        <ele>1845.87719936</ele>
        <time>2019-10-07T12:11:56.056Z</time>
      </trkpt>
      <trkpt lat="27.408242" lon="86.972174">
        <ele>1852.87719936</ele>
        <time>2019-10-07T12:12:56.056Z</time>
      </trkpt>
      <trkpt lat="27.408202" lon="86.971942">
        <ele>1859.43859968</ele>
        <time>2019-10-07T12:13:56.056Z</time>
      </trkpt>
      <trkpt lat="27.408141" lon="86.971736">
        <ele>1872.53859968</ele>
        <time>2019-10-07T12:15:57.056Z</time>
      </trkpt>
      <trkpt lat="27.408008" lon="86.971563">
        <ele>1878.33859968</ele>
        <time>2019-10-07T12:16:55.056Z</time>
      </trkpt>
      <trkpt lat="27.408038" lon="86.971298">
        <ele>1885.47719936</ele>
        <time>2019-10-07T12:17:54.056Z</time>
      </trkpt>
      <trkpt lat="27.40811" lon="86.971199">
        <ele>1892.33859968</ele>
        <time>2019-10-07T12:18:55.056Z</time>
      </trkpt>
      <trkpt lat="27.40823" lon="86.971204">
        <ele>1899.43859968</ele>
        <time>2019-10-07T12:19:56.056Z</time>
      </trkpt>
      <trkpt lat="27.408452" lon="86.971132">
        <ele>1913.07719936</ele>
        <time>2019-10-07T12:21:57.056Z</time>
      </trkpt>
      <trkpt lat="27.408548" lon="86.971061">
        <ele>1919</ele>
        <time>2019-10-07T12:22:56.056Z</time>
      </trkpt>
      <trkpt lat="27.408667" lon="86.970938">
        <ele>1924.43859968</ele>
        <time>2019-10-07T12:23:56.056Z</time>
      </trkpt>
      <trkpt lat="27.408847" lon="86.97105">
        <ele>1931.23783776165</ele>
        <time>2019-10-07T12:24:54.056Z</time>
      </trkpt>
      <trkpt lat="27.408951" lon="86.970943">
        <ele>1937.87719936</ele>
        <time>2019-10-07T12:25:56.056Z</time>
      </trkpt>
      <trkpt lat="27.409182" lon="86.970854">
        <ele>1945</ele>
        <time>2019-10-07T12:26:54.056Z</time>
      </trkpt>
      <trkpt lat="27.409372" lon="86.970791">
        <ele>1951.66140032</ele>
        <time>2019-10-07T12:27:55.056Z</time>
      </trkpt>
      <trkpt lat="27.409351" lon="86.970553">
        <ele>1964.53859968</ele>
        <time>2019-10-07T12:29:57.056Z</time>
      </trkpt>
      <trkpt lat="27.409235" lon="86.970366">
        <ele>1971.53859968</ele>
        <time>2019-10-07T12:30:57.056Z</time>
      </trkpt>
      <trkpt lat="27.409262" lon="86.970162">
        <ele>1976.87719936</ele>
        <time>2019-10-07T12:31:56.056Z</time>
      </trkpt>
      <trkpt lat="27.409354" lon="86.96994">
        <ele>1991.33859968</ele>
        <time>2019-10-07T12:33:55.056Z</time>
      </trkpt>
      <trkpt lat="27.409283" lon="86.969774">
        <ele>1997.23859968</ele>
        <time>2019-10-07T12:34:54.056Z</time>
      </trkpt>
      <trkpt lat="27.409437" lon="86.969718">
        <ele>2004.07627593152</ele>
        <time>2019-10-07T12:35:57.056Z</time>
      </trkpt>
      <trkpt lat="27.409522" lon="86.969609">
        <ele>2010.47719936</ele>
        <time>2019-10-07T12:36:54.056Z</time>
      </trkpt>
      <trkpt lat="27.409431" lon="86.969402">
        <ele>2018.43859968</ele>
        <time>2019-10-07T12:37:56.056Z</time>
      </trkpt>
      <trkpt lat="27.409582" lon="86.969347">
        <ele>2024.63859968</ele>
        <time>2019-10-07T12:38:58.056Z</time>
      </trkpt>
      <trkpt lat="27.409621" lon="86.96915">
        <ele>2031.07719936</ele>
        <time>2019-10-07T12:41:57.056Z</time>
      </trkpt>
      <trkpt lat="27.409909" lon="86.969107">
        <ele>2038.67719936</ele>
        <time>2019-10-07T12:42:55.056Z</time>
      </trkpt>
      <trkpt lat="27.409764" lon="86.968857">
        <ele>2046.93859968</ele>
        <time>2019-10-07T12:44:01.056Z</time>
      </trkpt>
      <trkpt lat="27.409864" lon="86.968803">
        <ele>2051.67719936</ele>
        <time>2019-10-07T12:44:55.056Z</time>
      </trkpt>
      <trkpt lat="27.409989" lon="86.968642">
        <ele>2064.71508418464</ele>
        <time>2019-10-07T12:46:54.056Z</time>
      </trkpt>
      <trkpt lat="27.410163" lon="86.968561">
        <ele>2072.53859968</ele>
        <time>2019-10-07T12:47:57.056Z</time>
      </trkpt>
      <trkpt lat="27.41023" lon="86.96838">
        <ele>2080.01381348907</ele>
        <time>2019-10-07T12:48:55.056Z</time>
      </trkpt>
      <trkpt lat="27.410333" lon="86.968272">
        <ele>2086</ele>
        <time>2019-10-07T12:49:56.056Z</time>
      </trkpt>
      <trkpt lat="27.410269" lon="86.967902">
        <ele>2094</ele>
        <time>2019-10-07T12:50:54.056Z</time>
      </trkpt>
      <trkpt lat="27.410315" lon="86.96775">
        <ele>2100</ele>
        <time>2019-10-07T12:51:55.056Z</time>
      </trkpt>
      <trkpt lat="27.410519" lon="86.967886">
        <ele>2107</ele>
        <time>2019-10-07T12:52:57.056Z</time>
      </trkpt>
      <trkpt lat="27.410575" lon="86.967784">
        <ele>2113.43859968</ele>
        <time>2019-10-07T12:53:56.056Z</time>
      </trkpt>
      <trkpt lat="27.410446" lon="86.967472">
        <ele>2119.47719936</ele>
        <time>2019-10-07T12:55:54.056Z</time>
      </trkpt>
      <trkpt lat="27.410512" lon="86.967353">
        <ele>2125.67719936</ele>
        <time>2019-10-07T12:56:55.056Z</time>
      </trkpt>
      <trkpt lat="27.410755" lon="86.967376">
        <ele>2131.63859968</ele>
        <time>2019-10-07T12:57:58.056Z</time>
      </trkpt>
      <trkpt lat="27.41096" lon="86.967242">
        <ele>2138.87719936</ele>
        <time>2019-10-07T12:58:56.056Z</time>
      </trkpt>
      <trkpt lat="27.410942" lon="86.967115">
        <ele>2145.43859968</ele>
        <time>2019-10-07T12:59:56.056Z</time>
      </trkpt>
      <trkpt lat="27.40338" lon="87.06545">
        <ele>742.099975585938</ele>
        <time>2019-10-07T06:02:24.070Z</time>
      </trkpt>
      <trkpt lat="27.403354" lon="87.065386">
        <ele>675</ele>
        <time>2019-10-07T06:03:21.070Z</time>
      </trkpt>
      <trkpt lat="27.403001" lon="87.064957">
        <ele>675</ele>
        <time>2019-10-07T06:04:25.070Z</time>
      </trkpt>
      <trkpt lat="27.402953" lon="87.064861">
        <ele>675</ele>
        <time>2019-10-07T06:05:41.070Z</time>
      </trkpt>
      <trkpt lat="27.403355" lon="87.065207">
        <ele>676.88999936</ele>
        <time>2019-10-07T06:07:14.070Z</time>
      </trkpt>
      <trkpt lat="27.40288" lon="87.064766">
        <ele>675</ele>
        <time>2019-10-07T06:08:25.070Z</time>
      </trkpt>
      <trkpt lat="27.402737" lon="87.064627">
        <ele>669.58999936</ele>
        <time>2019-10-07T06:11:17.070Z</time>
      </trkpt>
      <trkpt lat="27.402529" lon="87.064011">
        <ele>668</ele>
        <time>2019-10-07T06:12:12.070Z</time>
      </trkpt>
      <trkpt lat="27.402221" lon="87.063535">
        <ele>671</ele>
        <time>2019-10-07T06:13:10.070Z</time>
      </trkpt>
      <trkpt lat="27.401973" lon="87.062975">
        <ele>673.41000064</ele>
        <time>2019-10-07T06:14:07.070Z</time>
      </trkpt>
      <trkpt lat="27.40171" lon="87.06248">
        <ele>678.61000064</ele>
        <time>2019-10-07T06:15:09.070Z</time>
      </trkpt>
      <trkpt lat="27.401482" lon="87.061942">
        <ele>682</ele>
        <time>2019-10-07T06:16:09.070Z</time>
      </trkpt>
      <trkpt lat="27.401145" lon="87.061478">
        <ele>687.61000064</ele>
        <time>2019-10-07T06:17:09.070Z</time>
      </trkpt>
      <trkpt lat="27.401037" lon="87.061038">
        <ele>692.61000064</ele>
        <time>2019-10-07T06:18:09.070Z</time>
      </trkpt>
      <trkpt lat="27.400823" lon="87.060389">
        <ele>694.61000064</ele>
        <time>2019-10-07T06:19:09.070Z</time>
      </trkpt>
      <trkpt lat="27.400593" lon="87.059898">
        <ele>696.61000064</ele>
        <time>2019-10-07T06:20:09.070Z</time>
      </trkpt>
      <trkpt lat="27.400414" lon="87.059172">
        <ele>697.41000064</ele>
        <time>2019-10-07T06:21:07.070Z</time>
      </trkpt>
      <trkpt lat="27.40041" lon="87.058833">
        <ele>703.31000064</ele>
        <time>2019-10-07T06:22:06.070Z</time>
      </trkpt>
      <trkpt lat="27.40019" lon="87.058432">
        <ele>709.02000128</ele>
        <time>2019-10-07T06:23:08.070Z</time>
      </trkpt>
      <trkpt lat="27.39998" lon="87.058011">
        <ele>716.82000128</ele>
        <time>2019-10-07T06:24:12.070Z</time>
      </trkpt>
      <trkpt lat="27.399801" lon="87.057733">
        <ele>722.61000064</ele>
        <time>2019-10-07T06:25:09.070Z</time>
      </trkpt>
      <trkpt lat="27.39974" lon="87.057139">
        <ele>729</ele>
        <time>2019-10-07T06:26:06.070Z</time>
      </trkpt>
      <trkpt lat="27.399647" lon="87.057295">
        <ele>730</ele>
        <time>2019-10-07T06:27:07.070Z</time>
      </trkpt>
      <trkpt lat="27.399715" lon="87.056721">
        <ele>736.51000064</ele>
        <time>2019-10-07T06:29:08.070Z</time>
      </trkpt>
      <trkpt lat="27.399784" lon="87.056231">
        <ele>739.82000128</ele>
        <time>2019-10-07T06:30:07.070Z</time>
      </trkpt>
      <trkpt lat="27.399046" lon="87.055914">
        <ele>741</ele>
        <time>2019-10-07T06:31:47.070Z</time>
      </trkpt>
      <trkpt lat="27.399067" lon="87.055345">
        <ele>740.08999936</ele>
        <time>2019-10-07T06:32:32.070Z</time>
      </trkpt>
      <trkpt lat="27.398812" lon="87.054648">
        <ele>738</ele>
        <time>2019-10-07T06:33:47.070Z</time>
      </trkpt>
      <trkpt lat="27.398613" lon="87.054008">
        <ele>733.41000064</ele>
        <time>2019-10-07T06:34:47.070Z</time>
      </trkpt>
      <trkpt lat="27.398418" lon="87.053338">
        <ele>736</ele>
        <time>2019-10-07T06:35:47.070Z</time>
      </trkpt>
      <trkpt lat="27.398176" lon="87.052902">
        <ele>735.910091503536</ele>
        <time>2019-10-07T06:36:32.070Z</time>
      </trkpt>
      <trkpt lat="27.397814" lon="87.052806">
        <ele>736.410059539656</ele>
        <time>2019-10-07T06:37:17.070Z</time>
      </trkpt>
      <trkpt lat="27.397366" lon="87.051952">
        <ele>746.409182014095</ele>
        <time>2019-10-07T06:38:57.070Z</time>
      </trkpt>
      <trkpt lat="27.397358" lon="87.051606">
        <ele>748</ele>
        <time>2019-10-07T06:39:42.070Z</time>
      </trkpt>
      <trkpt lat="27.397368" lon="87.051284">
        <ele>748</ele>
        <time>2019-10-07T06:40:47.070Z</time>
      </trkpt>
      <trkpt lat="27.397233" lon="87.050685">
        <ele>749</ele>
        <time>2019-10-07T06:41:47.070Z</time>
      </trkpt>
      <trkpt lat="27.397037" lon="87.050115">
        <ele>750.41000064</ele>
        <time>2019-10-07T06:42:47.070Z</time>
      </trkpt>
      <trkpt lat="27.396699" lon="87.049312">
        <ele>757.51000064</ele>
        <time>2019-10-07T06:44:28.070Z</time>
      </trkpt>
      <trkpt lat="27.39575" lon="87.047863">
        <ele>775.109781007725</ele>
        <time>2019-10-07T06:49:24.070Z</time>
      </trkpt>
      <trkpt lat="27.395436" lon="87.04747">
        <ele>777.22000128</ele>
        <time>2019-10-07T06:50:09.070Z</time>
      </trkpt>
      <trkpt lat="27.394874" lon="87.046861">
        <ele>784</ele>
        <time>2019-10-07T06:51:47.070Z</time>
      </trkpt>
      <trkpt lat="27.394405" lon="87.046599">
        <ele>791.81000064</ele>
        <time>2019-10-07T06:53:01.070Z</time>
      </trkpt>
      <trkpt lat="27.393815" lon="87.046423">
        <ele>800.82000128</ele>
        <time>2019-10-07T06:54:32.070Z</time>
      </trkpt>
      <trkpt lat="27.393688" lon="87.046121">
        <ele>805.41000064</ele>
        <time>2019-10-07T06:55:17.070Z</time>
      </trkpt>
      <trkpt lat="27.393652" lon="87.045881">
        <ele>811</ele>
        <time>2019-10-07T06:56:11.070Z</time>
      </trkpt>
      <trkpt lat="27.393314" lon="87.045699">
        <ele>815.31000064</ele>
        <time>2019-10-07T06:57:06.070Z</time>
      </trkpt>
      <trkpt lat="27.392865" lon="87.045354">
        <ele>805</ele>
        <time>2019-10-07T06:58:06.070Z</time>
      </trkpt>
      <trkpt lat="27.392579" lon="87.045555">
        <ele>797.38999936</ele>
        <time>2019-10-07T06:59:09.070Z</time>
      </trkpt>
      <trkpt lat="27.392565" lon="87.045409">
        <ele>781.95999744</ele>
        <time>2019-10-07T07:00:08.070Z</time>
      </trkpt>
      <trkpt lat="27.392603" lon="87.045297">
        <ele>790</ele>
        <time>2019-10-07T07:02:08.070Z</time>
      </trkpt>
      <trkpt lat="27.392625" lon="87.045408">
        <ele>767.75999744</ele>
        <time>2019-10-07T07:03:36.070Z</time>
      </trkpt>
      <trkpt lat="27.392498" lon="87.045399">
        <ele>760</ele>
        <time>2019-10-07T07:04:21.070Z</time>
      </trkpt>
      <trkpt lat="27.392086" lon="87.044872">
        <ele>764.41000064</ele>
        <time>2019-10-07T07:05:47.070Z</time>
      </trkpt>
      <trkpt lat="27.391615" lon="87.044373">
        <ele>763.17999872</ele>
        <time>2019-10-07T07:07:47.070Z</time>
      </trkpt>
      <trkpt lat="27.391362" lon="87.043857">
        <ele>760</ele>
        <time>2019-10-07T07:08:32.070Z</time>
      </trkpt>
      <trkpt lat="27.391435" lon="87.043523">
        <ele>763</ele>
        <time>2019-10-07T07:09:17.070Z</time>
      </trkpt>
      <trkpt lat="27.391093" lon="87.043607">
        <ele>763.53000192</ele>
        <time>2019-10-07T07:10:08.070Z</time>
      </trkpt>
      <trkpt lat="27.390834" lon="87.042985">
        <ele>767</ele>
        <time>2019-10-07T07:11:08.070Z</time>
      </trkpt>
      <trkpt lat="27.390739" lon="87.042552">
        <ele>766</ele>
        <time>2019-10-07T07:12:07.070Z</time>
      </trkpt>
      <trkpt lat="27.390512" lon="87.042222">
        <ele>769.04000256</ele>
        <time>2019-10-07T07:13:08.070Z</time>
      </trkpt>
      <trkpt lat="27.390137" lon="87.041949">
        <ele>778</ele>
        <time>2019-10-07T07:14:07.070Z</time>
      </trkpt>
      <trkpt lat="27.390236" lon="87.041421">
        <ele>776</ele>
        <time>2019-10-07T07:15:09.070Z</time>
      </trkpt>
      <trkpt lat="27.39035" lon="87.040398">
        <ele>781.2192207506</ele>
        <time>2019-10-07T07:16:09.070Z</time>
      </trkpt>
      <trkpt lat="27.390237" lon="87.040012">
        <ele>797</ele>
        <time>2019-10-07T07:17:09.070Z</time>
      </trkpt>
      <trkpt lat="27.390459" lon="87.039408">
        <ele>795.71000064</ele>
        <time>2019-10-07T07:18:10.070Z</time>
      </trkpt>
      <trkpt lat="27.390343" lon="87.03892">
        <ele>800.41000064</ele>
        <time>2019-10-07T07:19:07.070Z</time>
      </trkpt>
      <trkpt lat="27.390396" lon="87.038221">
        <ele>797.28999936</ele>
        <time>2019-10-07T07:20:10.070Z</time>
      </trkpt>
      <trkpt lat="27.39038" lon="87.03757">
        <ele>797.62000128</ele>
        <time>2019-10-07T07:21:06.070Z</time>
      </trkpt>
      <trkpt lat="27.390157" lon="87.036983">
        <ele>800</ele>
        <time>2019-10-07T07:22:06.070Z</time>
      </trkpt>
      <trkpt lat="27.389934" lon="87.036337">
        <ele>797</ele>
        <time>2019-10-07T07:23:09.070Z</time>
      </trkpt>
      <trkpt lat="27.389844" lon="87.035546">
        <ele>801.22000128</ele>
        <time>2019-10-07T07:24:09.070Z</time>
      </trkpt>
      <trkpt lat="27.389755" lon="87.034882">
        <ele>802.619621022744</ele>
        <time>2019-10-07T07:25:11.070Z</time>
      </trkpt>
      <trkpt lat="27.389344" lon="87.034529">
        <ele>803.609391443562</ele>
        <time>2019-10-07T07:26:09.070Z</time>
      </trkpt>
      <trkpt lat="27.388923" lon="87.034214">
        <ele>811</ele>
        <time>2019-10-07T07:27:08.070Z</time>
      </trkpt>
      <trkpt lat="27.388569" lon="87.033642">
        <ele>813.71000064</ele>
        <time>2019-10-07T07:28:10.070Z</time>
      </trkpt>
      <trkpt lat="27.388324" lon="87.032989">
        <ele>824.91000064</ele>
        <time>2019-10-07T07:29:12.070Z</time>
      </trkpt>
      <trkpt lat="27.387449" lon="87.032501">
        <ele>837</ele>
        <time>2019-10-07T07:31:27.070Z</time>
      </trkpt>
      <trkpt lat="27.38706" lon="87.032421">
        <ele>837.82000128</ele>
        <time>2019-10-07T07:32:12.070Z</time>
      </trkpt>
      <trkpt lat="27.386823" lon="87.03199">
        <ele>848.82000128</ele>
        <time>2019-10-07T07:33:47.070Z</time>
      </trkpt>
      <trkpt lat="27.386513" lon="87.031512">
        <ele>856.17999872</ele>
        <time>2019-10-07T07:34:47.070Z</time>
      </trkpt>
      <trkpt lat="27.386302" lon="87.030837">
        <ele>857</ele>
        <time>2019-10-07T07:35:47.070Z</time>
      </trkpt>
      <trkpt lat="27.385947" lon="87.03057">
        <ele>859.91000064</ele>
        <time>2019-10-07T07:36:32.070Z</time>
      </trkpt>
      <trkpt lat="27.386089" lon="87.03009">
        <ele>847.58999936</ele>
        <time>2019-10-07T07:37:17.070Z</time>
      </trkpt>
      <trkpt lat="27.385958" lon="87.029524">
        <ele>858.22000128</ele>
        <time>2019-10-07T07:38:09.070Z</time>
      </trkpt>
      <trkpt lat="27.385954" lon="87.028942">
        <ele>857</ele>
        <time>2019-10-07T07:39:09.070Z</time>
      </trkpt>
      <trkpt lat="27.385853" lon="87.02844">
        <ele>861.22000128</ele>
        <time>2019-10-07T07:40:09.070Z</time>
      </trkpt>
      <trkpt lat="27.385627" lon="87.027758">
        <ele>878.02000128</ele>
        <time>2019-10-07T07:41:08.070Z</time>
      </trkpt>
      <trkpt lat="27.385394" lon="87.026937">
        <ele>882.44000256</ele>
        <time>2019-10-07T07:42:09.070Z</time>
      </trkpt>
      <trkpt lat="27.385447" lon="87.026375">
        <ele>877.51000064</ele>
        <time>2019-10-07T07:44:08.070Z</time>
      </trkpt>
      <trkpt lat="27.38549" lon="87.026163">
        <ele>880</ele>
        <time>2019-10-07T07:45:07.070Z</time>
      </trkpt>
      <trkpt lat="27.385733" lon="87.02613">
        <ele>871.68999936</ele>
        <time>2019-10-07T07:46:06.070Z</time>
      </trkpt>
      <trkpt lat="27.385053" lon="87.027069">
        <ele>879.28999936</ele>
        <time>2019-10-07T07:47:10.070Z</time>
      </trkpt>
      <trkpt lat="27.386091" lon="87.026279">
        <ele>861.18999936</ele>
        <time>2019-10-07T07:48:11.070Z</time>
      </trkpt>
      <trkpt lat="27.386273" lon="87.025952">
        <ele>839.980979385472</ele>
        <time>2019-10-07T07:49:08.070Z</time>
      </trkpt>
      <trkpt lat="27.386162" lon="87.025897">
        <ele>815.17999872</ele>
        <time>2019-10-07T07:50:07.070Z</time>
      </trkpt>
      <trkpt lat="27.386296" lon="87.025449">
        <ele>798</ele>
        <time>2019-10-07T07:51:08.070Z</time>
      </trkpt>
      <trkpt lat="27.386381" lon="87.025184">
        <ele>895.97999872</ele>
        <time>2019-10-07T07:52:08.070Z</time>
      </trkpt>
      <trkpt lat="27.386561" lon="87.024841">
        <ele>936</ele>
        <time>2019-10-07T07:53:09.070Z</time>
      </trkpt>
      <trkpt lat="27.38658" lon="87.02447">
        <ele>941.97999872</ele>
        <time>2019-10-07T07:54:08.070Z</time>
      </trkpt>
      <trkpt lat="27.387001" lon="87.024106">
        <ele>945.22000128</ele>
        <time>2019-10-07T07:55:09.070Z</time>
      </trkpt>
      <trkpt lat="27.387371" lon="87.023504">
        <ele>944</ele>
        <time>2019-10-07T07:56:08.070Z</time>
      </trkpt>
      <trkpt lat="27.387594" lon="87.022876">
        <ele>958</ele>
        <time>2019-10-07T07:57:08.070Z</time>
      </trkpt>
      <trkpt lat="27.388041" lon="87.022258">
        <ele>941.62000128</ele>
        <time>2019-10-07T07:58:11.070Z</time>
      </trkpt>
      <trkpt lat="27.389532" lon="87.022493">
        <ele>936.48999936</ele>
        <time>2019-10-07T07:59:08.070Z</time>
      </trkpt>
      <trkpt lat="27.388878" lon="87.021382">
        <ele>934.58999936</ele>
        <time>2019-10-07T08:00:07.070Z</time>
      </trkpt>
      <trkpt lat="27.389229" lon="87.021075">
        <ele>933.58999936</ele>
        <time>2019-10-07T08:01:07.070Z</time>
      </trkpt>
      <trkpt lat="27.389575" lon="87.020749">
        <ele>928.77999872</ele>
        <time>2019-10-07T08:02:09.070Z</time>
      </trkpt>
      <trkpt lat="27.389999" lon="87.020627">
        <ele>932</ele>
        <time>2019-10-07T08:03:07.070Z</time>
      </trkpt>
      <trkpt lat="27.390323" lon="87.020257">
        <ele>953.82000128</ele>
        <time>2019-10-07T08:04:07.070Z</time>
      </trkpt>
      <trkpt lat="27.390845" lon="87.020067">
        <ele>948.58999936</ele>
        <time>2019-10-07T08:05:07.070Z</time>
      </trkpt>
      <trkpt lat="27.391231" lon="87.019853">
        <ele>965.02000128</ele>
        <time>2019-10-07T08:06:08.070Z</time>
      </trkpt>
      <trkpt lat="27.390899" lon="87.019657">
        <ele>956.97999872</ele>
        <time>2019-10-07T08:07:08.070Z</time>
      </trkpt>
      <trkpt lat="27.391061" lon="87.020084">
        <ele>973</ele>
        <time>2019-10-07T08:09:07.070Z</time>
      </trkpt>
      <trkpt lat="27.391541" lon="87.01948">
        <ele>980</ele>
        <time>2019-10-07T08:10:07.070Z</time>
      </trkpt>
      <trkpt lat="27.391868" lon="87.0191">
        <ele>984.509491311725</ele>
        <time>2019-10-07T08:11:08.070Z</time>
      </trkpt>
      <trkpt lat="27.392173" lon="87.019045">
        <ele>987</ele>
        <time>2019-10-07T08:12:08.070Z</time>
      </trkpt>
      <trkpt lat="27.39262" lon="87.018698">
        <ele>1000.38999936</ele>
        <time>2019-10-07T08:13:09.070Z</time>
      </trkpt>
      <trkpt lat="27.392962" lon="87.018411">
        <ele>1004.82000128</ele>
        <time>2019-10-07T08:14:07.070Z</time>
      </trkpt>
      <trkpt lat="27.393639" lon="87.018368">
        <ele>1006</ele>
        <time>2019-10-07T08:15:07.070Z</time>
      </trkpt>
      <trkpt lat="27.394108" lon="87.01778">
        <ele>1000.41000064</ele>
        <time>2019-10-07T08:16:07.070Z</time>
      </trkpt>
      <trkpt lat="27.394286" lon="87.017375">
        <ele>1009.82000128</ele>
        <time>2019-10-07T08:17:07.070Z</time>
      </trkpt>
      <trkpt lat="27.394629" lon="87.017103">
        <ele>1015.62000128</ele>
        <time>2019-10-07T08:18:11.070Z</time>
      </trkpt>
      <trkpt lat="27.394995" lon="87.016737">
        <ele>1025.82020096</ele>
        <time>2019-10-07T08:19:07.070Z</time>
      </trkpt>
      <trkpt lat="27.395558" lon="87.016631">
        <ele>1033.41010048</ele>
        <time>2019-10-07T08:20:07.070Z</time>
      </trkpt>
      <trkpt lat="27.39605" lon="87.016546">
        <ele>1032</ele>
        <time>2019-10-07T08:21:14.070Z</time>
      </trkpt>
      <trkpt lat="27.396357" lon="87.016696">
        <ele>1031</ele>
        <time>2019-10-07T08:22:08.070Z</time>
      </trkpt>
      <trkpt lat="27.39677" lon="87.016357">
        <ele>1046.81000064</ele>
        <time>2019-10-07T08:23:11.070Z</time>
      </trkpt>
      <trkpt lat="27.398511" lon="87.016494">
        <ele>1041.51000064</ele>
        <time>2019-10-07T08:24:08.070Z</time>
      </trkpt>
      <trkpt lat="27.396998" lon="87.015967">
        <ele>1048.18001152</ele>
        <time>2019-10-07T08:25:08.070Z</time>
      </trkpt>
      <trkpt lat="27.397406" lon="87.015817">
        <ele>1045.77999872</ele>
        <time>2019-10-07T08:26:09.070Z</time>
      </trkpt>
      <trkpt lat="27.397731" lon="87.015577">
        <ele>1058.88999936</ele>
        <time>2019-10-07T08:27:14.070Z</time>
      </trkpt>
      <trkpt lat="27.398045" lon="87.015432">
        <ele>1061.82000128</ele>
        <time>2019-10-07T08:28:07.070Z</time>
      </trkpt>
      <trkpt lat="27.397934" lon="87.015407">
        <ele>1073</ele>
        <time>2019-10-07T08:29:08.070Z</time>
      </trkpt>
      <trkpt lat="27.397991" lon="87.015303">
        <ele>1077.41000064</ele>
        <time>2019-10-07T08:30:07.070Z</time>
      </trkpt>
      <trkpt lat="27.397916" lon="87.015427">
        <ele>1076.71000064</ele>
        <time>2019-10-07T08:31:10.070Z</time>
      </trkpt>
      <trkpt lat="27.3981" lon="87.015219">
        <ele>1083.41000064</ele>
        <time>2019-10-07T08:32:07.070Z</time>
      </trkpt>
      <trkpt lat="27.398203" lon="87.014773">
        <ele>1090.51000064</ele>
        <time>2019-10-07T08:33:08.070Z</time>
      </trkpt>
      <trkpt lat="27.398049" lon="87.014749">
        <ele>1099.51000064</ele>
        <time>2019-10-07T08:34:08.070Z</time>
      </trkpt>
      <trkpt lat="27.397681" lon="87.014946">
        <ele>1106.91000064</ele>
        <time>2019-10-07T08:35:12.070Z</time>
      </trkpt>
      <trkpt lat="27.397829" lon="87.014828">
        <ele>1110.61000064</ele>
        <time>2019-10-07T08:36:09.070Z</time>
      </trkpt>
      <trkpt lat="27.398085" lon="87.014361">
        <ele>1115.02000128</ele>
        <time>2019-10-07T08:37:08.070Z</time>
      </trkpt>
      <trkpt lat="27.398023" lon="87.014023">
        <ele>1119.51000064</ele>
        <time>2019-10-07T08:38:08.070Z</time>
      </trkpt>
      <trkpt lat="27.398335" lon="87.013545">
        <ele>1123</ele>
        <time>2019-10-07T08:39:08.070Z</time>
      </trkpt>
      <trkpt lat="27.398517" lon="87.01319">
        <ele>1122</ele>
        <time>2019-10-07T08:40:08.070Z</time>
      </trkpt>
      <trkpt lat="27.398819" lon="87.012616">
        <ele>1124.23000192</ele>
        <time>2019-10-07T08:41:07.070Z</time>
      </trkpt>
      <trkpt lat="27.398616" lon="87.012153">
        <ele>1129.22000128</ele>
        <time>2019-10-07T08:42:09.070Z</time>
      </trkpt>
      <trkpt lat="27.398668" lon="87.012055">
        <ele>1132</ele>
        <time>2019-10-07T08:43:06.070Z</time>
      </trkpt>
      <trkpt lat="27.398995" lon="87.011695">
        <ele>1136.22000128</ele>
        <time>2019-10-07T08:44:09.070Z</time>
      </trkpt>
      <trkpt lat="27.399365" lon="87.011353">
        <ele>1150</ele>
        <time>2019-10-07T08:45:10.070Z</time>
      </trkpt>
      <trkpt lat="27.399256" lon="87.010846">
        <ele>1154</ele>
        <time>2019-10-07T08:46:08.070Z</time>
      </trkpt>
      <trkpt lat="27.399266" lon="87.010552">
        <ele>1152.61000064</ele>
        <time>2019-10-07T08:47:09.070Z</time>
      </trkpt>
      <trkpt lat="27.399186" lon="87.010187">
        <ele>1159.61000064</ele>
        <time>2019-10-07T08:48:09.070Z</time>
      </trkpt>
      <trkpt lat="27.398992" lon="87.010438">
        <ele>1166.81000064</ele>
        <time>2019-10-07T08:50:11.070Z</time>
      </trkpt>
      <trkpt lat="27.399197" lon="87.010637">
        <ele>1170.23000192</ele>
        <time>2019-10-07T08:51:07.070Z</time>
      </trkpt>
      <trkpt lat="27.399148" lon="87.010518">
        <ele>1181</ele>
        <time>2019-10-07T08:52:06.070Z</time>
      </trkpt>
      <trkpt lat="27.399155" lon="87.010401">
        <ele>1156</ele>
        <time>2019-10-07T08:53:06.070Z</time>
      </trkpt>
      <trkpt lat="27.39911" lon="87.010277">
        <ele>1176.19018948863</ele>
        <time>2019-10-07T08:58:11.070Z</time>
      </trkpt>
      <trkpt lat="27.399146" lon="87.01043">
        <ele>1155.28999936</ele>
        <time>2019-10-07T08:59:10.070Z</time>
      </trkpt>
      <trkpt lat="27.399168" lon="87.010104">
        <ele>1156.02000128</ele>
        <time>2019-10-07T09:01:08.070Z</time>
      </trkpt>
      <trkpt lat="27.399122" lon="87.00967">
        <ele>1161.51000064</ele>
        <time>2019-10-07T09:02:08.070Z</time>
      </trkpt>
      <trkpt lat="27.399216" lon="87.009175">
        <ele>1166.51000064</ele>
        <time>2019-10-07T09:03:08.070Z</time>
      </trkpt>
      <trkpt lat="27.399389" lon="87.008969">
        <ele>1172.04000256</ele>
        <time>2019-10-07T09:04:08.070Z</time>
      </trkpt>
      <trkpt lat="27.399227" lon="87.007956">
        <ele>1177</ele>
        <time>2019-10-07T09:05:08.070Z</time>
      </trkpt>
      <trkpt lat="27.399076" lon="87.00797">
        <ele>1180</ele>
        <time>2019-10-07T09:06:10.070Z</time>
      </trkpt>
      <trkpt lat="27.399017" lon="87.007708">
        <ele>1177.62000128</ele>
        <time>2019-10-07T09:07:06.070Z</time>
      </trkpt>
      <trkpt lat="27.398918" lon="87.007067">
        <ele>1182.81000064</ele>
        <time>2019-10-07T09:08:11.070Z</time>
      </trkpt>
      <trkpt lat="27.398634" lon="87.006363">
        <ele>1187</ele>
        <time>2019-10-07T09:09:11.070Z</time>
      </trkpt>
      <trkpt lat="27.398378" lon="87.00598">
        <ele>1184</ele>
        <time>2019-10-07T09:10:11.070Z</time>
      </trkpt>
      <trkpt lat="27.398232" lon="87.005139">
        <ele>1184.91000064</ele>
        <time>2019-10-07T09:11:12.070Z</time>
      </trkpt>
      <trkpt lat="27.397796" lon="87.00456">
        <ele>1189.71000064</ele>
        <time>2019-10-07T09:12:10.070Z</time>
      </trkpt>
      <trkpt lat="27.397894" lon="87.00397">
        <ele>1199</ele>
        <time>2019-10-07T09:13:09.070Z</time>
      </trkpt>
      <trkpt lat="27.397651" lon="87.003192">
        <ele>1201</ele>
        <time>2019-10-07T09:14:10.070Z</time>
      </trkpt>
      <trkpt lat="27.397291" lon="87.00275">
        <ele>1205.71000064</ele>
        <time>2019-10-07T09:15:10.070Z</time>
      </trkpt>
      <trkpt lat="27.396648" lon="87.002262">
        <ele>1211.31000064</ele>
        <time>2019-10-07T09:16:16.070Z</time>
      </trkpt>
      <trkpt lat="27.396905" lon="87.002362">
        <ele>1211.71000064</ele>
        <time>2019-10-07T09:17:10.070Z</time>
      </trkpt>
      <trkpt lat="27.39655" lon="87.001349">
        <ele>1213</ele>
        <time>2019-10-07T09:18:08.070Z</time>
      </trkpt>
      <trkpt lat="27.396162" lon="87.000883">
        <ele>1218.62000128</ele>
        <time>2019-10-07T09:19:06.070Z</time>
      </trkpt>
      <trkpt lat="27.395737" lon="87.000698">
        <ele>1216.18999936</ele>
        <time>2019-10-07T09:20:11.070Z</time>
      </trkpt>
      <trkpt lat="27.395631" lon="86.999966">
        <ele>1209</ele>
        <time>2019-10-07T09:21:08.070Z</time>
      </trkpt>
      <trkpt lat="27.395578" lon="86.999496">
        <ele>1202</ele>
        <time>2019-10-07T09:22:06.070Z</time>
      </trkpt>
      <trkpt lat="27.395644" lon="86.99879">
        <ele>1205</ele>
        <time>2019-10-07T09:23:09.070Z</time>
      </trkpt>
      <trkpt lat="27.395545" lon="86.998108">
        <ele>1209.51000064</ele>
        <time>2019-10-07T09:24:08.070Z</time>
      </trkpt>
      <trkpt lat="27.395686" lon="86.997541">
        <ele>1208</ele>
        <time>2019-10-07T09:25:08.070Z</time>
      </trkpt>
      <trkpt lat="27.395746" lon="86.99731">
        <ele>1211</ele>
        <time>2019-10-07T09:26:15.070Z</time>
      </trkpt>
      <trkpt lat="27.395903" lon="86.996378">
        <ele>1211.51000064</ele>
        <time>2019-10-07T09:27:08.070Z</time>
      </trkpt>
      <trkpt lat="27.39597" lon="86.995665">
        <ele>1217</ele>
        <time>2019-10-07T09:28:09.070Z</time>
      </trkpt>
      <trkpt lat="27.39614" lon="86.995784">
        <ele>1217</ele>
        <time>2019-10-07T09:29:09.070Z</time>
      </trkpt>
      <trkpt lat="27.396161" lon="86.995472">
        <ele>1217.02000128</ele>
        <time>2019-10-07T09:30:08.070Z</time>
      </trkpt>
      <trkpt lat="27.396179" lon="86.994841">
        <ele>1222.81882047846</ele>
        <time>2019-10-07T09:31:17.070Z</time>
      </trkpt>
      <trkpt lat="27.396152" lon="86.994314">
        <ele>1228.61000064</ele>
        <time>2019-10-07T09:32:09.070Z</time>
      </trkpt>
      <trkpt lat="27.396146" lon="86.99381">
        <ele>1236.02000128</ele>
        <time>2019-10-07T09:33:08.070Z</time>
      </trkpt>
      <trkpt lat="27.396184" lon="86.993053">
        <ele>1245</ele>
        <time>2019-10-07T09:34:07.070Z</time>
      </trkpt>
      <trkpt lat="27.396133" lon="86.992413">
        <ele>1248</ele>
        <time>2019-10-07T09:35:08.070Z</time>
      </trkpt>
      <trkpt lat="27.39611" lon="86.992007">
        <ele>1253.31000064</ele>
        <time>2019-10-07T09:36:06.070Z</time>
      </trkpt>
      <trkpt lat="27.396264" lon="86.991455">
        <ele>1259</ele>
        <time>2019-10-07T09:37:08.070Z</time>
      </trkpt>
      <trkpt lat="27.396326" lon="86.990966">
        <ele>1264</ele>
        <time>2019-10-07T09:38:08.070Z</time>
      </trkpt>
      <trkpt lat="27.396506" lon="86.990449">
        <ele>1269.31000064</ele>
        <time>2019-10-07T09:39:06.070Z</time>
      </trkpt>
      <trkpt lat="27.396449" lon="86.989912">
        <ele>1273.51000064</ele>
        <time>2019-10-07T09:40:08.070Z</time>
      </trkpt>
      <trkpt lat="27.396414" lon="86.989341">
        <ele>1279.50898234955</ele>
        <time>2019-10-07T09:41:08.070Z</time>
      </trkpt>
      <trkpt lat="27.39615" lon="86.988871">
        <ele>1285.62000128</ele>
        <time>2019-10-07T09:42:06.070Z</time>
      </trkpt>
      <trkpt lat="27.396321" lon="86.988515">
        <ele>1291.62000128</ele>
        <time>2019-10-07T09:43:06.070Z</time>
      </trkpt>
      <trkpt lat="27.395956" lon="86.988271">
        <ele>1297.22000128</ele>
        <time>2019-10-07T09:44:09.070Z</time>
      </trkpt>
      <trkpt lat="27.395961" lon="86.98789">
        <ele>1306.02000128</ele>
        <time>2019-10-07T09:45:08.070Z</time>
      </trkpt>
      <trkpt lat="27.395916" lon="86.987456">
        <ele>1306.61000064</ele>
        <time>2019-10-07T09:46:09.070Z</time>
      </trkpt>
      <trkpt lat="27.395742" lon="86.987167">
        <ele>1313.38999936</ele>
        <time>2019-10-07T09:47:09.070Z</time>
      </trkpt>
      <trkpt lat="27.395606" lon="86.987339">
        <ele>1313.22000128</ele>
        <time>2019-10-07T09:48:09.070Z</time>
      </trkpt>
      <trkpt lat="27.396018" lon="86.987187">
        <ele>1323.31000064</ele>
        <time>2019-10-07T09:49:06.070Z</time>
      </trkpt>
      <trkpt lat="27.396358" lon="86.987128">
        <ele>1325</ele>
        <time>2019-10-07T09:50:06.070Z</time>
      </trkpt>
      <trkpt lat="27.396718" lon="86.986788">
        <ele>1341</ele>
        <time>2019-10-07T09:51:07.070Z</time>
      </trkpt>
      <trkpt lat="27.396565" lon="86.98637">
        <ele>1347.01898262345</ele>
        <time>2019-10-07T09:52:08.070Z</time>
      </trkpt>
      <trkpt lat="27.396709" lon="86.986038">
        <ele>1353.41000064</ele>
        <time>2019-10-07T09:53:07.070Z</time>
      </trkpt>
      <trkpt lat="27.396916" lon="86.98571">
        <ele>1360.02000128</ele>
        <time>2019-10-07T09:54:08.070Z</time>
      </trkpt>
      <trkpt lat="27.397244" lon="86.98535">
        <ele>1364.51000064</ele>
        <time>2019-10-07T09:55:08.070Z</time>
      </trkpt>
      <trkpt lat="27.397596" lon="86.984741">
        <ele>1360.38999936</ele>
        <time>2019-10-07T09:56:09.070Z</time>
      </trkpt>
      <trkpt lat="27.397655" lon="86.984444">
        <ele>1351.61000064</ele>
        <time>2019-10-07T09:57:09.070Z</time>
      </trkpt>
      <trkpt lat="27.397723" lon="86.984886">
        <ele>1356.62000128</ele>
        <time>2019-10-07T09:58:16.070Z</time>
      </trkpt>
      <trkpt lat="27.398144" lon="86.984811">
        <ele>1355</ele>
        <time>2019-10-07T09:59:08.070Z</time>
      </trkpt>
      <trkpt lat="27.398753" lon="86.984577">
        <ele>1348</ele>
        <time>2019-10-07T10:00:07.070Z</time>
      </trkpt>
      <trkpt lat="27.39895" lon="86.983973">
        <ele>1350.81918235978</ele>
        <time>2019-10-07T10:01:07.070Z</time>
      </trkpt>
      <trkpt lat="27.39928" lon="86.983882">
        <ele>1357.71000064</ele>
        <time>2019-10-07T10:02:10.070Z</time>
      </trkpt>
      <trkpt lat="27.399657" lon="86.98375">
        <ele>1365.22000128</ele>
        <time>2019-10-07T10:03:09.070Z</time>
      </trkpt>
      <trkpt lat="27.400055" lon="86.983683">
        <ele>1371.51000064</ele>
        <time>2019-10-07T10:04:08.070Z</time>
      </trkpt>
      <trkpt lat="27.400566" lon="86.983726">
        <ele>1375</ele>
        <time>2019-10-07T10:05:09.070Z</time>
      </trkpt>
      <trkpt lat="27.401028" lon="86.983521">
        <ele>1377.41000064</ele>
        <time>2019-10-07T10:06:07.070Z</time>
      </trkpt>
      <trkpt lat="27.403244" lon="86.988135">
        <ele>1405.61876335728</ele>
        <time>2019-10-07T10:20:46.070Z</time>
      </trkpt>
      <trkpt lat="27.401203" lon="86.988139">
        <ele>1410</ele>
        <time>2019-10-07T10:21:34.070Z</time>
      </trkpt>
      <trkpt lat="27.401094" lon="86.988174">
        <ele>1415.41000064</ele>
        <time>2019-10-07T10:22:47.070Z</time>
      </trkpt>
      <trkpt lat="27.400667" lon="86.987466">
        <ele>1419</ele>
        <time>2019-10-07T10:23:47.070Z</time>
      </trkpt>
      <trkpt lat="27.401617" lon="86.986791">
        <ele>1417</ele>
        <time>2019-10-07T10:24:47.070Z</time>
      </trkpt>
      <trkpt lat="27.402569" lon="86.986511">
        <ele>1414.58999936</ele>
        <time>2019-10-07T10:25:47.070Z</time>
      </trkpt>
      <trkpt lat="27.405356" lon="86.98551">
        <ele>1413</ele>
        <time>2019-10-07T10:26:32.070Z</time>
      </trkpt>
      <trkpt lat="27.405428" lon="86.985234">
        <ele>1418.41000064</ele>
        <time>2019-10-07T10:27:17.070Z</time>
      </trkpt>
      <trkpt lat="27.405513" lon="86.984961">
        <ele>1425.42000128</ele>
        <time>2019-10-07T10:28:20.070Z</time>
      </trkpt>
      <trkpt lat="27.405982" lon="86.984519">
        <ele>1435.41000064</ele>
        <time>2019-10-07T10:30:07.070Z</time>
      </trkpt>
      <trkpt lat="27.406177" lon="86.983998">
        <ele>1438</ele>
        <time>2019-10-07T10:31:10.070Z</time>
      </trkpt>
      <trkpt lat="27.406676" lon="86.983664">
        <ele>1433.61000064</ele>
        <time>2019-10-07T10:32:09.070Z</time>
      </trkpt>
      <trkpt lat="27.406611" lon="86.983277">
        <ele>1437</ele>
        <time>2019-10-07T10:33:08.070Z</time>
      </trkpt>
      <trkpt lat="27.407096" lon="86.983149">
        <ele>1445</ele>
        <time>2019-10-07T10:34:10.070Z</time>
      </trkpt>
      <trkpt lat="27.406262" lon="86.984016">
        <ele>1451.82000128</ele>
        <time>2019-10-07T10:35:07.070Z</time>
      </trkpt>
      <trkpt lat="27.406689" lon="86.982906">
        <ele>1456</ele>
        <time>2019-10-07T10:36:06.070Z</time>
      </trkpt>
      <trkpt lat="27.406385" lon="86.98265">
        <ele>1464.31000064</ele>
        <time>2019-10-07T10:37:06.070Z</time>
      </trkpt>
      <trkpt lat="27.406211" lon="86.982308">
        <ele>1471.51000064</ele>
        <time>2019-10-07T10:38:08.070Z</time>
      </trkpt>
      <trkpt lat="27.406111" lon="86.98189">
        <ele>1477.31000064</ele>
        <time>2019-10-07T10:39:06.070Z</time>
      </trkpt>
      <trkpt lat="27.405701" lon="86.9816">
        <ele>1473</ele>
        <time>2019-10-07T10:40:09.070Z</time>
      </trkpt>
      <trkpt lat="27.405786" lon="86.981091">
        <ele>1481.38999936</ele>
        <time>2019-10-07T10:41:09.070Z</time>
      </trkpt>
      <trkpt lat="27.405884" lon="86.980527">
        <ele>1493.22000128</ele>
        <time>2019-10-07T10:42:09.070Z</time>
      </trkpt>
      <trkpt lat="27.406175" lon="86.98019">
        <ele>1506.71000064</ele>
        <time>2019-10-07T10:43:10.070Z</time>
      </trkpt>
      <trkpt lat="27.406477" lon="86.980153">
        <ele>1518</ele>
        <time>2019-10-07T10:44:08.070Z</time>
      </trkpt>
      <trkpt lat="27.407778" lon="86.977312">
        <ele>1512.02000128</ele>
        <time>2019-10-07T10:45:08.070Z</time>
      </trkpt>
      <trkpt lat="27.407039" lon="86.979275">
        <ele>1510.13000192</ele>
        <time>2019-10-07T10:46:10.070Z</time>
      </trkpt>
      <trkpt lat="27.406772" lon="86.978877">
        <ele>1499.82000128</ele>
        <time>2019-10-07T10:47:07.070Z</time>
      </trkpt>
      <trkpt lat="27.406482" lon="86.978715">
        <ele>1501.42000128</ele>
        <time>2019-10-07T10:48:10.070Z</time>
      </trkpt>
      <trkpt lat="27.406506" lon="86.978581">
        <ele>1489.71000064</ele>
        <time>2019-10-07T10:50:10.070Z</time>
      </trkpt>
      <trkpt lat="27.406466" lon="86.978713">
        <ele>1483.22000128</ele>
        <time>2019-10-07T10:52:09.070Z</time>
      </trkpt>
      <trkpt lat="27.406421" lon="86.978601">
        <ele>1488</ele>
        <time>2019-10-07T10:53:09.070Z</time>
      </trkpt>
      <trkpt lat="27.406475" lon="86.978456">
        <ele>1495</ele>
        <time>2019-10-07T10:55:30.070Z</time>
      </trkpt>
      <trkpt lat="27.406406" lon="86.978565">
        <ele>1495</ele>
        <time>2019-10-07T10:56:15.070Z</time>
      </trkpt>
      <trkpt lat="27.410912" lon="86.966922">
        <ele>2207.39990234375</ele>
        <time>2019-10-08T06:24:54.056Z</time>
      </trkpt>
      <trkpt lat="27.410948" lon="86.966919">
        <ele>2135</ele>
        <time>2019-10-08T06:25:12.056Z</time>
      </trkpt>
      <trkpt lat="27.411237" lon="86.966611">
        <ele>2142.13319936</ele>
        <time>2019-10-08T06:26:24.056Z</time>
      </trkpt>
      <trkpt lat="27.411471" lon="86.966458">
        <ele>2155.93319936</ele>
        <time>2019-10-08T06:28:18.056Z</time>
      </trkpt>
      <trkpt lat="27.411622" lon="86.966523">
        <ele>2164.06659968</ele>
        <time>2019-10-08T06:29:34.056Z</time>
      </trkpt>
      <trkpt lat="27.411708" lon="86.966396">
        <ele>2173.46659968</ele>
        <time>2019-10-08T06:31:08.056Z</time>
      </trkpt>
      <trkpt lat="27.411792" lon="86.966396">
        <ele>2176.26659968</ele>
        <time>2019-10-08T06:32:46.056Z</time>
      </trkpt>
      <trkpt lat="27.411975" lon="86.966167">
        <ele>2187.86659968</ele>
        <time>2019-10-08T06:34:32.056Z</time>
      </trkpt>
      <trkpt lat="27.411998" lon="86.966046">
        <ele>2193.86659968</ele>
        <time>2019-10-08T06:35:22.056Z</time>
      </trkpt>
      <trkpt lat="27.412079" lon="86.965765">
        <ele>2201.76659968</ele>
        <time>2019-10-08T06:36:31.056Z</time>
      </trkpt>
      <trkpt lat="27.412159" lon="86.965561">
        <ele>2207.66659968</ele>
        <time>2019-10-08T06:37:20.056Z</time>
      </trkpt>
      <trkpt lat="27.412325" lon="86.96545">
        <ele>2216</ele>
        <time>2019-10-08T06:38:34.056Z</time>
      </trkpt>
      <trkpt lat="27.412512" lon="86.965318">
        <ele>2223.66659968</ele>
        <time>2019-10-08T06:39:40.056Z</time>
      </trkpt>
      <trkpt lat="27.412591" lon="86.965127">
        <ele>2228</ele>
        <time>2019-10-08T06:40:25.056Z</time>
      </trkpt>
      <trkpt lat="27.412744" lon="86.964995">
        <ele>2233</ele>
        <time>2019-10-08T06:41:19.056Z</time>
      </trkpt>
      <trkpt lat="27.412927" lon="86.964768">
        <ele>2240.36659968</ele>
        <time>2019-10-08T06:42:37.056Z</time>
      </trkpt>
      <trkpt lat="27.413036" lon="86.964668">
        <ele>2245.73319936</ele>
        <time>2019-10-08T06:43:22.056Z</time>
      </trkpt>
      <trkpt lat="27.413118" lon="86.964506">
        <ele>2253.46659968</ele>
        <time>2019-10-08T06:44:28.056Z</time>
      </trkpt>
      <trkpt lat="27.413221" lon="86.964327">
        <ele>2259.16659968</ele>
        <time>2019-10-08T06:45:25.056Z</time>
      </trkpt>
      <trkpt lat="27.413267" lon="86.964001">
        <ele>2266.26659968</ele>
        <time>2019-10-08T06:46:36.056Z</time>
      </trkpt>
      <trkpt lat="27.413315" lon="86.963788">
        <ele>2271</ele>
        <time>2019-10-08T06:47:21.056Z</time>
      </trkpt>
      <trkpt lat="27.413454" lon="86.963685">
        <ele>2278.76659968</ele>
        <time>2019-10-08T06:48:21.056Z</time>
      </trkpt>
      <trkpt lat="27.413596" lon="86.963772">
        <ele>2284.56659968</ele>
        <time>2019-10-08T06:49:19.056Z</time>
      </trkpt>
      <trkpt lat="27.413783" lon="86.963598">
        <ele>2295.76659968</ele>
        <time>2019-10-08T06:51:21.056Z</time>
      </trkpt>
      <trkpt lat="27.414009" lon="86.963695">
        <ele>2303.66659968</ele>
        <time>2019-10-08T06:52:20.056Z</time>
      </trkpt>
      <trkpt lat="27.413833" lon="86.963315">
        <ele>2309.76659968</ele>
        <time>2019-10-08T06:53:21.056Z</time>
      </trkpt>
      <trkpt lat="27.413946" lon="86.963192">
        <ele>2315.86659968</ele>
        <time>2019-10-08T06:54:22.056Z</time>
      </trkpt>
      <trkpt lat="27.414063" lon="86.962964">
        <ele>2321.56659968</ele>
        <time>2019-10-08T06:55:19.056Z</time>
      </trkpt>
      <trkpt lat="27.414184" lon="86.962964">
        <ele>2328</ele>
        <time>2019-10-08T06:56:23.056Z</time>
      </trkpt>
      <trkpt lat="27.414348" lon="86.962888">
        <ele>2333</ele>
        <time>2019-10-08T06:57:22.056Z</time>
      </trkpt>
      <trkpt lat="27.414459" lon="86.962952">
        <ele>2339</ele>
        <time>2019-10-08T06:58:20.056Z</time>
      </trkpt>
      <trkpt lat="27.414657" lon="86.963032">
        <ele>2343</ele>
        <time>2019-10-08T06:59:20.056Z</time>
      </trkpt>
      <trkpt lat="27.414821" lon="86.962956">
        <ele>2349</ele>
        <time>2019-10-08T07:00:23.056Z</time>
      </trkpt>
      <trkpt lat="27.414945" lon="86.962914">
        <ele>2355.86659968</ele>
        <time>2019-10-08T07:01:22.056Z</time>
      </trkpt>
      <trkpt lat="27.414963" lon="86.962735">
        <ele>2361.86659968</ele>
        <time>2019-10-08T07:02:22.056Z</time>
      </trkpt>
      <trkpt lat="27.415034" lon="86.962461">
        <ele>2368</ele>
        <time>2019-10-08T07:03:21.056Z</time>
      </trkpt>
      <trkpt lat="27.415133" lon="86.962426">
        <ele>2373.76659968</ele>
        <time>2019-10-08T07:04:21.056Z</time>
      </trkpt>
      <trkpt lat="27.41526" lon="86.962385">
        <ele>2380.86659968</ele>
        <time>2019-10-08T07:05:22.056Z</time>
      </trkpt>
      <trkpt lat="27.415354" lon="86.962291">
        <ele>2387</ele>
        <time>2019-10-08T07:06:22.056Z</time>
      </trkpt>
      <trkpt lat="27.415508" lon="86.962143">
        <ele>2392.86659968</ele>
        <time>2019-10-08T07:07:22.056Z</time>
      </trkpt>
      <trkpt lat="27.415614" lon="86.962056">
        <ele>2398.76659968</ele>
        <time>2019-10-08T07:08:21.056Z</time>
      </trkpt>
      <trkpt lat="27.415751" lon="86.961876">
        <ele>2406.73319936</ele>
        <time>2019-10-08T07:09:22.056Z</time>
      </trkpt>
      <trkpt lat="27.415959" lon="86.961663">
        <ele>2418.96659968</ele>
        <time>2019-10-08T07:11:23.056Z</time>
      </trkpt>
      <trkpt lat="27.416032" lon="86.961576">
        <ele>2423.86659968</ele>
        <time>2019-10-08T07:12:22.056Z</time>
      </trkpt>
      <trkpt lat="27.416144" lon="86.961543">
        <ele>2430.96659968</ele>
        <time>2019-10-08T07:13:23.056Z</time>
      </trkpt>
      <trkpt lat="27.416194" lon="86.961309">
        <ele>2437.93319936</ele>
        <time>2019-10-08T07:14:23.056Z</time>
      </trkpt>
      <trkpt lat="27.416453" lon="86.961044">
        <ele>2446</ele>
        <time>2019-10-08T07:16:20.056Z</time>
      </trkpt>
      <trkpt lat="27.416484" lon="86.960841">
        <ele>2453.53319936</ele>
        <time>2019-10-08T07:17:21.056Z</time>
      </trkpt>
      <trkpt lat="27.416631" lon="86.96089">
        <ele>2460.76659968</ele>
        <time>2019-10-08T07:18:21.056Z</time>
      </trkpt>
      <trkpt lat="27.416817" lon="86.960916">
        <ele>2466.13319936</ele>
        <time>2019-10-08T07:19:19.056Z</time>
      </trkpt>
      <trkpt lat="27.41705" lon="86.960907">
        <ele>2471</ele>
        <time>2019-10-08T07:20:22.056Z</time>
      </trkpt>
      <trkpt lat="27.417206" lon="86.961018">
        <ele>2477</ele>
        <time>2019-10-08T07:21:20.056Z</time>
      </trkpt>
      <trkpt lat="27.417328" lon="86.96096">
        <ele>2482.76659968</ele>
        <time>2019-10-08T07:22:21.056Z</time>
      </trkpt>
      <trkpt lat="27.41747" lon="86.960912">
        <ele>2489.13319936</ele>
        <time>2019-10-08T07:23:19.056Z</time>
      </trkpt>
      <trkpt lat="27.417567" lon="86.960829">
        <ele>2494.86659968</ele>
        <time>2019-10-08T07:24:22.056Z</time>
      </trkpt>
      <trkpt lat="27.417682" lon="86.96072">
        <ele>2502</ele>
        <time>2019-10-08T07:25:22.056Z</time>
      </trkpt>
      <trkpt lat="27.417808" lon="86.960489">
        <ele>2507.86659968</ele>
        <time>2019-10-08T07:26:22.056Z</time>
      </trkpt>
      <trkpt lat="27.418048" lon="86.960417">
        <ele>2514.86659968</ele>
        <time>2019-10-08T07:27:22.056Z</time>
      </trkpt>
      <trkpt lat="27.418202" lon="86.960271">
        <ele>2519.96659968</ele>
        <time>2019-10-08T07:28:23.056Z</time>
      </trkpt>
      <trkpt lat="27.418252" lon="86.960162">
        <ele>2526.96659968</ele>
        <time>2019-10-08T07:29:23.056Z</time>
      </trkpt>
      <trkpt lat="27.418358" lon="86.959831">
        <ele>2539.86659968</ele>
        <time>2019-10-08T07:31:22.056Z</time>
      </trkpt>
      <trkpt lat="27.418487" lon="86.959633">
        <ele>2544.86659968</ele>
        <time>2019-10-08T07:32:22.056Z</time>
      </trkpt>
      <trkpt lat="27.418679" lon="86.95953">
        <ele>2551.96659968</ele>
        <time>2019-10-08T07:33:23.056Z</time>
      </trkpt>
      <trkpt lat="27.419038" lon="86.959324">
        <ele>2553</ele>
        <time>2019-10-08T07:37:26.056Z</time>
      </trkpt>
      <trkpt lat="27.418781" lon="86.959489">
        <ele>2552.03340032</ele>
        <time>2019-10-08T07:38:23.056Z</time>
      </trkpt>
      <trkpt lat="27.419062" lon="86.959047">
        <ele>2555.96659968</ele>
        <time>2019-10-08T07:40:23.056Z</time>
      </trkpt>
      <trkpt lat="27.419307" lon="86.958934">
        <ele>2562.96659968</ele>
        <time>2019-10-08T07:41:23.056Z</time>
      </trkpt>
      <trkpt lat="27.419355" lon="86.958668">
        <ele>2568.56659968</ele>
        <time>2019-10-08T07:42:19.056Z</time>
      </trkpt>
      <trkpt lat="27.419604" lon="86.958473">
        <ele>2577.5660338273</ele>
        <time>2019-10-08T07:43:49.056Z</time>
      </trkpt>
      <trkpt lat="27.419799" lon="86.958539">
        <ele>2579.93340032</ele>
        <time>2019-10-08T07:44:34.056Z</time>
      </trkpt>
      <trkpt lat="27.420199" lon="86.958376">
        <ele>2579.76659968</ele>
        <time>2019-10-08T07:46:01.056Z</time>
      </trkpt>
      <trkpt lat="27.420459" lon="86.958185">
        <ele>2584.53319936</ele>
        <time>2019-10-08T07:47:01.056Z</time>
      </trkpt>
      <trkpt lat="27.420728" lon="86.957988">
        <ele>2587.23340032</ele>
        <time>2019-10-08T07:48:01.056Z</time>
      </trkpt>
      <trkpt lat="27.420852" lon="86.957721">
        <ele>2587.53319936</ele>
        <time>2019-10-08T07:48:46.056Z</time>
      </trkpt>
      <trkpt lat="27.421062" lon="86.957574">
        <ele>2591</ele>
        <time>2019-10-08T07:49:31.056Z</time>
      </trkpt>
      <trkpt lat="27.4213" lon="86.95719">
        <ele>2589.33340032</ele>
        <time>2019-10-08T07:50:20.056Z</time>
      </trkpt>
      <trkpt lat="27.421514" lon="86.957139">
        <ele>2586.13340032</ele>
        <time>2019-10-08T07:51:22.056Z</time>
      </trkpt>
      <trkpt lat="27.421723" lon="86.95684">
        <ele>2584</ele>
        <time>2019-10-08T07:52:24.056Z</time>
      </trkpt>
      <trkpt lat="27.42191" lon="86.956631">
        <ele>2584</ele>
        <time>2019-10-08T07:54:21.056Z</time>
      </trkpt>
      <trkpt lat="27.422018" lon="86.956304">
        <ele>2589.96659968</ele>
        <time>2019-10-08T07:55:23.056Z</time>
      </trkpt>
      <trkpt lat="27.422196" lon="86.955892">
        <ele>2595.96659968</ele>
        <time>2019-10-08T07:56:23.056Z</time>
      </trkpt>
      <trkpt lat="27.422383" lon="86.955579">
        <ele>2599</ele>
        <time>2019-10-08T07:57:21.056Z</time>
      </trkpt>
      <trkpt lat="27.422325" lon="86.955246">
        <ele>2604</ele>
        <time>2019-10-08T07:58:21.056Z</time>
      </trkpt>
      <trkpt lat="27.422388" lon="86.95495">
        <ele>2610</ele>
        <time>2019-10-08T07:59:20.056Z</time>
      </trkpt>
      <trkpt lat="27.422385" lon="86.954718">
        <ele>2614.93319936</ele>
        <time>2019-10-08T08:00:23.056Z</time>
      </trkpt>
      <trkpt lat="27.422424" lon="86.954575">
        <ele>2621</ele>
        <time>2019-10-08T08:01:22.056Z</time>
      </trkpt>
      <trkpt lat="27.422342" lon="86.954403">
        <ele>2626.66659968</ele>
        <time>2019-10-08T08:02:20.056Z</time>
      </trkpt>
      <trkpt lat="27.422384" lon="86.954103">
        <ele>2632.86573422281</ele>
        <time>2019-10-08T08:03:22.056Z</time>
      </trkpt>
      <trkpt lat="27.422447" lon="86.954007">
        <ele>2637.86659968</ele>
        <time>2019-10-08T08:04:22.056Z</time>
      </trkpt>
      <trkpt lat="27.422407" lon="86.953819">
        <ele>2644.76659968</ele>
        <time>2019-10-08T08:05:21.056Z</time>
      </trkpt>
      <trkpt lat="27.422513" lon="86.95373">
        <ele>2650.73319936</ele>
        <time>2019-10-08T08:06:22.056Z</time>
      </trkpt>
      <trkpt lat="27.42252" lon="86.953587">
        <ele>2657.96659968</ele>
        <time>2019-10-08T08:07:23.056Z</time>
      </trkpt>
      <trkpt lat="27.422601" lon="86.953516">
        <ele>2662.86659968</ele>
        <time>2019-10-08T08:08:22.056Z</time>
      </trkpt>
      <trkpt lat="27.422716" lon="86.953331">
        <ele>2669</ele>
        <time>2019-10-08T08:09:21.056Z</time>
      </trkpt>
      <trkpt lat="27.422691" lon="86.952914">
        <ele>2672.76659968</ele>
        <time>2019-10-08T08:10:21.056Z</time>
      </trkpt>
      <trkpt lat="27.422638" lon="86.952534">
        <ele>2677.06659968</ele>
        <time>2019-10-08T08:11:24.056Z</time>
      </trkpt>
      <trkpt lat="27.422601" lon="86.95229">
        <ele>2684.16659968</ele>
        <time>2019-10-08T08:12:25.056Z</time>
      </trkpt>
      <trkpt lat="27.422656" lon="86.952038">
        <ele>2688.96659968</ele>
        <time>2019-10-08T08:13:23.056Z</time>
      </trkpt>
      <trkpt lat="27.422814" lon="86.951906">
        <ele>2694.76659968</ele>
        <time>2019-10-08T08:14:21.056Z</time>
      </trkpt>
      <trkpt lat="27.422964" lon="86.951796">
        <ele>2699.76659968</ele>
        <time>2019-10-08T08:15:21.056Z</time>
      </trkpt>
      <trkpt lat="27.423266" lon="86.951349">
        <ele>2704</ele>
        <time>2019-10-08T08:16:21.056Z</time>
      </trkpt>
      <trkpt lat="27.423318" lon="86.95119">
        <ele>2709</ele>
        <time>2019-10-08T08:17:21.056Z</time>
      </trkpt>
      <trkpt lat="27.423466" lon="86.950963">
        <ele>2715.53319936</ele>
        <time>2019-10-08T08:18:21.056Z</time>
      </trkpt>
      <trkpt lat="27.423396" lon="86.950627">
        <ele>2720</ele>
        <time>2019-10-08T08:19:20.056Z</time>
      </trkpt>
      <trkpt lat="27.423447" lon="86.950414">
        <ele>2725.96659968</ele>
        <time>2019-10-08T08:20:23.056Z</time>
      </trkpt>
      <trkpt lat="27.42363" lon="86.95009">
        <ele>2731</ele>
        <time>2019-10-08T08:21:21.056Z</time>
      </trkpt>
      <trkpt lat="27.423921" lon="86.949679">
        <ele>2732.66659968</ele>
        <time>2019-10-08T08:22:20.056Z</time>
      </trkpt>
      <trkpt lat="27.42401" lon="86.949198">
        <ele>2734.26659968</ele>
        <time>2019-10-08T08:23:26.056Z</time>
      </trkpt>
      <trkpt lat="27.423886" lon="86.948943">
        <ele>2739.53319936</ele>
        <time>2019-10-08T08:24:21.056Z</time>
      </trkpt>
      <trkpt lat="27.423907" lon="86.948793">
        <ele>2744.76659968</ele>
        <time>2019-10-08T08:25:21.056Z</time>
      </trkpt>
      <trkpt lat="27.423863" lon="86.948622">
        <ele>2749.96659968</ele>
        <time>2019-10-08T08:26:23.056Z</time>
      </trkpt>
      <trkpt lat="27.423826" lon="86.948341">
        <ele>2755</ele>
        <time>2019-10-08T08:27:22.056Z</time>
      </trkpt>
      <trkpt lat="27.423861" lon="86.948172">
        <ele>2760</ele>
        <time>2019-10-08T08:28:20.056Z</time>
      </trkpt>
      <trkpt lat="27.42383" lon="86.947915">
        <ele>2767</ele>
        <time>2019-10-08T08:29:26.056Z</time>
      </trkpt>
      <trkpt lat="27.423798" lon="86.947796">
        <ele>2773.66659968</ele>
        <time>2019-10-08T08:30:30.056Z</time>
      </trkpt>
      <trkpt lat="27.423861" lon="86.947646">
        <ele>2779.73319936</ele>
        <time>2019-10-08T08:31:22.056Z</time>
      </trkpt>
      <trkpt lat="27.423895" lon="86.947376">
        <ele>2790</ele>
        <time>2019-10-08T08:33:25.056Z</time>
      </trkpt>
      <trkpt lat="27.423808" lon="86.947225">
        <ele>2795.93319936</ele>
        <time>2019-10-08T08:34:23.056Z</time>
      </trkpt>
      <trkpt lat="27.423812" lon="86.947038">
        <ele>2799</ele>
        <time>2019-10-08T08:35:20.056Z</time>
      </trkpt>
      <trkpt lat="27.423819" lon="86.946764">
        <ele>2803.96659968</ele>
        <time>2019-10-08T08:36:23.056Z</time>
      </trkpt>
      <trkpt lat="27.423785" lon="86.946339">
        <ele>2809.33319936</ele>
        <time>2019-10-08T08:37:20.056Z</time>
      </trkpt>
      <trkpt lat="27.423705" lon="86.946024">
        <ele>2814</ele>
        <time>2019-10-08T08:38:23.056Z</time>
      </trkpt>
      <trkpt lat="27.42387" lon="86.94567">
        <ele>2818</ele>
        <time>2019-10-08T08:39:22.056Z</time>
      </trkpt>
      <trkpt lat="27.424348" lon="86.945498">
        <ele>2820</ele>
        <time>2019-10-08T08:40:24.056Z</time>
      </trkpt>
      <trkpt lat="27.424707" lon="86.945591">
        <ele>2824.89979904</ele>
        <time>2019-10-08T08:41:23.056Z</time>
      </trkpt>
      <trkpt lat="27.425116" lon="86.945486">
        <ele>2821</ele>
        <time>2019-10-08T08:42:26.008Z</time>
      </trkpt>
      <trkpt lat="27.425387" lon="86.945179">
        <ele>2819</ele>
        <time>2019-10-08T08:43:22.056Z</time>
      </trkpt>
      <trkpt lat="27.425664" lon="86.944984">
        <ele>2822</ele>
        <time>2019-10-08T08:44:26.056Z</time>
      </trkpt>
      <trkpt lat="27.425806" lon="86.944894">
        <ele>2826</ele>
        <time>2019-10-08T08:45:23.056Z</time>
      </trkpt>
      <trkpt lat="27.425922" lon="86.944795">
        <ele>2828</ele>
        <time>2019-10-08T08:46:24.056Z</time>
      </trkpt>
      <trkpt lat="27.426106" lon="86.944621">
        <ele>2827.16659968</ele>
        <time>2019-10-08T08:47:25.056Z</time>
      </trkpt>
      <trkpt lat="27.42626" lon="86.944326">
        <ele>2828.76659968</ele>
        <time>2019-10-08T08:48:21.056Z</time>
      </trkpt>
      <trkpt lat="27.42626" lon="86.944203">
        <ele>2828</ele>
        <time>2019-10-08T08:50:23.056Z</time>
      </trkpt>
      <trkpt lat="27.426394" lon="86.944235">
        <ele>2828.43340032</ele>
        <time>2019-10-08T08:53:19.056Z</time>
      </trkpt>
      <trkpt lat="27.426217" lon="86.944167">
        <ele>2828</ele>
        <time>2019-10-08T08:54:23.056Z</time>
      </trkpt>
      <trkpt lat="27.426378" lon="86.944123">
        <ele>2823.26680064</ele>
        <time>2019-10-08T08:55:22.056Z</time>
      </trkpt>
      <trkpt lat="27.426681" lon="86.943929">
        <ele>2815.83340032</ele>
        <time>2019-10-08T08:56:25.056Z</time>
      </trkpt>
      <trkpt lat="27.426974" lon="86.943727">
        <ele>2807.93620924733</ele>
        <time>2019-10-08T08:57:24.056Z</time>
      </trkpt>
      <trkpt lat="27.427131" lon="86.943268">
        <ele>2803</ele>
        <time>2019-10-08T08:58:23.056Z</time>
      </trkpt>
      <trkpt lat="27.427215" lon="86.942989">
        <ele>2804</ele>
        <time>2019-10-08T08:59:25.056Z</time>
      </trkpt>
      <trkpt lat="27.427441" lon="86.942751">
        <ele>2799</ele>
        <time>2019-10-08T09:00:24.056Z</time>
      </trkpt>
      <trkpt lat="27.427654" lon="86.942436">
        <ele>2792.26680064</ele>
        <time>2019-10-08T09:01:27.056Z</time>
      </trkpt>
      <trkpt lat="27.427843" lon="86.942322">
        <ele>2785.13340032</ele>
        <time>2019-10-08T09:03:22.056Z</time>
      </trkpt>
      <trkpt lat="27.427915" lon="86.942628">
        <ele>2785.03340032</ele>
        <time>2019-10-08T09:04:23.056Z</time>
      </trkpt>
      <trkpt lat="27.42834" lon="86.942461">
        <ele>2789</ele>
        <time>2019-10-08T09:05:23.056Z</time>
      </trkpt>
      <trkpt lat="27.428526" lon="86.942459">
        <ele>2794</ele>
        <time>2019-10-08T09:06:23.056Z</time>
      </trkpt>
      <trkpt lat="27.428452" lon="86.942248">
        <ele>2791.06680064</ele>
        <time>2019-10-08T09:07:23.056Z</time>
      </trkpt>
      <trkpt lat="27.428524" lon="86.941836">
        <ele>2790</ele>
        <time>2019-10-08T09:08:22.056Z</time>
      </trkpt>
      <trkpt lat="27.428556" lon="86.941384">
        <ele>2789</ele>
        <time>2019-10-08T09:09:23.056Z</time>
      </trkpt>
      <trkpt lat="27.428583" lon="86.940877">
        <ele>2791.26659968</ele>
        <time>2019-10-08T09:10:26.056Z</time>
      </trkpt>
      <trkpt lat="27.428566" lon="86.940544">
        <ele>2794.96659968</ele>
        <time>2019-10-08T09:11:23.056Z</time>
      </trkpt>
      <trkpt lat="27.428689" lon="86.940265">
        <ele>2798</ele>
        <time>2019-10-08T09:12:24.056Z</time>
      </trkpt>
      <trkpt lat="27.428858" lon="86.939899">
        <ele>2802.66659968</ele>
        <time>2019-10-08T09:13:20.056Z</time>
      </trkpt>
      <trkpt lat="27.428895" lon="86.939617">
        <ele>2807.86659968</ele>
        <time>2019-10-08T09:14:22.056Z</time>
      </trkpt>
      <trkpt lat="27.429" lon="86.939434">
        <ele>2813.96659968</ele>
        <time>2019-10-08T09:15:23.056Z</time>
      </trkpt>
      <trkpt lat="27.42921" lon="86.939286">
        <ele>2817.96659968</ele>
        <time>2019-10-08T09:16:23.056Z</time>
      </trkpt>
      <trkpt lat="27.429528" lon="86.938985">
        <ele>2821</ele>
        <time>2019-10-08T09:17:23.056Z</time>
      </trkpt>
      <trkpt lat="27.429761" lon="86.938841">
        <ele>2825.96659968</ele>
        <time>2019-10-08T09:18:23.056Z</time>
      </trkpt>
      <trkpt lat="27.429955" lon="86.938595">
        <ele>2830</ele>
        <time>2019-10-08T09:19:22.056Z</time>
      </trkpt>
      <trkpt lat="27.430201" lon="86.938357">
        <ele>2834</ele>
        <time>2019-10-08T09:20:23.056Z</time>
      </trkpt>
      <trkpt lat="27.430367" lon="86.938237">
        <ele>2836.53319936</ele>
        <time>2019-10-08T09:21:21.056Z</time>
      </trkpt>
      <trkpt lat="27.430627" lon="86.937965">
        <ele>2840</ele>
        <time>2019-10-08T09:22:21.056Z</time>
      </trkpt>
      <trkpt lat="27.430912" lon="86.9376">
        <ele>2842</ele>
        <time>2019-10-08T09:23:23.056Z</time>
      </trkpt>
      <trkpt lat="27.431242" lon="86.937502">
        <ele>2843.96659968</ele>
        <time>2019-10-08T09:24:23.056Z</time>
      </trkpt>
      <trkpt lat="27.43152" lon="86.937145">
        <ele>2849</ele>
        <time>2019-10-08T09:25:23.056Z</time>
      </trkpt>
      <trkpt lat="27.431691" lon="86.937003">
        <ele>2851.76659968</ele>
        <time>2019-10-08T09:26:21.056Z</time>
      </trkpt>
      <trkpt lat="27.431987" lon="86.936571">
        <ele>2853.76659968</ele>
        <time>2019-10-08T09:27:21.056Z</time>
      </trkpt>
      <trkpt lat="27.432191" lon="86.936486">
        <ele>2857.33319936</ele>
        <time>2019-10-08T09:28:20.056Z</time>
      </trkpt>
      <trkpt lat="27.43243" lon="86.936355">
        <ele>2863.76659968</ele>
        <time>2019-10-08T09:29:31.056Z</time>
      </trkpt>
      <trkpt lat="27.432541" lon="86.936225">
        <ele>2867.56659968</ele>
        <time>2019-10-08T09:30:19.056Z</time>
      </trkpt>
      <trkpt lat="27.432832" lon="86.936146">
        <ele>2871</ele>
        <time>2019-10-08T09:31:23.056Z</time>
      </trkpt>
      <trkpt lat="27.432944" lon="86.93598">
        <ele>2877</ele>
        <time>2019-10-08T09:32:22.056Z</time>
      </trkpt>
      <trkpt lat="27.433101" lon="86.935873">
        <ele>2883.06659968</ele>
        <time>2019-10-08T09:33:24.056Z</time>
      </trkpt>
      <trkpt lat="27.433231" lon="86.935862">
        <ele>2886</ele>
        <time>2019-10-08T09:34:22.056Z</time>
      </trkpt>
      <trkpt lat="27.433336" lon="86.935867">
        <ele>2888</ele>
        <time>2019-10-08T09:35:23.056Z</time>
      </trkpt>
      <trkpt lat="27.433597" lon="86.935765">
        <ele>2892.86659968</ele>
        <time>2019-10-08T09:36:22.056Z</time>
      </trkpt>
      <trkpt lat="27.433676" lon="86.935673">
        <ele>2900</ele>
        <time>2019-10-08T09:37:28.056Z</time>
      </trkpt>
      <trkpt lat="27.433953" lon="86.935617">
        <ele>2904.13319936</ele>
        <time>2019-10-08T09:38:19.056Z</time>
      </trkpt>
      <trkpt lat="27.434087" lon="86.935399">
        <ele>2909.29979904</ele>
        <time>2019-10-08T09:39:21.056Z</time>
      </trkpt>
      <trkpt lat="27.434269" lon="86.935319">
        <ele>2914.76659968</ele>
        <time>2019-10-08T09:40:21.056Z</time>
      </trkpt>
      <trkpt lat="27.434404" lon="86.935371">
        <ele>2922</ele>
        <time>2019-10-08T09:41:29.056Z</time>
      </trkpt>
      <trkpt lat="27.434532" lon="86.935422">
        <ele>2937.46420722976</ele>
        <time>2019-10-08T09:44:38.056Z</time>
      </trkpt>
      <trkpt lat="27.434404" lon="86.935306">
        <ele>2937</ele>
        <time>2019-10-08T09:45:23.056Z</time>
      </trkpt>
      <trkpt lat="27.434541" lon="86.934723">
        <ele>2929</ele>
        <time>2019-10-08T09:47:01.056Z</time>
      </trkpt>
      <trkpt lat="27.434594" lon="86.934293">
        <ele>2930.53319936</ele>
        <time>2019-10-08T09:48:01.056Z</time>
      </trkpt>
      <trkpt lat="27.434785" lon="86.934024">
        <ele>2937</ele>
        <time>2019-10-08T09:49:01.056Z</time>
      </trkpt>
      <trkpt lat="27.434897" lon="86.933931">
        <ele>2938.73340032</ele>
        <time>2019-10-08T09:49:46.056Z</time>
      </trkpt>
      <trkpt lat="27.435091" lon="86.933692">
        <ele>2941</ele>
        <time>2019-10-08T09:50:31.056Z</time>
      </trkpt>
      <trkpt lat="27.435256" lon="86.933529">
        <ele>2945.53319936</ele>
        <time>2019-10-08T09:51:21.056Z</time>
      </trkpt>
      <trkpt lat="27.435257" lon="86.933342">
        <ele>2948.66659968</ele>
        <time>2019-10-08T09:52:20.056Z</time>
      </trkpt>
      <trkpt lat="27.435547" lon="86.933135">
        <ele>2952</ele>
        <time>2019-10-08T09:53:22.056Z</time>
      </trkpt>
      <trkpt lat="27.435826" lon="86.932903">
        <ele>2953.73319936</ele>
        <time>2019-10-08T09:54:22.056Z</time>
      </trkpt>
      <trkpt lat="27.435647" lon="86.932608">
        <ele>2959</ele>
        <time>2019-10-08T09:55:20.056Z</time>
      </trkpt>
      <trkpt lat="27.435568" lon="86.932222">
        <ele>2967.76659968</ele>
        <time>2019-10-08T09:57:21.056Z</time>
      </trkpt>
      <trkpt lat="27.435705" lon="86.931849">
        <ele>2972</ele>
        <time>2019-10-08T09:58:22.056Z</time>
      </trkpt>
      <trkpt lat="27.435534" lon="86.931624">
        <ele>2973</ele>
        <time>2019-10-08T09:59:20.056Z</time>
      </trkpt>
      <trkpt lat="27.435377" lon="86.931246">
        <ele>2976.96659968</ele>
        <time>2019-10-08T10:00:23.056Z</time>
      </trkpt>
      <trkpt lat="27.435284" lon="86.930978">
        <ele>2980.76659968</ele>
        <time>2019-10-08T10:01:21.056Z</time>
      </trkpt>
      <trkpt lat="27.435397" lon="86.930565">
        <ele>2985.16659968</ele>
        <time>2019-10-08T10:02:25.056Z</time>
      </trkpt>
      <trkpt lat="27.435807" lon="86.930216">
        <ele>2987</ele>
        <time>2019-10-08T10:03:20.056Z</time>
      </trkpt>
      <trkpt lat="27.435652" lon="86.930026">
        <ele>2992.86659968</ele>
        <time>2019-10-08T10:04:22.056Z</time>
      </trkpt>
      <trkpt lat="27.435961" lon="86.92989">
        <ele>2997</ele>
        <time>2019-10-08T10:05:20.056Z</time>
      </trkpt>
      <trkpt lat="27.435937" lon="86.929742">
        <ele>3002.93319936</ele>
        <time>2019-10-08T10:06:23.056Z</time>
      </trkpt>
      <trkpt lat="27.436189" lon="86.929525">
        <ele>3007.76659968</ele>
        <time>2019-10-08T10:07:21.056Z</time>
      </trkpt>
      <trkpt lat="27.436318" lon="86.92924">
        <ele>3011</ele>
        <time>2019-10-08T10:08:22.056Z</time>
      </trkpt>
      <trkpt lat="27.436416" lon="86.929305">
        <ele>3012.76659968</ele>
        <time>2019-10-08T10:10:21.056Z</time>
      </trkpt>
      <trkpt lat="27.436836" lon="86.928766">
        <ele>3016.33319936</ele>
        <time>2019-10-08T10:11:20.056Z</time>
      </trkpt>
      <trkpt lat="27.436643" lon="86.92872">
        <ele>3021.76659968</ele>
        <time>2019-10-08T10:12:21.056Z</time>
      </trkpt>
      <trkpt lat="27.436435" lon="86.928499">
        <ele>3025</ele>
        <time>2019-10-08T10:13:20.056Z</time>
      </trkpt>
      <trkpt lat="27.436638" lon="86.928162">
        <ele>3028.66659968</ele>
        <time>2019-10-08T10:14:20.056Z</time>
      </trkpt>
      <trkpt lat="27.436836" lon="86.927908">
        <ele>3033</ele>
        <time>2019-10-08T10:15:22.056Z</time>
      </trkpt>
      <trkpt lat="27.437134" lon="86.9277">
        <ele>3038</ele>
        <time>2019-10-08T10:16:20.056Z</time>
      </trkpt>
      <trkpt lat="27.437045" lon="86.927238">
        <ele>3040</ele>
        <time>2019-10-08T10:17:20.056Z</time>
      </trkpt>
      <trkpt lat="27.437114" lon="86.927109">
        <ele>3045.93319936</ele>
        <time>2019-10-08T10:18:23.056Z</time>
      </trkpt>
      <trkpt lat="27.437141" lon="86.926856">
        <ele>3049.66659968</ele>
        <time>2019-10-08T10:19:20.056Z</time>
      </trkpt>
      <trkpt lat="27.43727" lon="86.926692">
        <ele>3053.16659968</ele>
        <time>2019-10-08T10:20:25.056Z</time>
      </trkpt>
      <trkpt lat="27.437502" lon="86.926605">
        <ele>3056.86659968</ele>
        <time>2019-10-08T10:21:22.056Z</time>
      </trkpt>
      <trkpt lat="27.437599" lon="86.926451">
        <ele>3063.93319936</ele>
        <time>2019-10-08T10:22:23.056Z</time>
      </trkpt>
      <trkpt lat="27.43775" lon="86.926472">
        <ele>3068</ele>
        <time>2019-10-08T10:23:23.056Z</time>
      </trkpt>
      <trkpt lat="27.437829" lon="86.926396">
        <ele>3073</ele>
        <time>2019-10-08T10:24:25.056Z</time>
      </trkpt>
      <trkpt lat="27.438112" lon="86.926409">
        <ele>3078.66659968</ele>
        <time>2019-10-08T10:25:20.056Z</time>
      </trkpt>
      <trkpt lat="27.438218" lon="86.92646">
        <ele>3083.76659968</ele>
        <time>2019-10-08T10:26:21.056Z</time>
      </trkpt>
      <trkpt lat="27.43835" lon="86.926333">
        <ele>3089.76659968</ele>
        <time>2019-10-08T10:27:21.056Z</time>
      </trkpt>
      <trkpt lat="27.438404" lon="86.926207">
        <ele>3096</ele>
        <time>2019-10-08T10:28:19.056Z</time>
      </trkpt>
      <trkpt lat="27.438575" lon="86.926181">
        <ele>3101</ele>
        <time>2019-10-08T10:29:23.056Z</time>
      </trkpt>
      <trkpt lat="27.438631" lon="86.925962">
        <ele>3107.06659968</ele>
        <time>2019-10-08T10:30:24.056Z</time>
      </trkpt>
      <trkpt lat="27.438772" lon="86.925826">
        <ele>3113.66659968</ele>
        <time>2019-10-08T10:31:20.056Z</time>
      </trkpt>
      <trkpt lat="27.438862" lon="86.925696">
        <ele>3118.66659968</ele>
        <time>2019-10-08T10:32:20.056Z</time>
      </trkpt>
      <trkpt lat="27.43898" lon="86.925582">
        <ele>3122.76659968</ele>
        <time>2019-10-08T10:33:21.056Z</time>
      </trkpt>
      <trkpt lat="27.439017" lon="86.925259">
        <ele>3128.66659968</ele>
        <time>2019-10-08T10:34:20.056Z</time>
      </trkpt>
      <trkpt lat="27.439095" lon="86.925154">
        <ele>3134.66659968</ele>
        <time>2019-10-08T10:35:20.056Z</time>
      </trkpt>
      <trkpt lat="27.439191" lon="86.925041">
        <ele>3140</ele>
        <time>2019-10-08T10:36:22.056Z</time>
      </trkpt>
      <trkpt lat="27.43939" lon="86.924911">
        <ele>3146.93319936</ele>
        <time>2019-10-08T10:37:23.056Z</time>
      </trkpt>
      <trkpt lat="27.439511" lon="86.924944">
        <ele>3151.86659968</ele>
        <time>2019-10-08T10:38:22.056Z</time>
      </trkpt>
      <trkpt lat="27.439534" lon="86.925136">
        <ele>3156.96659968</ele>
        <time>2019-10-08T10:39:23.056Z</time>
      </trkpt>
      <trkpt lat="27.439768" lon="86.925097">
        <ele>3162.76659968</ele>
        <time>2019-10-08T10:40:21.056Z</time>
      </trkpt>
      <trkpt lat="27.439891" lon="86.925021">
        <ele>3173</ele>
        <time>2019-10-08T10:42:23.056Z</time>
      </trkpt>
      <trkpt lat="27.439983" lon="86.924926">
        <ele>3179.96659968</ele>
        <time>2019-10-08T10:43:23.056Z</time>
      </trkpt>
      <trkpt lat="27.440106" lon="86.92504">
        <ele>3185</ele>
        <time>2019-10-08T10:44:22.056Z</time>
      </trkpt>
      <trkpt lat="27.440267" lon="86.924823">
        <ele>3189</ele>
        <time>2019-10-08T10:45:19.056Z</time>
      </trkpt>
      <trkpt lat="27.440414" lon="86.924921">
        <ele>3195</ele>
        <time>2019-10-08T10:46:23.056Z</time>
      </trkpt>
      <trkpt lat="27.440515" lon="86.924856">
        <ele>3201.56659968</ele>
        <time>2019-10-08T10:47:19.056Z</time>
      </trkpt>
      <trkpt lat="27.440632" lon="86.924857">
        <ele>3208</ele>
        <time>2019-10-08T10:48:20.056Z</time>
      </trkpt>
      <trkpt lat="27.440742" lon="86.924764">
        <ele>3214</ele>
        <time>2019-10-08T10:49:22.056Z</time>
      </trkpt>
      <trkpt lat="27.44075" lon="86.924612">
        <ele>3218</ele>
        <time>2019-10-08T10:50:22.056Z</time>
      </trkpt>
      <trkpt lat="27.440794" lon="86.924332">
        <ele>3220</ele>
        <time>2019-10-08T11:04:22.056Z</time>
      </trkpt>
      <trkpt lat="27.440803" lon="86.924616">
        <ele>3220</ele>
        <time>2019-10-08T11:05:23.056Z</time>
      </trkpt>
      <trkpt lat="27.440704" lon="86.924648">
        <ele>3220</ele>
        <time>2019-10-08T11:06:20.056Z</time>
      </trkpt>
      <trkpt lat="27.440802" lon="86.924604">
        <ele>3220</ele>
        <time>2019-10-08T11:14:01.056Z</time>
      </trkpt>
      <trkpt lat="27.440871" lon="86.924484">
        <ele>3220</ele>
        <time>2019-10-08T11:15:01.056Z</time>
      </trkpt>
      <trkpt lat="27.441073" lon="86.924312">
        <ele>3214.73340032</ele>
        <time>2019-10-08T11:15:46.056Z</time>
      </trkpt>
      <trkpt lat="27.441312" lon="86.924061">
        <ele>3210</ele>
        <time>2019-10-08T11:16:31.056Z</time>
      </trkpt>
      <trkpt lat="27.441452" lon="86.923839">
        <ele>3205.43340032</ele>
        <time>2019-10-08T11:17:19.056Z</time>
      </trkpt>
      <trkpt lat="27.441832" lon="86.923672">
        <ele>3198</ele>
        <time>2019-10-08T11:18:19.056Z</time>
      </trkpt>
      <trkpt lat="27.442082" lon="86.923548">
        <ele>3189.40020096</ele>
        <time>2019-10-08T11:19:22.056Z</time>
      </trkpt>
      <trkpt lat="27.442384" lon="86.923618">
        <ele>3183.43340032</ele>
        <time>2019-10-08T11:20:19.056Z</time>
      </trkpt>
      <trkpt lat="27.442632" lon="86.923604">
        <ele>3174</ele>
        <time>2019-10-08T11:21:23.056Z</time>
      </trkpt>
      <trkpt lat="27.442751" lon="86.923682">
        <ele>3166.83340032</ele>
        <time>2019-10-08T11:22:25.056Z</time>
      </trkpt>
      <trkpt lat="27.443009" lon="86.92366">
        <ele>3159.13340032</ele>
        <time>2019-10-08T11:23:22.056Z</time>
      </trkpt>
      <trkpt lat="27.443045" lon="86.923435">
        <ele>3152</ele>
        <time>2019-10-08T11:24:23.056Z</time>
      </trkpt>
      <trkpt lat="27.44317" lon="86.923214">
        <ele>3142.93340032</ele>
        <time>2019-10-08T11:25:34.056Z</time>
      </trkpt>
      <trkpt lat="27.443267" lon="86.923127">
        <ele>3136.13340032</ele>
        <time>2019-10-08T11:26:22.056Z</time>
      </trkpt>
      <trkpt lat="27.443475" lon="86.922993">
        <ele>3127.26680064</ele>
        <time>2019-10-08T11:27:27.056Z</time>
      </trkpt>
      <trkpt lat="27.443443" lon="86.922591">
        <ele>3121</ele>
        <time>2019-10-08T11:28:22.056Z</time>
      </trkpt>
      <trkpt lat="27.44364" lon="86.922759">
        <ele>3114.23340032</ele>
        <time>2019-10-08T11:29:21.056Z</time>
      </trkpt>
      <trkpt lat="27.443902" lon="86.922616">
        <ele>3106.13340032</ele>
        <time>2019-10-08T11:30:22.056Z</time>
      </trkpt>
      <trkpt lat="27.444024" lon="86.921467">
        <ele>3067.07450262948</ele>
        <time>2019-10-08T11:35:53.056Z</time>
      </trkpt>
      <trkpt lat="27.44459" lon="86.921204">
        <ele>3045.46892494024</ele>
        <time>2019-10-08T11:39:36.056Z</time>
      </trkpt>
      <trkpt lat="27.444829" lon="86.920986">
        <ele>3033.46680064</ele>
        <time>2019-10-08T11:41:01.056Z</time>
      </trkpt>
      <trkpt lat="27.445228" lon="86.920899">
        <ele>3024.70020096</ele>
        <time>2019-10-08T11:42:01.056Z</time>
      </trkpt>
      <trkpt lat="27.44549" lon="86.920911">
        <ele>3015.70020096</ele>
        <time>2019-10-08T11:43:01.056Z</time>
      </trkpt>
      <trkpt lat="27.445652" lon="86.920746">
        <ele>3010.23340032</ele>
        <time>2019-10-08T11:44:01.056Z</time>
      </trkpt>
      <trkpt lat="27.445834" lon="86.920722">
        <ele>3006.46680064</ele>
        <time>2019-10-08T11:44:46.056Z</time>
      </trkpt>
      <trkpt lat="27.445998" lon="86.920738">
        <ele>3000.23340032</ele>
        <time>2019-10-08T11:45:31.056Z</time>
      </trkpt>
      <trkpt lat="27.446293" lon="86.920771">
        <ele>2990.83340032</ele>
        <time>2019-10-08T11:46:45.056Z</time>
      </trkpt>
      <trkpt lat="27.446388" lon="86.920854">
        <ele>2987.33340032</ele>
        <time>2019-10-08T11:47:30.056Z</time>
      </trkpt>
      <trkpt lat="27.446477" lon="86.921315">
        <ele>2981.10020096</ele>
        <time>2019-10-08T11:48:23.056Z</time>
      </trkpt>
      <trkpt lat="27.446788" lon="86.920897">
        <ele>2975</ele>
        <time>2019-10-08T11:49:23.056Z</time>
      </trkpt>
      <trkpt lat="27.44707" lon="86.920972">
        <ele>2968.03340032</ele>
        <time>2019-10-08T11:50:23.056Z</time>
      </trkpt>
      <trkpt lat="27.447415" lon="86.920858">
        <ele>2959.93340032</ele>
        <time>2019-10-08T11:51:44.056Z</time>
      </trkpt>
      <trkpt lat="27.447658" lon="86.920729">
        <ele>2952.86680064</ele>
        <time>2019-10-08T11:52:29.056Z</time>
      </trkpt>
      <trkpt lat="27.447901" lon="86.920723">
        <ele>2948</ele>
        <time>2019-10-08T11:53:24.056Z</time>
      </trkpt>
      <trkpt lat="27.448071" lon="86.920962">
        <ele>2942.06680064</ele>
        <time>2019-10-08T11:54:23.056Z</time>
      </trkpt>
      <trkpt lat="27.448379" lon="86.920842">
        <ele>2936.33340032</ele>
        <time>2019-10-08T11:55:20.056Z</time>
      </trkpt>
      <trkpt lat="27.448381" lon="86.921185">
        <ele>2928.03340032</ele>
        <time>2019-10-08T11:56:23.056Z</time>
      </trkpt>
      <trkpt lat="27.448932" lon="86.921513">
        <ele>2915.23340032</ele>
        <time>2019-10-08T11:58:21.056Z</time>
      </trkpt>
      <trkpt lat="27.449245" lon="86.921287">
        <ele>2911</ele>
        <time>2019-10-08T11:59:22.056Z</time>
      </trkpt>
      <trkpt lat="27.449561" lon="86.921501">
        <ele>2902.13340032</ele>
        <time>2019-10-08T12:00:22.056Z</time>
      </trkpt>
      <trkpt lat="27.44994" lon="86.921644">
        <ele>2893.13340032</ele>
        <time>2019-10-08T12:01:22.056Z</time>
      </trkpt>
      <trkpt lat="27.450303" lon="86.921774">
        <ele>2888.03340032</ele>
        <time>2019-10-08T12:02:23.056Z</time>
      </trkpt>
      <trkpt lat="27.450503" lon="86.921985">
        <ele>2877</ele>
        <time>2019-10-08T12:04:05.056Z</time>
      </trkpt>
      <trkpt lat="27.450847" lon="86.922417">
        <ele>2875.33340032</ele>
        <time>2019-10-08T12:04:50.056Z</time>
      </trkpt>
      <trkpt lat="27.451054" lon="86.922426">
        <ele>2867.46680064</ele>
        <time>2019-10-08T12:06:01.056Z</time>
      </trkpt>
      <trkpt lat="27.451354" lon="86.922466">
        <ele>2858.23340032</ele>
        <time>2019-10-08T12:07:01.056Z</time>
      </trkpt>
      <trkpt lat="27.451261" lon="86.922216">
        <ele>2845.23340032</ele>
        <time>2019-10-08T12:08:51.056Z</time>
      </trkpt>
      <trkpt lat="27.45132" lon="86.922322">
        <ele>2839.73340032</ele>
        <time>2019-10-08T12:09:36.056Z</time>
      </trkpt>
      <trkpt lat="27.451439" lon="86.922316">
        <ele>2835</ele>
        <time>2019-10-08T12:10:23.056Z</time>
      </trkpt>
      <trkpt lat="27.451338" lon="86.922238">
        <ele>2827.66680064</ele>
        <time>2019-10-08T12:11:20.056Z</time>
      </trkpt>
      <trkpt lat="27.452257" lon="86.922356">
        <ele>2816.63340032</ele>
        <time>2019-10-08T12:12:47.056Z</time>
      </trkpt>
      <trkpt lat="27.451924" lon="86.922114">
        <ele>2810.13340032</ele>
        <time>2019-10-08T12:13:32.056Z</time>
      </trkpt>
      <trkpt lat="27.452269" lon="86.92203">
        <ele>2806</ele>
        <time>2019-10-08T12:14:31.056Z</time>
      </trkpt>
      <trkpt lat="27.452152" lon="86.922059">
        <ele>2806</ele>
        <time>2019-10-08T12:15:21.056Z</time>
      </trkpt>
      <trkpt lat="27.452058" lon="86.92192">
        <ele>2806.66659968</ele>
        <time>2019-10-08T12:18:00.056Z</time>
      </trkpt>
      <trkpt lat="27.45204" lon="86.921671">
        <ele>2801.46680064</ele>
        <time>2019-10-08T12:19:01.056Z</time>
      </trkpt>
      <trkpt lat="27.451975" lon="86.921251">
        <ele>2793.46680064</ele>
        <time>2019-10-08T12:20:01.056Z</time>
      </trkpt>
      <trkpt lat="27.451983" lon="86.920848">
        <ele>2787.70020096</ele>
        <time>2019-10-08T12:21:01.056Z</time>
      </trkpt>
      <trkpt lat="27.452089" lon="86.920618">
        <ele>2781.70020096</ele>
        <time>2019-10-08T12:22:01.056Z</time>
      </trkpt>
      <trkpt lat="27.452428" lon="86.919397">
        <ele>2764.50020096</ele>
        <time>2019-10-08T12:25:55.056Z</time>
      </trkpt>
      <trkpt lat="27.452543" lon="86.919132">
        <ele>2757.33340032</ele>
        <time>2019-10-08T12:26:40.056Z</time>
      </trkpt>
      <trkpt lat="27.452409" lon="86.918772">
        <ele>2746.46680064</ele>
        <time>2019-10-08T12:28:01.056Z</time>
      </trkpt>
      <trkpt lat="27.452398" lon="86.918384">
        <ele>2737.93360128</ele>
        <time>2019-10-08T12:29:01.056Z</time>
      </trkpt>
      <trkpt lat="27.452524" lon="86.917907">
        <ele>2734.23340032</ele>
        <time>2019-10-08T12:30:01.056Z</time>
      </trkpt>
      <trkpt lat="27.452573" lon="86.917474">
        <ele>2730</ele>
        <time>2019-10-08T12:30:46.056Z</time>
      </trkpt>
      <trkpt lat="27.452675" lon="86.916921">
        <ele>2724.46680064</ele>
        <time>2019-10-08T12:31:31.056Z</time>
      </trkpt>
      <trkpt lat="27.452566" lon="86.91674">
        <ele>2718</ele>
        <time>2019-10-08T12:32:20.056Z</time>
      </trkpt>
      <trkpt lat="27.452553" lon="86.916252">
        <ele>2714</ele>
        <time>2019-10-08T12:33:20.056Z</time>
      </trkpt>
      <trkpt lat="27.452433" lon="86.916215">
        <ele>2710.66680064</ele>
        <time>2019-10-08T12:34:20.056Z</time>
      </trkpt>
      <trkpt lat="27.452542" lon="86.915905">
        <ele>2706.23340032</ele>
        <time>2019-10-08T12:35:21.056Z</time>
      </trkpt>
      <trkpt lat="27.452648" lon="86.915822">
        <ele>2696.46680064</ele>
        <time>2019-10-08T12:36:21.056Z</time>
      </trkpt>
      <trkpt lat="27.452597" lon="86.914986">
        <ele>2688.23340032</ele>
        <time>2019-10-08T12:37:21.056Z</time>
      </trkpt>
      <trkpt lat="27.452596" lon="86.914756">
        <ele>2682.83340032</ele>
        <time>2019-10-08T12:38:25.056Z</time>
      </trkpt>
      <trkpt lat="27.452748" lon="86.91425">
        <ele>2678</ele>
        <time>2019-10-08T12:39:21.056Z</time>
      </trkpt>
      <trkpt lat="27.45286" lon="86.914082">
        <ele>2677.23340032</ele>
        <time>2019-10-08T12:40:21.056Z</time>
      </trkpt>
      <trkpt lat="27.453088" lon="86.913408">
        <ele>2670</ele>
        <time>2019-10-08T12:41:23.056Z</time>
      </trkpt>
      <trkpt lat="27.452924" lon="86.913063">
        <ele>2666.46680064</ele>
        <time>2019-10-08T12:42:21.056Z</time>
      </trkpt>
      <trkpt lat="27.452858" lon="86.912762">
        <ele>2658</ele>
        <time>2019-10-08T12:43:23.056Z</time>
      </trkpt>
      <trkpt lat="27.452978" lon="86.912446">
        <ele>2652.66680064</ele>
        <time>2019-10-08T12:44:20.056Z</time>
      </trkpt>
      <trkpt lat="27.452818" lon="86.91201">
        <ele>2644.43340032</ele>
        <time>2019-10-08T12:45:19.056Z</time>
      </trkpt>
      <trkpt lat="27.452928" lon="86.91136">
        <ele>2637.03340032</ele>
        <time>2019-10-08T12:46:23.056Z</time>
      </trkpt>
      <trkpt lat="27.453" lon="86.911038">
        <ele>2634.43340032</ele>
        <time>2019-10-08T12:47:19.056Z</time>
      </trkpt>
      <trkpt lat="27.452952" lon="86.910338">
        <ele>2628.13353381108</ele>
        <time>2019-10-08T12:48:22.056Z</time>
      </trkpt>
      <trkpt lat="27.452918" lon="86.909669">
        <ele>2622</ele>
        <time>2019-10-08T12:49:20.056Z</time>
      </trkpt>
      <trkpt lat="27.45289" lon="86.909264">
        <ele>2620</ele>
        <time>2019-10-08T12:50:21.056Z</time>
      </trkpt>
      <trkpt lat="27.452852" lon="86.908695">
        <ele>2622.86659968</ele>
        <time>2019-10-08T12:51:22.056Z</time>
      </trkpt>
      <trkpt lat="27.452885" lon="86.908402">
        <ele>2621.73319936</ele>
        <time>2019-10-08T12:52:22.056Z</time>
      </trkpt>
      <trkpt lat="27.452713" lon="86.90794">
        <ele>2621</ele>
        <time>2019-10-08T12:53:23.056Z</time>
      </trkpt>
      <trkpt lat="27.452807" lon="86.907467">
        <ele>2619.4339661727</ele>
        <time>2019-10-08T12:54:19.056Z</time>
      </trkpt>
      <trkpt lat="27.453347" lon="86.906139">
        <ele>2619</ele>
        <time>2019-10-08T12:55:24.056Z</time>
      </trkpt>
      <trkpt lat="27.452782" lon="86.905577">
        <ele>2639.36659968</ele>
        <time>2019-10-08T12:59:57.056Z</time>
      </trkpt>
      <trkpt lat="27.452696" lon="86.905333">
        <ele>2644.86659968</ele>
        <time>2019-10-08T13:00:42.056Z</time>
      </trkpt>
      <trkpt lat="27.4526" lon="86.905015">
        <ele>2653</ele>
        <time>2019-10-08T13:02:01.056Z</time>
      </trkpt>
      <trkpt lat="27.452635" lon="86.904712">
        <ele>2657.76659968</ele>
        <time>2019-10-08T13:03:01.056Z</time>
      </trkpt>
      <trkpt lat="27.45285" lon="86.904293">
        <ele>2661</ele>
        <time>2019-10-08T13:04:01.056Z</time>
      </trkpt>
      <trkpt lat="27.453096" lon="86.904097">
        <ele>2662.26659968</ele>
        <time>2019-10-08T13:04:46.056Z</time>
      </trkpt>
      <trkpt lat="27.453148" lon="86.903894">
        <ele>2666</ele>
        <time>2019-10-08T13:05:31.056Z</time>
      </trkpt>
      <trkpt lat="27.453254" lon="86.903739">
        <ele>2670.86659968</ele>
        <time>2019-10-08T13:06:22.056Z</time>
      </trkpt>
      <trkpt lat="27.453736" lon="86.903673">
        <ele>2672.96659968</ele>
        <time>2019-10-08T13:07:23.056Z</time>
      </trkpt>
      <trkpt lat="27.454092" lon="86.903475">
        <ele>2669</ele>
        <time>2019-10-08T13:08:22.056Z</time>
      </trkpt>
      <trkpt lat="27.453935" lon="86.903202">
        <ele>2674</ele>
        <time>2019-10-08T13:09:23.056Z</time>
      </trkpt>
      <trkpt lat="27.454037" lon="86.902602">
        <ele>2676.96659968</ele>
        <time>2019-10-08T13:10:23.056Z</time>
      </trkpt>
      <trkpt lat="27.454319" lon="86.902299">
        <ele>2679.53319936</ele>
        <time>2019-10-08T13:11:21.056Z</time>
      </trkpt>
      <trkpt lat="27.454516" lon="86.9019">
        <ele>2684</ele>
        <time>2019-10-08T13:12:21.056Z</time>
      </trkpt>
      <trkpt lat="27.454721" lon="86.901799">
        <ele>2689.16659968</ele>
        <time>2019-10-08T13:13:35.056Z</time>
      </trkpt>
      <trkpt lat="27.454875" lon="86.901515">
        <ele>2689.23340032</ele>
        <time>2019-10-08T13:14:21.056Z</time>
      </trkpt>
      <trkpt lat="27.455188" lon="86.901143">
        <ele>2693</ele>
        <time>2019-10-08T13:15:21.056Z</time>
      </trkpt>
      <trkpt lat="27.455642" lon="86.901258">
        <ele>2687.03340032</ele>
        <time>2019-10-08T13:16:23.056Z</time>
      </trkpt>
      <trkpt lat="27.45585" lon="86.900842">
        <ele>2692.29979904</ele>
        <time>2019-10-08T13:17:21.056Z</time>
      </trkpt>
      <trkpt lat="27.456252" lon="86.900573">
        <ele>2694.23340032</ele>
        <time>2019-10-08T13:18:21.056Z</time>
      </trkpt>
      <trkpt lat="27.456604" lon="86.899987">
        <ele>2695.36659968</ele>
        <time>2019-10-08T13:20:37.056Z</time>
      </trkpt>
      <trkpt lat="27.456908" lon="86.899828">
        <ele>2698</ele>
        <time>2019-10-08T13:21:24.056Z</time>
      </trkpt>
      <trkpt lat="27.457001" lon="86.899758">
        <ele>2701</ele>
        <time>2019-10-08T13:22:30.056Z</time>
      </trkpt>
      <trkpt lat="27.457232" lon="86.899738">
        <ele>2697.70020096</ele>
        <time>2019-10-08T13:23:31.056Z</time>
      </trkpt>
      <trkpt lat="27.457454" lon="86.899487">
        <ele>2693.23340032</ele>
        <time>2019-10-08T13:24:21.056Z</time>
      </trkpt>
      <trkpt lat="27.457551" lon="86.899229">
        <ele>2699</ele>
        <time>2019-10-08T13:26:22.056Z</time>
      </trkpt>
      <trkpt lat="27.457708" lon="86.89893">
        <ele>2704.29979904</ele>
        <time>2019-10-08T13:27:21.056Z</time>
      </trkpt>
      <trkpt lat="27.457914" lon="86.898507">
        <ele>2710</ele>
        <time>2019-10-08T13:28:24.056Z</time>
      </trkpt>
      <trkpt lat="27.458047" lon="86.898397">
        <ele>2716.86659968</ele>
        <time>2019-10-08T13:29:22.056Z</time>
      </trkpt>
      <trkpt lat="27.458008" lon="86.897921">
        <ele>2720</ele>
        <time>2019-10-08T13:30:19.056Z</time>
      </trkpt>
      <trkpt lat="27.458104" lon="86.897386">
        <ele>2721.66659968</ele>
        <time>2019-10-08T13:31:20.056Z</time>
      </trkpt>
      <trkpt lat="27.458164" lon="86.897038">
        <ele>2727.89979904</ele>
        <time>2019-10-08T13:32:23.056Z</time>
      </trkpt>
      <trkpt lat="27.458108" lon="86.896719">
        <ele>2733</ele>
        <time>2019-10-08T13:33:23.056Z</time>
      </trkpt>
      <trkpt lat="27.458017" lon="86.896408">
        <ele>2736</ele>
        <time>2019-10-08T13:34:19.056Z</time>
      </trkpt>
      <trkpt lat="27.458029" lon="86.896177">
        <ele>2743</ele>
        <time>2019-10-08T13:35:19.056Z</time>
      </trkpt>
      <trkpt lat="27.458028" lon="86.896005">
        <ele>2749.13319936</ele>
        <time>2019-10-08T13:36:19.056Z</time>
      </trkpt>
      <trkpt lat="27.458182" lon="86.896114">
        <ele>2749.23340032</ele>
        <time>2019-10-08T13:37:21.056Z</time>
      </trkpt>
      <trkpt lat="27.458338" lon="86.8961">
        <ele>2749.96659968</ele>
        <time>2019-10-08T13:38:23.056Z</time>
      </trkpt>
      <trkpt lat="27.458195" lon="86.896056">
        <ele>2753.03340032</ele>
        <time>2019-10-08T13:39:23.056Z</time>
      </trkpt>
      <trkpt lat="27.458112" lon="86.895757">
        <ele>2749</ele>
        <time>2019-10-08T13:40:22.056Z</time>
      </trkpt>
      <trkpt lat="27.458045" lon="86.895366">
        <ele>2751.46680064</ele>
        <time>2019-10-08T13:41:21.056Z</time>
      </trkpt>
      <trkpt lat="27.45815" lon="86.896112">
        <ele>2858.10009765625</ele>
        <time>2019-10-09T05:49:45.056Z</time>
      </trkpt>
      <trkpt lat="27.458093" lon="86.896043">
        <ele>2735.73459968</ele>
        <time>2019-10-09T05:51:11.056Z</time>
      </trkpt>
      <trkpt lat="27.458064" lon="86.895702">
        <ele>2736</ele>
        <time>2019-10-09T05:52:11.056Z</time>
      </trkpt>
      <trkpt lat="27.458185" lon="86.894948">
        <ele>2736</ele>
        <time>2019-10-09T05:53:18.056Z</time>
      </trkpt>
      <trkpt lat="27.458292" lon="86.894255">
        <ele>2734</ele>
        <time>2019-10-09T05:54:21.056Z</time>
      </trkpt>
      <trkpt lat="27.458209" lon="86.893895">
        <ele>2736</ele>
        <time>2019-10-09T05:55:27.056Z</time>
      </trkpt>
      <trkpt lat="27.45829" lon="86.893214">
        <ele>2737</ele>
        <time>2019-10-09T05:56:32.056Z</time>
      </trkpt>
      <trkpt lat="27.458461" lon="86.892816">
        <ele>2731.46586603696</ele>
        <time>2019-10-09T05:57:39.056Z</time>
      </trkpt>
      <trkpt lat="27.458517" lon="86.892372">
        <ele>2720.76540032</ele>
        <time>2019-10-09T05:58:46.056Z</time>
      </trkpt>
      <trkpt lat="27.458583" lon="86.891847">
        <ele>2709.26540032</ele>
        <time>2019-10-09T05:59:51.056Z</time>
      </trkpt>
      <trkpt lat="27.45862" lon="86.891276">
        <ele>2700.3311316657</ele>
        <time>2019-10-09T06:00:52.056Z</time>
      </trkpt>
      <trkpt lat="27.458753" lon="86.890612">
        <ele>2693.5328</ele>
        <time>2019-10-09T06:02:06.056Z</time>
      </trkpt>
      <trkpt lat="27.45864" lon="86.890275">
        <ele>2687.9328</ele>
        <time>2019-10-09T06:03:29.056Z</time>
      </trkpt>
      <trkpt lat="27.45859" lon="86.890015">
        <ele>2681.9328</ele>
        <time>2019-10-09T06:04:14.056Z</time>
      </trkpt>
      <trkpt lat="27.458634" lon="86.889652">
        <ele>2672.39780264465</ele>
        <time>2019-10-09T06:04:59.056Z</time>
      </trkpt>
      <trkpt lat="27.458702" lon="86.889561">
        <ele>2662.36576596892</ele>
        <time>2019-10-09T06:05:50.056Z</time>
      </trkpt>
      <trkpt lat="27.459067" lon="86.889439">
        <ele>2649.93173207392</ele>
        <time>2019-10-09T06:06:49.056Z</time>
      </trkpt>
      <trkpt lat="27.459214" lon="86.889573">
        <ele>2636.09729790677</ele>
        <time>2019-10-09T06:07:50.056Z</time>
      </trkpt>
      <trkpt lat="27.459428" lon="86.889416">
        <ele>2625.76563461039</ele>
        <time>2019-10-09T06:08:56.056Z</time>
      </trkpt>
      <trkpt lat="27.459973" lon="86.889229">
        <ele>2622</ele>
        <time>2019-10-09T06:10:25.056Z</time>
      </trkpt>
      <trkpt lat="27.460354" lon="86.889094">
        <ele>2617.7328</ele>
        <time>2019-10-09T06:11:10.056Z</time>
      </trkpt>
      <trkpt lat="27.460788" lon="86.889373">
        <ele>2600.9328</ele>
        <time>2019-10-09T06:12:29.056Z</time>
      </trkpt>
      <trkpt lat="27.460845" lon="86.889082">
        <ele>2599.0672</ele>
        <time>2019-10-09T06:13:29.056Z</time>
      </trkpt>
      <trkpt lat="27.460721" lon="86.888676">
        <ele>2603.5336</ele>
        <time>2019-10-09T06:14:29.056Z</time>
      </trkpt>
      <trkpt lat="27.460569" lon="86.888323">
        <ele>2602.9664</ele>
        <time>2019-10-09T06:15:14.056Z</time>
      </trkpt>
      <trkpt lat="27.46102" lon="86.887533">
        <ele>2599</ele>
        <time>2019-10-09T06:17:26.056Z</time>
      </trkpt>
      <trkpt lat="27.468436" lon="86.876151">
        <ele>2484.46349206349</ele>
        <time>2019-10-09T06:47:36.056Z</time>
      </trkpt>
      <trkpt lat="27.468535" lon="86.875603">
        <ele>2486</ele>
        <time>2019-10-09T06:48:21.056Z</time>
      </trkpt>
      <trkpt lat="27.468853" lon="86.874985">
        <ele>2480.4664</ele>
        <time>2019-10-09T06:49:29.056Z</time>
      </trkpt>
      <trkpt lat="27.46926" lon="86.874591">
        <ele>2472.3992</ele>
        <time>2019-10-09T06:50:29.056Z</time>
      </trkpt>
      <trkpt lat="27.469128" lon="86.874345">
        <ele>2468</ele>
        <time>2019-10-09T06:52:22.056Z</time>
      </trkpt>
      <trkpt lat="27.469207" lon="86.873948">
        <ele>2463.3328</ele>
        <time>2019-10-09T06:53:52.056Z</time>
      </trkpt>
      <trkpt lat="27.469422" lon="86.873278">
        <ele>2452.53133180178</ele>
        <time>2019-10-09T06:54:51.056Z</time>
      </trkpt>
      <trkpt lat="27.469789" lon="86.87273">
        <ele>2445.3328</ele>
        <time>2019-10-09T06:55:52.056Z</time>
      </trkpt>
      <trkpt lat="27.470029" lon="86.872324">
        <ele>2434.26566590089</ele>
        <time>2019-10-09T06:56:51.056Z</time>
      </trkpt>
      <trkpt lat="27.47065" lon="86.871611">
        <ele>2426</ele>
        <time>2019-10-09T06:58:18.056Z</time>
      </trkpt>
      <trkpt lat="27.470933" lon="86.871115">
        <ele>2428</ele>
        <time>2019-10-09T06:59:13.056Z</time>
      </trkpt>
      <trkpt lat="27.471421" lon="86.870298">
        <ele>2423</ele>
        <time>2019-10-09T07:00:29.056Z</time>
      </trkpt>
      <trkpt lat="27.471713" lon="86.869601">
        <ele>2421</ele>
        <time>2019-10-09T07:01:29.056Z</time>
      </trkpt>
      <trkpt lat="27.47179" lon="86.869223">
        <ele>2423.4664</ele>
        <time>2019-10-09T07:02:29.056Z</time>
      </trkpt>
      <trkpt lat="27.472094" lon="86.868925">
        <ele>2418.9664</ele>
        <time>2019-10-09T07:03:14.056Z</time>
      </trkpt>
      <trkpt lat="27.472199" lon="86.868374">
        <ele>2417</ele>
        <time>2019-10-09T07:03:59.056Z</time>
      </trkpt>
      <trkpt lat="27.472387" lon="86.868312">
        <ele>2414.1664</ele>
        <time>2019-10-09T07:05:52.056Z</time>
      </trkpt>
      <trkpt lat="27.472906" lon="86.868202">
        <ele>2408.0664</ele>
        <time>2019-10-09T07:06:53.056Z</time>
      </trkpt>
      <trkpt lat="27.473482" lon="86.868307">
        <ele>2404.2664</ele>
        <time>2019-10-09T07:07:51.056Z</time>
      </trkpt>
      <trkpt lat="27.474161" lon="86.868354">
        <ele>2395.0664</ele>
        <time>2019-10-09T07:08:53.056Z</time>
      </trkpt>
      <trkpt lat="27.474405" lon="86.868443">
        <ele>2394.0664</ele>
        <time>2019-10-09T07:09:53.056Z</time>
      </trkpt>
      <trkpt lat="27.47501" lon="86.867987">
        <ele>2385.00019948058</ele>
        <time>2019-10-09T07:10:57.056Z</time>
      </trkpt>
      <trkpt lat="27.47536" lon="86.867864">
        <ele>2376</ele>
        <time>2019-10-09T07:11:52.056Z</time>
      </trkpt>
      <trkpt lat="27.475927" lon="86.867419">
        <ele>2370.9664</ele>
        <time>2019-10-09T07:13:04.056Z</time>
      </trkpt>
      <trkpt lat="27.476559" lon="86.867159">
        <ele>2360.2656</ele>
        <time>2019-10-09T07:13:58.056Z</time>
      </trkpt>
      <trkpt lat="27.477106" lon="86.867594">
        <ele>2346.8664</ele>
        <time>2019-10-09T07:15:15.056Z</time>
      </trkpt>
      <trkpt lat="27.477554" lon="86.866785">
        <ele>2344.5664</ele>
        <time>2019-10-09T07:16:08.056Z</time>
      </trkpt>
      <trkpt lat="27.478194" lon="86.866236">
        <ele>2331</ele>
        <time>2019-10-09T07:18:12.056Z</time>
      </trkpt>
      <trkpt lat="27.478425" lon="86.865691">
        <ele>2330</ele>
        <time>2019-10-09T07:18:59.056Z</time>
      </trkpt>
      <trkpt lat="27.47896" lon="86.865586">
        <ele>2328.2656</ele>
        <time>2019-10-09T07:19:58.056Z</time>
      </trkpt>
      <trkpt lat="27.479482" lon="86.864781">
        <ele>2323.1992</ele>
        <time>2019-10-09T07:21:13.056Z</time>
      </trkpt>
      <trkpt lat="27.479936" lon="86.864584">
        <ele>2313.9328</ele>
        <time>2019-10-09T07:22:14.056Z</time>
      </trkpt>
      <trkpt lat="27.480316" lon="86.864438">
        <ele>2305.86746686928</ele>
        <time>2019-10-09T07:22:59.056Z</time>
      </trkpt>
      <trkpt lat="27.4807" lon="86.86408">
        <ele>2299.9328</ele>
        <time>2019-10-09T07:23:54.056Z</time>
      </trkpt>
      <trkpt lat="27.48102" lon="86.863668">
        <ele>2288</ele>
        <time>2019-10-09T07:25:05.056Z</time>
      </trkpt>
      <trkpt lat="27.481259" lon="86.863176">
        <ele>2287</ele>
        <time>2019-10-09T07:25:51.056Z</time>
      </trkpt>
      <trkpt lat="27.481996" lon="86.862902">
        <ele>2281.7664</ele>
        <time>2019-10-09T07:27:16.056Z</time>
      </trkpt>
      <trkpt lat="27.482174" lon="86.862308">
        <ele>2279.7336</ele>
        <time>2019-10-09T07:28:01.056Z</time>
      </trkpt>
      <trkpt lat="27.482739" lon="86.861779">
        <ele>2280</ele>
        <time>2019-10-09T07:29:29.056Z</time>
      </trkpt>
      <trkpt lat="27.483306" lon="86.861442">
        <ele>2281</ele>
        <time>2019-10-09T07:30:29.056Z</time>
      </trkpt>
      <trkpt lat="27.483892" lon="86.86138">
        <ele>2280.4664</ele>
        <time>2019-10-09T07:31:29.056Z</time>
      </trkpt>
      <trkpt lat="27.484167" lon="86.861042">
        <ele>2281.0672</ele>
        <time>2019-10-09T07:32:14.056Z</time>
      </trkpt>
      <trkpt lat="27.484378" lon="86.860793">
        <ele>2282</ele>
        <time>2019-10-09T07:32:59.056Z</time>
      </trkpt>
      <trkpt lat="27.485008" lon="86.860608">
        <ele>2279.8992</ele>
        <time>2019-10-09T07:33:54.056Z</time>
      </trkpt>
      <trkpt lat="27.485564" lon="86.860441">
        <ele>2263.33984</ele>
        <time>2019-10-09T07:35:32.054Z</time>
      </trkpt>
      <trkpt lat="27.485793" lon="86.860431">
        <ele>2258.3328</ele>
        <time>2019-10-09T07:36:17.056Z</time>
      </trkpt>
      <trkpt lat="27.485734" lon="86.860302">
        <ele>2253.5336</ele>
        <time>2019-10-09T07:37:29.056Z</time>
      </trkpt>
      <trkpt lat="27.485947" lon="86.860064">
        <ele>2251</ele>
        <time>2019-10-09T07:38:29.056Z</time>
      </trkpt>
      <trkpt lat="27.48597" lon="86.85958">
        <ele>2246.93373343464</ele>
        <time>2019-10-09T07:39:29.056Z</time>
      </trkpt>
      <trkpt lat="27.486223" lon="86.858777">
        <ele>2240.0664</ele>
        <time>2019-10-09T07:41:03.056Z</time>
      </trkpt>
      <trkpt lat="27.487305" lon="86.857946">
        <ele>2213.26686611856</ele>
        <time>2019-10-09T07:44:01.056Z</time>
      </trkpt>
      <trkpt lat="27.487762" lon="86.857906">
        <ele>2205.7664</ele>
        <time>2019-10-09T07:44:56.056Z</time>
      </trkpt>
      <trkpt lat="27.488225" lon="86.857032">
        <ele>2199.4664</ele>
        <time>2019-10-09T07:46:29.056Z</time>
      </trkpt>
      <trkpt lat="27.488641" lon="86.856556">
        <ele>2196.9328</ele>
        <time>2019-10-09T07:47:29.056Z</time>
      </trkpt>
      <trkpt lat="27.489726" lon="86.85606">
        <ele>2193</ele>
        <time>2019-10-09T07:49:14.056Z</time>
      </trkpt>
      <trkpt lat="27.490048" lon="86.855719">
        <ele>2191.46593421488</ele>
        <time>2019-10-09T07:49:59.056Z</time>
      </trkpt>
      <trkpt lat="27.490497" lon="86.855347">
        <ele>2183.73153193785</ele>
        <time>2019-10-09T07:50:50.056Z</time>
      </trkpt>
      <trkpt lat="27.491089" lon="86.855649">
        <ele>2179.1664</ele>
        <time>2019-10-09T07:51:52.056Z</time>
      </trkpt>
      <trkpt lat="27.491193" lon="86.855399">
        <ele>2178</ele>
        <time>2019-10-09T07:52:51.056Z</time>
      </trkpt>
      <trkpt lat="27.491939" lon="86.85551">
        <ele>2175.73106948446</ele>
        <time>2019-10-09T07:53:55.056Z</time>
      </trkpt>
      <trkpt lat="27.492476" lon="86.855657">
        <ele>2168</ele>
        <time>2019-10-09T07:55:05.056Z</time>
      </trkpt>
      <trkpt lat="27.492964" lon="86.855836">
        <ele>2163.06253844157</ele>
        <time>2019-10-09T07:55:56.056Z</time>
      </trkpt>
      <trkpt lat="27.493242" lon="86.85534">
        <ele>2157.3328</ele>
        <time>2019-10-09T07:56:52.056Z</time>
      </trkpt>
      <trkpt lat="27.493888" lon="86.855328">
        <ele>2145</ele>
        <time>2019-10-09T07:58:06.056Z</time>
      </trkpt>
      <trkpt lat="27.494216" lon="86.855523">
        <ele>2140.86553474223</ele>
        <time>2019-10-09T07:58:55.056Z</time>
      </trkpt>
      <trkpt lat="27.494417" lon="86.855359">
        <ele>2137</ele>
        <time>2019-10-09T08:00:12.056Z</time>
      </trkpt>
      <trkpt lat="27.494549" lon="86.854761">
        <ele>2128.9992</ele>
        <time>2019-10-09T08:00:57.056Z</time>
      </trkpt>
      <trkpt lat="27.495751" lon="86.854497">
        <ele>2101.57280801645</ele>
        <time>2019-10-09T08:03:48.056Z</time>
      </trkpt>
      <trkpt lat="27.496251" lon="86.854177">
        <ele>2096.9328</ele>
        <time>2019-10-09T08:04:49.056Z</time>
      </trkpt>
      <trkpt lat="27.496624" lon="86.85398">
        <ele>2079.93260032</ele>
        <time>2019-10-09T08:06:29.056Z</time>
      </trkpt>
      <trkpt lat="27.49693" lon="86.853877">
        <ele>2068.39890048</ele>
        <time>2019-10-09T08:07:29.056Z</time>
      </trkpt>
      <trkpt lat="27.49732" lon="86.85371">
        <ele>2056.93260032</ele>
        <time>2019-10-09T08:08:29.056Z</time>
      </trkpt>
      <trkpt lat="27.497636" lon="86.85356">
        <ele>2049.89890048</ele>
        <time>2019-10-09T08:09:14.056Z</time>
      </trkpt>
      <trkpt lat="27.497903" lon="86.853502">
        <ele>2044.46593421488</ele>
        <time>2019-10-09T08:09:59.056Z</time>
      </trkpt>
      <trkpt lat="27.498047" lon="86.853382">
        <ele>2035.1664</ele>
        <time>2019-10-09T08:11:12.056Z</time>
      </trkpt>
      <trkpt lat="27.49866" lon="86.853422">
        <ele>2027.44380032</ele>
        <time>2019-10-09T08:12:19.282Z</time>
      </trkpt>
      <trkpt lat="27.49894" lon="86.853223">
        <ele>2018.6664</ele>
        <time>2019-10-09T08:13:07.056Z</time>
      </trkpt>
      <trkpt lat="27.498869" lon="86.852402">
        <ele>2006.4664</ele>
        <time>2019-10-09T08:14:29.056Z</time>
      </trkpt>
      <trkpt lat="27.49923" lon="86.851808">
        <ele>2006.4664</ele>
        <time>2019-10-09T08:15:29.056Z</time>
      </trkpt>
      <trkpt lat="27.49942" lon="86.851173">
        <ele>2008</ele>
        <time>2019-10-09T08:16:29.056Z</time>
      </trkpt>
      <trkpt lat="27.499907" lon="86.850691">
        <ele>2004</ele>
        <time>2019-10-09T08:17:14.262Z</time>
      </trkpt>
      <trkpt lat="27.500053" lon="86.850667">
        <ele>2003.24285738033</ele>
        <time>2019-10-09T08:18:01.289Z</time>
      </trkpt>
      <trkpt lat="27.499656" lon="86.850941">
        <ele>2003</ele>
        <time>2019-10-09T08:18:59.262Z</time>
      </trkpt>
      <trkpt lat="27.500026" lon="86.850581">
        <ele>2004</ele>
        <time>2019-10-09T08:19:47.056Z</time>
      </trkpt>
      <trkpt lat="27.499921" lon="86.850746">
        <ele>2003.54545535919</ele>
        <time>2019-10-09T08:20:58.260Z</time>
      </trkpt>
      <trkpt lat="27.500141" lon="86.850858">
        <ele>2003.26566590089</ele>
        <time>2019-10-09T08:21:51.056Z</time>
      </trkpt>
      <trkpt lat="27.500016" lon="86.850673">
        <ele>2003</ele>
        <time>2019-10-09T08:22:47.056Z</time>
      </trkpt>
      <trkpt lat="27.499719" lon="86.850901">
        <ele>2003</ele>
        <time>2019-10-09T08:23:48.056Z</time>
      </trkpt>
      <trkpt lat="27.49994" lon="86.85075">
        <ele>2002.14575381283</ele>
        <time>2019-10-09T08:25:02.261Z</time>
      </trkpt>
      <trkpt lat="27.500178" lon="86.851013">
        <ele>2002</ele>
        <time>2019-10-09T08:25:51.056Z</time>
      </trkpt>
      <trkpt lat="27.499858" lon="86.850778">
        <ele>2003</ele>
        <time>2019-10-09T08:28:26.263Z</time>
      </trkpt>
      <trkpt lat="27.499615" lon="86.851033">
        <ele>2003</ele>
        <time>2019-10-09T08:29:15.262Z</time>
      </trkpt>
      <trkpt lat="27.499904" lon="86.850743">
        <ele>2001.82159546794</ele>
        <time>2019-10-09T08:30:54.262Z</time>
      </trkpt>
      <trkpt lat="27.501634" lon="86.85059">
        <ele>1944.07928935971</ele>
        <time>2019-10-09T08:38:53.056Z</time>
      </trkpt>
      <trkpt lat="27.502119" lon="86.850214">
        <ele>1927.28460032</ele>
        <time>2019-10-09T08:40:27.297Z</time>
      </trkpt>
      <trkpt lat="27.502323" lon="86.850514">
        <ele>1920</ele>
        <time>2019-10-09T08:41:12.056Z</time>
      </trkpt>
      <trkpt lat="27.502558" lon="86.849962">
        <ele>1906</ele>
        <time>2019-10-09T08:42:29.056Z</time>
      </trkpt>
      <trkpt lat="27.50261" lon="86.849738">
        <ele>1899</ele>
        <time>2019-10-09T08:43:29.056Z</time>
      </trkpt>
      <trkpt lat="27.5027" lon="86.849593">
        <ele>1894.9328</ele>
        <time>2019-10-09T08:44:29.056Z</time>
      </trkpt>
      <trkpt lat="27.503092" lon="86.8495">
        <ele>1885.96649984</ele>
        <time>2019-10-09T08:45:14.055Z</time>
      </trkpt>
      <trkpt lat="27.502946" lon="86.849847">
        <ele>1881.44099968</ele>
        <time>2019-10-09T08:46:08.130Z</time>
      </trkpt>
      <trkpt lat="27.503067" lon="86.849202">
        <ele>1875.9184</ele>
        <time>2019-10-09T08:46:59.128Z</time>
      </trkpt>
      <trkpt lat="27.50346" lon="86.847853">
        <ele>1837.94030649837</ele>
        <time>2019-10-09T08:52:04.164Z</time>
      </trkpt>
      <trkpt lat="27.50394" lon="86.846239">
        <ele>1768.1383854394</ele>
        <time>2019-10-09T08:59:53.056Z</time>
      </trkpt>
      <trkpt lat="27.504687" lon="86.846123">
        <ele>1752.17871947075</ele>
        <time>2019-10-09T09:01:42.056Z</time>
      </trkpt>
      <trkpt lat="27.504858" lon="86.845766">
        <ele>1735.9328</ele>
        <time>2019-10-09T09:03:29.056Z</time>
      </trkpt>
      <trkpt lat="27.504901" lon="86.845665">
        <ele>1724.5328</ele>
        <time>2019-10-09T09:04:41.056Z</time>
      </trkpt>
      <trkpt lat="27.505277" lon="86.845206">
        <ele>1705.13625498008</ele>
        <time>2019-10-09T09:06:28.056Z</time>
      </trkpt>
      <trkpt lat="27.505518" lon="86.845099">
        <ele>1697.06733236918</ele>
        <time>2019-10-09T09:07:13.056Z</time>
      </trkpt>
      <trkpt lat="27.505643" lon="86.84509">
        <ele>1684.4664</ele>
        <time>2019-10-09T09:08:39.056Z</time>
      </trkpt>
      <trkpt lat="27.505726" lon="86.845733">
        <ele>1680.7328</ele>
        <time>2019-10-09T09:09:25.056Z</time>
      </trkpt>
      <trkpt lat="27.505884" lon="86.845769">
        <ele>1671.9328</ele>
        <time>2019-10-09T09:10:29.056Z</time>
      </trkpt>
      <trkpt lat="27.505975" lon="86.845452">
        <ele>1663.4664</ele>
        <time>2019-10-09T09:11:29.056Z</time>
      </trkpt>
      <trkpt lat="27.506254" lon="86.845116">
        <ele>1653.4664</ele>
        <time>2019-10-09T09:12:29.056Z</time>
      </trkpt>
      <trkpt lat="27.506236" lon="86.844733">
        <ele>1643.93173207392</ele>
        <time>2019-10-09T09:13:29.056Z</time>
      </trkpt>
      <trkpt lat="27.506642" lon="86.843805">
        <ele>1617.92369349398</ele>
        <time>2019-10-09T09:16:24.140Z</time>
      </trkpt>
      <trkpt lat="27.507027" lon="86.844122">
        <ele>1609.4664</ele>
        <time>2019-10-09T09:17:09.056Z</time>
      </trkpt>
      <trkpt lat="27.507146" lon="86.844228">
        <ele>1604.3992</ele>
        <time>2019-10-09T09:18:29.056Z</time>
      </trkpt>
      <trkpt lat="27.507502" lon="86.843885">
        <ele>1593.4664</ele>
        <time>2019-10-09T09:19:29.056Z</time>
      </trkpt>
      <trkpt lat="27.507535" lon="86.843738">
        <ele>1582.9328</ele>
        <time>2019-10-09T09:20:29.056Z</time>
      </trkpt>
      <trkpt lat="27.50776" lon="86.843722">
        <ele>1568</ele>
        <time>2019-10-09T09:22:09.138Z</time>
      </trkpt>
      <trkpt lat="27.507968" lon="86.843603">
        <ele>1556.25849984</ele>
        <time>2019-10-09T09:23:21.135Z</time>
      </trkpt>
      <trkpt lat="27.508174" lon="86.843192">
        <ele>1534.65986039841</ele>
        <time>2019-10-09T09:25:27.135Z</time>
      </trkpt>
      <trkpt lat="27.50826" lon="86.842991">
        <ele>1523.71748306653</ele>
        <time>2019-10-09T09:26:40.139Z</time>
      </trkpt>
      <trkpt lat="27.508429" lon="86.842855">
        <ele>1510.78173842284</ele>
        <time>2019-10-09T09:27:51.139Z</time>
      </trkpt>
      <trkpt lat="27.508432" lon="86.842478">
        <ele>1492.85866581673</ele>
        <time>2019-10-09T09:29:25.139Z</time>
      </trkpt>
      <trkpt lat="27.508703" lon="86.842069">
        <ele>1475.5759974502</ele>
        <time>2019-10-09T09:31:15.139Z</time>
      </trkpt>
      <trkpt lat="27.508837" lon="86.842205">
        <ele>1455.6576</ele>
        <time>2019-10-09T09:32:47.144Z</time>
      </trkpt>
      <trkpt lat="27.50923" lon="86.842089">
        <ele>1445.54284282912</ele>
        <time>2019-10-09T09:34:29.143Z</time>
      </trkpt>
      <trkpt lat="27.509362" lon="86.841821">
        <ele>1444</ele>
        <time>2019-10-09T09:35:46.144Z</time>
      </trkpt>
      <trkpt lat="27.509173" lon="86.842047">
        <ele>1446</ele>
        <time>2019-10-09T09:37:49.144Z</time>
      </trkpt>
      <trkpt lat="27.509645" lon="86.841706">
        <ele>1428.1152</ele>
        <time>2019-10-09T09:39:43.144Z</time>
      </trkpt>
      <trkpt lat="27.509789" lon="86.841762">
        <ele>1408.72367719438</ele>
        <time>2019-10-09T09:41:30.148Z</time>
      </trkpt>
      <trkpt lat="27.510023" lon="86.84168">
        <ele>1395.6588053839</ele>
        <time>2019-10-09T09:42:37.149Z</time>
      </trkpt>
      <trkpt lat="27.510507" lon="86.842002">
        <ele>1350.73589073302</ele>
        <time>2019-10-09T09:46:40.148Z</time>
      </trkpt>
      <trkpt lat="27.510889" lon="86.841507">
        <ele>1317.95786383134</ele>
        <time>2019-10-09T09:50:57.222Z</time>
      </trkpt>
      <trkpt lat="27.511152" lon="86.841016">
        <ele>1309</ele>
        <time>2019-10-09T09:52:38.222Z</time>
      </trkpt>
      <trkpt lat="27.511233" lon="86.841162">
        <ele>1306</ele>
        <time>2019-10-09T09:54:29.056Z</time>
      </trkpt>
      <trkpt lat="27.511376" lon="86.841023">
        <ele>1309</ele>
        <time>2019-10-09T09:55:29.056Z</time>
      </trkpt>
      <trkpt lat="27.511585" lon="86.841067">
        <ele>1315.5336</ele>
        <time>2019-10-09T09:56:29.056Z</time>
      </trkpt>
      <trkpt lat="27.511908" lon="86.840882">
        <ele>1323.5336</ele>
        <time>2019-10-09T09:57:29.056Z</time>
      </trkpt>
      <trkpt lat="27.511424" lon="86.840572">
        <ele>1330.6672</ele>
        <time>2019-10-09T09:59:07.056Z</time>
      </trkpt>
      <trkpt lat="27.511832" lon="86.839616">
        <ele>1369.51089023325</ele>
        <time>2019-10-09T10:05:46.277Z</time>
      </trkpt>
      <trkpt lat="27.512221" lon="86.83935">
        <ele>1376.85229952</ele>
        <time>2019-10-09T10:07:22.243Z</time>
      </trkpt>
      <trkpt lat="27.511657" lon="86.839286">
        <ele>1383.5336</ele>
        <time>2019-10-09T10:08:29.056Z</time>
      </trkpt>
      <trkpt lat="27.511488" lon="86.839137">
        <ele>1388.5336</ele>
        <time>2019-10-09T10:09:29.056Z</time>
      </trkpt>
      <trkpt lat="27.51125" lon="86.838974">
        <ele>1393.5336</ele>
        <time>2019-10-09T10:10:29.056Z</time>
      </trkpt>
      <trkpt lat="27.5113" lon="86.8389">
        <ele>1394.8664</ele>
        <time>2019-10-09T10:11:35.056Z</time>
      </trkpt>
      <trkpt lat="27.511183" lon="86.838574">
        <ele>1402.9336</ele>
        <time>2019-10-09T10:13:13.056Z</time>
      </trkpt>
      <trkpt lat="27.512604" lon="86.837869">
        <ele>1407.4336</ele>
        <time>2019-10-09T10:13:58.056Z</time>
      </trkpt>
      <trkpt lat="27.511829" lon="86.837528">
        <ele>1412.4672</ele>
        <time>2019-10-09T10:14:51.056Z</time>
      </trkpt>
      <trkpt lat="27.512101" lon="86.837249">
        <ele>1419</ele>
        <time>2019-10-09T10:16:11.051Z</time>
      </trkpt>
      <trkpt lat="27.512465" lon="86.836598">
        <ele>1439</ele>
        <time>2019-10-09T10:23:55.056Z</time>
      </trkpt>
      <trkpt lat="27.511795" lon="86.83764">
        <ele>1440</ele>
        <time>2019-10-09T11:07:26.056Z</time>
      </trkpt>
      <trkpt lat="27.511746" lon="86.837793">
        <ele>1440</ele>
        <time>2019-10-09T11:08:11.056Z</time>
      </trkpt>
      <trkpt lat="27.511796" lon="86.837443">
        <ele>1440</ele>
        <time>2019-10-09T11:09:29.056Z</time>
      </trkpt>
      <trkpt lat="27.511852" lon="86.837444">
        <ele>1440</ele>
        <time>2019-10-09T11:14:31.056Z</time>
      </trkpt>
      <trkpt lat="27.511902" lon="86.837222">
        <ele>1451.5336</ele>
        <time>2019-10-09T11:16:29.056Z</time>
      </trkpt>
      <trkpt lat="27.511993" lon="86.837027">
        <ele>1457.0672</ele>
        <time>2019-10-09T11:17:14.056Z</time>
      </trkpt>
      <trkpt lat="27.511852" lon="86.836853">
        <ele>1462.5336</ele>
        <time>2019-10-09T11:17:59.056Z</time>
      </trkpt>
      <trkpt lat="27.51191" lon="86.836711">
        <ele>1468.4336</ele>
        <time>2019-10-09T11:18:48.056Z</time>
      </trkpt>
      <trkpt lat="27.511793" lon="86.836532">
        <ele>1476.0672</ele>
        <time>2019-10-09T11:19:54.056Z</time>
      </trkpt>
      <trkpt lat="27.511588" lon="86.836292">
        <ele>1483</ele>
        <time>2019-10-09T11:20:49.056Z</time>
      </trkpt>
      <trkpt lat="27.511724" lon="86.836034">
        <ele>1489</ele>
        <time>2019-10-09T11:21:49.056Z</time>
      </trkpt>
      <trkpt lat="27.511805" lon="86.835922">
        <ele>1497.2672</ele>
        <time>2019-10-09T11:22:50.056Z</time>
      </trkpt>
      <trkpt lat="27.511746" lon="86.835769">
        <ele>1503.6672</ele>
        <time>2019-10-09T11:23:47.056Z</time>
      </trkpt>
      <trkpt lat="27.511628" lon="86.835547">
        <ele>1512.0672</ele>
        <time>2019-10-09T11:24:49.056Z</time>
      </trkpt>
      <trkpt lat="27.511616" lon="86.835427">
        <ele>1518.4336</ele>
        <time>2019-10-09T11:25:48.056Z</time>
      </trkpt>
      <trkpt lat="27.511661" lon="86.835126">
        <ele>1524.6336</ele>
        <time>2019-10-09T11:26:50.056Z</time>
      </trkpt>
      <trkpt lat="27.511662" lon="86.834956">
        <ele>1530.8672</ele>
        <time>2019-10-09T11:27:48.056Z</time>
      </trkpt>
      <trkpt lat="27.51168" lon="86.834798">
        <ele>1538.5336</ele>
        <time>2019-10-09T11:28:49.056Z</time>
      </trkpt>
      <trkpt lat="27.511841" lon="86.834599">
        <ele>1545.6672</ele>
        <time>2019-10-09T11:29:47.056Z</time>
      </trkpt>
      <trkpt lat="27.511998" lon="86.834401">
        <ele>1552.6336</ele>
        <time>2019-10-09T11:30:50.056Z</time>
      </trkpt>
      <trkpt lat="27.512157" lon="86.834222">
        <ele>1560.6336</ele>
        <time>2019-10-09T11:32:50.056Z</time>
      </trkpt>
      <trkpt lat="27.512472" lon="86.834159">
        <ele>1566.4336</ele>
        <time>2019-10-09T11:33:48.056Z</time>
      </trkpt>
      <trkpt lat="27.512631" lon="86.833976">
        <ele>1572.6336</ele>
        <time>2019-10-09T11:34:50.056Z</time>
      </trkpt>
      <trkpt lat="27.512766" lon="86.833814">
        <ele>1580</ele>
        <time>2019-10-09T11:35:51.056Z</time>
      </trkpt>
      <trkpt lat="27.512778" lon="86.833641">
        <ele>1587.7336</ele>
        <time>2019-10-09T11:36:51.056Z</time>
      </trkpt>
      <trkpt lat="27.512884" lon="86.833374">
        <ele>1593.7336</ele>
        <time>2019-10-09T11:37:51.056Z</time>
      </trkpt>
      <trkpt lat="27.512839" lon="86.833037">
        <ele>1601.0672</ele>
        <time>2019-10-09T11:38:49.056Z</time>
      </trkpt>
      <trkpt lat="27.512742" lon="86.832884">
        <ele>1606.5336</ele>
        <time>2019-10-09T11:39:49.056Z</time>
      </trkpt>
      <trkpt lat="27.512886" lon="86.832729">
        <ele>1614.5336</ele>
        <time>2019-10-09T11:40:49.056Z</time>
      </trkpt>
      <trkpt lat="27.512978" lon="86.832579">
        <ele>1623.4672</ele>
        <time>2019-10-09T11:41:51.056Z</time>
      </trkpt>
      <trkpt lat="27.513041" lon="86.832431">
        <ele>1631.7336</ele>
        <time>2019-10-09T11:43:11.056Z</time>
      </trkpt>
      <trkpt lat="27.513162" lon="86.832109">
        <ele>1636</ele>
        <time>2019-10-09T11:43:56.056Z</time>
      </trkpt>
      <trkpt lat="27.513103" lon="86.831851">
        <ele>1641.6336</ele>
        <time>2019-10-09T11:44:50.056Z</time>
      </trkpt>
      <trkpt lat="27.513037" lon="86.831621">
        <ele>1650.0336</ele>
        <time>2019-10-09T11:45:54.056Z</time>
      </trkpt>
      <trkpt lat="27.512967" lon="86.831517">
        <ele>1654</ele>
        <time>2019-10-09T11:46:51.056Z</time>
      </trkpt>
      <trkpt lat="27.512445" lon="86.831525">
        <ele>1656</ele>
        <time>2019-10-09T11:47:49.056Z</time>
      </trkpt>
      <trkpt lat="27.51193" lon="86.831732">
        <ele>1661.2672</ele>
        <time>2019-10-09T11:48:50.056Z</time>
      </trkpt>
      <trkpt lat="27.511332" lon="86.83143">
        <ele>1661</ele>
        <time>2019-10-09T11:49:51.056Z</time>
      </trkpt>
      <trkpt lat="27.510359" lon="86.831376">
        <ele>1663.1382476494</ele>
        <time>2019-10-09T11:52:03.056Z</time>
      </trkpt>
      <trkpt lat="27.509979" lon="86.831131">
        <ele>1667</ele>
        <time>2019-10-09T11:52:49.056Z</time>
      </trkpt>
      <trkpt lat="27.509333" lon="86.830859">
        <ele>1677.0672</ele>
        <time>2019-10-09T11:54:29.056Z</time>
      </trkpt>
      <trkpt lat="27.509026" lon="86.83057">
        <ele>1683.5336</ele>
        <time>2019-10-09T11:55:29.056Z</time>
      </trkpt>
      <trkpt lat="27.508637" lon="86.830203">
        <ele>1689.5336</ele>
        <time>2019-10-09T11:56:29.056Z</time>
      </trkpt>
      <trkpt lat="27.508321" lon="86.829924">
        <ele>1694.0336</ele>
        <time>2019-10-09T11:57:14.056Z</time>
      </trkpt>
      <trkpt lat="27.50822" lon="86.829747">
        <ele>1697</ele>
        <time>2019-10-09T11:57:59.056Z</time>
      </trkpt>
      <trkpt lat="27.507892" lon="86.82924">
        <ele>1701.73433409911</ele>
        <time>2019-10-09T11:58:51.056Z</time>
      </trkpt>
      <trkpt lat="27.50766" lon="86.828705">
        <ele>1708.3336</ele>
        <time>2019-10-09T11:59:47.056Z</time>
      </trkpt>
      <trkpt lat="27.507319" lon="86.828252">
        <ele>1715.6672</ele>
        <time>2019-10-09T12:00:47.056Z</time>
      </trkpt>
      <trkpt lat="27.507078" lon="86.827843">
        <ele>1724.7336</ele>
        <time>2019-10-09T12:01:51.056Z</time>
      </trkpt>
      <trkpt lat="27.506901" lon="86.827336">
        <ele>1730.3336</ele>
        <time>2019-10-09T12:02:47.056Z</time>
      </trkpt>
      <trkpt lat="27.506535" lon="86.826752">
        <ele>1735.5336</ele>
        <time>2019-10-09T12:03:49.056Z</time>
      </trkpt>
      <trkpt lat="27.506593" lon="86.826082">
        <ele>1734.5664</ele>
        <time>2019-10-09T12:04:48.056Z</time>
      </trkpt>
      <trkpt lat="27.506458" lon="86.825365">
        <ele>1728</ele>
        <time>2019-10-09T12:05:49.056Z</time>
      </trkpt>
      <trkpt lat="27.506531" lon="86.82439">
        <ele>1720.2664</ele>
        <time>2019-10-09T12:06:51.056Z</time>
      </trkpt>
      <trkpt lat="27.506424" lon="86.823755">
        <ele>1713.3328</ele>
        <time>2019-10-09T12:07:47.056Z</time>
      </trkpt>
      <trkpt lat="27.506656" lon="86.822949">
        <ele>1704.4664</ele>
        <time>2019-10-09T12:08:49.056Z</time>
      </trkpt>
      <trkpt lat="27.506822" lon="86.822536">
        <ele>1698.3664</ele>
        <time>2019-10-09T12:10:50.056Z</time>
      </trkpt>
      <trkpt lat="27.507101" lon="86.821867">
        <ele>1688</ele>
        <time>2019-10-09T12:12:20.056Z</time>
      </trkpt>
      <trkpt lat="27.507463" lon="86.82144">
        <ele>1679.8664</ele>
        <time>2019-10-09T12:13:05.056Z</time>
      </trkpt>
      <trkpt lat="27.507327" lon="86.820514">
        <ele>1677.5336</ele>
        <time>2019-10-09T12:14:29.056Z</time>
      </trkpt>
      <trkpt lat="27.507132" lon="86.819699">
        <ele>1679</ele>
        <time>2019-10-09T12:15:29.056Z</time>
      </trkpt>
      <trkpt lat="27.507204" lon="86.818835">
        <ele>1673.4664</ele>
        <time>2019-10-09T12:16:29.056Z</time>
      </trkpt>
      <trkpt lat="27.507177" lon="86.818265">
        <ele>1670.9664</ele>
        <time>2019-10-09T12:17:14.056Z</time>
      </trkpt>
      <trkpt lat="27.507098" lon="86.817523">
        <ele>1669.9328</ele>
        <time>2019-10-09T12:17:59.056Z</time>
      </trkpt>
      <trkpt lat="27.507247" lon="86.816789">
        <ele>1667.3664</ele>
        <time>2019-10-09T12:18:50.056Z</time>
      </trkpt>
      <trkpt lat="27.506813" lon="86.816476">
        <ele>1668</ele>
        <time>2019-10-09T12:19:49.056Z</time>
      </trkpt>
      <trkpt lat="27.506194" lon="86.816004">
        <ele>1662.2664</ele>
        <time>2019-10-09T12:20:51.056Z</time>
      </trkpt>
      <trkpt lat="27.505909" lon="86.815451">
        <ele>1655.36676664928</ele>
        <time>2019-10-09T12:21:50.056Z</time>
      </trkpt>
      <trkpt lat="27.505254" lon="86.8153">
        <ele>1656</ele>
        <time>2019-10-09T12:22:48.056Z</time>
      </trkpt>
      <trkpt lat="27.504827" lon="86.814622">
        <ele>1658</ele>
        <time>2019-10-09T12:23:51.056Z</time>
      </trkpt>
      <trkpt lat="27.504549" lon="86.813893">
        <ele>1652.3664</ele>
        <time>2019-10-09T12:24:50.056Z</time>
      </trkpt>
      <trkpt lat="27.504249" lon="86.813036">
        <ele>1650.4664</ele>
        <time>2019-10-09T12:25:49.056Z</time>
      </trkpt>
      <trkpt lat="27.50396" lon="86.812368">
        <ele>1646.2664</ele>
        <time>2019-10-09T12:26:51.056Z</time>
      </trkpt>
      <trkpt lat="27.503813" lon="86.81155">
        <ele>1644</ele>
        <time>2019-10-09T12:27:51.056Z</time>
      </trkpt>
      <trkpt lat="27.503989" lon="86.810648">
        <ele>1641.7328</ele>
        <time>2019-10-09T12:28:50.056Z</time>
      </trkpt>
      <trkpt lat="27.503635" lon="86.809901">
        <ele>1640</ele>
        <time>2019-10-09T12:29:52.056Z</time>
      </trkpt>
      <trkpt lat="27.503329" lon="86.809668">
        <ele>1642</ele>
        <time>2019-10-09T12:30:49.056Z</time>
      </trkpt>
      <trkpt lat="27.502997" lon="86.809273">
        <ele>1647.0672</ele>
        <time>2019-10-09T12:31:49.056Z</time>
      </trkpt>
      <trkpt lat="27.502842" lon="86.808502">
        <ele>1651</ele>
        <time>2019-10-09T12:32:50.056Z</time>
      </trkpt>
      <trkpt lat="27.50269" lon="86.807922">
        <ele>1658</ele>
        <time>2019-10-09T12:33:50.056Z</time>
      </trkpt>
      <trkpt lat="27.50315" lon="86.80745">
        <ele>1660</ele>
        <time>2019-10-09T12:34:51.056Z</time>
      </trkpt>
      <trkpt lat="27.503681" lon="86.807141">
        <ele>1661.5664</ele>
        <time>2019-10-09T12:35:48.056Z</time>
      </trkpt>
      <trkpt lat="27.504371" lon="86.806256">
        <ele>1667</ele>
        <time>2019-10-09T12:37:19.247Z</time>
      </trkpt>
      <trkpt lat="27.504685" lon="86.8058">
        <ele>1669</ele>
        <time>2019-10-09T12:38:04.056Z</time>
      </trkpt>
      <trkpt lat="27.505225" lon="86.804955">
        <ele>1673</ele>
        <time>2019-10-09T12:39:29.056Z</time>
      </trkpt>
      <trkpt lat="27.505942" lon="86.80491">
        <ele>1674</ele>
        <time>2019-10-09T12:40:29.056Z</time>
      </trkpt>
      <trkpt lat="27.506303" lon="86.804253">
        <ele>1672.4664</ele>
        <time>2019-10-09T12:41:29.056Z</time>
      </trkpt>
      <trkpt lat="27.506731" lon="86.803422">
        <ele>1670.9664</ele>
        <time>2019-10-09T12:42:14.056Z</time>
      </trkpt>
      <trkpt lat="27.506721" lon="86.802818">
        <ele>1660.5328</ele>
        <time>2019-10-09T12:43:46.056Z</time>
      </trkpt>
      <trkpt lat="27.507273" lon="86.801901">
        <ele>1653.1664</ele>
        <time>2019-10-09T12:44:52.056Z</time>
      </trkpt>
      <trkpt lat="27.507736" lon="86.801312">
        <ele>1645.4664</ele>
        <time>2019-10-09T12:46:29.056Z</time>
      </trkpt>
      <trkpt lat="27.508005" lon="86.800783">
        <ele>1641.5336</ele>
        <time>2019-10-09T12:47:29.056Z</time>
      </trkpt>
      <trkpt lat="27.508039" lon="86.800579">
        <ele>1638</ele>
        <time>2019-10-09T12:48:29.056Z</time>
      </trkpt>
      <trkpt lat="27.508038" lon="86.800137">
        <ele>1641</ele>
        <time>2019-10-09T12:49:14.056Z</time>
      </trkpt>
      <trkpt lat="27.508397" lon="86.799107">
        <ele>1646.4672</ele>
        <time>2019-10-09T12:50:31.056Z</time>
      </trkpt>
      <trkpt lat="27.507969" lon="86.798952">
        <ele>1651.5336</ele>
        <time>2019-10-09T12:52:29.056Z</time>
      </trkpt>
      <trkpt lat="27.507238" lon="86.79946">
        <ele>1650</ele>
        <time>2019-10-09T12:53:38.056Z</time>
      </trkpt>
      <trkpt lat="27.506146" lon="86.799694">
        <ele>1651.3336</ele>
        <time>2019-10-09T12:55:17.056Z</time>
      </trkpt>
      <trkpt lat="27.505653" lon="86.799541">
        <ele>1651</ele>
        <time>2019-10-09T12:56:02.056Z</time>
      </trkpt>
      <trkpt lat="27.505211" lon="86.799182">
        <ele>1652</ele>
        <time>2019-10-09T12:56:50.056Z</time>
      </trkpt>
      <trkpt lat="27.504629" lon="86.798802">
        <ele>1654.53133180178</ele>
        <time>2019-10-09T12:57:51.056Z</time>
      </trkpt>
      <trkpt lat="27.503923" lon="86.798675">
        <ele>1654.53413396304</ele>
        <time>2019-10-09T12:58:49.056Z</time>
      </trkpt>
      <trkpt lat="27.503573" lon="86.798409">
        <ele>1657.2672</ele>
        <time>2019-10-09T12:59:50.056Z</time>
      </trkpt>
      <trkpt lat="27.503203" lon="86.797846">
        <ele>1661.5336</ele>
        <time>2019-10-09T13:00:49.056Z</time>
      </trkpt>
      <trkpt lat="27.502815" lon="86.797206">
        <ele>1664.4336</ele>
        <time>2019-10-09T13:01:48.056Z</time>
      </trkpt>
      <trkpt lat="27.502811" lon="86.796242">
        <ele>1668</ele>
        <time>2019-10-09T13:02:59.244Z</time>
      </trkpt>
      <trkpt lat="27.502647" lon="86.795666">
        <ele>1670.6336</ele>
        <time>2019-10-09T13:03:50.056Z</time>
      </trkpt>
      <trkpt lat="27.502481" lon="86.794854">
        <ele>1671.5336</ele>
        <time>2019-10-09T13:04:49.056Z</time>
      </trkpt>
      <trkpt lat="27.502424" lon="86.793908">
        <ele>1672</ele>
        <time>2019-10-09T13:05:50.056Z</time>
      </trkpt>
      <trkpt lat="27.502114" lon="86.793095">
        <ele>1670.2664</ele>
        <time>2019-10-09T13:06:51.056Z</time>
      </trkpt>
      <trkpt lat="27.501701" lon="86.79277">
        <ele>1668</ele>
        <time>2019-10-09T13:07:51.056Z</time>
      </trkpt>
      <trkpt lat="27.501465" lon="86.793491">
        <ele>1666.7664</ele>
        <time>2019-10-09T13:09:06.056Z</time>
      </trkpt>
      <trkpt lat="27.501058" lon="86.794108">
        <ele>1664.2664</ele>
        <time>2019-10-09T13:09:51.056Z</time>
      </trkpt>
      <trkpt lat="27.500676" lon="86.794511">
        <ele>1660</ele>
        <time>2019-10-09T13:10:49.056Z</time>
      </trkpt>
      <trkpt lat="27.499867" lon="86.794648">
        <ele>1659.4336</ele>
        <time>2019-10-09T13:11:58.056Z</time>
      </trkpt>
      <trkpt lat="27.499465" lon="86.794774">
        <ele>1659</ele>
        <time>2019-10-09T13:12:50.056Z</time>
      </trkpt>
      <trkpt lat="27.49882" lon="86.794875">
        <ele>1661</ele>
        <time>2019-10-09T13:13:51.056Z</time>
      </trkpt>
      <trkpt lat="27.498098" lon="86.794832">
        <ele>1660</ele>
        <time>2019-10-09T13:14:48.056Z</time>
      </trkpt>
      <trkpt lat="27.497998" lon="86.794739">
        <ele>1659</ele>
        <time>2019-10-09T13:15:50.056Z</time>
      </trkpt>
      <trkpt lat="27.497472" lon="86.794317">
        <ele>1656.3664</ele>
        <time>2019-10-09T13:16:50.056Z</time>
      </trkpt>
      <trkpt lat="27.497397" lon="86.79343">
        <ele>1651.89380096</ele>
        <time>2019-10-09T13:17:59.251Z</time>
      </trkpt>
      <trkpt lat="27.496832" lon="86.793013">
        <ele>1648.5664</ele>
        <time>2019-10-09T13:18:48.056Z</time>
      </trkpt>
      <trkpt lat="27.496391" lon="86.792319">
        <ele>1643.5664</ele>
        <time>2019-10-09T13:19:48.056Z</time>
      </trkpt>
      <trkpt lat="27.496145" lon="86.79149">
        <ele>1634.4664</ele>
        <time>2019-10-09T13:20:49.056Z</time>
      </trkpt>
      <trkpt lat="27.495654" lon="86.791085">
        <ele>1628.26666658125</ele>
        <time>2019-10-09T13:21:51.056Z</time>
      </trkpt>
      <trkpt lat="27.49537" lon="86.790419">
        <ele>1629</ele>
        <time>2019-10-09T13:22:50.056Z</time>
      </trkpt>
      <trkpt lat="27.495062" lon="86.789719">
        <ele>1631.5336</ele>
        <time>2019-10-09T13:23:49.056Z</time>
      </trkpt>
      <trkpt lat="27.494766" lon="86.788927">
        <ele>1628.2664</ele>
        <time>2019-10-09T13:24:51.056Z</time>
      </trkpt>
      <trkpt lat="27.494404" lon="86.788223">
        <ele>1625</ele>
        <time>2019-10-09T13:25:50.056Z</time>
      </trkpt>
      <trkpt lat="27.494056" lon="86.787484">
        <ele>1624</ele>
        <time>2019-10-09T13:26:48.056Z</time>
      </trkpt>
      <trkpt lat="27.493644" lon="86.786846">
        <ele>1626.3336</ele>
        <time>2019-10-09T13:27:47.056Z</time>
      </trkpt>
      <trkpt lat="27.493759" lon="86.786009">
        <ele>1624.2664</ele>
        <time>2019-10-09T13:28:51.056Z</time>
      </trkpt>
      <trkpt lat="27.493748" lon="86.785317">
        <ele>1621.5328</ele>
        <time>2019-10-09T13:30:51.056Z</time>
      </trkpt>
      <trkpt lat="27.493517" lon="86.784396">
        <ele>1612.89319936</ele>
        <time>2019-10-09T13:31:59.254Z</time>
      </trkpt>
      <trkpt lat="27.493487" lon="86.783638">
        <ele>1605.5664</ele>
        <time>2019-10-09T13:32:48.056Z</time>
      </trkpt>
      <trkpt lat="27.493226" lon="86.782946">
        <ele>1603</ele>
        <time>2019-10-09T13:33:52.056Z</time>
      </trkpt>
      <trkpt lat="27.493107" lon="86.782472">
        <ele>1605</ele>
        <time>2019-10-09T13:34:51.056Z</time>
      </trkpt>
      <trkpt lat="27.4924" lon="86.78261">
        <ele>1605</ele>
        <time>2019-10-09T13:35:51.056Z</time>
      </trkpt>
      <trkpt lat="27.49199" lon="86.781965">
        <ele>1608</ele>
        <time>2019-10-09T13:36:47.056Z</time>
      </trkpt>
      <trkpt lat="27.49172" lon="86.781336">
        <ele>1612</ele>
        <time>2019-10-09T13:37:50.056Z</time>
      </trkpt>
      <trkpt lat="27.491424" lon="86.780608">
        <ele>1607</ele>
        <time>2019-10-09T13:38:47.056Z</time>
      </trkpt>
      <trkpt lat="27.491303" lon="86.77977">
        <ele>1603.36676664928</ele>
        <time>2019-10-09T13:39:50.056Z</time>
      </trkpt>
      <trkpt lat="27.491058" lon="86.778984">
        <ele>1595.3664</ele>
        <time>2019-10-09T13:40:50.056Z</time>
      </trkpt>
      <trkpt lat="27.49057" lon="86.778282">
        <ele>1592.4672</ele>
        <time>2019-10-09T13:41:51.056Z</time>
      </trkpt>
      <trkpt lat="27.490266" lon="86.77756">
        <ele>1587</ele>
        <time>2019-10-09T13:42:51.056Z</time>
      </trkpt>
      <trkpt lat="27.490224" lon="86.776778">
        <ele>1584.3664</ele>
        <time>2019-10-09T13:43:50.056Z</time>
      </trkpt>
      <trkpt lat="27.490792" lon="86.776227">
        <ele>1581.4664</ele>
        <time>2019-10-09T13:44:49.056Z</time>
      </trkpt>
      <trkpt lat="27.491574" lon="86.775801">
        <ele>1580</ele>
        <time>2019-10-09T13:45:55.056Z</time>
      </trkpt>
      <trkpt lat="27.491339" lon="86.775461">
        <ele>1583</ele>
        <time>2019-10-09T13:46:49.056Z</time>
      </trkpt>
      <trkpt lat="27.491866" lon="86.774539">
        <ele>1573.7328</ele>
        <time>2019-10-09T13:48:25.056Z</time>
      </trkpt>
      <trkpt lat="27.491836" lon="86.773906">
        <ele>1567</ele>
        <time>2019-10-09T13:49:10.056Z</time>
      </trkpt>
      <trkpt lat="27.491249" lon="86.773315">
        <ele>1571.5336</ele>
        <time>2019-10-09T13:50:29.056Z</time>
      </trkpt>
      <trkpt lat="27.490717" lon="86.773164">
        <ele>1572.5336</ele>
        <time>2019-10-09T13:51:29.056Z</time>
      </trkpt>
      <trkpt lat="27.49031" lon="86.772661">
        <ele>1572</ele>
        <time>2019-10-09T13:52:29.056Z</time>
      </trkpt>
      <trkpt lat="27.489918" lon="86.772175">
        <ele>1568</ele>
        <time>2019-10-09T13:53:14.056Z</time>
      </trkpt>
      <trkpt lat="27.489888" lon="86.772354">
        <ele>1563.93186842977</ele>
        <time>2019-10-09T13:53:59.056Z</time>
      </trkpt>
      <trkpt lat="27.489804" lon="86.772669">
        <ele>1554.26566590089</ele>
        <time>2019-10-09T13:54:51.056Z</time>
      </trkpt>
      <trkpt lat="27.489804" lon="86.772875">
        <ele>1551.434033895</ele>
        <time>2019-10-09T13:58:48.056Z</time>
      </trkpt>
      <trkpt lat="27.490378" lon="86.773946">
        <ele>1544.4664</ele>
        <time>2019-10-09T14:00:29.056Z</time>
      </trkpt>
      <trkpt lat="27.490598" lon="86.774482">
        <ele>1540</ele>
        <time>2019-10-09T14:02:29.056Z</time>
      </trkpt>
      <trkpt lat="27.490685" lon="86.774636">
        <ele>1544</ele>
        <time>2019-10-09T14:03:14.056Z</time>
      </trkpt>
      <trkpt lat="27.490602" lon="86.774407">
        <ele>1578.69995117188</ele>
        <time>2019-10-10T05:58:14.054Z</time>
      </trkpt>
      <trkpt lat="27.4906" lon="86.774298">
        <ele>1529</ele>
        <time>2019-10-10T05:59:03.054Z</time>
      </trkpt>
      <trkpt lat="27.490314" lon="86.77392">
        <ele>1529</ele>
        <time>2019-10-10T06:00:18.054Z</time>
      </trkpt>
      <trkpt lat="27.490047" lon="86.773481">
        <ele>1537</ele>
        <time>2019-10-10T06:01:18.054Z</time>
      </trkpt>
      <trkpt lat="27.489758" lon="86.772712">
        <ele>1539.05659904</ele>
        <time>2019-10-10T06:02:23.054Z</time>
      </trkpt>
      <trkpt lat="27.4893" lon="86.77227">
        <ele>1541</ele>
        <time>2019-10-10T06:03:23.054Z</time>
      </trkpt>
      <trkpt lat="27.488865" lon="86.771504">
        <ele>1539</ele>
        <time>2019-10-10T06:04:25.054Z</time>
      </trkpt>
      <trkpt lat="27.488562" lon="86.770742">
        <ele>1535.65659904</ele>
        <time>2019-10-10T06:05:27.054Z</time>
      </trkpt>
      <trkpt lat="27.488444" lon="86.769883">
        <ele>1534.54340096</ele>
        <time>2019-10-10T06:06:29.054Z</time>
      </trkpt>
      <trkpt lat="27.488442" lon="86.769163">
        <ele>1532</ele>
        <time>2019-10-10T06:07:29.054Z</time>
      </trkpt>
      <trkpt lat="27.48849" lon="86.769071">
        <ele>1532</ele>
        <time>2019-10-10T06:09:25.054Z</time>
      </trkpt>
      <trkpt lat="27.488541" lon="86.768798">
        <ele>1530.35659904</ele>
        <time>2019-10-10T06:10:30.054Z</time>
      </trkpt>
      <trkpt lat="27.488635" lon="86.767536">
        <ele>1522.55659904</ele>
        <time>2019-10-10T06:11:58.054Z</time>
      </trkpt>
      <trkpt lat="27.488812" lon="86.766964">
        <ele>1520</ele>
        <time>2019-10-10T06:12:43.054Z</time>
      </trkpt>
      <trkpt lat="27.488942" lon="86.766518">
        <ele>1521.44340096</ele>
        <time>2019-10-10T06:13:28.054Z</time>
      </trkpt>
      <trkpt lat="27.489121" lon="86.765901">
        <ele>1523</ele>
        <time>2019-10-10T06:14:19.054Z</time>
      </trkpt>
      <trkpt lat="27.489047" lon="86.765268">
        <ele>1526</ele>
        <time>2019-10-10T06:15:18.054Z</time>
      </trkpt>
      <trkpt lat="27.488977" lon="86.764767">
        <ele>1525</ele>
        <time>2019-10-10T06:17:17.054Z</time>
      </trkpt>
      <trkpt lat="27.489218" lon="86.764043">
        <ele>1523.55659904</ele>
        <time>2019-10-10T06:18:18.054Z</time>
      </trkpt>
      <trkpt lat="27.489118" lon="86.763273">
        <ele>1527.54340096</ele>
        <time>2019-10-10T06:19:19.054Z</time>
      </trkpt>
      <trkpt lat="27.488894" lon="86.762472">
        <ele>1529.64340096</ele>
        <time>2019-10-10T06:20:20.054Z</time>
      </trkpt>
      <trkpt lat="27.488653" lon="86.761662">
        <ele>1527.55659904</ele>
        <time>2019-10-10T06:21:18.054Z</time>
      </trkpt>
      <trkpt lat="27.488493" lon="86.761045">
        <ele>1529.34340096</ele>
        <time>2019-10-10T06:22:17.054Z</time>
      </trkpt>
      <trkpt lat="27.488496" lon="86.760424">
        <ele>1536.08680192</ele>
        <time>2019-10-10T06:23:19.054Z</time>
      </trkpt>
      <trkpt lat="27.48847" lon="86.759634">
        <ele>1536.11319808</ele>
        <time>2019-10-10T06:24:18.054Z</time>
      </trkpt>
      <trkpt lat="27.488299" lon="86.759048">
        <ele>1524.45659904</ele>
        <time>2019-10-10T06:25:19.054Z</time>
      </trkpt>
      <trkpt lat="27.487906" lon="86.75846">
        <ele>1515.35659904</ele>
        <time>2019-10-10T06:26:20.054Z</time>
      </trkpt>
      <trkpt lat="27.487602" lon="86.757933">
        <ele>1515.54340096</ele>
        <time>2019-10-10T06:27:19.054Z</time>
      </trkpt>
      <trkpt lat="27.487159" lon="86.757512">
        <ele>1521</ele>
        <time>2019-10-10T06:28:20.054Z</time>
      </trkpt>
      <trkpt lat="27.486622" lon="86.757146">
        <ele>1520.35659904</ele>
        <time>2019-10-10T06:29:20.054Z</time>
      </trkpt>
      <trkpt lat="27.486222" lon="86.756575">
        <ele>1522.88680192</ele>
        <time>2019-10-10T06:30:18.054Z</time>
      </trkpt>
      <trkpt lat="27.485853" lon="86.755992">
        <ele>1527</ele>
        <time>2019-10-10T06:31:21.054Z</time>
      </trkpt>
      <trkpt lat="27.485426" lon="86.755599">
        <ele>1530.08680192</ele>
        <time>2019-10-10T06:32:19.054Z</time>
      </trkpt>
      <trkpt lat="27.485077" lon="86.754981">
        <ele>1529.55659904</ele>
        <time>2019-10-10T06:33:18.054Z</time>
      </trkpt>
      <trkpt lat="27.484884" lon="86.754271">
        <ele>1529</ele>
        <time>2019-10-10T06:34:18.054Z</time>
      </trkpt>
      <trkpt lat="27.484401" lon="86.753609">
        <ele>1521.55659904</ele>
        <time>2019-10-10T06:35:18.054Z</time>
      </trkpt>
      <trkpt lat="27.484056" lon="86.752974">
        <ele>1514.55659904</ele>
        <time>2019-10-10T06:36:18.054Z</time>
      </trkpt>
      <trkpt lat="27.483313" lon="86.753101">
        <ele>1505.66979712</ele>
        <time>2019-10-10T06:37:18.054Z</time>
      </trkpt>
      <trkpt lat="27.482633" lon="86.752866">
        <ele>1502.54340096</ele>
        <time>2019-10-10T06:38:19.054Z</time>
      </trkpt>
      <trkpt lat="27.482063" lon="86.752372">
        <ele>1504</ele>
        <time>2019-10-10T06:39:19.054Z</time>
      </trkpt>
      <trkpt lat="27.481377" lon="86.752648">
        <ele>1500</ele>
        <time>2019-10-10T06:40:20.054Z</time>
      </trkpt>
      <trkpt lat="27.480728" lon="86.752394">
        <ele>1500.65659904</ele>
        <time>2019-10-10T06:41:17.054Z</time>
      </trkpt>
      <trkpt lat="27.480025" lon="86.752044">
        <ele>1497</ele>
        <time>2019-10-10T06:42:19.054Z</time>
      </trkpt>
      <trkpt lat="27.479486" lon="86.751579">
        <ele>1493</ele>
        <time>2019-10-10T06:43:19.054Z</time>
      </trkpt>
      <trkpt lat="27.478793" lon="86.75167">
        <ele>1495.28680192</ele>
        <time>2019-10-10T06:44:20.054Z</time>
      </trkpt>
      <trkpt lat="27.478299" lon="86.751532">
        <ele>1498.55659904</ele>
        <time>2019-10-10T06:45:18.054Z</time>
      </trkpt>
      <trkpt lat="27.478055" lon="86.750677">
        <ele>1491</ele>
        <time>2019-10-10T06:46:18.054Z</time>
      </trkpt>
      <trkpt lat="27.477509" lon="86.750264">
        <ele>1497.08680192</ele>
        <time>2019-10-10T06:47:19.054Z</time>
      </trkpt>
      <trkpt lat="27.477011" lon="86.749806">
        <ele>1501</ele>
        <time>2019-10-10T06:48:18.054Z</time>
      </trkpt>
      <trkpt lat="27.476725" lon="86.749064">
        <ele>1501</ele>
        <time>2019-10-10T06:49:19.054Z</time>
      </trkpt>
      <trkpt lat="27.476051" lon="86.748564">
        <ele>1496</ele>
        <time>2019-10-10T06:50:21.054Z</time>
      </trkpt>
      <trkpt lat="27.475586" lon="86.74875">
        <ele>1496.54340096</ele>
        <time>2019-10-10T06:51:19.054Z</time>
      </trkpt>
      <trkpt lat="27.475111" lon="86.748654">
        <ele>1499.54340096</ele>
        <time>2019-10-10T06:52:19.054Z</time>
      </trkpt>
      <trkpt lat="27.474584" lon="86.748859">
        <ele>1505</ele>
        <time>2019-10-10T06:53:17.054Z</time>
      </trkpt>
      <trkpt lat="27.473998" lon="86.748709">
        <ele>1512.08680192</ele>
        <time>2019-10-10T06:54:19.054Z</time>
      </trkpt>
      <trkpt lat="27.473583" lon="86.748781">
        <ele>1519.54340096</ele>
        <time>2019-10-10T06:55:19.054Z</time>
      </trkpt>
      <trkpt lat="27.473437" lon="86.748463">
        <ele>1520</ele>
        <time>2019-10-10T06:56:20.054Z</time>
      </trkpt>
      <trkpt lat="27.473036" lon="86.747743">
        <ele>1515</ele>
        <time>2019-10-10T06:57:20.054Z</time>
      </trkpt>
      <trkpt lat="27.472597" lon="86.747077">
        <ele>1509.71319808</ele>
        <time>2019-10-10T06:58:20.054Z</time>
      </trkpt>
      <trkpt lat="27.472193" lon="86.746475">
        <ele>1500.55659904</ele>
        <time>2019-10-10T06:59:18.054Z</time>
      </trkpt>
      <trkpt lat="27.472032" lon="86.745778">
        <ele>1497</ele>
        <time>2019-10-10T07:00:19.054Z</time>
      </trkpt>
      <trkpt lat="27.471874" lon="86.745269">
        <ele>1501.28680192</ele>
        <time>2019-10-10T07:01:20.054Z</time>
      </trkpt>
      <trkpt lat="27.471611" lon="86.74499">
        <ele>1507.45659904</ele>
        <time>2019-10-10T07:02:19.054Z</time>
      </trkpt>
      <trkpt lat="27.47129" lon="86.744476">
        <ele>1508</ele>
        <time>2019-10-10T07:03:17.054Z</time>
      </trkpt>
      <trkpt lat="27.47102" lon="86.74379">
        <ele>1511</ele>
        <time>2019-10-10T07:04:20.054Z</time>
      </trkpt>
      <trkpt lat="27.470766" lon="86.743373">
        <ele>1511.54340096</ele>
        <time>2019-10-10T07:05:19.054Z</time>
      </trkpt>
      <trkpt lat="27.470705" lon="86.743011">
        <ele>1511.45659904</ele>
        <time>2019-10-10T07:06:19.054Z</time>
      </trkpt>
      <trkpt lat="27.470617" lon="86.742817">
        <ele>1505</ele>
        <time>2019-10-10T07:07:19.054Z</time>
      </trkpt>
      <trkpt lat="27.470517" lon="86.742889">
        <ele>1499.36979712</ele>
        <time>2019-10-10T07:08:19.054Z</time>
      </trkpt>
      <trkpt lat="27.4704" lon="86.742459">
        <ele>1486.45659904</ele>
        <time>2019-10-10T07:09:19.054Z</time>
      </trkpt>
      <trkpt lat="27.470435" lon="86.742042">
        <ele>1481</ele>
        <time>2019-10-10T07:10:18.054Z</time>
      </trkpt>
      <trkpt lat="27.47011" lon="86.741423">
        <ele>1481.44340096</ele>
        <time>2019-10-10T07:11:18.054Z</time>
      </trkpt>
      <trkpt lat="27.469954" lon="86.740801">
        <ele>1482</ele>
        <time>2019-10-10T07:12:17.054Z</time>
      </trkpt>
      <trkpt lat="27.469838" lon="86.740279">
        <ele>1472.11319808</ele>
        <time>2019-10-10T07:13:18.054Z</time>
      </trkpt>
      <trkpt lat="27.469988" lon="86.739717">
        <ele>1461.91319808</ele>
        <time>2019-10-10T07:14:19.054Z</time>
      </trkpt>
      <trkpt lat="27.469801" lon="86.739331">
        <ele>1451.55659904</ele>
        <time>2019-10-10T07:15:18.054Z</time>
      </trkpt>
      <trkpt lat="27.469618" lon="86.738674">
        <ele>1447</ele>
        <time>2019-10-10T07:16:20.054Z</time>
      </trkpt>
      <trkpt lat="27.469516" lon="86.738115">
        <ele>1452.54340096</ele>
        <time>2019-10-10T07:18:19.054Z</time>
      </trkpt>
      <trkpt lat="27.469363" lon="86.737688">
        <ele>1459.88680192</ele>
        <time>2019-10-10T07:19:18.054Z</time>
      </trkpt>
      <trkpt lat="27.469281" lon="86.737449">
        <ele>1466</ele>
        <time>2019-10-10T07:20:19.054Z</time>
      </trkpt>
      <trkpt lat="27.46919" lon="86.736985">
        <ele>1467.35659904</ele>
        <time>2019-10-10T07:21:20.054Z</time>
      </trkpt>
      <trkpt lat="27.469337" lon="86.736559">
        <ele>1463</ele>
        <time>2019-10-10T07:22:17.054Z</time>
      </trkpt>
      <trkpt lat="27.469185" lon="86.73609">
        <ele>1457.54340096</ele>
        <time>2019-10-10T07:23:19.054Z</time>
      </trkpt>
      <trkpt lat="27.469036" lon="86.735422">
        <ele>1450.55659904</ele>
        <time>2019-10-10T07:24:18.054Z</time>
      </trkpt>
      <trkpt lat="27.468745" lon="86.73508">
        <ele>1441.11319808</ele>
        <time>2019-10-10T07:25:18.054Z</time>
      </trkpt>
      <trkpt lat="27.468529" lon="86.73493">
        <ele>1433</ele>
        <time>2019-10-10T07:26:17.054Z</time>
      </trkpt>
      <trkpt lat="27.468292" lon="86.734737">
        <ele>1420.65659904</ele>
        <time>2019-10-10T07:27:17.054Z</time>
      </trkpt>
      <trkpt lat="27.46872" lon="86.734688">
        <ele>1408.31319808</ele>
        <time>2019-10-10T07:28:22.054Z</time>
      </trkpt>
      <trkpt lat="27.468997" lon="86.734727">
        <ele>1394.91319808</ele>
        <time>2019-10-10T07:29:19.054Z</time>
      </trkpt>
      <trkpt lat="27.469244" lon="86.734576">
        <ele>1382.91319808</ele>
        <time>2019-10-10T07:30:19.054Z</time>
      </trkpt>
      <trkpt lat="27.469471" lon="86.734627">
        <ele>1371.25659904</ele>
        <time>2019-10-10T07:31:21.054Z</time>
      </trkpt>
      <trkpt lat="27.469743" lon="86.734544">
        <ele>1369</ele>
        <time>2019-10-10T07:32:20.054Z</time>
      </trkpt>
      <trkpt lat="27.469304" lon="86.734475">
        <ele>1371.54340096</ele>
        <time>2019-10-10T07:33:19.054Z</time>
      </trkpt>
      <trkpt lat="27.468998" lon="86.734303">
        <ele>1370.91319808</ele>
        <time>2019-10-10T07:34:19.054Z</time>
      </trkpt>
      <trkpt lat="27.469136" lon="86.734268">
        <ele>1356.45659904</ele>
        <time>2019-10-10T07:35:19.054Z</time>
      </trkpt>
      <trkpt lat="27.469479" lon="86.734313">
        <ele>1343.06979712</ele>
        <time>2019-10-10T07:36:20.054Z</time>
      </trkpt>
      <trkpt lat="27.469671" lon="86.734104">
        <ele>1330.66979712</ele>
        <time>2019-10-10T07:37:18.054Z</time>
      </trkpt>
      <trkpt lat="27.469993" lon="86.734083">
        <ele>1316.91319808</ele>
        <time>2019-10-10T07:38:19.054Z</time>
      </trkpt>
      <trkpt lat="27.470254" lon="86.733967">
        <ele>1306.11319808</ele>
        <time>2019-10-10T07:39:18.054Z</time>
      </trkpt>
      <trkpt lat="27.470415" lon="86.733754">
        <ele>1295.11408484563</ele>
        <time>2019-10-10T07:40:18.054Z</time>
      </trkpt>
      <trkpt lat="27.47057" lon="86.733605">
        <ele>1284.36979712</ele>
        <time>2019-10-10T07:41:19.054Z</time>
      </trkpt>
      <trkpt lat="27.471059" lon="86.733324">
        <ele>1279.65659904</ele>
        <time>2019-10-10T07:42:17.054Z</time>
      </trkpt>
      <trkpt lat="27.471482" lon="86.733188">
        <ele>1268.11319808</ele>
        <time>2019-10-10T07:43:18.054Z</time>
      </trkpt>
      <trkpt lat="27.471925" lon="86.732892">
        <ele>1260.31319808</ele>
        <time>2019-10-10T07:44:17.054Z</time>
      </trkpt>
      <trkpt lat="27.472414" lon="86.73265">
        <ele>1253</ele>
        <time>2019-10-10T07:45:19.054Z</time>
      </trkpt>
      <trkpt lat="27.47281" lon="86.732096">
        <ele>1246.65659904</ele>
        <time>2019-10-10T07:46:17.054Z</time>
      </trkpt>
      <trkpt lat="27.473092" lon="86.73179">
        <ele>1250</ele>
        <time>2019-10-10T07:47:18.054Z</time>
      </trkpt>
      <trkpt lat="27.473229" lon="86.73127">
        <ele>1246.55659904</ele>
        <time>2019-10-10T07:48:18.054Z</time>
      </trkpt>
      <trkpt lat="27.473318" lon="86.73105">
        <ele>1240</ele>
        <time>2019-10-10T07:49:18.054Z</time>
      </trkpt>
      <trkpt lat="27.473594" lon="86.731261">
        <ele>1227.11319808</ele>
        <time>2019-10-10T07:50:18.054Z</time>
      </trkpt>
      <trkpt lat="27.474168" lon="86.731401">
        <ele>1217.35659904</ele>
        <time>2019-10-10T07:51:20.054Z</time>
      </trkpt>
      <trkpt lat="27.474531" lon="86.731523">
        <ele>1205.45659904</ele>
        <time>2019-10-10T07:52:19.054Z</time>
      </trkpt>
      <trkpt lat="27.474566" lon="86.731254">
        <ele>1193.91319808</ele>
        <time>2019-10-10T07:53:19.054Z</time>
      </trkpt>
      <trkpt lat="27.47467" lon="86.731007">
        <ele>1183.25659904</ele>
        <time>2019-10-10T07:54:21.054Z</time>
      </trkpt>
      <trkpt lat="27.474839" lon="86.730874">
        <ele>1171.91319808</ele>
        <time>2019-10-10T07:55:19.054Z</time>
      </trkpt>
      <trkpt lat="27.474894" lon="86.730684">
        <ele>1159.51319808</ele>
        <time>2019-10-10T07:56:21.054Z</time>
      </trkpt>
      <trkpt lat="27.475028" lon="86.730618">
        <ele>1149.51319808</ele>
        <time>2019-10-10T07:57:26.054Z</time>
      </trkpt>
      <trkpt lat="27.475353" lon="86.730557">
        <ele>1139.91319808</ele>
        <time>2019-10-10T07:58:19.054Z</time>
      </trkpt>
      <trkpt lat="27.475294" lon="86.73035">
        <ele>1127.11319808</ele>
        <time>2019-10-10T07:59:18.054Z</time>
      </trkpt>
      <trkpt lat="27.475162" lon="86.730218">
        <ele>1120.44340096</ele>
        <time>2019-10-10T08:00:18.054Z</time>
      </trkpt>
      <trkpt lat="27.475209" lon="86.729926">
        <ele>1113.65659904</ele>
        <time>2019-10-10T08:01:17.054Z</time>
      </trkpt>
      <trkpt lat="27.475336" lon="86.729709">
        <ele>1103.06979712</ele>
        <time>2019-10-10T08:02:20.054Z</time>
      </trkpt>
      <trkpt lat="27.475484" lon="86.729719">
        <ele>1090.71319808</ele>
        <time>2019-10-10T08:03:20.054Z</time>
      </trkpt>
      <trkpt lat="27.475632" lon="86.729561">
        <ele>1080.35659904</ele>
        <time>2019-10-10T08:04:20.054Z</time>
      </trkpt>
      <trkpt lat="27.475735" lon="86.729343">
        <ele>1068.91319808</ele>
        <time>2019-10-10T08:05:19.054Z</time>
      </trkpt>
      <trkpt lat="27.476162" lon="86.729349">
        <ele>1058.25659904</ele>
        <time>2019-10-10T08:06:21.054Z</time>
      </trkpt>
      <trkpt lat="27.476041" lon="86.72929">
        <ele>1047.55659904</ele>
        <time>2019-10-10T08:07:18.054Z</time>
      </trkpt>
      <trkpt lat="27.476398" lon="86.72912">
        <ele>1035.65659904</ele>
        <time>2019-10-10T08:08:17.054Z</time>
      </trkpt>
      <trkpt lat="27.476556" lon="86.729189">
        <ele>1025.71319808</ele>
        <time>2019-10-10T08:09:20.054Z</time>
      </trkpt>
      <trkpt lat="27.476648" lon="86.728967">
        <ele>1014.36979712</ele>
        <time>2019-10-10T08:10:19.054Z</time>
      </trkpt>
      <trkpt lat="27.476949" lon="86.728994">
        <ele>1002.36979712</ele>
        <time>2019-10-10T08:11:19.054Z</time>
      </trkpt>
      <trkpt lat="27.477272" lon="86.728625">
        <ele>991.36979712</ele>
        <time>2019-10-10T08:12:19.054Z</time>
      </trkpt>
      <trkpt lat="27.477119" lon="86.7286">
        <ele>980.86979712</ele>
        <time>2019-10-10T08:13:24.054Z</time>
      </trkpt>
      <trkpt lat="27.477528" lon="86.728347">
        <ele>961.714341081318</ele>
        <time>2019-10-10T08:15:15.054Z</time>
      </trkpt>
      <trkpt lat="27.477759" lon="86.728513">
        <ele>958</ele>
        <time>2019-10-10T08:16:34.054Z</time>
      </trkpt>
      <trkpt lat="27.478055" lon="86.728388">
        <ele>952.55659904</ele>
        <time>2019-10-10T08:17:58.054Z</time>
      </trkpt>
      <trkpt lat="27.478394" lon="86.728079">
        <ele>943.66979712</ele>
        <time>2019-10-10T08:18:58.054Z</time>
      </trkpt>
      <trkpt lat="27.478976" lon="86.727587">
        <ele>940</ele>
        <time>2019-10-10T08:19:58.054Z</time>
      </trkpt>
      <trkpt lat="27.479078" lon="86.727384">
        <ele>943.88680192</ele>
        <time>2019-10-10T08:20:43.054Z</time>
      </trkpt>
      <trkpt lat="27.479251" lon="86.727127">
        <ele>949.44340096</ele>
        <time>2019-10-10T08:21:28.054Z</time>
      </trkpt>
      <trkpt lat="27.479354" lon="86.726962">
        <ele>961.88680192</ele>
        <time>2019-10-10T08:23:18.054Z</time>
      </trkpt>
      <trkpt lat="27.479334" lon="86.726714">
        <ele>974.54340096</ele>
        <time>2019-10-10T08:25:19.054Z</time>
      </trkpt>
      <trkpt lat="27.479364" lon="86.726534">
        <ele>985</ele>
        <time>2019-10-10T08:27:17.054Z</time>
      </trkpt>
      <trkpt lat="27.479363" lon="86.726701">
        <ele>985</ele>
        <time>2019-10-10T08:28:19.054Z</time>
      </trkpt>
      <trkpt lat="27.47944" lon="86.726482">
        <ele>985.55659904</ele>
        <time>2019-10-10T08:29:18.054Z</time>
      </trkpt>
      <trkpt lat="27.479377" lon="86.726744">
        <ele>985</ele>
        <time>2019-10-10T08:31:20.054Z</time>
      </trkpt>
      <trkpt lat="27.47951" lon="86.726541">
        <ele>992.74340096</ele>
        <time>2019-10-10T08:33:21.054Z</time>
      </trkpt>
      <trkpt lat="27.479591" lon="86.726284">
        <ele>1000.44340096</ele>
        <time>2019-10-10T08:34:18.054Z</time>
      </trkpt>
      <trkpt lat="27.479774" lon="86.726105">
        <ele>1013.44340096</ele>
        <time>2019-10-10T08:36:18.054Z</time>
      </trkpt>
      <trkpt lat="27.479827" lon="86.725911">
        <ele>1021.54340096</ele>
        <time>2019-10-10T08:37:19.054Z</time>
      </trkpt>
      <trkpt lat="27.479696" lon="86.725743">
        <ele>1028</ele>
        <time>2019-10-10T08:38:20.054Z</time>
      </trkpt>
      <trkpt lat="27.479791" lon="86.725604">
        <ele>1036.54340096</ele>
        <time>2019-10-10T08:39:19.054Z</time>
      </trkpt>
      <trkpt lat="27.479878" lon="86.725177">
        <ele>1043</ele>
        <time>2019-10-10T08:40:25.633Z</time>
      </trkpt>
      <trkpt lat="27.479905" lon="86.724869">
        <ele>1049.54340096</ele>
        <time>2019-10-10T08:41:19.054Z</time>
      </trkpt>
      <trkpt lat="27.479736" lon="86.724728">
        <ele>1057.99770112</ele>
        <time>2019-10-10T08:42:23.597Z</time>
      </trkpt>
      <trkpt lat="27.479576" lon="86.724569">
        <ele>1064.94340096</ele>
        <time>2019-10-10T08:43:23.054Z</time>
      </trkpt>
      <trkpt lat="27.479448" lon="86.72437">
        <ele>1072.64340096</ele>
        <time>2019-10-10T08:44:20.054Z</time>
      </trkpt>
      <trkpt lat="27.479763" lon="86.724145">
        <ele>1086.74340096</ele>
        <time>2019-10-10T08:46:21.054Z</time>
      </trkpt>
      <trkpt lat="27.480009" lon="86.724228">
        <ele>1094.37140224</ele>
        <time>2019-10-10T08:47:25.477Z</time>
      </trkpt>
      <trkpt lat="27.480176" lon="86.724154">
        <ele>1101.74340096</ele>
        <time>2019-10-10T08:48:21.054Z</time>
      </trkpt>
      <trkpt lat="27.48028" lon="86.723989">
        <ele>1107</ele>
        <time>2019-10-10T08:49:23.054Z</time>
      </trkpt>
      <trkpt lat="27.480172" lon="86.72362">
        <ele>1113.17140224</ele>
        <time>2019-10-10T08:50:24.477Z</time>
      </trkpt>
      <trkpt lat="27.480107" lon="86.723418">
        <ele>1120.94340096</ele>
        <time>2019-10-10T08:51:23.054Z</time>
      </trkpt>
      <trkpt lat="27.480206" lon="86.723067">
        <ele>1126.74340096</ele>
        <time>2019-10-10T08:52:21.054Z</time>
      </trkpt>
      <trkpt lat="27.48024" lon="86.722753">
        <ele>1134.08570112</ele>
        <time>2019-10-10T08:53:24.477Z</time>
      </trkpt>
      <trkpt lat="27.480327" lon="86.722555">
        <ele>1140.84340096</ele>
        <time>2019-10-10T08:54:22.054Z</time>
      </trkpt>
      <trkpt lat="27.480452" lon="86.722258">
        <ele>1147.74340096</ele>
        <time>2019-10-10T08:55:21.054Z</time>
      </trkpt>
      <trkpt lat="27.480352" lon="86.72199">
        <ele>1155.04340096</ele>
        <time>2019-10-10T08:56:24.054Z</time>
      </trkpt>
      <trkpt lat="27.480361" lon="86.721856">
        <ele>1162.68680192</ele>
        <time>2019-10-10T08:57:22.054Z</time>
      </trkpt>
      <trkpt lat="27.480496" lon="86.72168">
        <ele>1167.74340096</ele>
        <time>2019-10-10T08:58:21.054Z</time>
      </trkpt>
      <trkpt lat="27.480663" lon="86.721319">
        <ele>1173.64340096</ele>
        <time>2019-10-10T08:59:20.054Z</time>
      </trkpt>
      <trkpt lat="27.481094" lon="86.721087">
        <ele>1172</ele>
        <time>2019-10-10T09:00:19.054Z</time>
      </trkpt>
      <trkpt lat="27.481487" lon="86.720533">
        <ele>1173</ele>
        <time>2019-10-10T09:01:19.054Z</time>
      </trkpt>
      <trkpt lat="27.481804" lon="86.720012">
        <ele>1175</ele>
        <time>2019-10-10T09:02:20.054Z</time>
      </trkpt>
      <trkpt lat="27.481858" lon="86.719599">
        <ele>1180.88680192</ele>
        <time>2019-10-10T09:03:18.054Z</time>
      </trkpt>
      <trkpt lat="27.482405" lon="86.719433">
        <ele>1184.74340096</ele>
        <time>2019-10-10T09:04:21.054Z</time>
      </trkpt>
      <trkpt lat="27.482895" lon="86.719257">
        <ele>1184.34340096</ele>
        <time>2019-10-10T09:05:17.054Z</time>
      </trkpt>
      <trkpt lat="27.483199" lon="86.719043">
        <ele>1189.54340096</ele>
        <time>2019-10-10T09:06:19.054Z</time>
      </trkpt>
      <trkpt lat="27.483506" lon="86.718886">
        <ele>1194</ele>
        <time>2019-10-10T09:07:17.054Z</time>
      </trkpt>
      <trkpt lat="27.484054" lon="86.71867">
        <ele>1199.64340096</ele>
        <time>2019-10-10T09:08:20.054Z</time>
      </trkpt>
      <trkpt lat="27.484251" lon="86.718703">
        <ele>1206.54340096</ele>
        <time>2019-10-10T09:09:19.054Z</time>
      </trkpt>
      <trkpt lat="27.484327" lon="86.718543">
        <ele>1213.64340096</ele>
        <time>2019-10-10T09:10:20.054Z</time>
      </trkpt>
      <trkpt lat="27.484544" lon="86.718233">
        <ele>1219.64340096</ele>
        <time>2019-10-10T09:11:20.054Z</time>
      </trkpt>
      <trkpt lat="27.484396" lon="86.718091">
        <ele>1221.85659904</ele>
        <time>2019-10-10T09:15:25.054Z</time>
      </trkpt>
      <trkpt lat="27.484415" lon="86.718245">
        <ele>1223</ele>
        <time>2019-10-10T09:18:19.054Z</time>
      </trkpt>
      <trkpt lat="27.484608" lon="86.718126">
        <ele>1222.68680192</ele>
        <time>2019-10-10T09:19:17.054Z</time>
      </trkpt>
      <trkpt lat="27.484984" lon="86.718094">
        <ele>1231.64340096</ele>
        <time>2019-10-10T09:20:20.054Z</time>
      </trkpt>
      <trkpt lat="27.485231" lon="86.717917">
        <ele>1238.48680192</ele>
        <time>2019-10-10T09:21:21.054Z</time>
      </trkpt>
      <trkpt lat="27.485436" lon="86.717757">
        <ele>1245.68680192</ele>
        <time>2019-10-10T09:22:17.054Z</time>
      </trkpt>
      <trkpt lat="27.485633" lon="86.717638">
        <ele>1252.54340096</ele>
        <time>2019-10-10T09:23:19.054Z</time>
      </trkpt>
      <trkpt lat="27.485835" lon="86.717804">
        <ele>1259.34340096</ele>
        <time>2019-10-10T09:24:17.054Z</time>
      </trkpt>
      <trkpt lat="27.485964" lon="86.717688">
        <ele>1265.88680192</ele>
        <time>2019-10-10T09:25:18.054Z</time>
      </trkpt>
      <trkpt lat="27.486055" lon="86.717781">
        <ele>1272.28680192</ele>
        <time>2019-10-10T09:26:20.054Z</time>
      </trkpt>
      <trkpt lat="27.486128" lon="86.717692">
        <ele>1279.54340096</ele>
        <time>2019-10-10T09:27:19.054Z</time>
      </trkpt>
      <trkpt lat="27.48643" lon="86.71761">
        <ele>1286.48680192</ele>
        <time>2019-10-10T09:28:21.054Z</time>
      </trkpt>
      <trkpt lat="27.486606" lon="86.717495">
        <ele>1292.88680192</ele>
        <time>2019-10-10T09:29:18.054Z</time>
      </trkpt>
      <trkpt lat="27.486786" lon="86.717305">
        <ele>1298.54340096</ele>
        <time>2019-10-10T09:30:19.054Z</time>
      </trkpt>
      <trkpt lat="27.487093" lon="86.717094">
        <ele>1306.44340096</ele>
        <time>2019-10-10T09:31:18.054Z</time>
      </trkpt>
      <trkpt lat="27.487334" lon="86.716932">
        <ele>1310.88680192</ele>
        <time>2019-10-10T09:32:18.054Z</time>
      </trkpt>
      <trkpt lat="27.487604" lon="86.71677">
        <ele>1319.34340096</ele>
        <time>2019-10-10T09:33:17.054Z</time>
      </trkpt>
      <trkpt lat="27.487805" lon="86.716572">
        <ele>1325.54340096</ele>
        <time>2019-10-10T09:34:19.054Z</time>
      </trkpt>
      <trkpt lat="27.487951" lon="86.716262">
        <ele>1331.64340096</ele>
        <time>2019-10-10T09:35:20.054Z</time>
      </trkpt>
      <trkpt lat="27.488169" lon="86.716119">
        <ele>1339</ele>
        <time>2019-10-10T09:36:19.054Z</time>
      </trkpt>
      <trkpt lat="27.488472" lon="86.716308">
        <ele>1352.44340096</ele>
        <time>2019-10-10T09:38:18.054Z</time>
      </trkpt>
      <trkpt lat="27.488646" lon="86.716213">
        <ele>1358.54340096</ele>
        <time>2019-10-10T09:39:19.054Z</time>
      </trkpt>
      <trkpt lat="27.488802" lon="86.716057">
        <ele>1365.88680192</ele>
        <time>2019-10-10T09:40:18.054Z</time>
      </trkpt>
      <trkpt lat="27.489044" lon="86.715899">
        <ele>1372.64340096</ele>
        <time>2019-10-10T09:41:20.054Z</time>
      </trkpt>
      <trkpt lat="27.489254" lon="86.715814">
        <ele>1379.88680192</ele>
        <time>2019-10-10T09:42:18.054Z</time>
      </trkpt>
      <trkpt lat="27.489616" lon="86.715694">
        <ele>1392.54340096</ele>
        <time>2019-10-10T09:44:19.054Z</time>
      </trkpt>
      <trkpt lat="27.490106" lon="86.715687">
        <ele>1399.44340096</ele>
        <time>2019-10-10T09:45:18.054Z</time>
      </trkpt>
      <trkpt lat="27.490513" lon="86.715787">
        <ele>1404.54340096</ele>
        <time>2019-10-10T09:46:19.054Z</time>
      </trkpt>
      <trkpt lat="27.490828" lon="86.71581">
        <ele>1409.64340096</ele>
        <time>2019-10-10T09:47:20.054Z</time>
      </trkpt>
      <trkpt lat="27.491053" lon="86.715823">
        <ele>1416.68680192</ele>
        <time>2019-10-10T09:48:17.054Z</time>
      </trkpt>
      <trkpt lat="27.491249" lon="86.715967">
        <ele>1424.54340096</ele>
        <time>2019-10-10T09:49:19.054Z</time>
      </trkpt>
      <trkpt lat="27.491592" lon="86.715804">
        <ele>1431</ele>
        <time>2019-10-10T09:50:18.054Z</time>
      </trkpt>
      <trkpt lat="27.492193" lon="86.715747">
        <ele>1431.55659904</ele>
        <time>2019-10-10T09:51:18.054Z</time>
      </trkpt>
      <trkpt lat="27.492796" lon="86.715409">
        <ele>1429.88680192</ele>
        <time>2019-10-10T09:52:18.054Z</time>
      </trkpt>
      <trkpt lat="27.492938" lon="86.714852">
        <ele>1433.68680192</ele>
        <time>2019-10-10T09:53:17.054Z</time>
      </trkpt>
      <trkpt lat="27.493346" lon="86.714438">
        <ele>1439.54340096</ele>
        <time>2019-10-10T09:54:19.054Z</time>
      </trkpt>
      <trkpt lat="27.493313" lon="86.714303">
        <ele>1444</ele>
        <time>2019-10-10T09:55:18.054Z</time>
      </trkpt>
      <trkpt lat="27.493638" lon="86.713892">
        <ele>1447</ele>
        <time>2019-10-10T09:56:19.054Z</time>
      </trkpt>
      <trkpt lat="27.49408" lon="86.713726">
        <ele>1448</ele>
        <time>2019-10-10T09:57:18.054Z</time>
      </trkpt>
      <trkpt lat="27.494243" lon="86.713816">
        <ele>1451.34340096</ele>
        <time>2019-10-10T09:58:17.054Z</time>
      </trkpt>
      <trkpt lat="27.494513" lon="86.71382">
        <ele>1455</ele>
        <time>2019-10-10T09:59:18.054Z</time>
      </trkpt>
      <trkpt lat="27.494675" lon="86.713698">
        <ele>1457.88680192</ele>
        <time>2019-10-10T10:01:18.054Z</time>
      </trkpt>
      <trkpt lat="27.495078" lon="86.713658">
        <ele>1465.64340096</ele>
        <time>2019-10-10T10:02:20.054Z</time>
      </trkpt>
      <trkpt lat="27.495599" lon="86.713405">
        <ele>1462.91319808</ele>
        <time>2019-10-10T10:03:19.054Z</time>
      </trkpt>
      <trkpt lat="27.496279" lon="86.713241">
        <ele>1461.74340096</ele>
        <time>2019-10-10T10:04:21.054Z</time>
      </trkpt>
      <trkpt lat="27.496675" lon="86.7132">
        <ele>1467.64340096</ele>
        <time>2019-10-10T10:05:20.054Z</time>
      </trkpt>
      <trkpt lat="27.496853" lon="86.712895">
        <ele>1467.28680192</ele>
        <time>2019-10-10T10:06:20.054Z</time>
      </trkpt>
      <trkpt lat="27.497206" lon="86.712405">
        <ele>1469.45659904</ele>
        <time>2019-10-10T10:07:19.054Z</time>
      </trkpt>
      <trkpt lat="27.497624" lon="86.711969">
        <ele>1472</ele>
        <time>2019-10-10T10:08:20.054Z</time>
      </trkpt>
      <trkpt lat="27.49778" lon="86.711624">
        <ele>1481</ele>
        <time>2019-10-10T10:09:22.054Z</time>
      </trkpt>
      <trkpt lat="27.4979" lon="86.711521">
        <ele>1494.28680192</ele>
        <time>2019-10-10T10:11:20.054Z</time>
      </trkpt>
      <trkpt lat="27.498284" lon="86.711441">
        <ele>1502.64304366098</ele>
        <time>2019-10-10T10:12:20.054Z</time>
      </trkpt>
      <trkpt lat="27.498432" lon="86.71111">
        <ele>1505.64340096</ele>
        <time>2019-10-10T10:13:20.054Z</time>
      </trkpt>
      <trkpt lat="27.498438" lon="86.710822">
        <ele>1512.54340096</ele>
        <time>2019-10-10T10:14:19.054Z</time>
      </trkpt>
      <trkpt lat="27.498357" lon="86.710449">
        <ele>1519.64275758537</ele>
        <time>2019-10-10T10:15:20.054Z</time>
      </trkpt>
      <trkpt lat="27.498488" lon="86.709907">
        <ele>1524.54340096</ele>
        <time>2019-10-10T10:16:19.054Z</time>
      </trkpt>
      <trkpt lat="27.498281" lon="86.709529">
        <ele>1530.64340096</ele>
        <time>2019-10-10T10:17:20.054Z</time>
      </trkpt>
      <trkpt lat="27.497936" lon="86.709087">
        <ele>1535.28680192</ele>
        <time>2019-10-10T10:18:20.054Z</time>
      </trkpt>
      <trkpt lat="27.497752" lon="86.708664">
        <ele>1541</ele>
        <time>2019-10-10T10:19:17.054Z</time>
      </trkpt>
      <trkpt lat="27.498087" lon="86.708345">
        <ele>1547.64340096</ele>
        <time>2019-10-10T10:20:20.054Z</time>
      </trkpt>
      <trkpt lat="27.498066" lon="86.707934">
        <ele>1554</ele>
        <time>2019-10-10T10:21:19.054Z</time>
      </trkpt>
      <trkpt lat="27.498248" lon="86.707459">
        <ele>1557</ele>
        <time>2019-10-10T10:22:20.054Z</time>
      </trkpt>
      <trkpt lat="27.498201" lon="86.707055">
        <ele>1563.34340096</ele>
        <time>2019-10-10T10:23:17.054Z</time>
      </trkpt>
      <trkpt lat="27.498629" lon="86.706576">
        <ele>1570.54340096</ele>
        <time>2019-10-10T10:24:19.054Z</time>
      </trkpt>
      <trkpt lat="27.498862" lon="86.70611">
        <ele>1575.74340096</ele>
        <time>2019-10-10T10:25:21.054Z</time>
      </trkpt>
      <trkpt lat="27.498873" lon="86.705621">
        <ele>1581.54340096</ele>
        <time>2019-10-10T10:26:19.054Z</time>
      </trkpt>
      <trkpt lat="27.499086" lon="86.705353">
        <ele>1588.54340096</ele>
        <time>2019-10-10T10:27:19.054Z</time>
      </trkpt>
      <trkpt lat="27.499118" lon="86.704927">
        <ele>1595.54340096</ele>
        <time>2019-10-10T10:28:19.054Z</time>
      </trkpt>
      <trkpt lat="27.499368" lon="86.704491">
        <ele>1599</ele>
        <time>2019-10-10T10:29:21.054Z</time>
      </trkpt>
      <trkpt lat="27.499322" lon="86.704287">
        <ele>1601</ele>
        <time>2019-10-10T10:30:17.054Z</time>
      </trkpt>
      <trkpt lat="27.499153" lon="86.704394">
        <ele>1601</ele>
        <time>2019-10-10T10:32:21.054Z</time>
      </trkpt>
      <trkpt lat="27.499407" lon="86.704239">
        <ele>1600</ele>
        <time>2019-10-10T10:33:19.054Z</time>
      </trkpt>
      <trkpt lat="27.499467" lon="86.704077">
        <ele>1601</ele>
        <time>2019-10-10T10:35:21.054Z</time>
      </trkpt>
      <trkpt lat="27.499446" lon="86.704229">
        <ele>1601</ele>
        <time>2019-10-10T10:36:21.054Z</time>
      </trkpt>
      <trkpt lat="27.499318" lon="86.704241">
        <ele>1602</ele>
        <time>2019-10-10T10:41:19.054Z</time>
      </trkpt>
      <trkpt lat="27.499227" lon="86.704185">
        <ele>1601</ele>
        <time>2019-10-10T10:44:22.054Z</time>
      </trkpt>
      <trkpt lat="27.49934" lon="86.704155">
        <ele>1601</ele>
        <time>2019-10-10T10:45:23.054Z</time>
      </trkpt>
      <trkpt lat="27.499312" lon="86.7043">
        <ele>1601</ele>
        <time>2019-10-10T10:47:17.054Z</time>
      </trkpt>
      <trkpt lat="27.499463" lon="86.704295">
        <ele>1601</ele>
        <time>2019-10-10T10:48:19.054Z</time>
      </trkpt>
      <trkpt lat="27.499305" lon="86.704222">
        <ele>1601</ele>
        <time>2019-10-10T10:49:20.054Z</time>
      </trkpt>
      <trkpt lat="27.499275" lon="86.703988">
        <ele>1601</ele>
        <time>2019-10-10T10:50:23.054Z</time>
      </trkpt>
      <trkpt lat="27.499281" lon="86.70424">
        <ele>1601</ele>
        <time>2019-10-10T10:51:17.054Z</time>
      </trkpt>
      <trkpt lat="27.499494" lon="86.70413">
        <ele>1601</ele>
        <time>2019-10-10T10:54:24.054Z</time>
      </trkpt>
      <trkpt lat="27.499421" lon="86.704296">
        <ele>1601</ele>
        <time>2019-10-10T10:56:20.054Z</time>
      </trkpt>
      <trkpt lat="27.499259" lon="86.703704">
        <ele>1601</ele>
        <time>2019-10-10T10:58:17.054Z</time>
      </trkpt>
      <trkpt lat="27.499556" lon="86.70324">
        <ele>1605.50380672</ele>
        <time>2019-10-10T10:59:20.054Z</time>
      </trkpt>
      <trkpt lat="27.49947" lon="86.703001">
        <ele>1614.34340096</ele>
        <time>2019-10-10T11:00:17.054Z</time>
      </trkpt>
      <trkpt lat="27.49958" lon="86.702481">
        <ele>1621</ele>
        <time>2019-10-10T11:01:21.054Z</time>
      </trkpt>
      <trkpt lat="27.499832" lon="86.702056">
        <ele>1625</ele>
        <time>2019-10-10T11:02:19.054Z</time>
      </trkpt>
      <trkpt lat="27.500176" lon="86.701425">
        <ele>1626</ele>
        <time>2019-10-10T11:03:21.054Z</time>
      </trkpt>
      <trkpt lat="27.500202" lon="86.70099">
        <ele>1634.68680192</ele>
        <time>2019-10-10T11:04:22.054Z</time>
      </trkpt>
      <trkpt lat="27.500632" lon="86.701263">
        <ele>1640.54340096</ele>
        <time>2019-10-10T11:05:19.054Z</time>
      </trkpt>
      <trkpt lat="27.50117" lon="86.701469">
        <ele>1647.28551517073</ele>
        <time>2019-10-10T11:06:20.054Z</time>
      </trkpt>
      <trkpt lat="27.501765" lon="86.70159">
        <ele>1653</ele>
        <time>2019-10-10T11:07:22.054Z</time>
      </trkpt>
      <trkpt lat="27.502335" lon="86.701783">
        <ele>1654</ele>
        <time>2019-10-10T11:08:20.054Z</time>
      </trkpt>
      <trkpt lat="27.503052" lon="86.701922">
        <ele>1663.44340096</ele>
        <time>2019-10-10T11:09:48.054Z</time>
      </trkpt>
      <trkpt lat="27.503404" lon="86.70189">
        <ele>1667</ele>
        <time>2019-10-10T11:10:33.054Z</time>
      </trkpt>
      <trkpt lat="27.504242" lon="86.702098">
        <ele>1673.88680192</ele>
        <time>2019-10-10T11:11:58.054Z</time>
      </trkpt>
      <trkpt lat="27.504968" lon="86.702351">
        <ele>1678.44340096</ele>
        <time>2019-10-10T11:12:58.054Z</time>
      </trkpt>
      <trkpt lat="27.505622" lon="86.702682">
        <ele>1676.44340096</ele>
        <time>2019-10-10T11:13:58.054Z</time>
      </trkpt>
      <trkpt lat="27.506213" lon="86.702725">
        <ele>1680.88680192</ele>
        <time>2019-10-10T11:14:43.054Z</time>
      </trkpt>
      <trkpt lat="27.5067" lon="86.702808">
        <ele>1685.44340096</ele>
        <time>2019-10-10T11:15:28.054Z</time>
      </trkpt>
      <trkpt lat="27.507538" lon="86.704241">
        <ele>1688.79280643247</ele>
        <time>2019-10-10T11:17:41.556Z</time>
      </trkpt>
      <trkpt lat="27.507737" lon="86.704682">
        <ele>1690.24340096</ele>
        <time>2019-10-10T11:18:26.054Z</time>
      </trkpt>
      <trkpt lat="27.508318" lon="86.70561">
        <ele>1695</ele>
        <time>2019-10-10T11:19:58.054Z</time>
      </trkpt>
      <trkpt lat="27.50854" lon="86.706289">
        <ele>1699</ele>
        <time>2019-10-10T11:20:58.054Z</time>
      </trkpt>
      <trkpt lat="27.508909" lon="86.706935">
        <ele>1702.44340096</ele>
        <time>2019-10-10T11:21:58.054Z</time>
      </trkpt>
      <trkpt lat="27.509112" lon="86.707443">
        <ele>1705</ele>
        <time>2019-10-10T11:22:43.054Z</time>
      </trkpt>
      <trkpt lat="27.509315" lon="86.708083">
        <ele>1705</ele>
        <time>2019-10-10T11:23:28.054Z</time>
      </trkpt>
      <trkpt lat="27.50984" lon="86.708453">
        <ele>1705</ele>
        <time>2019-10-10T11:24:18.054Z</time>
      </trkpt>
      <trkpt lat="27.510367" lon="86.709124">
        <ele>1703</ele>
        <time>2019-10-10T11:25:19.054Z</time>
      </trkpt>
      <trkpt lat="27.510913" lon="86.709851">
        <ele>1700.34340096</ele>
        <time>2019-10-10T11:26:17.054Z</time>
      </trkpt>
      <trkpt lat="27.511854" lon="86.71066">
        <ele>1691.05659904</ele>
        <time>2019-10-10T11:27:23.054Z</time>
      </trkpt>
      <trkpt lat="27.511731" lon="86.711129">
        <ele>1689</ele>
        <time>2019-10-10T11:28:25.054Z</time>
      </trkpt>
      <trkpt lat="27.512324" lon="86.711302">
        <ele>1693</ele>
        <time>2019-10-10T11:29:20.054Z</time>
      </trkpt>
      <trkpt lat="27.513067" lon="86.711272">
        <ele>1696.64340096</ele>
        <time>2019-10-10T11:30:20.054Z</time>
      </trkpt>
      <trkpt lat="27.513961" lon="86.711257">
        <ele>1700</ele>
        <time>2019-10-10T11:31:37.547Z</time>
      </trkpt>
      <trkpt lat="27.514465" lon="86.711251">
        <ele>1706.18660096</ele>
        <time>2019-10-10T11:32:29.553Z</time>
      </trkpt>
      <trkpt lat="27.515012" lon="86.71155">
        <ele>1711</ele>
        <time>2019-10-10T11:33:21.054Z</time>
      </trkpt>
      <trkpt lat="27.515447" lon="86.711902">
        <ele>1718.64340096</ele>
        <time>2019-10-10T11:34:20.054Z</time>
      </trkpt>
      <trkpt lat="27.515613" lon="86.712446">
        <ele>1727.54340096</ele>
        <time>2019-10-10T11:35:19.054Z</time>
      </trkpt>
      <trkpt lat="27.515863" lon="86.713037">
        <ele>1726.35659904</ele>
        <time>2019-10-10T11:36:20.054Z</time>
      </trkpt>
      <trkpt lat="27.516218" lon="86.713795">
        <ele>1726.45659904</ele>
        <time>2019-10-10T11:37:19.054Z</time>
      </trkpt>
      <trkpt lat="27.516733" lon="86.714413">
        <ele>1724</ele>
        <time>2019-10-10T11:38:24.054Z</time>
      </trkpt>
      <trkpt lat="27.516962" lon="86.715159">
        <ele>1720</ele>
        <time>2019-10-10T11:39:18.054Z</time>
      </trkpt>
      <trkpt lat="27.51743" lon="86.715103">
        <ele>1719</ele>
        <time>2019-10-10T11:40:17.054Z</time>
      </trkpt>
      <trkpt lat="27.518197" lon="86.715083">
        <ele>1720.08680192</ele>
        <time>2019-10-10T11:41:19.054Z</time>
      </trkpt>
      <trkpt lat="27.518948" lon="86.715081">
        <ele>1722.2137984</ele>
        <time>2019-10-10T11:42:27.551Z</time>
      </trkpt>
      <trkpt lat="27.519478" lon="86.715487">
        <ele>1715.65725692789</ele>
        <time>2019-10-10T11:43:17.054Z</time>
      </trkpt>
      <trkpt lat="27.519825" lon="86.716236">
        <ele>1717.54340096</ele>
        <time>2019-10-10T11:44:19.054Z</time>
      </trkpt>
      <trkpt lat="27.520453" lon="86.716417">
        <ele>1714.25659904</ele>
        <time>2019-10-10T11:45:21.054Z</time>
      </trkpt>
      <trkpt lat="27.521102" lon="86.716453">
        <ele>1711</ele>
        <time>2019-10-10T11:46:20.054Z</time>
      </trkpt>
      <trkpt lat="27.521817" lon="86.716406">
        <ele>1700.81119744</ele>
        <time>2019-10-10T11:47:29.564Z</time>
      </trkpt>
      <trkpt lat="27.522399" lon="86.716448">
        <ele>1697.19480064</ele>
        <time>2019-10-10T11:48:25.568Z</time>
      </trkpt>
      <trkpt lat="27.522744" lon="86.716539">
        <ele>1704.44340096</ele>
        <time>2019-10-10T11:49:18.054Z</time>
      </trkpt>
      <trkpt lat="27.52333" lon="86.716883">
        <ele>1712.1910016</ele>
        <time>2019-10-10T11:50:29.575Z</time>
      </trkpt>
      <trkpt lat="27.523522" lon="86.717201">
        <ele>1718.44340096</ele>
        <time>2019-10-10T11:51:18.054Z</time>
      </trkpt>
      <trkpt lat="27.524029" lon="86.717469">
        <ele>1723</ele>
        <time>2019-10-10T11:52:20.054Z</time>
      </trkpt>
      <trkpt lat="27.524186" lon="86.717682">
        <ele>1723</ele>
        <time>2019-10-10T11:53:20.054Z</time>
      </trkpt>
      <trkpt lat="27.524406" lon="86.718379">
        <ele>1724</ele>
        <time>2019-10-10T11:54:18.054Z</time>
      </trkpt>
      <trkpt lat="27.524788" lon="86.718968">
        <ele>1723.08680192</ele>
        <time>2019-10-10T11:55:19.054Z</time>
      </trkpt>
      <trkpt lat="27.524932" lon="86.719595">
        <ele>1726.15659904</ele>
        <time>2019-10-10T11:56:22.054Z</time>
      </trkpt>
      <trkpt lat="27.525348" lon="86.720046">
        <ele>1725.28680192</ele>
        <time>2019-10-10T11:57:20.054Z</time>
      </trkpt>
      <trkpt lat="27.525702" lon="86.720399">
        <ele>1728.34340096</ele>
        <time>2019-10-10T11:58:17.054Z</time>
      </trkpt>
      <trkpt lat="27.525855" lon="86.720546">
        <ele>1736.84340096</ele>
        <time>2019-10-10T11:59:22.054Z</time>
      </trkpt>
      <trkpt lat="27.526204" lon="86.720981">
        <ele>1739.64340096</ele>
        <time>2019-10-10T12:00:20.054Z</time>
      </trkpt>
      <trkpt lat="27.526248" lon="86.721358">
        <ele>1748</ele>
        <time>2019-10-10T12:01:20.054Z</time>
      </trkpt>
      <trkpt lat="27.526517" lon="86.721685">
        <ele>1754.64340096</ele>
        <time>2019-10-10T12:02:20.054Z</time>
      </trkpt>
      <trkpt lat="27.526742" lon="86.722068">
        <ele>1762</ele>
        <time>2019-10-10T12:03:18.054Z</time>
      </trkpt>
      <trkpt lat="27.527292" lon="86.722083">
        <ele>1767</ele>
        <time>2019-10-10T12:04:20.054Z</time>
      </trkpt>
      <trkpt lat="27.527646" lon="86.722359">
        <ele>1770.64340096</ele>
        <time>2019-10-10T12:05:20.054Z</time>
      </trkpt>
      <trkpt lat="27.528002" lon="86.722687">
        <ele>1773.44340096</ele>
        <time>2019-10-10T12:06:18.054Z</time>
      </trkpt>
      <trkpt lat="27.528556" lon="86.722992">
        <ele>1775</ele>
        <time>2019-10-10T12:07:19.054Z</time>
      </trkpt>
      <trkpt lat="27.528964" lon="86.723136">
        <ele>1776</ele>
        <time>2019-10-10T12:08:19.054Z</time>
      </trkpt>
      <trkpt lat="27.529368" lon="86.723488">
        <ele>1771.35659904</ele>
        <time>2019-10-10T12:09:20.054Z</time>
      </trkpt>
      <trkpt lat="27.529852" lon="86.723728">
        <ele>1772</ele>
        <time>2019-10-10T12:10:20.054Z</time>
      </trkpt>
      <trkpt lat="27.52985" lon="86.72403">
        <ele>1769.45659904</ele>
        <time>2019-10-10T12:12:19.054Z</time>
      </trkpt>
      <trkpt lat="27.530128" lon="86.724544">
        <ele>1772</ele>
        <time>2019-10-10T12:13:19.054Z</time>
      </trkpt>
      <trkpt lat="27.530386" lon="86.724881">
        <ele>1777</ele>
        <time>2019-10-10T12:14:22.054Z</time>
      </trkpt>
      <trkpt lat="27.530756" lon="86.725237">
        <ele>1781</ele>
        <time>2019-10-10T12:15:18.054Z</time>
      </trkpt>
      <trkpt lat="27.531087" lon="86.725364">
        <ele>1786.34340096</ele>
        <time>2019-10-10T12:16:17.054Z</time>
      </trkpt>
      <trkpt lat="27.531596" lon="86.725528">
        <ele>1790</ele>
        <time>2019-10-10T12:17:18.054Z</time>
      </trkpt>
      <trkpt lat="27.531936" lon="86.725772">
        <ele>1783.55659904</ele>
        <time>2019-10-10T12:18:18.054Z</time>
      </trkpt>
      <trkpt lat="27.532442" lon="86.725826">
        <ele>1788.44340096</ele>
        <time>2019-10-10T12:19:18.054Z</time>
      </trkpt>
      <trkpt lat="27.532808" lon="86.725843">
        <ele>1796.14340096</ele>
        <time>2019-10-10T12:20:25.054Z</time>
      </trkpt>
      <trkpt lat="27.533204" lon="86.72604">
        <ele>1800.54340096</ele>
        <time>2019-10-10T12:21:19.054Z</time>
      </trkpt>
      <trkpt lat="27.53351" lon="86.726092">
        <ele>1806.54340096</ele>
        <time>2019-10-10T12:22:19.054Z</time>
      </trkpt>
      <trkpt lat="27.533957" lon="86.726212">
        <ele>1812.54340096</ele>
        <time>2019-10-10T12:23:19.054Z</time>
      </trkpt>
      <trkpt lat="27.536582" lon="86.72591">
        <ele>1824.30259968</ele>
        <time>2019-10-10T12:28:20.594Z</time>
      </trkpt>
      <trkpt lat="27.537201" lon="86.725982">
        <ele>1826.44340096</ele>
        <time>2019-10-10T12:29:18.054Z</time>
      </trkpt>
      <trkpt lat="27.537805" lon="86.726065">
        <ele>1838</ele>
        <time>2019-10-10T12:30:58.054Z</time>
      </trkpt>
      <trkpt lat="27.538162" lon="86.72585">
        <ele>1842.88680192</ele>
        <time>2019-10-10T12:31:58.054Z</time>
      </trkpt>
      <trkpt lat="27.538554" lon="86.725568">
        <ele>1844.55659904</ele>
        <time>2019-10-10T12:32:58.054Z</time>
      </trkpt>
      <trkpt lat="27.538925" lon="86.725284">
        <ele>1838.05659904</ele>
        <time>2019-10-10T12:33:43.054Z</time>
      </trkpt>
      <trkpt lat="27.539161" lon="86.725015">
        <ele>1842.44340096</ele>
        <time>2019-10-10T12:34:28.054Z</time>
      </trkpt>
      <trkpt lat="27.539367" lon="86.72499">
        <ele>1847</ele>
        <time>2019-10-10T12:35:19.054Z</time>
      </trkpt>
      <trkpt lat="27.53945" lon="86.724581">
        <ele>1849</ele>
        <time>2019-10-10T12:36:21.054Z</time>
      </trkpt>
      <trkpt lat="27.540011" lon="86.724121">
        <ele>1868</ele>
        <time>2019-10-10T12:39:34.578Z</time>
      </trkpt>
      <trkpt lat="27.540445" lon="86.723457">
        <ele>1875.60419968</ele>
        <time>2019-10-10T12:43:07.578Z</time>
      </trkpt>
      <trkpt lat="27.540539" lon="86.723076">
        <ele>1880.74340096</ele>
        <time>2019-10-10T12:44:11.054Z</time>
      </trkpt>
      <trkpt lat="27.540857" lon="86.722575">
        <ele>1876.66979712</ele>
        <time>2019-10-10T12:45:58.054Z</time>
      </trkpt>
      <trkpt lat="27.541284" lon="86.722203">
        <ele>1873</ele>
        <time>2019-10-10T12:46:58.054Z</time>
      </trkpt>
      <trkpt lat="27.542271" lon="86.722047">
        <ele>1869.11319808</ele>
        <time>2019-10-10T12:48:38.054Z</time>
      </trkpt>
      <trkpt lat="27.542686" lon="86.722079">
        <ele>1864.05659904</ele>
        <time>2019-10-10T12:49:23.054Z</time>
      </trkpt>
      <trkpt lat="27.543538" lon="86.721904">
        <ele>1863.85659904</ele>
        <time>2019-10-10T12:50:35.054Z</time>
      </trkpt>
      <trkpt lat="27.544009" lon="86.722071">
        <ele>1859.71319808</ele>
        <time>2019-10-10T12:51:20.054Z</time>
      </trkpt>
      <trkpt lat="27.544612" lon="86.721675">
        <ele>1856</ele>
        <time>2019-10-10T12:52:21.054Z</time>
      </trkpt>
      <trkpt lat="27.545146" lon="86.721353">
        <ele>1854.45659904</ele>
        <time>2019-10-10T12:53:19.054Z</time>
      </trkpt>
      <trkpt lat="27.545507" lon="86.721279">
        <ele>1844.65659904</ele>
        <time>2019-10-10T12:54:17.054Z</time>
      </trkpt>
      <trkpt lat="27.545992" lon="86.721158">
        <ele>1848.04340096</ele>
        <time>2019-10-10T12:55:24.054Z</time>
      </trkpt>
      <trkpt lat="27.546346" lon="86.721263">
        <ele>1844.55659904</ele>
        <time>2019-10-10T12:56:18.054Z</time>
      </trkpt>
      <trkpt lat="27.54658" lon="86.720898">
        <ele>1851.88680192</ele>
        <time>2019-10-10T12:57:18.054Z</time>
      </trkpt>
      <trkpt lat="27.547036" lon="86.720823">
        <ele>1858.54340096</ele>
        <time>2019-10-10T12:58:29.054Z</time>
      </trkpt>
      <trkpt lat="27.547295" lon="86.720946">
        <ele>1865</ele>
        <time>2019-10-10T12:59:29.054Z</time>
      </trkpt>
      <trkpt lat="27.547555" lon="86.720944">
        <ele>1867</ele>
        <time>2019-10-10T13:00:18.054Z</time>
      </trkpt>
      <trkpt lat="27.547985" lon="86.720904">
        <ele>1868.35659904</ele>
        <time>2019-10-10T13:01:20.054Z</time>
      </trkpt>
      <trkpt lat="27.548443" lon="86.720987">
        <ele>1863.45659904</ele>
        <time>2019-10-10T13:02:19.054Z</time>
      </trkpt>
      <trkpt lat="27.548622" lon="86.720759">
        <ele>1861.44340096</ele>
        <time>2019-10-10T13:04:18.054Z</time>
      </trkpt>
      <trkpt lat="27.548836" lon="86.720474">
        <ele>1868.54340096</ele>
        <time>2019-10-10T13:05:19.054Z</time>
      </trkpt>
      <trkpt lat="27.549167" lon="86.720598">
        <ele>1875</ele>
        <time>2019-10-10T13:06:19.054Z</time>
      </trkpt>
      <trkpt lat="27.549078" lon="86.720038">
        <ele>1875.55659904</ele>
        <time>2019-10-10T13:07:18.054Z</time>
      </trkpt>
      <trkpt lat="27.549275" lon="86.719615">
        <ele>1878</ele>
        <time>2019-10-10T13:08:23.054Z</time>
      </trkpt>
      <trkpt lat="27.549747" lon="86.719255">
        <ele>1876.94340096</ele>
        <time>2019-10-10T13:09:23.054Z</time>
      </trkpt>
      <trkpt lat="27.550017" lon="86.718821">
        <ele>1879.34340096</ele>
        <time>2019-10-10T13:10:17.054Z</time>
      </trkpt>
      <trkpt lat="27.550219" lon="86.71849">
        <ele>1884.34340096</ele>
        <time>2019-10-10T13:11:17.054Z</time>
      </trkpt>
      <trkpt lat="27.550526" lon="86.718227">
        <ele>1892.04340096</ele>
        <time>2019-10-10T13:13:24.054Z</time>
      </trkpt>
      <trkpt lat="27.550758" lon="86.718348">
        <ele>1896.45659904</ele>
        <time>2019-10-10T13:14:19.054Z</time>
      </trkpt>
      <trkpt lat="27.551062" lon="86.71843">
        <ele>1900</ele>
        <time>2019-10-10T13:15:19.054Z</time>
      </trkpt>
      <trkpt lat="27.551544" lon="86.718638">
        <ele>1902</ele>
        <time>2019-10-10T13:16:19.054Z</time>
      </trkpt>
      <trkpt lat="27.552115" lon="86.718842">
        <ele>1903</ele>
        <time>2019-10-10T13:17:19.054Z</time>
      </trkpt>
      <trkpt lat="27.552596" lon="86.718818">
        <ele>1907.48680192</ele>
        <time>2019-10-10T13:18:26.054Z</time>
      </trkpt>
      <trkpt lat="27.552792" lon="86.718893">
        <ele>1914</ele>
        <time>2019-10-10T13:19:19.054Z</time>
      </trkpt>
      <trkpt lat="27.552937" lon="86.718388">
        <ele>1915.34340096</ele>
        <time>2019-10-10T13:20:17.054Z</time>
      </trkpt>
      <trkpt lat="27.553176" lon="86.718305">
        <ele>1921.45659904</ele>
        <time>2019-10-10T13:21:19.054Z</time>
      </trkpt>
      <trkpt lat="27.553501" lon="86.718143">
        <ele>1919</ele>
        <time>2019-10-10T13:22:21.054Z</time>
      </trkpt>
      <trkpt lat="27.553886" lon="86.71792">
        <ele>1920.68680192</ele>
        <time>2019-10-10T13:23:17.054Z</time>
      </trkpt>
      <trkpt lat="27.554184" lon="86.717612">
        <ele>1923.54340096</ele>
        <time>2019-10-10T13:24:19.054Z</time>
      </trkpt>
      <trkpt lat="27.554423" lon="86.717431">
        <ele>1928.54340096</ele>
        <time>2019-10-10T13:25:19.054Z</time>
      </trkpt>
      <trkpt lat="27.554616" lon="86.717262">
        <ele>1935.88680192</ele>
        <time>2019-10-10T13:26:18.054Z</time>
      </trkpt>
      <trkpt lat="27.554815" lon="86.717168">
        <ele>1943.08680192</ele>
        <time>2019-10-10T13:27:24.054Z</time>
      </trkpt>
      <trkpt lat="27.554665" lon="86.716883">
        <ele>1950</ele>
        <time>2019-10-10T13:28:25.054Z</time>
      </trkpt>
      <trkpt lat="27.555044" lon="86.716443">
        <ele>1946</ele>
        <time>2019-10-10T13:29:19.054Z</time>
      </trkpt>
      <trkpt lat="27.555137" lon="86.715807">
        <ele>1947.08680192</ele>
        <time>2019-10-10T13:30:24.054Z</time>
      </trkpt>
      <trkpt lat="27.555044" lon="86.715448">
        <ele>1954</ele>
        <time>2019-10-10T13:31:18.054Z</time>
      </trkpt>
      <trkpt lat="27.555091" lon="86.715008">
        <ele>1955.31319808</ele>
        <time>2019-10-10T13:32:17.054Z</time>
      </trkpt>
      <trkpt lat="27.555491" lon="86.714513">
        <ele>1955</ele>
        <time>2019-10-10T13:33:17.054Z</time>
      </trkpt>
      <trkpt lat="27.555831" lon="86.714028">
        <ele>1956.44340096</ele>
        <time>2019-10-10T13:34:18.054Z</time>
      </trkpt>
      <trkpt lat="27.556009" lon="86.713618">
        <ele>1965.88680192</ele>
        <time>2019-10-10T13:35:18.054Z</time>
      </trkpt>
      <trkpt lat="27.556506" lon="86.713458">
        <ele>1964</ele>
        <time>2019-10-10T13:36:18.054Z</time>
      </trkpt>
      <trkpt lat="27.556978" lon="86.713449">
        <ele>1966</ele>
        <time>2019-10-10T13:37:19.054Z</time>
      </trkpt>
      <trkpt lat="27.55735" lon="86.713445">
        <ele>1970.68680192</ele>
        <time>2019-10-10T13:38:22.054Z</time>
      </trkpt>
      <trkpt lat="27.557817" lon="86.713055">
        <ele>1970</ele>
        <time>2019-10-10T13:39:20.054Z</time>
      </trkpt>
      <trkpt lat="27.558374" lon="86.712711">
        <ele>1971.55659904</ele>
        <time>2019-10-10T13:40:18.054Z</time>
      </trkpt>
      <trkpt lat="27.558769" lon="86.712314">
        <ele>1967.65659904</ele>
        <time>2019-10-10T13:41:17.054Z</time>
      </trkpt>
      <trkpt lat="27.55915" lon="86.712094">
        <ele>1955.71319808</ele>
        <time>2019-10-10T13:42:20.054Z</time>
      </trkpt>
      <trkpt lat="27.559449" lon="86.711546">
        <ele>1945.91319808</ele>
        <time>2019-10-10T13:43:19.054Z</time>
      </trkpt>
      <trkpt lat="27.559542" lon="86.710906">
        <ele>1935.31319808</ele>
        <time>2019-10-10T13:44:17.054Z</time>
      </trkpt>
      <trkpt lat="27.559595" lon="86.710485">
        <ele>1923.65659904</ele>
        <time>2019-10-10T13:45:17.054Z</time>
      </trkpt>
      <trkpt lat="27.559806" lon="86.71005">
        <ele>1911.65659904</ele>
        <time>2019-10-10T13:46:17.054Z</time>
      </trkpt>
      <trkpt lat="27.560111" lon="86.70945">
        <ele>1904.65659904</ele>
        <time>2019-10-10T13:47:17.054Z</time>
      </trkpt>
      <trkpt lat="27.560397" lon="86.709064">
        <ele>1898.36979712</ele>
        <time>2019-10-10T13:48:19.054Z</time>
      </trkpt>
      <trkpt lat="27.56077" lon="86.708946">
        <ele>1887.71319808</ele>
        <time>2019-10-10T13:49:20.054Z</time>
      </trkpt>
      <trkpt lat="27.561136" lon="86.709006">
        <ele>1879.34340096</ele>
        <time>2019-10-10T13:50:17.054Z</time>
      </trkpt>
      <trkpt lat="27.561658" lon="86.709189">
        <ele>1874.45659904</ele>
        <time>2019-10-10T13:52:19.054Z</time>
      </trkpt>
      <trkpt lat="27.562263" lon="86.70929">
        <ele>1865.45659904</ele>
        <time>2019-10-10T13:53:19.054Z</time>
      </trkpt>
      <trkpt lat="27.56272" lon="86.70995">
        <ele>1856.35659904</ele>
        <time>2019-10-10T13:54:20.054Z</time>
      </trkpt>
      <trkpt lat="27.563356" lon="86.710049">
        <ele>1851.35659904</ele>
        <time>2019-10-10T13:55:30.054Z</time>
      </trkpt>
      <trkpt lat="27.563965" lon="86.710279">
        <ele>1844.71319808</ele>
        <time>2019-10-10T13:56:20.054Z</time>
      </trkpt>
      <trkpt lat="27.564644" lon="86.71048">
        <ele>1833.71319808</ele>
        <time>2019-10-10T13:57:20.054Z</time>
      </trkpt>
      <trkpt lat="27.565218" lon="86.710829">
        <ele>1820.71319808</ele>
        <time>2019-10-10T13:58:20.054Z</time>
      </trkpt>
      <trkpt lat="27.5655" lon="86.711006">
        <ele>1810.31319808</ele>
        <time>2019-10-10T13:59:17.054Z</time>
      </trkpt>
      <trkpt lat="27.566891" lon="86.710126">
        <ele>1795.91319808</ele>
        <time>2019-10-10T14:00:19.054Z</time>
      </trkpt>
      <trkpt lat="27.566211" lon="86.71089">
        <ele>1794.88680192</ele>
        <time>2019-10-10T14:03:08.054Z</time>
      </trkpt>
      <trkpt lat="27.566281" lon="86.710802">
        <ele>1802</ele>
        <time>2019-10-10T14:03:59.054Z</time>
      </trkpt>
      <trkpt lat="27.566491" lon="86.710616">
        <ele>1810</ele>
        <time>2019-10-10T14:06:58.054Z</time>
      </trkpt>
      <trkpt lat="27.566524" lon="86.710193">
        <ele>1823.08680192</ele>
        <time>2019-10-10T14:08:39.054Z</time>
      </trkpt>
      <trkpt lat="27.566282" lon="86.709798">
        <ele>1828.04340096</ele>
        <time>2019-10-10T14:09:24.054Z</time>
      </trkpt>
      <trkpt lat="27.566364" lon="86.709353">
        <ele>1828.35659904</ele>
        <time>2019-10-10T14:10:20.054Z</time>
      </trkpt>
      <trkpt lat="27.566067" lon="86.708771">
        <ele>1842.08585746046</ele>
        <time>2019-10-10T14:12:14.054Z</time>
      </trkpt>
      <trkpt lat="27.565983" lon="86.70855">
        <ele>1852.63020288</ele>
        <time>2019-10-10T14:13:29.054Z</time>
      </trkpt>
      <trkpt lat="27.566053" lon="86.708329">
        <ele>1864.44340096</ele>
        <time>2019-10-10T14:14:58.054Z</time>
      </trkpt>
      <trkpt lat="27.566209" lon="86.707592">
        <ele>1860</ele>
        <time>2019-10-10T14:16:07.054Z</time>
      </trkpt>
      <trkpt lat="27.566091" lon="86.706821">
        <ele>1870</ele>
        <time>2019-10-10T14:17:43.054Z</time>
      </trkpt>
      <trkpt lat="27.566108" lon="86.706397">
        <ele>1874.44340096</ele>
        <time>2019-10-10T14:18:28.054Z</time>
      </trkpt>
      <trkpt lat="27.565823" lon="86.706329">
        <ele>1881.64340096</ele>
        <time>2019-10-10T14:19:20.054Z</time>
      </trkpt>
      <trkpt lat="27.565758" lon="86.706038">
        <ele>1880.91319808</ele>
        <time>2019-10-10T14:20:19.054Z</time>
      </trkpt>
      <trkpt lat="27.566084" lon="86.705577">
        <ele>1877.28680192</ele>
        <time>2019-10-10T14:21:20.054Z</time>
      </trkpt>
      <trkpt lat="27.566346" lon="86.705281">
        <ele>1885</ele>
        <time>2019-10-10T14:22:20.054Z</time>
      </trkpt>
      <trkpt lat="27.566853" lon="86.704487">
        <ele>1895.08680192</ele>
        <time>2019-10-10T14:24:09.054Z</time>
      </trkpt>
      <trkpt lat="27.566445" lon="86.703914">
        <ele>1899.14340096</ele>
        <time>2019-10-10T14:24:55.054Z</time>
      </trkpt>
      <trkpt lat="27.566333" lon="86.703307">
        <ele>1900.44340096</ele>
        <time>2019-10-10T14:25:58.054Z</time>
      </trkpt>
      <trkpt lat="27.566266" lon="86.702835">
        <ele>1907.88680192</ele>
        <time>2019-10-10T14:26:58.054Z</time>
      </trkpt>
      <trkpt lat="27.566276" lon="86.702108">
        <ele>1905</ele>
        <time>2019-10-10T14:27:58.054Z</time>
      </trkpt>
      <trkpt lat="27.566458" lon="86.701559">
        <ele>1911</ele>
        <time>2019-10-10T14:28:58.054Z</time>
      </trkpt>
      <trkpt lat="27.566636" lon="86.701051">
        <ele>1912.94340096</ele>
        <time>2019-10-10T14:29:43.054Z</time>
      </trkpt>
      <trkpt lat="27.56671" lon="86.700769">
        <ele>1919.44340096</ele>
        <time>2019-10-10T14:30:28.054Z</time>
      </trkpt>
      <trkpt lat="27.566734" lon="86.700491">
        <ele>1925.64340096</ele>
        <time>2019-10-10T14:31:20.054Z</time>
      </trkpt>
      <trkpt lat="27.566825" lon="86.700337">
        <ele>1933.68680192</ele>
        <time>2019-10-10T14:32:22.054Z</time>
      </trkpt>
      <trkpt lat="27.566802" lon="86.700203">
        <ele>1941.84340096</ele>
        <time>2019-10-10T14:33:22.054Z</time>
      </trkpt>
      <trkpt lat="27.566797" lon="86.699742">
        <ele>1947.74340096</ele>
        <time>2019-10-10T14:34:21.054Z</time>
      </trkpt>
      <trkpt lat="27.567051" lon="86.699473">
        <ele>1955.48680192</ele>
        <time>2019-10-10T14:35:21.054Z</time>
      </trkpt>
      <trkpt lat="27.566817" lon="86.699118">
        <ele>1970</ele>
        <time>2019-10-10T14:37:21.054Z</time>
      </trkpt>
      <trkpt lat="27.566914" lon="86.698545">
        <ele>1956.51319808</ele>
        <time>2019-10-10T14:38:21.054Z</time>
      </trkpt>
      <trkpt lat="27.56723" lon="86.697959">
        <ele>1954</ele>
        <time>2019-10-10T14:39:24.054Z</time>
      </trkpt>
      <trkpt lat="27.567483" lon="86.697677">
        <ele>1955.48680192</ele>
        <time>2019-10-10T14:40:21.054Z</time>
      </trkpt>
      <trkpt lat="27.567759" lon="86.697295">
        <ele>1961.28680192</ele>
        <time>2019-10-10T14:41:20.054Z</time>
      </trkpt>
      <trkpt lat="27.567752" lon="86.696893">
        <ele>1965.74340096</ele>
        <time>2019-10-10T14:42:21.054Z</time>
      </trkpt>
      <trkpt lat="27.567608" lon="86.696651">
        <ele>1970</ele>
        <time>2019-10-10T14:43:22.054Z</time>
      </trkpt>
      <trkpt lat="27.567734" lon="86.696698">
        <ele>1970</ele>
        <time>2019-10-10T14:44:22.054Z</time>
      </trkpt>
      <trkpt lat="27.567645" lon="86.696772">
        <ele>1970</ele>
        <time>2019-10-10T14:46:35.054Z</time>
      </trkpt>
      <trkpt lat="27.567741" lon="86.696722">
        <ele>1970</ele>
        <time>2019-10-10T14:47:21.054Z</time>
      </trkpt>
      <trkpt lat="27.567445" lon="86.696508">
        <ele>1971</ele>
        <time>2019-10-10T14:48:22.054Z</time>
      </trkpt>
      <trkpt lat="27.56789" lon="86.696338">
        <ele>1973</ele>
        <time>2019-10-10T14:49:33.054Z</time>
      </trkpt>
      <trkpt lat="27.568195" lon="86.695951">
        <ele>1980</ele>
        <time>2019-10-10T14:50:36.054Z</time>
      </trkpt>
      <trkpt lat="27.568331" lon="86.695445">
        <ele>1982</ele>
        <time>2019-10-10T14:51:21.054Z</time>
      </trkpt>
      <trkpt lat="27.568651" lon="86.695005">
        <ele>1986.63020288</ele>
        <time>2019-10-10T14:52:19.054Z</time>
      </trkpt>
      <trkpt lat="27.568744" lon="86.694397">
        <ele>1993</ele>
        <time>2019-10-10T14:53:21.054Z</time>
      </trkpt>
      <trkpt lat="27.56859" lon="86.693852">
        <ele>1998.28680192</ele>
        <time>2019-10-10T14:54:20.054Z</time>
      </trkpt>
      <trkpt lat="27.568895" lon="86.693159">
        <ele>2000.75659904</ele>
        <time>2019-10-10T14:55:26.054Z</time>
      </trkpt>
      <trkpt lat="27.56917" lon="86.692474">
        <ele>2000.64340096</ele>
        <time>2019-10-10T14:56:20.054Z</time>
      </trkpt>
      <trkpt lat="27.569325" lon="86.69182">
        <ele>2004</ele>
        <time>2019-10-10T14:57:20.054Z</time>
      </trkpt>
      <trkpt lat="27.569562" lon="86.691206">
        <ele>2009.64340096</ele>
        <time>2019-10-10T14:58:20.054Z</time>
      </trkpt>
      <trkpt lat="27.569762" lon="86.690599">
        <ele>2015</ele>
        <time>2019-10-10T14:59:20.054Z</time>
      </trkpt>
      <trkpt lat="27.570129" lon="86.69">
        <ele>2015.45659904</ele>
        <time>2019-10-10T15:00:19.054Z</time>
      </trkpt>
      <trkpt lat="27.57013" lon="86.689274">
        <ele>2008</ele>
        <time>2019-10-10T15:01:20.054Z</time>
      </trkpt>
      <trkpt lat="27.570404" lon="86.688581">
        <ele>2003.31319808</ele>
        <time>2019-10-10T15:02:17.054Z</time>
      </trkpt>
      <trkpt lat="27.570824" lon="86.687893">
        <ele>1996</ele>
        <time>2019-10-10T15:03:23.054Z</time>
      </trkpt>
      <trkpt lat="27.571482" lon="86.687598">
        <ele>1995</ele>
        <time>2019-10-10T15:04:21.054Z</time>
      </trkpt>
      <trkpt lat="27.571952" lon="86.687631">
        <ele>1990</ele>
        <time>2019-10-10T15:05:18.054Z</time>
      </trkpt>
      <trkpt lat="27.572799" lon="86.687657">
        <ele>1991</ele>
        <time>2019-10-10T15:06:18.054Z</time>
      </trkpt>
      <trkpt lat="27.574705" lon="86.688525">
        <ele>1993</ele>
        <time>2019-10-10T15:09:27.054Z</time>
      </trkpt>
      <trkpt lat="27.575839" lon="86.688874">
        <ele>1996</ele>
        <time>2019-10-10T15:11:04.054Z</time>
      </trkpt>
      <trkpt lat="27.576626" lon="86.688912">
        <ele>1995</ele>
        <time>2019-10-10T15:12:07.054Z</time>
      </trkpt>
      <trkpt lat="27.577091" lon="86.689203">
        <ele>1999</ele>
        <time>2019-10-10T15:13:11.054Z</time>
      </trkpt>
      <trkpt lat="27.577525" lon="86.689936">
        <ele>2010</ele>
        <time>2019-10-10T15:14:58.054Z</time>
      </trkpt>
      <trkpt lat="27.578311" lon="86.690585">
        <ele>2016</ele>
        <time>2019-10-10T15:16:35.054Z</time>
      </trkpt>
      <trkpt lat="27.579001" lon="86.690469">
        <ele>2017.14340096</ele>
        <time>2019-10-10T15:17:45.054Z</time>
      </trkpt>
      <trkpt lat="27.579506" lon="86.690301">
        <ele>2020</ele>
        <time>2019-10-10T15:18:30.054Z</time>
      </trkpt>
      <trkpt lat="27.580422" lon="86.690194">
        <ele>2020</ele>
        <time>2019-10-10T15:19:58.054Z</time>
      </trkpt>
      <trkpt lat="27.58089" lon="86.690122">
        <ele>2024</ele>
        <time>2019-10-10T15:20:58.054Z</time>
      </trkpt>
      <trkpt lat="27.581312" lon="86.690296">
        <ele>2027.55659904</ele>
        <time>2019-10-10T15:21:58.054Z</time>
      </trkpt>
      <trkpt lat="27.581684" lon="86.690676">
        <ele>2029</ele>
        <time>2019-10-10T15:22:43.054Z</time>
      </trkpt>
      <trkpt lat="27.581993" lon="86.691052">
        <ele>2032.44340096</ele>
        <time>2019-10-10T15:23:28.054Z</time>
      </trkpt>
      <trkpt lat="27.582387" lon="86.690895">
        <ele>2034</ele>
        <time>2019-10-10T15:24:19.054Z</time>
      </trkpt>
      <trkpt lat="27.582912" lon="86.690914">
        <ele>2037</ele>
        <time>2019-10-10T15:25:24.054Z</time>
      </trkpt>
      <trkpt lat="27.583605" lon="86.690898">
        <ele>2036.35659904</ele>
        <time>2019-10-10T15:26:20.054Z</time>
      </trkpt>
      <trkpt lat="27.584264" lon="86.691115">
        <ele>2034.64340096</ele>
        <time>2019-10-10T15:27:20.054Z</time>
      </trkpt>
      <trkpt lat="27.584731" lon="86.691489">
        <ele>2037.44340096</ele>
        <time>2019-10-10T15:28:18.054Z</time>
      </trkpt>
      <trkpt lat="27.58538" lon="86.691653">
        <ele>2043</ele>
        <time>2019-10-10T15:29:19.054Z</time>
      </trkpt>
      <trkpt lat="27.58598" lon="86.691986">
        <ele>2042</ele>
        <time>2019-10-10T15:30:19.054Z</time>
      </trkpt>
      <trkpt lat="27.586593" lon="86.692108">
        <ele>2037.65659904</ele>
        <time>2019-10-10T15:31:17.054Z</time>
      </trkpt>
      <trkpt lat="27.586894" lon="86.692363">
        <ele>2026.91319808</ele>
        <time>2019-10-10T15:32:19.054Z</time>
      </trkpt>
      <trkpt lat="27.587408" lon="86.692792">
        <ele>2024.45659904</ele>
        <time>2019-10-10T15:33:19.054Z</time>
      </trkpt>
      <trkpt lat="27.587973" lon="86.693342">
        <ele>2018</ele>
        <time>2019-10-10T15:34:19.054Z</time>
      </trkpt>
      <trkpt lat="27.588377" lon="86.693674">
        <ele>2016.48680192</ele>
        <time>2019-10-10T15:35:21.054Z</time>
      </trkpt>
      <trkpt lat="27.588971" lon="86.693924">
        <ele>2020</ele>
        <time>2019-10-10T15:36:20.054Z</time>
      </trkpt>
      <trkpt lat="27.589532" lon="86.694254">
        <ele>2019</ele>
        <time>2019-10-10T15:37:19.054Z</time>
      </trkpt>
      <trkpt lat="27.590066" lon="86.694556">
        <ele>2017.25659904</ele>
        <time>2019-10-10T15:38:21.054Z</time>
      </trkpt>
      <trkpt lat="27.590179" lon="86.694685">
        <ele>2019.54340096</ele>
        <time>2019-10-10T15:39:19.054Z</time>
      </trkpt>
      <trkpt lat="27.590764" lon="86.695277">
        <ele>2030.54340096</ele>
        <time>2019-10-10T15:40:49.054Z</time>
      </trkpt>
      <trkpt lat="27.594097" lon="86.696198">
        <ele>2077</ele>
        <time>2019-10-10T15:48:25.054Z</time>
      </trkpt>
      <trkpt lat="27.595238" lon="86.695756">
        <ele>2082.28680192</ele>
        <time>2019-10-10T15:50:15.054Z</time>
      </trkpt>
      <trkpt lat="27.595492" lon="86.696969">
        <ele>2086.66979712</ele>
        <time>2019-10-10T15:51:58.054Z</time>
      </trkpt>
      <trkpt lat="27.595766" lon="86.69768">
        <ele>2085</ele>
        <time>2019-10-10T15:52:58.054Z</time>
      </trkpt>
      <trkpt lat="27.596354" lon="86.698224">
        <ele>2084</ele>
        <time>2019-10-10T15:53:58.054Z</time>
      </trkpt>
      <trkpt lat="27.596699" lon="86.698927">
        <ele>2083.44340096</ele>
        <time>2019-10-10T15:54:58.054Z</time>
      </trkpt>
      <trkpt lat="27.596962" lon="86.699459">
        <ele>2088.94340096</ele>
        <time>2019-10-10T15:55:43.054Z</time>
      </trkpt>
      <trkpt lat="27.597267" lon="86.699924">
        <ele>2093.44340096</ele>
        <time>2019-10-10T15:56:28.054Z</time>
      </trkpt>
      <trkpt lat="27.597587" lon="86.70047">
        <ele>2092</ele>
        <time>2019-10-10T15:57:17.054Z</time>
      </trkpt>
      <trkpt lat="27.598045" lon="86.701184">
        <ele>2092</ele>
        <time>2019-10-10T15:58:23.054Z</time>
      </trkpt>
      <trkpt lat="27.598813" lon="86.701279">
        <ele>2090.31319808</ele>
        <time>2019-10-10T15:59:22.054Z</time>
      </trkpt>
      <trkpt lat="27.599518" lon="86.701445">
        <ele>2086.35659904</ele>
        <time>2019-10-10T16:00:20.054Z</time>
      </trkpt>
      <trkpt lat="27.600271" lon="86.701385">
        <ele>2084</ele>
        <time>2019-10-10T16:01:20.054Z</time>
      </trkpt>
      <trkpt lat="27.600937" lon="86.701622">
        <ele>2079</ele>
        <time>2019-10-10T16:02:19.054Z</time>
      </trkpt>
      <trkpt lat="27.601515" lon="86.702019">
        <ele>2069.65659904</ele>
        <time>2019-10-10T16:03:17.054Z</time>
      </trkpt>
      <trkpt lat="27.602073" lon="86.702324">
        <ele>2061.65659904</ele>
        <time>2019-10-10T16:04:17.054Z</time>
      </trkpt>
      <trkpt lat="27.60256" lon="86.7026">
        <ele>2052</ele>
        <time>2019-10-10T16:05:23.054Z</time>
      </trkpt>
      <trkpt lat="27.602565" lon="86.703155">
        <ele>2047.25659904</ele>
        <time>2019-10-10T16:06:21.054Z</time>
      </trkpt>
      <trkpt lat="27.602518" lon="86.703817">
        <ele>2036.91319808</ele>
        <time>2019-10-10T16:07:24.054Z</time>
      </trkpt>
      <trkpt lat="27.602543" lon="86.704297">
        <ele>2028</ele>
        <time>2019-10-10T16:08:19.054Z</time>
      </trkpt>
      <trkpt lat="27.602497" lon="86.705237">
        <ele>2029</ele>
        <time>2019-10-10T16:09:52.054Z</time>
      </trkpt>
      <trkpt lat="27.602595" lon="86.705751">
        <ele>2025.65659904</ele>
        <time>2019-10-10T16:10:37.054Z</time>
      </trkpt>
      <trkpt lat="27.602808" lon="86.706573">
        <ele>2027.88680192</ele>
        <time>2019-10-10T16:11:58.054Z</time>
      </trkpt>
      <trkpt lat="27.602993" lon="86.707238">
        <ele>2024.66979712</ele>
        <time>2019-10-10T16:12:58.054Z</time>
      </trkpt>
      <trkpt lat="27.603087" lon="86.707834">
        <ele>2016.22639616</ele>
        <time>2019-10-10T16:13:58.054Z</time>
      </trkpt>
      <trkpt lat="27.603222" lon="86.708347">
        <ele>2007.11319808</ele>
        <time>2019-10-10T16:14:43.054Z</time>
      </trkpt>
      <trkpt lat="27.603428" lon="86.70887">
        <ele>2000.11319808</ele>
        <time>2019-10-10T16:15:28.054Z</time>
      </trkpt>
      <trkpt lat="27.603679" lon="86.70939">
        <ele>1992.55659904</ele>
        <time>2019-10-10T16:16:18.054Z</time>
      </trkpt>
      <trkpt lat="27.604001" lon="86.709628">
        <ele>1981.55659904</ele>
        <time>2019-10-10T16:17:18.054Z</time>
      </trkpt>
      <trkpt lat="27.604226" lon="86.70989">
        <ele>1973</ele>
        <time>2019-10-10T16:18:20.054Z</time>
      </trkpt>
      <trkpt lat="27.604498" lon="86.710094">
        <ele>1969</ele>
        <time>2019-10-10T16:19:19.054Z</time>
      </trkpt>
      <trkpt lat="27.604514" lon="86.709935">
        <ele>1968</ele>
        <time>2019-10-10T16:22:07.054Z</time>
      </trkpt>
      <trkpt lat="27.604226" lon="86.70978">
        <ele>2051.60009765625</ele>
        <time>2019-10-12T05:48:01.124Z</time>
      </trkpt>
      <trkpt lat="27.604181" lon="86.709723">
        <ele>0</ele>
        <time>2019-10-12T05:48:07.124Z</time>
      </trkpt>
      <trkpt lat="27.60406" lon="86.709147">
        <ele>1947</ele>
        <time>2019-10-12T05:49:08.124Z</time>
      </trkpt>
      <trkpt lat="27.604022" lon="86.708538">
        <ele>1947</ele>
        <time>2019-10-12T05:50:11.124Z</time>
      </trkpt>
      <trkpt lat="27.604159" lon="86.707865">
        <ele>1947</ele>
        <time>2019-10-12T05:51:11.124Z</time>
      </trkpt>
      <trkpt lat="27.604072" lon="86.707151">
        <ele>1950</ele>
        <time>2019-10-12T05:52:11.124Z</time>
      </trkpt>
      <trkpt lat="27.60404" lon="86.706453">
        <ele>1945.62659968</ele>
        <time>2019-10-12T05:53:14.124Z</time>
      </trkpt>
      <trkpt lat="27.60385" lon="86.705626">
        <ele>1940</ele>
        <time>2019-10-12T05:54:17.124Z</time>
      </trkpt>
      <trkpt lat="27.603936" lon="86.704875">
        <ele>1940</ele>
        <time>2019-10-12T05:55:17.124Z</time>
      </trkpt>
      <trkpt lat="27.603697" lon="86.704338">
        <ele>1943.67339904</ele>
        <time>2019-10-12T05:56:17.124Z</time>
      </trkpt>
      <trkpt lat="27.603686" lon="86.703937">
        <ele>1950.77340032</ele>
        <time>2019-10-12T05:57:18.124Z</time>
      </trkpt>
      <trkpt lat="27.603766" lon="86.703509">
        <ele>1957</ele>
        <time>2019-10-12T05:58:19.124Z</time>
      </trkpt>
      <trkpt lat="27.603897" lon="86.703011">
        <ele>1965.17340032</ele>
        <time>2019-10-12T05:59:22.124Z</time>
      </trkpt>
      <trkpt lat="27.603908" lon="86.702612">
        <ele>1972</ele>
        <time>2019-10-12T06:00:24.124Z</time>
      </trkpt>
      <trkpt lat="27.60383" lon="86.702142">
        <ele>1980.54679808</ele>
        <time>2019-10-12T06:01:43.124Z</time>
      </trkpt>
      <trkpt lat="27.603732" lon="86.701914">
        <ele>1986</ele>
        <time>2019-10-12T06:02:28.124Z</time>
      </trkpt>
      <trkpt lat="27.603679" lon="86.701581">
        <ele>1991.54679808</ele>
        <time>2019-10-12T06:03:13.124Z</time>
      </trkpt>
      <trkpt lat="27.60353" lon="86.701253">
        <ele>1997</ele>
        <time>2019-10-12T06:04:01.124Z</time>
      </trkpt>
      <trkpt lat="27.603662" lon="86.700838">
        <ele>1999</ele>
        <time>2019-10-12T06:05:03.124Z</time>
      </trkpt>
      <trkpt lat="27.603624" lon="86.700366">
        <ele>1995.85320192</ele>
        <time>2019-10-12T06:06:01.124Z</time>
      </trkpt>
      <trkpt lat="27.603243" lon="86.700303">
        <ele>1980</ele>
        <time>2019-10-12T06:07:04.124Z</time>
      </trkpt>
      <trkpt lat="27.602993" lon="86.700332">
        <ele>1968.65319936</ele>
        <time>2019-10-12T06:08:02.124Z</time>
      </trkpt>
      <trkpt lat="27.602653" lon="86.699968">
        <ele>1954.52660096</ele>
        <time>2019-10-12T06:09:05.124Z</time>
      </trkpt>
      <trkpt lat="27.602583" lon="86.699576">
        <ele>1945</ele>
        <time>2019-10-12T06:10:03.124Z</time>
      </trkpt>
      <trkpt lat="27.602332" lon="86.699309">
        <ele>1934.72660096</ele>
        <time>2019-10-12T06:11:03.124Z</time>
      </trkpt>
      <trkpt lat="27.602248" lon="86.699028">
        <ele>1924</ele>
        <time>2019-10-12T06:12:03.124Z</time>
      </trkpt>
      <trkpt lat="27.602412" lon="86.698897">
        <ele>1912.62659968</ele>
        <time>2019-10-12T06:13:04.124Z</time>
      </trkpt>
      <trkpt lat="27.602449" lon="86.698502">
        <ele>1901.72660096</ele>
        <time>2019-10-12T06:14:03.124Z</time>
      </trkpt>
      <trkpt lat="27.602575" lon="86.698345">
        <ele>1891.72660096</ele>
        <time>2019-10-12T06:15:03.124Z</time>
      </trkpt>
      <trkpt lat="27.602895" lon="86.698059">
        <ele>1880.62659968</ele>
        <time>2019-10-12T06:16:04.124Z</time>
      </trkpt>
      <trkpt lat="27.602282" lon="86.697759">
        <ele>1854.85548765221</ele>
        <time>2019-10-12T06:18:36.124Z</time>
      </trkpt>
      <trkpt lat="27.602024" lon="86.697587">
        <ele>1845.85320192</ele>
        <time>2019-10-12T06:19:21.124Z</time>
      </trkpt>
      <trkpt lat="27.602062" lon="86.697079">
        <ele>1831.4537479972</ele>
        <time>2019-10-12T06:20:43.124Z</time>
      </trkpt>
      <trkpt lat="27.602358" lon="86.696536">
        <ele>1821.45320192</ele>
        <time>2019-10-12T06:21:43.124Z</time>
      </trkpt>
      <trkpt lat="27.602601" lon="86.696269">
        <ele>1808.72650112</ele>
        <time>2019-10-12T06:22:43.124Z</time>
      </trkpt>
      <trkpt lat="27.602725" lon="86.696048">
        <ele>1801.22659968</ele>
        <time>2019-10-12T06:23:28.124Z</time>
      </trkpt>
      <trkpt lat="27.602765" lon="86.695917">
        <ele>1798</ele>
        <time>2019-10-12T06:24:13.124Z</time>
      </trkpt>
      <trkpt lat="27.602572" lon="86.695466">
        <ele>1785.62659968</ele>
        <time>2019-10-12T06:26:04.124Z</time>
      </trkpt>
      <trkpt lat="27.602596" lon="86.695084">
        <ele>1775.85320192</ele>
        <time>2019-10-12T06:27:01.124Z</time>
      </trkpt>
      <trkpt lat="27.602566" lon="86.694721">
        <ele>1763.62659968</ele>
        <time>2019-10-12T06:28:04.124Z</time>
      </trkpt>
      <trkpt lat="27.60271" lon="86.694163">
        <ele>1755.92660096</ele>
        <time>2019-10-12T06:29:01.124Z</time>
      </trkpt>
      <trkpt lat="27.602654" lon="86.6936">
        <ele>1744.42659968</ele>
        <time>2019-10-12T06:30:06.124Z</time>
      </trkpt>
      <trkpt lat="27.602714" lon="86.693226">
        <ele>1735.86251389346</ele>
        <time>2019-10-12T06:31:01.124Z</time>
      </trkpt>
      <trkpt lat="27.602768" lon="86.692726">
        <ele>1724.85320192</ele>
        <time>2019-10-12T06:32:01.124Z</time>
      </trkpt>
      <trkpt lat="27.60295" lon="86.692232">
        <ele>1712.85320192</ele>
        <time>2019-10-12T06:33:01.124Z</time>
      </trkpt>
      <trkpt lat="27.603166" lon="86.691922">
        <ele>1699.82659968</ele>
        <time>2019-10-12T06:34:02.124Z</time>
      </trkpt>
      <trkpt lat="27.6032" lon="86.691445">
        <ele>1688.85320192</ele>
        <time>2019-10-12T06:35:01.124Z</time>
      </trkpt>
      <trkpt lat="27.602535" lon="86.691162">
        <ele>1676</ele>
        <time>2019-10-12T06:36:40.124Z</time>
      </trkpt>
      <trkpt lat="27.602046" lon="86.690822">
        <ele>1670</ele>
        <time>2019-10-12T06:37:27.124Z</time>
      </trkpt>
      <trkpt lat="27.601838" lon="86.690032">
        <ele>1665.45320192</ele>
        <time>2019-10-12T06:38:43.124Z</time>
      </trkpt>
      <trkpt lat="27.601624" lon="86.689518">
        <ele>1655.72660096</ele>
        <time>2019-10-12T06:39:43.124Z</time>
      </trkpt>
      <trkpt lat="27.601508" lon="86.689057">
        <ele>1646.72660096</ele>
        <time>2019-10-12T06:40:43.124Z</time>
      </trkpt>
      <trkpt lat="27.601272" lon="86.688774">
        <ele>1639.45319936</ele>
        <time>2019-10-12T06:41:28.124Z</time>
      </trkpt>
      <trkpt lat="27.600988" lon="86.688392">
        <ele>1633.72660096</ele>
        <time>2019-10-12T06:42:13.124Z</time>
      </trkpt>
      <trkpt lat="27.600686" lon="86.687917">
        <ele>1627</ele>
        <time>2019-10-12T06:43:03.124Z</time>
      </trkpt>
      <trkpt lat="27.600222" lon="86.687595">
        <ele>1621</ele>
        <time>2019-10-12T06:44:03.124Z</time>
      </trkpt>
      <trkpt lat="27.599728" lon="86.687306">
        <ele>1613.62722670599</ele>
        <time>2019-10-12T06:45:04.124Z</time>
      </trkpt>
      <trkpt lat="27.598911" lon="86.687298">
        <ele>1608</ele>
        <time>2019-10-12T06:46:04.124Z</time>
      </trkpt>
      <trkpt lat="27.598494" lon="86.686746">
        <ele>1601</ele>
        <time>2019-10-12T06:47:04.124Z</time>
      </trkpt>
      <trkpt lat="27.59794" lon="86.686531">
        <ele>1603.47339904</ele>
        <time>2019-10-12T06:48:05.124Z</time>
      </trkpt>
      <trkpt lat="27.597752" lon="86.686">
        <ele>1607</ele>
        <time>2019-10-12T06:49:03.124Z</time>
      </trkpt>
      <trkpt lat="27.597396" lon="86.685399">
        <ele>1602</ele>
        <time>2019-10-12T06:50:04.124Z</time>
      </trkpt>
      <trkpt lat="27.597032" lon="86.684971">
        <ele>1598</ele>
        <time>2019-10-12T06:51:04.124Z</time>
      </trkpt>
      <trkpt lat="27.596832" lon="86.684456">
        <ele>1592</ele>
        <time>2019-10-12T06:52:04.124Z</time>
      </trkpt>
      <trkpt lat="27.596634" lon="86.68387">
        <ele>1584.05320192</ele>
        <time>2019-10-12T06:53:05.124Z</time>
      </trkpt>
      <trkpt lat="27.596433" lon="86.683523">
        <ele>1573.52660096</ele>
        <time>2019-10-12T06:54:05.124Z</time>
      </trkpt>
      <trkpt lat="27.596203" lon="86.682923">
        <ele>1565</ele>
        <time>2019-10-12T06:55:01.124Z</time>
      </trkpt>
      <trkpt lat="27.596185" lon="86.68271">
        <ele>1553.62659968</ele>
        <time>2019-10-12T06:56:04.124Z</time>
      </trkpt>
      <trkpt lat="27.59615" lon="86.682215">
        <ele>1544.05320192</ele>
        <time>2019-10-12T06:57:05.124Z</time>
      </trkpt>
      <trkpt lat="27.596254" lon="86.681994">
        <ele>1532.82659968</ele>
        <time>2019-10-12T06:58:02.124Z</time>
      </trkpt>
      <trkpt lat="27.596048" lon="86.681672">
        <ele>1521</ele>
        <time>2019-10-12T06:59:01.124Z</time>
      </trkpt>
      <trkpt lat="27.596134" lon="86.68108">
        <ele>1509</ele>
        <time>2019-10-12T07:00:01.124Z</time>
      </trkpt>
      <trkpt lat="27.596292" lon="86.680691">
        <ele>1501.52707373493</ele>
        <time>2019-10-12T07:01:05.124Z</time>
      </trkpt>
      <trkpt lat="27.595889" lon="86.680218">
        <ele>1491</ele>
        <time>2019-10-12T07:02:05.124Z</time>
      </trkpt>
      <trkpt lat="27.595725" lon="86.679862">
        <ele>1482.45320192</ele>
        <time>2019-10-12T07:03:03.124Z</time>
      </trkpt>
      <trkpt lat="27.595436" lon="86.679675">
        <ele>1467.05320192</ele>
        <time>2019-10-12T07:04:05.124Z</time>
      </trkpt>
      <trkpt lat="27.595591" lon="86.678472">
        <ele>1456.52660096</ele>
        <time>2019-10-12T07:05:25.124Z</time>
      </trkpt>
      <trkpt lat="27.594296" lon="86.678945">
        <ele>1441.52660096</ele>
        <time>2019-10-12T07:06:55.124Z</time>
      </trkpt>
      <trkpt lat="27.593979" lon="86.678634">
        <ele>1438</ele>
        <time>2019-10-12T07:07:40.124Z</time>
      </trkpt>
      <trkpt lat="27.593798" lon="86.678282">
        <ele>1442</ele>
        <time>2019-10-12T07:08:43.124Z</time>
      </trkpt>
      <trkpt lat="27.593775" lon="86.678009">
        <ele>1445.72660096</ele>
        <time>2019-10-12T07:09:43.124Z</time>
      </trkpt>
      <trkpt lat="27.594128" lon="86.677519">
        <ele>1440.27339904</ele>
        <time>2019-10-12T07:10:43.124Z</time>
      </trkpt>
      <trkpt lat="27.5941" lon="86.676787">
        <ele>1450.57340032</ele>
        <time>2019-10-12T07:12:26.124Z</time>
      </trkpt>
      <trkpt lat="27.594046" lon="86.676629">
        <ele>1455.07339904</ele>
        <time>2019-10-12T07:13:11.124Z</time>
      </trkpt>
      <trkpt lat="27.594189" lon="86.676382">
        <ele>1463.17340032</ele>
        <time>2019-10-12T07:14:12.124Z</time>
      </trkpt>
      <trkpt lat="27.594008" lon="86.676278">
        <ele>1469.54679808</ele>
        <time>2019-10-12T07:15:13.124Z</time>
      </trkpt>
      <trkpt lat="27.593966" lon="86.676095">
        <ele>1475.97340032</ele>
        <time>2019-10-12T07:16:10.124Z</time>
      </trkpt>
      <trkpt lat="27.593875" lon="86.67589">
        <ele>1481.07154271965</ele>
        <time>2019-10-12T07:17:01.124Z</time>
      </trkpt>
      <trkpt lat="27.593753" lon="86.675907">
        <ele>1488.27339904</ele>
        <time>2019-10-12T07:18:03.124Z</time>
      </trkpt>
      <trkpt lat="27.593717" lon="86.675618">
        <ele>1493.37340032</ele>
        <time>2019-10-12T07:19:04.124Z</time>
      </trkpt>
      <trkpt lat="27.593505" lon="86.675621">
        <ele>1505.54679808</ele>
        <time>2019-10-12T07:21:03.124Z</time>
      </trkpt>
      <trkpt lat="27.593378" lon="86.675516">
        <ele>1513.47339904</ele>
        <time>2019-10-12T07:22:05.124Z</time>
      </trkpt>
      <trkpt lat="27.593221" lon="86.675368">
        <ele>1521</ele>
        <time>2019-10-12T07:23:05.124Z</time>
      </trkpt>
      <trkpt lat="27.593095" lon="86.675429">
        <ele>1527.27339904</ele>
        <time>2019-10-12T07:24:03.124Z</time>
      </trkpt>
      <trkpt lat="27.592885" lon="86.675237">
        <ele>1532.27339904</ele>
        <time>2019-10-12T07:25:03.124Z</time>
      </trkpt>
      <trkpt lat="27.592825" lon="86.674909">
        <ele>1538</ele>
        <time>2019-10-12T07:26:03.124Z</time>
      </trkpt>
      <trkpt lat="27.59275" lon="86.674711">
        <ele>1543.34680064</ele>
        <time>2019-10-12T07:27:02.124Z</time>
      </trkpt>
      <trkpt lat="27.59309" lon="86.674472">
        <ele>1551.47339904</ele>
        <time>2019-10-12T07:28:05.124Z</time>
      </trkpt>
      <trkpt lat="27.593277" lon="86.674218">
        <ele>1556.94679808</ele>
        <time>2019-10-12T07:29:05.124Z</time>
      </trkpt>
      <trkpt lat="27.593336" lon="86.67391">
        <ele>1570.37340032</ele>
        <time>2019-10-12T07:31:04.124Z</time>
      </trkpt>
      <trkpt lat="27.593218" lon="86.673595">
        <ele>1576.94680064</ele>
        <time>2019-10-12T07:32:10.124Z</time>
      </trkpt>
      <trkpt lat="27.592973" lon="86.673799">
        <ele>1582</ele>
        <time>2019-10-12T07:33:03.124Z</time>
      </trkpt>
      <trkpt lat="27.592885" lon="86.673652">
        <ele>1587.37340032</ele>
        <time>2019-10-12T07:34:04.124Z</time>
      </trkpt>
      <trkpt lat="27.59272" lon="86.673472">
        <ele>1594</ele>
        <time>2019-10-12T07:35:04.124Z</time>
      </trkpt>
      <trkpt lat="27.592553" lon="86.673445">
        <ele>1599.37340032</ele>
        <time>2019-10-12T07:36:04.124Z</time>
      </trkpt>
      <trkpt lat="27.592667" lon="86.673428">
        <ele>1600</ele>
        <time>2019-10-12T07:37:05.124Z</time>
      </trkpt>
      <trkpt lat="27.592726" lon="86.673268">
        <ele>1599.54679808</ele>
        <time>2019-10-12T07:39:03.124Z</time>
      </trkpt>
      <trkpt lat="27.592644" lon="86.673355">
        <ele>1600</ele>
        <time>2019-10-12T07:40:03.124Z</time>
      </trkpt>
      <trkpt lat="27.592673" lon="86.673204">
        <ele>1601.27339904</ele>
        <time>2019-10-12T07:41:03.124Z</time>
      </trkpt>
      <trkpt lat="27.592443" lon="86.672995">
        <ele>1605.54679808</ele>
        <time>2019-10-12T07:42:03.124Z</time>
      </trkpt>
      <trkpt lat="27.59226" lon="86.672751">
        <ele>1611.47339904</ele>
        <time>2019-10-12T07:43:05.124Z</time>
      </trkpt>
      <trkpt lat="27.592282" lon="86.672438">
        <ele>1617.94679808</ele>
        <time>2019-10-12T07:44:05.124Z</time>
      </trkpt>
      <trkpt lat="27.592002" lon="86.672073">
        <ele>1623.94679808</ele>
        <time>2019-10-12T07:45:05.124Z</time>
      </trkpt>
      <trkpt lat="27.591853" lon="86.671876">
        <ele>1627</ele>
        <time>2019-10-12T07:46:04.124Z</time>
      </trkpt>
      <trkpt lat="27.591639" lon="86.671625">
        <ele>1631.54679808</ele>
        <time>2019-10-12T07:47:03.124Z</time>
      </trkpt>
      <trkpt lat="27.591659" lon="86.671459">
        <ele>1639.27339904</ele>
        <time>2019-10-12T07:48:03.124Z</time>
      </trkpt>
      <trkpt lat="27.591439" lon="86.67124">
        <ele>1644.54679808</ele>
        <time>2019-10-12T07:49:03.124Z</time>
      </trkpt>
      <trkpt lat="27.591529" lon="86.67079">
        <ele>1649</ele>
        <time>2019-10-12T07:50:03.124Z</time>
      </trkpt>
      <trkpt lat="27.591297" lon="86.670403">
        <ele>1650.47339904</ele>
        <time>2019-10-12T07:51:05.124Z</time>
      </trkpt>
      <trkpt lat="27.591434" lon="86.669845">
        <ele>1653.54679808</ele>
        <time>2019-10-12T07:52:33.124Z</time>
      </trkpt>
      <trkpt lat="27.591422" lon="86.669556">
        <ele>1657.77340032</ele>
        <time>2019-10-12T07:53:18.124Z</time>
      </trkpt>
      <trkpt lat="27.591568" lon="86.669197">
        <ele>1667.27339904</ele>
        <time>2019-10-12T07:54:43.124Z</time>
      </trkpt>
      <trkpt lat="27.591569" lon="86.669068">
        <ele>1672</ele>
        <time>2019-10-12T07:55:43.124Z</time>
      </trkpt>
      <trkpt lat="27.591706" lon="86.668823">
        <ele>1676.54679808</ele>
        <time>2019-10-12T07:56:43.124Z</time>
      </trkpt>
      <trkpt lat="27.591713" lon="86.668574">
        <ele>1681</ele>
        <time>2019-10-12T07:57:28.124Z</time>
      </trkpt>
      <trkpt lat="27.59166" lon="86.668366">
        <ele>1686.2731260014</ele>
        <time>2019-10-12T07:58:13.124Z</time>
      </trkpt>
      <trkpt lat="27.59147" lon="86.66813">
        <ele>1691.57340032</ele>
        <time>2019-10-12T07:59:06.124Z</time>
      </trkpt>
      <trkpt lat="27.591271" lon="86.667905">
        <ele>1698.27339904</ele>
        <time>2019-10-12T08:00:03.124Z</time>
      </trkpt>
      <trkpt lat="27.591207" lon="86.667702">
        <ele>1702</ele>
        <time>2019-10-12T08:01:01.124Z</time>
      </trkpt>
      <trkpt lat="27.590922" lon="86.66743">
        <ele>1707</ele>
        <time>2019-10-12T08:02:01.124Z</time>
      </trkpt>
      <trkpt lat="27.590589" lon="86.667189">
        <ele>1712.47339904</ele>
        <time>2019-10-12T08:03:05.124Z</time>
      </trkpt>
      <trkpt lat="27.59051" lon="86.667021">
        <ele>1715.94679808</ele>
        <time>2019-10-12T08:04:05.124Z</time>
      </trkpt>
      <trkpt lat="27.590495" lon="86.666594">
        <ele>1721.37350016</ele>
        <time>2019-10-12T08:05:04.124Z</time>
      </trkpt>
      <trkpt lat="27.590337" lon="86.666118">
        <ele>1725.47349888</ele>
        <time>2019-10-12T08:06:05.124Z</time>
      </trkpt>
      <trkpt lat="27.590189" lon="86.665736">
        <ele>1730.37350016</ele>
        <time>2019-10-12T08:07:04.124Z</time>
      </trkpt>
      <trkpt lat="27.590204" lon="86.665482">
        <ele>1735.13935550201</ele>
        <time>2019-10-12T08:08:01.124Z</time>
      </trkpt>
      <trkpt lat="27.590065" lon="86.665124">
        <ele>1744.76219904</ele>
        <time>2019-10-12T08:09:29.201Z</time>
      </trkpt>
      <trkpt lat="27.589954" lon="86.664966">
        <ele>1749</ele>
        <time>2019-10-12T08:10:14.124Z</time>
      </trkpt>
      <trkpt lat="27.589896" lon="86.66466">
        <ele>1753.47292626507</ele>
        <time>2019-10-12T08:11:05.124Z</time>
      </trkpt>
      <trkpt lat="27.589989" lon="86.664476">
        <ele>1760.37340032</ele>
        <time>2019-10-12T08:12:04.124Z</time>
      </trkpt>
      <trkpt lat="27.58996" lon="86.664165">
        <ele>1766</ele>
        <time>2019-10-12T08:13:04.124Z</time>
      </trkpt>
      <trkpt lat="27.5898" lon="86.663836">
        <ele>1769</ele>
        <time>2019-10-12T08:14:04.124Z</time>
      </trkpt>
      <trkpt lat="27.589892" lon="86.66364">
        <ele>1774.47339904</ele>
        <time>2019-10-12T08:15:05.124Z</time>
      </trkpt>
      <trkpt lat="27.589919" lon="86.663332">
        <ele>1781</ele>
        <time>2019-10-12T08:16:03.124Z</time>
      </trkpt>
      <trkpt lat="27.590263" lon="86.663213">
        <ele>1785.14680064</ele>
        <time>2019-10-12T08:17:06.124Z</time>
      </trkpt>
      <trkpt lat="27.590494" lon="86.663073">
        <ele>1793</ele>
        <time>2019-10-12T08:18:02.124Z</time>
      </trkpt>
      <trkpt lat="27.590796" lon="86.66287">
        <ele>1798.54679808</ele>
        <time>2019-10-12T08:19:03.124Z</time>
      </trkpt>
      <trkpt lat="27.590926" lon="86.662714">
        <ele>1806</ele>
        <time>2019-10-12T08:20:03.124Z</time>
      </trkpt>
      <trkpt lat="27.590926" lon="86.662387">
        <ele>1810.14494361724</ele>
        <time>2019-10-12T08:21:01.124Z</time>
      </trkpt>
      <trkpt lat="27.591254" lon="86.661931">
        <ele>1814.27339904</ele>
        <time>2019-10-12T08:22:03.124Z</time>
      </trkpt>
      <trkpt lat="27.591364" lon="86.661747">
        <ele>1814.37340032</ele>
        <time>2019-10-12T08:23:04.124Z</time>
      </trkpt>
      <trkpt lat="27.591705" lon="86.661491">
        <ele>1818</ele>
        <time>2019-10-12T08:24:04.124Z</time>
      </trkpt>
      <trkpt lat="27.591842" lon="86.661277">
        <ele>1820</ele>
        <time>2019-10-12T08:27:04.124Z</time>
      </trkpt>
      <trkpt lat="27.592083" lon="86.660838">
        <ele>1823.37340032</ele>
        <time>2019-10-12T08:28:04.124Z</time>
      </trkpt>
      <trkpt lat="27.591797" lon="86.66066">
        <ele>1829.94679808</ele>
        <time>2019-10-12T08:29:05.124Z</time>
      </trkpt>
      <trkpt lat="27.591942" lon="86.660484">
        <ele>1835</ele>
        <time>2019-10-12T08:30:07.124Z</time>
      </trkpt>
      <trkpt lat="27.592121" lon="86.660381">
        <ele>1841.37302741196</ele>
        <time>2019-10-12T08:31:04.124Z</time>
      </trkpt>
      <trkpt lat="27.592378" lon="86.659943">
        <ele>1844.14679808</ele>
        <time>2019-10-12T08:32:01.124Z</time>
      </trkpt>
      <trkpt lat="27.592726" lon="86.659679">
        <ele>1850.94679808</ele>
        <time>2019-10-12T08:33:05.124Z</time>
      </trkpt>
      <trkpt lat="27.592961" lon="86.659492">
        <ele>1858</ele>
        <time>2019-10-12T08:34:01.124Z</time>
      </trkpt>
      <trkpt lat="27.593021" lon="86.658886">
        <ele>1858.37340032</ele>
        <time>2019-10-12T08:35:04.124Z</time>
      </trkpt>
      <trkpt lat="27.593113" lon="86.658666">
        <ele>1859.14679808</ele>
        <time>2019-10-12T08:36:01.124Z</time>
      </trkpt>
      <trkpt lat="27.593319" lon="86.658216">
        <ele>1865.27339904</ele>
        <time>2019-10-12T08:37:03.124Z</time>
      </trkpt>
      <trkpt lat="27.59341" lon="86.658017">
        <ele>1865.17340032</ele>
        <time>2019-10-12T08:38:02.124Z</time>
      </trkpt>
      <trkpt lat="27.593507" lon="86.657951">
        <ele>1866.42659968</ele>
        <time>2019-10-12T08:39:06.124Z</time>
      </trkpt>
      <trkpt lat="27.593451" lon="86.658124">
        <ele>1865.37340032</ele>
        <time>2019-10-12T08:40:04.124Z</time>
      </trkpt>
      <trkpt lat="27.593742" lon="86.657691">
        <ele>1867</ele>
        <time>2019-10-12T08:41:04.124Z</time>
      </trkpt>
      <trkpt lat="27.593901" lon="86.657154">
        <ele>1868.54679808</ele>
        <time>2019-10-12T08:42:03.124Z</time>
      </trkpt>
      <trkpt lat="27.594043" lon="86.656887">
        <ele>1871.57340032</ele>
        <time>2019-10-12T08:45:06.124Z</time>
      </trkpt>
      <trkpt lat="27.594004" lon="86.656558">
        <ele>1877.87339904</ele>
        <time>2019-10-12T08:46:09.124Z</time>
      </trkpt>
      <trkpt lat="27.593914" lon="86.656221">
        <ele>1883.67339904</ele>
        <time>2019-10-12T08:47:07.124Z</time>
      </trkpt>
      <trkpt lat="27.593948" lon="86.655968">
        <ele>1890.37340032</ele>
        <time>2019-10-12T08:48:04.124Z</time>
      </trkpt>
      <trkpt lat="27.59404" lon="86.6556">
        <ele>1897.57340032</ele>
        <time>2019-10-12T08:49:06.124Z</time>
      </trkpt>
      <trkpt lat="27.594097" lon="86.65528">
        <ele>1904.62659968</ele>
        <time>2019-10-12T08:50:04.124Z</time>
      </trkpt>
      <trkpt lat="27.593978" lon="86.655042">
        <ele>1910.57340032</ele>
        <time>2019-10-12T08:51:06.124Z</time>
      </trkpt>
      <trkpt lat="27.593831" lon="86.654871">
        <ele>1917</ele>
        <time>2019-10-12T08:52:01.124Z</time>
      </trkpt>
      <trkpt lat="27.593638" lon="86.654496">
        <ele>1919</ele>
        <time>2019-10-12T08:53:01.124Z</time>
      </trkpt>
      <trkpt lat="27.593546" lon="86.65388">
        <ele>1923</ele>
        <time>2019-10-12T08:54:04.124Z</time>
      </trkpt>
      <trkpt lat="27.593582" lon="86.654021">
        <ele>1922</ele>
        <time>2019-10-12T08:55:05.124Z</time>
      </trkpt>
      <trkpt lat="27.593308" lon="86.653567">
        <ele>1926.47339904</ele>
        <time>2019-10-12T08:56:05.124Z</time>
      </trkpt>
      <trkpt lat="27.593115" lon="86.653483">
        <ele>1933.74680064</ele>
        <time>2019-10-12T08:57:04.124Z</time>
      </trkpt>
      <trkpt lat="27.592765" lon="86.653122">
        <ele>1940</ele>
        <time>2019-10-12T08:58:03.124Z</time>
      </trkpt>
      <trkpt lat="27.592608" lon="86.653016">
        <ele>1945.47339904</ele>
        <time>2019-10-12T08:59:05.124Z</time>
      </trkpt>
      <trkpt lat="27.592756" lon="86.652805">
        <ele>1951.37340032</ele>
        <time>2019-10-12T09:00:04.124Z</time>
      </trkpt>
      <trkpt lat="27.592768" lon="86.65243">
        <ele>1958.27339904</ele>
        <time>2019-10-12T09:01:03.124Z</time>
      </trkpt>
      <trkpt lat="27.592648" lon="86.652085">
        <ele>1965.74680064</ele>
        <time>2019-10-12T09:02:04.124Z</time>
      </trkpt>
      <trkpt lat="27.592573" lon="86.651821">
        <ele>1973.37340032</ele>
        <time>2019-10-12T09:03:04.124Z</time>
      </trkpt>
      <trkpt lat="27.592336" lon="86.651682">
        <ele>1979.54679808</ele>
        <time>2019-10-12T09:04:03.124Z</time>
      </trkpt>
      <trkpt lat="27.592215" lon="86.651375">
        <ele>1986</ele>
        <time>2019-10-12T09:05:04.124Z</time>
      </trkpt>
      <trkpt lat="27.592234" lon="86.651156">
        <ele>1994</ele>
        <time>2019-10-12T09:06:05.124Z</time>
      </trkpt>
      <trkpt lat="27.591972" lon="86.651086">
        <ele>2000.27339904</ele>
        <time>2019-10-12T09:07:03.124Z</time>
      </trkpt>
      <trkpt lat="27.591656" lon="86.650947">
        <ele>2006.47339904</ele>
        <time>2019-10-12T09:08:05.124Z</time>
      </trkpt>
      <trkpt lat="27.591537" lon="86.650989">
        <ele>2013.12020096</ele>
        <time>2019-10-12T09:09:04.124Z</time>
      </trkpt>
      <trkpt lat="27.591283" lon="86.651098">
        <ele>2018.94679808</ele>
        <time>2019-10-12T09:10:05.124Z</time>
      </trkpt>
      <trkpt lat="27.591241" lon="86.651254">
        <ele>2024.37340032</ele>
        <time>2019-10-12T09:11:04.124Z</time>
      </trkpt>
      <trkpt lat="27.591435" lon="86.650942">
        <ele>2031</ele>
        <time>2019-10-12T09:12:03.124Z</time>
      </trkpt>
      <trkpt lat="27.591634" lon="86.650687">
        <ele>2037</ele>
        <time>2019-10-12T09:13:02.124Z</time>
      </trkpt>
      <trkpt lat="27.591838" lon="86.65036">
        <ele>2044.07339904</ele>
        <time>2019-10-12T09:14:01.124Z</time>
      </trkpt>
      <trkpt lat="27.59194" lon="86.650074">
        <ele>2052.14680064</ele>
        <time>2019-10-12T09:15:06.124Z</time>
      </trkpt>
      <trkpt lat="27.591948" lon="86.649699">
        <ele>2058.47339904</ele>
        <time>2019-10-12T09:16:05.124Z</time>
      </trkpt>
      <trkpt lat="27.591876" lon="86.649576">
        <ele>2061.27339904</ele>
        <time>2019-10-12T09:17:03.124Z</time>
      </trkpt>
      <trkpt lat="27.591569" lon="86.64941">
        <ele>2067.74680064</ele>
        <time>2019-10-12T09:18:04.124Z</time>
      </trkpt>
      <trkpt lat="27.591271" lon="86.649155">
        <ele>2074.57340032</ele>
        <time>2019-10-12T09:19:06.124Z</time>
      </trkpt>
      <trkpt lat="27.590961" lon="86.649032">
        <ele>2080</ele>
        <time>2019-10-12T09:20:04.124Z</time>
      </trkpt>
      <trkpt lat="27.590872" lon="86.648597">
        <ele>2076</ele>
        <time>2019-10-12T09:21:04.124Z</time>
      </trkpt>
      <trkpt lat="27.590628" lon="86.64834">
        <ele>2079.37340032</ele>
        <time>2019-10-12T09:22:04.124Z</time>
      </trkpt>
      <trkpt lat="27.590305" lon="86.648219">
        <ele>2085.17340032</ele>
        <time>2019-10-12T09:23:02.124Z</time>
      </trkpt>
      <trkpt lat="27.590118" lon="86.648032">
        <ele>2088.94679808</ele>
        <time>2019-10-12T09:24:05.124Z</time>
      </trkpt>
      <trkpt lat="27.589932" lon="86.64784">
        <ele>2096</ele>
        <time>2019-10-12T09:25:01.124Z</time>
      </trkpt>
      <trkpt lat="27.589835" lon="86.647695">
        <ele>2103.37340032</ele>
        <time>2019-10-12T09:26:04.124Z</time>
      </trkpt>
      <trkpt lat="27.589524" lon="86.647472">
        <ele>2107.37340032</ele>
        <time>2019-10-12T09:27:04.124Z</time>
      </trkpt>
      <trkpt lat="27.589311" lon="86.64703">
        <ele>2110</ele>
        <time>2019-10-12T09:28:05.124Z</time>
      </trkpt>
      <trkpt lat="27.58875" lon="86.646771">
        <ele>2110.17340032</ele>
        <time>2019-10-12T09:29:02.124Z</time>
      </trkpt>
      <trkpt lat="27.588479" lon="86.646382">
        <ele>2111.2731260014</ele>
        <time>2019-10-12T09:30:03.124Z</time>
      </trkpt>
      <trkpt lat="27.588466" lon="86.645853">
        <ele>2118</ele>
        <time>2019-10-12T09:31:04.124Z</time>
      </trkpt>
      <trkpt lat="27.588174" lon="86.645371">
        <ele>2122</ele>
        <time>2019-10-12T09:32:03.124Z</time>
      </trkpt>
      <trkpt lat="27.588078" lon="86.64487">
        <ele>2126</ele>
        <time>2019-10-12T09:33:04.124Z</time>
      </trkpt>
      <trkpt lat="27.588272" lon="86.644357">
        <ele>2132</ele>
        <time>2019-10-12T09:34:04.124Z</time>
      </trkpt>
      <trkpt lat="27.588424" lon="86.643996">
        <ele>2139</ele>
        <time>2019-10-12T09:35:04.124Z</time>
      </trkpt>
      <trkpt lat="27.588233" lon="86.643679">
        <ele>2144.57297343008</ele>
        <time>2019-10-12T09:36:06.124Z</time>
      </trkpt>
      <trkpt lat="27.587968" lon="86.643169">
        <ele>2146.47339904</ele>
        <time>2019-10-12T09:37:05.124Z</time>
      </trkpt>
      <trkpt lat="27.587703" lon="86.642733">
        <ele>2149.47339904</ele>
        <time>2019-10-12T09:38:05.124Z</time>
      </trkpt>
      <trkpt lat="27.587434" lon="86.642312">
        <ele>2154</ele>
        <time>2019-10-12T09:39:04.124Z</time>
      </trkpt>
      <trkpt lat="27.587095" lon="86.64208">
        <ele>2158.37340032</ele>
        <time>2019-10-12T09:40:04.124Z</time>
      </trkpt>
      <trkpt lat="27.586747" lon="86.641998">
        <ele>2164.37340032</ele>
        <time>2019-10-12T09:41:04.124Z</time>
      </trkpt>
      <trkpt lat="27.586586" lon="86.641773">
        <ele>2171.54679808</ele>
        <time>2019-10-12T09:42:03.124Z</time>
      </trkpt>
      <trkpt lat="27.586559" lon="86.64151">
        <ele>2178.37340032</ele>
        <time>2019-10-12T09:43:04.124Z</time>
      </trkpt>
      <trkpt lat="27.586604" lon="86.641221">
        <ele>2184</ele>
        <time>2019-10-12T09:44:03.124Z</time>
      </trkpt>
      <trkpt lat="27.586555" lon="86.640996">
        <ele>2190.14679808</ele>
        <time>2019-10-12T09:45:01.124Z</time>
      </trkpt>
      <trkpt lat="27.586505" lon="86.640698">
        <ele>2194.82019712</ele>
        <time>2019-10-12T09:46:03.124Z</time>
      </trkpt>
      <trkpt lat="27.586687" lon="86.640493">
        <ele>2202.14679808</ele>
        <time>2019-10-12T09:47:01.124Z</time>
      </trkpt>
      <trkpt lat="27.586868" lon="86.640321">
        <ele>2208.94679808</ele>
        <time>2019-10-12T09:48:05.124Z</time>
      </trkpt>
      <trkpt lat="27.586643" lon="86.64007">
        <ele>2215.27339904</ele>
        <time>2019-10-12T09:49:03.124Z</time>
      </trkpt>
      <trkpt lat="27.58664" lon="86.639736">
        <ele>2219.52020096</ele>
        <time>2019-10-12T09:50:02.124Z</time>
      </trkpt>
      <trkpt lat="27.586662" lon="86.639314">
        <ele>2228</ele>
        <time>2019-10-12T09:51:01.124Z</time>
      </trkpt>
      <trkpt lat="27.586672" lon="86.638887">
        <ele>2233.27339904</ele>
        <time>2019-10-12T09:52:03.124Z</time>
      </trkpt>
      <trkpt lat="27.586549" lon="86.638725">
        <ele>2240.17340032</ele>
        <time>2019-10-12T09:53:02.124Z</time>
      </trkpt>
      <trkpt lat="27.586316" lon="86.638549">
        <ele>2245</ele>
        <time>2019-10-12T09:54:03.124Z</time>
      </trkpt>
      <trkpt lat="27.586421" lon="86.638559">
        <ele>2248</ele>
        <time>2019-10-12T09:59:04.124Z</time>
      </trkpt>
      <trkpt lat="27.586336" lon="86.638457">
        <ele>2249.27339904</ele>
        <time>2019-10-12T10:00:03.124Z</time>
      </trkpt>
      <trkpt lat="27.586158" lon="86.638288">
        <ele>2255.47287208076</ele>
        <time>2019-10-12T10:01:05.124Z</time>
      </trkpt>
      <trkpt lat="27.586027" lon="86.637918">
        <ele>2267.27339904</ele>
        <time>2019-10-12T10:03:03.124Z</time>
      </trkpt>
      <trkpt lat="27.586019" lon="86.63773">
        <ele>2274.77340032</ele>
        <time>2019-10-12T10:04:08.124Z</time>
      </trkpt>
      <trkpt lat="27.585924" lon="86.637428">
        <ele>2279.37340032</ele>
        <time>2019-10-12T10:05:04.124Z</time>
      </trkpt>
      <trkpt lat="27.585507" lon="86.637224">
        <ele>2290.47339904</ele>
        <time>2019-10-12T10:07:05.124Z</time>
      </trkpt>
      <trkpt lat="27.585392" lon="86.637144">
        <ele>2296</ele>
        <time>2019-10-12T10:08:04.124Z</time>
      </trkpt>
      <trkpt lat="27.585243" lon="86.636981">
        <ele>2302.27339904</ele>
        <time>2019-10-12T10:09:03.124Z</time>
      </trkpt>
      <trkpt lat="27.585281" lon="86.636658">
        <ele>2309</ele>
        <time>2019-10-12T10:10:04.124Z</time>
      </trkpt>
      <trkpt lat="27.58541" lon="86.636382">
        <ele>2316.72660096</ele>
        <time>2019-10-12T10:11:03.124Z</time>
      </trkpt>
      <trkpt lat="27.585552" lon="86.636108">
        <ele>2321.37340032</ele>
        <time>2019-10-12T10:12:04.124Z</time>
      </trkpt>
      <trkpt lat="27.585523" lon="86.635679">
        <ele>2328</ele>
        <time>2019-10-12T10:13:02.124Z</time>
      </trkpt>
      <trkpt lat="27.585619" lon="86.635189">
        <ele>2328</ele>
        <time>2019-10-12T10:14:09.124Z</time>
      </trkpt>
      <trkpt lat="27.58577" lon="86.635204">
        <ele>2332.57340032</ele>
        <time>2019-10-12T10:15:36.124Z</time>
      </trkpt>
      <trkpt lat="27.585814" lon="86.634952">
        <ele>2334</ele>
        <time>2019-10-12T10:16:21.124Z</time>
      </trkpt>
      <trkpt lat="27.585723" lon="86.634846">
        <ele>2343.27339904</ele>
        <time>2019-10-12T10:17:43.124Z</time>
      </trkpt>
      <trkpt lat="27.585694" lon="86.634651">
        <ele>2350.82019712</ele>
        <time>2019-10-12T10:18:43.124Z</time>
      </trkpt>
      <trkpt lat="27.585857" lon="86.634374">
        <ele>2356.54679808</ele>
        <time>2019-10-12T10:19:43.124Z</time>
      </trkpt>
      <trkpt lat="27.585969" lon="86.63447">
        <ele>2361.77340032</ele>
        <time>2019-10-12T10:20:28.124Z</time>
      </trkpt>
      <trkpt lat="27.586326" lon="86.634116">
        <ele>2376</ele>
        <time>2019-10-12T10:23:03.124Z</time>
      </trkpt>
      <trkpt lat="27.586465" lon="86.633914">
        <ele>2382.37340032</ele>
        <time>2019-10-12T10:24:04.124Z</time>
      </trkpt>
      <trkpt lat="27.586728" lon="86.633881">
        <ele>2387.37340032</ele>
        <time>2019-10-12T10:25:04.124Z</time>
      </trkpt>
      <trkpt lat="27.58715" lon="86.633613">
        <ele>2392.14679808</ele>
        <time>2019-10-12T10:26:01.124Z</time>
      </trkpt>
      <trkpt lat="27.587386" lon="86.633693">
        <ele>2397.14679808</ele>
        <time>2019-10-12T10:27:01.124Z</time>
      </trkpt>
      <trkpt lat="27.58763" lon="86.633519">
        <ele>2407</ele>
        <time>2019-10-12T10:28:01.124Z</time>
      </trkpt>
      <trkpt lat="27.58765" lon="86.633283">
        <ele>2411.54679808</ele>
        <time>2019-10-12T10:29:03.124Z</time>
      </trkpt>
      <trkpt lat="27.587537" lon="86.633134">
        <ele>2419.10179968</ele>
        <time>2019-10-12T10:30:01.408Z</time>
      </trkpt>
      <trkpt lat="27.587349" lon="86.633155">
        <ele>2422.27339904</ele>
        <time>2019-10-12T10:31:03.124Z</time>
      </trkpt>
      <trkpt lat="27.587245" lon="86.633022">
        <ele>2430.2731260014</ele>
        <time>2019-10-12T10:32:03.124Z</time>
      </trkpt>
      <trkpt lat="27.58704" lon="86.633018">
        <ele>2437.47339904</ele>
        <time>2019-10-12T10:33:05.124Z</time>
      </trkpt>
      <trkpt lat="27.587345" lon="86.632914">
        <ele>2442</ele>
        <time>2019-10-12T10:34:04.124Z</time>
      </trkpt>
      <trkpt lat="27.587591" lon="86.632692">
        <ele>2446.37340032</ele>
        <time>2019-10-12T10:35:04.124Z</time>
      </trkpt>
      <trkpt lat="27.587956" lon="86.632677">
        <ele>2452.37340032</ele>
        <time>2019-10-12T10:36:04.124Z</time>
      </trkpt>
      <trkpt lat="27.588207" lon="86.632389">
        <ele>2458.74605482391</ele>
        <time>2019-10-12T10:37:04.124Z</time>
      </trkpt>
      <trkpt lat="27.58833" lon="86.632278">
        <ele>2466.37340032</ele>
        <time>2019-10-12T10:38:04.124Z</time>
      </trkpt>
      <trkpt lat="27.588394" lon="86.632156">
        <ele>2468</ele>
        <time>2019-10-12T10:39:04.124Z</time>
      </trkpt>
      <trkpt lat="27.588181" lon="86.632018">
        <ele>2475.27339904</ele>
        <time>2019-10-12T10:40:03.124Z</time>
      </trkpt>
      <trkpt lat="27.588301" lon="86.631735">
        <ele>2482.07339904</ele>
        <time>2019-10-12T10:41:01.124Z</time>
      </trkpt>
      <trkpt lat="27.588087" lon="86.631409">
        <ele>2488.54679808</ele>
        <time>2019-10-12T10:42:03.124Z</time>
      </trkpt>
      <trkpt lat="27.588338" lon="86.631166">
        <ele>2494.94679808</ele>
        <time>2019-10-12T10:43:05.124Z</time>
      </trkpt>
      <trkpt lat="27.588546" lon="86.630843">
        <ele>2502</ele>
        <time>2019-10-12T10:44:05.124Z</time>
      </trkpt>
      <trkpt lat="27.588718" lon="86.630456">
        <ele>2507.47339904</ele>
        <time>2019-10-12T10:45:05.124Z</time>
      </trkpt>
      <trkpt lat="27.588793" lon="86.630282">
        <ele>2514.14679808</ele>
        <time>2019-10-12T10:46:01.124Z</time>
      </trkpt>
      <trkpt lat="27.588262" lon="86.629896">
        <ele>2522</ele>
        <time>2019-10-12T10:47:04.124Z</time>
      </trkpt>
      <trkpt lat="27.588111" lon="86.630306">
        <ele>2538.34680064</ele>
        <time>2019-10-12T10:50:02.124Z</time>
      </trkpt>
      <trkpt lat="27.587939" lon="86.630206">
        <ele>2551.94679808</ele>
        <time>2019-10-12T10:52:05.124Z</time>
      </trkpt>
      <trkpt lat="27.587896" lon="86.629899">
        <ele>2557</ele>
        <time>2019-10-12T10:53:04.124Z</time>
      </trkpt>
      <trkpt lat="27.587966" lon="86.629636">
        <ele>2562.14679808</ele>
        <time>2019-10-12T10:54:01.124Z</time>
      </trkpt>
      <trkpt lat="27.587982" lon="86.629271">
        <ele>2568.52020096</ele>
        <time>2019-10-12T10:55:02.124Z</time>
      </trkpt>
      <trkpt lat="27.58809" lon="86.629024">
        <ele>2575.14679808</ele>
        <time>2019-10-12T10:56:01.124Z</time>
      </trkpt>
      <trkpt lat="27.588079" lon="86.628766">
        <ele>2583.37340032</ele>
        <time>2019-10-12T10:57:04.124Z</time>
      </trkpt>
      <trkpt lat="27.588166" lon="86.628369">
        <ele>2589.47339904</ele>
        <time>2019-10-12T10:58:05.124Z</time>
      </trkpt>
      <trkpt lat="27.588216" lon="86.628211">
        <ele>2597.14679808</ele>
        <time>2019-10-12T10:59:01.124Z</time>
      </trkpt>
      <trkpt lat="27.588002" lon="86.628035">
        <ele>2604.37340032</ele>
        <time>2019-10-12T11:00:04.124Z</time>
      </trkpt>
      <trkpt lat="27.587856" lon="86.628101">
        <ele>2610.27339904</ele>
        <time>2019-10-12T11:01:03.124Z</time>
      </trkpt>
      <trkpt lat="27.587997" lon="86.627866">
        <ele>2617.12020096</ele>
        <time>2019-10-12T11:02:04.124Z</time>
      </trkpt>
      <trkpt lat="27.588" lon="86.627611">
        <ele>2625</ele>
        <time>2019-10-12T11:03:06.124Z</time>
      </trkpt>
      <trkpt lat="27.588" lon="86.627463">
        <ele>2632.07339904</ele>
        <time>2019-10-12T11:04:01.124Z</time>
      </trkpt>
      <trkpt lat="27.587892" lon="86.62733">
        <ele>2633.94679808</ele>
        <time>2019-10-12T11:05:05.124Z</time>
      </trkpt>
      <trkpt lat="27.587724" lon="86.626937">
        <ele>2639.47339904</ele>
        <time>2019-10-12T11:06:05.124Z</time>
      </trkpt>
      <trkpt lat="27.587693" lon="86.626677">
        <ele>2646.37340032</ele>
        <time>2019-10-12T11:07:04.124Z</time>
      </trkpt>
      <trkpt lat="27.5877" lon="86.626232">
        <ele>2650</ele>
        <time>2019-10-12T11:08:03.124Z</time>
      </trkpt>
      <trkpt lat="27.587568" lon="86.625871">
        <ele>2656.47339904</ele>
        <time>2019-10-12T11:09:05.124Z</time>
      </trkpt>
      <trkpt lat="27.587788" lon="86.62562">
        <ele>2662.37340032</ele>
        <time>2019-10-12T11:10:04.124Z</time>
      </trkpt>
      <trkpt lat="27.588099" lon="86.62524">
        <ele>2665</ele>
        <time>2019-10-12T11:11:01.124Z</time>
      </trkpt>
      <trkpt lat="27.588132" lon="86.624919">
        <ele>2671.37277329401</ele>
        <time>2019-10-12T11:12:04.124Z</time>
      </trkpt>
      <trkpt lat="27.588361" lon="86.624511">
        <ele>2682</ele>
        <time>2019-10-12T11:14:03.124Z</time>
      </trkpt>
      <trkpt lat="27.588326" lon="86.624326">
        <ele>2687.17340032</ele>
        <time>2019-10-12T11:15:02.124Z</time>
      </trkpt>
      <trkpt lat="27.588625" lon="86.624207">
        <ele>2691.09359616</ele>
        <time>2019-10-12T11:16:03.124Z</time>
      </trkpt>
      <trkpt lat="27.588942" lon="86.624109">
        <ele>2698.47339904</ele>
        <time>2019-10-12T11:17:05.124Z</time>
      </trkpt>
      <trkpt lat="27.589371" lon="86.623984">
        <ele>2701.14680064</ele>
        <time>2019-10-12T11:18:06.124Z</time>
      </trkpt>
      <trkpt lat="27.58962" lon="86.623958">
        <ele>2709.14679808</ele>
        <time>2019-10-12T11:19:01.124Z</time>
      </trkpt>
      <trkpt lat="27.589762" lon="86.623904">
        <ele>2717</ele>
        <time>2019-10-12T11:20:04.124Z</time>
      </trkpt>
      <trkpt lat="27.590148" lon="86.623969">
        <ele>2719.57340032</ele>
        <time>2019-10-12T11:21:06.124Z</time>
      </trkpt>
      <trkpt lat="27.590392" lon="86.623949">
        <ele>2726.42019712</ele>
        <time>2019-10-12T11:22:05.124Z</time>
      </trkpt>
      <trkpt lat="27.590519" lon="86.623689">
        <ele>2731</ele>
        <time>2019-10-12T11:23:05.124Z</time>
      </trkpt>
      <trkpt lat="27.5906" lon="86.623331">
        <ele>2737.37340032</ele>
        <time>2019-10-12T11:24:04.124Z</time>
      </trkpt>
      <trkpt lat="27.59096" lon="86.623353">
        <ele>2740.74680064</ele>
        <time>2019-10-12T11:25:04.124Z</time>
      </trkpt>
      <trkpt lat="27.591111" lon="86.623236">
        <ele>2747.07339904</ele>
        <time>2019-10-12T11:26:01.124Z</time>
      </trkpt>
      <trkpt lat="27.59154" lon="86.623678">
        <ele>2750.82019712</ele>
        <time>2019-10-12T11:27:03.124Z</time>
      </trkpt>
      <trkpt lat="27.591774" lon="86.62384">
        <ele>2759.47339904</ele>
        <time>2019-10-12T11:28:05.124Z</time>
      </trkpt>
      <trkpt lat="27.592002" lon="86.623898">
        <ele>2764.85320192</ele>
        <time>2019-10-12T11:29:01.124Z</time>
      </trkpt>
      <trkpt lat="27.591982" lon="86.623642">
        <ele>2769.92845728035</ele>
        <time>2019-10-12T11:31:01.124Z</time>
      </trkpt>
      <trkpt lat="27.592142" lon="86.623348">
        <ele>2772.17340032</ele>
        <time>2019-10-12T11:32:02.124Z</time>
      </trkpt>
      <trkpt lat="27.592455" lon="86.623449">
        <ele>2780.67339904</ele>
        <time>2019-10-12T11:33:07.124Z</time>
      </trkpt>
      <trkpt lat="27.592732" lon="86.623531">
        <ele>2786.47339904</ele>
        <time>2019-10-12T11:34:05.124Z</time>
      </trkpt>
      <trkpt lat="27.592939" lon="86.623421">
        <ele>2793</ele>
        <time>2019-10-12T11:35:04.124Z</time>
      </trkpt>
      <trkpt lat="27.59314" lon="86.623122">
        <ele>2797.37340032</ele>
        <time>2019-10-12T11:36:04.124Z</time>
      </trkpt>
      <trkpt lat="27.593479" lon="86.622787">
        <ele>2803</ele>
        <time>2019-10-12T11:37:02.124Z</time>
      </trkpt>
      <trkpt lat="27.593715" lon="86.622255">
        <ele>2804.27339904</ele>
        <time>2019-10-12T11:38:03.124Z</time>
      </trkpt>
      <trkpt lat="27.593794" lon="86.621828">
        <ele>2807.37340032</ele>
        <time>2019-10-12T11:39:04.124Z</time>
      </trkpt>
      <trkpt lat="27.593532" lon="86.621497">
        <ele>2815</ele>
        <time>2019-10-12T11:40:05.124Z</time>
      </trkpt>
      <trkpt lat="27.593499" lon="86.621316">
        <ele>2821.72660096</ele>
        <time>2019-10-12T11:41:03.124Z</time>
      </trkpt>
      <trkpt lat="27.593581" lon="86.62113">
        <ele>2823.14679808</ele>
        <time>2019-10-12T11:42:01.124Z</time>
      </trkpt>
      <trkpt lat="27.593733" lon="86.621108">
        <ele>2826.17340032</ele>
        <time>2019-10-12T11:43:02.124Z</time>
      </trkpt>
      <trkpt lat="27.593637" lon="86.621043">
        <ele>2827</ele>
        <time>2019-10-12T11:44:04.124Z</time>
      </trkpt>
      <trkpt lat="27.593929" lon="86.620886">
        <ele>2830.07332573773</ele>
        <time>2019-10-12T11:45:01.124Z</time>
      </trkpt>
      <trkpt lat="27.594098" lon="86.620823">
        <ele>2838.37340032</ele>
        <time>2019-10-12T11:46:04.124Z</time>
      </trkpt>
      <trkpt lat="27.59442" lon="86.620944">
        <ele>2844.37340032</ele>
        <time>2019-10-12T11:47:04.124Z</time>
      </trkpt>
      <trkpt lat="27.594537" lon="86.620934">
        <ele>2850</ele>
        <time>2019-10-12T11:48:02.124Z</time>
      </trkpt>
      <trkpt lat="27.594643" lon="86.620849">
        <ele>2853</ele>
        <time>2019-10-12T11:50:03.124Z</time>
      </trkpt>
      <trkpt lat="27.594784" lon="86.62083">
        <ele>2855</ele>
        <time>2019-10-12T11:58:43.124Z</time>
      </trkpt>
      <trkpt lat="27.594682" lon="86.620843">
        <ele>2855</ele>
        <time>2019-10-12T12:00:38.124Z</time>
      </trkpt>
      <trkpt lat="27.594715" lon="86.620728">
        <ele>2855</ele>
        <time>2019-10-12T12:04:04.124Z</time>
      </trkpt>
      <trkpt lat="27.594673" lon="86.620888">
        <ele>2855</ele>
        <time>2019-10-12T12:09:05.124Z</time>
      </trkpt>
      <trkpt lat="27.594792" lon="86.620622">
        <ele>2855</ele>
        <time>2019-10-12T12:13:03.124Z</time>
      </trkpt>
      <trkpt lat="27.594736" lon="86.620871">
        <ele>2855</ele>
        <time>2019-10-12T12:14:04.124Z</time>
      </trkpt>
      <trkpt lat="27.59466" lon="86.620703">
        <ele>2855</ele>
        <time>2019-10-12T12:17:05.124Z</time>
      </trkpt>
      <trkpt lat="27.59476" lon="86.620869">
        <ele>2855</ele>
        <time>2019-10-12T12:18:35.124Z</time>
      </trkpt>
      <trkpt lat="27.594849" lon="86.62081">
        <ele>2856</ele>
        <time>2019-10-12T12:25:55.124Z</time>
      </trkpt>
      <trkpt lat="27.594559" lon="86.620916">
        <ele>2856</ele>
        <time>2019-10-12T12:31:26.124Z</time>
      </trkpt>
      <trkpt lat="27.59478" lon="86.620883">
        <ele>2857</ele>
        <time>2019-10-12T12:32:11.124Z</time>
      </trkpt>
      <trkpt lat="27.594854" lon="86.620772">
        <ele>2857.52660096</ele>
        <time>2019-10-12T12:34:05.124Z</time>
      </trkpt>
      <trkpt lat="27.595288" lon="86.62077">
        <ele>2856.87339904</ele>
        <time>2019-10-12T12:35:09.124Z</time>
      </trkpt>
      <trkpt lat="27.594522" lon="86.62064">
        <ele>2856.27339904</ele>
        <time>2019-10-12T12:36:03.124Z</time>
      </trkpt>
      <trkpt lat="27.595057" lon="86.62085">
        <ele>2857</ele>
        <time>2019-10-12T12:37:03.124Z</time>
      </trkpt>
      <trkpt lat="27.594946" lon="86.620771">
        <ele>2857</ele>
        <time>2019-10-12T12:38:04.124Z</time>
      </trkpt>
      <trkpt lat="27.594775" lon="86.620818">
        <ele>2857</ele>
        <time>2019-10-12T12:39:04.124Z</time>
      </trkpt>
      <trkpt lat="27.594858" lon="86.620682">
        <ele>2857</ele>
        <time>2019-10-12T12:40:03.124Z</time>
      </trkpt>
      <trkpt lat="27.594765" lon="86.620726">
        <ele>2857</ele>
        <time>2019-10-12T12:42:04.124Z</time>
      </trkpt>
      <trkpt lat="27.594906" lon="86.620728">
        <ele>2857</ele>
        <time>2019-10-12T12:43:04.124Z</time>
      </trkpt>
      <trkpt lat="27.59461" lon="86.620762">
        <ele>2857</ele>
        <time>2019-10-12T12:44:04.124Z</time>
      </trkpt>
      <trkpt lat="27.595014" lon="86.620733">
        <ele>2857</ele>
        <time>2019-10-12T12:45:05.124Z</time>
      </trkpt>
      <trkpt lat="27.594674" lon="86.620584">
        <ele>2853.17340032</ele>
        <time>2019-10-12T12:46:02.124Z</time>
      </trkpt>
      <trkpt lat="27.594765" lon="86.620775">
        <ele>2855</ele>
        <time>2019-10-12T12:47:08.124Z</time>
      </trkpt>
      <trkpt lat="27.594971" lon="86.620699">
        <ele>2854.34679808</ele>
        <time>2019-10-12T12:49:07.124Z</time>
      </trkpt>
      <trkpt lat="27.594892" lon="86.6208">
        <ele>2854.14680064</ele>
        <time>2019-10-12T12:50:06.124Z</time>
      </trkpt>
      <trkpt lat="27.594716" lon="86.620799">
        <ele>2854</ele>
        <time>2019-10-12T12:52:04.124Z</time>
      </trkpt>
      <trkpt lat="27.594789" lon="86.620588">
        <ele>2856.17340032</ele>
        <time>2019-10-12T12:53:02.124Z</time>
      </trkpt>
      <trkpt lat="27.594823" lon="86.620171">
        <ele>2862.27339904</ele>
        <time>2019-10-12T12:54:03.124Z</time>
      </trkpt>
      <trkpt lat="27.594794" lon="86.620002">
        <ele>2868.37340032</ele>
        <time>2019-10-12T12:55:04.124Z</time>
      </trkpt>
      <trkpt lat="27.594565" lon="86.620033">
        <ele>2878</ele>
        <time>2019-10-12T12:56:07.124Z</time>
      </trkpt>
      <trkpt lat="27.594225" lon="86.619878">
        <ele>2882.27339904</ele>
        <time>2019-10-12T12:57:03.124Z</time>
      </trkpt>
      <trkpt lat="27.593903" lon="86.619735">
        <ele>2890</ele>
        <time>2019-10-12T12:58:03.124Z</time>
      </trkpt>
      <trkpt lat="27.593859" lon="86.619599">
        <ele>2898</ele>
        <time>2019-10-12T12:59:02.124Z</time>
      </trkpt>
      <trkpt lat="27.593648" lon="86.619298">
        <ele>2905</ele>
        <time>2019-10-12T13:00:04.124Z</time>
      </trkpt>
      <trkpt lat="27.593427" lon="86.619071">
        <ele>2911</ele>
        <time>2019-10-12T13:01:05.124Z</time>
      </trkpt>
      <trkpt lat="27.593138" lon="86.618805">
        <ele>2916.37340032</ele>
        <time>2019-10-12T13:02:04.124Z</time>
      </trkpt>
      <trkpt lat="27.592916" lon="86.618863">
        <ele>2921.72020096</ele>
        <time>2019-10-12T13:03:06.124Z</time>
      </trkpt>
      <trkpt lat="27.592776" lon="86.618712">
        <ele>2928.27339904</ele>
        <time>2019-10-12T13:04:03.124Z</time>
      </trkpt>
      <trkpt lat="27.592884" lon="86.618372">
        <ele>2936.94679808</ele>
        <time>2019-10-12T13:05:05.124Z</time>
      </trkpt>
      <trkpt lat="27.592578" lon="86.618247">
        <ele>2943.47339904</ele>
        <time>2019-10-12T13:06:05.124Z</time>
      </trkpt>
      <trkpt lat="27.592487" lon="86.617946">
        <ele>2950.27339904</ele>
        <time>2019-10-12T13:07:03.124Z</time>
      </trkpt>
      <trkpt lat="27.592305" lon="86.617616">
        <ele>2951</ele>
        <time>2019-10-12T13:09:04.124Z</time>
      </trkpt>
      <trkpt lat="27.592335" lon="86.6173">
        <ele>2951</ele>
        <time>2019-10-12T13:10:05.124Z</time>
      </trkpt>
      <trkpt lat="27.592239" lon="86.61725">
        <ele>2950.47292626507</ele>
        <time>2019-10-12T13:11:05.124Z</time>
      </trkpt>
      <trkpt lat="27.592008" lon="86.617145">
        <ele>2943</ele>
        <time>2019-10-12T13:13:05.124Z</time>
      </trkpt>
      <trkpt lat="27.592061" lon="86.616928">
        <ele>2936</ele>
        <time>2019-10-12T13:14:06.124Z</time>
      </trkpt>
      <trkpt lat="27.592431" lon="86.616719">
        <ele>2927.32660096</ele>
        <time>2019-10-12T13:15:07.124Z</time>
      </trkpt>
      <trkpt lat="27.592603" lon="86.616465">
        <ele>2916</ele>
        <time>2019-10-12T13:16:04.124Z</time>
      </trkpt>
      <trkpt lat="27.592344" lon="86.616153">
        <ele>2911.32660096</ele>
        <time>2019-10-12T13:17:07.124Z</time>
      </trkpt>
      <trkpt lat="27.592086" lon="86.61597">
        <ele>2902.52660096</ele>
        <time>2019-10-12T13:18:05.124Z</time>
      </trkpt>
      <trkpt lat="27.592274" lon="86.615607">
        <ele>2893.42659968</ele>
        <time>2019-10-12T13:19:06.124Z</time>
      </trkpt>
      <trkpt lat="27.592234" lon="86.615389">
        <ele>2885.05320192</ele>
        <time>2019-10-12T13:20:05.124Z</time>
      </trkpt>
      <trkpt lat="27.592212" lon="86.615128">
        <ele>2876.57980288</ele>
        <time>2019-10-12T13:21:05.124Z</time>
      </trkpt>
      <trkpt lat="27.591926" lon="86.614706">
        <ele>2872</ele>
        <time>2019-10-12T13:22:07.124Z</time>
      </trkpt>
      <trkpt lat="27.592144" lon="86.614335">
        <ele>2869</ele>
        <time>2019-10-12T13:23:05.124Z</time>
      </trkpt>
      <trkpt lat="27.591908" lon="86.613887">
        <ele>2863.42659968</ele>
        <time>2019-10-12T13:24:06.124Z</time>
      </trkpt>
      <trkpt lat="27.591674" lon="86.613668">
        <ele>2853.42659968</ele>
        <time>2019-10-12T13:25:06.124Z</time>
      </trkpt>
      <trkpt lat="27.591464" lon="86.613283">
        <ele>2846</ele>
        <time>2019-10-12T13:26:06.124Z</time>
      </trkpt>
      <trkpt lat="27.591189" lon="86.612965">
        <ele>2839.82659968</ele>
        <time>2019-10-12T13:27:12.124Z</time>
      </trkpt>
      <trkpt lat="27.59106" lon="86.612783">
        <ele>2832.85319936</ele>
        <time>2019-10-12T13:28:06.124Z</time>
      </trkpt>
      <trkpt lat="27.590641" lon="86.612495">
        <ele>2825.87339904</ele>
        <time>2019-10-12T13:29:09.124Z</time>
      </trkpt>
      <trkpt lat="27.590243" lon="86.61224">
        <ele>2818.42659968</ele>
        <time>2019-10-12T13:30:06.124Z</time>
      </trkpt>
      <trkpt lat="27.590382" lon="86.612003">
        <ele>2810</ele>
        <time>2019-10-12T13:31:06.124Z</time>
      </trkpt>
      <trkpt lat="27.590453" lon="86.611895">
        <ele>2806.05320192</ele>
        <time>2019-10-12T13:32:05.124Z</time>
      </trkpt>
      <trkpt lat="27.590827" lon="86.611626">
        <ele>2794.43460096</ele>
        <time>2019-10-12T13:33:08.217Z</time>
      </trkpt>
      <trkpt lat="27.591091" lon="86.611346">
        <ele>2785.42659968</ele>
        <time>2019-10-12T13:34:06.124Z</time>
      </trkpt>
      <trkpt lat="27.591362" lon="86.611017">
        <ele>2775.57980288</ele>
        <time>2019-10-12T13:35:05.124Z</time>
      </trkpt>
      <trkpt lat="27.591194" lon="86.610817">
        <ele>2766.52660096</ele>
        <time>2019-10-12T13:36:05.124Z</time>
      </trkpt>
      <trkpt lat="27.591496" lon="86.610661">
        <ele>2757</ele>
        <time>2019-10-12T13:37:05.124Z</time>
      </trkpt>
      <trkpt lat="27.591269" lon="86.610381">
        <ele>2747.62722670599</ele>
        <time>2019-10-12T13:38:04.124Z</time>
      </trkpt>
      <trkpt lat="27.591412" lon="86.609993">
        <ele>2742</ele>
        <time>2019-10-12T13:39:05.124Z</time>
      </trkpt>
      <trkpt lat="27.591087" lon="86.609584">
        <ele>2734.52660096</ele>
        <time>2019-10-12T13:41:05.124Z</time>
      </trkpt>
      <trkpt lat="27.590821" lon="86.609435">
        <ele>2729.52660096</ele>
        <time>2019-10-12T13:42:05.124Z</time>
      </trkpt>
      <trkpt lat="27.590668" lon="86.608865">
        <ele>2725.42659968</ele>
        <time>2019-10-12T13:43:06.124Z</time>
      </trkpt>
      <trkpt lat="27.59025" lon="86.608585">
        <ele>2719</ele>
        <time>2019-10-12T13:44:05.124Z</time>
      </trkpt>
      <trkpt lat="27.589921" lon="86.608348">
        <ele>2709.25319936</ele>
        <time>2019-10-12T13:45:04.124Z</time>
      </trkpt>
      <trkpt lat="27.589924" lon="86.607932">
        <ele>2700</ele>
        <time>2019-10-12T13:46:05.124Z</time>
      </trkpt>
      <trkpt lat="27.589456" lon="86.607552">
        <ele>2692.72660096</ele>
        <time>2019-10-12T13:47:03.124Z</time>
      </trkpt>
      <trkpt lat="27.58904" lon="86.607193">
        <ele>2689.52660096</ele>
        <time>2019-10-12T13:48:05.124Z</time>
      </trkpt>
      <trkpt lat="27.588954" lon="86.606788">
        <ele>2683</ele>
        <time>2019-10-12T13:49:03.124Z</time>
      </trkpt>
      <trkpt lat="27.588784" lon="86.60646">
        <ele>2676.82659968</ele>
        <time>2019-10-12T13:50:02.124Z</time>
      </trkpt>
      <trkpt lat="27.588676" lon="86.606178">
        <ele>2671</ele>
        <time>2019-10-12T13:51:05.124Z</time>
      </trkpt>
      <trkpt lat="27.588171" lon="86.605785">
        <ele>2660</ele>
        <time>2019-10-12T13:52:05.124Z</time>
      </trkpt>
      <trkpt lat="27.587903" lon="86.605263">
        <ele>2651</ele>
        <time>2019-10-12T13:53:02.124Z</time>
      </trkpt>
      <trkpt lat="27.587698" lon="86.604646">
        <ele>2645</ele>
        <time>2019-10-12T13:54:04.124Z</time>
      </trkpt>
      <trkpt lat="27.587512" lon="86.604367">
        <ele>2645</ele>
        <time>2019-10-12T13:55:05.124Z</time>
      </trkpt>
      <trkpt lat="27.587574" lon="86.604214">
        <ele>2640.27339904</ele>
        <time>2019-10-12T13:56:03.124Z</time>
      </trkpt>
      <trkpt lat="27.58821" lon="86.602902">
        <ele>2585.94740224</ele>
        <time>2019-10-13T05:40:08.803Z</time>
      </trkpt>
      <trkpt lat="27.588288" lon="86.602509">
        <ele>2579</ele>
        <time>2019-10-13T05:41:27.803Z</time>
      </trkpt>
      <trkpt lat="27.588498" lon="86.601944">
        <ele>2565.74740224</ele>
        <time>2019-10-13T05:42:34.803Z</time>
      </trkpt>
      <trkpt lat="27.588771" lon="86.601602">
        <ele>2551</ele>
        <time>2019-10-13T05:43:54.803Z</time>
      </trkpt>
      <trkpt lat="27.588642" lon="86.601329">
        <ele>2536.47370112</ele>
        <time>2019-10-13T05:45:03.803Z</time>
      </trkpt>
      <trkpt lat="27.588518" lon="86.601095">
        <ele>2521.69480448</ele>
        <time>2019-10-13T05:46:11.803Z</time>
      </trkpt>
      <trkpt lat="27.588378" lon="86.600757">
        <ele>2510</ele>
        <time>2019-10-13T05:47:14.803Z</time>
      </trkpt>
      <trkpt lat="27.588887" lon="86.600451">
        <ele>2497.54740224</ele>
        <time>2019-10-13T05:48:20.803Z</time>
      </trkpt>
      <trkpt lat="27.58912" lon="86.599961">
        <ele>2493</ele>
        <time>2019-10-13T05:49:26.803Z</time>
      </trkpt>
      <trkpt lat="27.589271" lon="86.59968">
        <ele>2498.05259776</ele>
        <time>2019-10-13T05:50:38.803Z</time>
      </trkpt>
      <trkpt lat="27.58956" lon="86.599225">
        <ele>2505.02629888</ele>
        <time>2019-10-13T05:51:48.803Z</time>
      </trkpt>
      <trkpt lat="27.589995" lon="86.598914">
        <ele>2511.42629888</ele>
        <time>2019-10-13T05:52:52.803Z</time>
      </trkpt>
      <trkpt lat="27.590404" lon="86.598409">
        <ele>2514</ele>
        <time>2019-10-13T05:53:53.803Z</time>
      </trkpt>
      <trkpt lat="27.590422" lon="86.598217">
        <ele>2518.02629888</ele>
        <time>2019-10-13T05:54:38.803Z</time>
      </trkpt>
      <trkpt lat="27.590249" lon="86.598124">
        <ele>2525</ele>
        <time>2019-10-13T05:55:23.803Z</time>
      </trkpt>
      <trkpt lat="27.58995" lon="86.598226">
        <ele>2536.92629888</ele>
        <time>2019-10-13T05:56:47.803Z</time>
      </trkpt>
      <trkpt lat="27.589714" lon="86.598112">
        <ele>2542.42629888</ele>
        <time>2019-10-13T05:57:32.803Z</time>
      </trkpt>
      <trkpt lat="27.59004" lon="86.597519">
        <ele>2544.52629888</ele>
        <time>2019-10-13T05:58:53.803Z</time>
      </trkpt>
      <trkpt lat="27.590221" lon="86.596954">
        <ele>2543</ele>
        <time>2019-10-13T05:59:53.803Z</time>
      </trkpt>
      <trkpt lat="27.590201" lon="86.59655">
        <ele>2542.47370112</ele>
        <time>2019-10-13T06:00:53.803Z</time>
      </trkpt>
      <trkpt lat="27.590112" lon="86.595995">
        <ele>2537.02629888</ele>
        <time>2019-10-13T06:01:38.803Z</time>
      </trkpt>
      <trkpt lat="27.590178" lon="86.595457">
        <ele>2540</ele>
        <time>2019-10-13T06:02:23.803Z</time>
      </trkpt>
      <trkpt lat="27.589814" lon="86.595605">
        <ele>2545.50519552</ele>
        <time>2019-10-13T06:03:14.803Z</time>
      </trkpt>
      <trkpt lat="27.589711" lon="86.595727">
        <ele>2553.72629888</ele>
        <time>2019-10-13T06:04:15.803Z</time>
      </trkpt>
      <trkpt lat="27.589478" lon="86.596236">
        <ele>2561.42629888</ele>
        <time>2019-10-13T06:05:12.803Z</time>
      </trkpt>
      <trkpt lat="27.589366" lon="86.596182">
        <ele>2570.25259776</ele>
        <time>2019-10-13T06:06:14.803Z</time>
      </trkpt>
      <trkpt lat="27.58913" lon="86.596124">
        <ele>2579</ele>
        <time>2019-10-13T06:07:15.803Z</time>
      </trkpt>
      <trkpt lat="27.588916" lon="86.595846">
        <ele>2587.38359808</ele>
        <time>2019-10-13T06:08:23.152Z</time>
      </trkpt>
      <trkpt lat="27.588561" lon="86.595852">
        <ele>2592.72629888</ele>
        <time>2019-10-13T06:09:15.803Z</time>
      </trkpt>
      <trkpt lat="27.588499" lon="86.595756">
        <ele>2597</ele>
        <time>2019-10-13T06:10:11.803Z</time>
      </trkpt>
      <trkpt lat="27.588168" lon="86.595235">
        <ele>2607.86183795783</ele>
        <time>2019-10-13T06:15:37.167Z</time>
      </trkpt>
      <trkpt lat="27.587752" lon="86.595068">
        <ele>2611</ele>
        <time>2019-10-13T06:16:21.803Z</time>
      </trkpt>
      <trkpt lat="27.587294" lon="86.594746">
        <ele>2614</ele>
        <time>2019-10-13T06:17:32.803Z</time>
      </trkpt>
      <trkpt lat="27.587059" lon="86.594657">
        <ele>2620.92629888</ele>
        <time>2019-10-13T06:18:17.803Z</time>
      </trkpt>
      <trkpt lat="27.586827" lon="86.594359">
        <ele>2623</ele>
        <time>2019-10-13T06:19:12.803Z</time>
      </trkpt>
      <trkpt lat="27.586378" lon="86.593982">
        <ele>2622.62629888</ele>
        <time>2019-10-13T06:20:14.803Z</time>
      </trkpt>
      <trkpt lat="27.585712" lon="86.59399">
        <ele>2623</ele>
        <time>2019-10-13T06:21:15.803Z</time>
      </trkpt>
      <trkpt lat="27.585578" lon="86.593799">
        <ele>2626.17889664</ele>
        <time>2019-10-13T06:22:15.803Z</time>
      </trkpt>
      <trkpt lat="27.585329" lon="86.594031">
        <ele>2634.32629888</ele>
        <time>2019-10-13T06:23:11.803Z</time>
      </trkpt>
      <trkpt lat="27.585051" lon="86.59417">
        <ele>2644</ele>
        <time>2019-10-13T06:24:12.803Z</time>
      </trkpt>
      <trkpt lat="27.584836" lon="86.594065">
        <ele>2651</ele>
        <time>2019-10-13T06:25:14.803Z</time>
      </trkpt>
      <trkpt lat="27.584514" lon="86.59358">
        <ele>2658.42629888</ele>
        <time>2019-10-13T06:26:22.803Z</time>
      </trkpt>
      <trkpt lat="27.584306" lon="86.593289">
        <ele>2661.52629888</ele>
        <time>2019-10-13T06:27:13.803Z</time>
      </trkpt>
      <trkpt lat="27.583951" lon="86.593385">
        <ele>2667.85259776</ele>
        <time>2019-10-13T06:28:17.803Z</time>
      </trkpt>
      <trkpt lat="27.583597" lon="86.593422">
        <ele>2673</ele>
        <time>2019-10-13T06:29:12.803Z</time>
      </trkpt>
      <trkpt lat="27.583362" lon="86.593887">
        <ele>2681.32629888</ele>
        <time>2019-10-13T06:30:11.803Z</time>
      </trkpt>
      <trkpt lat="27.582976" lon="86.59376">
        <ele>2687.05259776</ele>
        <time>2019-10-13T06:31:13.803Z</time>
      </trkpt>
      <trkpt lat="27.58277" lon="86.593823">
        <ele>2694</ele>
        <time>2019-10-13T06:32:12.803Z</time>
      </trkpt>
      <trkpt lat="27.582581" lon="86.593863">
        <ele>2696.25259776</ele>
        <time>2019-10-13T06:33:14.803Z</time>
      </trkpt>
      <trkpt lat="27.582158" lon="86.594083">
        <ele>2704</ele>
        <time>2019-10-13T06:34:14.803Z</time>
      </trkpt>
      <trkpt lat="27.582015" lon="86.59428">
        <ele>2708</ele>
        <time>2019-10-13T06:35:12.803Z</time>
      </trkpt>
      <trkpt lat="27.58147" lon="86.593886">
        <ele>2710</ele>
        <time>2019-10-13T06:36:14.803Z</time>
      </trkpt>
      <trkpt lat="27.581365" lon="86.593457">
        <ele>2715.45259776</ele>
        <time>2019-10-13T06:37:15.803Z</time>
      </trkpt>
      <trkpt lat="27.580957" lon="86.59298">
        <ele>2716</ele>
        <time>2019-10-13T06:38:16.803Z</time>
      </trkpt>
      <trkpt lat="27.580679" lon="86.592813">
        <ele>2719.32629888</ele>
        <time>2019-10-13T06:39:11.803Z</time>
      </trkpt>
      <trkpt lat="27.580424" lon="86.592419">
        <ele>2721.25259776</ele>
        <time>2019-10-13T06:41:14.803Z</time>
      </trkpt>
      <trkpt lat="27.580027" lon="86.591942">
        <ele>2727.25259776</ele>
        <time>2019-10-13T06:42:14.803Z</time>
      </trkpt>
      <trkpt lat="27.579618" lon="86.591772">
        <ele>2734.45259776</ele>
        <time>2019-10-13T06:43:15.803Z</time>
      </trkpt>
      <trkpt lat="27.579204" lon="86.591698">
        <ele>2741.25259776</ele>
        <time>2019-10-13T06:44:14.803Z</time>
      </trkpt>
      <trkpt lat="27.578805" lon="86.591617">
        <ele>2749</ele>
        <time>2019-10-13T06:45:12.803Z</time>
      </trkpt>
      <trkpt lat="27.578466" lon="86.591453">
        <ele>2755.52629888</ele>
        <time>2019-10-13T06:46:13.803Z</time>
      </trkpt>
      <trkpt lat="27.57828" lon="86.590987">
        <ele>2759.62592492463</ele>
        <time>2019-10-13T06:47:14.803Z</time>
      </trkpt>
      <trkpt lat="27.578343" lon="86.590272">
        <ele>2763.87889664</ele>
        <time>2019-10-13T06:48:14.803Z</time>
      </trkpt>
      <trkpt lat="27.577893" lon="86.589966">
        <ele>2767.62629888</ele>
        <time>2019-10-13T06:49:14.803Z</time>
      </trkpt>
      <trkpt lat="27.577901" lon="86.589381">
        <ele>2774</ele>
        <time>2019-10-13T06:50:14.803Z</time>
      </trkpt>
      <trkpt lat="27.57789" lon="86.588945">
        <ele>2782.17889664</ele>
        <time>2019-10-13T06:51:15.803Z</time>
      </trkpt>
      <trkpt lat="27.577518" lon="86.588545">
        <ele>2787</ele>
        <time>2019-10-13T06:52:16.803Z</time>
      </trkpt>
      <trkpt lat="27.577274" lon="86.588211">
        <ele>2794</ele>
        <time>2019-10-13T06:53:14.803Z</time>
      </trkpt>
      <trkpt lat="27.576945" lon="86.587658">
        <ele>2798.72602499266</ele>
        <time>2019-10-13T06:54:15.803Z</time>
      </trkpt>
      <trkpt lat="27.57656" lon="86.587375">
        <ele>2804.25259776</ele>
        <time>2019-10-13T06:55:14.803Z</time>
      </trkpt>
      <trkpt lat="27.576309" lon="86.586826">
        <ele>2803</ele>
        <time>2019-10-13T06:56:12.803Z</time>
      </trkpt>
      <trkpt lat="27.575947" lon="86.586289">
        <ele>2804</ele>
        <time>2019-10-13T06:57:15.803Z</time>
      </trkpt>
      <trkpt lat="27.575289" lon="86.586082">
        <ele>2803</ele>
        <time>2019-10-13T06:58:12.803Z</time>
      </trkpt>
      <trkpt lat="27.575187" lon="86.586239">
        <ele>2805</ele>
        <time>2019-10-13T06:59:14.803Z</time>
      </trkpt>
      <trkpt lat="27.574859" lon="86.585858">
        <ele>2812.45259776</ele>
        <time>2019-10-13T07:00:15.803Z</time>
      </trkpt>
      <trkpt lat="27.574532" lon="86.58544">
        <ele>2819</ele>
        <time>2019-10-13T07:01:15.803Z</time>
      </trkpt>
      <trkpt lat="27.57423" lon="86.584965">
        <ele>2820.62629888</ele>
        <time>2019-10-13T07:02:14.803Z</time>
      </trkpt>
      <trkpt lat="27.573958" lon="86.585132">
        <ele>2822</ele>
        <time>2019-10-13T07:03:13.803Z</time>
      </trkpt>
      <trkpt lat="27.574086" lon="86.585141">
        <ele>2820.72629888</ele>
        <time>2019-10-13T07:04:15.803Z</time>
      </trkpt>
      <trkpt lat="27.574024" lon="86.584972">
        <ele>2827.62592492463</ele>
        <time>2019-10-13T07:05:14.803Z</time>
      </trkpt>
      <trkpt lat="27.573851" lon="86.58477">
        <ele>2833</ele>
        <time>2019-10-13T07:06:12.803Z</time>
      </trkpt>
      <trkpt lat="27.573591" lon="86.584649">
        <ele>2838</ele>
        <time>2019-10-13T07:07:13.803Z</time>
      </trkpt>
      <trkpt lat="27.573275" lon="86.584514">
        <ele>2840.52629888</ele>
        <time>2019-10-13T07:08:13.803Z</time>
      </trkpt>
      <trkpt lat="27.572915" lon="86.584629">
        <ele>2845.42629888</ele>
        <time>2019-10-13T07:09:12.803Z</time>
      </trkpt>
      <trkpt lat="27.572606" lon="86.584728">
        <ele>2851.42629888</ele>
        <time>2019-10-13T07:10:12.803Z</time>
      </trkpt>
      <trkpt lat="27.572431" lon="86.584498">
        <ele>2850.72629888</ele>
        <time>2019-10-13T07:12:15.803Z</time>
      </trkpt>
      <trkpt lat="27.572086" lon="86.584198">
        <ele>2853</ele>
        <time>2019-10-13T07:13:14.803Z</time>
      </trkpt>
      <trkpt lat="27.571868" lon="86.584067">
        <ele>2851.42629888</ele>
        <time>2019-10-13T07:14:12.803Z</time>
      </trkpt>
      <trkpt lat="27.571438" lon="86.583622">
        <ele>2853</ele>
        <time>2019-10-13T07:15:14.803Z</time>
      </trkpt>
      <trkpt lat="27.570938" lon="86.583482">
        <ele>2859.05259776</ele>
        <time>2019-10-13T07:16:13.803Z</time>
      </trkpt>
      <trkpt lat="27.570197" lon="86.583476">
        <ele>2860</ele>
        <time>2019-10-13T07:17:16.803Z</time>
      </trkpt>
      <trkpt lat="27.56956" lon="86.58351">
        <ele>2862.52629888</ele>
        <time>2019-10-13T07:18:13.803Z</time>
      </trkpt>
      <trkpt lat="27.569065" lon="86.583138">
        <ele>2868</ele>
        <time>2019-10-13T07:19:13.803Z</time>
      </trkpt>
      <trkpt lat="27.568718" lon="86.582607">
        <ele>2869</ele>
        <time>2019-10-13T07:20:12.803Z</time>
      </trkpt>
      <trkpt lat="27.568263" lon="86.582396">
        <ele>2871</ele>
        <time>2019-10-13T07:21:12.803Z</time>
      </trkpt>
      <trkpt lat="27.568309" lon="86.582518">
        <ele>2871</ele>
        <time>2019-10-13T07:22:13.803Z</time>
      </trkpt>
      <trkpt lat="27.568192" lon="86.582421">
        <ele>2871</ele>
        <time>2019-10-13T07:23:12.803Z</time>
      </trkpt>
      <trkpt lat="27.568285" lon="86.582486">
        <ele>2871</ele>
        <time>2019-10-13T07:24:12.803Z</time>
      </trkpt>
      <trkpt lat="27.56822" lon="86.5824">
        <ele>2871</ele>
        <time>2019-10-13T07:26:12.803Z</time>
      </trkpt>
      <trkpt lat="27.568314" lon="86.582052">
        <ele>2869</ele>
        <time>2019-10-13T07:28:13.803Z</time>
      </trkpt>
      <trkpt lat="27.56818" lon="86.581193">
        <ele>2867</ele>
        <time>2019-10-13T07:29:15.803Z</time>
      </trkpt>
      <trkpt lat="27.567922" lon="86.580495">
        <ele>2869</ele>
        <time>2019-10-13T07:30:14.803Z</time>
      </trkpt>
      <trkpt lat="27.567994" lon="86.580218">
        <ele>2876.42629888</ele>
        <time>2019-10-13T07:31:12.803Z</time>
      </trkpt>
      <trkpt lat="27.567787" lon="86.579909">
        <ele>2883</ele>
        <time>2019-10-13T07:32:12.803Z</time>
      </trkpt>
      <trkpt lat="27.567815" lon="86.579343">
        <ele>2889</ele>
        <time>2019-10-13T07:33:15.803Z</time>
      </trkpt>
      <trkpt lat="27.56794" lon="86.578908">
        <ele>2892.25259776</ele>
        <time>2019-10-13T07:34:14.803Z</time>
      </trkpt>
      <trkpt lat="27.567679" lon="86.578498">
        <ele>2890.37370112</ele>
        <time>2019-10-13T07:35:14.803Z</time>
      </trkpt>
      <trkpt lat="27.5673" lon="86.578063">
        <ele>2889.12110336</ele>
        <time>2019-10-13T07:36:14.803Z</time>
      </trkpt>
      <trkpt lat="27.566943" lon="86.57818">
        <ele>2892</ele>
        <time>2019-10-13T07:37:12.803Z</time>
      </trkpt>
      <trkpt lat="27.566458" lon="86.578217">
        <ele>2899</ele>
        <time>2019-10-13T07:38:13.803Z</time>
      </trkpt>
      <trkpt lat="27.566059" lon="86.578436">
        <ele>2902.42629888</ele>
        <time>2019-10-13T07:39:12.803Z</time>
      </trkpt>
      <trkpt lat="27.565629" lon="86.578006">
        <ele>2902</ele>
        <time>2019-10-13T07:40:15.803Z</time>
      </trkpt>
      <trkpt lat="27.565433" lon="86.57737">
        <ele>2896.50519552</ele>
        <time>2019-10-13T07:41:14.803Z</time>
      </trkpt>
      <trkpt lat="27.565028" lon="86.576754">
        <ele>2895</ele>
        <time>2019-10-13T07:42:15.803Z</time>
      </trkpt>
      <trkpt lat="27.564527" lon="86.576488">
        <ele>2891.37370112</ele>
        <time>2019-10-13T07:43:14.803Z</time>
      </trkpt>
      <trkpt lat="27.563833" lon="86.576342">
        <ele>2888</ele>
        <time>2019-10-13T07:44:12.803Z</time>
      </trkpt>
      <trkpt lat="27.563617" lon="86.576432">
        <ele>2887</ele>
        <time>2019-10-13T07:45:12.803Z</time>
      </trkpt>
      <trkpt lat="27.563513" lon="86.57595">
        <ele>2884</ele>
        <time>2019-10-13T07:47:15.803Z</time>
      </trkpt>
      <trkpt lat="27.563564" lon="86.575446">
        <ele>2870.12110336</ele>
        <time>2019-10-13T07:48:14.803Z</time>
      </trkpt>
      <trkpt lat="27.5635" lon="86.574807">
        <ele>2863.47370112</ele>
        <time>2019-10-13T07:49:13.803Z</time>
      </trkpt>
      <trkpt lat="27.563579" lon="86.574138">
        <ele>2855</ele>
        <time>2019-10-13T07:50:12.803Z</time>
      </trkpt>
      <trkpt lat="27.563894" lon="86.573526">
        <ele>2851</ele>
        <time>2019-10-13T07:51:15.803Z</time>
      </trkpt>
      <trkpt lat="27.56425" lon="86.573274">
        <ele>2852</ele>
        <time>2019-10-13T07:52:13.803Z</time>
      </trkpt>
      <trkpt lat="27.564669" lon="86.572711">
        <ele>2845.57370112</ele>
        <time>2019-10-13T07:53:12.803Z</time>
      </trkpt>
      <trkpt lat="27.565058" lon="86.572191">
        <ele>2838.62629888</ele>
        <time>2019-10-13T07:54:14.803Z</time>
      </trkpt>
      <trkpt lat="27.565348" lon="86.5715">
        <ele>2838</ele>
        <time>2019-10-13T07:55:14.803Z</time>
      </trkpt>
      <trkpt lat="27.565464" lon="86.570895">
        <ele>2832</ele>
        <time>2019-10-13T07:56:13.803Z</time>
      </trkpt>
      <trkpt lat="27.565494" lon="86.570111">
        <ele>2835</ele>
        <time>2019-10-13T07:57:13.803Z</time>
      </trkpt>
      <trkpt lat="27.565732" lon="86.569592">
        <ele>2826.74740224</ele>
        <time>2019-10-13T07:58:14.803Z</time>
      </trkpt>
      <trkpt lat="27.565984" lon="86.568823">
        <ele>2815.47370112</ele>
        <time>2019-10-13T07:59:13.803Z</time>
      </trkpt>
      <trkpt lat="27.565459" lon="86.568278">
        <ele>2814</ele>
        <time>2019-10-13T08:00:14.803Z</time>
      </trkpt>
      <trkpt lat="27.56518" lon="86.567622">
        <ele>2809</ele>
        <time>2019-10-13T08:01:12.803Z</time>
      </trkpt>
      <trkpt lat="27.564913" lon="86.566902">
        <ele>2806</ele>
        <time>2019-10-13T08:02:12.803Z</time>
      </trkpt>
      <trkpt lat="27.565277" lon="86.566317">
        <ele>2798.27370112</ele>
        <time>2019-10-13T08:03:15.803Z</time>
      </trkpt>
      <trkpt lat="27.56581" lon="86.565741">
        <ele>2792</ele>
        <time>2019-10-13T08:04:12.803Z</time>
      </trkpt>
      <trkpt lat="27.566478" lon="86.565208">
        <ele>2790</ele>
        <time>2019-10-13T08:05:12.803Z</time>
      </trkpt>
      <trkpt lat="27.567157" lon="86.564976">
        <ele>2792</ele>
        <time>2019-10-13T08:06:14.803Z</time>
      </trkpt>
      <trkpt lat="27.567509" lon="86.564615">
        <ele>2798.62629888</ele>
        <time>2019-10-13T08:07:14.803Z</time>
      </trkpt>
      <trkpt lat="27.568078" lon="86.56435">
        <ele>2803.62629888</ele>
        <time>2019-10-13T08:08:24.803Z</time>
      </trkpt>
      <trkpt lat="27.568206" lon="86.564004">
        <ele>2808.72557353864</ele>
        <time>2019-10-13T08:09:15.803Z</time>
      </trkpt>
      <trkpt lat="27.568373" lon="86.563428">
        <ele>2811.54740224</ele>
        <time>2019-10-13T08:10:15.803Z</time>
      </trkpt>
      <trkpt lat="27.568876" lon="86.562878">
        <ele>2808.62629888</ele>
        <time>2019-10-13T08:11:14.803Z</time>
      </trkpt>
      <trkpt lat="27.569566" lon="86.562609">
        <ele>2807</ele>
        <time>2019-10-13T08:12:14.803Z</time>
      </trkpt>
      <trkpt lat="27.570168" lon="86.562422">
        <ele>2807.27370112</ele>
        <time>2019-10-13T08:13:15.803Z</time>
      </trkpt>
      <trkpt lat="27.570728" lon="86.562298">
        <ele>2804.62629888</ele>
        <time>2019-10-13T08:14:14.803Z</time>
      </trkpt>
      <trkpt lat="27.571295" lon="86.562143">
        <ele>2802</ele>
        <time>2019-10-13T08:15:13.803Z</time>
      </trkpt>
      <trkpt lat="27.571835" lon="86.561773">
        <ele>2794</ele>
        <time>2019-10-13T08:16:15.803Z</time>
      </trkpt>
      <trkpt lat="27.572216" lon="86.561208">
        <ele>2781.0780032</ele>
        <time>2019-10-13T08:17:28.345Z</time>
      </trkpt>
      <trkpt lat="27.572297" lon="86.56073">
        <ele>2777</ele>
        <time>2019-10-13T08:18:12.803Z</time>
      </trkpt>
      <trkpt lat="27.572665" lon="86.560163">
        <ele>2769.27370112</ele>
        <time>2019-10-13T08:19:15.803Z</time>
      </trkpt>
      <trkpt lat="27.572587" lon="86.559883">
        <ele>2761</ele>
        <time>2019-10-13T08:20:17.332Z</time>
      </trkpt>
      <trkpt lat="27.572697" lon="86.559604">
        <ele>2758.37370112</ele>
        <time>2019-10-13T08:21:14.803Z</time>
      </trkpt>
      <trkpt lat="27.57274" lon="86.558928">
        <ele>2753</ele>
        <time>2019-10-13T08:22:14.803Z</time>
      </trkpt>
      <trkpt lat="27.572534" lon="86.558134">
        <ele>2749.47370112</ele>
        <time>2019-10-13T08:23:13.803Z</time>
      </trkpt>
      <trkpt lat="27.572698" lon="86.557235">
        <ele>2748</ele>
        <time>2019-10-13T08:24:15.803Z</time>
      </trkpt>
      <trkpt lat="27.572915" lon="86.556726">
        <ele>2742.07370112</ele>
        <time>2019-10-13T08:25:17.803Z</time>
      </trkpt>
      <trkpt lat="27.573563" lon="86.556171">
        <ele>2732.97370112</ele>
        <time>2019-10-13T08:26:18.803Z</time>
      </trkpt>
      <trkpt lat="27.573929" lon="86.555832">
        <ele>2722.27370112</ele>
        <time>2019-10-13T08:27:15.803Z</time>
      </trkpt>
      <trkpt lat="27.574775" lon="86.55566">
        <ele>2710.27370112</ele>
        <time>2019-10-13T08:28:15.803Z</time>
      </trkpt>
      <trkpt lat="27.575264" lon="86.555768">
        <ele>2700</ele>
        <time>2019-10-13T08:29:15.803Z</time>
      </trkpt>
      <trkpt lat="27.575742" lon="86.555425">
        <ele>2693.37370112</ele>
        <time>2019-10-13T08:30:14.803Z</time>
      </trkpt>
      <trkpt lat="27.576124" lon="86.554743">
        <ele>2686</ele>
        <time>2019-10-13T08:31:14.803Z</time>
      </trkpt>
      <trkpt lat="27.576505" lon="86.554236">
        <ele>2681</ele>
        <time>2019-10-13T08:32:14.803Z</time>
      </trkpt>
      <trkpt lat="27.577098" lon="86.553788">
        <ele>2674</ele>
        <time>2019-10-13T08:33:14.803Z</time>
      </trkpt>
      <trkpt lat="27.577643" lon="86.553375">
        <ele>2664.47370112</ele>
        <time>2019-10-13T08:34:13.803Z</time>
      </trkpt>
      <trkpt lat="27.577887" lon="86.552826">
        <ele>2653.37370112</ele>
        <time>2019-10-13T08:35:14.803Z</time>
      </trkpt>
      <trkpt lat="27.578241" lon="86.552491">
        <ele>2645</ele>
        <time>2019-10-13T08:36:14.803Z</time>
      </trkpt>
      <trkpt lat="27.578576" lon="86.552042">
        <ele>2638.47370112</ele>
        <time>2019-10-13T08:37:13.803Z</time>
      </trkpt>
      <trkpt lat="27.578837" lon="86.551517">
        <ele>2627.27370112</ele>
        <time>2019-10-13T08:38:15.803Z</time>
      </trkpt>
      <trkpt lat="27.579197" lon="86.551201">
        <ele>2614.27370112</ele>
        <time>2019-10-13T08:39:15.803Z</time>
      </trkpt>
      <trkpt lat="27.579473" lon="86.55097">
        <ele>2604</ele>
        <time>2019-10-13T08:40:15.803Z</time>
      </trkpt>
      <trkpt lat="27.579458" lon="86.550451">
        <ele>2595.87370112</ele>
        <time>2019-10-13T08:41:19.803Z</time>
      </trkpt>
      <trkpt lat="27.579594" lon="86.550123">
        <ele>2588.27370112</ele>
        <time>2019-10-13T08:42:15.803Z</time>
      </trkpt>
      <trkpt lat="27.579822" lon="86.549737">
        <ele>2578.27370112</ele>
        <time>2019-10-13T08:43:15.803Z</time>
      </trkpt>
      <trkpt lat="27.580154" lon="86.549303">
        <ele>2564.54740224</ele>
        <time>2019-10-13T08:44:15.803Z</time>
      </trkpt>
      <trkpt lat="27.580555" lon="86.549225">
        <ele>2553.92110336</ele>
        <time>2019-10-13T08:45:18.803Z</time>
      </trkpt>
      <trkpt lat="27.580545" lon="86.54898">
        <ele>2552</ele>
        <time>2019-10-13T08:46:15.803Z</time>
      </trkpt>
      <trkpt lat="27.580883" lon="86.548411">
        <ele>2532.27370112</ele>
        <time>2019-10-13T08:48:15.803Z</time>
      </trkpt>
      <trkpt lat="27.581194" lon="86.548273">
        <ele>2529.82629888</ele>
        <time>2019-10-13T08:49:16.803Z</time>
      </trkpt>
      <trkpt lat="27.581145" lon="86.54796">
        <ele>2531</ele>
        <time>2019-10-13T08:50:16.803Z</time>
      </trkpt>
      <trkpt lat="27.580807" lon="86.547651">
        <ele>2536.02629888</ele>
        <time>2019-10-13T08:51:18.803Z</time>
      </trkpt>
      <trkpt lat="27.581025" lon="86.547553">
        <ele>2542</ele>
        <time>2019-10-13T08:52:16.803Z</time>
      </trkpt>
      <trkpt lat="27.581181" lon="86.547565">
        <ele>2547</ele>
        <time>2019-10-13T08:53:16.803Z</time>
      </trkpt>
      <trkpt lat="27.58123" lon="86.547442">
        <ele>2550</ele>
        <time>2019-10-13T08:54:17.803Z</time>
      </trkpt>
      <trkpt lat="27.58138" lon="86.547405">
        <ele>2550.82629888</ele>
        <time>2019-10-13T08:58:16.803Z</time>
      </trkpt>
      <trkpt lat="27.581672" lon="86.547135">
        <ele>2552.22629888</ele>
        <time>2019-10-13T09:01:20.803Z</time>
      </trkpt>
      <trkpt lat="27.581627" lon="86.547255">
        <ele>2553.12629888</ele>
        <time>2019-10-13T09:02:19.803Z</time>
      </trkpt>
      <trkpt lat="27.581446" lon="86.547338">
        <ele>2552</ele>
        <time>2019-10-13T09:04:41.803Z</time>
      </trkpt>
      <trkpt lat="27.581622" lon="86.547182">
        <ele>2552.52629888</ele>
        <time>2019-10-13T09:05:53.803Z</time>
      </trkpt>
      <trkpt lat="27.581358" lon="86.547235">
        <ele>2552</ele>
        <time>2019-10-13T09:12:28.803Z</time>
      </trkpt>
      <trkpt lat="27.581522" lon="86.547258">
        <ele>2552</ele>
        <time>2019-10-13T09:13:22.803Z</time>
      </trkpt>
      <trkpt lat="27.581663" lon="86.547266">
        <ele>2552</ele>
        <time>2019-10-13T09:15:13.803Z</time>
      </trkpt>
      <trkpt lat="27.581828" lon="86.547036">
        <ele>2552</ele>
        <time>2019-10-13T09:16:12.803Z</time>
      </trkpt>
      <trkpt lat="27.58148" lon="86.546744">
        <ele>2552</ele>
        <time>2019-10-13T09:17:15.803Z</time>
      </trkpt>
      <trkpt lat="27.581009" lon="86.546128">
        <ele>2568.2253975782</ele>
        <time>2019-10-13T09:19:50.803Z</time>
      </trkpt>
      <trkpt lat="27.580956" lon="86.546019">
        <ele>2574</ele>
        <time>2019-10-13T09:20:35.803Z</time>
      </trkpt>
      <trkpt lat="27.580652" lon="86.546039">
        <ele>2583</ele>
        <time>2019-10-13T09:21:53.803Z</time>
      </trkpt>
      <trkpt lat="27.580302" lon="86.546061">
        <ele>2586.05259776</ele>
        <time>2019-10-13T09:22:53.803Z</time>
      </trkpt>
      <trkpt lat="27.57993" lon="86.546038">
        <ele>2592.05259776</ele>
        <time>2019-10-13T09:23:53.803Z</time>
      </trkpt>
      <trkpt lat="27.57973" lon="86.546042">
        <ele>2597</ele>
        <time>2019-10-13T09:24:38.803Z</time>
      </trkpt>
      <trkpt lat="27.57928" lon="86.545983">
        <ele>2600.52629888</ele>
        <time>2019-10-13T09:25:23.803Z</time>
      </trkpt>
      <trkpt lat="27.578929" lon="86.545799">
        <ele>2604.72629888</ele>
        <time>2019-10-13T09:26:15.803Z</time>
      </trkpt>
      <trkpt lat="27.578928" lon="86.54555">
        <ele>2614.30519552</ele>
        <time>2019-10-13T09:27:16.803Z</time>
      </trkpt>
      <trkpt lat="27.578742" lon="86.54533">
        <ele>2616</ele>
        <time>2019-10-13T09:28:16.803Z</time>
      </trkpt>
      <trkpt lat="27.578568" lon="86.545089">
        <ele>2624</ele>
        <time>2019-10-13T09:29:15.803Z</time>
      </trkpt>
      <trkpt lat="27.578309" lon="86.545014">
        <ele>2630.45259776</ele>
        <time>2019-10-13T09:30:15.803Z</time>
      </trkpt>
      <trkpt lat="27.577937" lon="86.544907">
        <ele>2636.52629888</ele>
        <time>2019-10-13T09:31:13.803Z</time>
      </trkpt>
      <trkpt lat="27.577789" lon="86.544529">
        <ele>2641</ele>
        <time>2019-10-13T09:32:15.803Z</time>
      </trkpt>
      <trkpt lat="27.577582" lon="86.544377">
        <ele>2646.62629888</ele>
        <time>2019-10-13T09:33:14.803Z</time>
      </trkpt>
      <trkpt lat="27.577349" lon="86.544144">
        <ele>2653.45259776</ele>
        <time>2019-10-13T09:34:15.803Z</time>
      </trkpt>
      <trkpt lat="27.577061" lon="86.544161">
        <ele>2660.82629888</ele>
        <time>2019-10-13T09:35:16.803Z</time>
      </trkpt>
      <trkpt lat="27.576913" lon="86.54411">
        <ele>2667.45259776</ele>
        <time>2019-10-13T09:36:15.803Z</time>
      </trkpt>
      <trkpt lat="27.576765" lon="86.543985">
        <ele>2674.27889664</ele>
        <time>2019-10-13T09:37:12.803Z</time>
      </trkpt>
      <trkpt lat="27.57634" lon="86.543914">
        <ele>2679.87889664</ele>
        <time>2019-10-13T09:38:14.803Z</time>
      </trkpt>
      <trkpt lat="27.575892" lon="86.543833">
        <ele>2684.52629888</ele>
        <time>2019-10-13T09:39:13.803Z</time>
      </trkpt>
      <trkpt lat="27.575465" lon="86.543652">
        <ele>2691.45259776</ele>
        <time>2019-10-13T09:40:15.803Z</time>
      </trkpt>
      <trkpt lat="27.575526" lon="86.54346">
        <ele>2697.42629888</ele>
        <time>2019-10-13T09:41:12.803Z</time>
      </trkpt>
      <trkpt lat="27.575023" lon="86.543241">
        <ele>2705</ele>
        <time>2019-10-13T09:42:13.803Z</time>
      </trkpt>
      <trkpt lat="27.574679" lon="86.543075">
        <ele>2709.72629888</ele>
        <time>2019-10-13T09:43:15.803Z</time>
      </trkpt>
      <trkpt lat="27.574376" lon="86.543112">
        <ele>2715.25259776</ele>
        <time>2019-10-13T09:44:14.803Z</time>
      </trkpt>
      <trkpt lat="27.57395" lon="86.542924">
        <ele>2719.72629888</ele>
        <time>2019-10-13T09:45:15.803Z</time>
      </trkpt>
      <trkpt lat="27.573668" lon="86.542646">
        <ele>2725.72629888</ele>
        <time>2019-10-13T09:46:15.803Z</time>
      </trkpt>
      <trkpt lat="27.573255" lon="86.542592">
        <ele>2730.65259776</ele>
        <time>2019-10-13T09:47:16.803Z</time>
      </trkpt>
      <trkpt lat="27.572888" lon="86.542598">
        <ele>2735.62629888</ele>
        <time>2019-10-13T09:48:14.803Z</time>
      </trkpt>
      <trkpt lat="27.572529" lon="86.542837">
        <ele>2741.72629888</ele>
        <time>2019-10-13T09:49:15.803Z</time>
      </trkpt>
      <trkpt lat="27.5723" lon="86.542863">
        <ele>2747</ele>
        <time>2019-10-13T09:50:12.803Z</time>
      </trkpt>
      <trkpt lat="27.572232" lon="86.542408">
        <ele>2750</ele>
        <time>2019-10-13T09:51:12.803Z</time>
      </trkpt>
      <trkpt lat="27.572138" lon="86.541958">
        <ele>2750.6314944</ele>
        <time>2019-10-13T09:52:13.803Z</time>
      </trkpt>
      <trkpt lat="27.572051" lon="86.541682">
        <ele>2754.26919936</ele>
        <time>2019-10-13T09:53:31.232Z</time>
      </trkpt>
      <trkpt lat="27.572147" lon="86.54184">
        <ele>2754</ele>
        <time>2019-10-13T09:54:16.803Z</time>
      </trkpt>
      <trkpt lat="27.572356" lon="86.541319">
        <ele>2757</ele>
        <time>2019-10-13T09:55:18.803Z</time>
      </trkpt>
      <trkpt lat="27.572356" lon="86.540916">
        <ele>2762</ele>
        <time>2019-10-13T09:56:15.803Z</time>
      </trkpt>
      <trkpt lat="27.572492" lon="86.540376">
        <ele>2759.57370112</ele>
        <time>2019-10-13T09:57:12.803Z</time>
      </trkpt>
      <trkpt lat="27.572529" lon="86.539822">
        <ele>2754.82629888</ele>
        <time>2019-10-13T09:58:16.803Z</time>
      </trkpt>
      <trkpt lat="27.572859" lon="86.539416">
        <ele>2748.47370112</ele>
        <time>2019-10-13T09:59:33.803Z</time>
      </trkpt>
      <trkpt lat="27.57299" lon="86.539178">
        <ele>2749.97370112</ele>
        <time>2019-10-13T10:00:18.803Z</time>
      </trkpt>
      <trkpt lat="27.573302" lon="86.538519">
        <ele>2743.42110336</ele>
        <time>2019-10-13T10:01:13.803Z</time>
      </trkpt>
      <trkpt lat="27.57332" lon="86.53777">
        <ele>2740</ele>
        <time>2019-10-13T10:02:14.803Z</time>
      </trkpt>
      <trkpt lat="27.573261" lon="86.537022">
        <ele>2740</ele>
        <time>2019-10-13T10:03:12.803Z</time>
      </trkpt>
      <trkpt lat="27.573224" lon="86.536232">
        <ele>2737</ele>
        <time>2019-10-13T10:04:12.803Z</time>
      </trkpt>
      <trkpt lat="27.573314" lon="86.535533">
        <ele>2737.62629888</ele>
        <time>2019-10-13T10:05:14.803Z</time>
      </trkpt>
      <trkpt lat="27.573479" lon="86.534814">
        <ele>2736.27370112</ele>
        <time>2019-10-13T10:06:15.803Z</time>
      </trkpt>
      <trkpt lat="27.573629" lon="86.53409">
        <ele>2732</ele>
        <time>2019-10-13T10:07:14.803Z</time>
      </trkpt>
      <trkpt lat="27.573838" lon="86.533374">
        <ele>2732</ele>
        <time>2019-10-13T10:08:15.803Z</time>
      </trkpt>
      <trkpt lat="27.573792" lon="86.532648">
        <ele>2732.72629888</ele>
        <time>2019-10-13T10:09:15.803Z</time>
      </trkpt>
      <trkpt lat="27.573654" lon="86.532164">
        <ele>2736</ele>
        <time>2019-10-13T10:10:13.803Z</time>
      </trkpt>
      <trkpt lat="27.573574" lon="86.531875">
        <ele>2739.25259776</ele>
        <time>2019-10-13T10:11:14.803Z</time>
      </trkpt>
      <trkpt lat="27.573226" lon="86.531319">
        <ele>2735</ele>
        <time>2019-10-13T10:12:14.803Z</time>
      </trkpt>
      <trkpt lat="27.573107" lon="86.530686">
        <ele>2739.17889664</ele>
        <time>2019-10-13T10:13:15.803Z</time>
      </trkpt>
      <trkpt lat="27.572977" lon="86.530063">
        <ele>2741.72557353864</ele>
        <time>2019-10-13T10:14:15.803Z</time>
      </trkpt>
      <trkpt lat="27.572729" lon="86.529312">
        <ele>2738</ele>
        <time>2019-10-13T10:15:15.803Z</time>
      </trkpt>
      <trkpt lat="27.572549" lon="86.528913">
        <ele>2738</ele>
        <time>2019-10-13T10:16:12.803Z</time>
      </trkpt>
      <trkpt lat="27.572457" lon="86.528696">
        <ele>2740</ele>
        <time>2019-10-13T10:17:12.803Z</time>
      </trkpt>
      <trkpt lat="27.572498" lon="86.528097">
        <ele>2741.25259776</ele>
        <time>2019-10-13T10:19:14.803Z</time>
      </trkpt>
      <trkpt lat="27.572724" lon="86.527598">
        <ele>2746</ele>
        <time>2019-10-13T10:20:14.803Z</time>
      </trkpt>
      <trkpt lat="27.572832" lon="86.527305">
        <ele>2748</ele>
        <time>2019-10-13T10:21:13.803Z</time>
      </trkpt>
      <trkpt lat="27.573195" lon="86.526703">
        <ele>2752.45259776</ele>
        <time>2019-10-13T10:22:15.803Z</time>
      </trkpt>
      <trkpt lat="27.573145" lon="86.52643">
        <ele>2756.52629888</ele>
        <time>2019-10-13T10:23:13.803Z</time>
      </trkpt>
      <trkpt lat="27.573404" lon="86.525805">
        <ele>2762.92629888</ele>
        <time>2019-10-13T10:24:17.803Z</time>
      </trkpt>
      <trkpt lat="27.573368" lon="86.525337">
        <ele>2770.22629888</ele>
        <time>2019-10-13T10:25:20.803Z</time>
      </trkpt>
      <trkpt lat="27.573447" lon="86.524829">
        <ele>2773.82629888</ele>
        <time>2019-10-13T10:26:16.803Z</time>
      </trkpt>
      <trkpt lat="27.573374" lon="86.524456">
        <ele>2779</ele>
        <time>2019-10-13T10:27:13.803Z</time>
      </trkpt>
      <trkpt lat="27.573394" lon="86.523888">
        <ele>2783</ele>
        <time>2019-10-13T10:28:14.803Z</time>
      </trkpt>
      <trkpt lat="27.573253" lon="86.523551">
        <ele>2790</ele>
        <time>2019-10-13T10:29:14.803Z</time>
      </trkpt>
      <trkpt lat="27.573282" lon="86.523217">
        <ele>2796.52629888</ele>
        <time>2019-10-13T10:30:13.803Z</time>
      </trkpt>
      <trkpt lat="27.573167" lon="86.522774">
        <ele>2799.57889664</ele>
        <time>2019-10-13T10:31:13.803Z</time>
      </trkpt>
      <trkpt lat="27.573126" lon="86.522428">
        <ele>2805</ele>
        <time>2019-10-13T10:32:14.803Z</time>
      </trkpt>
      <trkpt lat="27.573035" lon="86.522124">
        <ele>2809</ele>
        <time>2019-10-13T10:33:14.803Z</time>
      </trkpt>
      <trkpt lat="27.573168" lon="86.52189">
        <ele>2816.72629888</ele>
        <time>2019-10-13T10:34:15.803Z</time>
      </trkpt>
      <trkpt lat="27.573283" lon="86.521613">
        <ele>2821.52629888</ele>
        <time>2019-10-13T10:35:13.803Z</time>
      </trkpt>
      <trkpt lat="27.573425" lon="86.521379">
        <ele>2827.85259776</ele>
        <time>2019-10-13T10:36:12.803Z</time>
      </trkpt>
      <trkpt lat="27.573666" lon="86.521101">
        <ele>2833.52629888</ele>
        <time>2019-10-13T10:37:13.803Z</time>
      </trkpt>
      <trkpt lat="27.573859" lon="86.520833">
        <ele>2840</ele>
        <time>2019-10-13T10:38:14.803Z</time>
      </trkpt>
      <trkpt lat="27.574057" lon="86.520658">
        <ele>2845</ele>
        <time>2019-10-13T10:39:15.803Z</time>
      </trkpt>
      <trkpt lat="27.574018" lon="86.520368">
        <ele>2851.52582485659</ele>
        <time>2019-10-13T10:40:13.803Z</time>
      </trkpt>
      <trkpt lat="27.57405" lon="86.520098">
        <ele>2857.72557353864</ele>
        <time>2019-10-13T10:41:15.803Z</time>
      </trkpt>
      <trkpt lat="27.574134" lon="86.519742">
        <ele>2865</ele>
        <time>2019-10-13T10:42:14.803Z</time>
      </trkpt>
      <trkpt lat="27.574167" lon="86.519333">
        <ele>2869</ele>
        <time>2019-10-13T10:43:13.803Z</time>
      </trkpt>
      <trkpt lat="27.574223" lon="86.519212">
        <ele>2871.82629888</ele>
        <time>2019-10-13T10:46:16.803Z</time>
      </trkpt>
      <trkpt lat="27.57418" lon="86.519336">
        <ele>2871</ele>
        <time>2019-10-13T10:47:16.803Z</time>
      </trkpt>
      <trkpt lat="27.574287" lon="86.518869">
        <ele>2877.42629888</ele>
        <time>2019-10-13T10:49:12.803Z</time>
      </trkpt>
      <trkpt lat="27.574449" lon="86.518711">
        <ele>2883</ele>
        <time>2019-10-13T10:50:14.803Z</time>
      </trkpt>
      <trkpt lat="27.574622" lon="86.518372">
        <ele>2889.42629888</ele>
        <time>2019-10-13T10:51:12.803Z</time>
      </trkpt>
      <trkpt lat="27.574818" lon="86.51807">
        <ele>2895</ele>
        <time>2019-10-13T10:52:14.803Z</time>
      </trkpt>
      <trkpt lat="27.574939" lon="86.5176">
        <ele>2896</ele>
        <time>2019-10-13T10:53:14.803Z</time>
      </trkpt>
      <trkpt lat="27.574888" lon="86.517246">
        <ele>2902.52629888</ele>
        <time>2019-10-13T10:54:13.803Z</time>
      </trkpt>
      <trkpt lat="27.575194" lon="86.516924">
        <ele>2907.25184984926</ele>
        <time>2019-10-13T10:55:14.803Z</time>
      </trkpt>
      <trkpt lat="27.575167" lon="86.516553">
        <ele>2913.02629888</ele>
        <time>2019-10-13T10:56:18.803Z</time>
      </trkpt>
      <trkpt lat="27.57525" lon="86.516222">
        <ele>2917.92629888</ele>
        <time>2019-10-13T10:57:17.803Z</time>
      </trkpt>
      <trkpt lat="27.575314" lon="86.515876">
        <ele>2924.72629888</ele>
        <time>2019-10-13T10:58:15.803Z</time>
      </trkpt>
      <trkpt lat="27.575538" lon="86.515815">
        <ele>2930.85259776</ele>
        <time>2019-10-13T10:59:12.803Z</time>
      </trkpt>
      <trkpt lat="27.575577" lon="86.515597">
        <ele>2938.05259776</ele>
        <time>2019-10-13T11:00:13.803Z</time>
      </trkpt>
      <trkpt lat="27.575678" lon="86.515221">
        <ele>2943.72629888</ele>
        <time>2019-10-13T11:01:15.803Z</time>
      </trkpt>
      <trkpt lat="27.57595" lon="86.514878">
        <ele>2948.92629888</ele>
        <time>2019-10-13T11:02:17.803Z</time>
      </trkpt>
      <trkpt lat="27.576083" lon="86.514643">
        <ele>2953.62629888</ele>
        <time>2019-10-13T11:03:14.803Z</time>
      </trkpt>
      <trkpt lat="27.576261" lon="86.514342">
        <ele>2959.62629888</ele>
        <time>2019-10-13T11:04:14.803Z</time>
      </trkpt>
      <trkpt lat="27.576361" lon="86.514082">
        <ele>2966.17889664</ele>
        <time>2019-10-13T11:05:15.803Z</time>
      </trkpt>
      <trkpt lat="27.576485" lon="86.513784">
        <ele>2972.45259776</ele>
        <time>2019-10-13T11:06:15.803Z</time>
      </trkpt>
      <trkpt lat="27.576493" lon="86.513398">
        <ele>2975.82629888</ele>
        <time>2019-10-13T11:07:16.803Z</time>
      </trkpt>
      <trkpt lat="27.57657" lon="86.513011">
        <ele>2980</ele>
        <time>2019-10-13T11:08:16.803Z</time>
      </trkpt>
      <trkpt lat="27.576618" lon="86.51266">
        <ele>2986.65094734096</ele>
        <time>2019-10-13T11:09:16.803Z</time>
      </trkpt>
      <trkpt lat="27.576746" lon="86.512538">
        <ele>2992.25259776</ele>
        <time>2019-10-13T11:10:14.803Z</time>
      </trkpt>
      <trkpt lat="27.576801" lon="86.512166">
        <ele>2998.52629888</ele>
        <time>2019-10-13T11:11:13.803Z</time>
      </trkpt>
      <trkpt lat="27.576846" lon="86.511814">
        <ele>3003</ele>
        <time>2019-10-13T11:12:14.803Z</time>
      </trkpt>
      <trkpt lat="27.577006" lon="86.511579">
        <ele>3009.62629888</ele>
        <time>2019-10-13T11:13:14.803Z</time>
      </trkpt>
      <trkpt lat="27.577161" lon="86.511171">
        <ele>3014.82629888</ele>
        <time>2019-10-13T11:14:16.803Z</time>
      </trkpt>
      <trkpt lat="27.577181" lon="86.511001">
        <ele>3019</ele>
        <time>2019-10-13T11:15:14.803Z</time>
      </trkpt>
      <trkpt lat="27.577142" lon="86.510746">
        <ele>3024.42629888</ele>
        <time>2019-10-13T11:16:12.803Z</time>
      </trkpt>
      <trkpt lat="27.577237" lon="86.510188">
        <ele>3028.62629888</ele>
        <time>2019-10-13T11:17:14.803Z</time>
      </trkpt>
      <trkpt lat="27.577039" lon="86.5092">
        <ele>3045.25259776</ele>
        <time>2019-10-13T11:20:14.803Z</time>
      </trkpt>
      <trkpt lat="27.576987" lon="86.508854">
        <ele>3049.52629888</ele>
        <time>2019-10-13T11:21:13.803Z</time>
      </trkpt>
      <trkpt lat="27.57706" lon="86.508165">
        <ele>3059.05259776</ele>
        <time>2019-10-13T11:22:53.803Z</time>
      </trkpt>
      <trkpt lat="27.577018" lon="86.507863">
        <ele>3066.05259776</ele>
        <time>2019-10-13T11:23:53.803Z</time>
      </trkpt>
      <trkpt lat="27.576989" lon="86.507446">
        <ele>3072</ele>
        <time>2019-10-13T11:24:53.803Z</time>
      </trkpt>
      <trkpt lat="27.577057" lon="86.506985">
        <ele>3077</ele>
        <time>2019-10-13T11:25:38.803Z</time>
      </trkpt>
      <trkpt lat="27.577051" lon="86.506694">
        <ele>3079.52577327497</ele>
        <time>2019-10-13T11:26:23.803Z</time>
      </trkpt>
      <trkpt lat="27.576925" lon="86.506125">
        <ele>3083</ele>
        <time>2019-10-13T11:27:15.803Z</time>
      </trkpt>
      <trkpt lat="27.577145" lon="86.505833">
        <ele>3090.05259776</ele>
        <time>2019-10-13T11:28:23.803Z</time>
      </trkpt>
      <trkpt lat="27.57707" lon="86.505916">
        <ele>3091</ele>
        <time>2019-10-13T11:30:15.803Z</time>
      </trkpt>
      <trkpt lat="27.57715" lon="86.505765">
        <ele>3096</ele>
        <time>2019-10-13T11:32:19.803Z</time>
      </trkpt>
      <trkpt lat="27.577283" lon="86.505521">
        <ele>3101</ele>
        <time>2019-10-13T11:33:12.803Z</time>
      </trkpt>
      <trkpt lat="27.57719" lon="86.505346">
        <ele>3106</ele>
        <time>2019-10-13T11:34:14.803Z</time>
      </trkpt>
      <trkpt lat="27.577181" lon="86.50517">
        <ele>3110.25259776</ele>
        <time>2019-10-13T11:36:14.803Z</time>
      </trkpt>
      <trkpt lat="27.577351" lon="86.50499">
        <ele>3118.50519552</ele>
        <time>2019-10-13T11:37:14.803Z</time>
      </trkpt>
      <trkpt lat="27.577376" lon="86.504725">
        <ele>3125</ele>
        <time>2019-10-13T11:38:15.803Z</time>
      </trkpt>
      <trkpt lat="27.577735" lon="86.504709">
        <ele>3136</ele>
        <time>2019-10-13T11:40:13.803Z</time>
      </trkpt>
      <trkpt lat="27.577747" lon="86.504325">
        <ele>3143.42629888</ele>
        <time>2019-10-13T11:41:12.803Z</time>
      </trkpt>
      <trkpt lat="27.577842" lon="86.503869">
        <ele>3178.62629888</ele>
        <time>2019-10-13T11:46:44.803Z</time>
      </trkpt>
      <trkpt lat="27.577863" lon="86.503701">
        <ele>3183.25259776</ele>
        <time>2019-10-13T11:47:29.803Z</time>
      </trkpt>
      <trkpt lat="27.577699" lon="86.503526">
        <ele>3191.52629888</ele>
        <time>2019-10-13T11:48:53.803Z</time>
      </trkpt>
      <trkpt lat="27.577475" lon="86.503343">
        <ele>3198.52629888</ele>
        <time>2019-10-13T11:49:53.803Z</time>
      </trkpt>
      <trkpt lat="27.577482" lon="86.502996">
        <ele>3210.05259776</ele>
        <time>2019-10-13T11:51:38.803Z</time>
      </trkpt>
      <trkpt lat="27.577471" lon="86.502613">
        <ele>3215</ele>
        <time>2019-10-13T11:52:23.803Z</time>
      </trkpt>
      <trkpt lat="27.577485" lon="86.502369">
        <ele>3220.82629888</ele>
        <time>2019-10-13T11:53:16.803Z</time>
      </trkpt>
      <trkpt lat="27.577334" lon="86.501975">
        <ele>3233.65259776</ele>
        <time>2019-10-13T11:55:16.803Z</time>
      </trkpt>
      <trkpt lat="27.577322" lon="86.502293">
        <ele>3239</ele>
        <time>2019-10-13T11:56:12.803Z</time>
      </trkpt>
      <trkpt lat="27.577427" lon="86.501873">
        <ele>3245.62629888</ele>
        <time>2019-10-13T11:57:14.803Z</time>
      </trkpt>
      <trkpt lat="27.577394" lon="86.501607">
        <ele>3252.42629888</ele>
        <time>2019-10-13T11:58:12.803Z</time>
      </trkpt>
      <trkpt lat="27.57711" lon="86.501515">
        <ele>3257</ele>
        <time>2019-10-13T11:59:14.803Z</time>
      </trkpt>
      <trkpt lat="27.57745" lon="86.501603">
        <ele>3264.62629888</ele>
        <time>2019-10-13T12:00:14.803Z</time>
      </trkpt>
      <trkpt lat="27.577533" lon="86.501166">
        <ele>3270</ele>
        <time>2019-10-13T12:01:16.803Z</time>
      </trkpt>
      <trkpt lat="27.577539" lon="86.501301">
        <ele>3275.62629888</ele>
        <time>2019-10-13T12:02:14.803Z</time>
      </trkpt>
      <trkpt lat="27.577643" lon="86.501133">
        <ele>3284.65259776</ele>
        <time>2019-10-13T12:03:16.803Z</time>
      </trkpt>
      <trkpt lat="27.577616" lon="86.500791">
        <ele>3294.25259776</ele>
        <time>2019-10-13T12:04:54.803Z</time>
      </trkpt>
      <trkpt lat="27.577761" lon="86.500768">
        <ele>3300</ele>
        <time>2019-10-13T12:05:39.803Z</time>
      </trkpt>
      <trkpt lat="27.577856" lon="86.500734">
        <ele>3308.52629888</ele>
        <time>2019-10-13T12:07:03.803Z</time>
      </trkpt>
      <trkpt lat="27.577898" lon="86.500414">
        <ele>3318.52582485659</ele>
        <time>2019-10-13T12:08:53.803Z</time>
      </trkpt>
      <trkpt lat="27.577947" lon="86.500106">
        <ele>3329</ele>
        <time>2019-10-13T12:10:25.803Z</time>
      </trkpt>
      <trkpt lat="27.57802" lon="86.500024">
        <ele>3332.72629888</ele>
        <time>2019-10-13T12:11:15.803Z</time>
      </trkpt>
      <trkpt lat="27.578119" lon="86.49985">
        <ele>3337.82629888</ele>
        <time>2019-10-13T12:12:16.803Z</time>
      </trkpt>
      <trkpt lat="27.577989" lon="86.500037">
        <ele>3344.05259776</ele>
        <time>2019-10-13T12:13:13.803Z</time>
      </trkpt>
      <trkpt lat="27.578444" lon="86.499972">
        <ele>3350.42629888</ele>
        <time>2019-10-13T12:14:22.803Z</time>
      </trkpt>
      <trkpt lat="27.578512" lon="86.499744">
        <ele>3355</ele>
        <time>2019-10-13T12:15:16.803Z</time>
      </trkpt>
      <trkpt lat="27.57841" lon="86.498563">
        <ele>3375.32629888</ele>
        <time>2019-10-13T12:18:31.803Z</time>
      </trkpt>
      <trkpt lat="27.57842" lon="86.498191">
        <ele>3380.82595089318</ele>
        <time>2019-10-13T12:19:16.803Z</time>
      </trkpt>
      <trkpt lat="27.578419" lon="86.498026">
        <ele>3386.47370112</ele>
        <time>2019-10-13T12:20:53.803Z</time>
      </trkpt>
      <trkpt lat="27.578404" lon="86.497946">
        <ele>3386.52629888</ele>
        <time>2019-10-13T12:21:53.803Z</time>
      </trkpt>
      <trkpt lat="27.578398" lon="86.497954">
        <ele>3387.02532451641</ele>
        <time>2019-10-13T12:23:38.803Z</time>
      </trkpt>
      <trkpt lat="27.578525" lon="86.497811">
        <ele>3382</ele>
        <time>2019-10-13T12:26:14.803Z</time>
      </trkpt>
      <trkpt lat="27.578636" lon="86.497792">
        <ele>3382</ele>
        <time>2019-10-13T12:32:13.803Z</time>
      </trkpt>
      <trkpt lat="27.578494" lon="86.498077">
        <ele>3386.62629888</ele>
        <time>2019-10-13T12:33:14.803Z</time>
      </trkpt>
      <trkpt lat="27.578387" lon="86.497977">
        <ele>3389.62860032</ele>
        <time>2019-10-13T12:35:52.254Z</time>
      </trkpt>
      <trkpt lat="27.578399" lon="86.497921">
        <ele>3388.82629888</ele>
        <time>2019-10-13T12:36:46.803Z</time>
      </trkpt>
      <trkpt lat="27.578604" lon="86.497811">
        <ele>3384</ele>
        <time>2019-10-13T12:37:53.803Z</time>
      </trkpt>
      <trkpt lat="27.578613" lon="86.49769">
        <ele>3383</ele>
        <time>2019-10-13T12:48:15.803Z</time>
      </trkpt>
      <trkpt lat="27.578703" lon="86.497619">
        <ele>3383.85259776</ele>
        <time>2019-10-13T12:50:17.803Z</time>
      </trkpt>
      <trkpt lat="27.578655" lon="86.497812">
        <ele>3384</ele>
        <time>2019-10-13T12:52:14.803Z</time>
      </trkpt>
      <trkpt lat="27.578523" lon="86.497762">
        <ele>3384</ele>
        <time>2019-10-13T12:53:12.803Z</time>
      </trkpt>
      <trkpt lat="27.578646" lon="86.497778">
        <ele>3384</ele>
        <time>2019-10-13T12:55:14.803Z</time>
      </trkpt>
      <trkpt lat="27.578412" lon="86.497661">
        <ele>3384</ele>
        <time>2019-10-13T13:07:12.803Z</time>
      </trkpt>
      <trkpt lat="27.577976" lon="86.497282">
        <ele>3384</ele>
        <time>2019-10-13T13:08:14.803Z</time>
      </trkpt>
      <trkpt lat="27.577467" lon="86.497015">
        <ele>3384</ele>
        <time>2019-10-13T13:09:13.803Z</time>
      </trkpt>
      <trkpt lat="27.577128" lon="86.496654">
        <ele>3384</ele>
        <time>2019-10-13T13:10:12.803Z</time>
      </trkpt>
      <trkpt lat="27.576714" lon="86.496314">
        <ele>3384</ele>
        <time>2019-10-13T13:11:13.803Z</time>
      </trkpt>
      <trkpt lat="27.576467" lon="86.495906">
        <ele>3390</ele>
        <time>2019-10-13T13:12:12.803Z</time>
      </trkpt>
      <trkpt lat="27.576364" lon="86.49574">
        <ele>3390</ele>
        <time>2019-10-13T13:13:15.803Z</time>
      </trkpt>
      <trkpt lat="27.576225" lon="86.495512">
        <ele>3390</ele>
        <time>2019-10-13T13:14:12.803Z</time>
      </trkpt>
      <trkpt lat="27.575885" lon="86.495056">
        <ele>3387</ele>
        <time>2019-10-13T13:15:13.803Z</time>
      </trkpt>
      <trkpt lat="27.575553" lon="86.494459">
        <ele>3379</ele>
        <time>2019-10-13T13:16:14.803Z</time>
      </trkpt>
      <trkpt lat="27.57523" lon="86.494031">
        <ele>3382.42629888</ele>
        <time>2019-10-13T13:17:12.803Z</time>
      </trkpt>
      <trkpt lat="27.575014" lon="86.493816">
        <ele>3387.62629888</ele>
        <time>2019-10-13T13:18:14.803Z</time>
      </trkpt>
      <trkpt lat="27.574824" lon="86.493487">
        <ele>3388</ele>
        <time>2019-10-13T13:19:14.803Z</time>
      </trkpt>
      <trkpt lat="27.574593" lon="86.492983">
        <ele>3383</ele>
        <time>2019-10-13T13:20:12.803Z</time>
      </trkpt>
      <trkpt lat="27.574158" lon="86.492644">
        <ele>3381.62629888</ele>
        <time>2019-10-13T13:21:14.803Z</time>
      </trkpt>
      <trkpt lat="27.573947" lon="86.492251">
        <ele>3384.85259776</ele>
        <time>2019-10-13T13:22:12.803Z</time>
      </trkpt>
      <trkpt lat="27.57386" lon="86.491624">
        <ele>3382</ele>
        <time>2019-10-13T13:23:12.803Z</time>
      </trkpt>
      <trkpt lat="27.573815" lon="86.491007">
        <ele>3379.42587314314</ele>
        <time>2019-10-13T13:24:12.803Z</time>
      </trkpt>
      <trkpt lat="27.573621" lon="86.490399">
        <ele>3379</ele>
        <time>2019-10-13T13:25:14.803Z</time>
      </trkpt>
      <trkpt lat="27.573341" lon="86.489874">
        <ele>3379</ele>
        <time>2019-10-13T13:26:12.803Z</time>
      </trkpt>
      <trkpt lat="27.573102" lon="86.489279">
        <ele>3373.57370112</ele>
        <time>2019-10-13T13:27:12.803Z</time>
      </trkpt>
      <trkpt lat="27.573052" lon="86.488785">
        <ele>3362.57370112</ele>
        <time>2019-10-13T13:28:12.803Z</time>
      </trkpt>
      <trkpt lat="27.57287" lon="86.488278">
        <ele>3353.57370112</ele>
        <time>2019-10-13T13:29:12.803Z</time>
      </trkpt>
      <trkpt lat="27.572636" lon="86.487701">
        <ele>3340.57370112</ele>
        <time>2019-10-13T13:30:12.803Z</time>
      </trkpt>
      <trkpt lat="27.572302" lon="86.487101">
        <ele>3338</ele>
        <time>2019-10-13T13:31:12.803Z</time>
      </trkpt>
      <trkpt lat="27.572144" lon="86.48664">
        <ele>3338.42629888</ele>
        <time>2019-10-13T13:32:12.803Z</time>
      </trkpt>
      <trkpt lat="27.571896" lon="86.486272">
        <ele>3339</ele>
        <time>2019-10-13T13:33:12.803Z</time>
      </trkpt>
      <trkpt lat="27.571784" lon="86.485515">
        <ele>3339</ele>
        <time>2019-10-13T13:34:12.803Z</time>
      </trkpt>
      <trkpt lat="27.571756" lon="86.48467">
        <ele>3339</ele>
        <time>2019-10-13T13:35:14.803Z</time>
      </trkpt>
      <trkpt lat="27.571507" lon="86.484134">
        <ele>3343.42629888</ele>
        <time>2019-10-13T13:36:12.803Z</time>
      </trkpt>
      <trkpt lat="27.571092" lon="86.483581">
        <ele>3343.42629888</ele>
        <time>2019-10-13T13:37:12.803Z</time>
      </trkpt>
      <trkpt lat="27.570493" lon="86.483244">
        <ele>3343</ele>
        <time>2019-10-13T13:38:12.803Z</time>
      </trkpt>
      <trkpt lat="27.570056" lon="86.482622">
        <ele>3340.52629888</ele>
        <time>2019-10-13T13:39:13.803Z</time>
      </trkpt>
      <trkpt lat="27.569639" lon="86.482163">
        <ele>3341</ele>
        <time>2019-10-13T13:40:12.803Z</time>
      </trkpt>
      <trkpt lat="27.569396" lon="86.481378">
        <ele>3341</ele>
        <time>2019-10-13T13:41:12.803Z</time>
      </trkpt>
      <trkpt lat="27.569424" lon="86.480588">
        <ele>3340.62629888</ele>
        <time>2019-10-13T13:42:14.803Z</time>
      </trkpt>
      <trkpt lat="27.569429" lon="86.479807">
        <ele>3339</ele>
        <time>2019-10-13T13:43:12.803Z</time>
      </trkpt>
      <trkpt lat="27.569715" lon="86.479021">
        <ele>3332</ele>
        <time>2019-10-13T13:44:12.803Z</time>
      </trkpt>
      <trkpt lat="27.569774" lon="86.478373">
        <ele>3323.57370112</ele>
        <time>2019-10-13T13:45:12.803Z</time>
      </trkpt>
      <trkpt lat="27.570199" lon="86.477751">
        <ele>3314.57370112</ele>
        <time>2019-10-13T13:46:12.803Z</time>
      </trkpt>
      <trkpt lat="27.570483" lon="86.477333">
        <ele>3303.14740224</ele>
        <time>2019-10-13T13:47:12.803Z</time>
      </trkpt>
      <trkpt lat="27.570819" lon="86.476829">
        <ele>3296</ele>
        <time>2019-10-13T13:48:14.803Z</time>
      </trkpt>
      <trkpt lat="27.570996" lon="86.4764">
        <ele>3288</ele>
        <time>2019-10-13T13:49:15.803Z</time>
      </trkpt>
      <trkpt lat="27.571199" lon="86.476301">
        <ele>3286</ele>
        <time>2019-10-13T13:50:13.803Z</time>
      </trkpt>
      <trkpt lat="27.571536" lon="86.475721">
        <ele>3275.47370112</ele>
        <time>2019-10-13T13:51:13.803Z</time>
      </trkpt>
      <trkpt lat="27.571708" lon="86.475217">
        <ele>3266.37370112</ele>
        <time>2019-10-13T13:52:14.803Z</time>
      </trkpt>
      <trkpt lat="27.572159" lon="86.474623">
        <ele>3258</ele>
        <time>2019-10-13T13:53:15.803Z</time>
      </trkpt>
      <trkpt lat="27.572215" lon="86.474046">
        <ele>3246.57370112</ele>
        <time>2019-10-13T13:54:12.803Z</time>
      </trkpt>
      <trkpt lat="27.57252" lon="86.473566">
        <ele>3236.37370112</ele>
        <time>2019-10-13T13:55:14.803Z</time>
      </trkpt>
      <trkpt lat="27.57274" lon="86.473091">
        <ele>3227.57370112</ele>
        <time>2019-10-13T13:56:12.803Z</time>
      </trkpt>
      <trkpt lat="27.57305" lon="86.47265">
        <ele>3215.74740224</ele>
        <time>2019-10-13T13:57:14.803Z</time>
      </trkpt>
      <trkpt lat="27.573294" lon="86.472179">
        <ele>3208.57370112</ele>
        <time>2019-10-13T13:58:12.803Z</time>
      </trkpt>
      <trkpt lat="27.573486" lon="86.471747">
        <ele>3198.57370112</ele>
        <time>2019-10-13T13:59:12.803Z</time>
      </trkpt>
      <trkpt lat="27.573421" lon="86.471537">
        <ele>3185.57370112</ele>
        <time>2019-10-13T14:00:12.803Z</time>
      </trkpt>
      <trkpt lat="27.573501" lon="86.470996">
        <ele>3174.29480448</ele>
        <time>2019-10-13T14:01:12.803Z</time>
      </trkpt>
      <trkpt lat="27.573637" lon="86.470584">
        <ele>3162.57370112</ele>
        <time>2019-10-13T14:02:12.803Z</time>
      </trkpt>
      <trkpt lat="27.573817" lon="86.470216">
        <ele>3148.57370112</ele>
        <time>2019-10-13T14:03:12.803Z</time>
      </trkpt>
      <trkpt lat="27.573782" lon="86.469888">
        <ele>3136.57370112</ele>
        <time>2019-10-13T14:04:12.803Z</time>
      </trkpt>
      <trkpt lat="27.573873" lon="86.469733">
        <ele>3124.14740224</ele>
        <time>2019-10-13T14:05:12.803Z</time>
      </trkpt>
      <trkpt lat="27.57403" lon="86.469485">
        <ele>3110.42110336</ele>
        <time>2019-10-13T14:06:13.803Z</time>
      </trkpt>
      <trkpt lat="27.574091" lon="86.469278">
        <ele>3099.57370112</ele>
        <time>2019-10-13T14:07:12.803Z</time>
      </trkpt>
      <trkpt lat="27.574118" lon="86.46887">
        <ele>3090</ele>
        <time>2019-10-13T14:08:12.803Z</time>
      </trkpt>
      <trkpt lat="27.574126" lon="86.468691">
        <ele>3082.62629888</ele>
        <time>2019-10-13T14:09:14.803Z</time>
      </trkpt>
      <trkpt lat="27.574238" lon="86.468588">
        <ele>3082</ele>
        <time>2019-10-13T14:13:12.803Z</time>
      </trkpt>
      <trkpt lat="27.574422" lon="86.468201">
        <ele>3070.57370112</ele>
        <time>2019-10-13T14:14:12.803Z</time>
      </trkpt>
      <trkpt lat="27.574544" lon="86.467888">
        <ele>3060.47370112</ele>
        <time>2019-10-13T14:15:13.803Z</time>
      </trkpt>
      <trkpt lat="27.574753" lon="86.467494">
        <ele>3050</ele>
        <time>2019-10-13T14:16:12.803Z</time>
      </trkpt>
      <trkpt lat="27.574703" lon="86.467045">
        <ele>3039.57370112</ele>
        <time>2019-10-13T14:17:12.803Z</time>
      </trkpt>
      <trkpt lat="27.574696" lon="86.466707">
        <ele>3027.37370112</ele>
        <time>2019-10-13T14:18:14.803Z</time>
      </trkpt>
      <trkpt lat="27.575042" lon="86.466346">
        <ele>3014.37370112</ele>
        <time>2019-10-13T14:19:14.803Z</time>
      </trkpt>
      <trkpt lat="27.575149" lon="86.465911">
        <ele>3005</ele>
        <time>2019-10-13T14:20:14.803Z</time>
      </trkpt>
      <trkpt lat="27.575321" lon="86.465444">
        <ele>2996</ele>
        <time>2019-10-13T14:21:12.803Z</time>
      </trkpt>
      <trkpt lat="27.575248" lon="86.464843">
        <ele>2987.47370112</ele>
        <time>2019-10-13T14:22:13.803Z</time>
      </trkpt>
      <trkpt lat="27.575086" lon="86.4642">
        <ele>2981</ele>
        <time>2019-10-13T14:23:12.803Z</time>
      </trkpt>
      <trkpt lat="27.574949" lon="86.463635">
        <ele>2971.37370112</ele>
        <time>2019-10-13T14:24:14.803Z</time>
      </trkpt>
      <trkpt lat="27.575266" lon="86.463221">
        <ele>2962</ele>
        <time>2019-10-13T14:25:14.803Z</time>
      </trkpt>
      <trkpt lat="27.575453" lon="86.462696">
        <ele>2951.37370112</ele>
        <time>2019-10-13T14:26:14.803Z</time>
      </trkpt>
      <trkpt lat="27.575355" lon="86.462252">
        <ele>2942.94740224</ele>
        <time>2019-10-13T14:27:23.803Z</time>
      </trkpt>
      <trkpt lat="27.575493" lon="86.461898">
        <ele>2937.67370112</ele>
        <time>2019-10-13T14:28:21.803Z</time>
      </trkpt>
      <trkpt lat="27.575539" lon="86.461374">
        <ele>2925.97370112</ele>
        <time>2019-10-13T14:30:18.803Z</time>
      </trkpt>
      <trkpt lat="27.575757" lon="86.461119">
        <ele>2916</ele>
        <time>2019-10-13T14:31:15.803Z</time>
      </trkpt>
      <trkpt lat="27.575666" lon="86.460717">
        <ele>2906</ele>
        <time>2019-10-13T14:32:14.803Z</time>
      </trkpt>
      <trkpt lat="27.576118" lon="86.460444">
        <ele>2894.57370112</ele>
        <time>2019-10-13T14:33:12.803Z</time>
      </trkpt>
      <trkpt lat="27.576587" lon="86.460181">
        <ele>2882.87382725237</ele>
        <time>2019-10-13T14:34:19.803Z</time>
      </trkpt>
      <trkpt lat="27.576858" lon="86.45964">
        <ele>2873.34740224</ele>
        <time>2019-10-13T14:35:21.803Z</time>
      </trkpt>
      <trkpt lat="27.577104" lon="86.459195">
        <ele>2855.57370112</ele>
        <time>2019-10-13T14:36:32.803Z</time>
      </trkpt>
      <trkpt lat="27.577162" lon="86.45897">
        <ele>2849.87370112</ele>
        <time>2019-10-13T14:37:19.803Z</time>
      </trkpt>
      <trkpt lat="27.577441" lon="86.458835">
        <ele>2841</ele>
        <time>2019-10-13T14:38:14.803Z</time>
      </trkpt>
      <trkpt lat="27.577648" lon="86.458385">
        <ele>2831.72629888</ele>
        <time>2019-10-13T14:39:15.803Z</time>
      </trkpt>
      <trkpt lat="27.577624" lon="86.457679">
        <ele>2837.72557353864</ele>
        <time>2019-10-13T14:40:15.803Z</time>
      </trkpt>
      <trkpt lat="27.577618" lon="86.456988">
        <ele>2842</ele>
        <time>2019-10-13T14:41:14.803Z</time>
      </trkpt>
      <trkpt lat="27.577892" lon="86.456516">
        <ele>2832</ele>
        <time>2019-10-13T14:42:14.803Z</time>
      </trkpt>
      <trkpt lat="27.577887" lon="86.45593">
        <ele>2823.74740224</ele>
        <time>2019-10-13T14:43:14.803Z</time>
      </trkpt>
      <trkpt lat="27.578106" lon="86.455431">
        <ele>2813.27370112</ele>
        <time>2019-10-13T14:44:15.803Z</time>
      </trkpt>
      <trkpt lat="27.57809" lon="86.454858">
        <ele>2805.07370112</ele>
        <time>2019-10-13T14:45:17.803Z</time>
      </trkpt>
      <trkpt lat="27.57833" lon="86.454456">
        <ele>2797.17370112</ele>
        <time>2019-10-13T14:46:16.803Z</time>
      </trkpt>
      <trkpt lat="27.578182" lon="86.454027">
        <ele>2786.17370112</ele>
        <time>2019-10-13T14:47:16.803Z</time>
      </trkpt>
      <trkpt lat="27.577844" lon="86.453375">
        <ele>2780.07370112</ele>
        <time>2019-10-13T14:48:17.803Z</time>
      </trkpt>
      <trkpt lat="27.577674" lon="86.452798">
        <ele>2769</ele>
        <time>2019-10-13T14:49:24.374Z</time>
      </trkpt>
      <trkpt lat="27.577716" lon="86.452356">
        <ele>2759.17370112</ele>
        <time>2019-10-13T14:50:16.803Z</time>
      </trkpt>
      <trkpt lat="27.577811" lon="86.451924">
        <ele>2747.07370112</ele>
        <time>2019-10-13T14:51:17.803Z</time>
      </trkpt>
      <trkpt lat="27.577544" lon="86.451476">
        <ele>2735.52110336</ele>
        <time>2019-10-13T14:52:16.803Z</time>
      </trkpt>
      <trkpt lat="27.577362" lon="86.451347">
        <ele>2726.14740224</ele>
        <time>2019-10-13T14:53:17.803Z</time>
      </trkpt>
      <trkpt lat="27.577305" lon="86.447285">
        <ele>2632</ele>
        <time>2019-10-13T15:02:28.803Z</time>
      </trkpt>
      <trkpt lat="27.577123" lon="86.446879">
        <ele>2623</ele>
        <time>2019-10-13T15:03:15.803Z</time>
      </trkpt>
      <trkpt lat="27.577344" lon="86.446071">
        <ele>2602.42110336</ele>
        <time>2019-10-13T15:04:53.803Z</time>
      </trkpt>
      <trkpt lat="27.57729" lon="86.445581">
        <ele>2590.47370112</ele>
        <time>2019-10-13T15:05:53.803Z</time>
      </trkpt>
      <trkpt lat="27.577209" lon="86.445024">
        <ele>2577</ele>
        <time>2019-10-13T15:06:53.803Z</time>
      </trkpt>
      <trkpt lat="27.577284" lon="86.444622">
        <ele>2568.94745476842</ele>
        <time>2019-10-13T15:07:38.803Z</time>
      </trkpt>
      <trkpt lat="27.57732" lon="86.444148">
        <ele>2565.47370112</ele>
        <time>2019-10-13T15:08:23.803Z</time>
      </trkpt>
      <trkpt lat="27.577379" lon="86.443715">
        <ele>2554.37370112</ele>
        <time>2019-10-13T15:09:14.803Z</time>
      </trkpt>
      <trkpt lat="27.577318" lon="86.443152">
        <ele>2543.37370112</ele>
        <time>2019-10-13T15:10:14.803Z</time>
      </trkpt>
      <trkpt lat="27.577241" lon="86.442696">
        <ele>2533.54740224</ele>
        <time>2019-10-13T15:11:15.803Z</time>
      </trkpt>
      <trkpt lat="27.577101" lon="86.442336">
        <ele>2523</ele>
        <time>2019-10-13T15:12:12.803Z</time>
      </trkpt>
      <trkpt lat="27.576902" lon="86.441873">
        <ele>2508.74740224</ele>
        <time>2019-10-13T15:13:14.803Z</time>
      </trkpt>
      <trkpt lat="27.576835" lon="86.441555">
        <ele>2496.74889955982</ele>
        <time>2019-10-13T15:14:14.803Z</time>
      </trkpt>
      <trkpt lat="27.577021" lon="86.441159">
        <ele>2484.94740224</ele>
        <time>2019-10-13T15:15:13.803Z</time>
      </trkpt>
      <trkpt lat="27.577291" lon="86.440629">
        <ele>2475.37370112</ele>
        <time>2019-10-13T15:16:14.803Z</time>
      </trkpt>
      <trkpt lat="27.577446" lon="86.440411">
        <ele>2464</ele>
        <time>2019-10-13T15:17:14.803Z</time>
      </trkpt>
      <trkpt lat="27.577613" lon="86.440021">
        <ele>2456.52629888</ele>
        <time>2019-10-13T15:18:13.803Z</time>
      </trkpt>
      <trkpt lat="27.577527" lon="86.440126">
        <ele>2558.69995117188</ele>
        <time>2019-10-14T05:38:26.395Z</time>
      </trkpt>
      <trkpt lat="27.577547" lon="86.440008">
        <ele>2435</ele>
        <time>2019-10-14T05:39:43.395Z</time>
      </trkpt>
      <trkpt lat="27.577577" lon="86.439216">
        <ele>2418.09049984</ele>
        <time>2019-10-14T05:41:00.395Z</time>
      </trkpt>
      <trkpt lat="27.577844" lon="86.438497">
        <ele>2413</ele>
        <time>2019-10-14T05:42:06.395Z</time>
      </trkpt>
      <trkpt lat="27.577918" lon="86.437838">
        <ele>2406.99049984</ele>
        <time>2019-10-14T05:43:11.395Z</time>
      </trkpt>
      <trkpt lat="27.578007" lon="86.43717">
        <ele>2404</ele>
        <time>2019-10-14T05:44:16.395Z</time>
      </trkpt>
      <trkpt lat="27.577833" lon="86.436646">
        <ele>2398.19049984</ele>
        <time>2019-10-14T05:45:19.395Z</time>
      </trkpt>
      <trkpt lat="27.578009" lon="86.435981">
        <ele>2395.69049984</ele>
        <time>2019-10-14T05:46:24.395Z</time>
      </trkpt>
      <trkpt lat="27.578197" lon="86.43532">
        <ele>2387</ele>
        <time>2019-10-14T05:47:28.395Z</time>
      </trkpt>
      <trkpt lat="27.578335" lon="86.434728">
        <ele>2381.19049984</ele>
        <time>2019-10-14T05:48:29.395Z</time>
      </trkpt>
      <trkpt lat="27.578426" lon="86.434248">
        <ele>2370.49049984</ele>
        <time>2019-10-14T05:49:46.395Z</time>
      </trkpt>
      <trkpt lat="27.578618" lon="86.433791">
        <ele>2361.47149952</ele>
        <time>2019-10-14T05:50:56.395Z</time>
      </trkpt>
      <trkpt lat="27.578525" lon="86.433453">
        <ele>2349</ele>
        <time>2019-10-14T05:52:10.395Z</time>
      </trkpt>
      <trkpt lat="27.578369" lon="86.433108">
        <ele>2341.18099968</ele>
        <time>2019-10-14T05:52:55.395Z</time>
      </trkpt>
      <trkpt lat="27.578258" lon="86.432716">
        <ele>2336.09049984</ele>
        <time>2019-10-14T05:53:40.395Z</time>
      </trkpt>
      <trkpt lat="27.577962" lon="86.432573">
        <ele>2326.67149952</ele>
        <time>2019-10-14T05:54:32.395Z</time>
      </trkpt>
      <trkpt lat="27.5779" lon="86.432388">
        <ele>2322</ele>
        <time>2019-10-14T05:55:34.395Z</time>
      </trkpt>
      <trkpt lat="27.57784" lon="86.431946">
        <ele>2314.57149952</ele>
        <time>2019-10-14T05:57:29.395Z</time>
      </trkpt>
      <trkpt lat="27.577743" lon="86.431823">
        <ele>2303.18099968</ele>
        <time>2019-10-14T05:58:30.395Z</time>
      </trkpt>
      <trkpt lat="27.577414" lon="86.431841">
        <ele>2290.98099968</ele>
        <time>2019-10-14T05:59:31.395Z</time>
      </trkpt>
      <trkpt lat="27.577108" lon="86.431581">
        <ele>2281.09049984</ele>
        <time>2019-10-14T06:00:30.395Z</time>
      </trkpt>
      <trkpt lat="27.577435" lon="86.431403">
        <ele>2268.67149952</ele>
        <time>2019-10-14T06:01:32.395Z</time>
      </trkpt>
      <trkpt lat="27.577664" lon="86.431218">
        <ele>2257.09049984</ele>
        <time>2019-10-14T06:02:30.395Z</time>
      </trkpt>
      <trkpt lat="27.577951" lon="86.430981">
        <ele>2243.57149952</ele>
        <time>2019-10-14T06:03:29.395Z</time>
      </trkpt>
      <trkpt lat="27.578536" lon="86.430625">
        <ele>2234.99049984</ele>
        <time>2019-10-14T06:04:31.395Z</time>
      </trkpt>
      <trkpt lat="27.578687" lon="86.430201">
        <ele>2229.09049984</ele>
        <time>2019-10-14T06:05:30.395Z</time>
      </trkpt>
      <trkpt lat="27.579022" lon="86.43001">
        <ele>2224.19049984</ele>
        <time>2019-10-14T06:06:29.395Z</time>
      </trkpt>
      <trkpt lat="27.579416" lon="86.429552">
        <ele>2219.09049984</ele>
        <time>2019-10-14T06:07:30.395Z</time>
      </trkpt>
      <trkpt lat="27.579612" lon="86.429075">
        <ele>2209.99049984</ele>
        <time>2019-10-14T06:08:31.395Z</time>
      </trkpt>
      <trkpt lat="27.579929" lon="86.428748">
        <ele>2200.09049984</ele>
        <time>2019-10-14T06:09:30.395Z</time>
      </trkpt>
      <trkpt lat="27.580032" lon="86.428208">
        <ele>2187.99049984</ele>
        <time>2019-10-14T06:10:31.395Z</time>
      </trkpt>
      <trkpt lat="27.580411" lon="86.427758">
        <ele>2180</ele>
        <time>2019-10-14T06:11:32.395Z</time>
      </trkpt>
      <trkpt lat="27.580738" lon="86.427638">
        <ele>2175</ele>
        <time>2019-10-14T06:12:32.395Z</time>
      </trkpt>
      <trkpt lat="27.581015" lon="86.427236">
        <ele>2166.78278417565</ele>
        <time>2019-10-14T06:13:32.395Z</time>
      </trkpt>
      <trkpt lat="27.581164" lon="86.42691">
        <ele>2155.57149952</ele>
        <time>2019-10-14T06:14:29.395Z</time>
      </trkpt>
      <trkpt lat="27.581605" lon="86.426747">
        <ele>2143.67149952</ele>
        <time>2019-10-14T06:15:32.395Z</time>
      </trkpt>
      <trkpt lat="27.581932" lon="86.426447">
        <ele>2136.09049984</ele>
        <time>2019-10-14T06:16:30.395Z</time>
      </trkpt>
      <trkpt lat="27.582106" lon="86.425859">
        <ele>2126.38099968</ele>
        <time>2019-10-14T06:17:29.395Z</time>
      </trkpt>
      <trkpt lat="27.582332" lon="86.425301">
        <ele>2114.89049984</ele>
        <time>2019-10-14T06:18:32.395Z</time>
      </trkpt>
      <trkpt lat="27.582393" lon="86.425022">
        <ele>2104.18099968</ele>
        <time>2019-10-14T06:19:30.395Z</time>
      </trkpt>
      <trkpt lat="27.582427" lon="86.424459">
        <ele>2092.18099968</ele>
        <time>2019-10-14T06:20:30.395Z</time>
      </trkpt>
      <trkpt lat="27.582746" lon="86.42392">
        <ele>2081.09049984</ele>
        <time>2019-10-14T06:21:30.395Z</time>
      </trkpt>
      <trkpt lat="27.583065" lon="86.423565">
        <ele>2068.18099968</ele>
        <time>2019-10-14T06:22:30.395Z</time>
      </trkpt>
      <trkpt lat="27.583168" lon="86.423252">
        <ele>2054.58099968</ele>
        <time>2019-10-14T06:23:33.395Z</time>
      </trkpt>
      <trkpt lat="27.583338" lon="86.422717">
        <ele>2043.38099968</ele>
        <time>2019-10-14T06:24:34.395Z</time>
      </trkpt>
      <trkpt lat="27.583378" lon="86.422248">
        <ele>2030.07149952</ele>
        <time>2019-10-14T06:25:34.395Z</time>
      </trkpt>
      <trkpt lat="27.583331" lon="86.421963">
        <ele>2020.78099968</ele>
        <time>2019-10-14T06:26:32.395Z</time>
      </trkpt>
      <trkpt lat="27.583177" lon="86.421832">
        <ele>2006.78099968</ele>
        <time>2019-10-14T06:27:32.395Z</time>
      </trkpt>
      <trkpt lat="27.58324" lon="86.421431">
        <ele>1993.38099968</ele>
        <time>2019-10-14T06:28:34.395Z</time>
      </trkpt>
      <trkpt lat="27.583345" lon="86.420684">
        <ele>1954.98303426233</ele>
        <time>2019-10-14T06:31:46.395Z</time>
      </trkpt>
      <trkpt lat="27.583559" lon="86.420401">
        <ele>1944.99848774194</ele>
        <time>2019-10-14T06:33:31.395Z</time>
      </trkpt>
      <trkpt lat="27.583209" lon="86.42017">
        <ele>1922.99049984</ele>
        <time>2019-10-14T06:35:11.395Z</time>
      </trkpt>
      <trkpt lat="27.583216" lon="86.419866">
        <ele>1910.98099968</ele>
        <time>2019-10-14T06:36:11.395Z</time>
      </trkpt>
      <trkpt lat="27.583039" lon="86.419766">
        <ele>1897.99049984</ele>
        <time>2019-10-14T06:37:11.395Z</time>
      </trkpt>
      <trkpt lat="27.583057" lon="86.419658">
        <ele>1893.99049984</ele>
        <time>2019-10-14T06:38:11.395Z</time>
      </trkpt>
      <trkpt lat="27.583163" lon="86.419483">
        <ele>1886.77149952</ele>
        <time>2019-10-14T06:38:55.395Z</time>
      </trkpt>
      <trkpt lat="27.583332" lon="86.419316">
        <ele>1877.27149952</ele>
        <time>2019-10-14T06:39:40.395Z</time>
      </trkpt>
      <trkpt lat="27.583621" lon="86.419066">
        <ele>1868.98099968</ele>
        <time>2019-10-14T06:40:31.395Z</time>
      </trkpt>
      <trkpt lat="27.583985" lon="86.418788">
        <ele>1856.78099968</ele>
        <time>2019-10-14T06:41:32.395Z</time>
      </trkpt>
      <trkpt lat="27.583848" lon="86.418615">
        <ele>1845.59049984</ele>
        <time>2019-10-14T06:42:35.395Z</time>
      </trkpt>
      <trkpt lat="27.583805" lon="86.418419">
        <ele>1833.98099968</ele>
        <time>2019-10-14T06:43:31.395Z</time>
      </trkpt>
      <trkpt lat="27.583899" lon="86.418026">
        <ele>1821.67149952</ele>
        <time>2019-10-14T06:44:32.395Z</time>
      </trkpt>
      <trkpt lat="27.583515" lon="86.418181">
        <ele>1810.99049984</ele>
        <time>2019-10-14T06:45:31.395Z</time>
      </trkpt>
      <trkpt lat="27.583203" lon="86.41825">
        <ele>1799.78099968</ele>
        <time>2019-10-14T06:46:32.395Z</time>
      </trkpt>
      <trkpt lat="27.583417" lon="86.417785">
        <ele>1791.89049984</ele>
        <time>2019-10-14T06:47:32.395Z</time>
      </trkpt>
      <trkpt lat="27.583309" lon="86.417488">
        <ele>1777.99049984</ele>
        <time>2019-10-14T06:48:31.395Z</time>
      </trkpt>
      <trkpt lat="27.583262" lon="86.41682">
        <ele>1770.99049984</ele>
        <time>2019-10-14T06:49:31.395Z</time>
      </trkpt>
      <trkpt lat="27.583383" lon="86.416434">
        <ele>1761.38099968</ele>
        <time>2019-10-14T06:50:29.395Z</time>
      </trkpt>
      <trkpt lat="27.583652" lon="86.416054">
        <ele>1745.18099968</ele>
        <time>2019-10-14T06:51:45.395Z</time>
      </trkpt>
      <trkpt lat="27.583564" lon="86.415834">
        <ele>1728</ele>
        <time>2019-10-14T06:53:30.395Z</time>
      </trkpt>
      <trkpt lat="27.583744" lon="86.415566">
        <ele>1712.18218299789</ele>
        <time>2019-10-14T06:55:35.395Z</time>
      </trkpt>
      <trkpt lat="27.583647" lon="86.415411">
        <ele>1701.89060933568</ele>
        <time>2019-10-14T06:56:32.395Z</time>
      </trkpt>
      <trkpt lat="27.583665" lon="86.415202">
        <ele>1691.57149952</ele>
        <time>2019-10-14T06:57:29.395Z</time>
      </trkpt>
      <trkpt lat="27.584006" lon="86.415273">
        <ele>1680.69049984</ele>
        <time>2019-10-14T06:58:34.395Z</time>
      </trkpt>
      <trkpt lat="27.58416" lon="86.415288">
        <ele>1671.58099968</ele>
        <time>2019-10-14T06:59:33.395Z</time>
      </trkpt>
      <trkpt lat="27.584322" lon="86.415093">
        <ele>1659.97149952</ele>
        <time>2019-10-14T07:00:31.395Z</time>
      </trkpt>
      <trkpt lat="27.584419" lon="86.414958">
        <ele>1648.18099968</ele>
        <time>2019-10-14T07:01:35.395Z</time>
      </trkpt>
      <trkpt lat="27.584273" lon="86.414787">
        <ele>1639.99049984</ele>
        <time>2019-10-14T07:02:31.395Z</time>
      </trkpt>
      <trkpt lat="27.584171" lon="86.414627">
        <ele>1627.78099968</ele>
        <time>2019-10-14T07:03:32.395Z</time>
      </trkpt>
      <trkpt lat="27.584324" lon="86.41436">
        <ele>1615.38099968</ele>
        <time>2019-10-14T07:04:34.395Z</time>
      </trkpt>
      <trkpt lat="27.584111" lon="86.414165">
        <ele>1604.38261861407</ele>
        <time>2019-10-14T07:05:29.395Z</time>
      </trkpt>
      <trkpt lat="27.58414" lon="86.413871">
        <ele>1594</ele>
        <time>2019-10-14T07:06:34.395Z</time>
      </trkpt>
      <trkpt lat="27.584257" lon="86.413611">
        <ele>1584.38099968</ele>
        <time>2019-10-14T07:07:29.395Z</time>
      </trkpt>
      <trkpt lat="27.584192" lon="86.413421">
        <ele>1581.39049984</ele>
        <time>2019-10-14T07:08:37.395Z</time>
      </trkpt>
      <trkpt lat="27.58427" lon="86.41318">
        <ele>1570.97149952</ele>
        <time>2019-10-14T07:09:31.395Z</time>
      </trkpt>
      <trkpt lat="27.58419" lon="86.412997">
        <ele>1557.39049984</ele>
        <time>2019-10-14T07:10:37.395Z</time>
      </trkpt>
      <trkpt lat="27.584173" lon="86.412819">
        <ele>1548.98099968</ele>
        <time>2019-10-14T07:11:31.395Z</time>
      </trkpt>
      <trkpt lat="27.584009" lon="86.412369">
        <ele>1541.59049984</ele>
        <time>2019-10-14T07:12:35.395Z</time>
      </trkpt>
      <trkpt lat="27.583969" lon="86.412175">
        <ele>1539.09049984</ele>
        <time>2019-10-14T07:13:30.395Z</time>
      </trkpt>
      <trkpt lat="27.583954" lon="86.411816">
        <ele>1536.40950016</ele>
        <time>2019-10-14T07:14:35.395Z</time>
      </trkpt>
      <trkpt lat="27.584129" lon="86.411488">
        <ele>1535</ele>
        <time>2019-10-14T07:16:31.395Z</time>
      </trkpt>
      <trkpt lat="27.584267" lon="86.411302">
        <ele>1533</ele>
        <time>2019-10-14T07:18:29.395Z</time>
      </trkpt>
      <trkpt lat="27.584431" lon="86.410945">
        <ele>1532</ele>
        <time>2019-10-14T07:19:32.395Z</time>
      </trkpt>
      <trkpt lat="27.584311" lon="86.41079">
        <ele>1530.89049984</ele>
        <time>2019-10-14T07:20:32.395Z</time>
      </trkpt>
      <trkpt lat="27.584232" lon="86.410588">
        <ele>1528</ele>
        <time>2019-10-14T07:21:30.395Z</time>
      </trkpt>
      <trkpt lat="27.58414" lon="86.409964">
        <ele>1525</ele>
        <time>2019-10-14T07:22:31.395Z</time>
      </trkpt>
      <trkpt lat="27.584115" lon="86.409715">
        <ele>1522.99049984</ele>
        <time>2019-10-14T07:24:31.395Z</time>
      </trkpt>
      <trkpt lat="27.584046" lon="86.409414">
        <ele>1521</ele>
        <time>2019-10-14T07:25:32.395Z</time>
      </trkpt>
      <trkpt lat="27.584046" lon="86.409069">
        <ele>1517</ele>
        <time>2019-10-14T07:26:38.395Z</time>
      </trkpt>
      <trkpt lat="27.583946" lon="86.409257">
        <ele>1517</ele>
        <time>2019-10-14T07:27:32.395Z</time>
      </trkpt>
      <trkpt lat="27.584059" lon="86.40895">
        <ele>1517</ele>
        <time>2019-10-14T07:28:33.395Z</time>
      </trkpt>
      <trkpt lat="27.584487" lon="86.409116">
        <ele>1516.78278417565</ele>
        <time>2019-10-14T07:29:32.395Z</time>
      </trkpt>
      <trkpt lat="27.585016" lon="86.408664">
        <ele>1510</ele>
        <time>2019-10-14T07:30:29.395Z</time>
      </trkpt>
      <trkpt lat="27.58491" lon="86.407983">
        <ele>1510</ele>
        <time>2019-10-14T07:31:30.395Z</time>
      </trkpt>
      <trkpt lat="27.585091" lon="86.406618">
        <ele>1505.79091813754</ele>
        <time>2019-10-14T07:33:23.395Z</time>
      </trkpt>
      <trkpt lat="27.585043" lon="86.406">
        <ele>1498.58099968</ele>
        <time>2019-10-14T07:34:08.395Z</time>
      </trkpt>
      <trkpt lat="27.584944" lon="86.405127">
        <ele>1497.90950016</ele>
        <time>2019-10-14T07:35:10.395Z</time>
      </trkpt>
      <trkpt lat="27.584892" lon="86.404248">
        <ele>1497</ele>
        <time>2019-10-14T07:36:10.395Z</time>
      </trkpt>
      <trkpt lat="27.584826" lon="86.403446">
        <ele>1491.00950016</ele>
        <time>2019-10-14T07:37:11.395Z</time>
      </trkpt>
      <trkpt lat="27.584876" lon="86.402836">
        <ele>1494</ele>
        <time>2019-10-14T07:39:39.395Z</time>
      </trkpt>
      <trkpt lat="27.584925" lon="86.402491">
        <ele>1496</ele>
        <time>2019-10-14T07:40:30.395Z</time>
      </trkpt>
      <trkpt lat="27.584541" lon="86.401776">
        <ele>1495.00950016</ele>
        <time>2019-10-14T07:41:31.395Z</time>
      </trkpt>
      <trkpt lat="27.584524" lon="86.400854">
        <ele>1489.79049984</ele>
        <time>2019-10-14T07:42:33.395Z</time>
      </trkpt>
      <trkpt lat="27.584341" lon="86.399991">
        <ele>1485.89049984</ele>
        <time>2019-10-14T07:43:32.395Z</time>
      </trkpt>
      <trkpt lat="27.584198" lon="86.399269">
        <ele>1490.01701543177</ele>
        <time>2019-10-14T07:44:31.395Z</time>
      </trkpt>
      <trkpt lat="27.584111" lon="86.398342">
        <ele>1494</ele>
        <time>2019-10-14T07:45:35.395Z</time>
      </trkpt>
      <trkpt lat="27.583702" lon="86.397694">
        <ele>1496.10950016</ele>
        <time>2019-10-14T07:46:32.395Z</time>
      </trkpt>
      <trkpt lat="27.582987" lon="86.397286">
        <ele>1497.20950016</ele>
        <time>2019-10-14T07:47:33.395Z</time>
      </trkpt>
      <trkpt lat="27.582768" lon="86.397106">
        <ele>1497</ele>
        <time>2019-10-14T07:48:33.395Z</time>
      </trkpt>
      <trkpt lat="27.582484" lon="86.396716">
        <ele>1495</ele>
        <time>2019-10-14T07:49:33.395Z</time>
      </trkpt>
      <trkpt lat="27.581798" lon="86.396108">
        <ele>1484.6140992</ele>
        <time>2019-10-14T07:50:35.159Z</time>
      </trkpt>
      <trkpt lat="27.581167" lon="86.39562">
        <ele>1479.79049984</ele>
        <time>2019-10-14T07:51:33.395Z</time>
      </trkpt>
      <trkpt lat="27.58051" lon="86.395137">
        <ele>1471.38099968</ele>
        <time>2019-10-14T07:52:29.395Z</time>
      </trkpt>
      <trkpt lat="27.579632" lon="86.394933">
        <ele>1458.37149952</ele>
        <time>2019-10-14T07:53:33.395Z</time>
      </trkpt>
      <trkpt lat="27.579062" lon="86.394268">
        <ele>1455.50950016</ele>
        <time>2019-10-14T07:54:36.395Z</time>
      </trkpt>
      <trkpt lat="27.578574" lon="86.393624">
        <ele>1454</ele>
        <time>2019-10-14T07:55:33.395Z</time>
      </trkpt>
      <trkpt lat="27.577976" lon="86.393137">
        <ele>1449.7904</ele>
        <time>2019-10-14T07:56:33.395Z</time>
      </trkpt>
      <trkpt lat="27.577255" lon="86.392778">
        <ele>1442</ele>
        <time>2019-10-14T07:57:32.395Z</time>
      </trkpt>
      <trkpt lat="27.576871" lon="86.392018">
        <ele>1441</ele>
        <time>2019-10-14T07:58:35.395Z</time>
      </trkpt>
      <trkpt lat="27.576662" lon="86.39147">
        <ele>1442.80950016</ele>
        <time>2019-10-14T07:59:29.395Z</time>
      </trkpt>
      <trkpt lat="27.576225" lon="86.390905">
        <ele>1440.38099968</ele>
        <time>2019-10-14T08:00:34.395Z</time>
      </trkpt>
      <trkpt lat="27.575722" lon="86.390224">
        <ele>1435</ele>
        <time>2019-10-14T08:01:29.395Z</time>
      </trkpt>
      <trkpt lat="27.575574" lon="86.389381">
        <ele>1435</ele>
        <time>2019-10-14T08:02:33.395Z</time>
      </trkpt>
      <trkpt lat="27.575228" lon="86.388628">
        <ele>1435.21900032</ele>
        <time>2019-10-14T08:03:32.395Z</time>
      </trkpt>
      <trkpt lat="27.57482" lon="86.388311">
        <ele>1443.21900032</ele>
        <time>2019-10-14T08:04:32.395Z</time>
      </trkpt>
      <trkpt lat="27.574461" lon="86.387977">
        <ele>1450</ele>
        <time>2019-10-14T08:05:29.395Z</time>
      </trkpt>
      <trkpt lat="27.573938" lon="86.387291">
        <ele>1453</ele>
        <time>2019-10-14T08:06:32.395Z</time>
      </trkpt>
      <trkpt lat="27.573652" lon="86.386986">
        <ele>1455</ele>
        <time>2019-10-14T08:07:32.395Z</time>
      </trkpt>
      <trkpt lat="27.573357" lon="86.386325">
        <ele>1458</ele>
        <time>2019-10-14T08:08:32.395Z</time>
      </trkpt>
      <trkpt lat="27.573084" lon="86.385627">
        <ele>1456.19049984</ele>
        <time>2019-10-14T08:09:29.395Z</time>
      </trkpt>
      <trkpt lat="27.572735" lon="86.384846">
        <ele>1447.69049984</ele>
        <time>2019-10-14T08:10:34.395Z</time>
      </trkpt>
      <trkpt lat="27.572702" lon="86.384094">
        <ele>1439.19049984</ele>
        <time>2019-10-14T08:11:29.395Z</time>
      </trkpt>
      <trkpt lat="27.572865" lon="86.38318">
        <ele>1433.19130930704</ele>
        <time>2019-10-14T08:12:29.395Z</time>
      </trkpt>
      <trkpt lat="27.57266" lon="86.382302">
        <ele>1423.69049984</ele>
        <time>2019-10-14T08:13:34.395Z</time>
      </trkpt>
      <trkpt lat="27.572338" lon="86.381577">
        <ele>1417.61229952</ele>
        <time>2019-10-14T08:14:35.177Z</time>
      </trkpt>
      <trkpt lat="27.571848" lon="86.380976">
        <ele>1416</ele>
        <time>2019-10-14T08:15:30.395Z</time>
      </trkpt>
      <trkpt lat="27.571813" lon="86.380484">
        <ele>1413</ele>
        <time>2019-10-14T08:16:37.395Z</time>
      </trkpt>
      <trkpt lat="27.571623" lon="86.380613">
        <ele>1413.81900032</ele>
        <time>2019-10-14T08:17:30.395Z</time>
      </trkpt>
      <trkpt lat="27.57108" lon="86.379944">
        <ele>1407</ele>
        <time>2019-10-14T08:18:33.395Z</time>
      </trkpt>
      <trkpt lat="27.57076" lon="86.379124">
        <ele>1404</ele>
        <time>2019-10-14T08:19:32.395Z</time>
      </trkpt>
      <trkpt lat="27.570657" lon="86.378389">
        <ele>1407.21900032</ele>
        <time>2019-10-14T08:20:32.395Z</time>
      </trkpt>
      <trkpt lat="27.570502" lon="86.37792">
        <ele>1412</ele>
        <time>2019-10-14T08:21:32.395Z</time>
      </trkpt>
      <trkpt lat="27.570198" lon="86.37812">
        <ele>1412</ele>
        <time>2019-10-14T08:24:36.395Z</time>
      </trkpt>
      <trkpt lat="27.570507" lon="86.377764">
        <ele>1415</ele>
        <time>2019-10-14T08:28:11.395Z</time>
      </trkpt>
      <trkpt lat="27.570636" lon="86.377431">
        <ele>1418.50950016</ele>
        <time>2019-10-14T08:28:56.395Z</time>
      </trkpt>
      <trkpt lat="27.570852" lon="86.377062">
        <ele>1424</ele>
        <time>2019-10-14T08:29:41.395Z</time>
      </trkpt>
      <trkpt lat="27.571006" lon="86.37667">
        <ele>1429.20950016</ele>
        <time>2019-10-14T08:30:33.395Z</time>
      </trkpt>
      <trkpt lat="27.571216" lon="86.37633">
        <ele>1436.10950016</ele>
        <time>2019-10-14T08:31:32.395Z</time>
      </trkpt>
      <trkpt lat="27.571531" lon="86.376122">
        <ele>1443.10950016</ele>
        <time>2019-10-14T08:32:32.395Z</time>
      </trkpt>
      <trkpt lat="27.571761" lon="86.375605">
        <ele>1449.00950016</ele>
        <time>2019-10-14T08:33:31.395Z</time>
      </trkpt>
      <trkpt lat="27.571977" lon="86.375447">
        <ele>1456.00302146737</ele>
        <time>2019-10-14T08:34:31.395Z</time>
      </trkpt>
      <trkpt lat="27.572082" lon="86.375154">
        <ele>1463.81900032</ele>
        <time>2019-10-14T08:35:35.395Z</time>
      </trkpt>
      <trkpt lat="27.571992" lon="86.374656">
        <ele>1467.80869069296</ele>
        <time>2019-10-14T08:36:29.395Z</time>
      </trkpt>
      <trkpt lat="27.57228" lon="86.374688">
        <ele>1474.61900032</ele>
        <time>2019-10-14T08:37:29.395Z</time>
      </trkpt>
      <trkpt lat="27.571983" lon="86.374389">
        <ele>1481.41900032</ele>
        <time>2019-10-14T08:38:33.395Z</time>
      </trkpt>
      <trkpt lat="27.57173" lon="86.374458">
        <ele>1486.41900032</ele>
        <time>2019-10-14T08:39:33.395Z</time>
      </trkpt>
      <trkpt lat="27.571689" lon="86.3742">
        <ele>1502</ele>
        <time>2019-10-14T08:41:29.395Z</time>
      </trkpt>
      <trkpt lat="27.57189" lon="86.374045">
        <ele>1504.80950016</ele>
        <time>2019-10-14T08:42:29.395Z</time>
      </trkpt>
      <trkpt lat="27.572137" lon="86.373985">
        <ele>1511</ele>
        <time>2019-10-14T08:43:33.395Z</time>
      </trkpt>
      <trkpt lat="27.572769" lon="86.37359">
        <ele>1530.69295619048</ele>
        <time>2019-10-14T08:46:24.395Z</time>
      </trkpt>
      <trkpt lat="27.572701" lon="86.373404">
        <ele>1542.01900032</ele>
        <time>2019-10-14T08:48:11.395Z</time>
      </trkpt>
      <trkpt lat="27.572779" lon="86.373253">
        <ele>1549.01900032</ele>
        <time>2019-10-14T08:49:11.395Z</time>
      </trkpt>
      <trkpt lat="27.57255" lon="86.373136">
        <ele>1557</ele>
        <time>2019-10-14T08:50:11.395Z</time>
      </trkpt>
      <trkpt lat="27.572432" lon="86.372972">
        <ele>1567.40950016</ele>
        <time>2019-10-14T08:51:55.395Z</time>
      </trkpt>
      <trkpt lat="27.572735" lon="86.372959">
        <ele>1573</ele>
        <time>2019-10-14T08:52:40.395Z</time>
      </trkpt>
      <trkpt lat="27.573012" lon="86.372569">
        <ele>1578.10950016</ele>
        <time>2019-10-14T08:53:32.395Z</time>
      </trkpt>
      <trkpt lat="27.572934" lon="86.372447">
        <ele>1585</ele>
        <time>2019-10-14T08:54:31.395Z</time>
      </trkpt>
      <trkpt lat="27.573097" lon="86.372236">
        <ele>1587.80950016</ele>
        <time>2019-10-14T08:55:29.395Z</time>
      </trkpt>
      <trkpt lat="27.573321" lon="86.372142">
        <ele>1594</ele>
        <time>2019-10-14T08:56:30.395Z</time>
      </trkpt>
      <trkpt lat="27.573412" lon="86.371967">
        <ele>1603.21900032</ele>
        <time>2019-10-14T08:57:32.395Z</time>
      </trkpt>
      <trkpt lat="27.573322" lon="86.371501">
        <ele>1608.90940948252</ele>
        <time>2019-10-14T08:58:30.395Z</time>
      </trkpt>
      <trkpt lat="27.573135" lon="86.371674">
        <ele>1618.00503492609</ele>
        <time>2019-10-14T08:59:51.395Z</time>
      </trkpt>
      <trkpt lat="27.573217" lon="86.371752">
        <ele>1623.01900032</ele>
        <time>2019-10-14T09:00:36.395Z</time>
      </trkpt>
      <trkpt lat="27.57316" lon="86.371408">
        <ele>1630</ele>
        <time>2019-10-14T09:01:30.395Z</time>
      </trkpt>
      <trkpt lat="27.572968" lon="86.371408">
        <ele>1637.21878132864</ele>
        <time>2019-10-14T09:02:32.395Z</time>
      </trkpt>
      <trkpt lat="27.57281" lon="86.371171">
        <ele>1643.81900032</ele>
        <time>2019-10-14T09:03:30.395Z</time>
      </trkpt>
      <trkpt lat="27.572574" lon="86.371299">
        <ele>1651</ele>
        <time>2019-10-14T09:04:29.395Z</time>
      </trkpt>
      <trkpt lat="27.57238" lon="86.37126">
        <ele>1658.00950016</ele>
        <time>2019-10-14T09:05:31.395Z</time>
      </trkpt>
      <trkpt lat="27.572254" lon="86.371125">
        <ele>1664.81900032</ele>
        <time>2019-10-14T09:06:30.395Z</time>
      </trkpt>
      <trkpt lat="27.572379" lon="86.371063">
        <ele>1671</ele>
        <time>2019-10-14T09:07:29.395Z</time>
      </trkpt>
      <trkpt lat="27.572217" lon="86.370912">
        <ele>1677.90950016</ele>
        <time>2019-10-14T09:08:30.395Z</time>
      </trkpt>
      <trkpt lat="27.572369" lon="86.370538">
        <ele>1681</ele>
        <time>2019-10-14T09:09:30.395Z</time>
      </trkpt>
      <trkpt lat="27.572838" lon="86.37056">
        <ele>1686.01900032</ele>
        <time>2019-10-14T09:10:31.395Z</time>
      </trkpt>
      <trkpt lat="27.57296" lon="86.37021">
        <ele>1692.80950016</ele>
        <time>2019-10-14T09:11:29.395Z</time>
      </trkpt>
      <trkpt lat="27.573031" lon="86.370044">
        <ele>1699.81718139411</ele>
        <time>2019-10-14T09:12:30.395Z</time>
      </trkpt>
      <trkpt lat="27.573215" lon="86.369811">
        <ele>1707.00352064613</ele>
        <time>2019-10-14T09:13:31.395Z</time>
      </trkpt>
      <trkpt lat="27.573202" lon="86.36962">
        <ele>1713.00850771588</ele>
        <time>2019-10-14T09:14:31.395Z</time>
      </trkpt>
      <trkpt lat="27.573188" lon="86.369267">
        <ele>1718.00950016</ele>
        <time>2019-10-14T09:15:31.395Z</time>
      </trkpt>
      <trkpt lat="27.573265" lon="86.36903">
        <ele>1724.10950016</ele>
        <time>2019-10-14T09:16:32.395Z</time>
      </trkpt>
      <trkpt lat="27.573304" lon="86.368634">
        <ele>1728</ele>
        <time>2019-10-14T09:17:31.395Z</time>
      </trkpt>
      <trkpt lat="27.573445" lon="86.368255">
        <ele>1731.80950016</ele>
        <time>2019-10-14T09:18:29.395Z</time>
      </trkpt>
      <trkpt lat="27.573423" lon="86.367576">
        <ele>1735.21900032</ele>
        <time>2019-10-14T09:19:32.395Z</time>
      </trkpt>
      <trkpt lat="27.573626" lon="86.367181">
        <ele>1743.81900032</ele>
        <time>2019-10-14T09:20:30.395Z</time>
      </trkpt>
      <trkpt lat="27.573859" lon="86.366678">
        <ele>1750.00950016</ele>
        <time>2019-10-14T09:21:31.395Z</time>
      </trkpt>
      <trkpt lat="27.574066" lon="86.366357">
        <ele>1756.90950016</ele>
        <time>2019-10-14T09:22:30.395Z</time>
      </trkpt>
      <trkpt lat="27.573965" lon="86.365882">
        <ele>1763.00950016</ele>
        <time>2019-10-14T09:23:31.395Z</time>
      </trkpt>
      <trkpt lat="27.573854" lon="86.365576">
        <ele>1777.80950016</ele>
        <time>2019-10-14T09:26:29.395Z</time>
      </trkpt>
      <trkpt lat="27.573619" lon="86.365636">
        <ele>1783.81900032</ele>
        <time>2019-10-14T09:27:30.395Z</time>
      </trkpt>
      <trkpt lat="27.57368" lon="86.365458">
        <ele>1789.90950016</ele>
        <time>2019-10-14T09:28:30.395Z</time>
      </trkpt>
      <trkpt lat="27.573543" lon="86.365545">
        <ele>1798.00850771588</ele>
        <time>2019-10-14T09:29:31.395Z</time>
      </trkpt>
      <trkpt lat="27.573379" lon="86.365547">
        <ele>1801.89049984</ele>
        <time>2019-10-14T09:30:32.395Z</time>
      </trkpt>
      <trkpt lat="27.573166" lon="86.36561">
        <ele>1813.80950016</ele>
        <time>2019-10-14T09:34:29.395Z</time>
      </trkpt>
      <trkpt lat="27.572994" lon="86.365484">
        <ele>1820.10950016</ele>
        <time>2019-10-14T09:35:32.395Z</time>
      </trkpt>
      <trkpt lat="27.573267" lon="86.365446">
        <ele>1822</ele>
        <time>2019-10-14T09:36:29.395Z</time>
      </trkpt>
      <trkpt lat="27.573185" lon="86.365134">
        <ele>1826</ele>
        <time>2019-10-14T09:37:29.395Z</time>
      </trkpt>
      <trkpt lat="27.573112" lon="86.364824">
        <ele>1833.90950016</ele>
        <time>2019-10-14T09:38:30.395Z</time>
      </trkpt>
      <trkpt lat="27.572973" lon="86.364874">
        <ele>1841.10950016</ele>
        <time>2019-10-14T09:39:32.395Z</time>
      </trkpt>
      <trkpt lat="27.572869" lon="86.36477">
        <ele>1847.00950016</ele>
        <time>2019-10-14T09:40:31.395Z</time>
      </trkpt>
      <trkpt lat="27.572815" lon="86.364919">
        <ele>1853.21900032</ele>
        <time>2019-10-14T09:41:32.395Z</time>
      </trkpt>
      <trkpt lat="27.572659" lon="86.364918">
        <ele>1858.80950016</ele>
        <time>2019-10-14T09:42:29.395Z</time>
      </trkpt>
      <trkpt lat="27.572399" lon="86.364802">
        <ele>1864.90768421066</ele>
        <time>2019-10-14T09:43:30.395Z</time>
      </trkpt>
      <trkpt lat="27.572375" lon="86.364628">
        <ele>1872.81900032</ele>
        <time>2019-10-14T09:44:30.395Z</time>
      </trkpt>
      <trkpt lat="27.572148" lon="86.364952">
        <ele>1876.81900032</ele>
        <time>2019-10-14T09:45:30.395Z</time>
      </trkpt>
      <trkpt lat="27.572225" lon="86.36503">
        <ele>1884</ele>
        <time>2019-10-14T09:46:31.395Z</time>
      </trkpt>
      <trkpt lat="27.572086" lon="86.364991">
        <ele>1890.61900032</ele>
        <time>2019-10-14T09:47:29.395Z</time>
      </trkpt>
      <trkpt lat="27.572012" lon="86.364315">
        <ele>1901.47910016</ele>
        <time>2019-10-14T09:49:36.091Z</time>
      </trkpt>
      <trkpt lat="27.571986" lon="86.364146">
        <ele>1904.00950016</ele>
        <time>2019-10-14T09:50:31.395Z</time>
      </trkpt>
      <trkpt lat="27.571923" lon="86.363632">
        <ele>1910.21900032</ele>
        <time>2019-10-14T09:51:32.395Z</time>
      </trkpt>
      <trkpt lat="27.571737" lon="86.363132">
        <ele>1915.21900032</ele>
        <time>2019-10-14T09:52:32.395Z</time>
      </trkpt>
      <trkpt lat="27.571377" lon="86.362838">
        <ele>1919</ele>
        <time>2019-10-14T09:53:31.395Z</time>
      </trkpt>
      <trkpt lat="27.57103" lon="86.362934">
        <ele>1919.20950016</ele>
        <time>2019-10-14T09:54:33.395Z</time>
      </trkpt>
      <trkpt lat="27.570627" lon="86.362381">
        <ele>1918.99049984</ele>
        <time>2019-10-14T09:55:31.395Z</time>
      </trkpt>
      <trkpt lat="27.570155" lon="86.361854">
        <ele>1920</ele>
        <time>2019-10-14T09:56:32.395Z</time>
      </trkpt>
      <trkpt lat="27.570097" lon="86.361449">
        <ele>1924</ele>
        <time>2019-10-14T09:57:29.395Z</time>
      </trkpt>
      <trkpt lat="27.569877" lon="86.360945">
        <ele>1927.81900032</ele>
        <time>2019-10-14T09:58:30.395Z</time>
      </trkpt>
      <trkpt lat="27.570038" lon="86.360319">
        <ele>1930</ele>
        <time>2019-10-14T09:59:29.395Z</time>
      </trkpt>
      <trkpt lat="27.570122" lon="86.35976">
        <ele>1935</ele>
        <time>2019-10-14T10:00:30.395Z</time>
      </trkpt>
      <trkpt lat="27.570162" lon="86.359203">
        <ele>1938.80950016</ele>
        <time>2019-10-14T10:01:29.395Z</time>
      </trkpt>
      <trkpt lat="27.570321" lon="86.35849">
        <ele>1941</ele>
        <time>2019-10-14T10:02:29.395Z</time>
      </trkpt>
      <trkpt lat="27.570406" lon="86.358034">
        <ele>1941</ele>
        <time>2019-10-14T10:03:31.395Z</time>
      </trkpt>
      <trkpt lat="27.570279" lon="86.357539">
        <ele>1943</ele>
        <time>2019-10-14T10:04:31.395Z</time>
      </trkpt>
      <trkpt lat="27.570246" lon="86.357248">
        <ele>1944</ele>
        <time>2019-10-14T10:06:30.395Z</time>
      </trkpt>
      <trkpt lat="27.57009" lon="86.356569">
        <ele>1948.90950016</ele>
        <time>2019-10-14T10:07:30.395Z</time>
      </trkpt>
      <trkpt lat="27.569985" lon="86.355821">
        <ele>1952.21900032</ele>
        <time>2019-10-14T10:08:32.395Z</time>
      </trkpt>
      <trkpt lat="27.569938" lon="86.355166">
        <ele>1959</ele>
        <time>2019-10-14T10:09:32.395Z</time>
      </trkpt>
      <trkpt lat="27.569787" lon="86.35453">
        <ele>1963</ele>
        <time>2019-10-14T10:10:29.395Z</time>
      </trkpt>
      <trkpt lat="27.569906" lon="86.35388">
        <ele>1969</ele>
        <time>2019-10-14T10:11:29.395Z</time>
      </trkpt>
      <trkpt lat="27.57019" lon="86.35331">
        <ele>1974.80950016</ele>
        <time>2019-10-14T10:12:29.395Z</time>
      </trkpt>
      <trkpt lat="27.57032" lon="86.352714">
        <ele>1981.00950016</ele>
        <time>2019-10-14T10:13:31.395Z</time>
      </trkpt>
      <trkpt lat="27.570456" lon="86.352077">
        <ele>1985.90940948252</ele>
        <time>2019-10-14T10:14:30.395Z</time>
      </trkpt>
      <trkpt lat="27.570764" lon="86.351408">
        <ele>1992.10950016</ele>
        <time>2019-10-14T10:15:32.395Z</time>
      </trkpt>
      <trkpt lat="27.570563" lon="86.350739">
        <ele>1994</ele>
        <time>2019-10-14T10:16:30.395Z</time>
      </trkpt>
      <trkpt lat="27.570358" lon="86.350243">
        <ele>1999</ele>
        <time>2019-10-14T10:17:29.395Z</time>
      </trkpt>
      <trkpt lat="27.570411" lon="86.349814">
        <ele>1999.00950016</ele>
        <time>2019-10-14T10:18:31.395Z</time>
      </trkpt>
      <trkpt lat="27.570342" lon="86.349482">
        <ele>2002.19049984</ele>
        <time>2019-10-14T10:19:29.395Z</time>
      </trkpt>
      <trkpt lat="27.570563" lon="86.349355">
        <ele>2002.00950016</ele>
        <time>2019-10-14T10:23:31.395Z</time>
      </trkpt>
      <trkpt lat="27.570492" lon="86.348792">
        <ele>2005.80950016</ele>
        <time>2019-10-14T10:24:29.395Z</time>
      </trkpt>
      <trkpt lat="27.570737" lon="86.34821">
        <ele>2012.01900032</ele>
        <time>2019-10-14T10:25:31.395Z</time>
      </trkpt>
      <trkpt lat="27.570967" lon="86.347716">
        <ele>2017.90950016</ele>
        <time>2019-10-14T10:26:30.395Z</time>
      </trkpt>
      <trkpt lat="27.571108" lon="86.34714">
        <ele>2019</ele>
        <time>2019-10-14T10:27:29.395Z</time>
      </trkpt>
      <trkpt lat="27.571065" lon="86.346828">
        <ele>2023.90950016</ele>
        <time>2019-10-14T10:28:30.395Z</time>
      </trkpt>
      <trkpt lat="27.571194" lon="86.346234">
        <ele>2028</ele>
        <time>2019-10-14T10:29:29.395Z</time>
      </trkpt>
      <trkpt lat="27.571468" lon="86.34588">
        <ele>2036.00950016</ele>
        <time>2019-10-14T10:30:31.395Z</time>
      </trkpt>
      <trkpt lat="27.571679" lon="86.34541">
        <ele>2042.41900032</ele>
        <time>2019-10-14T10:31:33.395Z</time>
      </trkpt>
      <trkpt lat="27.571654" lon="86.344899">
        <ele>2049.21900032</ele>
        <time>2019-10-14T10:32:32.395Z</time>
      </trkpt>
      <trkpt lat="27.571959" lon="86.344422">
        <ele>2055</ele>
        <time>2019-10-14T10:33:31.395Z</time>
      </trkpt>
      <trkpt lat="27.572105" lon="86.344115">
        <ele>2060.90950016</ele>
        <time>2019-10-14T10:34:30.395Z</time>
      </trkpt>
      <trkpt lat="27.572335" lon="86.34365">
        <ele>2066.90950016</ele>
        <time>2019-10-14T10:35:30.395Z</time>
      </trkpt>
      <trkpt lat="27.572754" lon="86.343126">
        <ele>2073</ele>
        <time>2019-10-14T10:36:31.395Z</time>
      </trkpt>
      <trkpt lat="27.57276" lon="86.34258">
        <ele>2079</ele>
        <time>2019-10-14T10:37:32.395Z</time>
      </trkpt>
      <trkpt lat="27.572579" lon="86.342069">
        <ele>2085.00850771588</ele>
        <time>2019-10-14T10:38:31.395Z</time>
      </trkpt>
      <trkpt lat="27.572427" lon="86.341635">
        <ele>2090.32850048</ele>
        <time>2019-10-14T10:39:32.395Z</time>
      </trkpt>
      <trkpt lat="27.572283" lon="86.341192">
        <ele>2098.00950016</ele>
        <time>2019-10-14T10:40:31.395Z</time>
      </trkpt>
      <trkpt lat="27.572178" lon="86.340718">
        <ele>2104.00950016</ele>
        <time>2019-10-14T10:41:31.395Z</time>
      </trkpt>
      <trkpt lat="27.572235" lon="86.34019">
        <ele>2109.01900032</ele>
        <time>2019-10-14T10:42:31.395Z</time>
      </trkpt>
      <trkpt lat="27.571677" lon="86.340055">
        <ele>2115</ele>
        <time>2019-10-14T10:43:32.395Z</time>
      </trkpt>
      <trkpt lat="27.571167" lon="86.339765">
        <ele>2118.00950016</ele>
        <time>2019-10-14T10:44:31.395Z</time>
      </trkpt>
      <trkpt lat="27.571042" lon="86.339751">
        <ele>2119.09049984</ele>
        <time>2019-10-14T10:45:30.395Z</time>
      </trkpt>
      <trkpt lat="27.571037" lon="86.339416">
        <ele>2125</ele>
        <time>2019-10-14T10:46:33.395Z</time>
      </trkpt>
      <trkpt lat="27.571161" lon="86.339391">
        <ele>2125</ele>
        <time>2019-10-14T10:47:31.395Z</time>
      </trkpt>
      <trkpt lat="27.570977" lon="86.339461">
        <ele>2126</ele>
        <time>2019-10-14T10:48:33.395Z</time>
      </trkpt>
      <trkpt lat="27.571141" lon="86.33947">
        <ele>2126</ele>
        <time>2019-10-14T10:50:31.395Z</time>
      </trkpt>
      <trkpt lat="27.570946" lon="86.339407">
        <ele>2126</ele>
        <time>2019-10-14T10:51:31.395Z</time>
      </trkpt>
      <trkpt lat="27.571056" lon="86.339236">
        <ele>2128</ele>
        <time>2019-10-14T11:00:03.395Z</time>
      </trkpt>
      <trkpt lat="27.570996" lon="86.339384">
        <ele>2128</ele>
        <time>2019-10-14T11:00:48.395Z</time>
      </trkpt>
      <trkpt lat="27.570972" lon="86.339159">
        <ele>2128</ele>
        <time>2019-10-14T11:11:31.395Z</time>
      </trkpt>
      <trkpt lat="27.570999" lon="86.339451">
        <ele>2128</ele>
        <time>2019-10-14T11:12:56.395Z</time>
      </trkpt>
      <trkpt lat="27.571015" lon="86.339284">
        <ele>2128</ele>
        <time>2019-10-14T11:13:41.395Z</time>
      </trkpt>
      <trkpt lat="27.570984" lon="86.339515">
        <ele>2128</ele>
        <time>2019-10-14T11:15:08.395Z</time>
      </trkpt>
      <trkpt lat="27.570996" lon="86.339401">
        <ele>2128</ele>
        <time>2019-10-14T11:17:25.395Z</time>
      </trkpt>
      <trkpt lat="27.571003" lon="86.33935">
        <ele>2128</ele>
        <time>2019-10-14T11:19:11.395Z</time>
      </trkpt>
      <trkpt lat="27.571064" lon="86.339135">
        <ele>2128</ele>
        <time>2019-10-14T11:24:11.395Z</time>
      </trkpt>
      <trkpt lat="27.5709" lon="86.338772">
        <ele>2131.01900032</ele>
        <time>2019-10-14T11:25:11.395Z</time>
      </trkpt>
      <trkpt lat="27.570985" lon="86.338303">
        <ele>2136.01701543177</ele>
        <time>2019-10-14T11:26:11.395Z</time>
      </trkpt>
      <trkpt lat="27.570825" lon="86.337968">
        <ele>2141.50950016</ele>
        <time>2019-10-14T11:26:56.395Z</time>
      </trkpt>
      <trkpt lat="27.570924" lon="86.337646">
        <ele>2148</ele>
        <time>2019-10-14T11:27:41.395Z</time>
      </trkpt>
      <trkpt lat="27.571024" lon="86.337211">
        <ele>2154</ele>
        <time>2019-10-14T11:28:51.255Z</time>
      </trkpt>
      <trkpt lat="27.571355" lon="86.336996">
        <ele>2157</ele>
        <time>2019-10-14T11:30:29.395Z</time>
      </trkpt>
      <trkpt lat="27.57187" lon="86.336576">
        <ele>2161.80950016</ele>
        <time>2019-10-14T11:31:29.395Z</time>
      </trkpt>
      <trkpt lat="27.572034" lon="86.33628">
        <ele>2170.01900032</ele>
        <time>2019-10-14T11:32:31.395Z</time>
      </trkpt>
      <trkpt lat="27.572201" lon="86.335795">
        <ele>2176.01900032</ele>
        <time>2019-10-14T11:33:31.395Z</time>
      </trkpt>
      <trkpt lat="27.572304" lon="86.335403">
        <ele>2183.10950016</ele>
        <time>2019-10-14T11:34:32.395Z</time>
      </trkpt>
      <trkpt lat="27.572366" lon="86.335076">
        <ele>2189.28880128</ele>
        <time>2019-10-14T11:35:34.188Z</time>
      </trkpt>
      <trkpt lat="27.572527" lon="86.334828">
        <ele>2197</ele>
        <time>2019-10-14T11:36:34.395Z</time>
      </trkpt>
      <trkpt lat="27.572674" lon="86.334536">
        <ele>2201.90950016</ele>
        <time>2019-10-14T11:37:30.395Z</time>
      </trkpt>
      <trkpt lat="27.572869" lon="86.334246">
        <ele>2208.20950016</ele>
        <time>2019-10-14T11:38:33.395Z</time>
      </trkpt>
      <trkpt lat="27.573031" lon="86.334004">
        <ele>2213.80950016</ele>
        <time>2019-10-14T11:39:29.395Z</time>
      </trkpt>
      <trkpt lat="27.573422" lon="86.333949">
        <ele>2219</ele>
        <time>2019-10-14T11:40:29.395Z</time>
      </trkpt>
      <trkpt lat="27.573857" lon="86.33396">
        <ele>2226.21900032</ele>
        <time>2019-10-14T11:41:32.395Z</time>
      </trkpt>
      <trkpt lat="27.574167" lon="86.333757">
        <ele>2232.21900032</ele>
        <time>2019-10-14T11:42:32.395Z</time>
      </trkpt>
      <trkpt lat="27.574199" lon="86.333572">
        <ele>2240</ele>
        <time>2019-10-14T11:43:33.395Z</time>
      </trkpt>
      <trkpt lat="27.574319" lon="86.33357">
        <ele>2247.42850048</ele>
        <time>2019-10-14T11:44:29.395Z</time>
      </trkpt>
      <trkpt lat="27.574673" lon="86.333489">
        <ele>2254</ele>
        <time>2019-10-14T11:45:31.395Z</time>
      </trkpt>
      <trkpt lat="27.57468" lon="86.333326">
        <ele>2260.10950016</ele>
        <time>2019-10-14T11:46:32.395Z</time>
      </trkpt>
      <trkpt lat="27.574791" lon="86.333281">
        <ele>2266</ele>
        <time>2019-10-14T11:47:32.395Z</time>
      </trkpt>
      <trkpt lat="27.575041" lon="86.333194">
        <ele>2272</ele>
        <time>2019-10-14T11:48:32.395Z</time>
      </trkpt>
      <trkpt lat="27.575298" lon="86.333406">
        <ele>2282.61900032</ele>
        <time>2019-10-14T11:50:29.395Z</time>
      </trkpt>
      <trkpt lat="27.575512" lon="86.33353">
        <ele>2290</ele>
        <time>2019-10-14T11:51:32.395Z</time>
      </trkpt>
      <trkpt lat="27.575751" lon="86.333471">
        <ele>2295</ele>
        <time>2019-10-14T11:52:29.395Z</time>
      </trkpt>
      <trkpt lat="27.575829" lon="86.333245">
        <ele>2302.81900032</ele>
        <time>2019-10-14T11:53:30.395Z</time>
      </trkpt>
      <trkpt lat="27.575746" lon="86.333065">
        <ele>2307.80950016</ele>
        <time>2019-10-14T11:54:29.395Z</time>
      </trkpt>
      <trkpt lat="27.575937" lon="86.333024">
        <ele>2315.10950016</ele>
        <time>2019-10-14T11:55:32.395Z</time>
      </trkpt>
      <trkpt lat="27.5762" lon="86.332975">
        <ele>2327.90950016</ele>
        <time>2019-10-14T11:57:30.395Z</time>
      </trkpt>
      <trkpt lat="27.576406" lon="86.333024">
        <ele>2334</ele>
        <time>2019-10-14T11:58:33.395Z</time>
      </trkpt>
      <trkpt lat="27.576579" lon="86.333006">
        <ele>2339.81900032</ele>
        <time>2019-10-14T11:59:35.395Z</time>
      </trkpt>
      <trkpt lat="27.576782" lon="86.332877">
        <ele>2345.21900032</ele>
        <time>2019-10-14T12:00:32.395Z</time>
      </trkpt>
      <trkpt lat="27.576889" lon="86.332909">
        <ele>2351.42850048</ele>
        <time>2019-10-14T12:01:29.395Z</time>
      </trkpt>
      <trkpt lat="27.577079" lon="86.332968">
        <ele>2357.80869069296</ele>
        <time>2019-10-14T12:02:29.395Z</time>
      </trkpt>
      <trkpt lat="27.577266" lon="86.332809">
        <ele>2365.10950016</ele>
        <time>2019-10-14T12:03:32.395Z</time>
      </trkpt>
      <trkpt lat="27.577385" lon="86.332676">
        <ele>2370.80950016</ele>
        <time>2019-10-14T12:04:29.395Z</time>
      </trkpt>
      <trkpt lat="27.577551" lon="86.332471">
        <ele>2376.62850048</ele>
        <time>2019-10-14T12:05:33.395Z</time>
      </trkpt>
      <trkpt lat="27.577456" lon="86.332308">
        <ele>2385.00950016</ele>
        <time>2019-10-14T12:06:31.395Z</time>
      </trkpt>
      <trkpt lat="27.577676" lon="86.332026">
        <ele>2390.21900032</ele>
        <time>2019-10-14T12:07:32.395Z</time>
      </trkpt>
      <trkpt lat="27.577799" lon="86.331816">
        <ele>2403.61900032</ele>
        <time>2019-10-14T12:09:29.395Z</time>
      </trkpt>
      <trkpt lat="27.577957" lon="86.331545">
        <ele>2410.00850771588</ele>
        <time>2019-10-14T12:10:31.395Z</time>
      </trkpt>
      <trkpt lat="27.57806" lon="86.331319">
        <ele>2422</ele>
        <time>2019-10-14T12:12:31.395Z</time>
      </trkpt>
      <trkpt lat="27.578239" lon="86.3312">
        <ele>2434.10950016</ele>
        <time>2019-10-14T12:14:32.395Z</time>
      </trkpt>
      <trkpt lat="27.578279" lon="86.331076">
        <ele>2441</ele>
        <time>2019-10-14T12:15:31.395Z</time>
      </trkpt>
      <trkpt lat="27.578429" lon="86.330972">
        <ele>2452.01900032</ele>
        <time>2019-10-14T12:17:31.395Z</time>
      </trkpt>
      <trkpt lat="27.578667" lon="86.330737">
        <ele>2465.21900032</ele>
        <time>2019-10-14T12:19:37.395Z</time>
      </trkpt>
      <trkpt lat="27.578672" lon="86.330593">
        <ele>2470.29750016</ele>
        <time>2019-10-14T12:20:34.275Z</time>
      </trkpt>
      <trkpt lat="27.578701" lon="86.330792">
        <ele>2483.30950016</ele>
        <time>2019-10-14T12:22:34.395Z</time>
      </trkpt>
      <trkpt lat="27.578812" lon="86.330983">
        <ele>2489.41858133682</ele>
        <time>2019-10-14T12:23:33.395Z</time>
      </trkpt>
      <trkpt lat="27.579072" lon="86.331036">
        <ele>2502.21900032</ele>
        <time>2019-10-14T12:25:32.395Z</time>
      </trkpt>
      <trkpt lat="27.579163" lon="86.33121">
        <ele>2507.80950016</ele>
        <time>2019-10-14T12:26:29.395Z</time>
      </trkpt>
      <trkpt lat="27.579443" lon="86.331219">
        <ele>2514.81900032</ele>
        <time>2019-10-14T12:27:30.395Z</time>
      </trkpt>
      <trkpt lat="27.579553" lon="86.33106">
        <ele>2522.00950016</ele>
        <time>2019-10-14T12:28:31.395Z</time>
      </trkpt>
      <trkpt lat="27.579751" lon="86.331034">
        <ele>2528</ele>
        <time>2019-10-14T12:29:32.395Z</time>
      </trkpt>
      <trkpt lat="27.580012" lon="86.331077">
        <ele>2535.10860791218</ele>
        <time>2019-10-14T12:30:32.395Z</time>
      </trkpt>
      <trkpt lat="27.580277" lon="86.331107">
        <ele>2542.21900032</ele>
        <time>2019-10-14T12:33:32.395Z</time>
      </trkpt>
      <trkpt lat="27.580411" lon="86.33103">
        <ele>2549.21900032</ele>
        <time>2019-10-14T12:34:32.395Z</time>
      </trkpt>
      <trkpt lat="27.580659" lon="86.330942">
        <ele>2554.19049984</ele>
        <time>2019-10-14T12:35:29.395Z</time>
      </trkpt>
      <trkpt lat="27.581192" lon="86.330858">
        <ele>2554.00950016</ele>
        <time>2019-10-14T12:36:31.395Z</time>
      </trkpt>
      <trkpt lat="27.581423" lon="86.330743">
        <ele>2560.90950016</ele>
        <time>2019-10-14T12:37:30.395Z</time>
      </trkpt>
      <trkpt lat="27.58147" lon="86.33086">
        <ele>2562.90950016</ele>
        <time>2019-10-14T12:38:30.395Z</time>
      </trkpt>
      <trkpt lat="27.581688" lon="86.330802">
        <ele>2568.00950016</ele>
        <time>2019-10-14T12:39:31.395Z</time>
      </trkpt>
      <trkpt lat="27.582056" lon="86.330881">
        <ele>2575.30950016</ele>
        <time>2019-10-14T12:40:34.395Z</time>
      </trkpt>
      <trkpt lat="27.582198" lon="86.330852">
        <ele>2582.78099968</ele>
        <time>2019-10-14T12:41:32.395Z</time>
      </trkpt>
      <trkpt lat="27.582307" lon="86.330567">
        <ele>2588.41900032</ele>
        <time>2019-10-14T12:42:33.395Z</time>
      </trkpt>
      <trkpt lat="27.582439" lon="86.330507">
        <ele>2589.19049984</ele>
        <time>2019-10-14T12:43:29.395Z</time>
      </trkpt>
      <trkpt lat="27.582302" lon="86.330467">
        <ele>2591.19049984</ele>
        <time>2019-10-14T12:44:29.395Z</time>
      </trkpt>
      <trkpt lat="27.582589" lon="86.330564">
        <ele>2591</ele>
        <time>2019-10-14T12:45:32.395Z</time>
      </trkpt>
      <trkpt lat="27.582574" lon="86.330403">
        <ele>2591.99049984</ele>
        <time>2019-10-14T12:46:31.395Z</time>
      </trkpt>
      <trkpt lat="27.582483" lon="86.330462">
        <ele>2593</ele>
        <time>2019-10-14T12:47:33.395Z</time>
      </trkpt>
      <trkpt lat="27.582476" lon="86.33063">
        <ele>2742.60009765625</ele>
        <time>2019-10-15T06:01:40.123Z</time>
      </trkpt>
      <trkpt lat="27.582378" lon="86.330592">
        <ele>2577</ele>
        <time>2019-10-15T06:01:54.123Z</time>
      </trkpt>
      <trkpt lat="27.582521" lon="86.330191">
        <ele>2576.28170112</ele>
        <time>2019-10-15T06:02:56.123Z</time>
      </trkpt>
      <trkpt lat="27.582663" lon="86.330065">
        <ele>2573</ele>
        <time>2019-10-15T06:04:06.123Z</time>
      </trkpt>
      <trkpt lat="27.58304" lon="86.329791">
        <ele>2562.36340224</ele>
        <time>2019-10-15T06:05:07.123Z</time>
      </trkpt>
      <trkpt lat="27.583332" lon="86.329659">
        <ele>2553.72680448</ele>
        <time>2019-10-15T06:06:07.123Z</time>
      </trkpt>
      <trkpt lat="27.583929" lon="86.329731">
        <ele>2541.74510336</ele>
        <time>2019-10-15T06:07:13.123Z</time>
      </trkpt>
      <trkpt lat="27.584444" lon="86.329866">
        <ele>2526.36340224</ele>
        <time>2019-10-15T06:08:17.123Z</time>
      </trkpt>
      <trkpt lat="27.584887" lon="86.330056">
        <ele>2512.74510336</ele>
        <time>2019-10-15T06:09:23.123Z</time>
      </trkpt>
      <trkpt lat="27.585171" lon="86.330298">
        <ele>2499.56340224</ele>
        <time>2019-10-15T06:10:26.123Z</time>
      </trkpt>
      <trkpt lat="27.585467" lon="86.330275">
        <ele>2490.58170112</ele>
        <time>2019-10-15T06:11:33.123Z</time>
      </trkpt>
      <trkpt lat="27.585881" lon="86.330182">
        <ele>2476.76340224</ele>
        <time>2019-10-15T06:12:45.123Z</time>
      </trkpt>
      <trkpt lat="27.586101" lon="86.330038">
        <ele>2465</ele>
        <time>2019-10-15T06:13:46.123Z</time>
      </trkpt>
      <trkpt lat="27.586776" lon="86.32999">
        <ele>2445.14510336</ele>
        <time>2019-10-15T06:15:25.123Z</time>
      </trkpt>
      <trkpt lat="27.587002" lon="86.330244">
        <ele>2439.88170112</ele>
        <time>2019-10-15T06:16:10.123Z</time>
      </trkpt>
      <trkpt lat="27.587206" lon="86.330418">
        <ele>2429.14510336</ele>
        <time>2019-10-15T06:16:55.123Z</time>
      </trkpt>
      <trkpt lat="27.587484" lon="86.330009">
        <ele>2423</ele>
        <time>2019-10-15T06:17:47.123Z</time>
      </trkpt>
      <trkpt lat="27.58758" lon="86.32931">
        <ele>2420.38170112</ele>
        <time>2019-10-15T06:18:45.123Z</time>
      </trkpt>
      <trkpt lat="27.587935" lon="86.328833">
        <ele>2417</ele>
        <time>2019-10-15T06:19:45.123Z</time>
      </trkpt>
      <trkpt lat="27.588154" lon="86.32828">
        <ele>2409</ele>
        <time>2019-10-15T06:20:43.123Z</time>
      </trkpt>
      <trkpt lat="27.5885" lon="86.32791">
        <ele>2400.18170112</ele>
        <time>2019-10-15T06:21:47.123Z</time>
      </trkpt>
      <trkpt lat="27.588916" lon="86.327346">
        <ele>2393.56340224</ele>
        <time>2019-10-15T06:22:46.123Z</time>
      </trkpt>
      <trkpt lat="27.589115" lon="86.326816">
        <ele>2387</ele>
        <time>2019-10-15T06:23:44.123Z</time>
      </trkpt>
      <trkpt lat="27.58961" lon="86.326464">
        <ele>2383.28170112</ele>
        <time>2019-10-15T06:24:46.123Z</time>
      </trkpt>
      <trkpt lat="27.589956" lon="86.326395">
        <ele>2375</ele>
        <time>2019-10-15T06:25:47.123Z</time>
      </trkpt>
      <trkpt lat="27.590343" lon="86.326383">
        <ele>2365.18170112</ele>
        <time>2019-10-15T06:26:47.123Z</time>
      </trkpt>
      <trkpt lat="27.590668" lon="86.326651">
        <ele>2355.38170112</ele>
        <time>2019-10-15T06:27:45.123Z</time>
      </trkpt>
      <trkpt lat="27.590856" lon="86.326459">
        <ele>2349.71829888</ele>
        <time>2019-10-15T06:28:46.123Z</time>
      </trkpt>
      <trkpt lat="27.591358" lon="86.326303">
        <ele>2345.12680448</ele>
        <time>2019-10-15T06:29:46.123Z</time>
      </trkpt>
      <trkpt lat="27.59186" lon="86.326603">
        <ele>2336</ele>
        <time>2019-10-15T06:30:47.123Z</time>
      </trkpt>
      <trkpt lat="27.590856" lon="86.325555">
        <ele>2335.01038193548</ele>
        <time>2019-10-15T06:33:39.123Z</time>
      </trkpt>
      <trkpt lat="27.592188" lon="86.325428">
        <ele>2341.51829888</ele>
        <time>2019-10-15T06:34:24.123Z</time>
      </trkpt>
      <trkpt lat="27.592323" lon="86.325112">
        <ele>2340.52680448</ele>
        <time>2019-10-15T06:35:25.123Z</time>
      </trkpt>
      <trkpt lat="27.592565" lon="86.324598">
        <ele>2336.38170112</ele>
        <time>2019-10-15T06:36:25.123Z</time>
      </trkpt>
      <trkpt lat="27.592971" lon="86.324282">
        <ele>2335.38170112</ele>
        <time>2019-10-15T06:37:25.123Z</time>
      </trkpt>
      <trkpt lat="27.592903" lon="86.323823">
        <ele>2336</ele>
        <time>2019-10-15T06:38:25.123Z</time>
      </trkpt>
      <trkpt lat="27.592842" lon="86.323381">
        <ele>2331</ele>
        <time>2019-10-15T06:39:10.123Z</time>
      </trkpt>
      <trkpt lat="27.592667" lon="86.323184">
        <ele>2324.52680448</ele>
        <time>2019-10-15T06:39:55.123Z</time>
      </trkpt>
      <trkpt lat="27.592562" lon="86.323238">
        <ele>2324</ele>
        <time>2019-10-15T06:41:46.123Z</time>
      </trkpt>
      <trkpt lat="27.592691" lon="86.323171">
        <ele>2326</ele>
        <time>2019-10-15T06:42:44.123Z</time>
      </trkpt>
      <trkpt lat="27.592636" lon="86.322705">
        <ele>2315.48170112</ele>
        <time>2019-10-15T06:43:44.123Z</time>
      </trkpt>
      <trkpt lat="27.592668" lon="86.321999">
        <ele>2315.71829888</ele>
        <time>2019-10-15T06:44:46.123Z</time>
      </trkpt>
      <trkpt lat="27.592888" lon="86.321689">
        <ele>2321</ele>
        <time>2019-10-15T06:45:47.123Z</time>
      </trkpt>
      <trkpt lat="27.593077" lon="86.321198">
        <ele>2312.84510336</ele>
        <time>2019-10-15T06:46:46.123Z</time>
      </trkpt>
      <trkpt lat="27.592928" lon="86.321151">
        <ele>2300.28170112</ele>
        <time>2019-10-15T06:47:56.123Z</time>
      </trkpt>
      <trkpt lat="27.59318" lon="86.32089">
        <ele>2296.52680448</ele>
        <time>2019-10-15T06:48:50.123Z</time>
      </trkpt>
      <trkpt lat="27.593321" lon="86.320248">
        <ele>2286.38170112</ele>
        <time>2019-10-15T06:49:45.123Z</time>
      </trkpt>
      <trkpt lat="27.593532" lon="86.320085">
        <ele>2279.58170112</ele>
        <time>2019-10-15T06:50:43.123Z</time>
      </trkpt>
      <trkpt lat="27.593898" lon="86.319888">
        <ele>2273.96340224</ele>
        <time>2019-10-15T06:51:49.123Z</time>
      </trkpt>
      <trkpt lat="27.593939" lon="86.319569">
        <ele>2261.54510336</ele>
        <time>2019-10-15T06:52:47.123Z</time>
      </trkpt>
      <trkpt lat="27.59406" lon="86.319044">
        <ele>2252</ele>
        <time>2019-10-15T06:53:49.123Z</time>
      </trkpt>
      <trkpt lat="27.593896" lon="86.318821">
        <ele>2240.56340224</ele>
        <time>2019-10-15T06:54:46.123Z</time>
      </trkpt>
      <trkpt lat="27.594075" lon="86.31841">
        <ele>2229</ele>
        <time>2019-10-15T06:55:47.123Z</time>
      </trkpt>
      <trkpt lat="27.594363" lon="86.317878">
        <ele>2222.18170112</ele>
        <time>2019-10-15T06:56:47.123Z</time>
      </trkpt>
      <trkpt lat="27.594714" lon="86.317509">
        <ele>2216.28170112</ele>
        <time>2019-10-15T06:57:46.123Z</time>
      </trkpt>
      <trkpt lat="27.594912" lon="86.31693">
        <ele>2212.58170112</ele>
        <time>2019-10-15T06:58:43.123Z</time>
      </trkpt>
      <trkpt lat="27.595144" lon="86.316369">
        <ele>2204.58170112</ele>
        <time>2019-10-15T06:59:43.123Z</time>
      </trkpt>
      <trkpt lat="27.595322" lon="86.315935">
        <ele>2200</ele>
        <time>2019-10-15T07:00:46.123Z</time>
      </trkpt>
      <trkpt lat="27.595194" lon="86.315882">
        <ele>2196.28170112</ele>
        <time>2019-10-15T07:01:46.123Z</time>
      </trkpt>
      <trkpt lat="27.595476" lon="86.315468">
        <ele>2189</ele>
        <time>2019-10-15T07:02:45.123Z</time>
      </trkpt>
      <trkpt lat="27.595582" lon="86.314856">
        <ele>2191</ele>
        <time>2019-10-15T07:03:45.123Z</time>
      </trkpt>
      <trkpt lat="27.595692" lon="86.314098">
        <ele>2189</ele>
        <time>2019-10-15T07:04:46.123Z</time>
      </trkpt>
      <trkpt lat="27.596022" lon="86.313549">
        <ele>2177.38170112</ele>
        <time>2019-10-15T07:05:45.123Z</time>
      </trkpt>
      <trkpt lat="27.596522" lon="86.313213">
        <ele>2166</ele>
        <time>2019-10-15T07:06:46.123Z</time>
      </trkpt>
      <trkpt lat="27.596766" lon="86.312762">
        <ele>2156.38170112</ele>
        <time>2019-10-15T07:07:45.123Z</time>
      </trkpt>
      <trkpt lat="27.596826" lon="86.312573">
        <ele>2154</ele>
        <time>2019-10-15T07:10:45.123Z</time>
      </trkpt>
      <trkpt lat="27.597147" lon="86.312097">
        <ele>2150.58170112</ele>
        <time>2019-10-15T07:11:43.123Z</time>
      </trkpt>
      <trkpt lat="27.597772" lon="86.311615">
        <ele>2148.58170112</ele>
        <time>2019-10-15T07:12:43.123Z</time>
      </trkpt>
      <trkpt lat="27.59816" lon="86.311425">
        <ele>2150.74510336</ele>
        <time>2019-10-15T07:13:43.123Z</time>
      </trkpt>
      <trkpt lat="27.598833" lon="86.311045">
        <ele>2144.38170112</ele>
        <time>2019-10-15T07:14:45.123Z</time>
      </trkpt>
      <trkpt lat="27.599367" lon="86.310872">
        <ele>2138.38170112</ele>
        <time>2019-10-15T07:15:45.123Z</time>
      </trkpt>
      <trkpt lat="27.59997" lon="86.310562">
        <ele>2131.58170112</ele>
        <time>2019-10-15T07:16:43.123Z</time>
      </trkpt>
      <trkpt lat="27.600559" lon="86.30988">
        <ele>2125.28170112</ele>
        <time>2019-10-15T07:17:46.123Z</time>
      </trkpt>
      <trkpt lat="27.600822" lon="86.30911">
        <ele>2120.18170112</ele>
        <time>2019-10-15T07:18:47.123Z</time>
      </trkpt>
      <trkpt lat="27.601139" lon="86.308343">
        <ele>2111.58170112</ele>
        <time>2019-10-15T07:19:43.123Z</time>
      </trkpt>
      <trkpt lat="27.601434" lon="86.307735">
        <ele>2103.28170112</ele>
        <time>2019-10-15T07:20:46.123Z</time>
      </trkpt>
      <trkpt lat="27.602128" lon="86.307592">
        <ele>2097</ele>
        <time>2019-10-15T07:21:43.123Z</time>
      </trkpt>
      <trkpt lat="27.602396" lon="86.30747">
        <ele>2089.52680448</ele>
        <time>2019-10-15T07:22:45.123Z</time>
      </trkpt>
      <trkpt lat="27.602788" lon="86.307411">
        <ele>2081.28170112</ele>
        <time>2019-10-15T07:23:46.123Z</time>
      </trkpt>
      <trkpt lat="27.602996" lon="86.307309">
        <ele>2076</ele>
        <time>2019-10-15T07:24:47.123Z</time>
      </trkpt>
      <trkpt lat="27.603398" lon="86.307092">
        <ele>2062.16523641646</ele>
        <time>2019-10-15T07:25:48.123Z</time>
      </trkpt>
      <trkpt lat="27.60382" lon="86.306932">
        <ele>2057.28170112</ele>
        <time>2019-10-15T07:26:46.123Z</time>
      </trkpt>
      <trkpt lat="27.603911" lon="86.306492">
        <ele>2044.56340224</ele>
        <time>2019-10-15T07:27:46.123Z</time>
      </trkpt>
      <trkpt lat="27.604223" lon="86.306245">
        <ele>2033.58170112</ele>
        <time>2019-10-15T07:28:43.123Z</time>
      </trkpt>
      <trkpt lat="27.604419" lon="86.305821">
        <ele>2023.32680448</ele>
        <time>2019-10-15T07:29:43.123Z</time>
      </trkpt>
      <trkpt lat="27.604807" lon="86.305461">
        <ele>2007.54510336</ele>
        <time>2019-10-15T07:30:47.123Z</time>
      </trkpt>
      <trkpt lat="27.604938" lon="86.305194">
        <ele>1997.16340224</ele>
        <time>2019-10-15T07:31:43.123Z</time>
      </trkpt>
      <trkpt lat="27.605382" lon="86.304694">
        <ele>1988.38170112</ele>
        <time>2019-10-15T07:32:45.123Z</time>
      </trkpt>
      <trkpt lat="27.605781" lon="86.304107">
        <ele>1981</ele>
        <time>2019-10-15T07:33:43.123Z</time>
      </trkpt>
      <trkpt lat="27.606219" lon="86.303742">
        <ele>1971.58170112</ele>
        <time>2019-10-15T07:34:43.123Z</time>
      </trkpt>
      <trkpt lat="27.606396" lon="86.30342">
        <ele>1955.18496023581</ele>
        <time>2019-10-15T07:35:47.123Z</time>
      </trkpt>
      <trkpt lat="27.606542" lon="86.303183">
        <ele>1943.12680448</ele>
        <time>2019-10-15T07:36:46.123Z</time>
      </trkpt>
      <trkpt lat="27.60691" lon="86.302717">
        <ele>1932.28170112</ele>
        <time>2019-10-15T07:37:46.123Z</time>
      </trkpt>
      <trkpt lat="27.607364" lon="86.302352">
        <ele>1927.16340224</ele>
        <time>2019-10-15T07:38:43.123Z</time>
      </trkpt>
      <trkpt lat="27.607784" lon="86.301984">
        <ele>1923</ele>
        <time>2019-10-15T07:39:43.123Z</time>
      </trkpt>
      <trkpt lat="27.607876" lon="86.301642">
        <ele>1916</ele>
        <time>2019-10-15T07:40:45.123Z</time>
      </trkpt>
      <trkpt lat="27.607919" lon="86.30136">
        <ele>1903.58170112</ele>
        <time>2019-10-15T07:41:43.123Z</time>
      </trkpt>
      <trkpt lat="27.607793" lon="86.301189">
        <ele>1894.52680448</ele>
        <time>2019-10-15T07:42:45.123Z</time>
      </trkpt>
      <trkpt lat="27.607814" lon="86.300898">
        <ele>1884.58170112</ele>
        <time>2019-10-15T07:43:43.123Z</time>
      </trkpt>
      <trkpt lat="27.608086" lon="86.300699">
        <ele>1876.38170112</ele>
        <time>2019-10-15T07:44:45.123Z</time>
      </trkpt>
      <trkpt lat="27.608116" lon="86.300437">
        <ele>1865.76340224</ele>
        <time>2019-10-15T07:45:45.123Z</time>
      </trkpt>
      <trkpt lat="27.608299" lon="86.30016">
        <ele>1856.48170112</ele>
        <time>2019-10-15T07:46:44.123Z</time>
      </trkpt>
      <trkpt lat="27.608403" lon="86.299858">
        <ele>1845.28170112</ele>
        <time>2019-10-15T07:47:46.123Z</time>
      </trkpt>
      <trkpt lat="27.608212" lon="86.299584">
        <ele>1834.16340224</ele>
        <time>2019-10-15T07:48:43.123Z</time>
      </trkpt>
      <trkpt lat="27.608253" lon="86.299185">
        <ele>1822.58170112</ele>
        <time>2019-10-15T07:49:43.123Z</time>
      </trkpt>
      <trkpt lat="27.608156" lon="86.298659">
        <ele>1812.58170112</ele>
        <time>2019-10-15T07:50:43.123Z</time>
      </trkpt>
      <trkpt lat="27.608099" lon="86.298335">
        <ele>1800.16340224</ele>
        <time>2019-10-15T07:51:43.123Z</time>
      </trkpt>
      <trkpt lat="27.608284" lon="86.298258">
        <ele>1791.58170112</ele>
        <time>2019-10-15T07:52:43.123Z</time>
      </trkpt>
      <trkpt lat="27.608386" lon="86.29823">
        <ele>1779</ele>
        <time>2019-10-15T07:53:43.123Z</time>
      </trkpt>
      <trkpt lat="27.608284" lon="86.297973">
        <ele>1770.18170112</ele>
        <time>2019-10-15T07:54:47.123Z</time>
      </trkpt>
      <trkpt lat="27.608252" lon="86.297822">
        <ele>1758.96340224</ele>
        <time>2019-10-15T07:55:44.123Z</time>
      </trkpt>
      <trkpt lat="27.608313" lon="86.29768">
        <ele>1746.36340224</ele>
        <time>2019-10-15T07:56:47.123Z</time>
      </trkpt>
      <trkpt lat="27.608418" lon="86.297695">
        <ele>1736.52680448</ele>
        <time>2019-10-15T07:57:45.123Z</time>
      </trkpt>
      <trkpt lat="27.608592" lon="86.29764">
        <ele>1726.28170112</ele>
        <time>2019-10-15T07:58:46.123Z</time>
      </trkpt>
      <trkpt lat="27.608621" lon="86.297375">
        <ele>1711.12680448</ele>
        <time>2019-10-15T07:59:56.123Z</time>
      </trkpt>
      <trkpt lat="27.608467" lon="86.297167">
        <ele>1702.68170112</ele>
        <time>2019-10-15T08:00:52.123Z</time>
      </trkpt>
      <trkpt lat="27.608395" lon="86.296538">
        <ele>1700</ele>
        <time>2019-10-15T08:01:47.123Z</time>
      </trkpt>
      <trkpt lat="27.608576" lon="86.296023">
        <ele>1698.81829888</ele>
        <time>2019-10-15T08:02:47.123Z</time>
      </trkpt>
      <trkpt lat="27.608757" lon="86.295593">
        <ele>1695</ele>
        <time>2019-10-15T08:03:56.384Z</time>
      </trkpt>
      <trkpt lat="27.608965" lon="86.295271">
        <ele>1692</ele>
        <time>2019-10-15T08:04:45.123Z</time>
      </trkpt>
      <trkpt lat="27.608778" lon="86.295307">
        <ele>1692</ele>
        <time>2019-10-15T08:06:52.123Z</time>
      </trkpt>
      <trkpt lat="27.608788" lon="86.295088">
        <ele>1692.88170112</ele>
        <time>2019-10-15T08:07:50.123Z</time>
      </trkpt>
      <trkpt lat="27.608994" lon="86.295238">
        <ele>1692</ele>
        <time>2019-10-15T08:09:06.123Z</time>
      </trkpt>
      <trkpt lat="27.608848" lon="86.295303">
        <ele>1692</ele>
        <time>2019-10-15T08:10:51.123Z</time>
      </trkpt>
      <trkpt lat="27.60889" lon="86.295183">
        <ele>1691.28170112</ele>
        <time>2019-10-15T08:13:06.123Z</time>
      </trkpt>
      <trkpt lat="27.609079" lon="86.295357">
        <ele>1692</ele>
        <time>2019-10-15T08:15:51.123Z</time>
      </trkpt>
      <trkpt lat="27.608939" lon="86.295107">
        <ele>1691</ele>
        <time>2019-10-15T08:16:47.123Z</time>
      </trkpt>
      <trkpt lat="27.609022" lon="86.295472">
        <ele>1691</ele>
        <time>2019-10-15T08:17:48.123Z</time>
      </trkpt>
      <trkpt lat="27.608886" lon="86.295243">
        <ele>1691</ele>
        <time>2019-10-15T08:19:26.123Z</time>
      </trkpt>
      <trkpt lat="27.608745" lon="86.29526">
        <ele>1691</ele>
        <time>2019-10-15T08:20:11.123Z</time>
      </trkpt>
      <trkpt lat="27.608921" lon="86.295283">
        <ele>1691</ele>
        <time>2019-10-15T08:25:02.123Z</time>
      </trkpt>
      <trkpt lat="27.609058" lon="86.295276">
        <ele>1691</ele>
        <time>2019-10-15T08:26:17.123Z</time>
      </trkpt>
      <trkpt lat="27.608938" lon="86.295214">
        <ele>1691</ele>
        <time>2019-10-15T08:27:02.123Z</time>
      </trkpt>
      <trkpt lat="27.608889" lon="86.295314">
        <ele>1691</ele>
        <time>2019-10-15T08:31:55.123Z</time>
      </trkpt>
      <trkpt lat="27.60877" lon="86.295133">
        <ele>1691</ele>
        <time>2019-10-15T08:32:46.123Z</time>
      </trkpt>
      <trkpt lat="27.608957" lon="86.295238">
        <ele>1691</ele>
        <time>2019-10-15T08:33:43.123Z</time>
      </trkpt>
      <trkpt lat="27.609118" lon="86.295082">
        <ele>1691</ele>
        <time>2019-10-15T08:35:44.123Z</time>
      </trkpt>
      <trkpt lat="27.609303" lon="86.294759">
        <ele>1691</ele>
        <time>2019-10-15T08:36:43.123Z</time>
      </trkpt>
      <trkpt lat="27.609345" lon="86.294395">
        <ele>1691</ele>
        <time>2019-10-15T08:37:45.123Z</time>
      </trkpt>
      <trkpt lat="27.609278" lon="86.293931">
        <ele>1700.61829888</ele>
        <time>2019-10-15T08:38:45.123Z</time>
      </trkpt>
      <trkpt lat="27.609162" lon="86.29378">
        <ele>1707</ele>
        <time>2019-10-15T08:39:46.123Z</time>
      </trkpt>
      <trkpt lat="27.609025" lon="86.293616">
        <ele>1707</ele>
        <time>2019-10-15T08:40:47.123Z</time>
      </trkpt>
      <trkpt lat="27.608773" lon="86.293021">
        <ele>1706</ele>
        <time>2019-10-15T08:41:46.123Z</time>
      </trkpt>
      <trkpt lat="27.608665" lon="86.292416">
        <ele>1709</ele>
        <time>2019-10-15T08:42:49.123Z</time>
      </trkpt>
      <trkpt lat="27.608823" lon="86.291869">
        <ele>1712.28170112</ele>
        <time>2019-10-15T08:43:46.123Z</time>
      </trkpt>
      <trkpt lat="27.609041" lon="86.291184">
        <ele>1712.43659776</ele>
        <time>2019-10-15T08:44:46.123Z</time>
      </trkpt>
      <trkpt lat="27.609352" lon="86.290038">
        <ele>1716.88181926292</ele>
        <time>2019-10-15T08:47:30.123Z</time>
      </trkpt>
      <trkpt lat="27.609688" lon="86.289827">
        <ele>1719.61829888</ele>
        <time>2019-10-15T08:48:15.123Z</time>
      </trkpt>
      <trkpt lat="27.610116" lon="86.289226">
        <ele>1722</ele>
        <time>2019-10-15T08:49:25.123Z</time>
      </trkpt>
      <trkpt lat="27.610372" lon="86.288655">
        <ele>1724.23659776</ele>
        <time>2019-10-15T08:50:25.123Z</time>
      </trkpt>
      <trkpt lat="27.610508" lon="86.288146">
        <ele>1728</ele>
        <time>2019-10-15T08:51:25.123Z</time>
      </trkpt>
      <trkpt lat="27.610395" lon="86.287854">
        <ele>1731.43659776</ele>
        <time>2019-10-15T08:53:01.123Z</time>
      </trkpt>
      <trkpt lat="27.610584" lon="86.287658">
        <ele>1732.38170112</ele>
        <time>2019-10-15T08:54:45.123Z</time>
      </trkpt>
      <trkpt lat="27.610862" lon="86.287281">
        <ele>1735</ele>
        <time>2019-10-15T08:55:47.123Z</time>
      </trkpt>
      <trkpt lat="27.610844" lon="86.287009">
        <ele>1740.98170112</ele>
        <time>2019-10-15T08:56:49.123Z</time>
      </trkpt>
      <trkpt lat="27.611101" lon="86.286621">
        <ele>1744.81503976419</ele>
        <time>2019-10-15T08:57:47.123Z</time>
      </trkpt>
      <trkpt lat="27.611054" lon="86.286203">
        <ele>1749.41829888</ele>
        <time>2019-10-15T08:58:43.123Z</time>
      </trkpt>
      <trkpt lat="27.611146" lon="86.285874">
        <ele>1756.51829888</ele>
        <time>2019-10-15T08:59:44.123Z</time>
      </trkpt>
      <trkpt lat="27.611324" lon="86.285714">
        <ele>1761.18170112</ele>
        <time>2019-10-15T09:00:47.123Z</time>
      </trkpt>
      <trkpt lat="27.611395" lon="86.2854">
        <ele>1762</ele>
        <time>2019-10-15T09:01:48.123Z</time>
      </trkpt>
      <trkpt lat="27.611688" lon="86.285305">
        <ele>1770.03659776</ele>
        <time>2019-10-15T09:02:44.123Z</time>
      </trkpt>
      <trkpt lat="27.611601" lon="86.284837">
        <ele>1777.81829888</ele>
        <time>2019-10-15T09:03:47.123Z</time>
      </trkpt>
      <trkpt lat="27.611546" lon="86.284472">
        <ele>1784.23659776</ele>
        <time>2019-10-15T09:04:45.123Z</time>
      </trkpt>
      <trkpt lat="27.611644" lon="86.2842">
        <ele>1791.71829888</ele>
        <time>2019-10-15T09:05:46.123Z</time>
      </trkpt>
      <trkpt lat="27.61163" lon="86.283837">
        <ele>1799.43659776</ele>
        <time>2019-10-15T09:06:46.123Z</time>
      </trkpt>
      <trkpt lat="27.611682" lon="86.283379">
        <ele>1804.23659776</ele>
        <time>2019-10-15T09:07:45.123Z</time>
      </trkpt>
      <trkpt lat="27.611646" lon="86.282892">
        <ele>1809</ele>
        <time>2019-10-15T09:08:45.123Z</time>
      </trkpt>
      <trkpt lat="27.61186" lon="86.28249">
        <ele>1815.83659776</ele>
        <time>2019-10-15T09:09:43.123Z</time>
      </trkpt>
      <trkpt lat="27.611956" lon="86.282088">
        <ele>1822.71829888</ele>
        <time>2019-10-15T09:10:46.123Z</time>
      </trkpt>
      <trkpt lat="27.612191" lon="86.281788">
        <ele>1826.45449984</ele>
        <time>2019-10-15T09:11:43.485Z</time>
      </trkpt>
      <trkpt lat="27.612441" lon="86.281355">
        <ele>1832.83659776</ele>
        <time>2019-10-15T09:12:43.123Z</time>
      </trkpt>
      <trkpt lat="27.612524" lon="86.281067">
        <ele>1838.71829888</ele>
        <time>2019-10-15T09:13:46.123Z</time>
      </trkpt>
      <trkpt lat="27.612462" lon="86.280876">
        <ele>1854.83659776</ele>
        <time>2019-10-15T09:15:43.123Z</time>
      </trkpt>
      <trkpt lat="27.61241" lon="86.28065">
        <ele>1862.61829888</ele>
        <time>2019-10-15T09:16:45.123Z</time>
      </trkpt>
      <trkpt lat="27.612314" lon="86.280391">
        <ele>1871.43659776</ele>
        <time>2019-10-15T09:17:46.123Z</time>
      </trkpt>
      <trkpt lat="27.612512" lon="86.280269">
        <ele>1875.83659776</ele>
        <time>2019-10-15T09:18:43.123Z</time>
      </trkpt>
      <trkpt lat="27.612433" lon="86.280089">
        <ele>1884.83659776</ele>
        <time>2019-10-15T09:19:48.123Z</time>
      </trkpt>
      <trkpt lat="27.612306" lon="86.279996">
        <ele>1890.51829888</ele>
        <time>2019-10-15T09:20:44.123Z</time>
      </trkpt>
      <trkpt lat="27.612295" lon="86.27984">
        <ele>1895.43659776</ele>
        <time>2019-10-15T09:21:46.123Z</time>
      </trkpt>
      <trkpt lat="27.612318" lon="86.279674">
        <ele>1902.83659776</ele>
        <time>2019-10-15T09:22:43.123Z</time>
      </trkpt>
      <trkpt lat="27.612429" lon="86.279345">
        <ele>1915.81829888</ele>
        <time>2019-10-15T09:24:47.123Z</time>
      </trkpt>
      <trkpt lat="27.612439" lon="86.279062">
        <ele>1923.81829888</ele>
        <time>2019-10-15T09:25:47.123Z</time>
      </trkpt>
      <trkpt lat="27.612469" lon="86.279229">
        <ele>1926</ele>
        <time>2019-10-15T09:26:44.123Z</time>
      </trkpt>
      <trkpt lat="27.612473" lon="86.279008">
        <ele>1927.03659776</ele>
        <time>2019-10-15T09:27:44.123Z</time>
      </trkpt>
      <trkpt lat="27.612483" lon="86.278807">
        <ele>1935.63659776</ele>
        <time>2019-10-15T09:28:47.123Z</time>
      </trkpt>
      <trkpt lat="27.612574" lon="86.278684">
        <ele>1941.23659776</ele>
        <time>2019-10-15T09:29:45.123Z</time>
      </trkpt>
      <trkpt lat="27.61272" lon="86.278431">
        <ele>1948.41829888</ele>
        <time>2019-10-15T09:30:43.123Z</time>
      </trkpt>
      <trkpt lat="27.612529" lon="86.278257">
        <ele>1955</ele>
        <time>2019-10-15T09:31:45.123Z</time>
      </trkpt>
      <trkpt lat="27.612607" lon="86.277896">
        <ele>1960</ele>
        <time>2019-10-15T09:32:46.123Z</time>
      </trkpt>
      <trkpt lat="27.612679" lon="86.277732">
        <ele>1964.71829888</ele>
        <time>2019-10-15T09:33:46.123Z</time>
      </trkpt>
      <trkpt lat="27.612592" lon="86.27736">
        <ele>1970.51829888</ele>
        <time>2019-10-15T09:34:44.123Z</time>
      </trkpt>
      <trkpt lat="27.612593" lon="86.277123">
        <ele>1976.71829888</ele>
        <time>2019-10-15T09:35:46.123Z</time>
      </trkpt>
      <trkpt lat="27.61247" lon="86.276836">
        <ele>1983</ele>
        <time>2019-10-15T09:36:47.123Z</time>
      </trkpt>
      <trkpt lat="27.612367" lon="86.276664">
        <ele>1997</ele>
        <time>2019-10-15T09:38:43.123Z</time>
      </trkpt>
      <trkpt lat="27.612411" lon="86.276501">
        <ele>2005</ele>
        <time>2019-10-15T09:39:45.123Z</time>
      </trkpt>
      <trkpt lat="27.612328" lon="86.276346">
        <ele>2010.71829888</ele>
        <time>2019-10-15T09:40:46.123Z</time>
      </trkpt>
      <trkpt lat="27.61247" lon="86.276205">
        <ele>2019.03659776</ele>
        <time>2019-10-15T09:41:44.123Z</time>
      </trkpt>
      <trkpt lat="27.612336" lon="86.276051">
        <ele>2026.45489664</ele>
        <time>2019-10-15T09:42:47.123Z</time>
      </trkpt>
      <trkpt lat="27.612313" lon="86.275836">
        <ele>2032</ele>
        <time>2019-10-15T09:43:47.123Z</time>
      </trkpt>
      <trkpt lat="27.612375" lon="86.275616">
        <ele>2037.61829888</ele>
        <time>2019-10-15T09:44:45.123Z</time>
      </trkpt>
      <trkpt lat="27.612302" lon="86.275313">
        <ele>2043</ele>
        <time>2019-10-15T09:45:46.123Z</time>
      </trkpt>
      <trkpt lat="27.612134" lon="86.275114">
        <ele>2048</ele>
        <time>2019-10-15T09:46:44.123Z</time>
      </trkpt>
      <trkpt lat="27.612191" lon="86.274763">
        <ele>2053.41829888</ele>
        <time>2019-10-15T09:47:43.123Z</time>
      </trkpt>
      <trkpt lat="27.612012" lon="86.274363">
        <ele>2057.85489664</ele>
        <time>2019-10-15T09:48:45.123Z</time>
      </trkpt>
      <trkpt lat="27.612102" lon="86.274128">
        <ele>2064</ele>
        <time>2019-10-15T09:49:43.123Z</time>
      </trkpt>
      <trkpt lat="27.612171" lon="86.273842">
        <ele>2070</ele>
        <time>2019-10-15T09:50:45.123Z</time>
      </trkpt>
      <trkpt lat="27.612371" lon="86.273612">
        <ele>2076</ele>
        <time>2019-10-15T09:52:44.123Z</time>
      </trkpt>
      <trkpt lat="27.612353" lon="86.273381">
        <ele>2079.41829888</ele>
        <time>2019-10-15T09:53:43.123Z</time>
      </trkpt>
      <trkpt lat="27.612427" lon="86.272785">
        <ele>2081</ele>
        <time>2019-10-15T09:54:47.123Z</time>
      </trkpt>
      <trkpt lat="27.6123" lon="86.272475">
        <ele>2081</ele>
        <time>2019-10-15T09:55:46.123Z</time>
      </trkpt>
      <trkpt lat="27.612213" lon="86.272002">
        <ele>2084</ele>
        <time>2019-10-15T10:00:45.123Z</time>
      </trkpt>
      <trkpt lat="27.612224" lon="86.271479">
        <ele>2085</ele>
        <time>2019-10-15T10:01:43.123Z</time>
      </trkpt>
      <trkpt lat="27.612248" lon="86.271178">
        <ele>2092.15489664</ele>
        <time>2019-10-15T10:02:46.123Z</time>
      </trkpt>
      <trkpt lat="27.612184" lon="86.27082">
        <ele>2098.41829888</ele>
        <time>2019-10-15T10:03:43.123Z</time>
      </trkpt>
      <trkpt lat="27.611954" lon="86.270698">
        <ele>2106</ele>
        <time>2019-10-15T10:04:43.123Z</time>
      </trkpt>
      <trkpt lat="27.611969" lon="86.270506">
        <ele>2111.71829888</ele>
        <time>2019-10-15T10:05:46.123Z</time>
      </trkpt>
      <trkpt lat="27.612028" lon="86.270366">
        <ele>2117.55489664</ele>
        <time>2019-10-15T10:06:44.123Z</time>
      </trkpt>
      <trkpt lat="27.612249" lon="86.270119">
        <ele>2130.41829888</ele>
        <time>2019-10-15T10:08:43.123Z</time>
      </trkpt>
      <trkpt lat="27.612176" lon="86.269829">
        <ele>2133.51829888</ele>
        <time>2019-10-15T10:09:44.123Z</time>
      </trkpt>
      <trkpt lat="27.612172" lon="86.269639">
        <ele>2140.15489664</ele>
        <time>2019-10-15T10:10:46.123Z</time>
      </trkpt>
      <trkpt lat="27.612094" lon="86.269492">
        <ele>2148.7175815281</ele>
        <time>2019-10-15T10:11:46.123Z</time>
      </trkpt>
      <trkpt lat="27.612107" lon="86.269191">
        <ele>2153.61829888</ele>
        <time>2019-10-15T10:12:45.123Z</time>
      </trkpt>
      <trkpt lat="27.611973" lon="86.268923">
        <ele>2161.45489664</ele>
        <time>2019-10-15T10:13:47.123Z</time>
      </trkpt>
      <trkpt lat="27.611874" lon="86.26877">
        <ele>2166.71829888</ele>
        <time>2019-10-15T10:14:46.123Z</time>
      </trkpt>
      <trkpt lat="27.61174" lon="86.268447">
        <ele>2172.81829888</ele>
        <time>2019-10-15T10:15:47.123Z</time>
      </trkpt>
      <trkpt lat="27.611566" lon="86.26803">
        <ele>2178.63659776</ele>
        <time>2019-10-15T10:16:47.123Z</time>
      </trkpt>
      <trkpt lat="27.611274" lon="86.26785">
        <ele>2183.87032611239</ele>
        <time>2019-10-15T10:17:46.123Z</time>
      </trkpt>
      <trkpt lat="27.611177" lon="86.267718">
        <ele>2190</ele>
        <time>2019-10-15T10:18:46.123Z</time>
      </trkpt>
      <trkpt lat="27.611549" lon="86.267486">
        <ele>2194</ele>
        <time>2019-10-15T10:19:45.123Z</time>
      </trkpt>
      <trkpt lat="27.611967" lon="86.266972">
        <ele>2198</ele>
        <time>2019-10-15T10:20:46.123Z</time>
      </trkpt>
      <trkpt lat="27.61207" lon="86.266438">
        <ele>2204.71829888</ele>
        <time>2019-10-15T10:21:46.123Z</time>
      </trkpt>
      <trkpt lat="27.612145" lon="86.265842">
        <ele>2207.41829888</ele>
        <time>2019-10-15T10:22:43.123Z</time>
      </trkpt>
      <trkpt lat="27.612186" lon="86.265512">
        <ele>2211</ele>
        <time>2019-10-15T10:23:45.123Z</time>
      </trkpt>
      <trkpt lat="27.612496" lon="86.265109">
        <ele>2215</ele>
        <time>2019-10-15T10:24:44.123Z</time>
      </trkpt>
      <trkpt lat="27.612904" lon="86.264684">
        <ele>2219</ele>
        <time>2019-10-15T10:25:43.123Z</time>
      </trkpt>
      <trkpt lat="27.613275" lon="86.264207">
        <ele>2225</ele>
        <time>2019-10-15T10:26:43.123Z</time>
      </trkpt>
      <trkpt lat="27.613499" lon="86.263564">
        <ele>2229</ele>
        <time>2019-10-15T10:27:45.123Z</time>
      </trkpt>
      <trkpt lat="27.61363" lon="86.262944">
        <ele>2232.83659776</ele>
        <time>2019-10-15T10:28:43.123Z</time>
      </trkpt>
      <trkpt lat="27.61395" lon="86.262512">
        <ele>2238.41829888</ele>
        <time>2019-10-15T10:29:43.123Z</time>
      </trkpt>
      <trkpt lat="27.614208" lon="86.261873">
        <ele>2243.71829888</ele>
        <time>2019-10-15T10:30:46.123Z</time>
      </trkpt>
      <trkpt lat="27.614563" lon="86.261366">
        <ele>2248.71829888</ele>
        <time>2019-10-15T10:31:46.123Z</time>
      </trkpt>
      <trkpt lat="27.614579" lon="86.260953">
        <ele>2253.83659776</ele>
        <time>2019-10-15T10:32:43.123Z</time>
      </trkpt>
      <trkpt lat="27.614529" lon="86.260503">
        <ele>2261</ele>
        <time>2019-10-15T10:33:43.123Z</time>
      </trkpt>
      <trkpt lat="27.614612" lon="86.259965">
        <ele>2272</ele>
        <time>2019-10-15T10:35:45.123Z</time>
      </trkpt>
      <trkpt lat="27.614807" lon="86.259843">
        <ele>2279.6368</ele>
        <time>2019-10-15T10:36:47.123Z</time>
      </trkpt>
      <trkpt lat="27.614898" lon="86.259589">
        <ele>2285</ele>
        <time>2019-10-15T10:37:47.123Z</time>
      </trkpt>
      <trkpt lat="27.615042" lon="86.259376">
        <ele>2291.6184</ele>
        <time>2019-10-15T10:38:45.123Z</time>
      </trkpt>
      <trkpt lat="27.615497" lon="86.259166">
        <ele>2294</ele>
        <time>2019-10-15T10:39:43.123Z</time>
      </trkpt>
      <trkpt lat="27.616035" lon="86.258611">
        <ele>2290</ele>
        <time>2019-10-15T10:40:46.123Z</time>
      </trkpt>
      <trkpt lat="27.616307" lon="86.257899">
        <ele>2287.28170112</ele>
        <time>2019-10-15T10:41:46.123Z</time>
      </trkpt>
      <trkpt lat="27.61672" lon="86.257168">
        <ele>2284</ele>
        <time>2019-10-15T10:42:45.123Z</time>
      </trkpt>
      <trkpt lat="27.617181" lon="86.256561">
        <ele>2283</ele>
        <time>2019-10-15T10:43:46.123Z</time>
      </trkpt>
      <trkpt lat="27.617155" lon="86.255622">
        <ele>2278.98170112</ele>
        <time>2019-10-15T10:44:49.123Z</time>
      </trkpt>
      <trkpt lat="27.617232" lon="86.255015">
        <ele>2271.28170112</ele>
        <time>2019-10-15T10:45:46.123Z</time>
      </trkpt>
      <trkpt lat="27.617413" lon="86.254158">
        <ele>2263</ele>
        <time>2019-10-15T10:46:46.123Z</time>
      </trkpt>
      <trkpt lat="27.617277" lon="86.253439">
        <ele>2258.58170112</ele>
        <time>2019-10-15T10:47:43.123Z</time>
      </trkpt>
      <trkpt lat="27.618134" lon="86.252919">
        <ele>2247.48068405023</ele>
        <time>2019-10-15T10:49:05.242Z</time>
      </trkpt>
      <trkpt lat="27.618365" lon="86.252588">
        <ele>2236</ele>
        <time>2019-10-15T10:50:55.242Z</time>
      </trkpt>
      <trkpt lat="27.618862" lon="86.252119">
        <ele>2226.58170112</ele>
        <time>2019-10-15T10:51:43.123Z</time>
      </trkpt>
      <trkpt lat="27.619684" lon="86.251913">
        <ele>2221.16340224</ele>
        <time>2019-10-15T10:52:43.123Z</time>
      </trkpt>
      <trkpt lat="27.620242" lon="86.251551">
        <ele>2214.74510336</ele>
        <time>2019-10-15T10:53:43.123Z</time>
      </trkpt>
      <trkpt lat="27.620566" lon="86.251136">
        <ele>2204.28170112</ele>
        <time>2019-10-15T10:54:46.123Z</time>
      </trkpt>
      <trkpt lat="27.620845" lon="86.250859">
        <ele>2194.56340224</ele>
        <time>2019-10-15T10:55:46.123Z</time>
      </trkpt>
      <trkpt lat="27.620761" lon="86.250975">
        <ele>2197</ele>
        <time>2019-10-15T10:57:46.123Z</time>
      </trkpt>
      <trkpt lat="27.620993" lon="86.251076">
        <ele>2198</ele>
        <time>2019-10-15T10:58:47.123Z</time>
      </trkpt>
      <trkpt lat="27.620903" lon="86.250981">
        <ele>2198</ele>
        <time>2019-10-15T11:02:43.123Z</time>
      </trkpt>
      <trkpt lat="27.620936" lon="86.251107">
        <ele>2199</ele>
        <time>2019-10-15T11:03:48.123Z</time>
      </trkpt>
      <trkpt lat="27.621033" lon="86.251207">
        <ele>2199</ele>
        <time>2019-10-15T11:10:46.123Z</time>
      </trkpt>
      <trkpt lat="27.620906" lon="86.25084">
        <ele>2199</ele>
        <time>2019-10-15T11:11:46.123Z</time>
      </trkpt>
      <trkpt lat="27.620794" lon="86.250867">
        <ele>2199</ele>
        <time>2019-10-15T11:12:47.123Z</time>
      </trkpt>
      <trkpt lat="27.620749" lon="86.250663">
        <ele>2190</ele>
        <time>2019-10-15T11:13:45.123Z</time>
      </trkpt>
      <trkpt lat="27.621006" lon="86.250248">
        <ele>2182.58170112</ele>
        <time>2019-10-15T11:14:43.123Z</time>
      </trkpt>
      <trkpt lat="27.621351" lon="86.249753">
        <ele>2180.18170112</ele>
        <time>2019-10-15T11:15:47.123Z</time>
      </trkpt>
      <trkpt lat="27.621726" lon="86.249421">
        <ele>2171</ele>
        <time>2019-10-15T11:16:43.123Z</time>
      </trkpt>
      <trkpt lat="27.621626" lon="86.248918">
        <ele>2153.54510336</ele>
        <time>2019-10-15T11:17:47.123Z</time>
      </trkpt>
      <trkpt lat="27.621639" lon="86.248527">
        <ele>2141.18170112</ele>
        <time>2019-10-15T11:18:47.123Z</time>
      </trkpt>
      <trkpt lat="27.622015" lon="86.248235">
        <ele>2133.18496023581</ele>
        <time>2019-10-15T11:19:47.123Z</time>
      </trkpt>
      <trkpt lat="27.621946" lon="86.247648">
        <ele>2126</ele>
        <time>2019-10-15T11:20:45.123Z</time>
      </trkpt>
      <trkpt lat="27.622185" lon="86.24708">
        <ele>2122.18170112</ele>
        <time>2019-10-15T11:21:47.123Z</time>
      </trkpt>
      <trkpt lat="27.622362" lon="86.246406">
        <ele>2108</ele>
        <time>2019-10-15T11:22:46.123Z</time>
      </trkpt>
      <trkpt lat="27.622233" lon="86.245894">
        <ele>2100.28170112</ele>
        <time>2019-10-15T11:23:46.123Z</time>
      </trkpt>
      <trkpt lat="27.622438" lon="86.245155">
        <ele>2087.16340224</ele>
        <time>2019-10-15T11:24:43.123Z</time>
      </trkpt>
      <trkpt lat="27.622548" lon="86.244769">
        <ele>2075</ele>
        <time>2019-10-15T11:25:47.123Z</time>
      </trkpt>
      <trkpt lat="27.622752" lon="86.244346">
        <ele>2060.52680448</ele>
        <time>2019-10-15T11:26:45.123Z</time>
      </trkpt>
      <trkpt lat="27.622892" lon="86.243912">
        <ele>2045.84510336</ele>
        <time>2019-10-15T11:27:46.123Z</time>
      </trkpt>
      <trkpt lat="27.623194" lon="86.243253">
        <ele>2036.36340224</ele>
        <time>2019-10-15T11:28:47.123Z</time>
      </trkpt>
      <trkpt lat="27.623062" lon="86.242577">
        <ele>2028.58170112</ele>
        <time>2019-10-15T11:29:43.123Z</time>
      </trkpt>
      <trkpt lat="27.622622" lon="86.242023">
        <ele>2017.38170112</ele>
        <time>2019-10-15T11:30:45.123Z</time>
      </trkpt>
      <trkpt lat="27.62235" lon="86.241481">
        <ele>2003.44510336</ele>
        <time>2019-10-15T11:31:44.123Z</time>
      </trkpt>
      <trkpt lat="27.622805" lon="86.240964">
        <ele>1994</ele>
        <time>2019-10-15T11:32:46.123Z</time>
      </trkpt>
      <trkpt lat="27.623102" lon="86.240198">
        <ele>1982.76340224</ele>
        <time>2019-10-15T11:33:45.123Z</time>
      </trkpt>
      <trkpt lat="27.623766" lon="86.23992">
        <ele>1975</ele>
        <time>2019-10-15T11:34:46.123Z</time>
      </trkpt>
      <trkpt lat="27.624528" lon="86.240344">
        <ele>1968.18496023581</ele>
        <time>2019-10-15T11:35:47.123Z</time>
      </trkpt>
      <trkpt lat="27.624928" lon="86.240647">
        <ele>1963</ele>
        <time>2019-10-15T11:36:55.296Z</time>
      </trkpt>
      <trkpt lat="27.625329" lon="86.241208">
        <ele>1956.12680448</ele>
        <time>2019-10-15T11:37:46.123Z</time>
      </trkpt>
      <trkpt lat="27.62535" lon="86.240694">
        <ele>1951</ele>
        <time>2019-10-15T11:39:13.123Z</time>
      </trkpt>
      <trkpt lat="27.625692" lon="86.240072">
        <ele>1955</ele>
        <time>2019-10-15T11:39:58.123Z</time>
      </trkpt>
      <trkpt lat="27.626419" lon="86.239429">
        <ele>1954.14510336</ele>
        <time>2019-10-15T11:41:25.123Z</time>
      </trkpt>
      <trkpt lat="27.626409" lon="86.239198">
        <ele>1948</ele>
        <time>2019-10-15T11:42:25.123Z</time>
      </trkpt>
      <trkpt lat="27.626834" lon="86.239148">
        <ele>1943.76340224</ele>
        <time>2019-10-15T11:43:25.123Z</time>
      </trkpt>
      <trkpt lat="27.627402" lon="86.239176">
        <ele>1940.88170112</ele>
        <time>2019-10-15T11:44:10.123Z</time>
      </trkpt>
      <trkpt lat="27.627756" lon="86.238722">
        <ele>1935.38170112</ele>
        <time>2019-10-15T11:44:55.123Z</time>
      </trkpt>
      <trkpt lat="27.628286" lon="86.238254">
        <ele>1931</ele>
        <time>2019-10-15T11:45:47.123Z</time>
      </trkpt>
      <trkpt lat="27.628588" lon="86.237908">
        <ele>1928.58170112</ele>
        <time>2019-10-15T11:46:43.123Z</time>
      </trkpt>
      <trkpt lat="27.62918" lon="86.237393">
        <ele>1916.32680448</ele>
        <time>2019-10-15T11:47:43.123Z</time>
      </trkpt>
      <trkpt lat="27.62926" lon="86.236958">
        <ele>1908.16340224</ele>
        <time>2019-10-15T11:48:43.123Z</time>
      </trkpt>
      <trkpt lat="27.629659" lon="86.236462">
        <ele>1893.4085056</ele>
        <time>2019-10-15T11:49:46.123Z</time>
      </trkpt>
      <trkpt lat="27.629755" lon="86.236297">
        <ele>1881.16340224</ele>
        <time>2019-10-15T11:50:43.123Z</time>
      </trkpt>
      <trkpt lat="27.63015" lon="86.235998">
        <ele>1870</ele>
        <time>2019-10-15T11:51:45.123Z</time>
      </trkpt>
      <trkpt lat="27.63031" lon="86.235644">
        <ele>1859</ele>
        <time>2019-10-15T11:52:43.123Z</time>
      </trkpt>
      <trkpt lat="27.630414" lon="86.235192">
        <ele>1848.16340224</ele>
        <time>2019-10-15T11:53:43.123Z</time>
      </trkpt>
      <trkpt lat="27.630631" lon="86.234789">
        <ele>1836.18496023581</ele>
        <time>2019-10-15T11:54:47.123Z</time>
      </trkpt>
      <trkpt lat="27.630882" lon="86.234472">
        <ele>1826</ele>
        <time>2019-10-15T11:57:52.204Z</time>
      </trkpt>
      <trkpt lat="27.631364" lon="86.234123">
        <ele>1822</ele>
        <time>2019-10-15T11:58:46.123Z</time>
      </trkpt>
      <trkpt lat="27.631984" lon="86.233652">
        <ele>1827</ele>
        <time>2019-10-15T12:00:25.123Z</time>
      </trkpt>
      <trkpt lat="27.632654" lon="86.233765">
        <ele>1829</ele>
        <time>2019-10-15T12:01:25.123Z</time>
      </trkpt>
      <trkpt lat="27.633322" lon="86.232855">
        <ele>1830</ele>
        <time>2019-10-15T12:03:10.123Z</time>
      </trkpt>
      <trkpt lat="27.63375" lon="86.23273">
        <ele>1830</ele>
        <time>2019-10-15T12:03:55.123Z</time>
      </trkpt>
      <trkpt lat="27.635041" lon="86.232222">
        <ele>1838.93546419515</ele>
        <time>2019-10-15T12:06:18.304Z</time>
      </trkpt>
      <trkpt lat="27.635268" lon="86.23195">
        <ele>1837.58170112</ele>
        <time>2019-10-15T12:07:03.123Z</time>
      </trkpt>
      <trkpt lat="27.636014" lon="86.232089">
        <ele>1838.61829888</ele>
        <time>2019-10-15T12:08:25.123Z</time>
      </trkpt>
      <trkpt lat="27.636577" lon="86.231845">
        <ele>1842</ele>
        <time>2019-10-15T12:09:30.123Z</time>
      </trkpt>
      <trkpt lat="27.636684" lon="86.231973">
        <ele>1846</ele>
        <time>2019-10-15T12:11:10.123Z</time>
      </trkpt>
      <trkpt lat="27.636577" lon="86.231942">
        <ele>1968.90002441406</ele>
        <time>2019-10-16T05:32:04.122Z</time>
      </trkpt>
      <trkpt lat="27.636594" lon="86.231842">
        <ele>1828</ele>
        <time>2019-10-16T05:32:15.122Z</time>
      </trkpt>
      <trkpt lat="27.636639" lon="86.231189">
        <ele>1828</ele>
        <time>2019-10-16T05:33:19.122Z</time>
      </trkpt>
      <trkpt lat="27.636662" lon="86.230777">
        <ele>1828</ele>
        <time>2019-10-16T05:34:24.122Z</time>
      </trkpt>
      <trkpt lat="27.636888" lon="86.230732">
        <ele>1828</ele>
        <time>2019-10-16T05:35:26.122Z</time>
      </trkpt>
      <trkpt lat="27.637407" lon="86.230717">
        <ele>1837.26119936</ele>
        <time>2019-10-16T05:36:26.122Z</time>
      </trkpt>
      <trkpt lat="27.63784" lon="86.230387">
        <ele>1843</ele>
        <time>2019-10-16T05:37:32.122Z</time>
      </trkpt>
      <trkpt lat="27.638364" lon="86.229985">
        <ele>1847</ele>
        <time>2019-10-16T05:38:34.122Z</time>
      </trkpt>
      <trkpt lat="27.63872" lon="86.229696">
        <ele>1849</ele>
        <time>2019-10-16T05:40:10.122Z</time>
      </trkpt>
      <trkpt lat="27.639083" lon="86.229527">
        <ele>1854.32239872</ele>
        <time>2019-10-16T05:41:15.122Z</time>
      </trkpt>
      <trkpt lat="27.639581" lon="86.229443">
        <ele>1862.72239872</ele>
        <time>2019-10-16T05:42:22.122Z</time>
      </trkpt>
      <trkpt lat="27.640074" lon="86.229277">
        <ele>1870.32239872</ele>
        <time>2019-10-16T05:43:30.122Z</time>
      </trkpt>
      <trkpt lat="27.640512" lon="86.228849">
        <ele>1875</ele>
        <time>2019-10-16T05:44:38.122Z</time>
      </trkpt>
      <trkpt lat="27.640897" lon="86.22851">
        <ele>1878</ele>
        <time>2019-10-16T05:45:48.122Z</time>
      </trkpt>
      <trkpt lat="27.641237" lon="86.228346">
        <ele>1880</ele>
        <time>2019-10-16T05:46:33.122Z</time>
      </trkpt>
      <trkpt lat="27.641577" lon="86.228333">
        <ele>1885</ele>
        <time>2019-10-16T05:47:18.122Z</time>
      </trkpt>
      <trkpt lat="27.641957" lon="86.228125">
        <ele>1889.26119936</ele>
        <time>2019-10-16T05:48:06.122Z</time>
      </trkpt>
      <trkpt lat="27.642493" lon="86.227996">
        <ele>1895.66119936</ele>
        <time>2019-10-16T05:49:10.122Z</time>
      </trkpt>
      <trkpt lat="27.642914" lon="86.227972">
        <ele>1902.46119936</ele>
        <time>2019-10-16T05:50:08.122Z</time>
      </trkpt>
      <trkpt lat="27.643387" lon="86.228006">
        <ele>1908.31821763581</ele>
        <time>2019-10-16T05:51:06.699Z</time>
      </trkpt>
      <trkpt lat="27.643894" lon="86.228022">
        <ele>1914.36119936</ele>
        <time>2019-10-16T05:52:07.122Z</time>
      </trkpt>
      <trkpt lat="27.644314" lon="86.227956">
        <ele>1920.92239872</ele>
        <time>2019-10-16T05:53:08.122Z</time>
      </trkpt>
      <trkpt lat="27.644754" lon="86.228124">
        <ele>1927.12239872</ele>
        <time>2019-10-16T05:54:09.122Z</time>
      </trkpt>
      <trkpt lat="27.645177" lon="86.228149">
        <ele>1933.26119936</ele>
        <time>2019-10-16T05:55:06.122Z</time>
      </trkpt>
      <trkpt lat="27.645644" lon="86.228215">
        <ele>1940.46119936</ele>
        <time>2019-10-16T05:56:08.122Z</time>
      </trkpt>
      <trkpt lat="27.645979" lon="86.228007">
        <ele>1942</ele>
        <time>2019-10-16T05:57:11.122Z</time>
      </trkpt>
      <trkpt lat="27.646237" lon="86.227487">
        <ele>1944.52239872</ele>
        <time>2019-10-16T05:58:06.122Z</time>
      </trkpt>
      <trkpt lat="27.646684" lon="86.227512">
        <ele>1952.26119936</ele>
        <time>2019-10-16T05:59:06.122Z</time>
      </trkpt>
      <trkpt lat="27.647218" lon="86.227642">
        <ele>1957.52239872</ele>
        <time>2019-10-16T06:00:06.122Z</time>
      </trkpt>
      <trkpt lat="27.64755" lon="86.227856">
        <ele>1965.46119936</ele>
        <time>2019-10-16T06:01:08.122Z</time>
      </trkpt>
      <trkpt lat="27.647964" lon="86.22825">
        <ele>1972.52239872</ele>
        <time>2019-10-16T06:02:11.122Z</time>
      </trkpt>
      <trkpt lat="27.648213" lon="86.228567">
        <ele>1979.46119936</ele>
        <time>2019-10-16T06:03:08.122Z</time>
      </trkpt>
      <trkpt lat="27.648385" lon="86.228608">
        <ele>1983.324</ele>
        <time>2019-10-16T06:05:06.750Z</time>
      </trkpt>
      <trkpt lat="27.648616" lon="86.228583">
        <ele>1988.72239872</ele>
        <time>2019-10-16T06:07:07.122Z</time>
      </trkpt>
      <trkpt lat="27.648845" lon="86.228658">
        <ele>1998.26119936</ele>
        <time>2019-10-16T06:08:06.122Z</time>
      </trkpt>
      <trkpt lat="27.649125" lon="86.228664">
        <ele>2006</ele>
        <time>2019-10-16T06:09:10.122Z</time>
      </trkpt>
      <trkpt lat="27.649297" lon="86.228588">
        <ele>2016</ele>
        <time>2019-10-16T06:10:06.122Z</time>
      </trkpt>
      <trkpt lat="27.649509" lon="86.228528">
        <ele>2022.26119936</ele>
        <time>2019-10-16T06:11:06.122Z</time>
      </trkpt>
      <trkpt lat="27.649768" lon="86.228323">
        <ele>2028.92239872</ele>
        <time>2019-10-16T06:12:08.122Z</time>
      </trkpt>
      <trkpt lat="27.649986" lon="86.228144">
        <ele>2036.56119936</ele>
        <time>2019-10-16T06:13:09.122Z</time>
      </trkpt>
      <trkpt lat="27.650173" lon="86.227951">
        <ele>2041.72239872</ele>
        <time>2019-10-16T06:16:07.122Z</time>
      </trkpt>
      <trkpt lat="27.650545" lon="86.227886">
        <ele>2048.260938505</ele>
        <time>2019-10-16T06:17:06.122Z</time>
      </trkpt>
      <trkpt lat="27.650691" lon="86.227861">
        <ele>2053.52239872</ele>
        <time>2019-10-16T06:18:06.122Z</time>
      </trkpt>
      <trkpt lat="27.650959" lon="86.227818">
        <ele>2061.12239872</ele>
        <time>2019-10-16T06:19:09.122Z</time>
      </trkpt>
      <trkpt lat="27.651083" lon="86.227823">
        <ele>2069</ele>
        <time>2019-10-16T06:20:09.122Z</time>
      </trkpt>
      <trkpt lat="27.65135" lon="86.227723">
        <ele>2074.92239872</ele>
        <time>2019-10-16T06:21:08.122Z</time>
      </trkpt>
      <trkpt lat="27.651572" lon="86.227586">
        <ele>2082.92239872</ele>
        <time>2019-10-16T06:22:08.122Z</time>
      </trkpt>
      <trkpt lat="27.651762" lon="86.227584">
        <ele>2089.78359808</ele>
        <time>2019-10-16T06:23:06.122Z</time>
      </trkpt>
      <trkpt lat="27.651914" lon="86.22753">
        <ele>2094.12239872</ele>
        <time>2019-10-16T06:24:09.122Z</time>
      </trkpt>
      <trkpt lat="27.652023" lon="86.227389">
        <ele>2098.92239872</ele>
        <time>2019-10-16T06:25:08.122Z</time>
      </trkpt>
      <trkpt lat="27.652228" lon="86.227309">
        <ele>2100.46119936</ele>
        <time>2019-10-16T06:26:08.122Z</time>
      </trkpt>
      <trkpt lat="27.652368" lon="86.227073">
        <ele>2109.26119936</ele>
        <time>2019-10-16T06:27:06.122Z</time>
      </trkpt>
      <trkpt lat="27.652632" lon="86.226902">
        <ele>2118</ele>
        <time>2019-10-16T06:28:06.122Z</time>
      </trkpt>
      <trkpt lat="27.652975" lon="86.226807">
        <ele>2125.36119936</ele>
        <time>2019-10-16T06:29:07.122Z</time>
      </trkpt>
      <trkpt lat="27.653247" lon="86.22662">
        <ele>2129.64879872</ele>
        <time>2019-10-16T06:30:06.754Z</time>
      </trkpt>
      <trkpt lat="27.653644" lon="86.226563">
        <ele>2137</ele>
        <time>2019-10-16T06:31:08.122Z</time>
      </trkpt>
      <trkpt lat="27.653881" lon="86.226454">
        <ele>2143.12239872</ele>
        <time>2019-10-16T06:32:09.122Z</time>
      </trkpt>
      <trkpt lat="27.654142" lon="86.226442">
        <ele>2150.66119936</ele>
        <time>2019-10-16T06:33:10.122Z</time>
      </trkpt>
      <trkpt lat="27.654671" lon="86.226314">
        <ele>2154</ele>
        <time>2019-10-16T06:34:09.122Z</time>
      </trkpt>
      <trkpt lat="27.655186" lon="86.226203">
        <ele>2156.56119936</ele>
        <time>2019-10-16T06:35:09.122Z</time>
      </trkpt>
      <trkpt lat="27.655276" lon="86.226131">
        <ele>2159</ele>
        <time>2019-10-16T06:36:09.122Z</time>
      </trkpt>
      <trkpt lat="27.655542" lon="86.225994">
        <ele>2161.56076026082</ele>
        <time>2019-10-16T06:37:09.122Z</time>
      </trkpt>
      <trkpt lat="27.655938" lon="86.225665">
        <ele>2169.68359808</ele>
        <time>2019-10-16T06:38:09.122Z</time>
      </trkpt>
      <trkpt lat="27.656262" lon="86.225392">
        <ele>2176</ele>
        <time>2019-10-16T06:39:09.122Z</time>
      </trkpt>
      <trkpt lat="27.656679" lon="86.225696">
        <ele>2181.76119936</ele>
        <time>2019-10-16T06:40:11.122Z</time>
      </trkpt>
      <trkpt lat="27.657112" lon="86.225591">
        <ele>2185.86119936</ele>
        <time>2019-10-16T06:41:12.122Z</time>
      </trkpt>
      <trkpt lat="27.657216" lon="86.225589">
        <ele>2188.76119936</ele>
        <time>2019-10-16T06:42:11.122Z</time>
      </trkpt>
      <trkpt lat="27.65749" lon="86.225467">
        <ele>2197</ele>
        <time>2019-10-16T06:43:09.122Z</time>
      </trkpt>
      <trkpt lat="27.657844" lon="86.225362">
        <ele>2202.52239872</ele>
        <time>2019-10-16T06:44:11.122Z</time>
      </trkpt>
      <trkpt lat="27.658034" lon="86.225318">
        <ele>2209.66119936</ele>
        <time>2019-10-16T06:45:10.122Z</time>
      </trkpt>
      <trkpt lat="27.658311" lon="86.225236">
        <ele>2216.92239872</ele>
        <time>2019-10-16T06:46:08.122Z</time>
      </trkpt>
      <trkpt lat="27.658626" lon="86.22514">
        <ele>2223.56119936</ele>
        <time>2019-10-16T06:47:09.122Z</time>
      </trkpt>
      <trkpt lat="27.658965" lon="86.225131">
        <ele>2224</ele>
        <time>2019-10-16T06:48:11.122Z</time>
      </trkpt>
      <trkpt lat="27.659343" lon="86.225365">
        <ele>2219.66119936</ele>
        <time>2019-10-16T06:49:30.122Z</time>
      </trkpt>
      <trkpt lat="27.659601" lon="86.225397">
        <ele>2224.73880064</ele>
        <time>2019-10-16T06:50:16.122Z</time>
      </trkpt>
      <trkpt lat="27.659918" lon="86.225238">
        <ele>2230.76043916418</ele>
        <time>2019-10-16T06:52:21.122Z</time>
      </trkpt>
      <trkpt lat="27.65994" lon="86.224918">
        <ele>2234</ele>
        <time>2019-10-16T06:53:08.122Z</time>
      </trkpt>
      <trkpt lat="27.66008" lon="86.224942">
        <ele>2243.46119936</ele>
        <time>2019-10-16T06:54:48.122Z</time>
      </trkpt>
      <trkpt lat="27.660171" lon="86.225052">
        <ele>2251.92239872</ele>
        <time>2019-10-16T06:55:48.122Z</time>
      </trkpt>
      <trkpt lat="27.660268" lon="86.225116">
        <ele>2258.46119936</ele>
        <time>2019-10-16T06:56:48.122Z</time>
      </trkpt>
      <trkpt lat="27.660438" lon="86.224997">
        <ele>2269</ele>
        <time>2019-10-16T06:58:18.122Z</time>
      </trkpt>
      <trkpt lat="27.660529" lon="86.224873">
        <ele>2274.92239872</ele>
        <time>2019-10-16T06:59:08.122Z</time>
      </trkpt>
      <trkpt lat="27.660752" lon="86.224741">
        <ele>2281.46119936</ele>
        <time>2019-10-16T07:00:08.122Z</time>
      </trkpt>
      <trkpt lat="27.66113" lon="86.224704">
        <ele>2286.56119936</ele>
        <time>2019-10-16T07:01:09.122Z</time>
      </trkpt>
      <trkpt lat="27.661516" lon="86.225092">
        <ele>2289</ele>
        <time>2019-10-16T07:02:09.122Z</time>
      </trkpt>
      <trkpt lat="27.661771" lon="86.225133">
        <ele>2292.56119936</ele>
        <time>2019-10-16T07:03:09.122Z</time>
      </trkpt>
      <trkpt lat="27.662247" lon="86.22523">
        <ele>2300.56119936</ele>
        <time>2019-10-16T07:04:09.122Z</time>
      </trkpt>
      <trkpt lat="27.662513" lon="86.225451">
        <ele>2303.52239872</ele>
        <time>2019-10-16T07:05:06.122Z</time>
      </trkpt>
      <trkpt lat="27.662561" lon="86.225554">
        <ele>2306</ele>
        <time>2019-10-16T07:06:08.122Z</time>
      </trkpt>
      <trkpt lat="27.662644" lon="86.225427">
        <ele>2307</ele>
        <time>2019-10-16T07:08:06.122Z</time>
      </trkpt>
      <trkpt lat="27.662558" lon="86.225501">
        <ele>2308</ele>
        <time>2019-10-16T07:10:09.122Z</time>
      </trkpt>
      <trkpt lat="27.662706" lon="86.225409">
        <ele>2307</ele>
        <time>2019-10-16T07:11:10.122Z</time>
      </trkpt>
      <trkpt lat="27.663014" lon="86.225259">
        <ele>2315</ele>
        <time>2019-10-16T07:13:09.122Z</time>
      </trkpt>
      <trkpt lat="27.663248" lon="86.224765">
        <ele>2316.92239872</ele>
        <time>2019-10-16T07:14:08.122Z</time>
      </trkpt>
      <trkpt lat="27.663233" lon="86.224158">
        <ele>2321.32239872</ele>
        <time>2019-10-16T07:15:10.122Z</time>
      </trkpt>
      <trkpt lat="27.663352" lon="86.223477">
        <ele>2327.12239872</ele>
        <time>2019-10-16T07:16:09.122Z</time>
      </trkpt>
      <trkpt lat="27.663548" lon="86.222729">
        <ele>2330.46119936</ele>
        <time>2019-10-16T07:17:08.122Z</time>
      </trkpt>
      <trkpt lat="27.663579" lon="86.22223">
        <ele>2336.46119936</ele>
        <time>2019-10-16T07:18:08.122Z</time>
      </trkpt>
      <trkpt lat="27.663647" lon="86.221927">
        <ele>2338.92239872</ele>
        <time>2019-10-16T07:19:08.122Z</time>
      </trkpt>
      <trkpt lat="27.663579" lon="86.221539">
        <ele>2347.36119936</ele>
        <time>2019-10-16T07:20:07.122Z</time>
      </trkpt>
      <trkpt lat="27.663874" lon="86.221412">
        <ele>2354.72239872</ele>
        <time>2019-10-16T07:21:07.122Z</time>
      </trkpt>
      <trkpt lat="27.66402" lon="86.221337">
        <ele>2362.72239872</ele>
        <time>2019-10-16T07:22:07.122Z</time>
      </trkpt>
      <trkpt lat="27.664225" lon="86.221319">
        <ele>2371.12239872</ele>
        <time>2019-10-16T07:23:09.122Z</time>
      </trkpt>
      <trkpt lat="27.664407" lon="86.221268">
        <ele>2386</ele>
        <time>2019-10-16T07:25:08.122Z</time>
      </trkpt>
      <trkpt lat="27.664592" lon="86.221315">
        <ele>2391.92239872</ele>
        <time>2019-10-16T07:26:08.122Z</time>
      </trkpt>
      <trkpt lat="27.664711" lon="86.221211">
        <ele>2399.66119936</ele>
        <time>2019-10-16T07:27:10.122Z</time>
      </trkpt>
      <trkpt lat="27.66481" lon="86.221181">
        <ele>2407.46119936</ele>
        <time>2019-10-16T07:28:08.122Z</time>
      </trkpt>
      <trkpt lat="27.664944" lon="86.22122">
        <ele>2414.32239872</ele>
        <time>2019-10-16T07:29:10.122Z</time>
      </trkpt>
      <trkpt lat="27.665141" lon="86.221113">
        <ele>2419.66119936</ele>
        <time>2019-10-16T07:30:10.122Z</time>
      </trkpt>
      <trkpt lat="27.665236" lon="86.220835">
        <ele>2439</ele>
        <time>2019-10-16T07:33:08.122Z</time>
      </trkpt>
      <trkpt lat="27.665337" lon="86.220596">
        <ele>2441.66119936</ele>
        <time>2019-10-16T07:34:10.122Z</time>
      </trkpt>
      <trkpt lat="27.665505" lon="86.220206">
        <ele>2448.56119936</ele>
        <time>2019-10-16T07:35:09.122Z</time>
      </trkpt>
      <trkpt lat="27.665599" lon="86.219766">
        <ele>2454.92239872</ele>
        <time>2019-10-16T07:36:08.122Z</time>
      </trkpt>
      <trkpt lat="27.665702" lon="86.21926">
        <ele>2461.66119936</ele>
        <time>2019-10-16T07:37:10.122Z</time>
      </trkpt>
      <trkpt lat="27.665646" lon="86.21876">
        <ele>2467.56119936</ele>
        <time>2019-10-16T07:38:09.122Z</time>
      </trkpt>
      <trkpt lat="27.665526" lon="86.218365">
        <ele>2470.36119936</ele>
        <time>2019-10-16T07:39:07.122Z</time>
      </trkpt>
      <trkpt lat="27.665272" lon="86.217944">
        <ele>2479</ele>
        <time>2019-10-16T07:40:06.122Z</time>
      </trkpt>
      <trkpt lat="27.665291" lon="86.217818">
        <ele>2487.12239872</ele>
        <time>2019-10-16T07:41:09.122Z</time>
      </trkpt>
      <trkpt lat="27.66553" lon="86.218014">
        <ele>2493.92239872</ele>
        <time>2019-10-16T07:42:08.122Z</time>
      </trkpt>
      <trkpt lat="27.665729" lon="86.218005">
        <ele>2501.56119936</ele>
        <time>2019-10-16T07:43:09.122Z</time>
      </trkpt>
      <trkpt lat="27.665775" lon="86.217812">
        <ele>2509.68359808</ele>
        <time>2019-10-16T07:44:09.122Z</time>
      </trkpt>
      <trkpt lat="27.665907" lon="86.21783">
        <ele>2517.56119936</ele>
        <time>2019-10-16T07:45:09.122Z</time>
      </trkpt>
      <trkpt lat="27.66599" lon="86.217671">
        <ele>2524.56119936</ele>
        <time>2019-10-16T07:46:09.122Z</time>
      </trkpt>
      <trkpt lat="27.666076" lon="86.217548">
        <ele>2530.72239872</ele>
        <time>2019-10-16T07:47:07.122Z</time>
      </trkpt>
      <trkpt lat="27.666195" lon="86.217116">
        <ele>2537.66119936</ele>
        <time>2019-10-16T07:48:10.122Z</time>
      </trkpt>
      <trkpt lat="27.6665" lon="86.21693">
        <ele>2545</ele>
        <time>2019-10-16T07:49:10.122Z</time>
      </trkpt>
      <trkpt lat="27.666625" lon="86.21655">
        <ele>2550.56119936</ele>
        <time>2019-10-16T07:50:09.122Z</time>
      </trkpt>
      <trkpt lat="27.666854" lon="86.216162">
        <ele>2555.92239872</ele>
        <time>2019-10-16T07:51:08.122Z</time>
      </trkpt>
      <trkpt lat="27.667031" lon="86.215943">
        <ele>2561.36119936</ele>
        <time>2019-10-16T07:52:07.122Z</time>
      </trkpt>
      <trkpt lat="27.667884" lon="86.215304">
        <ele>2572</ele>
        <time>2019-10-16T07:54:03.122Z</time>
      </trkpt>
      <trkpt lat="27.668184" lon="86.21531">
        <ele>2576.92132038556</ele>
        <time>2019-10-16T07:54:48.122Z</time>
      </trkpt>
      <trkpt lat="27.668507" lon="86.215669">
        <ele>2584</ele>
        <time>2019-10-16T07:55:48.122Z</time>
      </trkpt>
      <trkpt lat="27.668758" lon="86.215543">
        <ele>2587.46119936</ele>
        <time>2019-10-16T07:56:48.122Z</time>
      </trkpt>
      <trkpt lat="27.669154" lon="86.2159">
        <ele>2595</ele>
        <time>2019-10-16T07:57:48.122Z</time>
      </trkpt>
      <trkpt lat="27.669647" lon="86.216021">
        <ele>2599.46119936</ele>
        <time>2019-10-16T07:58:48.122Z</time>
      </trkpt>
      <trkpt lat="27.670108" lon="86.216214">
        <ele>2601.96119936</ele>
        <time>2019-10-16T07:59:33.122Z</time>
      </trkpt>
      <trkpt lat="27.670731" lon="86.216387">
        <ele>2601.03880064</ele>
        <time>2019-10-16T08:00:33.122Z</time>
      </trkpt>
      <trkpt lat="27.671315" lon="86.216373">
        <ele>2594.61640192</ele>
        <time>2019-10-16T08:01:18.122Z</time>
      </trkpt>
      <trkpt lat="27.671687" lon="86.216104">
        <ele>2580.33880064</ele>
        <time>2019-10-16T08:02:10.122Z</time>
      </trkpt>
      <trkpt lat="27.671625" lon="86.216233">
        <ele>2580</ele>
        <time>2019-10-16T08:05:10.122Z</time>
      </trkpt>
      <trkpt lat="27.671701" lon="86.216478">
        <ele>2575.27760128</ele>
        <time>2019-10-16T08:06:07.122Z</time>
      </trkpt>
      <trkpt lat="27.671694" lon="86.216792">
        <ele>2562</ele>
        <time>2019-10-16T08:07:07.122Z</time>
      </trkpt>
      <trkpt lat="27.672017" lon="86.21731">
        <ele>2549.93880064</ele>
        <time>2019-10-16T08:08:14.122Z</time>
      </trkpt>
      <trkpt lat="27.672314" lon="86.217622">
        <ele>2550</ele>
        <time>2019-10-16T08:09:08.122Z</time>
      </trkpt>
      <trkpt lat="27.672843" lon="86.217366">
        <ele>2545</ele>
        <time>2019-10-16T08:10:09.122Z</time>
      </trkpt>
      <trkpt lat="27.67328" lon="86.21737">
        <ele>2539</ele>
        <time>2019-10-16T08:11:09.122Z</time>
      </trkpt>
      <trkpt lat="27.673843" lon="86.217242">
        <ele>2524.63880064</ele>
        <time>2019-10-16T08:12:07.122Z</time>
      </trkpt>
      <trkpt lat="27.674356" lon="86.21719">
        <ele>2518</ele>
        <time>2019-10-16T08:13:10.122Z</time>
      </trkpt>
      <trkpt lat="27.674652" lon="86.217242">
        <ele>2512.23880064</ele>
        <time>2019-10-16T08:14:11.122Z</time>
      </trkpt>
      <trkpt lat="27.675337" lon="86.216946">
        <ele>2506</ele>
        <time>2019-10-16T08:15:10.122Z</time>
      </trkpt>
      <trkpt lat="27.675839" lon="86.216949">
        <ele>2504</ele>
        <time>2019-10-16T08:16:09.122Z</time>
      </trkpt>
      <trkpt lat="27.67575" lon="86.21739">
        <ele>2498</ele>
        <time>2019-10-16T08:17:10.122Z</time>
      </trkpt>
      <trkpt lat="27.675978" lon="86.217524">
        <ele>2487.67760128</ele>
        <time>2019-10-16T08:18:10.122Z</time>
      </trkpt>
      <trkpt lat="27.676101" lon="86.217683">
        <ele>2473.91640192</ele>
        <time>2019-10-16T08:19:07.122Z</time>
      </trkpt>
      <trkpt lat="27.676205" lon="86.21801">
        <ele>2461.13966070399</ele>
        <time>2019-10-16T08:20:12.122Z</time>
      </trkpt>
      <trkpt lat="27.67571" lon="86.21852">
        <ele>2448</ele>
        <time>2019-10-16T08:21:29.122Z</time>
      </trkpt>
      <trkpt lat="27.675471" lon="86.218964">
        <ele>2441.03880064</ele>
        <time>2019-10-16T08:22:23.122Z</time>
      </trkpt>
      <trkpt lat="27.675434" lon="86.219184">
        <ele>2432.03880064</ele>
        <time>2019-10-16T08:23:23.122Z</time>
      </trkpt>
      <trkpt lat="27.67551" lon="86.219363">
        <ele>2420.01640192</ele>
        <time>2019-10-16T08:24:30.122Z</time>
      </trkpt>
      <trkpt lat="27.675608" lon="86.219591">
        <ele>2406.07760128</ele>
        <time>2019-10-16T08:25:38.122Z</time>
      </trkpt>
      <trkpt lat="27.675783" lon="86.219726">
        <ele>2397.87760128</ele>
        <time>2019-10-16T08:26:34.122Z</time>
      </trkpt>
      <trkpt lat="27.675943" lon="86.219631">
        <ele>2384.07760128</ele>
        <time>2019-10-16T08:27:48.122Z</time>
      </trkpt>
      <trkpt lat="27.676126" lon="86.219717">
        <ele>2372.07760128</ele>
        <time>2019-10-16T08:28:48.122Z</time>
      </trkpt>
      <trkpt lat="27.676311" lon="86.219734">
        <ele>2359.53880064</ele>
        <time>2019-10-16T08:29:48.122Z</time>
      </trkpt>
      <trkpt lat="27.676382" lon="86.21983">
        <ele>2357</ele>
        <time>2019-10-16T08:30:33.122Z</time>
      </trkpt>
      <trkpt lat="27.676676" lon="86.219749">
        <ele>2347.07760128</ele>
        <time>2019-10-16T08:31:18.122Z</time>
      </trkpt>
      <trkpt lat="27.676891" lon="86.219972">
        <ele>2337.23880064</ele>
        <time>2019-10-16T08:32:11.122Z</time>
      </trkpt>
      <trkpt lat="27.677014" lon="86.220236">
        <ele>2326.33880064</ele>
        <time>2019-10-16T08:33:10.122Z</time>
      </trkpt>
      <trkpt lat="27.677489" lon="86.220618">
        <ele>2317</ele>
        <time>2019-10-16T08:34:10.122Z</time>
      </trkpt>
      <trkpt lat="27.677893" lon="86.221128">
        <ele>2309.53880064</ele>
        <time>2019-10-16T08:35:08.122Z</time>
      </trkpt>
      <trkpt lat="27.678422" lon="86.221433">
        <ele>2298.87760128</ele>
        <time>2019-10-16T08:36:09.122Z</time>
      </trkpt>
      <trkpt lat="27.678838" lon="86.222025">
        <ele>2289.63880064</ele>
        <time>2019-10-16T08:37:07.122Z</time>
      </trkpt>
      <trkpt lat="27.679164" lon="86.222745">
        <ele>2282</ele>
        <time>2019-10-16T08:38:11.122Z</time>
      </trkpt>
      <trkpt lat="27.679447" lon="86.223436">
        <ele>2277.56119936</ele>
        <time>2019-10-16T08:39:09.122Z</time>
      </trkpt>
      <trkpt lat="27.679444" lon="86.22421">
        <ele>2272.67827934229</ele>
        <time>2019-10-16T08:40:10.122Z</time>
      </trkpt>
      <trkpt lat="27.67938" lon="86.225391">
        <ele>2266</ele>
        <time>2019-10-16T08:41:08.122Z</time>
      </trkpt>
      <trkpt lat="27.679523" lon="86.225038">
        <ele>2255.91640192</ele>
        <time>2019-10-16T08:42:17.122Z</time>
      </trkpt>
      <trkpt lat="27.68014" lon="86.225174">
        <ele>2241.53880064</ele>
        <time>2019-10-16T08:43:08.122Z</time>
      </trkpt>
      <trkpt lat="27.680512" lon="86.225452">
        <ele>2231.87760128</ele>
        <time>2019-10-16T08:44:09.122Z</time>
      </trkpt>
      <trkpt lat="27.681145" lon="86.225564">
        <ele>2229.56119936</ele>
        <time>2019-10-16T08:45:09.122Z</time>
      </trkpt>
      <trkpt lat="27.681301" lon="86.225641">
        <ele>2232</ele>
        <time>2019-10-16T08:48:07.122Z</time>
      </trkpt>
      <trkpt lat="27.681088" lon="86.225646">
        <ele>2231</ele>
        <time>2019-10-16T08:49:06.122Z</time>
      </trkpt>
      <trkpt lat="27.681057" lon="86.225541">
        <ele>2232</ele>
        <time>2019-10-16T08:53:08.440Z</time>
      </trkpt>
      <trkpt lat="27.681154" lon="86.225545">
        <ele>2232</ele>
        <time>2019-10-16T08:54:09.122Z</time>
      </trkpt>
      <trkpt lat="27.681105" lon="86.225548">
        <ele>2232</ele>
        <time>2019-10-16T08:55:56.122Z</time>
      </trkpt>
      <trkpt lat="27.681109" lon="86.225556">
        <ele>2233</ele>
        <time>2019-10-16T08:58:33.122Z</time>
      </trkpt>
      <trkpt lat="27.681286" lon="86.225501">
        <ele>2233</ele>
        <time>2019-10-16T09:01:08.122Z</time>
      </trkpt>
      <trkpt lat="27.681538" lon="86.225395">
        <ele>2250.92239872</ele>
        <time>2019-10-16T09:03:08.122Z</time>
      </trkpt>
      <trkpt lat="27.681759" lon="86.22488">
        <ele>2257.26119936</ele>
        <time>2019-10-16T09:04:06.122Z</time>
      </trkpt>
      <trkpt lat="27.682168" lon="86.224471">
        <ele>2263.12239872</ele>
        <time>2019-10-16T09:05:09.122Z</time>
      </trkpt>
      <trkpt lat="27.682456" lon="86.22419">
        <ele>2270.12239872</ele>
        <time>2019-10-16T09:06:09.122Z</time>
      </trkpt>
      <trkpt lat="27.682966" lon="86.224025">
        <ele>2274</ele>
        <time>2019-10-16T09:07:09.122Z</time>
      </trkpt>
      <trkpt lat="27.683392" lon="86.223674">
        <ele>2280</ele>
        <time>2019-10-16T09:08:08.122Z</time>
      </trkpt>
      <trkpt lat="27.683806" lon="86.223082">
        <ele>2278</ele>
        <time>2019-10-16T09:09:10.122Z</time>
      </trkpt>
      <trkpt lat="27.683794" lon="86.222551">
        <ele>2280.72239872</ele>
        <time>2019-10-16T09:10:07.122Z</time>
      </trkpt>
      <trkpt lat="27.684089" lon="86.222128">
        <ele>2287</ele>
        <time>2019-10-16T09:11:06.122Z</time>
      </trkpt>
      <trkpt lat="27.684693" lon="86.22154">
        <ele>2286.46119936</ele>
        <time>2019-10-16T09:12:08.122Z</time>
      </trkpt>
      <trkpt lat="27.68483" lon="86.22134">
        <ele>2289</ele>
        <time>2019-10-16T09:13:06.122Z</time>
      </trkpt>
      <trkpt lat="27.685203" lon="86.220996">
        <ele>2292</ele>
        <time>2019-10-16T09:14:08.122Z</time>
      </trkpt>
      <trkpt lat="27.685103" lon="86.220557">
        <ele>2287</ele>
        <time>2019-10-16T09:15:08.122Z</time>
      </trkpt>
      <trkpt lat="27.685202" lon="86.219851">
        <ele>2279.73880064</ele>
        <time>2019-10-16T09:16:06.122Z</time>
      </trkpt>
      <trkpt lat="27.685207" lon="86.218898">
        <ele>2270</ele>
        <time>2019-10-16T09:17:06.122Z</time>
      </trkpt>
      <trkpt lat="27.684661" lon="86.218261">
        <ele>2265</ele>
        <time>2019-10-16T09:18:08.122Z</time>
      </trkpt>
      <trkpt lat="27.684146" lon="86.21759">
        <ele>2259</ele>
        <time>2019-10-16T09:19:08.122Z</time>
      </trkpt>
      <trkpt lat="27.68346" lon="86.217249">
        <ele>2251</ele>
        <time>2019-10-16T09:20:08.122Z</time>
      </trkpt>
      <trkpt lat="27.68304" lon="86.216892">
        <ele>2245.53880064</ele>
        <time>2019-10-16T09:21:08.122Z</time>
      </trkpt>
      <trkpt lat="27.683343" lon="86.215984">
        <ele>2232.27760128</ele>
        <time>2019-10-16T09:22:07.122Z</time>
      </trkpt>
      <trkpt lat="27.683574" lon="86.215116">
        <ele>2221.07760128</ele>
        <time>2019-10-16T09:23:08.122Z</time>
      </trkpt>
      <trkpt lat="27.683736" lon="86.214354">
        <ele>2222.36119936</ele>
        <time>2019-10-16T09:24:07.122Z</time>
      </trkpt>
      <trkpt lat="27.683874" lon="86.213439">
        <ele>2214.73880064</ele>
        <time>2019-10-16T09:25:06.122Z</time>
      </trkpt>
      <trkpt lat="27.68371" lon="86.212677">
        <ele>2207.47760128</ele>
        <time>2019-10-16T09:26:06.122Z</time>
      </trkpt>
      <trkpt lat="27.68323" lon="86.212023">
        <ele>2198.53880064</ele>
        <time>2019-10-16T09:27:08.122Z</time>
      </trkpt>
      <trkpt lat="27.683076" lon="86.211183">
        <ele>2189.56119936</ele>
        <time>2019-10-16T09:28:09.122Z</time>
      </trkpt>
      <trkpt lat="27.682688" lon="86.210616">
        <ele>2191.46119936</ele>
        <time>2019-10-16T09:29:08.122Z</time>
      </trkpt>
      <trkpt lat="27.682493" lon="86.209817">
        <ele>2186</ele>
        <time>2019-10-16T09:30:06.122Z</time>
      </trkpt>
      <trkpt lat="27.683" lon="86.209186">
        <ele>2183</ele>
        <time>2019-10-16T09:31:07.122Z</time>
      </trkpt>
      <trkpt lat="27.683152" lon="86.20839">
        <ele>2176</ele>
        <time>2019-10-16T09:32:06.122Z</time>
      </trkpt>
      <trkpt lat="27.683353" lon="86.207428">
        <ele>2175</ele>
        <time>2019-10-16T09:33:09.122Z</time>
      </trkpt>
      <trkpt lat="27.683764" lon="86.206664">
        <ele>2166.43880064</ele>
        <time>2019-10-16T09:34:09.122Z</time>
      </trkpt>
      <trkpt lat="27.68461" lon="86.206731">
        <ele>2160.56119936</ele>
        <time>2019-10-16T09:35:09.122Z</time>
      </trkpt>
      <trkpt lat="27.685264" lon="86.20675">
        <ele>2157</ele>
        <time>2019-10-16T09:36:10.122Z</time>
      </trkpt>
      <trkpt lat="27.685906" lon="86.207062">
        <ele>2151.43880064</ele>
        <time>2019-10-16T09:37:09.122Z</time>
      </trkpt>
      <trkpt lat="27.686521" lon="86.206755">
        <ele>2142</ele>
        <time>2019-10-16T09:38:09.122Z</time>
      </trkpt>
      <trkpt lat="27.687265" lon="86.20683">
        <ele>2133</ele>
        <time>2019-10-16T09:39:06.122Z</time>
      </trkpt>
      <trkpt lat="27.687988" lon="86.20698">
        <ele>2123.33880064</ele>
        <time>2019-10-16T09:40:10.122Z</time>
      </trkpt>
      <trkpt lat="27.688438" lon="86.20696">
        <ele>2111.33880064</ele>
        <time>2019-10-16T09:41:10.122Z</time>
      </trkpt>
      <trkpt lat="27.689139" lon="86.207385">
        <ele>2105.56119936</ele>
        <time>2019-10-16T09:42:09.122Z</time>
      </trkpt>
      <trkpt lat="27.689329" lon="86.206588">
        <ele>2099.67760128</ele>
        <time>2019-10-16T09:43:10.122Z</time>
      </trkpt>
      <trkpt lat="27.68936" lon="86.20588">
        <ele>2092</ele>
        <time>2019-10-16T09:44:06.122Z</time>
      </trkpt>
      <trkpt lat="27.689839" lon="86.205145">
        <ele>2088</ele>
        <time>2019-10-16T09:45:06.122Z</time>
      </trkpt>
      <trkpt lat="27.690841" lon="86.205174">
        <ele>2076.33880064</ele>
        <time>2019-10-16T09:46:10.122Z</time>
      </trkpt>
      <trkpt lat="27.691538" lon="86.204762">
        <ele>2075.52239872</ele>
        <time>2019-10-16T09:47:11.122Z</time>
      </trkpt>
      <trkpt lat="27.69216" lon="86.204451">
        <ele>2070</ele>
        <time>2019-10-16T09:48:10.122Z</time>
      </trkpt>
      <trkpt lat="27.692312" lon="86.203621">
        <ele>2064</ele>
        <time>2019-10-16T09:49:09.122Z</time>
      </trkpt>
      <trkpt lat="27.692631" lon="86.202926">
        <ele>2060</ele>
        <time>2019-10-16T09:50:10.122Z</time>
      </trkpt>
      <trkpt lat="27.692441" lon="86.202671">
        <ele>2060</ele>
        <time>2019-10-16T09:51:07.122Z</time>
      </trkpt>
      <trkpt lat="27.692713" lon="86.202206">
        <ele>2057</ele>
        <time>2019-10-16T09:52:12.423Z</time>
      </trkpt>
      <trkpt lat="27.69325" lon="86.20246">
        <ele>2051</ele>
        <time>2019-10-16T09:53:09.122Z</time>
      </trkpt>
      <trkpt lat="27.693632" lon="86.20267">
        <ele>2051</ele>
        <time>2019-10-16T09:54:06.122Z</time>
      </trkpt>
      <trkpt lat="27.693498" lon="86.20337">
        <ele>2051</ele>
        <time>2019-10-16T09:55:09.122Z</time>
      </trkpt>
      <trkpt lat="27.693372" lon="86.204277">
        <ele>2047.33946096766</ele>
        <time>2019-10-16T09:56:10.122Z</time>
      </trkpt>
      <trkpt lat="27.694366" lon="86.204335">
        <ele>2036.95520256</ele>
        <time>2019-10-16T09:57:11.122Z</time>
      </trkpt>
      <trkpt lat="27.694666" lon="86.203952">
        <ele>2041</ele>
        <time>2019-10-16T09:58:06.122Z</time>
      </trkpt>
      <trkpt lat="27.695223" lon="86.203639">
        <ele>2033.86119936</ele>
        <time>2019-10-16T09:59:12.122Z</time>
      </trkpt>
      <trkpt lat="27.695395" lon="86.203349">
        <ele>2035.56119936</ele>
        <time>2019-10-16T10:00:09.122Z</time>
      </trkpt>
      <trkpt lat="27.695888" lon="86.203043">
        <ele>2027.53880064</ele>
        <time>2019-10-16T10:01:08.122Z</time>
      </trkpt>
      <trkpt lat="27.696205" lon="86.202609">
        <ele>2025.739061495</ele>
        <time>2019-10-16T10:02:06.122Z</time>
      </trkpt>
      <trkpt lat="27.696362" lon="86.201861">
        <ele>2023.66119936</ele>
        <time>2019-10-16T10:03:10.122Z</time>
      </trkpt>
      <trkpt lat="27.696706" lon="86.201368">
        <ele>2020</ele>
        <time>2019-10-16T10:06:11.122Z</time>
      </trkpt>
      <trkpt lat="27.697244" lon="86.200789">
        <ele>2015.7387008</ele>
        <time>2019-10-16T10:07:06.122Z</time>
      </trkpt>
      <trkpt lat="27.698018" lon="86.200722">
        <ele>2004.8774016</ele>
        <time>2019-10-16T10:08:09.122Z</time>
      </trkpt>
      <trkpt lat="27.698823" lon="86.201094">
        <ele>1996</ele>
        <time>2019-10-16T10:09:10.122Z</time>
      </trkpt>
      <trkpt lat="27.699056" lon="86.201072">
        <ele>1997</ele>
        <time>2019-10-16T10:10:09.122Z</time>
      </trkpt>
      <trkpt lat="27.699506" lon="86.201105">
        <ele>1982</ele>
        <time>2019-10-16T10:12:08.122Z</time>
      </trkpt>
      <trkpt lat="27.69999" lon="86.200644">
        <ele>1973.43880064</ele>
        <time>2019-10-16T10:13:09.122Z</time>
      </trkpt>
      <trkpt lat="27.700864" lon="86.200439">
        <ele>1962.30680064</ele>
        <time>2019-10-16T10:14:20.442Z</time>
      </trkpt>
      <trkpt lat="27.70121" lon="86.200033">
        <ele>1953</ele>
        <time>2019-10-16T10:15:06.122Z</time>
      </trkpt>
      <trkpt lat="27.70198" lon="86.199953">
        <ele>1941.87760128</ele>
        <time>2019-10-16T10:16:09.122Z</time>
      </trkpt>
      <trkpt lat="27.70219" lon="86.199469">
        <ele>1937</ele>
        <time>2019-10-16T10:17:10.122Z</time>
      </trkpt>
      <trkpt lat="27.702679" lon="86.198631">
        <ele>1924.23880064</ele>
        <time>2019-10-16T10:18:11.122Z</time>
      </trkpt>
      <trkpt lat="27.703102" lon="86.198543">
        <ele>1925</ele>
        <time>2019-10-16T10:19:11.122Z</time>
      </trkpt>
      <trkpt lat="27.703666" lon="86.197963">
        <ele>1922.33880064</ele>
        <time>2019-10-16T10:20:10.122Z</time>
      </trkpt>
      <trkpt lat="27.704078" lon="86.197452">
        <ele>1916</ele>
        <time>2019-10-16T10:21:11.122Z</time>
      </trkpt>
      <trkpt lat="27.704356" lon="86.196946">
        <ele>1901.63880064</ele>
        <time>2019-10-16T10:23:07.122Z</time>
      </trkpt>
      <trkpt lat="27.704554" lon="86.196081">
        <ele>1889.43880064</ele>
        <time>2019-10-16T10:24:09.122Z</time>
      </trkpt>
      <trkpt lat="27.705045" lon="86.195335">
        <ele>1874.23880064</ele>
        <time>2019-10-16T10:25:11.122Z</time>
      </trkpt>
      <trkpt lat="27.705206" lon="86.194649">
        <ele>1863</ele>
        <time>2019-10-16T10:26:11.122Z</time>
      </trkpt>
      <trkpt lat="27.705239" lon="86.194088">
        <ele>1852.33880064</ele>
        <time>2019-10-16T10:27:10.122Z</time>
      </trkpt>
      <trkpt lat="27.705183" lon="86.193862">
        <ele>1842</ele>
        <time>2019-10-16T10:28:10.122Z</time>
      </trkpt>
      <trkpt lat="27.705596" lon="86.193001">
        <ele>1827.67760128</ele>
        <time>2019-10-16T10:29:10.122Z</time>
      </trkpt>
      <trkpt lat="27.705647" lon="86.192296">
        <ele>1820</ele>
        <time>2019-10-16T10:30:09.122Z</time>
      </trkpt>
      <trkpt lat="27.705676" lon="86.191531">
        <ele>1810</ele>
        <time>2019-10-16T10:31:09.122Z</time>
      </trkpt>
      <trkpt lat="27.70554" lon="86.190712">
        <ele>1798.33880064</ele>
        <time>2019-10-16T10:32:10.122Z</time>
      </trkpt>
      <trkpt lat="27.705763" lon="86.189772">
        <ele>1790</ele>
        <time>2019-10-16T10:33:11.122Z</time>
      </trkpt>
      <trkpt lat="27.706099" lon="86.188994">
        <ele>1782.23880064</ele>
        <time>2019-10-16T10:34:11.122Z</time>
      </trkpt>
      <trkpt lat="27.706458" lon="86.188235">
        <ele>1777</ele>
        <time>2019-10-16T10:35:13.122Z</time>
      </trkpt>
      <trkpt lat="27.706513" lon="86.187334">
        <ele>1770.33880064</ele>
        <time>2019-10-16T10:36:10.122Z</time>
      </trkpt>
      <trkpt lat="27.706916" lon="86.186743">
        <ele>1760</ele>
        <time>2019-10-16T10:37:10.122Z</time>
      </trkpt>
      <trkpt lat="27.707139" lon="86.186246">
        <ele>1757.53880064</ele>
        <time>2019-10-16T10:38:08.122Z</time>
      </trkpt>
      <trkpt lat="27.707255" lon="86.185585">
        <ele>1757</ele>
        <time>2019-10-16T10:39:11.122Z</time>
      </trkpt>
      <trkpt lat="27.707813" lon="86.185073">
        <ele>1753</ele>
        <time>2019-10-16T10:40:09.122Z</time>
      </trkpt>
      <trkpt lat="27.7081" lon="86.18451">
        <ele>1754</ele>
        <time>2019-10-16T10:41:11.122Z</time>
      </trkpt>
      <trkpt lat="27.707963" lon="86.18483">
        <ele>1754</ele>
        <time>2019-10-16T10:43:10.122Z</time>
      </trkpt>
      <trkpt lat="27.707897" lon="86.184733">
        <ele>1754.56119936</ele>
        <time>2019-10-16T10:44:09.122Z</time>
      </trkpt>
      <trkpt lat="27.70802" lon="86.184959">
        <ele>1754</ele>
        <time>2019-10-16T10:45:15.122Z</time>
      </trkpt>
      <trkpt lat="27.707939" lon="86.184888">
        <ele>1755</ele>
        <time>2019-10-16T10:47:09.122Z</time>
      </trkpt>
      <trkpt lat="27.708045" lon="86.184998">
        <ele>1754</ele>
        <time>2019-10-16T10:48:17.122Z</time>
      </trkpt>
      <trkpt lat="27.707945" lon="86.18501">
        <ele>1755</ele>
        <time>2019-10-16T10:49:24.122Z</time>
      </trkpt>
      <trkpt lat="27.707876" lon="86.184854">
        <ele>1756.32239872</ele>
        <time>2019-10-16T10:51:10.122Z</time>
      </trkpt>
      <trkpt lat="27.708036" lon="86.184941">
        <ele>1756</ele>
        <time>2019-10-16T10:52:08.122Z</time>
      </trkpt>
      <trkpt lat="27.707917" lon="86.184898">
        <ele>1756</ele>
        <time>2019-10-16T10:54:37.122Z</time>
      </trkpt>
      <trkpt lat="27.70812" lon="86.18525">
        <ele>1756</ele>
        <time>2019-10-16T10:55:22.122Z</time>
      </trkpt>
      <trkpt lat="27.708071" lon="86.184913">
        <ele>1756</ele>
        <time>2019-10-16T10:56:48.122Z</time>
      </trkpt>
      <trkpt lat="27.708041" lon="86.184783">
        <ele>1756</ele>
        <time>2019-10-16T10:57:48.122Z</time>
      </trkpt>
      <trkpt lat="27.70806" lon="86.184912">
        <ele>1756</ele>
        <time>2019-10-16T11:00:25.122Z</time>
      </trkpt>
      <trkpt lat="27.708099" lon="86.185038">
        <ele>1756</ele>
        <time>2019-10-16T11:05:15.122Z</time>
      </trkpt>
      <trkpt lat="27.707987" lon="86.184762">
        <ele>1756</ele>
        <time>2019-10-16T11:11:20.122Z</time>
      </trkpt>
      <trkpt lat="27.707989" lon="86.18493">
        <ele>1756</ele>
        <time>2019-10-16T11:12:10.122Z</time>
      </trkpt>
      <trkpt lat="27.707932" lon="86.184833">
        <ele>1756</ele>
        <time>2019-10-16T11:13:07.122Z</time>
      </trkpt>
      <trkpt lat="27.708019" lon="86.184997">
        <ele>1756</ele>
        <time>2019-10-16T11:14:10.122Z</time>
      </trkpt>
      <trkpt lat="27.70805" lon="86.184874">
        <ele>1756</ele>
        <time>2019-10-16T11:15:15.122Z</time>
      </trkpt>
      <trkpt lat="27.70796" lon="86.184791">
        <ele>1756</ele>
        <time>2019-10-16T11:19:13.122Z</time>
      </trkpt>
      <trkpt lat="27.708058" lon="86.184916">
        <ele>1756</ele>
        <time>2019-10-16T11:21:08.122Z</time>
      </trkpt>
      <trkpt lat="27.70819" lon="86.185322">
        <ele>1756</ele>
        <time>2019-10-16T11:27:07.122Z</time>
      </trkpt>
      <trkpt lat="27.707999" lon="86.184874">
        <ele>1756</ele>
        <time>2019-10-16T11:28:34.122Z</time>
      </trkpt>
      <trkpt lat="27.70795" lon="86.184984">
        <ele>1756</ele>
        <time>2019-10-16T11:31:10.122Z</time>
      </trkpt>
      <trkpt lat="27.708052" lon="86.185142">
        <ele>1756</ele>
        <time>2019-10-16T11:32:11.122Z</time>
      </trkpt>
      <trkpt lat="27.707898" lon="86.185049">
        <ele>1756</ele>
        <time>2019-10-16T11:33:09.122Z</time>
      </trkpt>
      <trkpt lat="27.708014" lon="86.185126">
        <ele>1756</ele>
        <time>2019-10-16T11:34:12.122Z</time>
      </trkpt>
      <trkpt lat="27.708097" lon="86.185031">
        <ele>1756</ele>
        <time>2019-10-16T11:36:45.122Z</time>
      </trkpt>
      <trkpt lat="27.707959" lon="86.18499">
        <ele>1756</ele>
        <time>2019-10-16T11:37:30.122Z</time>
      </trkpt>
      <trkpt lat="27.708017" lon="86.184892">
        <ele>1756</ele>
        <time>2019-10-16T11:41:33.122Z</time>
      </trkpt>
      <trkpt lat="27.708118" lon="86.184384">
        <ele>1756</ele>
        <time>2019-10-16T11:44:10.122Z</time>
      </trkpt>
      <trkpt lat="27.708601" lon="86.184313">
        <ele>1746.47760128</ele>
        <time>2019-10-16T11:46:06.122Z</time>
      </trkpt>
      <trkpt lat="27.709087" lon="86.183926">
        <ele>1741</ele>
        <time>2019-10-16T11:47:06.122Z</time>
      </trkpt>
      <trkpt lat="27.709654" lon="86.183471">
        <ele>1737.53933980722</ele>
        <time>2019-10-16T11:48:08.122Z</time>
      </trkpt>
      <trkpt lat="27.710386" lon="86.183351">
        <ele>1735.43880064</ele>
        <time>2019-10-16T11:49:09.122Z</time>
      </trkpt>
      <trkpt lat="27.710925" lon="86.182984">
        <ele>1731</ele>
        <time>2019-10-16T11:50:06.122Z</time>
      </trkpt>
      <trkpt lat="27.711449" lon="86.182902">
        <ele>1737.12127780101</ele>
        <time>2019-10-16T11:51:09.122Z</time>
      </trkpt>
      <trkpt lat="27.712023" lon="86.183046">
        <ele>1738.36119936</ele>
        <time>2019-10-16T11:52:07.122Z</time>
      </trkpt>
      <trkpt lat="27.712577" lon="86.183293">
        <ele>1743.46119936</ele>
        <time>2019-10-16T11:53:08.122Z</time>
      </trkpt>
      <trkpt lat="27.713258" lon="86.183169">
        <ele>1747.66119936</ele>
        <time>2019-10-16T11:54:10.122Z</time>
      </trkpt>
      <trkpt lat="27.71401" lon="86.183133">
        <ele>1751</ele>
        <time>2019-10-16T11:55:10.122Z</time>
      </trkpt>
      <trkpt lat="27.714617" lon="86.182819">
        <ele>1752</ele>
        <time>2019-10-16T11:56:09.122Z</time>
      </trkpt>
      <trkpt lat="27.715447" lon="86.182424">
        <ele>1744.50780032</ele>
        <time>2019-10-16T11:57:18.432Z</time>
      </trkpt>
      <trkpt lat="27.715909" lon="86.181901">
        <ele>1744</ele>
        <time>2019-10-16T11:58:10.122Z</time>
      </trkpt>
      <trkpt lat="27.716599" lon="86.18144">
        <ele>1740.07760128</ele>
        <time>2019-10-16T11:59:08.122Z</time>
      </trkpt>
      <trkpt lat="27.71723" lon="86.180778">
        <ele>1726.33880064</ele>
        <time>2019-10-16T12:00:10.122Z</time>
      </trkpt>
      <trkpt lat="27.717737" lon="86.180115">
        <ele>1721</ele>
        <time>2019-10-16T12:01:09.122Z</time>
      </trkpt>
      <trkpt lat="27.718248" lon="86.1794">
        <ele>1717.66119936</ele>
        <time>2019-10-16T12:02:10.122Z</time>
      </trkpt>
      <trkpt lat="27.718273" lon="86.178868">
        <ele>1721.66119936</ele>
        <time>2019-10-16T12:03:10.122Z</time>
      </trkpt>
      <trkpt lat="27.719051" lon="86.177938">
        <ele>1715.5075008</ele>
        <time>2019-10-16T12:04:38.435Z</time>
      </trkpt>
      <trkpt lat="27.719404" lon="86.177354">
        <ele>1710.03880064</ele>
        <time>2019-10-16T12:05:23.122Z</time>
      </trkpt>
      <trkpt lat="27.720483" lon="86.176906">
        <ele>1703</ele>
        <time>2019-10-16T12:06:48.122Z</time>
      </trkpt>
      <trkpt lat="27.720562" lon="86.175989">
        <ele>1696.61640192</ele>
        <time>2019-10-16T12:07:48.122Z</time>
      </trkpt>
      <trkpt lat="27.720649" lon="86.175037">
        <ele>1685.61640192</ele>
        <time>2019-10-16T12:08:48.122Z</time>
      </trkpt>
      <trkpt lat="27.720805" lon="86.174913">
        <ele>1677.07760128</ele>
        <time>2019-10-16T12:09:33.122Z</time>
      </trkpt>
      <trkpt lat="27.721338" lon="86.17497">
        <ele>1666.07760128</ele>
        <time>2019-10-16T12:10:18.122Z</time>
      </trkpt>
      <trkpt lat="27.722178" lon="86.175162">
        <ele>1655.47760128</ele>
        <time>2019-10-16T12:12:26.122Z</time>
      </trkpt>
      <trkpt lat="27.72273" lon="86.175047">
        <ele>1648</ele>
        <time>2019-10-16T12:13:11.122Z</time>
      </trkpt>
      <trkpt lat="27.72343" lon="86.17487">
        <ele>1642.36119936</ele>
        <time>2019-10-16T12:14:07.122Z</time>
      </trkpt>
      <trkpt lat="27.724192" lon="86.174872">
        <ele>1635</ele>
        <time>2019-10-16T12:15:08.122Z</time>
      </trkpt>
      <trkpt lat="27.72495" lon="86.17479">
        <ele>1630</ele>
        <time>2019-10-16T12:16:06.122Z</time>
      </trkpt>
      <trkpt lat="27.725721" lon="86.174569">
        <ele>1622</ele>
        <time>2019-10-16T12:17:07.122Z</time>
      </trkpt>
      <trkpt lat="27.726379" lon="86.174198">
        <ele>1615.36119936</ele>
        <time>2019-10-16T12:18:07.122Z</time>
      </trkpt>
      <trkpt lat="27.727124" lon="86.1742">
        <ele>1615</ele>
        <time>2019-10-16T12:19:06.122Z</time>
      </trkpt>
      <trkpt lat="27.727751" lon="86.173857">
        <ele>1606.47760128</ele>
        <time>2019-10-16T12:20:06.122Z</time>
      </trkpt>
      <trkpt lat="27.728032" lon="86.174132">
        <ele>1595.87760128</ele>
        <time>2019-10-16T12:21:09.122Z</time>
      </trkpt>
      <trkpt lat="27.72845" lon="86.174629">
        <ele>1582</ele>
        <time>2019-10-16T12:22:09.122Z</time>
      </trkpt>
      <trkpt lat="27.729231" lon="86.174599">
        <ele>1577.43880064</ele>
        <time>2019-10-16T12:23:09.122Z</time>
      </trkpt>
      <trkpt lat="27.729625" lon="86.17419">
        <ele>1576</ele>
        <time>2019-10-16T12:24:06.122Z</time>
      </trkpt>
      <trkpt lat="27.729635" lon="86.17384">
        <ele>1564</ele>
        <time>2019-10-16T12:25:06.122Z</time>
      </trkpt>
      <trkpt lat="27.729818" lon="86.173628">
        <ele>1554.73880064</ele>
        <time>2019-10-16T12:26:06.122Z</time>
      </trkpt>
      <trkpt lat="27.729808" lon="86.173213">
        <ele>1541.73880064</ele>
        <time>2019-10-16T12:27:06.122Z</time>
      </trkpt>
      <trkpt lat="27.729988" lon="86.172726">
        <ele>1531.73880064</ele>
        <time>2019-10-16T12:28:06.122Z</time>
      </trkpt>
      <trkpt lat="27.730112" lon="86.172536">
        <ele>1525.63880064</ele>
        <time>2019-10-16T12:29:07.122Z</time>
      </trkpt>
      <trkpt lat="27.730384" lon="86.172407">
        <ele>1513.53880064</ele>
        <time>2019-10-16T12:30:08.122Z</time>
      </trkpt>
      <trkpt lat="27.730542" lon="86.17215">
        <ele>1502.53880064</ele>
        <time>2019-10-16T12:31:08.122Z</time>
      </trkpt>
      <trkpt lat="27.730566" lon="86.171853">
        <ele>1490.63943987525</ele>
        <time>2019-10-16T12:32:07.122Z</time>
      </trkpt>
      <trkpt lat="27.730686" lon="86.171798">
        <ele>1481.53880064</ele>
        <time>2019-10-16T12:33:08.122Z</time>
      </trkpt>
      <trkpt lat="27.730895" lon="86.17178">
        <ele>1470.5027008</ele>
        <time>2019-10-16T12:34:18.483Z</time>
      </trkpt>
      <trkpt lat="27.730947" lon="86.171669">
        <ele>1460.53926123133</ele>
        <time>2019-10-16T12:35:08.122Z</time>
      </trkpt>
      <trkpt lat="27.731047" lon="86.17143">
        <ele>1449.00499968</ele>
        <time>2019-10-16T12:36:18.485Z</time>
      </trkpt>
      <trkpt lat="27.730825" lon="86.171225">
        <ele>1437</ele>
        <time>2019-10-16T12:37:10.122Z</time>
      </trkpt>
      <trkpt lat="27.730976" lon="86.170937">
        <ele>1423.50780288</ele>
        <time>2019-10-16T12:38:28.484Z</time>
      </trkpt>
      <trkpt lat="27.731045" lon="86.170824">
        <ele>1416.07760128</ele>
        <time>2019-10-16T12:39:13.122Z</time>
      </trkpt>
      <trkpt lat="27.731092" lon="86.170657">
        <ele>1405.7027008</ele>
        <time>2019-10-16T12:40:16.483Z</time>
      </trkpt>
      <trkpt lat="27.731044" lon="86.170544">
        <ele>1399.27760128</ele>
        <time>2019-10-16T12:41:07.122Z</time>
      </trkpt>
      <trkpt lat="27.731116" lon="86.170298">
        <ele>1387.10749952</ele>
        <time>2019-10-16T12:42:16.485Z</time>
      </trkpt>
      <trkpt lat="27.731155" lon="86.170035">
        <ele>1376.33880064</ele>
        <time>2019-10-16T12:43:10.122Z</time>
      </trkpt>
      <trkpt lat="27.731229" lon="86.169949">
        <ele>1368</ele>
        <time>2019-10-16T12:44:10.122Z</time>
      </trkpt>
      <trkpt lat="27.731435" lon="86.169901">
        <ele>1358.87760128</ele>
        <time>2019-10-16T12:45:09.122Z</time>
      </trkpt>
      <trkpt lat="27.731733" lon="86.169764">
        <ele>1348</ele>
        <time>2019-10-16T12:46:06.122Z</time>
      </trkpt>
      <trkpt lat="27.73164" lon="86.16946">
        <ele>1335.67760128</ele>
        <time>2019-10-16T12:47:10.122Z</time>
      </trkpt>
      <trkpt lat="27.731601" lon="86.169153">
        <ele>1324.33880064</ele>
        <time>2019-10-16T12:48:10.122Z</time>
      </trkpt>
      <trkpt lat="27.731442" lon="86.169387">
        <ele>1322</ele>
        <time>2019-10-16T12:49:09.122Z</time>
      </trkpt>
      <trkpt lat="27.731688" lon="86.169171">
        <ele>1320.27760128</ele>
        <time>2019-10-16T12:50:07.122Z</time>
      </trkpt>
      <trkpt lat="27.731684" lon="86.168943">
        <ele>1308.53880064</ele>
        <time>2019-10-16T12:51:08.122Z</time>
      </trkpt>
      <trkpt lat="27.731533" lon="86.168801">
        <ele>1296.67760128</ele>
        <time>2019-10-16T12:52:10.122Z</time>
      </trkpt>
      <trkpt lat="27.731401" lon="86.168559">
        <ele>1284.67760128</ele>
        <time>2019-10-16T12:53:10.122Z</time>
      </trkpt>
      <trkpt lat="27.731404" lon="86.168282">
        <ele>1273.33880064</ele>
        <time>2019-10-16T12:54:10.122Z</time>
      </trkpt>
      <trkpt lat="27.731359" lon="86.167998">
        <ele>1251.43880064</ele>
        <time>2019-10-16T12:56:09.122Z</time>
      </trkpt>
      <trkpt lat="27.731358" lon="86.167831">
        <ele>1241.53880064</ele>
        <time>2019-10-16T12:57:08.122Z</time>
      </trkpt>
      <trkpt lat="27.73124" lon="86.167625">
        <ele>1231</ele>
        <time>2019-10-16T12:58:06.122Z</time>
      </trkpt>
      <trkpt lat="27.731155" lon="86.167485">
        <ele>1219.43880064</ele>
        <time>2019-10-16T12:59:09.122Z</time>
      </trkpt>
      <trkpt lat="27.731111" lon="86.167269">
        <ele>1209.67760128</ele>
        <time>2019-10-16T13:00:10.122Z</time>
      </trkpt>
      <trkpt lat="27.73099" lon="86.167115">
        <ele>1202.07760128</ele>
        <time>2019-10-16T13:01:08.122Z</time>
      </trkpt>
      <trkpt lat="27.73095" lon="86.166848">
        <ele>1193.33880064</ele>
        <time>2019-10-16T13:02:10.122Z</time>
      </trkpt>
      <trkpt lat="27.73079" lon="86.16673">
        <ele>1184</ele>
        <time>2019-10-16T13:03:09.122Z</time>
      </trkpt>
      <trkpt lat="27.730902" lon="86.166648">
        <ele>1175.43923973918</ele>
        <time>2019-10-16T13:04:09.122Z</time>
      </trkpt>
      <trkpt lat="27.730825" lon="86.166385">
        <ele>1156</ele>
        <time>2019-10-16T13:06:10.122Z</time>
      </trkpt>
      <trkpt lat="27.730784" lon="86.166197">
        <ele>1146.43880064</ele>
        <time>2019-10-16T13:07:09.122Z</time>
      </trkpt>
      <trkpt lat="27.730746" lon="86.166087">
        <ele>1137</ele>
        <time>2019-10-16T13:08:07.122Z</time>
      </trkpt>
      <trkpt lat="27.730663" lon="86.165779">
        <ele>1122.43880064</ele>
        <time>2019-10-16T13:10:09.122Z</time>
      </trkpt>
      <trkpt lat="27.730542" lon="86.165744">
        <ele>1113.63880064</ele>
        <time>2019-10-16T13:11:07.122Z</time>
      </trkpt>
      <trkpt lat="27.730277" lon="86.165738">
        <ele>1105</ele>
        <time>2019-10-16T13:12:14.122Z</time>
      </trkpt>
      <trkpt lat="27.730419" lon="86.165506">
        <ele>1096.53880064</ele>
        <time>2019-10-16T13:13:08.122Z</time>
      </trkpt>
      <trkpt lat="27.73021" lon="86.165343">
        <ele>1087.43880064</ele>
        <time>2019-10-16T13:14:09.122Z</time>
      </trkpt>
      <trkpt lat="27.730399" lon="86.165336">
        <ele>1086</ele>
        <time>2019-10-16T13:15:09.122Z</time>
      </trkpt>
      <trkpt lat="27.730555" lon="86.164952">
        <ele>1083.36119936</ele>
        <time>2019-10-16T13:16:07.122Z</time>
      </trkpt>
      <trkpt lat="27.730525" lon="86.164625">
        <ele>1081.53880064</ele>
        <time>2019-10-16T13:17:08.122Z</time>
      </trkpt>
      <trkpt lat="27.730173" lon="86.164231">
        <ele>1081</ele>
        <time>2019-10-16T13:18:09.122Z</time>
      </trkpt>
      <trkpt lat="27.729822" lon="86.163974">
        <ele>1074</ele>
        <time>2019-10-16T13:19:07.122Z</time>
      </trkpt>
      <trkpt lat="27.730151" lon="86.163696">
        <ele>1063.63880064</ele>
        <time>2019-10-16T13:20:07.122Z</time>
      </trkpt>
      <trkpt lat="27.730706" lon="86.163905">
        <ele>1056</ele>
        <time>2019-10-16T13:21:08.122Z</time>
      </trkpt>
      <trkpt lat="27.731023" lon="86.16382">
        <ele>1047.46119936</ele>
        <time>2019-10-16T13:22:08.122Z</time>
      </trkpt>
      <trkpt lat="27.731291" lon="86.163769">
        <ele>1038</ele>
        <time>2019-10-16T13:23:09.122Z</time>
      </trkpt>
      <trkpt lat="27.731641" lon="86.163851">
        <ele>1032.43880064</ele>
        <time>2019-10-16T13:24:09.122Z</time>
      </trkpt>
      <trkpt lat="27.731625" lon="86.163561">
        <ele>1019</ele>
        <time>2019-10-16T13:25:07.122Z</time>
      </trkpt>
      <trkpt lat="27.731707" lon="86.163361">
        <ele>1006.07760128</ele>
        <time>2019-10-16T13:26:08.122Z</time>
      </trkpt>
      <trkpt lat="27.73194" lon="86.163232">
        <ele>992.87760128</ele>
        <time>2019-10-16T13:27:09.122Z</time>
      </trkpt>
      <trkpt lat="27.731792" lon="86.163067">
        <ele>980.87760128</ele>
        <time>2019-10-16T13:28:09.122Z</time>
      </trkpt>
      <trkpt lat="27.731916" lon="86.162839">
        <ele>971.07760128</ele>
        <time>2019-10-16T13:29:08.122Z</time>
      </trkpt>
      <trkpt lat="27.732127" lon="86.162737">
        <ele>959.63880064</ele>
        <time>2019-10-16T13:30:07.122Z</time>
      </trkpt>
      <trkpt lat="27.732021" lon="86.162821">
        <ele>949.47760128</ele>
        <time>2019-10-16T13:31:11.122Z</time>
      </trkpt>
      <trkpt lat="27.733647" lon="86.161921">
        <ele>940.23880064</ele>
        <time>2019-10-16T13:32:11.122Z</time>
      </trkpt>
      <trkpt lat="27.732613" lon="86.16251">
        <ele>930.07760128</ele>
        <time>2019-10-16T13:33:08.122Z</time>
      </trkpt>
      <trkpt lat="27.733115" lon="86.162163">
        <ele>928.66119936</ele>
        <time>2019-10-16T13:34:10.122Z</time>
      </trkpt>
      <trkpt lat="27.73333" lon="86.162225">
        <ele>929.33880064</ele>
        <time>2019-10-16T13:35:10.122Z</time>
      </trkpt>
      <trkpt lat="27.733355" lon="86.162588">
        <ele>923</ele>
        <time>2019-10-16T13:36:23.122Z</time>
      </trkpt>
      <trkpt lat="27.733748" lon="86.162774">
        <ele>923</ele>
        <time>2019-10-16T13:37:11.122Z</time>
      </trkpt>
      <trkpt lat="27.734301" lon="86.163354">
        <ele>923</ele>
        <time>2019-10-16T13:38:09.122Z</time>
      </trkpt>
      <trkpt lat="27.734782" lon="86.163514">
        <ele>926</ele>
        <time>2019-10-16T13:39:10.122Z</time>
      </trkpt>
      <trkpt lat="27.735192" lon="86.162948">
        <ele>928</ele>
        <time>2019-10-16T13:40:10.122Z</time>
      </trkpt>
      <trkpt lat="27.735715" lon="86.163193">
        <ele>928.46119936</ele>
        <time>2019-10-16T13:41:08.122Z</time>
      </trkpt>
      <trkpt lat="27.736231" lon="86.163371">
        <ele>931.66119936</ele>
        <time>2019-10-16T13:42:10.122Z</time>
      </trkpt>
      <trkpt lat="27.736481" lon="86.163409">
        <ele>932</ele>
        <time>2019-10-16T13:43:11.122Z</time>
      </trkpt>
      <trkpt lat="27.736483" lon="86.164096">
        <ele>928.73880064</ele>
        <time>2019-10-16T13:44:46.122Z</time>
      </trkpt>
      <trkpt lat="27.736556" lon="86.164324">
        <ele>926.23880064</ele>
        <time>2019-10-16T13:45:31.122Z</time>
      </trkpt>
      <trkpt lat="27.736672" lon="86.164795">
        <ele>925.07760128</ele>
        <time>2019-10-16T13:46:48.122Z</time>
      </trkpt>
      <trkpt lat="27.737073" lon="86.164491">
        <ele>924</ele>
        <time>2019-10-16T13:47:48.122Z</time>
      </trkpt>
      <trkpt lat="27.737564" lon="86.164154">
        <ele>930.46119936</ele>
        <time>2019-10-16T13:48:48.122Z</time>
      </trkpt>
      <trkpt lat="27.739704" lon="86.162452">
        <ele>934.56119936</ele>
        <time>2019-10-16T13:52:39.122Z</time>
      </trkpt>
      <trkpt lat="27.73965" lon="86.162344">
        <ele>935</ele>
        <time>2019-10-16T13:53:24.122Z</time>
      </trkpt>
      <trkpt lat="27.739342" lon="86.1621">
        <ele>937</ele>
        <time>2019-10-16T13:54:48.122Z</time>
      </trkpt>
      <trkpt lat="27.738891" lon="86.162331">
        <ele>936.53880064</ele>
        <time>2019-10-16T13:58:18.122Z</time>
      </trkpt>
      <trkpt lat="27.738264" lon="86.162454">
        <ele>933.66119936</ele>
        <time>2019-10-16T13:59:10.122Z</time>
      </trkpt>
      <trkpt lat="27.737688" lon="86.162532">
        <ele>931.36119936</ele>
        <time>2019-10-16T14:00:07.122Z</time>
      </trkpt>
      <trkpt lat="27.750525" lon="86.15455">
        <ele>940.10933193514</ele>
        <time>2019-10-17T06:20:20.863Z</time>
      </trkpt>
      <trkpt lat="27.750852" lon="86.153984">
        <ele>945</ele>
        <time>2019-10-17T06:21:28.863Z</time>
      </trkpt>
      <trkpt lat="27.750747" lon="86.153922">
        <ele>946.48870016</ele>
        <time>2019-10-17T06:23:04.863Z</time>
      </trkpt>
      <trkpt lat="27.750815" lon="86.153848">
        <ele>946.81129984</ele>
        <time>2019-10-17T06:24:17.863Z</time>
      </trkpt>
      <trkpt lat="27.751314" lon="86.153065">
        <ele>956.02259968</ele>
        <time>2019-10-17T06:25:49.863Z</time>
      </trkpt>
      <trkpt lat="27.751727" lon="86.152905">
        <ele>959.51129984</ele>
        <time>2019-10-17T06:26:34.863Z</time>
      </trkpt>
      <trkpt lat="27.752049" lon="86.152804">
        <ele>966</ele>
        <time>2019-10-17T06:27:28.863Z</time>
      </trkpt>
      <trkpt lat="27.75231" lon="86.152295">
        <ele>972.62259968</ele>
        <time>2019-10-17T06:28:27.863Z</time>
      </trkpt>
      <trkpt lat="27.752635" lon="86.151924">
        <ele>979.81129984</ele>
        <time>2019-10-17T06:29:27.863Z</time>
      </trkpt>
      <trkpt lat="27.753047" lon="86.151516">
        <ele>984</ele>
        <time>2019-10-17T06:30:27.863Z</time>
      </trkpt>
      <trkpt lat="27.753738" lon="86.151034">
        <ele>980.18870016</ele>
        <time>2019-10-17T06:31:27.863Z</time>
      </trkpt>
      <trkpt lat="27.754447" lon="86.150714">
        <ele>973.18870016</ele>
        <time>2019-10-17T06:32:27.863Z</time>
      </trkpt>
      <trkpt lat="27.755082" lon="86.150259">
        <ele>975</ele>
        <time>2019-10-17T06:33:42.863Z</time>
      </trkpt>
      <trkpt lat="27.75551" lon="86.149899">
        <ele>976</ele>
        <time>2019-10-17T06:34:27.863Z</time>
      </trkpt>
      <trkpt lat="27.7559" lon="86.149562">
        <ele>979.91129984</ele>
        <time>2019-10-17T06:35:28.863Z</time>
      </trkpt>
      <trkpt lat="27.756598" lon="86.149324">
        <ele>987.91129984</ele>
        <time>2019-10-17T06:36:28.863Z</time>
      </trkpt>
      <trkpt lat="27.75709" lon="86.149348">
        <ele>991.91129984</ele>
        <time>2019-10-17T06:37:28.863Z</time>
      </trkpt>
      <trkpt lat="27.75772" lon="86.149353">
        <ele>998</ele>
        <time>2019-10-17T06:38:27.863Z</time>
      </trkpt>
      <trkpt lat="27.758315" lon="86.14916">
        <ele>1003.4108890824</ele>
        <time>2019-10-17T06:39:33.863Z</time>
      </trkpt>
      <trkpt lat="27.758976" lon="86.148808">
        <ele>1001</ele>
        <time>2019-10-17T06:40:40.863Z</time>
      </trkpt>
      <trkpt lat="27.7593" lon="86.148655">
        <ele>1003</ele>
        <time>2019-10-17T06:41:35.863Z</time>
      </trkpt>
      <trkpt lat="27.759989" lon="86.148133">
        <ele>996.77740032</ele>
        <time>2019-10-17T06:42:35.863Z</time>
      </trkpt>
      <trkpt lat="27.760399" lon="86.147712">
        <ele>995.28870016</ele>
        <time>2019-10-17T06:43:26.863Z</time>
      </trkpt>
      <trkpt lat="27.76109" lon="86.147234">
        <ele>996</ele>
        <time>2019-10-17T06:44:31.863Z</time>
      </trkpt>
      <trkpt lat="27.761767" lon="86.146991">
        <ele>989</ele>
        <time>2019-10-17T06:45:40.863Z</time>
      </trkpt>
      <trkpt lat="27.762333" lon="86.146685">
        <ele>985.28870016</ele>
        <time>2019-10-17T06:46:26.863Z</time>
      </trkpt>
      <trkpt lat="27.763045" lon="86.146455">
        <ele>983.31129984</ele>
        <time>2019-10-17T06:47:32.863Z</time>
      </trkpt>
      <trkpt lat="27.763651" lon="86.146228">
        <ele>989.01129984</ele>
        <time>2019-10-17T06:48:49.863Z</time>
      </trkpt>
      <trkpt lat="27.764099" lon="86.146038">
        <ele>995</ele>
        <time>2019-10-17T06:49:35.863Z</time>
      </trkpt>
      <trkpt lat="27.764771" lon="86.145748">
        <ele>994</ele>
        <time>2019-10-17T06:50:32.863Z</time>
      </trkpt>
      <trkpt lat="27.765385" lon="86.145404">
        <ele>999</ele>
        <time>2019-10-17T06:51:27.863Z</time>
      </trkpt>
      <trkpt lat="27.765736" lon="86.145232">
        <ele>1001.62259968</ele>
        <time>2019-10-17T06:52:27.863Z</time>
      </trkpt>
      <trkpt lat="27.76618" lon="86.145255">
        <ele>1009.31129984</ele>
        <time>2019-10-17T06:53:32.863Z</time>
      </trkpt>
      <trkpt lat="27.766551" lon="86.145107">
        <ele>1015.61129984</ele>
        <time>2019-10-17T06:54:25.863Z</time>
      </trkpt>
      <trkpt lat="27.766871" lon="86.14495">
        <ele>1023.51129984</ele>
        <time>2019-10-17T06:55:24.863Z</time>
      </trkpt>
      <trkpt lat="27.767529" lon="86.144386">
        <ele>1029.42175643705</ele>
        <time>2019-10-17T06:58:41.863Z</time>
      </trkpt>
      <trkpt lat="27.767401" lon="86.142687">
        <ele>1037</ele>
        <time>2019-10-17T07:01:04.863Z</time>
      </trkpt>
      <trkpt lat="27.768016" lon="86.14257">
        <ele>1041.51129984</ele>
        <time>2019-10-17T07:02:04.863Z</time>
      </trkpt>
      <trkpt lat="27.768615" lon="86.142172">
        <ele>1043</ele>
        <time>2019-10-17T07:03:04.863Z</time>
      </trkpt>
      <trkpt lat="27.769251" lon="86.141804">
        <ele>1043</ele>
        <time>2019-10-17T07:04:04.863Z</time>
      </trkpt>
      <trkpt lat="27.769874" lon="86.141356">
        <ele>1043.51129984</ele>
        <time>2019-10-17T07:05:04.863Z</time>
      </trkpt>
      <trkpt lat="27.770848" lon="86.141668">
        <ele>1034.77740032</ele>
        <time>2019-10-17T07:06:35.863Z</time>
      </trkpt>
      <trkpt lat="27.771352" lon="86.141807">
        <ele>1028.41129984</ele>
        <time>2019-10-17T07:07:43.863Z</time>
      </trkpt>
      <trkpt lat="27.77136" lon="86.141417">
        <ele>1035.01129984</ele>
        <time>2019-10-17T07:08:29.863Z</time>
      </trkpt>
      <trkpt lat="27.771708" lon="86.140812">
        <ele>1043</ele>
        <time>2019-10-17T07:09:31.863Z</time>
      </trkpt>
      <trkpt lat="27.771965" lon="86.140414">
        <ele>1050.01863822452</ele>
        <time>2019-10-17T07:10:29.863Z</time>
      </trkpt>
      <trkpt lat="27.772341" lon="86.139899">
        <ele>1055.91129984</ele>
        <time>2019-10-17T07:11:28.863Z</time>
      </trkpt>
      <trkpt lat="27.772835" lon="86.139519">
        <ele>1059.71129984</ele>
        <time>2019-10-17T07:12:26.863Z</time>
      </trkpt>
      <trkpt lat="27.773316" lon="86.139274">
        <ele>1069</ele>
        <time>2019-10-17T07:13:34.863Z</time>
      </trkpt>
      <trkpt lat="27.773586" lon="86.138641">
        <ele>1072.18870016</ele>
        <time>2019-10-17T07:14:27.863Z</time>
      </trkpt>
      <trkpt lat="27.773999" lon="86.138089">
        <ele>1071</ele>
        <time>2019-10-17T07:15:27.863Z</time>
      </trkpt>
      <trkpt lat="27.774354" lon="86.138214">
        <ele>1074</ele>
        <time>2019-10-17T07:16:23.863Z</time>
      </trkpt>
      <trkpt lat="27.774958" lon="86.138423">
        <ele>1078.62259968</ele>
        <time>2019-10-17T07:17:27.863Z</time>
      </trkpt>
      <trkpt lat="27.775055" lon="86.138508">
        <ele>1082.18870016</ele>
        <time>2019-10-17T07:18:27.863Z</time>
      </trkpt>
      <trkpt lat="27.775321" lon="86.138408">
        <ele>1083.28870016</ele>
        <time>2019-10-17T07:20:26.863Z</time>
      </trkpt>
      <trkpt lat="27.775469" lon="86.138454">
        <ele>1085</ele>
        <time>2019-10-17T07:21:25.863Z</time>
      </trkpt>
      <trkpt lat="27.775969" lon="86.138146">
        <ele>1087.22259968</ele>
        <time>2019-10-17T07:22:30.863Z</time>
      </trkpt>
      <trkpt lat="27.77637" lon="86.137771">
        <ele>1093</ele>
        <time>2019-10-17T07:23:29.863Z</time>
      </trkpt>
      <trkpt lat="27.776706" lon="86.137182">
        <ele>1097.81048960975</ele>
        <time>2019-10-17T07:24:27.863Z</time>
      </trkpt>
      <trkpt lat="27.777323" lon="86.13688">
        <ele>1102.02259968</ele>
        <time>2019-10-17T07:25:29.863Z</time>
      </trkpt>
      <trkpt lat="27.777649" lon="86.136298">
        <ele>1107</ele>
        <time>2019-10-17T07:26:30.863Z</time>
      </trkpt>
      <trkpt lat="27.777981" lon="86.1358">
        <ele>1112</ele>
        <time>2019-10-17T07:27:29.863Z</time>
      </trkpt>
      <trkpt lat="27.778384" lon="86.135171">
        <ele>1111.91129984</ele>
        <time>2019-10-17T07:28:28.863Z</time>
      </trkpt>
      <trkpt lat="27.778711" lon="86.134406">
        <ele>1110.28870016</ele>
        <time>2019-10-17T07:29:26.863Z</time>
      </trkpt>
      <trkpt lat="27.779304" lon="86.133816">
        <ele>1106</ele>
        <time>2019-10-17T07:30:29.863Z</time>
      </trkpt>
      <trkpt lat="27.779838" lon="86.133496">
        <ele>1102.61129984</ele>
        <time>2019-10-17T07:31:25.863Z</time>
      </trkpt>
      <trkpt lat="27.780528" lon="86.133426">
        <ele>1106.91129984</ele>
        <time>2019-10-17T07:32:28.863Z</time>
      </trkpt>
      <trkpt lat="27.780915" lon="86.133412">
        <ele>1109.28870016</ele>
        <time>2019-10-17T07:33:26.863Z</time>
      </trkpt>
      <trkpt lat="27.781106" lon="86.133583">
        <ele>1112.62259968</ele>
        <time>2019-10-17T07:34:32.863Z</time>
      </trkpt>
      <trkpt lat="27.781148" lon="86.133722">
        <ele>1121</ele>
        <time>2019-10-17T07:35:29.863Z</time>
      </trkpt>
      <trkpt lat="27.781135" lon="86.13359">
        <ele>1124.57740032</ele>
        <time>2019-10-17T07:36:26.863Z</time>
      </trkpt>
      <trkpt lat="27.781058" lon="86.132813">
        <ele>1120.71129984</ele>
        <time>2019-10-17T07:37:26.863Z</time>
      </trkpt>
      <trkpt lat="27.780859" lon="86.132569">
        <ele>1109.77740032</ele>
        <time>2019-10-17T07:39:30.863Z</time>
      </trkpt>
      <trkpt lat="27.781224" lon="86.132187">
        <ele>1114.61984024379</ele>
        <time>2019-10-17T07:40:32.863Z</time>
      </trkpt>
      <trkpt lat="27.781551" lon="86.131844">
        <ele>1122.31129984</ele>
        <time>2019-10-17T07:41:32.863Z</time>
      </trkpt>
      <trkpt lat="27.781792" lon="86.131493">
        <ele>1129.91129984</ele>
        <time>2019-10-17T07:42:28.863Z</time>
      </trkpt>
      <trkpt lat="27.782076" lon="86.131157">
        <ele>1136.71101094342</ele>
        <time>2019-10-17T07:43:26.863Z</time>
      </trkpt>
      <trkpt lat="27.782042" lon="86.130678">
        <ele>1144.61129984</ele>
        <time>2019-10-17T07:44:25.863Z</time>
      </trkpt>
      <trkpt lat="27.78203" lon="86.130447">
        <ele>1150.91129984</ele>
        <time>2019-10-17T07:45:28.863Z</time>
      </trkpt>
      <trkpt lat="27.782214" lon="86.130081">
        <ele>1151</ele>
        <time>2019-10-17T07:46:25.863Z</time>
      </trkpt>
      <trkpt lat="27.782356" lon="86.129322">
        <ele>1154</ele>
        <time>2019-10-17T07:47:27.863Z</time>
      </trkpt>
      <trkpt lat="27.782992" lon="86.128982">
        <ele>1149.48921078576</ele>
        <time>2019-10-17T07:48:24.863Z</time>
      </trkpt>
      <trkpt lat="27.783779" lon="86.128379">
        <ele>1137</ele>
        <time>2019-10-17T07:49:51.863Z</time>
      </trkpt>
      <trkpt lat="27.784109" lon="86.1279">
        <ele>1136.71129984</ele>
        <time>2019-10-17T07:50:36.863Z</time>
      </trkpt>
      <trkpt lat="27.784172" lon="86.127202">
        <ele>1134.18870016</ele>
        <time>2019-10-17T07:51:27.863Z</time>
      </trkpt>
      <trkpt lat="27.783928" lon="86.126499">
        <ele>1139.21129984</ele>
        <time>2019-10-17T07:52:31.863Z</time>
      </trkpt>
      <trkpt lat="27.783772" lon="86.125914">
        <ele>1143.81129984</ele>
        <time>2019-10-17T07:53:27.863Z</time>
      </trkpt>
      <trkpt lat="27.784075" lon="86.125275">
        <ele>1150.22259968</ele>
        <time>2019-10-17T07:54:30.863Z</time>
      </trkpt>
      <trkpt lat="27.784329" lon="86.124762">
        <ele>1151.48870016</ele>
        <time>2019-10-17T07:55:24.863Z</time>
      </trkpt>
      <trkpt lat="27.784583" lon="86.123737">
        <ele>1144</ele>
        <time>2019-10-17T07:56:52.863Z</time>
      </trkpt>
      <trkpt lat="27.784879" lon="86.123139">
        <ele>1144</ele>
        <time>2019-10-17T07:57:37.863Z</time>
      </trkpt>
      <trkpt lat="27.785309" lon="86.122241">
        <ele>1147.83156339459</ele>
        <time>2019-10-17T07:59:05.863Z</time>
      </trkpt>
      <trkpt lat="27.78568" lon="86.121267">
        <ele>1154.9435008</ele>
        <time>2019-10-17T08:01:05.863Z</time>
      </trkpt>
      <trkpt lat="27.786091" lon="86.12078">
        <ele>1155.51129984</ele>
        <time>2019-10-17T08:01:54.863Z</time>
      </trkpt>
      <trkpt lat="27.786151" lon="86.120686">
        <ele>1156.68870016</ele>
        <time>2019-10-17T08:03:02.863Z</time>
      </trkpt>
      <trkpt lat="27.786401" lon="86.120296">
        <ele>1159.61129984</ele>
        <time>2019-10-17T08:04:05.863Z</time>
      </trkpt>
      <trkpt lat="27.786578" lon="86.12027">
        <ele>1162.61129984</ele>
        <time>2019-10-17T08:06:05.863Z</time>
      </trkpt>
      <trkpt lat="27.786896" lon="86.120304">
        <ele>1166.02259968</ele>
        <time>2019-10-17T08:06:49.863Z</time>
      </trkpt>
      <trkpt lat="27.787537" lon="86.119618">
        <ele>1171.62259968</ele>
        <time>2019-10-17T08:08:12.863Z</time>
      </trkpt>
      <trkpt lat="27.787779" lon="86.11911">
        <ele>1168.08870016</ele>
        <time>2019-10-17T08:08:58.863Z</time>
      </trkpt>
      <trkpt lat="27.788257" lon="86.118501">
        <ele>1166</ele>
        <time>2019-10-17T08:10:05.863Z</time>
      </trkpt>
      <trkpt lat="27.788632" lon="86.117896">
        <ele>1174.82259968</ele>
        <time>2019-10-17T08:11:18.863Z</time>
      </trkpt>
      <trkpt lat="27.788984" lon="86.117713">
        <ele>1182</ele>
        <time>2019-10-17T08:12:58.863Z</time>
      </trkpt>
      <trkpt lat="27.789333" lon="86.117196">
        <ele>1180.58870016</ele>
        <time>2019-10-17T08:13:43.863Z</time>
      </trkpt>
      <trkpt lat="27.789788" lon="86.117261">
        <ele>1179</ele>
        <time>2019-10-17T08:14:27.863Z</time>
      </trkpt>
      <trkpt lat="27.789906" lon="86.116992">
        <ele>1180.81129984</ele>
        <time>2019-10-17T08:15:27.863Z</time>
      </trkpt>
      <trkpt lat="27.789052" lon="86.116658">
        <ele>1179.11129984</ele>
        <time>2019-10-17T08:16:30.863Z</time>
      </trkpt>
      <trkpt lat="27.788588" lon="86.116647">
        <ele>1181</ele>
        <time>2019-10-17T08:17:25.863Z</time>
      </trkpt>
      <trkpt lat="27.788782" lon="86.116394">
        <ele>1189.49073721116</ele>
        <time>2019-10-17T08:19:04.863Z</time>
      </trkpt>
      <trkpt lat="27.789014" lon="86.116293">
        <ele>1195.02259968</ele>
        <time>2019-10-17T08:19:49.863Z</time>
      </trkpt>
      <trkpt lat="27.78877" lon="86.116164">
        <ele>1203.61129984</ele>
        <time>2019-10-17T08:21:05.863Z</time>
      </trkpt>
      <trkpt lat="27.788837" lon="86.116053">
        <ele>1211</ele>
        <time>2019-10-17T08:22:05.863Z</time>
      </trkpt>
      <trkpt lat="27.789112" lon="86.116002">
        <ele>1215.38870016</ele>
        <time>2019-10-17T08:23:05.863Z</time>
      </trkpt>
      <trkpt lat="27.789242" lon="86.115976">
        <ele>1221.22259968</ele>
        <time>2019-10-17T08:23:50.863Z</time>
      </trkpt>
      <trkpt lat="27.789386" lon="86.115923">
        <ele>1239.81129984</ele>
        <time>2019-10-17T08:26:27.863Z</time>
      </trkpt>
      <trkpt lat="27.789519" lon="86.116002">
        <ele>1247.31129984</ele>
        <time>2019-10-17T08:27:32.863Z</time>
      </trkpt>
      <trkpt lat="27.789607" lon="86.116095">
        <ele>1252.41129984</ele>
        <time>2019-10-17T08:28:23.863Z</time>
      </trkpt>
      <trkpt lat="27.789718" lon="86.116037">
        <ele>1256.81129984</ele>
        <time>2019-10-17T08:34:27.863Z</time>
      </trkpt>
      <trkpt lat="27.789882" lon="86.116007">
        <ele>1263.51129984</ele>
        <time>2019-10-17T08:35:24.863Z</time>
      </trkpt>
      <trkpt lat="27.790166" lon="86.115876">
        <ele>1268.82142147862</ele>
        <time>2019-10-17T08:36:23.863Z</time>
      </trkpt>
      <trkpt lat="27.790092" lon="86.115776">
        <ele>1274.18870016</ele>
        <time>2019-10-17T08:37:27.863Z</time>
      </trkpt>
      <trkpt lat="27.790411" lon="86.115696">
        <ele>1278</ele>
        <time>2019-10-17T08:38:32.863Z</time>
      </trkpt>
      <trkpt lat="27.79041" lon="86.115583">
        <ele>1285</ele>
        <time>2019-10-17T08:39:28.863Z</time>
      </trkpt>
      <trkpt lat="27.790626" lon="86.11559">
        <ele>1290.81129984</ele>
        <time>2019-10-17T08:40:27.863Z</time>
      </trkpt>
      <trkpt lat="27.791156" lon="86.115452">
        <ele>1292.28870016</ele>
        <time>2019-10-17T08:41:26.863Z</time>
      </trkpt>
      <trkpt lat="27.791523" lon="86.115454">
        <ele>1295.51129984</ele>
        <time>2019-10-17T08:42:24.863Z</time>
      </trkpt>
      <trkpt lat="27.791693" lon="86.115354">
        <ele>1303.42259968</ele>
        <time>2019-10-17T08:43:26.863Z</time>
      </trkpt>
      <trkpt lat="27.79315" lon="86.114729">
        <ele>1347.41229249945</ele>
        <time>2019-10-17T08:51:31.863Z</time>
      </trkpt>
      <trkpt lat="27.79344" lon="86.114626">
        <ele>1355.61129984</ele>
        <time>2019-10-17T08:52:25.863Z</time>
      </trkpt>
      <trkpt lat="27.793826" lon="86.113975">
        <ele>1365.51078921424</ele>
        <time>2019-10-17T08:54:04.863Z</time>
      </trkpt>
      <trkpt lat="27.794034" lon="86.113638">
        <ele>1373.51129984</ele>
        <time>2019-10-17T08:55:04.863Z</time>
      </trkpt>
      <trkpt lat="27.794345" lon="86.113456">
        <ele>1379.02259968</ele>
        <time>2019-10-17T08:56:04.863Z</time>
      </trkpt>
      <trkpt lat="27.794705" lon="86.113197">
        <ele>1382.11129984</ele>
        <time>2019-10-17T08:56:50.863Z</time>
      </trkpt>
      <trkpt lat="27.794921" lon="86.113061">
        <ele>1387.61129984</ele>
        <time>2019-10-17T08:57:35.863Z</time>
      </trkpt>
      <trkpt lat="27.795279" lon="86.113231">
        <ele>1391.71129984</ele>
        <time>2019-10-17T08:58:26.863Z</time>
      </trkpt>
      <trkpt lat="27.795617" lon="86.112692">
        <ele>1397.71101094342</ele>
        <time>2019-10-17T08:59:26.863Z</time>
      </trkpt>
      <trkpt lat="27.79593" lon="86.112203">
        <ele>1404.81129984</ele>
        <time>2019-10-17T09:00:27.863Z</time>
      </trkpt>
      <trkpt lat="27.796018" lon="86.112518">
        <ele>1409.81129984</ele>
        <time>2019-10-17T09:01:27.863Z</time>
      </trkpt>
      <trkpt lat="27.795969" lon="86.112007">
        <ele>1410.18870016</ele>
        <time>2019-10-17T09:02:27.863Z</time>
      </trkpt>
      <trkpt lat="27.795979" lon="86.111443">
        <ele>1414.91129984</ele>
        <time>2019-10-17T09:03:28.863Z</time>
      </trkpt>
      <trkpt lat="27.796114" lon="86.11181">
        <ele>1420</ele>
        <time>2019-10-17T09:04:27.863Z</time>
      </trkpt>
      <trkpt lat="27.796049" lon="86.111516">
        <ele>1433.81129984</ele>
        <time>2019-10-17T09:06:27.863Z</time>
      </trkpt>
      <trkpt lat="27.796194" lon="86.111585">
        <ele>1440.62259968</ele>
        <time>2019-10-17T09:07:27.863Z</time>
      </trkpt>
      <trkpt lat="27.796204" lon="86.111407">
        <ele>1448</ele>
        <time>2019-10-17T09:08:26.863Z</time>
      </trkpt>
      <trkpt lat="27.796397" lon="86.111232">
        <ele>1454.71058947791</ele>
        <time>2019-10-17T09:09:26.863Z</time>
      </trkpt>
      <trkpt lat="27.796498" lon="86.111045">
        <ele>1460</ele>
        <time>2019-10-17T09:10:25.863Z</time>
      </trkpt>
      <trkpt lat="27.796639" lon="86.110693">
        <ele>1461.81129984</ele>
        <time>2019-10-17T09:11:27.863Z</time>
      </trkpt>
      <trkpt lat="27.79691" lon="86.110937">
        <ele>1466.81129984</ele>
        <time>2019-10-17T09:12:27.863Z</time>
      </trkpt>
      <trkpt lat="27.79736" lon="86.111099">
        <ele>1470</ele>
        <time>2019-10-17T09:13:27.863Z</time>
      </trkpt>
      <trkpt lat="27.797919" lon="86.110652">
        <ele>1468.08870016</ele>
        <time>2019-10-17T09:14:28.863Z</time>
      </trkpt>
      <trkpt lat="27.798223" lon="86.110284">
        <ele>1472.62259968</ele>
        <time>2019-10-17T09:15:27.863Z</time>
      </trkpt>
      <trkpt lat="27.798584" lon="86.110123">
        <ele>1476</ele>
        <time>2019-10-17T09:16:26.863Z</time>
      </trkpt>
      <trkpt lat="27.798908" lon="86.110192">
        <ele>1483.71129984</ele>
        <time>2019-10-17T09:17:26.863Z</time>
      </trkpt>
      <trkpt lat="27.799428" lon="86.110019">
        <ele>1485.42259968</ele>
        <time>2019-10-17T09:18:26.863Z</time>
      </trkpt>
      <trkpt lat="27.799323" lon="86.110037">
        <ele>1492</ele>
        <time>2019-10-17T09:19:26.863Z</time>
      </trkpt>
      <trkpt lat="27.799696" lon="86.109699">
        <ele>1493</ele>
        <time>2019-10-17T09:20:28.863Z</time>
      </trkpt>
      <trkpt lat="27.80032" lon="86.109515">
        <ele>1488.38870016</ele>
        <time>2019-10-17T09:21:25.863Z</time>
      </trkpt>
      <trkpt lat="27.800699" lon="86.109009">
        <ele>1483</ele>
        <time>2019-10-17T09:22:27.863Z</time>
      </trkpt>
      <trkpt lat="27.800842" lon="86.108922">
        <ele>1488.81129984</ele>
        <time>2019-10-17T09:23:27.863Z</time>
      </trkpt>
      <trkpt lat="27.801126" lon="86.109139">
        <ele>1494</ele>
        <time>2019-10-17T09:24:26.863Z</time>
      </trkpt>
      <trkpt lat="27.801422" lon="86.108823">
        <ele>1498</ele>
        <time>2019-10-17T09:25:27.863Z</time>
      </trkpt>
      <trkpt lat="27.801576" lon="86.108999">
        <ele>1503.71129984</ele>
        <time>2019-10-17T09:26:26.863Z</time>
      </trkpt>
      <trkpt lat="27.80172" lon="86.108956">
        <ele>1511</ele>
        <time>2019-10-17T09:27:28.863Z</time>
      </trkpt>
      <trkpt lat="27.801952" lon="86.109145">
        <ele>1516.71129984</ele>
        <time>2019-10-17T09:28:26.863Z</time>
      </trkpt>
      <trkpt lat="27.802544" lon="86.108915">
        <ele>1519</ele>
        <time>2019-10-17T09:29:25.863Z</time>
      </trkpt>
      <trkpt lat="27.803141" lon="86.108841">
        <ele>1519</ele>
        <time>2019-10-17T09:30:26.863Z</time>
      </trkpt>
      <trkpt lat="27.803547" lon="86.10838">
        <ele>1512.15480064</ele>
        <time>2019-10-17T09:31:26.863Z</time>
      </trkpt>
      <trkpt lat="27.804043" lon="86.107909">
        <ele>1502.77740032</ele>
        <time>2019-10-17T09:32:25.863Z</time>
      </trkpt>
      <trkpt lat="27.804441" lon="86.107241">
        <ele>1496</ele>
        <time>2019-10-17T09:33:27.863Z</time>
      </trkpt>
      <trkpt lat="27.804972" lon="86.106798">
        <ele>1498</ele>
        <time>2019-10-17T09:34:27.863Z</time>
      </trkpt>
      <trkpt lat="27.805376" lon="86.106429">
        <ele>1505.71129984</ele>
        <time>2019-10-17T09:35:26.863Z</time>
      </trkpt>
      <trkpt lat="27.805945" lon="86.106113">
        <ele>1512.81129984</ele>
        <time>2019-10-17T09:36:27.863Z</time>
      </trkpt>
      <trkpt lat="27.806188" lon="86.105639">
        <ele>1518</ele>
        <time>2019-10-17T09:37:27.863Z</time>
      </trkpt>
      <trkpt lat="27.806706" lon="86.105333">
        <ele>1521.61129984</ele>
        <time>2019-10-17T09:38:25.863Z</time>
      </trkpt>
      <trkpt lat="27.807131" lon="86.104895">
        <ele>1523</ele>
        <time>2019-10-17T09:39:25.863Z</time>
      </trkpt>
      <trkpt lat="27.807709" lon="86.104498">
        <ele>1521</ele>
        <time>2019-10-17T09:40:23.863Z</time>
      </trkpt>
      <trkpt lat="27.808253" lon="86.103881">
        <ele>1521</ele>
        <time>2019-10-17T09:41:24.863Z</time>
      </trkpt>
      <trkpt lat="27.80846" lon="86.103303">
        <ele>1520</ele>
        <time>2019-10-17T09:42:25.863Z</time>
      </trkpt>
      <trkpt lat="27.808638" lon="86.10318">
        <ele>1521</ele>
        <time>2019-10-17T09:43:23.863Z</time>
      </trkpt>
      <trkpt lat="27.808284" lon="86.103111">
        <ele>1521</ele>
        <time>2019-10-17T09:44:25.863Z</time>
      </trkpt>
      <trkpt lat="27.808596" lon="86.103082">
        <ele>1522</ele>
        <time>2019-10-17T09:45:24.863Z</time>
      </trkpt>
      <trkpt lat="27.80843" lon="86.103274">
        <ele>1522.57740032</ele>
        <time>2019-10-17T09:46:26.863Z</time>
      </trkpt>
      <trkpt lat="27.808258" lon="86.103088">
        <ele>1527</ele>
        <time>2019-10-17T09:47:27.863Z</time>
      </trkpt>
      <trkpt lat="27.808144" lon="86.102983">
        <ele>1532</ele>
        <time>2019-10-17T09:48:24.863Z</time>
      </trkpt>
      <trkpt lat="27.808221" lon="86.1026">
        <ele>1534.82259968</ele>
        <time>2019-10-17T09:49:23.863Z</time>
      </trkpt>
      <trkpt lat="27.808331" lon="86.102386">
        <ele>1541.71129984</ele>
        <time>2019-10-17T09:50:26.863Z</time>
      </trkpt>
      <trkpt lat="27.80859" lon="86.102069">
        <ele>1552.41129984</ele>
        <time>2019-10-17T09:52:23.863Z</time>
      </trkpt>
      <trkpt lat="27.80869" lon="86.101712">
        <ele>1559</ele>
        <time>2019-10-17T09:53:26.863Z</time>
      </trkpt>
      <trkpt lat="27.808307" lon="86.10178">
        <ele>1565</ele>
        <time>2019-10-17T09:54:25.863Z</time>
      </trkpt>
      <trkpt lat="27.808446" lon="86.101274">
        <ele>1570</ele>
        <time>2019-10-17T09:55:26.863Z</time>
      </trkpt>
      <trkpt lat="27.808486" lon="86.100707">
        <ele>1571</ele>
        <time>2019-10-17T09:56:23.863Z</time>
      </trkpt>
      <trkpt lat="27.808806" lon="86.100378">
        <ele>1571</ele>
        <time>2019-10-17T09:57:24.863Z</time>
      </trkpt>
      <trkpt lat="27.80896" lon="86.100194">
        <ele>1576</ele>
        <time>2019-10-17T09:58:25.863Z</time>
      </trkpt>
      <trkpt lat="27.80836" lon="86.100436">
        <ele>1576</ele>
        <time>2019-10-17T09:59:25.863Z</time>
      </trkpt>
      <trkpt lat="27.808817" lon="86.100191">
        <ele>1576</ele>
        <time>2019-10-17T10:00:26.863Z</time>
      </trkpt>
      <trkpt lat="27.809016" lon="86.100121">
        <ele>1578</ele>
        <time>2019-10-17T10:01:27.863Z</time>
      </trkpt>
      <trkpt lat="27.808714" lon="86.100214">
        <ele>1577.71129984</ele>
        <time>2019-10-17T10:02:26.863Z</time>
      </trkpt>
      <trkpt lat="27.80901" lon="86.100259">
        <ele>1576.91129984</ele>
        <time>2019-10-17T10:03:28.863Z</time>
      </trkpt>
      <trkpt lat="27.808683" lon="86.100361">
        <ele>1577</ele>
        <time>2019-10-17T10:05:17.863Z</time>
      </trkpt>
      <trkpt lat="27.8089" lon="86.10024">
        <ele>1577.31129984</ele>
        <time>2019-10-17T10:06:02.863Z</time>
      </trkpt>
      <trkpt lat="27.808932" lon="86.100008">
        <ele>1578</ele>
        <time>2019-10-17T10:09:05.863Z</time>
      </trkpt>
      <trkpt lat="27.808888" lon="86.100224">
        <ele>1577.18870016</ele>
        <time>2019-10-17T10:11:37.863Z</time>
      </trkpt>
      <trkpt lat="27.809027" lon="86.100211">
        <ele>1578</ele>
        <time>2019-10-17T10:13:17.863Z</time>
      </trkpt>
      <trkpt lat="27.808905" lon="86.100202">
        <ele>1578</ele>
        <time>2019-10-17T10:14:03.863Z</time>
      </trkpt>
      <trkpt lat="27.808921" lon="86.100336">
        <ele>1578</ele>
        <time>2019-10-17T10:16:05.863Z</time>
      </trkpt>
      <trkpt lat="27.809143" lon="86.100168">
        <ele>1578</ele>
        <time>2019-10-17T10:17:05.863Z</time>
      </trkpt>
      <trkpt lat="27.809041" lon="86.100046">
        <ele>1578</ele>
        <time>2019-10-17T10:18:48.863Z</time>
      </trkpt>
      <trkpt lat="27.809091" lon="86.100215">
        <ele>1578</ele>
        <time>2019-10-17T10:23:21.863Z</time>
      </trkpt>
      <trkpt lat="27.808984" lon="86.100079">
        <ele>1578</ele>
        <time>2019-10-17T10:25:21.863Z</time>
      </trkpt>
      <trkpt lat="27.809268" lon="86.100125">
        <ele>1578</ele>
        <time>2019-10-17T10:28:05.863Z</time>
      </trkpt>
      <trkpt lat="27.808987" lon="86.100168">
        <ele>1578</ele>
        <time>2019-10-17T10:29:05.863Z</time>
      </trkpt>
      <trkpt lat="27.809166" lon="86.100207">
        <ele>1578</ele>
        <time>2019-10-17T10:31:05.863Z</time>
      </trkpt>
      <trkpt lat="27.808743" lon="86.09988">
        <ele>1578</ele>
        <time>2019-10-17T10:31:50.863Z</time>
      </trkpt>
      <trkpt lat="27.808964" lon="86.100017">
        <ele>1578</ele>
        <time>2019-10-17T10:32:35.863Z</time>
      </trkpt>
      <trkpt lat="27.808666" lon="86.099896">
        <ele>1578</ele>
        <time>2019-10-17T10:33:27.863Z</time>
      </trkpt>
      <trkpt lat="27.808986" lon="86.100055">
        <ele>1578</ele>
        <time>2019-10-17T10:34:27.863Z</time>
      </trkpt>
      <trkpt lat="27.80874" lon="86.100274">
        <ele>1578</ele>
        <time>2019-10-17T10:37:08.863Z</time>
      </trkpt>
      <trkpt lat="27.808816" lon="86.100202">
        <ele>1578</ele>
        <time>2019-10-17T10:38:28.863Z</time>
      </trkpt>
      <trkpt lat="27.808846" lon="86.100082">
        <ele>1578</ele>
        <time>2019-10-17T10:41:11.863Z</time>
      </trkpt>
      <trkpt lat="27.809102" lon="86.09998">
        <ele>1578</ele>
        <time>2019-10-17T10:44:35.863Z</time>
      </trkpt>
      <trkpt lat="27.809656" lon="86.09995">
        <ele>1578</ele>
        <time>2019-10-17T10:45:30.863Z</time>
      </trkpt>
      <trkpt lat="27.810165" lon="86.099684">
        <ele>1585.71129984</ele>
        <time>2019-10-17T10:46:26.863Z</time>
      </trkpt>
      <trkpt lat="27.810525" lon="86.099322">
        <ele>1591.51129984</ele>
        <time>2019-10-17T10:47:24.863Z</time>
      </trkpt>
      <trkpt lat="27.810889" lon="86.098722">
        <ele>1595</ele>
        <time>2019-10-17T10:48:26.863Z</time>
      </trkpt>
      <trkpt lat="27.811444" lon="86.098314">
        <ele>1597</ele>
        <time>2019-10-17T10:49:27.863Z</time>
      </trkpt>
      <trkpt lat="27.811332" lon="86.097876">
        <ele>1604</ele>
        <time>2019-10-17T10:50:26.866Z</time>
      </trkpt>
      <trkpt lat="27.811406" lon="86.097467">
        <ele>1608.71129984</ele>
        <time>2019-10-17T10:51:26.863Z</time>
      </trkpt>
      <trkpt lat="27.812006" lon="86.09747">
        <ele>1615</ele>
        <time>2019-10-17T10:52:27.863Z</time>
      </trkpt>
      <trkpt lat="27.812196" lon="86.097146">
        <ele>1622.00931911226</ele>
        <time>2019-10-17T10:53:29.863Z</time>
      </trkpt>
      <trkpt lat="27.812505" lon="86.096916">
        <ele>1629.51129984</ele>
        <time>2019-10-17T10:54:24.863Z</time>
      </trkpt>
      <trkpt lat="27.812612" lon="86.096812">
        <ele>1635.41129984</ele>
        <time>2019-10-17T10:55:23.863Z</time>
      </trkpt>
      <trkpt lat="27.812884" lon="86.096714">
        <ele>1642.22259968</ele>
        <time>2019-10-17T10:56:25.863Z</time>
      </trkpt>
      <trkpt lat="27.813161" lon="86.096686">
        <ele>1647.61129984</ele>
        <time>2019-10-17T10:57:25.863Z</time>
      </trkpt>
      <trkpt lat="27.813389" lon="86.096831">
        <ele>1662.61129984</ele>
        <time>2019-10-17T10:59:25.863Z</time>
      </trkpt>
      <trkpt lat="27.813556" lon="86.096718">
        <ele>1669.62259968</ele>
        <time>2019-10-17T11:00:27.863Z</time>
      </trkpt>
      <trkpt lat="27.813411" lon="86.096446">
        <ele>1676.81129984</ele>
        <time>2019-10-17T11:01:27.863Z</time>
      </trkpt>
      <trkpt lat="27.813524" lon="86.096324">
        <ele>1683</ele>
        <time>2019-10-17T11:02:25.863Z</time>
      </trkpt>
      <trkpt lat="27.813387" lon="86.096222">
        <ele>1690.82259968</ele>
        <time>2019-10-17T11:03:28.863Z</time>
      </trkpt>
      <trkpt lat="27.813528" lon="86.095998">
        <ele>1697</ele>
        <time>2019-10-17T11:04:26.863Z</time>
      </trkpt>
      <trkpt lat="27.813896" lon="86.095495">
        <ele>1700.71129984</ele>
        <time>2019-10-17T11:05:26.863Z</time>
      </trkpt>
      <trkpt lat="27.814124" lon="86.094996">
        <ele>1705.71129984</ele>
        <time>2019-10-17T11:06:26.863Z</time>
      </trkpt>
      <trkpt lat="27.814451" lon="86.094559">
        <ele>1713.71129984</ele>
        <time>2019-10-17T11:07:26.863Z</time>
      </trkpt>
      <trkpt lat="27.814571" lon="86.093971">
        <ele>1716.81129984</ele>
        <time>2019-10-17T11:08:27.863Z</time>
      </trkpt>
      <trkpt lat="27.814999" lon="86.093678">
        <ele>1722.22259968</ele>
        <time>2019-10-17T11:09:25.863Z</time>
      </trkpt>
      <trkpt lat="27.815436" lon="86.093306">
        <ele>1727</ele>
        <time>2019-10-17T11:10:26.863Z</time>
      </trkpt>
      <trkpt lat="27.815787" lon="86.092811">
        <ele>1731.71129984</ele>
        <time>2019-10-17T11:11:26.863Z</time>
      </trkpt>
      <trkpt lat="27.815958" lon="86.092378">
        <ele>1738.62259968</ele>
        <time>2019-10-17T11:12:27.863Z</time>
      </trkpt>
      <trkpt lat="27.816356" lon="86.092026">
        <ele>1743.81129984</ele>
        <time>2019-10-17T11:13:27.863Z</time>
      </trkpt>
      <trkpt lat="27.816785" lon="86.091978">
        <ele>1751</ele>
        <time>2019-10-17T11:14:26.863Z</time>
      </trkpt>
      <trkpt lat="27.816953" lon="86.09156">
        <ele>1757.71101094342</ele>
        <time>2019-10-17T11:15:26.863Z</time>
      </trkpt>
      <trkpt lat="27.816945" lon="86.09142">
        <ele>1760</ele>
        <time>2019-10-17T11:16:27.863Z</time>
      </trkpt>
      <trkpt lat="27.816918" lon="86.091095">
        <ele>1761</ele>
        <time>2019-10-17T11:17:25.863Z</time>
      </trkpt>
      <trkpt lat="27.817276" lon="86.090652">
        <ele>1761.71129984</ele>
        <time>2019-10-17T11:18:26.863Z</time>
      </trkpt>
      <trkpt lat="27.817444" lon="86.090204">
        <ele>1768.62259968</ele>
        <time>2019-10-17T11:19:27.863Z</time>
      </trkpt>
      <trkpt lat="27.8177" lon="86.090039">
        <ele>1775.42259968</ele>
        <time>2019-10-17T11:20:26.863Z</time>
      </trkpt>
      <trkpt lat="27.817695" lon="86.08967">
        <ele>1779</ele>
        <time>2019-10-17T11:21:26.863Z</time>
      </trkpt>
      <trkpt lat="27.817934" lon="86.089379">
        <ele>1784</ele>
        <time>2019-10-17T11:22:24.863Z</time>
      </trkpt>
      <trkpt lat="27.818206" lon="86.089432">
        <ele>1786.61129984</ele>
        <time>2019-10-17T11:23:25.863Z</time>
      </trkpt>
      <trkpt lat="27.818844" lon="86.089367">
        <ele>1792.81129984</ele>
        <time>2019-10-17T11:24:27.863Z</time>
      </trkpt>
      <trkpt lat="27.819141" lon="86.089264">
        <ele>1798.71129984</ele>
        <time>2019-10-17T11:25:26.863Z</time>
      </trkpt>
      <trkpt lat="27.819579" lon="86.089011">
        <ele>1798</ele>
        <time>2019-10-17T11:27:26.863Z</time>
      </trkpt>
      <trkpt lat="27.819996" lon="86.088831">
        <ele>1802.82259968</ele>
        <time>2019-10-17T11:28:23.863Z</time>
      </trkpt>
      <trkpt lat="27.820366" lon="86.089142">
        <ele>1810.71129984</ele>
        <time>2019-10-17T11:29:26.863Z</time>
      </trkpt>
      <trkpt lat="27.820781" lon="86.089299">
        <ele>1816</ele>
        <time>2019-10-17T11:30:26.863Z</time>
      </trkpt>
      <trkpt lat="27.821156" lon="86.089322">
        <ele>1814</ele>
        <time>2019-10-17T11:31:24.863Z</time>
      </trkpt>
      <trkpt lat="27.82147" lon="86.089348">
        <ele>1817</ele>
        <time>2019-10-17T11:32:24.863Z</time>
      </trkpt>
      <trkpt lat="27.821421" lon="86.089093">
        <ele>1818</ele>
        <time>2019-10-17T11:34:48.863Z</time>
      </trkpt>
      <trkpt lat="27.821973" lon="86.089175">
        <ele>1822.77740032</ele>
        <time>2019-10-17T11:36:05.863Z</time>
      </trkpt>
      <trkpt lat="27.822186" lon="86.0893">
        <ele>1828.61129984</ele>
        <time>2019-10-17T11:37:05.863Z</time>
      </trkpt>
      <trkpt lat="27.822347" lon="86.089389">
        <ele>1837.0564992</ele>
        <time>2019-10-17T11:38:05.863Z</time>
      </trkpt>
      <trkpt lat="27.822515" lon="86.089403">
        <ele>1842.11129984</ele>
        <time>2019-10-17T11:38:50.863Z</time>
      </trkpt>
      <trkpt lat="27.822581" lon="86.089313">
        <ele>1848.44519936</ele>
        <time>2019-10-17T11:39:35.863Z</time>
      </trkpt>
      <trkpt lat="27.8227" lon="86.089439">
        <ele>1853.22259968</ele>
        <time>2019-10-17T11:40:25.863Z</time>
      </trkpt>
      <trkpt lat="27.823156" lon="86.089471">
        <ele>1856.18870016</ele>
        <time>2019-10-17T11:41:27.863Z</time>
      </trkpt>
      <trkpt lat="27.823757" lon="86.089311">
        <ele>1859</ele>
        <time>2019-10-17T11:42:26.863Z</time>
      </trkpt>
      <trkpt lat="27.824" lon="86.089334">
        <ele>1863.71129984</ele>
        <time>2019-10-17T11:43:26.863Z</time>
      </trkpt>
      <trkpt lat="27.824279" lon="86.08934">
        <ele>1870.62259968</ele>
        <time>2019-10-17T11:44:27.863Z</time>
      </trkpt>
      <trkpt lat="27.824492" lon="86.089438">
        <ele>1875</ele>
        <time>2019-10-17T11:45:24.863Z</time>
      </trkpt>
      <trkpt lat="27.824674" lon="86.089648">
        <ele>1881.71129984</ele>
        <time>2019-10-17T11:46:26.863Z</time>
      </trkpt>
      <trkpt lat="27.824769" lon="86.089857">
        <ele>1888</ele>
        <time>2019-10-17T11:47:27.863Z</time>
      </trkpt>
      <trkpt lat="27.825062" lon="86.089988">
        <ele>1895.42259968</ele>
        <time>2019-10-17T11:48:26.863Z</time>
      </trkpt>
      <trkpt lat="27.825562" lon="86.089911">
        <ele>1897</ele>
        <time>2019-10-17T11:49:26.863Z</time>
      </trkpt>
      <trkpt lat="27.826042" lon="86.089774">
        <ele>1902.42259968</ele>
        <time>2019-10-17T11:50:26.863Z</time>
      </trkpt>
      <trkpt lat="27.82628" lon="86.089147">
        <ele>1897.28870016</ele>
        <time>2019-10-17T11:51:26.863Z</time>
      </trkpt>
      <trkpt lat="27.826558" lon="86.088536">
        <ele>1891.18870016</ele>
        <time>2019-10-17T11:52:27.863Z</time>
      </trkpt>
      <trkpt lat="27.826414" lon="86.088037">
        <ele>1888.58870016</ele>
        <time>2019-10-17T11:53:23.863Z</time>
      </trkpt>
      <trkpt lat="27.826427" lon="86.08772">
        <ele>1885.58870016</ele>
        <time>2019-10-17T11:54:23.863Z</time>
      </trkpt>
      <trkpt lat="27.826587" lon="86.08711">
        <ele>1881.58870016</ele>
        <time>2019-10-17T11:55:23.863Z</time>
      </trkpt>
      <trkpt lat="27.826852" lon="86.086235">
        <ele>1876</ele>
        <time>2019-10-17T11:56:26.863Z</time>
      </trkpt>
      <trkpt lat="27.82675" lon="86.085607">
        <ele>1874.38870016</ele>
        <time>2019-10-17T11:57:25.863Z</time>
      </trkpt>
      <trkpt lat="27.826643" lon="86.085026">
        <ele>1866.28870016</ele>
        <time>2019-10-17T11:58:26.863Z</time>
      </trkpt>
      <trkpt lat="27.826725" lon="86.084753">
        <ele>1858.41129984</ele>
        <time>2019-10-17T11:59:23.863Z</time>
      </trkpt>
      <trkpt lat="27.826924" lon="86.084239">
        <ele>1847.75480064</ele>
        <time>2019-10-17T12:00:27.863Z</time>
      </trkpt>
      <trkpt lat="27.826968" lon="86.083765">
        <ele>1839.28870016</ele>
        <time>2019-10-17T12:01:26.863Z</time>
      </trkpt>
      <trkpt lat="27.827025" lon="86.083184">
        <ele>1832.48870016</ele>
        <time>2019-10-17T12:02:24.863Z</time>
      </trkpt>
      <trkpt lat="27.827411" lon="86.082764">
        <ele>1827</ele>
        <time>2019-10-17T12:03:26.863Z</time>
      </trkpt>
      <trkpt lat="27.827679" lon="86.08204">
        <ele>1828</ele>
        <time>2019-10-17T12:04:26.863Z</time>
      </trkpt>
      <trkpt lat="27.827791" lon="86.081479">
        <ele>1824.38870016</ele>
        <time>2019-10-17T12:05:25.863Z</time>
      </trkpt>
      <trkpt lat="27.82791" lon="86.081141">
        <ele>1814.58870016</ele>
        <time>2019-10-17T12:06:23.863Z</time>
      </trkpt>
      <trkpt lat="27.828234" lon="86.080953">
        <ele>1806.1782218352</ele>
        <time>2019-10-17T12:07:23.863Z</time>
      </trkpt>
      <trkpt lat="27.828561" lon="86.080332">
        <ele>1800</ele>
        <time>2019-10-17T12:08:26.863Z</time>
      </trkpt>
      <trkpt lat="27.828748" lon="86.079769">
        <ele>1793.57740032</ele>
        <time>2019-10-17T12:09:26.863Z</time>
      </trkpt>
      <trkpt lat="27.829031" lon="86.079314">
        <ele>1790.02259968</ele>
        <time>2019-10-17T12:10:24.863Z</time>
      </trkpt>
      <trkpt lat="27.829408" lon="86.078414">
        <ele>1791.18870016</ele>
        <time>2019-10-17T12:11:27.863Z</time>
      </trkpt>
      <trkpt lat="27.829542" lon="86.077883">
        <ele>1791.58870016</ele>
        <time>2019-10-17T12:12:23.863Z</time>
      </trkpt>
      <trkpt lat="27.830205" lon="86.077574">
        <ele>1793.28870016</ele>
        <time>2019-10-17T12:13:26.863Z</time>
      </trkpt>
      <trkpt lat="27.830712" lon="86.076852">
        <ele>1788</ele>
        <time>2019-10-17T12:14:27.863Z</time>
      </trkpt>
      <trkpt lat="27.830623" lon="86.076279">
        <ele>1782</ele>
        <time>2019-10-17T12:15:24.863Z</time>
      </trkpt>
      <trkpt lat="27.830951" lon="86.075876">
        <ele>1780.48870016</ele>
        <time>2019-10-17T12:16:24.863Z</time>
      </trkpt>
      <trkpt lat="27.831176" lon="86.075967">
        <ele>1777.41129984</ele>
        <time>2019-10-17T12:17:43.863Z</time>
      </trkpt>
      <trkpt lat="27.831338" lon="86.076025">
        <ele>1783</ele>
        <time>2019-10-17T12:18:28.863Z</time>
      </trkpt>
      <trkpt lat="27.831619" lon="86.075949">
        <ele>1789</ele>
        <time>2019-10-17T12:19:25.863Z</time>
      </trkpt>
      <trkpt lat="27.831662" lon="86.075684">
        <ele>1795.81129984</ele>
        <time>2019-10-17T12:20:27.863Z</time>
      </trkpt>
      <trkpt lat="27.831866" lon="86.075902">
        <ele>1809.42259968</ele>
        <time>2019-10-17T12:22:26.863Z</time>
      </trkpt>
      <trkpt lat="27.831962" lon="86.075844">
        <ele>1815.61129984</ele>
        <time>2019-10-17T12:23:25.863Z</time>
      </trkpt>
      <trkpt lat="27.832032" lon="86.07568">
        <ele>1822.81129984</ele>
        <time>2019-10-17T12:24:27.863Z</time>
      </trkpt>
      <trkpt lat="27.83211" lon="86.075554">
        <ele>1828.71129984</ele>
        <time>2019-10-17T12:25:26.863Z</time>
      </trkpt>
      <trkpt lat="27.832133" lon="86.075433">
        <ele>1835.82259968</ele>
        <time>2019-10-17T12:26:23.863Z</time>
      </trkpt>
      <trkpt lat="27.832236" lon="86.07548">
        <ele>1842.51129984</ele>
        <time>2019-10-17T12:27:24.863Z</time>
      </trkpt>
      <trkpt lat="27.832482" lon="86.075727">
        <ele>1849</ele>
        <time>2019-10-17T12:28:26.863Z</time>
      </trkpt>
      <trkpt lat="27.832659" lon="86.075964">
        <ele>1862.8217781648</ele>
        <time>2019-10-17T12:30:23.863Z</time>
      </trkpt>
      <trkpt lat="27.832954" lon="86.07594">
        <ele>1870.62259968</ele>
        <time>2019-10-17T12:31:27.863Z</time>
      </trkpt>
      <trkpt lat="27.832994" lon="86.07611">
        <ele>1876.81129984</ele>
        <time>2019-10-17T12:32:27.863Z</time>
      </trkpt>
      <trkpt lat="27.833182" lon="86.075898">
        <ele>1889.61129984</ele>
        <time>2019-10-17T12:34:25.863Z</time>
      </trkpt>
      <trkpt lat="27.8333" lon="86.07584">
        <ele>1895.81129984</ele>
        <time>2019-10-17T12:35:27.863Z</time>
      </trkpt>
      <trkpt lat="27.83329" lon="86.075957">
        <ele>1896</ele>
        <time>2019-10-17T12:36:27.863Z</time>
      </trkpt>
      <trkpt lat="27.833354" lon="86.075861">
        <ele>1897</ele>
        <time>2019-10-17T12:38:23.863Z</time>
      </trkpt>
      <trkpt lat="27.833442" lon="86.075608">
        <ele>1903.41129984</ele>
        <time>2019-10-17T12:39:23.863Z</time>
      </trkpt>
      <trkpt lat="27.833601" lon="86.075265">
        <ele>1909.81129984</ele>
        <time>2019-10-17T12:40:27.863Z</time>
      </trkpt>
      <trkpt lat="27.833623" lon="86.075118">
        <ele>1915.41129984</ele>
        <time>2019-10-17T12:41:23.863Z</time>
      </trkpt>
      <trkpt lat="27.833818" lon="86.074961">
        <ele>1923.22182175077</ele>
        <time>2019-10-17T12:42:25.863Z</time>
      </trkpt>
      <trkpt lat="27.833954" lon="86.075216">
        <ele>1928.41129984</ele>
        <time>2019-10-17T12:43:23.863Z</time>
      </trkpt>
      <trkpt lat="27.834089" lon="86.075175">
        <ele>1938.18840064</ele>
        <time>2019-10-17T12:45:27.866Z</time>
      </trkpt>
      <trkpt lat="27.834316" lon="86.075135">
        <ele>1950.91129984</ele>
        <time>2019-10-17T12:47:28.863Z</time>
      </trkpt>
      <trkpt lat="27.834368" lon="86.075245">
        <ele>1957.81129984</ele>
        <time>2019-10-17T12:48:27.863Z</time>
      </trkpt>
      <trkpt lat="27.834421" lon="86.075358">
        <ele>1966.73389952</ele>
        <time>2019-10-17T12:49:28.863Z</time>
      </trkpt>
      <trkpt lat="27.834616" lon="86.075381">
        <ele>1973</ele>
        <time>2019-10-17T12:50:27.863Z</time>
      </trkpt>
      <trkpt lat="27.834746" lon="86.075418">
        <ele>1978</ele>
        <time>2019-10-17T12:51:28.863Z</time>
      </trkpt>
      <trkpt lat="27.834835" lon="86.075603">
        <ele>1987.64519936</ele>
        <time>2019-10-17T12:52:28.863Z</time>
      </trkpt>
      <trkpt lat="27.83502" lon="86.075641">
        <ele>1993.91129984</ele>
        <time>2019-10-17T12:53:28.863Z</time>
      </trkpt>
      <trkpt lat="27.83523" lon="86.075656">
        <ele>2002</ele>
        <time>2019-10-17T12:55:28.863Z</time>
      </trkpt>
      <trkpt lat="27.835652" lon="86.075479">
        <ele>2007</ele>
        <time>2019-10-17T12:56:28.863Z</time>
      </trkpt>
      <trkpt lat="27.835909" lon="86.075506">
        <ele>2014</ele>
        <time>2019-10-17T12:57:28.863Z</time>
      </trkpt>
      <trkpt lat="27.835993" lon="86.075406">
        <ele>2020.91129984</ele>
        <time>2019-10-17T12:58:28.863Z</time>
      </trkpt>
      <trkpt lat="27.836086" lon="86.075535">
        <ele>2027.91129984</ele>
        <time>2019-10-17T12:59:28.863Z</time>
      </trkpt>
      <trkpt lat="27.836263" lon="86.07562">
        <ele>2032</ele>
        <time>2019-10-17T13:00:27.863Z</time>
      </trkpt>
      <trkpt lat="27.836537" lon="86.075514">
        <ele>2037.73389952</ele>
        <time>2019-10-17T13:01:28.863Z</time>
      </trkpt>
      <trkpt lat="27.836806" lon="86.075846">
        <ele>2043.81129984</ele>
        <time>2019-10-17T13:02:27.863Z</time>
      </trkpt>
      <trkpt lat="27.83683" lon="86.075702">
        <ele>2047</ele>
        <time>2019-10-17T13:03:27.863Z</time>
      </trkpt>
      <trkpt lat="27.837019" lon="86.075697">
        <ele>2054</ele>
        <time>2019-10-17T13:04:29.863Z</time>
      </trkpt>
      <trkpt lat="27.837143" lon="86.075493">
        <ele>2060</ele>
        <time>2019-10-17T13:05:27.863Z</time>
      </trkpt>
      <trkpt lat="27.837334" lon="86.075295">
        <ele>2068.62259968</ele>
        <time>2019-10-17T13:06:27.863Z</time>
      </trkpt>
      <trkpt lat="27.837459" lon="86.07544">
        <ele>2075</ele>
        <time>2019-10-17T13:07:27.863Z</time>
      </trkpt>
      <trkpt lat="27.837645" lon="86.075442">
        <ele>2081.91129984</ele>
        <time>2019-10-17T13:08:28.863Z</time>
      </trkpt>
      <trkpt lat="27.837726" lon="86.075585">
        <ele>2089</ele>
        <time>2019-10-17T13:09:28.863Z</time>
      </trkpt>
      <trkpt lat="27.837924" lon="86.075547">
        <ele>2096.81129984</ele>
        <time>2019-10-17T13:10:27.863Z</time>
      </trkpt>
      <trkpt lat="27.838052" lon="86.075642">
        <ele>2103.81129984</ele>
        <time>2019-10-17T13:11:27.863Z</time>
      </trkpt>
      <trkpt lat="27.838273" lon="86.075468">
        <ele>2108.81129984</ele>
        <time>2019-10-17T13:12:27.863Z</time>
      </trkpt>
      <trkpt lat="27.83833" lon="86.075579">
        <ele>2114.81129984</ele>
        <time>2019-10-17T13:13:27.863Z</time>
      </trkpt>
      <trkpt lat="27.838501" lon="86.075609">
        <ele>2121.03389952</ele>
        <time>2019-10-17T13:14:29.863Z</time>
      </trkpt>
      <trkpt lat="27.838668" lon="86.075603">
        <ele>2126.43389952</ele>
        <time>2019-10-17T13:15:27.863Z</time>
      </trkpt>
      <trkpt lat="27.838916" lon="86.075635">
        <ele>2132</ele>
        <time>2019-10-17T13:16:27.863Z</time>
      </trkpt>
      <trkpt lat="27.839106" lon="86.075579">
        <ele>2139</ele>
        <time>2019-10-17T13:17:27.863Z</time>
      </trkpt>
      <trkpt lat="27.839187" lon="86.075404">
        <ele>2146.81129984</ele>
        <time>2019-10-17T13:18:27.863Z</time>
      </trkpt>
      <trkpt lat="27.839426" lon="86.075178">
        <ele>2150.81111101146</ele>
        <time>2019-10-17T13:19:27.863Z</time>
      </trkpt>
      <trkpt lat="27.839936" lon="86.075031">
        <ele>2154.91129984</ele>
        <time>2019-10-17T13:20:28.863Z</time>
      </trkpt>
      <trkpt lat="27.840071" lon="86.074974">
        <ele>2160.81129984</ele>
        <time>2019-10-17T13:21:27.863Z</time>
      </trkpt>
      <trkpt lat="27.840193" lon="86.074909">
        <ele>2170.64519936</ele>
        <time>2019-10-17T13:22:28.863Z</time>
      </trkpt>
      <trkpt lat="27.840267" lon="86.07477">
        <ele>2175</ele>
        <time>2019-10-17T13:23:27.863Z</time>
      </trkpt>
      <trkpt lat="27.840518" lon="86.074772">
        <ele>2179</ele>
        <time>2019-10-17T13:24:25.863Z</time>
      </trkpt>
      <trkpt lat="27.840715" lon="86.074891">
        <ele>2185.81129984</ele>
        <time>2019-10-17T13:25:27.863Z</time>
      </trkpt>
      <trkpt lat="27.840816" lon="86.075042">
        <ele>2192.71129984</ele>
        <time>2019-10-17T13:26:26.863Z</time>
      </trkpt>
      <trkpt lat="27.84092" lon="86.075009">
        <ele>2200</ele>
        <time>2019-10-17T13:27:27.863Z</time>
      </trkpt>
      <trkpt lat="27.841035" lon="86.075036">
        <ele>2206.71129984</ele>
        <time>2019-10-17T13:28:26.863Z</time>
      </trkpt>
      <trkpt lat="27.841168" lon="86.075314">
        <ele>2211.81129984</ele>
        <time>2019-10-17T13:29:27.863Z</time>
      </trkpt>
      <trkpt lat="27.841255" lon="86.075386">
        <ele>2218</ele>
        <time>2019-10-17T13:30:27.863Z</time>
      </trkpt>
      <trkpt lat="27.841374" lon="86.075321">
        <ele>2225.62259968</ele>
        <time>2019-10-17T13:31:27.863Z</time>
      </trkpt>
      <trkpt lat="27.841553" lon="86.075295">
        <ele>2230.51129984</ele>
        <time>2019-10-17T13:32:24.863Z</time>
      </trkpt>
      <trkpt lat="27.841676" lon="86.075448">
        <ele>2236</ele>
        <time>2019-10-17T13:33:27.863Z</time>
      </trkpt>
      <trkpt lat="27.841776" lon="86.075416">
        <ele>2243</ele>
        <time>2019-10-17T13:34:27.863Z</time>
      </trkpt>
      <trkpt lat="27.841918" lon="86.075338">
        <ele>2250</ele>
        <time>2019-10-17T13:35:27.863Z</time>
      </trkpt>
      <trkpt lat="27.842096" lon="86.075456">
        <ele>2255</ele>
        <time>2019-10-17T13:36:26.863Z</time>
      </trkpt>
      <trkpt lat="27.842327" lon="86.075349">
        <ele>2268.61129984</ele>
        <time>2019-10-17T13:38:25.863Z</time>
      </trkpt>
      <trkpt lat="27.842512" lon="86.075345">
        <ele>2271.81129984</ele>
        <time>2019-10-17T13:39:27.863Z</time>
      </trkpt>
      <trkpt lat="27.842383" lon="86.07515">
        <ele>2274.08870016</ele>
        <time>2019-10-17T13:40:28.863Z</time>
      </trkpt>
      <trkpt lat="27.84266" lon="86.075125">
        <ele>2274.43389952</ele>
        <time>2019-10-17T13:41:27.863Z</time>
      </trkpt>
      <trkpt lat="27.842941" lon="86.075048">
        <ele>2279.51129984</ele>
        <time>2019-10-17T13:42:24.863Z</time>
      </trkpt>
      <trkpt lat="27.843042" lon="86.074816">
        <ele>2285.61129984</ele>
        <time>2019-10-17T13:43:25.863Z</time>
      </trkpt>
      <trkpt lat="27.843222" lon="86.074756">
        <ele>2291.61129984</ele>
        <time>2019-10-17T13:44:25.863Z</time>
      </trkpt>
      <trkpt lat="27.84336" lon="86.074871">
        <ele>2296.91129984</ele>
        <time>2019-10-17T13:45:28.863Z</time>
      </trkpt>
      <trkpt lat="27.843437" lon="86.075008">
        <ele>2299.62259968</ele>
        <time>2019-10-17T13:46:27.863Z</time>
      </trkpt>
      <trkpt lat="27.843608" lon="86.075149">
        <ele>2306.91129984</ele>
        <time>2019-10-17T13:47:28.863Z</time>
      </trkpt>
      <trkpt lat="27.843708" lon="86.075334">
        <ele>2313.82259968</ele>
        <time>2019-10-17T13:48:28.863Z</time>
      </trkpt>
      <trkpt lat="27.84391" lon="86.075592">
        <ele>2319.91129984</ele>
        <time>2019-10-17T13:49:28.863Z</time>
      </trkpt>
      <trkpt lat="27.844082" lon="86.075452">
        <ele>2326.81129984</ele>
        <time>2019-10-17T13:50:27.863Z</time>
      </trkpt>
      <trkpt lat="27.844274" lon="86.075276">
        <ele>2339.91129984</ele>
        <time>2019-10-17T13:52:28.863Z</time>
      </trkpt>
      <trkpt lat="27.844243" lon="86.075133">
        <ele>2346.91129984</ele>
        <time>2019-10-17T13:53:28.863Z</time>
      </trkpt>
      <trkpt lat="27.844307" lon="86.074998">
        <ele>2352.81129984</ele>
        <time>2019-10-17T13:54:27.863Z</time>
      </trkpt>
      <trkpt lat="27.844508" lon="86.07505">
        <ele>2359.91129984</ele>
        <time>2019-10-17T13:55:28.863Z</time>
      </trkpt>
      <trkpt lat="27.84462" lon="86.075244">
        <ele>2364.91129984</ele>
        <time>2019-10-17T13:56:28.863Z</time>
      </trkpt>
      <trkpt lat="27.844752" lon="86.075011">
        <ele>2371.73389952</ele>
        <time>2019-10-17T13:57:28.863Z</time>
      </trkpt>
      <trkpt lat="27.844621" lon="86.074869">
        <ele>2372.33389952</ele>
        <time>2019-10-17T13:58:30.863Z</time>
      </trkpt>
      <trkpt lat="27.844601" lon="86.074687">
        <ele>2378</ele>
        <time>2019-10-17T13:59:28.863Z</time>
      </trkpt>
      <trkpt lat="27.84461" lon="86.07439">
        <ele>2383</ele>
        <time>2019-10-17T14:00:27.863Z</time>
      </trkpt>
      <trkpt lat="27.844588" lon="86.074272">
        <ele>2388</ele>
        <time>2019-10-17T14:01:28.863Z</time>
      </trkpt>
      <trkpt lat="27.844523" lon="86.07416">
        <ele>2388.18870016</ele>
        <time>2019-10-17T14:02:27.863Z</time>
      </trkpt>
      <trkpt lat="27.844752" lon="86.073664">
        <ele>2393</ele>
        <time>2019-10-17T14:03:27.863Z</time>
      </trkpt>
      <trkpt lat="27.845044" lon="86.073461">
        <ele>2397.01129984</ele>
        <time>2019-10-17T14:04:29.863Z</time>
      </trkpt>
      <trkpt lat="27.844765" lon="86.073224">
        <ele>2402</ele>
        <time>2019-10-17T14:05:28.863Z</time>
      </trkpt>
      <trkpt lat="27.84502" lon="86.072989">
        <ele>2406.62259968</ele>
        <time>2019-10-17T14:06:27.863Z</time>
      </trkpt>
      <trkpt lat="27.845145" lon="86.072818">
        <ele>2410</ele>
        <time>2019-10-17T14:07:27.863Z</time>
      </trkpt>
      <trkpt lat="27.844896" lon="86.072574">
        <ele>2414.08870016</ele>
        <time>2019-10-17T14:08:48.863Z</time>
      </trkpt>
      <trkpt lat="27.845032" lon="86.072444">
        <ele>2412</ele>
        <time>2019-10-17T14:10:28.863Z</time>
      </trkpt>
      <trkpt lat="27.845116" lon="86.07274">
        <ele>2583.80004882813</ele>
        <time>2019-10-18T05:27:08.986Z</time>
      </trkpt>
      <trkpt lat="27.84499" lon="86.072927">
        <ele>2393.83340032</ele>
        <time>2019-10-18T05:28:08.986Z</time>
      </trkpt>
      <trkpt lat="27.844743" lon="86.073435">
        <ele>2384.73340032</ele>
        <time>2019-10-18T05:29:09.986Z</time>
      </trkpt>
      <trkpt lat="27.844512" lon="86.07404">
        <ele>2375.66659968</ele>
        <time>2019-10-18T05:30:13.986Z</time>
      </trkpt>
      <trkpt lat="27.844482" lon="86.074157">
        <ele>2376</ele>
        <time>2019-10-18T05:31:32.986Z</time>
      </trkpt>
      <trkpt lat="27.844373" lon="86.074194">
        <ele>2372.03343374304</ele>
        <time>2019-10-18T05:32:46.986Z</time>
      </trkpt>
      <trkpt lat="27.843929" lon="86.073738">
        <ele>2358.46680064</ele>
        <time>2019-10-18T05:33:49.986Z</time>
      </trkpt>
      <trkpt lat="27.84358" lon="86.073562">
        <ele>2343.66680064</ele>
        <time>2019-10-18T05:34:58.986Z</time>
      </trkpt>
      <trkpt lat="27.843397" lon="86.073424">
        <ele>2332.26680064</ele>
        <time>2019-10-18T05:36:00.986Z</time>
      </trkpt>
      <trkpt lat="27.843222" lon="86.07316">
        <ele>2317.86680064</ele>
        <time>2019-10-18T05:37:02.986Z</time>
      </trkpt>
      <trkpt lat="27.843036" lon="86.072922">
        <ele>2305.86680064</ele>
        <time>2019-10-18T05:38:07.986Z</time>
      </trkpt>
      <trkpt lat="27.842736" lon="86.072414">
        <ele>2294.63340032</ele>
        <time>2019-10-18T05:39:10.986Z</time>
      </trkpt>
      <trkpt lat="27.842265" lon="86.071735">
        <ele>2283.33340032</ele>
        <time>2019-10-18T05:40:53.986Z</time>
      </trkpt>
      <trkpt lat="27.842121" lon="86.071887">
        <ele>2269.66680064</ele>
        <time>2019-10-18T05:42:23.986Z</time>
      </trkpt>
      <trkpt lat="27.841782" lon="86.071808">
        <ele>2261.70020096</ele>
        <time>2019-10-18T05:43:14.986Z</time>
      </trkpt>
      <trkpt lat="27.841618" lon="86.071522">
        <ele>2253</ele>
        <time>2019-10-18T05:44:15.986Z</time>
      </trkpt>
      <trkpt lat="27.841431" lon="86.07204">
        <ele>2246.60020096</ele>
        <time>2019-10-18T05:45:11.986Z</time>
      </trkpt>
      <trkpt lat="27.841559" lon="86.071861">
        <ele>2250</ele>
        <time>2019-10-18T05:46:17.903Z</time>
      </trkpt>
      <trkpt lat="27.841504" lon="86.071266">
        <ele>2250</ele>
        <time>2019-10-18T05:47:11.986Z</time>
      </trkpt>
      <trkpt lat="27.841624" lon="86.070633">
        <ele>2246</ele>
        <time>2019-10-18T05:48:12.986Z</time>
      </trkpt>
      <trkpt lat="27.841795" lon="86.070163">
        <ele>2250.76659968</ele>
        <time>2019-10-18T05:49:14.986Z</time>
      </trkpt>
      <trkpt lat="27.841866" lon="86.069494">
        <ele>2249.76659968</ele>
        <time>2019-10-18T05:50:14.986Z</time>
      </trkpt>
      <trkpt lat="27.841922" lon="86.068854">
        <ele>2249</ele>
        <time>2019-10-18T05:51:19.986Z</time>
      </trkpt>
      <trkpt lat="27.842013" lon="86.068361">
        <ele>2244</ele>
        <time>2019-10-18T05:52:56.986Z</time>
      </trkpt>
      <trkpt lat="27.842198" lon="86.068242">
        <ele>2243.96659968</ele>
        <time>2019-10-18T05:54:26.986Z</time>
      </trkpt>
      <trkpt lat="27.842064" lon="86.067128">
        <ele>2249</ele>
        <time>2019-10-18T05:55:53.986Z</time>
      </trkpt>
      <trkpt lat="27.842432" lon="86.066674">
        <ele>2242.33340032</ele>
        <time>2019-10-18T05:56:53.986Z</time>
      </trkpt>
      <trkpt lat="27.842232" lon="86.066314">
        <ele>2240.33340032</ele>
        <time>2019-10-18T05:57:53.986Z</time>
      </trkpt>
      <trkpt lat="27.842147" lon="86.065809">
        <ele>2238</ele>
        <time>2019-10-18T05:58:53.986Z</time>
      </trkpt>
      <trkpt lat="27.842078" lon="86.065352">
        <ele>2237</ele>
        <time>2019-10-18T05:59:38.986Z</time>
      </trkpt>
      <trkpt lat="27.841766" lon="86.064977">
        <ele>2235.33340032</ele>
        <time>2019-10-18T06:00:23.986Z</time>
      </trkpt>
      <trkpt lat="27.84162" lon="86.064672">
        <ele>2238.36659968</ele>
        <time>2019-10-18T06:01:20.986Z</time>
      </trkpt>
      <trkpt lat="27.841332" lon="86.064287">
        <ele>2244</ele>
        <time>2019-10-18T06:02:14.986Z</time>
      </trkpt>
      <trkpt lat="27.840896" lon="86.063873">
        <ele>2244.34</ele>
        <time>2019-10-18T06:03:23.920Z</time>
      </trkpt>
      <trkpt lat="27.840497" lon="86.063455">
        <ele>2245.35769984</ele>
        <time>2019-10-18T06:04:20.897Z</time>
      </trkpt>
      <trkpt lat="27.84028" lon="86.06309">
        <ele>2250.13319936</ele>
        <time>2019-10-18T06:05:17.986Z</time>
      </trkpt>
      <trkpt lat="27.840261" lon="86.062477">
        <ele>2252.46659968</ele>
        <time>2019-10-18T06:06:11.986Z</time>
      </trkpt>
      <trkpt lat="27.83985" lon="86.062401">
        <ele>2242.43340032</ele>
        <time>2019-10-18T06:07:12.986Z</time>
      </trkpt>
      <trkpt lat="27.83978" lon="86.062127">
        <ele>2234</ele>
        <time>2019-10-18T06:08:11.986Z</time>
      </trkpt>
      <trkpt lat="27.840038" lon="86.061812">
        <ele>2229</ele>
        <time>2019-10-18T06:09:12.986Z</time>
      </trkpt>
      <trkpt lat="27.839658" lon="86.061137">
        <ele>2229.56659968</ele>
        <time>2019-10-18T06:10:12.986Z</time>
      </trkpt>
      <trkpt lat="27.839827" lon="86.060357">
        <ele>2227</ele>
        <time>2019-10-18T06:11:13.986Z</time>
      </trkpt>
      <trkpt lat="27.839516" lon="86.060356">
        <ele>2230.43340032</ele>
        <time>2019-10-18T06:12:12.986Z</time>
      </trkpt>
      <trkpt lat="27.839122" lon="86.060107">
        <ele>2227</ele>
        <time>2019-10-18T06:13:13.986Z</time>
      </trkpt>
      <trkpt lat="27.839016" lon="86.060148">
        <ele>2224.13340032</ele>
        <time>2019-10-18T06:14:15.986Z</time>
      </trkpt>
      <trkpt lat="27.838981" lon="86.060336">
        <ele>2212.33340032</ele>
        <time>2019-10-18T06:15:13.986Z</time>
      </trkpt>
      <trkpt lat="27.838671" lon="86.060192">
        <ele>2200</ele>
        <time>2019-10-18T06:16:13.986Z</time>
      </trkpt>
      <trkpt lat="27.838903" lon="86.059488">
        <ele>2199.13340032</ele>
        <time>2019-10-18T06:17:15.986Z</time>
      </trkpt>
      <trkpt lat="27.838946" lon="86.059085">
        <ele>2201</ele>
        <time>2019-10-18T06:18:14.986Z</time>
      </trkpt>
      <trkpt lat="27.83905" lon="86.058704">
        <ele>2209.93319936</ele>
        <time>2019-10-18T06:19:11.986Z</time>
      </trkpt>
      <trkpt lat="27.83934" lon="86.058229">
        <ele>2215.29979904</ele>
        <time>2019-10-18T06:20:14.986Z</time>
      </trkpt>
      <trkpt lat="27.838886" lon="86.057867">
        <ele>2216.73319936</ele>
        <time>2019-10-18T06:21:15.986Z</time>
      </trkpt>
      <trkpt lat="27.838823" lon="86.057675">
        <ele>2220</ele>
        <time>2019-10-18T06:22:14.986Z</time>
      </trkpt>
      <trkpt lat="27.838713" lon="86.057382">
        <ele>2219.76659968</ele>
        <time>2019-10-18T06:23:14.986Z</time>
      </trkpt>
      <trkpt lat="27.838858" lon="86.056772">
        <ele>2206.86680064</ele>
        <time>2019-10-18T06:24:12.986Z</time>
      </trkpt>
      <trkpt lat="27.838909" lon="86.055984">
        <ele>2194.66680064</ele>
        <time>2019-10-18T06:25:13.986Z</time>
      </trkpt>
      <trkpt lat="27.838974" lon="86.05531">
        <ele>2183.43340032</ele>
        <time>2019-10-18T06:26:12.986Z</time>
      </trkpt>
      <trkpt lat="27.839034" lon="86.054847">
        <ele>2175.76659968</ele>
        <time>2019-10-18T06:27:14.986Z</time>
      </trkpt>
      <trkpt lat="27.839163" lon="86.054287">
        <ele>2161.46680064</ele>
        <time>2019-10-18T06:28:14.986Z</time>
      </trkpt>
      <trkpt lat="27.83978" lon="86.053378">
        <ele>2150.33406604086</ele>
        <time>2019-10-18T06:29:13.986Z</time>
      </trkpt>
      <trkpt lat="27.839392" lon="86.05329">
        <ele>2129.07450262948</ele>
        <time>2019-10-18T06:30:56.986Z</time>
      </trkpt>
      <trkpt lat="27.839216" lon="86.053208">
        <ele>2126</ele>
        <time>2019-10-18T06:31:41.986Z</time>
      </trkpt>
      <trkpt lat="27.839668" lon="86.05346">
        <ele>2132.66659968</ele>
        <time>2019-10-18T06:32:53.986Z</time>
      </trkpt>
      <trkpt lat="27.839946" lon="86.053597">
        <ele>2140.33319936</ele>
        <time>2019-10-18T06:33:53.986Z</time>
      </trkpt>
      <trkpt lat="27.839975" lon="86.053372">
        <ele>2146.66659968</ele>
        <time>2019-10-18T06:34:53.986Z</time>
      </trkpt>
      <trkpt lat="27.839687" lon="86.052978">
        <ele>2154.06669952</ele>
        <time>2019-10-18T06:36:27.986Z</time>
      </trkpt>
      <trkpt lat="27.839416" lon="86.052754">
        <ele>2159.66659968</ele>
        <time>2019-10-18T06:37:13.986Z</time>
      </trkpt>
      <trkpt lat="27.839083" lon="86.052518">
        <ele>2166.93319936</ele>
        <time>2019-10-18T06:38:16.986Z</time>
      </trkpt>
      <trkpt lat="27.838761" lon="86.052102">
        <ele>2172</ele>
        <time>2019-10-18T06:39:14.986Z</time>
      </trkpt>
      <trkpt lat="27.838526" lon="86.051865">
        <ele>2179.53319936</ele>
        <time>2019-10-18T06:40:14.986Z</time>
      </trkpt>
      <trkpt lat="27.838354" lon="86.051705">
        <ele>2188.06659968</ele>
        <time>2019-10-18T06:41:17.986Z</time>
      </trkpt>
      <trkpt lat="27.837917" lon="86.051505">
        <ele>2190</ele>
        <time>2019-10-18T06:43:13.986Z</time>
      </trkpt>
      <trkpt lat="27.837491" lon="86.051098">
        <ele>2196.76659968</ele>
        <time>2019-10-18T06:44:14.986Z</time>
      </trkpt>
      <trkpt lat="27.837097" lon="86.050834">
        <ele>2203.66659968</ele>
        <time>2019-10-18T06:45:13.986Z</time>
      </trkpt>
      <trkpt lat="27.837009" lon="86.050735">
        <ele>2211</ele>
        <time>2019-10-18T06:46:13.986Z</time>
      </trkpt>
      <trkpt lat="27.836783" lon="86.050458">
        <ele>2217.93319936</ele>
        <time>2019-10-18T06:47:16.986Z</time>
      </trkpt>
      <trkpt lat="27.836607" lon="86.050142">
        <ele>2225.33319936</ele>
        <time>2019-10-18T06:48:13.986Z</time>
      </trkpt>
      <trkpt lat="27.836553" lon="86.049747">
        <ele>2231.96659968</ele>
        <time>2019-10-18T06:49:16.986Z</time>
      </trkpt>
      <trkpt lat="27.836628" lon="86.049329">
        <ele>2235.13319936</ele>
        <time>2019-10-18T06:51:12.986Z</time>
      </trkpt>
      <trkpt lat="27.83645" lon="86.048915">
        <ele>2240.76659968</ele>
        <time>2019-10-18T06:52:14.986Z</time>
      </trkpt>
      <trkpt lat="27.836088" lon="86.048811">
        <ele>2246</ele>
        <time>2019-10-18T06:53:13.986Z</time>
      </trkpt>
      <trkpt lat="27.836156" lon="86.04827">
        <ele>2238.43340032</ele>
        <time>2019-10-18T06:54:12.986Z</time>
      </trkpt>
      <trkpt lat="27.835656" lon="86.047757">
        <ele>2236</ele>
        <time>2019-10-18T06:55:12.986Z</time>
      </trkpt>
      <trkpt lat="27.83525" lon="86.047101">
        <ele>2235</ele>
        <time>2019-10-18T06:56:15.986Z</time>
      </trkpt>
      <trkpt lat="27.835401" lon="86.046523">
        <ele>2231</ele>
        <time>2019-10-18T06:57:15.986Z</time>
      </trkpt>
      <trkpt lat="27.835073" lon="86.046623">
        <ele>2226.76659968</ele>
        <time>2019-10-18T06:59:14.986Z</time>
      </trkpt>
      <trkpt lat="27.834995" lon="86.046354">
        <ele>2230</ele>
        <time>2019-10-18T07:00:14.986Z</time>
      </trkpt>
      <trkpt lat="27.834907" lon="86.045695">
        <ele>2234.86659968</ele>
        <time>2019-10-18T07:01:15.986Z</time>
      </trkpt>
      <trkpt lat="27.834928" lon="86.045233">
        <ele>2242.56659968</ele>
        <time>2019-10-18T07:02:12.986Z</time>
      </trkpt>
      <trkpt lat="27.83489" lon="86.044919">
        <ele>2250.56659968</ele>
        <time>2019-10-18T07:03:12.986Z</time>
      </trkpt>
      <trkpt lat="27.834896" lon="86.04464">
        <ele>2257.86659968</ele>
        <time>2019-10-18T07:04:15.986Z</time>
      </trkpt>
      <trkpt lat="27.834807" lon="86.044484">
        <ele>2265</ele>
        <time>2019-10-18T07:05:15.986Z</time>
      </trkpt>
      <trkpt lat="27.834696" lon="86.044245">
        <ele>2271.76659968</ele>
        <time>2019-10-18T07:06:14.986Z</time>
      </trkpt>
      <trkpt lat="27.834638" lon="86.043902">
        <ele>2278</ele>
        <time>2019-10-18T07:07:14.986Z</time>
      </trkpt>
      <trkpt lat="27.834446" lon="86.043391">
        <ele>2284</ele>
        <time>2019-10-18T07:08:14.986Z</time>
      </trkpt>
      <trkpt lat="27.834456" lon="86.042504">
        <ele>2281.23340032</ele>
        <time>2019-10-18T07:09:14.986Z</time>
      </trkpt>
      <trkpt lat="27.834518" lon="86.041799">
        <ele>2283.76659968</ele>
        <time>2019-10-18T07:10:14.986Z</time>
      </trkpt>
      <trkpt lat="27.834354" lon="86.041394">
        <ele>2290.06659968</ele>
        <time>2019-10-18T07:11:17.986Z</time>
      </trkpt>
      <trkpt lat="27.833783" lon="86.040963">
        <ele>2291</ele>
        <time>2019-10-18T07:12:13.986Z</time>
      </trkpt>
      <trkpt lat="27.833748" lon="86.040846">
        <ele>2291</ele>
        <time>2019-10-18T07:13:15.986Z</time>
      </trkpt>
      <trkpt lat="27.834042" lon="86.041192">
        <ele>2290</ele>
        <time>2019-10-18T07:14:13.986Z</time>
      </trkpt>
      <trkpt lat="27.833722" lon="86.040852">
        <ele>2285</ele>
        <time>2019-10-18T07:15:14.986Z</time>
      </trkpt>
      <trkpt lat="27.833809" lon="86.040968">
        <ele>2284</ele>
        <time>2019-10-18T07:16:14.986Z</time>
      </trkpt>
      <trkpt lat="27.833976" lon="86.040632">
        <ele>2291</ele>
        <time>2019-10-18T07:17:13.986Z</time>
      </trkpt>
      <trkpt lat="27.833516" lon="86.040263">
        <ele>2290.73146844562</ele>
        <time>2019-10-18T07:18:15.986Z</time>
      </trkpt>
      <trkpt lat="27.833362" lon="86.039916">
        <ele>2297.86659968</ele>
        <time>2019-10-18T07:19:15.986Z</time>
      </trkpt>
      <trkpt lat="27.833215" lon="86.040029">
        <ele>2304.76659968</ele>
        <time>2019-10-18T07:20:14.986Z</time>
      </trkpt>
      <trkpt lat="27.833278" lon="86.040422">
        <ele>2309</ele>
        <time>2019-10-18T07:21:15.986Z</time>
      </trkpt>
      <trkpt lat="27.833453" lon="86.040393">
        <ele>2316.76659968</ele>
        <time>2019-10-18T07:22:14.986Z</time>
      </trkpt>
      <trkpt lat="27.832974" lon="86.039807">
        <ele>2320.76659968</ele>
        <time>2019-10-18T07:23:14.986Z</time>
      </trkpt>
      <trkpt lat="27.832442" lon="86.039549">
        <ele>2327</ele>
        <time>2019-10-18T07:24:13.986Z</time>
      </trkpt>
      <trkpt lat="27.832492" lon="86.039039">
        <ele>2332</ele>
        <time>2019-10-18T07:25:15.986Z</time>
      </trkpt>
      <trkpt lat="27.832075" lon="86.038635">
        <ele>2334</ele>
        <time>2019-10-18T07:26:15.986Z</time>
      </trkpt>
      <trkpt lat="27.832005" lon="86.03793">
        <ele>2334.66659968</ele>
        <time>2019-10-18T07:27:13.986Z</time>
      </trkpt>
      <trkpt lat="27.831674" lon="86.037342">
        <ele>2339.56659968</ele>
        <time>2019-10-18T07:28:42.986Z</time>
      </trkpt>
      <trkpt lat="27.831624" lon="86.037066">
        <ele>2344.06659968</ele>
        <time>2019-10-18T07:29:27.986Z</time>
      </trkpt>
      <trkpt lat="27.831891" lon="86.037061">
        <ele>2355.33319936</ele>
        <time>2019-10-18T07:30:53.986Z</time>
      </trkpt>
      <trkpt lat="27.8319" lon="86.036898">
        <ele>2361.66659968</ele>
        <time>2019-10-18T07:31:53.986Z</time>
      </trkpt>
      <trkpt lat="27.831732" lon="86.036586">
        <ele>2367</ele>
        <time>2019-10-18T07:32:53.986Z</time>
      </trkpt>
      <trkpt lat="27.83151" lon="86.036538">
        <ele>2371.33319936</ele>
        <time>2019-10-18T07:33:38.986Z</time>
      </trkpt>
      <trkpt lat="27.831389" lon="86.036388">
        <ele>2392.66659968</ele>
        <time>2019-10-18T07:36:13.986Z</time>
      </trkpt>
      <trkpt lat="27.831501" lon="86.036176">
        <ele>2405.66659968</ele>
        <time>2019-10-18T07:38:13.986Z</time>
      </trkpt>
      <trkpt lat="27.831623" lon="86.035975">
        <ele>2420</ele>
        <time>2019-10-18T07:40:12.986Z</time>
      </trkpt>
      <trkpt lat="27.83148" lon="86.035884">
        <ele>2426.66659968</ele>
        <time>2019-10-18T07:41:13.986Z</time>
      </trkpt>
      <trkpt lat="27.831596" lon="86.035817">
        <ele>2434.46659968</ele>
        <time>2019-10-18T07:42:11.986Z</time>
      </trkpt>
      <trkpt lat="27.831734" lon="86.035735">
        <ele>2446.76659968</ele>
        <time>2019-10-18T07:44:14.986Z</time>
      </trkpt>
      <trkpt lat="27.831747" lon="86.035591">
        <ele>2453.76659968</ele>
        <time>2019-10-18T07:45:14.986Z</time>
      </trkpt>
      <trkpt lat="27.83194" lon="86.035551">
        <ele>2460.53319936</ele>
        <time>2019-10-18T07:46:14.986Z</time>
      </trkpt>
      <trkpt lat="27.831963" lon="86.035437">
        <ele>2465.86659968</ele>
        <time>2019-10-18T07:47:15.986Z</time>
      </trkpt>
      <trkpt lat="27.83189" lon="86.035224">
        <ele>2469.86659968</ele>
        <time>2019-10-18T07:49:15.986Z</time>
      </trkpt>
      <trkpt lat="27.831655" lon="86.034903">
        <ele>2475.53319936</ele>
        <time>2019-10-18T07:50:14.986Z</time>
      </trkpt>
      <trkpt lat="27.831697" lon="86.034516">
        <ele>2480</ele>
        <time>2019-10-18T07:51:11.986Z</time>
      </trkpt>
      <trkpt lat="27.831492" lon="86.034741">
        <ele>2480</ele>
        <time>2019-10-18T07:52:14.986Z</time>
      </trkpt>
      <trkpt lat="27.831474" lon="86.034617">
        <ele>2481</ele>
        <time>2019-10-18T07:53:14.986Z</time>
      </trkpt>
      <trkpt lat="27.831345" lon="86.034517">
        <ele>2483</ele>
        <time>2019-10-18T07:54:15.986Z</time>
      </trkpt>
      <trkpt lat="27.831108" lon="86.034435">
        <ele>2487.46659968</ele>
        <time>2019-10-18T07:55:11.986Z</time>
      </trkpt>
      <trkpt lat="27.831254" lon="86.034038">
        <ele>2491.66659968</ele>
        <time>2019-10-18T07:56:13.986Z</time>
      </trkpt>
      <trkpt lat="27.830996" lon="86.033534">
        <ele>2492.56659968</ele>
        <time>2019-10-18T07:57:12.986Z</time>
      </trkpt>
      <trkpt lat="27.830561" lon="86.033012">
        <ele>2495.73319936</ele>
        <time>2019-10-18T07:58:15.986Z</time>
      </trkpt>
      <trkpt lat="27.830692" lon="86.032629">
        <ele>2503.86659968</ele>
        <time>2019-10-18T07:59:15.986Z</time>
      </trkpt>
      <trkpt lat="27.830869" lon="86.032504">
        <ele>2510.46659968</ele>
        <time>2019-10-18T08:00:11.986Z</time>
      </trkpt>
      <trkpt lat="27.830846" lon="86.032732">
        <ele>2515.76659968</ele>
        <time>2019-10-18T08:01:14.986Z</time>
      </trkpt>
      <trkpt lat="27.830875" lon="86.032237">
        <ele>2522.86659968</ele>
        <time>2019-10-18T08:02:15.986Z</time>
      </trkpt>
      <trkpt lat="27.83092" lon="86.031779">
        <ele>2528.76659968</ele>
        <time>2019-10-18T08:03:14.986Z</time>
      </trkpt>
      <trkpt lat="27.830928" lon="86.03112">
        <ele>2532.86659968</ele>
        <time>2019-10-18T08:04:15.986Z</time>
      </trkpt>
      <trkpt lat="27.831488" lon="86.0307">
        <ele>2536</ele>
        <time>2019-10-18T08:05:16.986Z</time>
      </trkpt>
      <trkpt lat="27.831551" lon="86.030371">
        <ele>2541</ele>
        <time>2019-10-18T08:06:14.986Z</time>
      </trkpt>
      <trkpt lat="27.832441" lon="86.03003">
        <ele>2535</ele>
        <time>2019-10-18T08:07:16.986Z</time>
      </trkpt>
      <trkpt lat="27.831436" lon="86.029758">
        <ele>2536.13319936</ele>
        <time>2019-10-18T08:08:17.986Z</time>
      </trkpt>
      <trkpt lat="27.832488" lon="86.029932">
        <ele>2541.93319936</ele>
        <time>2019-10-18T08:09:16.986Z</time>
      </trkpt>
      <trkpt lat="27.832029" lon="86.029673">
        <ele>2549.66659968</ele>
        <time>2019-10-18T08:10:13.986Z</time>
      </trkpt>
      <trkpt lat="27.832131" lon="86.029561">
        <ele>2555</ele>
        <time>2019-10-18T08:11:15.986Z</time>
      </trkpt>
      <trkpt lat="27.83205" lon="86.029422">
        <ele>2564.29979904</ele>
        <time>2019-10-18T08:12:14.986Z</time>
      </trkpt>
      <trkpt lat="27.831893" lon="86.029372">
        <ele>2568.56659968</ele>
        <time>2019-10-18T08:13:12.986Z</time>
      </trkpt>
      <trkpt lat="27.832271" lon="86.029125">
        <ele>2577.59979904</ele>
        <time>2019-10-18T08:14:15.986Z</time>
      </trkpt>
      <trkpt lat="27.832204" lon="86.028865">
        <ele>2588.66659968</ele>
        <time>2019-10-18T08:16:13.986Z</time>
      </trkpt>
      <trkpt lat="27.832526" lon="86.028577">
        <ele>2593.86639872</ele>
        <time>2019-10-18T08:17:11.986Z</time>
      </trkpt>
      <trkpt lat="27.832604" lon="86.028348">
        <ele>2601</ele>
        <time>2019-10-18T08:18:15.986Z</time>
      </trkpt>
      <trkpt lat="27.832579" lon="86.028232">
        <ele>2607</ele>
        <time>2019-10-18T08:19:11.986Z</time>
      </trkpt>
      <trkpt lat="27.83245" lon="86.028361">
        <ele>2605.46680064</ele>
        <time>2019-10-18T08:22:14.986Z</time>
      </trkpt>
      <trkpt lat="27.832746" lon="86.028174">
        <ele>2605</ele>
        <time>2019-10-18T08:23:13.986Z</time>
      </trkpt>
      <trkpt lat="27.832566" lon="86.028264">
        <ele>2605</ele>
        <time>2019-10-18T08:26:13.986Z</time>
      </trkpt>
      <trkpt lat="27.832665" lon="86.028053">
        <ele>2610.96659968</ele>
        <time>2019-10-18T08:30:16.986Z</time>
      </trkpt>
      <trkpt lat="27.832972" lon="86.02792">
        <ele>2623</ele>
        <time>2019-10-18T08:32:15.986Z</time>
      </trkpt>
      <trkpt lat="27.833019" lon="86.027755">
        <ele>2630.93319936</ele>
        <time>2019-10-18T08:33:16.986Z</time>
      </trkpt>
      <trkpt lat="27.83314" lon="86.027556">
        <ele>2636.93319936</ele>
        <time>2019-10-18T08:34:16.986Z</time>
      </trkpt>
      <trkpt lat="27.833198" lon="86.027395">
        <ele>2648.53319936</ele>
        <time>2019-10-18T08:36:14.986Z</time>
      </trkpt>
      <trkpt lat="27.83305" lon="86.026946">
        <ele>2652.53319936</ele>
        <time>2019-10-18T08:37:14.986Z</time>
      </trkpt>
      <trkpt lat="27.832654" lon="86.02672">
        <ele>2658.99979904</ele>
        <time>2019-10-18T08:38:13.986Z</time>
      </trkpt>
      <trkpt lat="27.832611" lon="86.026224">
        <ele>2665.26659968</ele>
        <time>2019-10-18T08:39:19.986Z</time>
      </trkpt>
      <trkpt lat="27.832974" lon="86.026814">
        <ele>2671</ele>
        <time>2019-10-18T08:40:14.986Z</time>
      </trkpt>
      <trkpt lat="27.83324" lon="86.026464">
        <ele>2676.76659968</ele>
        <time>2019-10-18T08:41:14.986Z</time>
      </trkpt>
      <trkpt lat="27.833104" lon="86.02636">
        <ele>2683</ele>
        <time>2019-10-18T08:42:14.986Z</time>
      </trkpt>
      <trkpt lat="27.83293" lon="86.026264">
        <ele>2689.56659968</ele>
        <time>2019-10-18T08:43:12.986Z</time>
      </trkpt>
      <trkpt lat="27.833213" lon="86.026192">
        <ele>2695.76659968</ele>
        <time>2019-10-18T08:44:14.986Z</time>
      </trkpt>
      <trkpt lat="27.833217" lon="86.025855">
        <ele>2705</ele>
        <time>2019-10-18T08:45:20.986Z</time>
      </trkpt>
      <trkpt lat="27.833336" lon="86.025899">
        <ele>2709</ele>
        <time>2019-10-18T08:46:17.986Z</time>
      </trkpt>
      <trkpt lat="27.833427" lon="86.025324">
        <ele>2713.96656625696</ele>
        <time>2019-10-18T08:47:16.986Z</time>
      </trkpt>
      <trkpt lat="27.833175" lon="86.025524">
        <ele>2720.76659968</ele>
        <time>2019-10-18T08:48:14.986Z</time>
      </trkpt>
      <trkpt lat="27.833122" lon="86.025314">
        <ele>2726</ele>
        <time>2019-10-18T08:49:14.986Z</time>
      </trkpt>
      <trkpt lat="27.833221" lon="86.02503">
        <ele>2733.33319936</ele>
        <time>2019-10-18T08:50:13.986Z</time>
      </trkpt>
      <trkpt lat="27.833179" lon="86.025246">
        <ele>2739.13319936</ele>
        <time>2019-10-18T08:51:12.986Z</time>
      </trkpt>
      <trkpt lat="27.833071" lon="86.024575">
        <ele>2746</ele>
        <time>2019-10-18T08:52:27.986Z</time>
      </trkpt>
      <trkpt lat="27.833034" lon="86.024751">
        <ele>2747</ele>
        <time>2019-10-18T08:53:15.986Z</time>
      </trkpt>
      <trkpt lat="27.832942" lon="86.024661">
        <ele>2748</ele>
        <time>2019-10-18T08:54:16.986Z</time>
      </trkpt>
      <trkpt lat="27.832885" lon="86.024411">
        <ele>2753.56659968</ele>
        <time>2019-10-18T08:55:12.986Z</time>
      </trkpt>
      <trkpt lat="27.832899" lon="86.024188">
        <ele>2759.66659968</ele>
        <time>2019-10-18T08:56:13.986Z</time>
      </trkpt>
      <trkpt lat="27.832895" lon="86.024069">
        <ele>2771</ele>
        <time>2019-10-18T08:58:12.986Z</time>
      </trkpt>
      <trkpt lat="27.832871" lon="86.024504">
        <ele>2778</ele>
        <time>2019-10-18T08:59:12.986Z</time>
      </trkpt>
      <trkpt lat="27.832645" lon="86.023824">
        <ele>2784</ele>
        <time>2019-10-18T09:00:13.986Z</time>
      </trkpt>
      <trkpt lat="27.832694" lon="86.023441">
        <ele>2791</ele>
        <time>2019-10-18T09:01:15.986Z</time>
      </trkpt>
      <trkpt lat="27.832571" lon="86.02344">
        <ele>2791</ele>
        <time>2019-10-18T09:02:14.986Z</time>
      </trkpt>
      <trkpt lat="27.83264" lon="86.023153">
        <ele>2790</ele>
        <time>2019-10-18T09:03:14.986Z</time>
      </trkpt>
      <trkpt lat="27.832634" lon="86.023876">
        <ele>2791</ele>
        <time>2019-10-18T09:04:11.986Z</time>
      </trkpt>
      <trkpt lat="27.832705" lon="86.023998">
        <ele>2792</ele>
        <time>2019-10-18T09:05:14.986Z</time>
      </trkpt>
      <trkpt lat="27.832656" lon="86.023407">
        <ele>2791</ele>
        <time>2019-10-18T09:06:16.986Z</time>
      </trkpt>
      <trkpt lat="27.832645" lon="86.023719">
        <ele>2791</ele>
        <time>2019-10-18T09:08:15.986Z</time>
      </trkpt>
      <trkpt lat="27.83268" lon="86.023355">
        <ele>2791</ele>
        <time>2019-10-18T09:09:14.986Z</time>
      </trkpt>
      <trkpt lat="27.832728" lon="86.023752">
        <ele>2790.76659968</ele>
        <time>2019-10-18T09:10:14.986Z</time>
      </trkpt>
      <trkpt lat="27.832708" lon="86.023614">
        <ele>2791</ele>
        <time>2019-10-18T09:11:15.986Z</time>
      </trkpt>
      <trkpt lat="27.83261" lon="86.02341">
        <ele>2796</ele>
        <time>2019-10-18T09:14:13.986Z</time>
      </trkpt>
      <trkpt lat="27.832664" lon="86.023197">
        <ele>2802.76659968</ele>
        <time>2019-10-18T09:15:14.986Z</time>
      </trkpt>
      <trkpt lat="27.832663" lon="86.023027">
        <ele>2807.76659968</ele>
        <time>2019-10-18T09:16:14.986Z</time>
      </trkpt>
      <trkpt lat="27.832606" lon="86.022935">
        <ele>2814</ele>
        <time>2019-10-18T09:17:13.986Z</time>
      </trkpt>
      <trkpt lat="27.83285" lon="86.022905">
        <ele>2814.86659968</ele>
        <time>2019-10-18T09:18:15.986Z</time>
      </trkpt>
      <trkpt lat="27.832771" lon="86.022779">
        <ele>2822.66659968</ele>
        <time>2019-10-18T09:19:13.986Z</time>
      </trkpt>
      <trkpt lat="27.832687" lon="86.022545">
        <ele>2827.86659968</ele>
        <time>2019-10-18T09:20:15.986Z</time>
      </trkpt>
      <trkpt lat="27.832706" lon="86.022382">
        <ele>2834</ele>
        <time>2019-10-18T09:21:12.986Z</time>
      </trkpt>
      <trkpt lat="27.832813" lon="86.022126">
        <ele>2840</ele>
        <time>2019-10-18T09:22:14.986Z</time>
      </trkpt>
      <trkpt lat="27.832796" lon="86.021756">
        <ele>2845</ele>
        <time>2019-10-18T09:23:13.986Z</time>
      </trkpt>
      <trkpt lat="27.832743" lon="86.021378">
        <ele>2851.46659968</ele>
        <time>2019-10-18T09:24:11.986Z</time>
      </trkpt>
      <trkpt lat="27.832701" lon="86.021093">
        <ele>2855.46659968</ele>
        <time>2019-10-18T09:25:11.986Z</time>
      </trkpt>
      <trkpt lat="27.832472" lon="86.020955">
        <ele>2864</ele>
        <time>2019-10-18T09:27:13.986Z</time>
      </trkpt>
      <trkpt lat="27.832349" lon="86.020966">
        <ele>2868</ele>
        <time>2019-10-18T09:29:11.986Z</time>
      </trkpt>
      <trkpt lat="27.832391" lon="86.020789">
        <ele>2874.76659968</ele>
        <time>2019-10-18T09:30:14.986Z</time>
      </trkpt>
      <trkpt lat="27.832134" lon="86.020654">
        <ele>2880.69979904</ele>
        <time>2019-10-18T09:31:12.986Z</time>
      </trkpt>
      <trkpt lat="27.832208" lon="86.020507">
        <ele>2886</ele>
        <time>2019-10-18T09:32:13.986Z</time>
      </trkpt>
      <trkpt lat="27.832352" lon="86.020078">
        <ele>2891.53319936</ele>
        <time>2019-10-18T09:33:14.986Z</time>
      </trkpt>
      <trkpt lat="27.832323" lon="86.019885">
        <ele>2897.53319936</ele>
        <time>2019-10-18T09:34:14.986Z</time>
      </trkpt>
      <trkpt lat="27.832323" lon="86.019544">
        <ele>2903.53319936</ele>
        <time>2019-10-18T09:35:14.986Z</time>
      </trkpt>
      <trkpt lat="27.831726" lon="86.019552">
        <ele>2909.13319936</ele>
        <time>2019-10-18T09:36:12.986Z</time>
      </trkpt>
      <trkpt lat="27.831307" lon="86.019539">
        <ele>2915.13319936</ele>
        <time>2019-10-18T09:37:12.986Z</time>
      </trkpt>
      <trkpt lat="27.831311" lon="86.019211">
        <ele>2919.53319936</ele>
        <time>2019-10-18T09:38:14.986Z</time>
      </trkpt>
      <trkpt lat="27.831527" lon="86.018929">
        <ele>2925.93319936</ele>
        <time>2019-10-18T09:39:11.986Z</time>
      </trkpt>
      <trkpt lat="27.831224" lon="86.018467">
        <ele>2930.86659968</ele>
        <time>2019-10-18T09:40:15.986Z</time>
      </trkpt>
      <trkpt lat="27.831748" lon="86.01782">
        <ele>2934</ele>
        <time>2019-10-18T09:41:25.002Z</time>
      </trkpt>
      <trkpt lat="27.831561" lon="86.017501">
        <ele>2938.46659968</ele>
        <time>2019-10-18T09:42:11.986Z</time>
      </trkpt>
      <trkpt lat="27.831153" lon="86.017132">
        <ele>2944</ele>
        <time>2019-10-18T09:43:14.986Z</time>
      </trkpt>
      <trkpt lat="27.831225" lon="86.016832">
        <ele>2950.46659968</ele>
        <time>2019-10-18T09:44:11.986Z</time>
      </trkpt>
      <trkpt lat="27.831006" lon="86.016531">
        <ele>2957.59979904</ele>
        <time>2019-10-18T09:45:15.986Z</time>
      </trkpt>
      <trkpt lat="27.831174" lon="86.016203">
        <ele>2961</ele>
        <time>2019-10-18T09:46:12.986Z</time>
      </trkpt>
      <trkpt lat="27.830776" lon="86.015786">
        <ele>2966.76659968</ele>
        <time>2019-10-18T09:47:14.986Z</time>
      </trkpt>
      <trkpt lat="27.83059" lon="86.015588">
        <ele>2973</ele>
        <time>2019-10-18T09:48:13.986Z</time>
      </trkpt>
      <trkpt lat="27.830529" lon="86.015227">
        <ele>2976.73319936</ele>
        <time>2019-10-18T09:49:15.986Z</time>
      </trkpt>
      <trkpt lat="27.830488" lon="86.01485">
        <ele>2982.53319936</ele>
        <time>2019-10-18T09:50:14.986Z</time>
      </trkpt>
      <trkpt lat="27.830421" lon="86.014584">
        <ele>2987.53319936</ele>
        <time>2019-10-18T09:51:14.986Z</time>
      </trkpt>
      <trkpt lat="27.830366" lon="86.014296">
        <ele>2992.53319936</ele>
        <time>2019-10-18T09:52:14.986Z</time>
      </trkpt>
      <trkpt lat="27.830352" lon="86.014105">
        <ele>2997.76659968</ele>
        <time>2019-10-18T09:53:14.986Z</time>
      </trkpt>
      <trkpt lat="27.830664" lon="86.013949">
        <ele>3003.76659968</ele>
        <time>2019-10-18T09:54:14.986Z</time>
      </trkpt>
      <trkpt lat="27.83063" lon="86.013739">
        <ele>3010.59979904</ele>
        <time>2019-10-18T09:55:15.986Z</time>
      </trkpt>
      <trkpt lat="27.830891" lon="86.013671">
        <ele>3014.66659968</ele>
        <time>2019-10-18T09:56:13.986Z</time>
      </trkpt>
      <trkpt lat="27.830938" lon="86.013525">
        <ele>3021</ele>
        <time>2019-10-18T09:57:15.986Z</time>
      </trkpt>
      <trkpt lat="27.83131" lon="86.013419">
        <ele>3027</ele>
        <time>2019-10-18T09:58:14.986Z</time>
      </trkpt>
      <trkpt lat="27.831395" lon="86.013222">
        <ele>3032.66659968</ele>
        <time>2019-10-18T09:59:23.986Z</time>
      </trkpt>
      <trkpt lat="27.831394" lon="86.013009">
        <ele>3038.96659968</ele>
        <time>2019-10-18T10:00:16.986Z</time>
      </trkpt>
      <trkpt lat="27.831387" lon="86.012727">
        <ele>3042.66659968</ele>
        <time>2019-10-18T10:01:13.986Z</time>
      </trkpt>
      <trkpt lat="27.831559" lon="86.012521">
        <ele>3051.73319936</ele>
        <time>2019-10-18T10:02:40.986Z</time>
      </trkpt>
      <trkpt lat="27.831668" lon="86.012377">
        <ele>3055.86659968</ele>
        <time>2019-10-18T10:03:25.986Z</time>
      </trkpt>
      <trkpt lat="27.83165" lon="86.012218">
        <ele>3066.33319936</ele>
        <time>2019-10-18T10:04:53.986Z</time>
      </trkpt>
      <trkpt lat="27.831655" lon="86.012072">
        <ele>3070.66659968</ele>
        <time>2019-10-18T10:05:53.986Z</time>
      </trkpt>
      <trkpt lat="27.831678" lon="86.011843">
        <ele>3077.66659968</ele>
        <time>2019-10-18T10:06:53.986Z</time>
      </trkpt>
      <trkpt lat="27.831949" lon="86.01137">
        <ele>3080</ele>
        <time>2019-10-18T10:07:38.986Z</time>
      </trkpt>
      <trkpt lat="27.831888" lon="86.010887">
        <ele>3083</ele>
        <time>2019-10-18T10:08:23.986Z</time>
      </trkpt>
      <trkpt lat="27.831633" lon="86.010192">
        <ele>3087</ele>
        <time>2019-10-18T10:10:01.984Z</time>
      </trkpt>
      <trkpt lat="27.831711" lon="86.009986">
        <ele>3087</ele>
        <time>2019-10-18T10:10:46.986Z</time>
      </trkpt>
      <trkpt lat="27.83164" lon="86.009941">
        <ele>3087</ele>
        <time>2019-10-18T10:11:53.986Z</time>
      </trkpt>
      <trkpt lat="27.831392" lon="86.010217">
        <ele>3089</ele>
        <time>2019-10-18T10:15:32.986Z</time>
      </trkpt>
      <trkpt lat="27.83104" lon="86.010219">
        <ele>3095.86680064</ele>
        <time>2019-10-18T10:16:17.986Z</time>
      </trkpt>
      <trkpt lat="27.830639" lon="86.009831">
        <ele>3097.76659968</ele>
        <time>2019-10-18T10:17:14.986Z</time>
      </trkpt>
      <trkpt lat="27.830212" lon="86.009401">
        <ele>3101.56659968</ele>
        <time>2019-10-18T10:18:12.986Z</time>
      </trkpt>
      <trkpt lat="27.829872" lon="86.009326">
        <ele>3107.86659968</ele>
        <time>2019-10-18T10:19:15.986Z</time>
      </trkpt>
      <trkpt lat="27.82966" lon="86.009458">
        <ele>3113.76659968</ele>
        <time>2019-10-18T10:20:14.986Z</time>
      </trkpt>
      <trkpt lat="27.829464" lon="86.009344">
        <ele>3115</ele>
        <time>2019-10-18T10:21:15.986Z</time>
      </trkpt>
      <trkpt lat="27.829169" lon="86.009254">
        <ele>3120.93319936</ele>
        <time>2019-10-18T10:22:11.986Z</time>
      </trkpt>
      <trkpt lat="27.828797" lon="86.009024">
        <ele>3126</ele>
        <time>2019-10-18T10:23:13.986Z</time>
      </trkpt>
      <trkpt lat="27.828316" lon="86.008743">
        <ele>3131</ele>
        <time>2019-10-18T10:24:14.986Z</time>
      </trkpt>
      <trkpt lat="27.827865" lon="86.008338">
        <ele>3136</ele>
        <time>2019-10-18T10:25:14.986Z</time>
      </trkpt>
      <trkpt lat="27.827402" lon="86.00782">
        <ele>3137.66659968</ele>
        <time>2019-10-18T10:26:13.986Z</time>
      </trkpt>
      <trkpt lat="27.82697" lon="86.007754">
        <ele>3142.66659968</ele>
        <time>2019-10-18T10:27:13.986Z</time>
      </trkpt>
      <trkpt lat="27.826754" lon="86.007728">
        <ele>3145</ele>
        <time>2019-10-18T10:28:11.986Z</time>
      </trkpt>
      <trkpt lat="27.826325" lon="86.007774">
        <ele>3147.76659968</ele>
        <time>2019-10-18T10:32:14.986Z</time>
      </trkpt>
      <trkpt lat="27.824716" lon="86.007347">
        <ele>3142</ele>
        <time>2019-10-18T10:34:31.986Z</time>
      </trkpt>
      <trkpt lat="27.824006" lon="86.007289">
        <ele>3143.33890048</ele>
        <time>2019-10-18T10:35:53.931Z</time>
      </trkpt>
      <trkpt lat="27.823956" lon="86.007312">
        <ele>3142</ele>
        <time>2019-10-18T10:36:53.931Z</time>
      </trkpt>
      <trkpt lat="27.823735" lon="86.007385">
        <ele>3142.66659968</ele>
        <time>2019-10-18T10:38:53.986Z</time>
      </trkpt>
      <trkpt lat="27.823079" lon="86.007687">
        <ele>3143</ele>
        <time>2019-10-18T10:39:53.986Z</time>
      </trkpt>
      <trkpt lat="27.82255" lon="86.007978">
        <ele>3142.33319936</ele>
        <time>2019-10-18T10:40:53.986Z</time>
      </trkpt>
      <trkpt lat="27.82196" lon="86.008292">
        <ele>3142.33340032</ele>
        <time>2019-10-18T10:41:53.986Z</time>
      </trkpt>
      <trkpt lat="27.821434" lon="86.008322">
        <ele>3140</ele>
        <time>2019-10-18T10:42:38.986Z</time>
      </trkpt>
      <trkpt lat="27.821157" lon="86.008522">
        <ele>3142</ele>
        <time>2019-10-18T10:43:23.986Z</time>
      </trkpt>
      <trkpt lat="27.821357" lon="86.008404">
        <ele>3142.23340032</ele>
        <time>2019-10-18T10:44:14.986Z</time>
      </trkpt>
      <trkpt lat="27.822103" lon="86.008261">
        <ele>3141</ele>
        <time>2019-10-18T10:45:14.986Z</time>
      </trkpt>
      <trkpt lat="27.822636" lon="86.007921">
        <ele>3144.33340032</ele>
        <time>2019-10-18T10:46:13.986Z</time>
      </trkpt>
      <trkpt lat="27.823332" lon="86.007617">
        <ele>3140.76659968</ele>
        <time>2019-10-18T10:47:14.986Z</time>
      </trkpt>
      <trkpt lat="27.823824" lon="86.007409">
        <ele>3144</ele>
        <time>2019-10-18T10:48:13.986Z</time>
      </trkpt>
      <trkpt lat="27.823879" lon="86.007088">
        <ele>3136.13340032</ele>
        <time>2019-10-18T10:49:15.986Z</time>
      </trkpt>
      <trkpt lat="27.823811" lon="86.006667">
        <ele>3126.93346683188</ele>
        <time>2019-10-18T10:50:17.986Z</time>
      </trkpt>
      <trkpt lat="27.824105" lon="86.006828">
        <ele>3121.26680064</ele>
        <time>2019-10-18T10:51:15.986Z</time>
      </trkpt>
      <trkpt lat="27.824368" lon="86.006578">
        <ele>3112</ele>
        <time>2019-10-18T10:52:14.986Z</time>
      </trkpt>
      <trkpt lat="27.824562" lon="86.005993">
        <ele>3100.63340032</ele>
        <time>2019-10-18T10:53:20.986Z</time>
      </trkpt>
      <trkpt lat="27.82468" lon="86.005912">
        <ele>3094</ele>
        <time>2019-10-18T10:54:14.986Z</time>
      </trkpt>
      <trkpt lat="27.824628" lon="86.005711">
        <ele>3084.53340032</ele>
        <time>2019-10-18T10:55:11.986Z</time>
      </trkpt>
      <trkpt lat="27.824746" lon="86.005814">
        <ele>3073</ele>
        <time>2019-10-18T10:56:12.986Z</time>
      </trkpt>
      <trkpt lat="27.824587" lon="86.005628">
        <ele>3063.53340032</ele>
        <time>2019-10-18T10:57:11.986Z</time>
      </trkpt>
      <trkpt lat="27.824508" lon="86.005363">
        <ele>3053.23340032</ele>
        <time>2019-10-18T10:58:14.986Z</time>
      </trkpt>
      <trkpt lat="27.824478" lon="86.005168">
        <ele>3046</ele>
        <time>2019-10-18T10:59:14.986Z</time>
      </trkpt>
      <trkpt lat="27.82439" lon="86.004905">
        <ele>3034.53340032</ele>
        <time>2019-10-18T11:00:11.986Z</time>
      </trkpt>
      <trkpt lat="27.824184" lon="86.005005">
        <ele>3021.53340032</ele>
        <time>2019-10-18T11:01:11.986Z</time>
      </trkpt>
      <trkpt lat="27.824048" lon="86.005">
        <ele>3010.23340032</ele>
        <time>2019-10-18T11:02:14.986Z</time>
      </trkpt>
      <trkpt lat="27.823834" lon="86.005032">
        <ele>3000</ele>
        <time>2019-10-18T11:03:11.986Z</time>
      </trkpt>
      <trkpt lat="27.823695" lon="86.005047">
        <ele>2988.40020096</ele>
        <time>2019-10-18T11:04:15.986Z</time>
      </trkpt>
      <trkpt lat="27.823616" lon="86.004828">
        <ele>2977.53340032</ele>
        <time>2019-10-18T11:05:11.986Z</time>
      </trkpt>
      <trkpt lat="27.823261" lon="86.004973">
        <ele>2967</ele>
        <time>2019-10-18T11:06:11.986Z</time>
      </trkpt>
      <trkpt lat="27.822719" lon="86.004904">
        <ele>2952.53340032</ele>
        <time>2019-10-18T11:07:11.986Z</time>
      </trkpt>
      <trkpt lat="27.82244" lon="86.004459">
        <ele>2937.60020096</ele>
        <time>2019-10-18T11:08:11.986Z</time>
      </trkpt>
      <trkpt lat="27.822341" lon="86.00443">
        <ele>2930.88569856</ele>
        <time>2019-10-18T11:09:16.939Z</time>
      </trkpt>
      <trkpt lat="27.822425" lon="86.004313">
        <ele>2930.76659968</ele>
        <time>2019-10-18T11:10:14.986Z</time>
      </trkpt>
      <trkpt lat="27.822422" lon="86.004142">
        <ele>2929</ele>
        <time>2019-10-18T11:11:14.986Z</time>
      </trkpt>
      <trkpt lat="27.822444" lon="86.00426">
        <ele>2929</ele>
        <time>2019-10-18T11:17:11.986Z</time>
      </trkpt>
      <trkpt lat="27.822455" lon="86.004196">
        <ele>2929.33340032</ele>
        <time>2019-10-18T11:19:23.986Z</time>
      </trkpt>
      <trkpt lat="27.82269" lon="86.003951">
        <ele>2923.23340032</ele>
        <time>2019-10-18T11:20:14.986Z</time>
      </trkpt>
      <trkpt lat="27.823058" lon="86.00353">
        <ele>2914</ele>
        <time>2019-10-18T11:21:15.986Z</time>
      </trkpt>
      <trkpt lat="27.823259" lon="86.003097">
        <ele>2905.43699968</ele>
        <time>2019-10-18T11:22:22.950Z</time>
      </trkpt>
      <trkpt lat="27.82344" lon="86.002675">
        <ele>2900.23340032</ele>
        <time>2019-10-18T11:23:14.986Z</time>
      </trkpt>
      <trkpt lat="27.823445" lon="86.002158">
        <ele>2888.60020096</ele>
        <time>2019-10-18T11:24:11.986Z</time>
      </trkpt>
      <trkpt lat="27.823622" lon="86.001497">
        <ele>2879.23340032</ele>
        <time>2019-10-18T11:25:14.986Z</time>
      </trkpt>
      <trkpt lat="27.824042" lon="86.000587">
        <ele>2874</ele>
        <time>2019-10-18T11:26:15.986Z</time>
      </trkpt>
      <trkpt lat="27.824388" lon="85.999988">
        <ele>2866.23340032</ele>
        <time>2019-10-18T11:27:14.986Z</time>
      </trkpt>
      <trkpt lat="27.824095" lon="85.99949">
        <ele>2857.13340032</ele>
        <time>2019-10-18T11:28:15.986Z</time>
      </trkpt>
      <trkpt lat="27.824034" lon="85.998975">
        <ele>2846</ele>
        <time>2019-10-18T11:29:15.986Z</time>
      </trkpt>
      <trkpt lat="27.823754" lon="85.998619">
        <ele>2834.03340032</ele>
        <time>2019-10-18T11:30:16.986Z</time>
      </trkpt>
      <trkpt lat="27.823726" lon="85.998485">
        <ele>2826</ele>
        <time>2019-10-18T11:31:13.986Z</time>
      </trkpt>
      <trkpt lat="27.82352" lon="85.9978">
        <ele>2817.13340032</ele>
        <time>2019-10-18T11:32:15.986Z</time>
      </trkpt>
      <trkpt lat="27.823356" lon="85.997109">
        <ele>2806</ele>
        <time>2019-10-18T11:33:14.986Z</time>
      </trkpt>
      <trkpt lat="27.823716" lon="85.996184">
        <ele>2797.23340032</ele>
        <time>2019-10-18T11:34:24.986Z</time>
      </trkpt>
      <trkpt lat="27.823755" lon="85.995547">
        <ele>2792</ele>
        <time>2019-10-18T11:35:11.986Z</time>
      </trkpt>
      <trkpt lat="27.823471" lon="85.99478">
        <ele>2784</ele>
        <time>2019-10-18T11:36:24.957Z</time>
      </trkpt>
      <trkpt lat="27.823451" lon="85.994198">
        <ele>2775</ele>
        <time>2019-10-18T11:37:52.953Z</time>
      </trkpt>
      <trkpt lat="27.823248" lon="85.994074">
        <ele>2773.93340032</ele>
        <time>2019-10-18T11:38:37.986Z</time>
      </trkpt>
      <trkpt lat="27.823082" lon="85.993194">
        <ele>2767</ele>
        <time>2019-10-18T11:39:53.986Z</time>
      </trkpt>
      <trkpt lat="27.823041" lon="85.99254">
        <ele>2756.66680064</ele>
        <time>2019-10-18T11:40:53.986Z</time>
      </trkpt>
      <trkpt lat="27.822866" lon="85.992247">
        <ele>2749.33340032</ele>
        <time>2019-10-18T11:41:53.986Z</time>
      </trkpt>
      <trkpt lat="27.822616" lon="85.992178">
        <ele>2738.33360128</ele>
        <time>2019-10-18T11:43:23.986Z</time>
      </trkpt>
      <trkpt lat="27.822309" lon="85.992069">
        <ele>2726.66680064</ele>
        <time>2019-10-18T11:44:13.986Z</time>
      </trkpt>
      <trkpt lat="27.821995" lon="85.992087">
        <ele>2716</ele>
        <time>2019-10-18T11:45:11.986Z</time>
      </trkpt>
      <trkpt lat="27.821913" lon="85.991808">
        <ele>2705.60020096</ele>
        <time>2019-10-18T11:46:11.986Z</time>
      </trkpt>
      <trkpt lat="27.821712" lon="85.991681">
        <ele>2694.06680064</ele>
        <time>2019-10-18T11:47:11.986Z</time>
      </trkpt>
      <trkpt lat="27.821591" lon="85.991547">
        <ele>2682.53340032</ele>
        <time>2019-10-18T11:48:11.986Z</time>
      </trkpt>
      <trkpt lat="27.821526" lon="85.991231">
        <ele>2672</ele>
        <time>2019-10-18T11:49:12.986Z</time>
      </trkpt>
      <trkpt lat="27.821461" lon="85.991035">
        <ele>2662.33340032</ele>
        <time>2019-10-18T11:50:13.986Z</time>
      </trkpt>
      <trkpt lat="27.821416" lon="85.990697">
        <ele>2650.53340032</ele>
        <time>2019-10-18T11:51:11.986Z</time>
      </trkpt>
      <trkpt lat="27.821218" lon="85.990244">
        <ele>2637.53340032</ele>
        <time>2019-10-18T11:52:11.986Z</time>
      </trkpt>
      <trkpt lat="27.821145" lon="85.989934">
        <ele>2624.46680064</ele>
        <time>2019-10-18T11:53:14.986Z</time>
      </trkpt>
      <trkpt lat="27.820808" lon="85.989784">
        <ele>2613.93360128</ele>
        <time>2019-10-18T11:54:14.986Z</time>
      </trkpt>
      <trkpt lat="27.820678" lon="85.989822">
        <ele>2610.60020096</ele>
        <time>2019-10-18T11:57:11.986Z</time>
      </trkpt>
      <trkpt lat="27.820395" lon="85.98994">
        <ele>2597.00020096</ele>
        <time>2019-10-18T11:58:13.986Z</time>
      </trkpt>
      <trkpt lat="27.820158" lon="85.990006">
        <ele>2585.23340032</ele>
        <time>2019-10-18T11:59:14.986Z</time>
      </trkpt>
      <trkpt lat="27.819831" lon="85.990116">
        <ele>2572.53340032</ele>
        <time>2019-10-18T12:00:11.986Z</time>
      </trkpt>
      <trkpt lat="27.81953" lon="85.990036">
        <ele>2561</ele>
        <time>2019-10-18T12:01:11.986Z</time>
      </trkpt>
      <trkpt lat="27.819145" lon="85.990037">
        <ele>2548.33340032</ele>
        <time>2019-10-18T12:02:13.986Z</time>
      </trkpt>
      <trkpt lat="27.819034" lon="85.989765">
        <ele>2539.13360128</ele>
        <time>2019-10-18T12:03:11.986Z</time>
      </trkpt>
      <trkpt lat="27.818851" lon="85.989541">
        <ele>2526.53340032</ele>
        <time>2019-10-18T12:04:11.986Z</time>
      </trkpt>
      <trkpt lat="27.81863" lon="85.989358">
        <ele>2513.53340032</ele>
        <time>2019-10-18T12:05:11.986Z</time>
      </trkpt>
      <trkpt lat="27.818289" lon="85.989154">
        <ele>2500.53340032</ele>
        <time>2019-10-18T12:06:11.986Z</time>
      </trkpt>
      <trkpt lat="27.818093" lon="85.988944">
        <ele>2487.23340032</ele>
        <time>2019-10-18T12:07:14.986Z</time>
      </trkpt>
      <trkpt lat="27.817894" lon="85.988818">
        <ele>2475</ele>
        <time>2019-10-18T12:08:14.986Z</time>
      </trkpt>
      <trkpt lat="27.817627" lon="85.988643">
        <ele>2464.03340032</ele>
        <time>2019-10-18T12:09:16.986Z</time>
      </trkpt>
      <trkpt lat="27.817357" lon="85.988522">
        <ele>2450.00020096</ele>
        <time>2019-10-18T12:10:13.986Z</time>
      </trkpt>
      <trkpt lat="27.817091" lon="85.988554">
        <ele>2440.23340032</ele>
        <time>2019-10-18T12:11:14.986Z</time>
      </trkpt>
      <trkpt lat="27.816774" lon="85.988496">
        <ele>2427.53340032</ele>
        <time>2019-10-18T12:12:11.986Z</time>
      </trkpt>
      <trkpt lat="27.81644" lon="85.988494">
        <ele>2416.53340032</ele>
        <time>2019-10-18T12:13:11.986Z</time>
      </trkpt>
      <trkpt lat="27.81626" lon="85.988446">
        <ele>2406.23340032</ele>
        <time>2019-10-18T12:14:14.986Z</time>
      </trkpt>
      <trkpt lat="27.815877" lon="85.988406">
        <ele>2394.13340032</ele>
        <time>2019-10-18T12:15:15.986Z</time>
      </trkpt>
      <trkpt lat="27.815666" lon="85.988312">
        <ele>2382.23340032</ele>
        <time>2019-10-18T12:16:14.986Z</time>
      </trkpt>
      <trkpt lat="27.815464" lon="85.988248">
        <ele>2370.33340032</ele>
        <time>2019-10-18T12:17:13.986Z</time>
      </trkpt>
      <trkpt lat="27.815437" lon="85.987977">
        <ele>2359.23340032</ele>
        <time>2019-10-18T12:18:14.986Z</time>
      </trkpt>
      <trkpt lat="27.815219" lon="85.987943">
        <ele>2353.53340032</ele>
        <time>2019-10-18T12:19:11.986Z</time>
      </trkpt>
      <trkpt lat="27.81507" lon="85.987739">
        <ele>2342.13353381108</ele>
        <time>2019-10-18T12:20:15.986Z</time>
      </trkpt>
      <trkpt lat="27.814844" lon="85.987499">
        <ele>2331</ele>
        <time>2019-10-18T12:21:15.986Z</time>
      </trkpt>
      <trkpt lat="27.814686" lon="85.987337">
        <ele>2318.23340032</ele>
        <time>2019-10-18T12:22:14.986Z</time>
      </trkpt>
      <trkpt lat="27.814638" lon="85.987052">
        <ele>2312</ele>
        <time>2019-10-18T12:23:16.986Z</time>
      </trkpt>
      <trkpt lat="27.814543" lon="85.986874">
        <ele>2307</ele>
        <time>2019-10-18T12:24:14.986Z</time>
      </trkpt>
      <trkpt lat="27.814228" lon="85.986875">
        <ele>2295.13340032</ele>
        <time>2019-10-18T12:25:15.986Z</time>
      </trkpt>
      <trkpt lat="27.813991" lon="85.986694">
        <ele>2282.40020096</ele>
        <time>2019-10-18T12:26:15.986Z</time>
      </trkpt>
      <trkpt lat="27.814009" lon="85.986396">
        <ele>2275</ele>
        <time>2019-10-18T12:27:11.986Z</time>
      </trkpt>
      <trkpt lat="27.813755" lon="85.986319">
        <ele>2263</ele>
        <time>2019-10-18T12:28:11.986Z</time>
      </trkpt>
      <trkpt lat="27.81371" lon="85.986086">
        <ele>2251.23340032</ele>
        <time>2019-10-18T12:29:14.986Z</time>
      </trkpt>
      <trkpt lat="27.814285" lon="85.985783">
        <ele>2246</ele>
        <time>2019-10-18T12:30:15.986Z</time>
      </trkpt>
      <trkpt lat="27.814638" lon="85.985383">
        <ele>2242</ele>
        <time>2019-10-18T12:31:19.986Z</time>
      </trkpt>
      <trkpt lat="27.815124" lon="85.985092">
        <ele>2235.33340032</ele>
        <time>2019-10-18T12:32:23.986Z</time>
      </trkpt>
      <trkpt lat="27.814854" lon="85.984989">
        <ele>2224.86680064</ele>
        <time>2019-10-18T12:33:12.986Z</time>
      </trkpt>
      <trkpt lat="27.814718" lon="85.984666">
        <ele>2215.23340032</ele>
        <time>2019-10-18T12:34:14.986Z</time>
      </trkpt>
      <trkpt lat="27.814539" lon="85.984496">
        <ele>2202.90020096</ele>
        <time>2019-10-18T12:35:20.986Z</time>
      </trkpt>
      <trkpt lat="27.814474" lon="85.984102">
        <ele>2190.23340032</ele>
        <time>2019-10-18T12:36:14.986Z</time>
      </trkpt>
      <trkpt lat="27.814326" lon="85.983919">
        <ele>2187.96659968</ele>
        <time>2019-10-18T12:37:16.986Z</time>
      </trkpt>
      <trkpt lat="27.814098" lon="85.983791">
        <ele>2194</ele>
        <time>2019-10-18T12:38:13.986Z</time>
      </trkpt>
      <trkpt lat="27.813566" lon="85.983598">
        <ele>2194</ele>
        <time>2019-10-18T12:39:13.986Z</time>
      </trkpt>
      <trkpt lat="27.812763" lon="85.983174">
        <ele>2193.53340032</ele>
        <time>2019-10-18T12:40:41.986Z</time>
      </trkpt>
      <trkpt lat="27.812229" lon="85.982925">
        <ele>2195.93319936</ele>
        <time>2019-10-18T12:41:26.986Z</time>
      </trkpt>
      <trkpt lat="27.811347" lon="85.982497">
        <ele>2182.00020096</ele>
        <time>2019-10-18T12:42:53.986Z</time>
      </trkpt>
      <trkpt lat="27.811169" lon="85.982902">
        <ele>2175.00020096</ele>
        <time>2019-10-18T12:43:53.986Z</time>
      </trkpt>
      <trkpt lat="27.810447" lon="85.982587">
        <ele>2170</ele>
        <time>2019-10-18T12:44:53.986Z</time>
      </trkpt>
      <trkpt lat="27.810082" lon="85.982291">
        <ele>2172</ele>
        <time>2019-10-18T12:45:38.986Z</time>
      </trkpt>
      <trkpt lat="27.810035" lon="85.981925">
        <ele>2176</ele>
        <time>2019-10-18T12:46:23.986Z</time>
      </trkpt>
      <trkpt lat="27.809471" lon="85.981435">
        <ele>2185</ele>
        <time>2019-10-18T12:47:57.986Z</time>
      </trkpt>
      <trkpt lat="27.809182" lon="85.981245">
        <ele>2188.56659968</ele>
        <time>2019-10-18T12:48:42.986Z</time>
      </trkpt>
      <trkpt lat="27.808612" lon="85.981066">
        <ele>2197.99979904</ele>
        <time>2019-10-18T12:49:53.986Z</time>
      </trkpt>
      <trkpt lat="27.808226" lon="85.98077">
        <ele>2203</ele>
        <time>2019-10-18T12:50:53.986Z</time>
      </trkpt>
      <trkpt lat="27.808183" lon="85.980286">
        <ele>2207</ele>
        <time>2019-10-18T12:51:53.986Z</time>
      </trkpt>
      <trkpt lat="27.808285" lon="85.979828">
        <ele>2212</ele>
        <time>2019-10-18T12:53:28.986Z</time>
      </trkpt>
      <trkpt lat="27.808516" lon="85.979418">
        <ele>2217.29979904</ele>
        <time>2019-10-18T12:54:14.986Z</time>
      </trkpt>
      <trkpt lat="27.809052" lon="85.979349">
        <ele>2221.73319936</ele>
        <time>2019-10-18T12:55:15.986Z</time>
      </trkpt>
      <trkpt lat="27.809674" lon="85.979066">
        <ele>2225.86659968</ele>
        <time>2019-10-18T12:56:15.986Z</time>
      </trkpt>
      <trkpt lat="27.810347" lon="85.978763">
        <ele>2230</ele>
        <time>2019-10-18T12:57:14.986Z</time>
      </trkpt>
      <trkpt lat="27.810873" lon="85.978326">
        <ele>2233</ele>
        <time>2019-10-18T12:58:16.986Z</time>
      </trkpt>
      <trkpt lat="27.811387" lon="85.977773">
        <ele>2234.53340032</ele>
        <time>2019-10-18T12:59:11.986Z</time>
      </trkpt>
      <trkpt lat="27.811909" lon="85.977165">
        <ele>2232</ele>
        <time>2019-10-18T13:00:14.986Z</time>
      </trkpt>
      <trkpt lat="27.812242" lon="85.976491">
        <ele>2236.96659968</ele>
        <time>2019-10-18T13:01:16.986Z</time>
      </trkpt>
      <trkpt lat="27.812587" lon="85.975949">
        <ele>2241</ele>
        <time>2019-10-18T13:02:13.986Z</time>
      </trkpt>
      <trkpt lat="27.812722" lon="85.975269">
        <ele>2242</ele>
        <time>2019-10-18T13:03:15.986Z</time>
      </trkpt>
      <trkpt lat="27.813244" lon="85.974618">
        <ele>2229.63376643637</ele>
        <time>2019-10-18T13:05:20.986Z</time>
      </trkpt>
      <trkpt lat="27.812992" lon="85.974282">
        <ele>2227</ele>
        <time>2019-10-18T13:06:20.986Z</time>
      </trkpt>
      <trkpt lat="27.813117" lon="85.974266">
        <ele>2222</ele>
        <time>2019-10-18T13:07:53.986Z</time>
      </trkpt>
      <trkpt lat="27.812747" lon="85.973976">
        <ele>2223</ele>
        <time>2019-10-18T13:08:53.986Z</time>
      </trkpt>
      <trkpt lat="27.812174" lon="85.97373">
        <ele>2227.66659968</ele>
        <time>2019-10-18T13:09:53.986Z</time>
      </trkpt>
      <trkpt lat="27.811653" lon="85.973593">
        <ele>2231.16659968</ele>
        <time>2019-10-18T13:10:38.986Z</time>
      </trkpt>
      <trkpt lat="27.81129" lon="85.973512">
        <ele>2234</ele>
        <time>2019-10-18T13:11:23.986Z</time>
      </trkpt>
      <trkpt lat="27.810841" lon="85.973354">
        <ele>2238.86659968</ele>
        <time>2019-10-18T13:12:15.986Z</time>
      </trkpt>
      <trkpt lat="27.810313" lon="85.973186">
        <ele>2241.66659968</ele>
        <time>2019-10-18T13:13:13.986Z</time>
      </trkpt>
      <trkpt lat="27.809604" lon="85.972849">
        <ele>2241</ele>
        <time>2019-10-18T13:14:14.986Z</time>
      </trkpt>
      <trkpt lat="27.808917" lon="85.972609">
        <ele>2238.23340032</ele>
        <time>2019-10-18T13:15:14.986Z</time>
      </trkpt>
      <trkpt lat="27.80829" lon="85.972163">
        <ele>2231.53340032</ele>
        <time>2019-10-18T13:16:11.986Z</time>
      </trkpt>
      <trkpt lat="27.80807" lon="85.972066">
        <ele>2228</ele>
        <time>2019-10-18T13:17:14.986Z</time>
      </trkpt>
      <trkpt lat="27.80774" lon="85.971782">
        <ele>2213.86680064</ele>
        <time>2019-10-18T13:18:12.986Z</time>
      </trkpt>
      <trkpt lat="27.807518" lon="85.971705">
        <ele>2203.43340032</ele>
        <time>2019-10-18T13:19:12.986Z</time>
      </trkpt>
      <trkpt lat="27.807552" lon="85.971423">
        <ele>2190.33340032</ele>
        <time>2019-10-18T13:20:13.986Z</time>
      </trkpt>
      <trkpt lat="27.807606" lon="85.971143">
        <ele>2179.13340032</ele>
        <time>2019-10-18T13:21:15.986Z</time>
      </trkpt>
      <trkpt lat="27.807678" lon="85.970829">
        <ele>2167.13340032</ele>
        <time>2019-10-18T13:22:15.986Z</time>
      </trkpt>
      <trkpt lat="27.807619" lon="85.970728">
        <ele>2160</ele>
        <time>2019-10-18T13:23:14.986Z</time>
      </trkpt>
      <trkpt lat="27.807533" lon="85.970662">
        <ele>2157.70020096</ele>
        <time>2019-10-18T13:25:14.986Z</time>
      </trkpt>
      <trkpt lat="27.80778" lon="85.970381">
        <ele>2148.53340032</ele>
        <time>2019-10-18T13:26:11.986Z</time>
      </trkpt>
      <trkpt lat="27.80792" lon="85.970197">
        <ele>2136.23340032</ele>
        <time>2019-10-18T13:27:14.986Z</time>
      </trkpt>
      <trkpt lat="27.808011" lon="85.970098">
        <ele>2128.13340032</ele>
        <time>2019-10-18T13:28:15.986Z</time>
      </trkpt>
      <trkpt lat="27.808124" lon="85.969916">
        <ele>2116.26680064</ele>
        <time>2019-10-18T13:29:15.986Z</time>
      </trkpt>
      <trkpt lat="27.808186" lon="85.969771">
        <ele>2106.13340032</ele>
        <time>2019-10-18T13:30:15.986Z</time>
      </trkpt>
      <trkpt lat="27.808151" lon="85.969501">
        <ele>2095.23340032</ele>
        <time>2019-10-18T13:31:14.986Z</time>
      </trkpt>
      <trkpt lat="27.807811" lon="85.969373">
        <ele>2081.70020096</ele>
        <time>2019-10-18T13:32:14.986Z</time>
      </trkpt>
      <trkpt lat="27.807608" lon="85.969086">
        <ele>2074.33340032</ele>
        <time>2019-10-18T13:33:13.986Z</time>
      </trkpt>
      <trkpt lat="27.807406" lon="85.96893">
        <ele>2060.46680064</ele>
        <time>2019-10-18T13:34:14.986Z</time>
      </trkpt>
      <trkpt lat="27.807306" lon="85.968448">
        <ele>2050.53340032</ele>
        <time>2019-10-18T13:35:11.986Z</time>
      </trkpt>
      <trkpt lat="27.807118" lon="85.968185">
        <ele>2028</ele>
        <time>2019-10-18T13:37:16.986Z</time>
      </trkpt>
      <trkpt lat="27.806617" lon="85.968232">
        <ele>2019.46680064</ele>
        <time>2019-10-18T13:38:14.986Z</time>
      </trkpt>
      <trkpt lat="27.806737" lon="85.968085">
        <ele>2014</ele>
        <time>2019-10-18T13:39:12.986Z</time>
      </trkpt>
      <trkpt lat="27.806376" lon="85.967798">
        <ele>1998.53340032</ele>
        <time>2019-10-18T13:41:11.986Z</time>
      </trkpt>
      <trkpt lat="27.806035" lon="85.967508">
        <ele>1984.06680064</ele>
        <time>2019-10-18T13:42:11.986Z</time>
      </trkpt>
      <trkpt lat="27.805663" lon="85.967428">
        <ele>1971</ele>
        <time>2019-10-18T13:43:14.986Z</time>
      </trkpt>
      <trkpt lat="27.805434" lon="85.96728">
        <ele>1958.13340032</ele>
        <time>2019-10-18T13:44:15.986Z</time>
      </trkpt>
      <trkpt lat="27.805155" lon="85.967144">
        <ele>1946.23340032</ele>
        <time>2019-10-18T13:45:14.986Z</time>
      </trkpt>
      <trkpt lat="27.804874" lon="85.966762">
        <ele>1937.13340032</ele>
        <time>2019-10-18T13:46:15.986Z</time>
      </trkpt>
      <trkpt lat="27.804758" lon="85.966438">
        <ele>1928.46680064</ele>
        <time>2019-10-18T13:47:14.986Z</time>
      </trkpt>
      <trkpt lat="27.804635" lon="85.966034">
        <ele>1918.13340032</ele>
        <time>2019-10-18T13:48:15.986Z</time>
      </trkpt>
      <trkpt lat="27.804575" lon="85.96562">
        <ele>1910</ele>
        <time>2019-10-18T13:49:13.986Z</time>
      </trkpt>
      <trkpt lat="27.80434" lon="85.96532">
        <ele>1904</ele>
        <time>2019-10-18T13:50:16.986Z</time>
      </trkpt>
      <trkpt lat="27.804233" lon="85.964731">
        <ele>1897.23340032</ele>
        <time>2019-10-18T13:51:14.986Z</time>
      </trkpt>
      <trkpt lat="27.804006" lon="85.964568">
        <ele>1885.23340032</ele>
        <time>2019-10-18T13:52:14.986Z</time>
      </trkpt>
      <trkpt lat="27.80387" lon="85.964235">
        <ele>1875.53340032</ele>
        <time>2019-10-18T13:53:11.986Z</time>
      </trkpt>
      <trkpt lat="27.803897" lon="85.963908">
        <ele>1869</ele>
        <time>2019-10-18T13:54:15.986Z</time>
      </trkpt>
      <trkpt lat="27.804136" lon="85.963951">
        <ele>1866</ele>
        <time>2019-10-18T13:55:15.986Z</time>
      </trkpt>
      <trkpt lat="27.804651" lon="85.964131">
        <ele>1863</ele>
        <time>2019-10-18T13:56:15.986Z</time>
      </trkpt>
      <trkpt lat="27.804714" lon="85.964032">
        <ele>1865</ele>
        <time>2019-10-18T13:57:14.986Z</time>
      </trkpt>
      <trkpt lat="27.804587" lon="85.964028">
        <ele>1865.76659968</ele>
        <time>2019-10-18T13:58:14.986Z</time>
      </trkpt>
      <trkpt lat="27.812348" lon="85.766942">
        <ele>783</ele>
        <time>2019-10-23T06:04:57.917Z</time>
      </trkpt>
      <trkpt lat="27.812273" lon="85.766556">
        <ele>783</ele>
        <time>2019-10-23T06:06:45.917Z</time>
      </trkpt>
      <trkpt lat="27.812627" lon="85.766473">
        <ele>788</ele>
        <time>2019-10-23T06:07:47.917Z</time>
      </trkpt>
      <trkpt lat="27.813247" lon="85.766868">
        <ele>789.1187008</ele>
        <time>2019-10-23T06:08:47.917Z</time>
      </trkpt>
      <trkpt lat="27.813892" lon="85.766615">
        <ele>793.4187008</ele>
        <time>2019-10-23T06:09:50.917Z</time>
      </trkpt>
      <trkpt lat="27.814201" lon="85.76613">
        <ele>796</ele>
        <time>2019-10-23T06:10:50.917Z</time>
      </trkpt>
      <trkpt lat="27.813988" lon="85.765889">
        <ele>804.1187008</ele>
        <time>2019-10-23T06:11:57.917Z</time>
      </trkpt>
      <trkpt lat="27.814172" lon="85.765781">
        <ele>812.4187008</ele>
        <time>2019-10-23T06:13:00.917Z</time>
      </trkpt>
      <trkpt lat="27.814196" lon="85.765603">
        <ele>821.2374016</ele>
        <time>2019-10-23T06:14:12.917Z</time>
      </trkpt>
      <trkpt lat="27.814188" lon="85.765436">
        <ele>830.0187008</ele>
        <time>2019-10-23T06:15:26.917Z</time>
      </trkpt>
      <trkpt lat="27.81409" lon="85.765211">
        <ele>839.9187008</ele>
        <time>2019-10-23T06:16:55.917Z</time>
      </trkpt>
      <trkpt lat="27.813723" lon="85.765159">
        <ele>852.612635221202</ele>
        <time>2019-10-23T06:18:42.917Z</time>
      </trkpt>
      <trkpt lat="27.813753" lon="85.76509">
        <ele>859</ele>
        <time>2019-10-23T06:19:27.917Z</time>
      </trkpt>
      <trkpt lat="27.813636" lon="85.764994">
        <ele>864.2374016</ele>
        <time>2019-10-23T06:20:12.917Z</time>
      </trkpt>
      <trkpt lat="27.813466" lon="85.764909">
        <ele>869.8187008</ele>
        <time>2019-10-23T06:21:04.917Z</time>
      </trkpt>
      <trkpt lat="27.813319" lon="85.764816">
        <ele>876.6374016</ele>
        <time>2019-10-23T06:22:04.917Z</time>
      </trkpt>
      <trkpt lat="27.813257" lon="85.76472">
        <ele>883.7187008</ele>
        <time>2019-10-23T06:23:03.917Z</time>
      </trkpt>
      <trkpt lat="27.813126" lon="85.76465">
        <ele>891.2374016</ele>
        <time>2019-10-23T06:24:02.917Z</time>
      </trkpt>
      <trkpt lat="27.813093" lon="85.764414">
        <ele>899.4561024</ele>
        <time>2019-10-23T06:25:04.917Z</time>
      </trkpt>
      <trkpt lat="27.812963" lon="85.764317">
        <ele>905.7187008</ele>
        <time>2019-10-23T06:26:03.917Z</time>
      </trkpt>
      <trkpt lat="27.813003" lon="85.764076">
        <ele>914</ele>
        <time>2019-10-23T06:27:03.917Z</time>
      </trkpt>
      <trkpt lat="27.812911" lon="85.763675">
        <ele>919</ele>
        <time>2019-10-23T06:28:03.917Z</time>
      </trkpt>
      <trkpt lat="27.813115" lon="85.763366">
        <ele>924.7187008</ele>
        <time>2019-10-23T06:29:03.917Z</time>
      </trkpt>
      <trkpt lat="27.813118" lon="85.762949">
        <ele>931.8187008</ele>
        <time>2019-10-23T06:30:04.917Z</time>
      </trkpt>
      <trkpt lat="27.812888" lon="85.763206">
        <ele>937.8187008</ele>
        <time>2019-10-23T06:31:04.917Z</time>
      </trkpt>
      <trkpt lat="27.812638" lon="85.763072">
        <ele>947.7187008</ele>
        <time>2019-10-23T06:33:03.917Z</time>
      </trkpt>
      <trkpt lat="27.812599" lon="85.76284">
        <ele>954.7187008</ele>
        <time>2019-10-23T06:34:03.917Z</time>
      </trkpt>
      <trkpt lat="27.812359" lon="85.762926">
        <ele>969.8561024</ele>
        <time>2019-10-23T06:36:02.917Z</time>
      </trkpt>
      <trkpt lat="27.812254" lon="85.762861">
        <ele>976</ele>
        <time>2019-10-23T06:37:02.917Z</time>
      </trkpt>
      <trkpt lat="27.812311" lon="85.762753">
        <ele>982</ele>
        <time>2019-10-23T06:38:03.917Z</time>
      </trkpt>
      <trkpt lat="27.812144" lon="85.762668">
        <ele>988.2374016</ele>
        <time>2019-10-23T06:39:02.917Z</time>
      </trkpt>
      <trkpt lat="27.811873" lon="85.762672">
        <ele>997</ele>
        <time>2019-10-23T06:41:03.917Z</time>
      </trkpt>
      <trkpt lat="27.811794" lon="85.762596">
        <ele>1004</ele>
        <time>2019-10-23T06:42:02.917Z</time>
      </trkpt>
      <trkpt lat="27.811701" lon="85.762459">
        <ele>1011</ele>
        <time>2019-10-23T06:43:03.917Z</time>
      </trkpt>
      <trkpt lat="27.811546" lon="85.762302">
        <ele>1025</ele>
        <time>2019-10-23T06:45:05.917Z</time>
      </trkpt>
      <trkpt lat="27.811403" lon="85.76219">
        <ele>1031.6187008</ele>
        <time>2019-10-23T06:46:02.917Z</time>
      </trkpt>
      <trkpt lat="27.811297" lon="85.762062">
        <ele>1038.6187008</ele>
        <time>2019-10-23T06:47:02.917Z</time>
      </trkpt>
      <trkpt lat="27.811166" lon="85.761982">
        <ele>1045</ele>
        <time>2019-10-23T06:48:01.917Z</time>
      </trkpt>
      <trkpt lat="27.810941" lon="85.761895">
        <ele>1051.7187008</ele>
        <time>2019-10-23T06:49:03.917Z</time>
      </trkpt>
      <trkpt lat="27.810877" lon="85.761782">
        <ele>1060.4374016</ele>
        <time>2019-10-23T06:50:03.917Z</time>
      </trkpt>
      <trkpt lat="27.810668" lon="85.761772">
        <ele>1065.7187008</ele>
        <time>2019-10-23T06:51:03.917Z</time>
      </trkpt>
      <trkpt lat="27.810662" lon="85.761653">
        <ele>1072</ele>
        <time>2019-10-23T06:52:03.917Z</time>
      </trkpt>
      <trkpt lat="27.810564" lon="85.761598">
        <ele>1076.6187008</ele>
        <time>2019-10-23T06:53:02.917Z</time>
      </trkpt>
      <trkpt lat="27.810502" lon="85.761367">
        <ele>1083.6374016</ele>
        <time>2019-10-23T06:54:04.917Z</time>
      </trkpt>
      <trkpt lat="27.810546" lon="85.76104">
        <ele>1096.4374016</ele>
        <time>2019-10-23T06:56:03.917Z</time>
      </trkpt>
      <trkpt lat="27.810396" lon="85.761035">
        <ele>1108</ele>
        <time>2019-10-23T06:58:03.917Z</time>
      </trkpt>
      <trkpt lat="27.810259" lon="85.760889">
        <ele>1116.4374016</ele>
        <time>2019-10-23T06:59:03.917Z</time>
      </trkpt>
      <trkpt lat="27.81021" lon="85.760725">
        <ele>1121</ele>
        <time>2019-10-23T07:00:02.917Z</time>
      </trkpt>
      <trkpt lat="27.810074" lon="85.760474">
        <ele>1129.8187008</ele>
        <time>2019-10-23T07:02:04.917Z</time>
      </trkpt>
      <trkpt lat="27.810026" lon="85.760288">
        <ele>1143.6187008</ele>
        <time>2019-10-23T07:04:02.917Z</time>
      </trkpt>
      <trkpt lat="27.809906" lon="85.7601">
        <ele>1151</ele>
        <time>2019-10-23T07:05:04.917Z</time>
      </trkpt>
      <trkpt lat="27.809774" lon="85.759903">
        <ele>1156.8187008</ele>
        <time>2019-10-23T07:06:04.917Z</time>
      </trkpt>
      <trkpt lat="27.809638" lon="85.759814">
        <ele>1163</ele>
        <time>2019-10-23T07:07:03.917Z</time>
      </trkpt>
      <trkpt lat="27.809502" lon="85.759739">
        <ele>1168.8187008</ele>
        <time>2019-10-23T07:08:04.917Z</time>
      </trkpt>
      <trkpt lat="27.809558" lon="85.759612">
        <ele>1174.7187008</ele>
        <time>2019-10-23T07:09:03.917Z</time>
      </trkpt>
      <trkpt lat="27.809567" lon="85.759469">
        <ele>1181.71944802811</ele>
        <time>2019-10-23T07:10:03.917Z</time>
      </trkpt>
      <trkpt lat="27.809561" lon="85.759239">
        <ele>1191.71941998978</ele>
        <time>2019-10-23T07:12:03.917Z</time>
      </trkpt>
      <trkpt lat="27.809609" lon="85.759127">
        <ele>1197.81952005781</ele>
        <time>2019-10-23T07:13:04.917Z</time>
      </trkpt>
      <trkpt lat="27.809562" lon="85.758934">
        <ele>1202</ele>
        <time>2019-10-23T07:14:04.917Z</time>
      </trkpt>
      <trkpt lat="27.80972" lon="85.758747">
        <ele>1208.81952005781</ele>
        <time>2019-10-23T07:15:04.917Z</time>
      </trkpt>
      <trkpt lat="27.809551" lon="85.758694">
        <ele>1214.81933927417</ele>
        <time>2019-10-23T07:16:04.917Z</time>
      </trkpt>
      <trkpt lat="27.809413" lon="85.758512">
        <ele>1219.81952005781</ele>
        <time>2019-10-23T07:17:04.917Z</time>
      </trkpt>
      <trkpt lat="27.809241" lon="85.758322">
        <ele>1225.81952005781</ele>
        <time>2019-10-23T07:18:04.917Z</time>
      </trkpt>
      <trkpt lat="27.809097" lon="85.7582">
        <ele>1231</ele>
        <time>2019-10-23T07:19:03.917Z</time>
      </trkpt>
      <trkpt lat="27.809247" lon="85.758074">
        <ele>1237.81952005781</ele>
        <time>2019-10-23T07:20:04.917Z</time>
      </trkpt>
      <trkpt lat="27.809117" lon="85.757861">
        <ele>1242</ele>
        <time>2019-10-23T07:21:04.917Z</time>
      </trkpt>
      <trkpt lat="27.80912" lon="85.75768">
        <ele>1248</ele>
        <time>2019-10-23T07:22:05.917Z</time>
      </trkpt>
      <trkpt lat="27.809048" lon="85.757465">
        <ele>1254.83924025169</ele>
        <time>2019-10-23T07:23:05.917Z</time>
      </trkpt>
      <trkpt lat="27.80888" lon="85.757241">
        <ele>1260.91962012585</ele>
        <time>2019-10-23T07:24:05.917Z</time>
      </trkpt>
      <trkpt lat="27.808844" lon="85.756981">
        <ele>1265.91962012585</ele>
        <time>2019-10-23T07:25:05.917Z</time>
      </trkpt>
      <trkpt lat="27.808731" lon="85.756583">
        <ele>1270</ele>
        <time>2019-10-23T07:26:04.917Z</time>
      </trkpt>
      <trkpt lat="27.808732" lon="85.756386">
        <ele>1276.81952005781</ele>
        <time>2019-10-23T07:27:04.917Z</time>
      </trkpt>
      <trkpt lat="27.808625" lon="85.756226">
        <ele>1282.63867854834</ele>
        <time>2019-10-23T07:28:04.917Z</time>
      </trkpt>
      <trkpt lat="27.808514" lon="85.756092">
        <ele>1288</ele>
        <time>2019-10-23T07:29:05.917Z</time>
      </trkpt>
      <trkpt lat="27.808386" lon="85.755835">
        <ele>1294</ele>
        <time>2019-10-23T07:30:04.917Z</time>
      </trkpt>
      <trkpt lat="27.808395" lon="85.755594">
        <ele>1298</ele>
        <time>2019-10-23T07:31:04.917Z</time>
      </trkpt>
      <trkpt lat="27.808368" lon="85.755334">
        <ele>1305.8187008</ele>
        <time>2019-10-23T07:32:04.917Z</time>
      </trkpt>
      <trkpt lat="27.808323" lon="85.754912">
        <ele>1310.7187008</ele>
        <time>2019-10-23T07:33:03.917Z</time>
      </trkpt>
      <trkpt lat="27.808409" lon="85.754686">
        <ele>1317.7187008</ele>
        <time>2019-10-23T07:34:03.917Z</time>
      </trkpt>
      <trkpt lat="27.808461" lon="85.754369">
        <ele>1324.6374016</ele>
        <time>2019-10-23T07:35:04.917Z</time>
      </trkpt>
      <trkpt lat="27.808403" lon="85.754139">
        <ele>1329.2374016</ele>
        <time>2019-10-23T07:36:07.917Z</time>
      </trkpt>
      <trkpt lat="27.808504" lon="85.753846">
        <ele>1335.6374016</ele>
        <time>2019-10-23T07:37:04.917Z</time>
      </trkpt>
      <trkpt lat="27.808426" lon="85.753734">
        <ele>1339.0374016</ele>
        <time>2019-10-23T07:40:01.917Z</time>
      </trkpt>
      <trkpt lat="27.808276" lon="85.753497">
        <ele>1342.8187008</ele>
        <time>2019-10-23T07:43:04.917Z</time>
      </trkpt>
      <trkpt lat="27.808275" lon="85.753343">
        <ele>1356.0187008</ele>
        <time>2019-10-23T07:45:06.917Z</time>
      </trkpt>
      <trkpt lat="27.8082" lon="85.753254">
        <ele>1362.8187008</ele>
        <time>2019-10-23T07:46:04.917Z</time>
      </trkpt>
      <trkpt lat="27.808261" lon="85.753138">
        <ele>1369.4374016</ele>
        <time>2019-10-23T07:47:03.917Z</time>
      </trkpt>
      <trkpt lat="27.808156" lon="85.753027">
        <ele>1378.8374016</ele>
        <time>2019-10-23T07:49:05.917Z</time>
      </trkpt>
      <trkpt lat="27.808016" lon="85.752975">
        <ele>1385.2374016</ele>
        <time>2019-10-23T07:50:02.917Z</time>
      </trkpt>
      <trkpt lat="27.808096" lon="85.752819">
        <ele>1391.8187008</ele>
        <time>2019-10-23T07:51:04.917Z</time>
      </trkpt>
      <trkpt lat="27.807907" lon="85.752559">
        <ele>1409.8187008</ele>
        <time>2019-10-23T07:54:04.917Z</time>
      </trkpt>
      <trkpt lat="27.807837" lon="85.752472">
        <ele>1416.6187008</ele>
        <time>2019-10-23T07:55:02.917Z</time>
      </trkpt>
      <trkpt lat="27.807871" lon="85.752073">
        <ele>1423.7187008</ele>
        <time>2019-10-23T08:01:03.917Z</time>
      </trkpt>
      <trkpt lat="27.80768" lon="85.75184">
        <ele>1436</ele>
        <time>2019-10-23T08:03:04.917Z</time>
      </trkpt>
      <trkpt lat="27.807579" lon="85.751538">
        <ele>1443.7187008</ele>
        <time>2019-10-23T08:04:03.917Z</time>
      </trkpt>
      <trkpt lat="27.807602" lon="85.751236">
        <ele>1449.8187008</ele>
        <time>2019-10-23T08:05:04.917Z</time>
      </trkpt>
      <trkpt lat="27.80758" lon="85.751067">
        <ele>1455.7187008</ele>
        <time>2019-10-23T08:06:03.917Z</time>
      </trkpt>
      <trkpt lat="27.807492" lon="85.750913">
        <ele>1462.4374016</ele>
        <time>2019-10-23T08:07:03.917Z</time>
      </trkpt>
      <trkpt lat="27.807596" lon="85.750605">
        <ele>1463.2812992</ele>
        <time>2019-10-23T08:08:03.917Z</time>
      </trkpt>
      <trkpt lat="27.807448" lon="85.75036">
        <ele>1468.2374016</ele>
        <time>2019-10-23T08:09:02.917Z</time>
      </trkpt>
      <trkpt lat="27.80731" lon="85.750327">
        <ele>1475.2374016</ele>
        <time>2019-10-23T08:10:02.917Z</time>
      </trkpt>
      <trkpt lat="27.807126" lon="85.750289">
        <ele>1481.6187008</ele>
        <time>2019-10-23T08:11:02.917Z</time>
      </trkpt>
      <trkpt lat="27.80698" lon="85.750129">
        <ele>1487.8374016</ele>
        <time>2019-10-23T08:12:05.917Z</time>
      </trkpt>
      <trkpt lat="27.80663" lon="85.750034">
        <ele>1493</ele>
        <time>2019-10-23T08:13:02.917Z</time>
      </trkpt>
      <trkpt lat="27.806703" lon="85.749762">
        <ele>1491.1438976</ele>
        <time>2019-10-23T08:14:02.917Z</time>
      </trkpt>
      <trkpt lat="27.807052" lon="85.749395">
        <ele>1491.2374016</ele>
        <time>2019-10-23T08:15:02.917Z</time>
      </trkpt>
      <trkpt lat="27.807503" lon="85.749079">
        <ele>1493.1812992</ele>
        <time>2019-10-23T08:16:04.917Z</time>
      </trkpt>
      <trkpt lat="27.807764" lon="85.748893">
        <ele>1500.1187008</ele>
        <time>2019-10-23T08:17:07.917Z</time>
      </trkpt>
      <trkpt lat="27.807871" lon="85.748697">
        <ele>1507.7187008</ele>
        <time>2019-10-23T08:18:03.917Z</time>
      </trkpt>
      <trkpt lat="27.808038" lon="85.74862">
        <ele>1514</ele>
        <time>2019-10-23T08:19:05.917Z</time>
      </trkpt>
      <trkpt lat="27.808192" lon="85.74839">
        <ele>1521</ele>
        <time>2019-10-23T08:20:06.917Z</time>
      </trkpt>
      <trkpt lat="27.808472" lon="85.748222">
        <ele>1533.8187008</ele>
        <time>2019-10-23T08:22:04.917Z</time>
      </trkpt>
      <trkpt lat="27.808705" lon="85.74811">
        <ele>1536</ele>
        <time>2019-10-23T08:23:03.917Z</time>
      </trkpt>
      <trkpt lat="27.809106" lon="85.748025">
        <ele>1542</ele>
        <time>2019-10-23T08:24:03.917Z</time>
      </trkpt>
      <trkpt lat="27.809349" lon="85.747474">
        <ele>1546.9187008</ele>
        <time>2019-10-23T08:25:05.917Z</time>
      </trkpt>
      <trkpt lat="27.809472" lon="85.746985">
        <ele>1552</ele>
        <time>2019-10-23T08:26:02.917Z</time>
      </trkpt>
      <trkpt lat="27.809891" lon="85.74673">
        <ele>1555.8187008</ele>
        <time>2019-10-23T08:27:04.917Z</time>
      </trkpt>
      <trkpt lat="27.809925" lon="85.74655">
        <ele>1564</ele>
        <time>2019-10-23T08:28:02.917Z</time>
      </trkpt>
      <trkpt lat="27.810042" lon="85.746252">
        <ele>1569</ele>
        <time>2019-10-23T08:29:04.917Z</time>
      </trkpt>
      <trkpt lat="27.810148" lon="85.74597">
        <ele>1576</ele>
        <time>2019-10-23T08:30:02.917Z</time>
      </trkpt>
      <trkpt lat="27.810278" lon="85.74558">
        <ele>1581</ele>
        <time>2019-10-23T08:31:03.917Z</time>
      </trkpt>
      <trkpt lat="27.810526" lon="85.74525">
        <ele>1584.8187008</ele>
        <time>2019-10-23T08:32:04.917Z</time>
      </trkpt>
      <trkpt lat="27.81074" lon="85.745207">
        <ele>1591.8187008</ele>
        <time>2019-10-23T08:33:04.917Z</time>
      </trkpt>
      <trkpt lat="27.810904" lon="85.744959">
        <ele>1597</ele>
        <time>2019-10-23T08:34:03.917Z</time>
      </trkpt>
      <trkpt lat="27.811039" lon="85.744674">
        <ele>1602.6187008</ele>
        <time>2019-10-23T08:35:02.917Z</time>
      </trkpt>
      <trkpt lat="27.811068" lon="85.744557">
        <ele>1608.7187008</ele>
        <time>2019-10-23T08:36:03.917Z</time>
      </trkpt>
      <trkpt lat="27.811174" lon="85.744534">
        <ele>1611</ele>
        <time>2019-10-23T08:41:01.917Z</time>
      </trkpt>
      <trkpt lat="27.811048" lon="85.744549">
        <ele>1609.9625984</ele>
        <time>2019-10-23T08:43:01.917Z</time>
      </trkpt>
      <trkpt lat="27.811095" lon="85.7447">
        <ele>1608.1812992</ele>
        <time>2019-10-23T08:45:04.917Z</time>
      </trkpt>
      <trkpt lat="27.810995" lon="85.744687">
        <ele>1607.1812992</ele>
        <time>2019-10-23T08:46:04.917Z</time>
      </trkpt>
      <trkpt lat="27.810753" lon="85.745131">
        <ele>1597.5625984</ele>
        <time>2019-10-23T08:47:03.917Z</time>
      </trkpt>
      <trkpt lat="27.810988" lon="85.744829">
        <ele>1600.2374016</ele>
        <time>2019-10-23T08:48:02.917Z</time>
      </trkpt>
      <trkpt lat="27.811095" lon="85.744587">
        <ele>1609</ele>
        <time>2019-10-23T08:49:02.917Z</time>
      </trkpt>
      <trkpt lat="27.81134" lon="85.744213">
        <ele>1618</ele>
        <time>2019-10-23T08:52:03.917Z</time>
      </trkpt>
      <trkpt lat="27.811556" lon="85.743978">
        <ele>1623.4374016</ele>
        <time>2019-10-23T08:53:03.917Z</time>
      </trkpt>
      <trkpt lat="27.811805" lon="85.743983">
        <ele>1629</ele>
        <time>2019-10-23T08:54:04.917Z</time>
      </trkpt>
      <trkpt lat="27.81199" lon="85.743761">
        <ele>1634.4374016</ele>
        <time>2019-10-23T08:55:03.917Z</time>
      </trkpt>
      <trkpt lat="27.812198" lon="85.743768">
        <ele>1640.0374016</ele>
        <time>2019-10-23T08:56:01.917Z</time>
      </trkpt>
      <trkpt lat="27.812368" lon="85.743597">
        <ele>1646.1812992</ele>
        <time>2019-10-23T08:57:04.917Z</time>
      </trkpt>
      <trkpt lat="27.812604" lon="85.743384">
        <ele>1653.8187008</ele>
        <time>2019-10-23T08:58:04.917Z</time>
      </trkpt>
      <trkpt lat="27.812787" lon="85.743318">
        <ele>1659.4374016</ele>
        <time>2019-10-23T08:59:03.917Z</time>
      </trkpt>
      <trkpt lat="27.812935" lon="85.743287">
        <ele>1666.8187008</ele>
        <time>2019-10-23T09:00:04.917Z</time>
      </trkpt>
      <trkpt lat="27.813145" lon="85.743222">
        <ele>1672.7187008</ele>
        <time>2019-10-23T09:01:03.917Z</time>
      </trkpt>
      <trkpt lat="27.813312" lon="85.743038">
        <ele>1679</ele>
        <time>2019-10-23T09:02:02.917Z</time>
      </trkpt>
      <trkpt lat="27.813498" lon="85.742963">
        <ele>1685.2374016</ele>
        <time>2019-10-23T09:03:02.917Z</time>
      </trkpt>
      <trkpt lat="27.813474" lon="85.742777">
        <ele>1691.4374016</ele>
        <time>2019-10-23T09:04:03.917Z</time>
      </trkpt>
      <trkpt lat="27.813601" lon="85.742742">
        <ele>1704.2374016</ele>
        <time>2019-10-23T09:06:02.917Z</time>
      </trkpt>
      <trkpt lat="27.813734" lon="85.742439">
        <ele>1708.2812992</ele>
        <time>2019-10-23T09:07:03.917Z</time>
      </trkpt>
      <trkpt lat="27.814016" lon="85.742175">
        <ele>1713.4374016</ele>
        <time>2019-10-23T09:08:03.917Z</time>
      </trkpt>
      <trkpt lat="27.81411" lon="85.742053">
        <ele>1720</ele>
        <time>2019-10-23T09:09:03.917Z</time>
      </trkpt>
      <trkpt lat="27.81421" lon="85.741859">
        <ele>1724.7187008</ele>
        <time>2019-10-23T09:10:03.917Z</time>
      </trkpt>
      <trkpt lat="27.814618" lon="85.741632">
        <ele>1726.5625984</ele>
        <time>2019-10-23T09:11:03.917Z</time>
      </trkpt>
      <trkpt lat="27.814896" lon="85.741274">
        <ele>1726</ele>
        <time>2019-10-23T09:12:03.917Z</time>
      </trkpt>
      <trkpt lat="27.815278" lon="85.741313">
        <ele>1730</ele>
        <time>2019-10-23T09:13:03.917Z</time>
      </trkpt>
      <trkpt lat="27.815705" lon="85.741303">
        <ele>1735.8187008</ele>
        <time>2019-10-23T09:14:04.917Z</time>
      </trkpt>
      <trkpt lat="27.816057" lon="85.741104">
        <ele>1742</ele>
        <time>2019-10-23T09:15:02.917Z</time>
      </trkpt>
      <trkpt lat="27.816443" lon="85.740999">
        <ele>1745.6187008</ele>
        <time>2019-10-23T09:16:02.917Z</time>
      </trkpt>
      <trkpt lat="27.816656" lon="85.741018">
        <ele>1753.7187008</ele>
        <time>2019-10-23T09:17:03.917Z</time>
      </trkpt>
      <trkpt lat="27.816716" lon="85.740593">
        <ele>1759</ele>
        <time>2019-10-23T09:18:05.917Z</time>
      </trkpt>
      <trkpt lat="27.816784" lon="85.740134">
        <ele>1760.2812992</ele>
        <time>2019-10-23T09:19:03.917Z</time>
      </trkpt>
      <trkpt lat="27.817173" lon="85.739732">
        <ele>1760</ele>
        <time>2019-10-23T09:20:06.917Z</time>
      </trkpt>
      <trkpt lat="27.817379" lon="85.739449">
        <ele>1760.0374016</ele>
        <time>2019-10-23T09:21:06.917Z</time>
      </trkpt>
      <trkpt lat="27.817786" lon="85.739464">
        <ele>1759</ele>
        <time>2019-10-23T09:22:03.917Z</time>
      </trkpt>
      <trkpt lat="27.818352" lon="85.739323">
        <ele>1759</ele>
        <time>2019-10-23T09:23:04.917Z</time>
      </trkpt>
      <trkpt lat="27.818638" lon="85.739105">
        <ele>1761.6187008</ele>
        <time>2019-10-23T09:24:02.917Z</time>
      </trkpt>
      <trkpt lat="27.819089" lon="85.738981">
        <ele>1767.7187008</ele>
        <time>2019-10-23T09:25:03.917Z</time>
      </trkpt>
      <trkpt lat="27.81922" lon="85.73886">
        <ele>1773.6187008</ele>
        <time>2019-10-23T09:26:02.917Z</time>
      </trkpt>
      <trkpt lat="27.819599" lon="85.738743">
        <ele>1774</ele>
        <time>2019-10-23T09:27:03.917Z</time>
      </trkpt>
      <trkpt lat="27.820181" lon="85.738787">
        <ele>1776</ele>
        <time>2019-10-23T09:28:04.917Z</time>
      </trkpt>
      <trkpt lat="27.820758" lon="85.739206">
        <ele>1774.6187008</ele>
        <time>2019-10-23T09:29:02.917Z</time>
      </trkpt>
      <trkpt lat="27.821104" lon="85.739408">
        <ele>1779</ele>
        <time>2019-10-23T09:30:04.917Z</time>
      </trkpt>
      <trkpt lat="27.821379" lon="85.739489">
        <ele>1785.0374016</ele>
        <time>2019-10-23T09:32:01.917Z</time>
      </trkpt>
      <trkpt lat="27.821467" lon="85.73972">
        <ele>1792.5187008</ele>
        <time>2019-10-23T09:33:01.917Z</time>
      </trkpt>
      <trkpt lat="27.821683" lon="85.739774">
        <ele>1798.5187008</ele>
        <time>2019-10-23T09:34:01.917Z</time>
      </trkpt>
      <trkpt lat="27.821751" lon="85.740046">
        <ele>1803.6187008</ele>
        <time>2019-10-23T09:35:02.917Z</time>
      </trkpt>
      <trkpt lat="27.82186" lon="85.740223">
        <ele>1811.8187008</ele>
        <time>2019-10-23T09:36:04.917Z</time>
      </trkpt>
      <trkpt lat="27.821881" lon="85.740364">
        <ele>1817</ele>
        <time>2019-10-23T09:37:02.917Z</time>
      </trkpt>
      <trkpt lat="27.821983" lon="85.740643">
        <ele>1823.7187008</ele>
        <time>2019-10-23T09:38:03.917Z</time>
      </trkpt>
      <trkpt lat="27.822029" lon="85.740838">
        <ele>1828.7187008</ele>
        <time>2019-10-23T09:39:03.917Z</time>
      </trkpt>
      <trkpt lat="27.822141" lon="85.740766">
        <ele>1834.6187008</ele>
        <time>2019-10-23T09:40:02.917Z</time>
      </trkpt>
      <trkpt lat="27.822309" lon="85.741039">
        <ele>1839.7187008</ele>
        <time>2019-10-23T09:41:03.917Z</time>
      </trkpt>
      <trkpt lat="27.822662" lon="85.741102">
        <ele>1843</ele>
        <time>2019-10-23T09:42:03.917Z</time>
      </trkpt>
      <trkpt lat="27.823001" lon="85.741274">
        <ele>1849.7187008</ele>
        <time>2019-10-23T09:43:03.917Z</time>
      </trkpt>
      <trkpt lat="27.823307" lon="85.741523">
        <ele>1849</ele>
        <time>2019-10-23T09:44:01.917Z</time>
      </trkpt>
      <trkpt lat="27.823237" lon="85.741248">
        <ele>1851.7187008</ele>
        <time>2019-10-23T09:47:03.917Z</time>
      </trkpt>
      <trkpt lat="27.823501" lon="85.741566">
        <ele>1857</ele>
        <time>2019-10-23T09:48:02.917Z</time>
      </trkpt>
      <trkpt lat="27.823647" lon="85.741683">
        <ele>1863</ele>
        <time>2019-10-23T09:49:02.917Z</time>
      </trkpt>
      <trkpt lat="27.823882" lon="85.741779">
        <ele>1869</ele>
        <time>2019-10-23T09:50:04.917Z</time>
      </trkpt>
      <trkpt lat="27.823996" lon="85.741778">
        <ele>1875</ele>
        <time>2019-10-23T09:51:03.917Z</time>
      </trkpt>
      <trkpt lat="27.823904" lon="85.741918">
        <ele>1879</ele>
        <time>2019-10-23T09:52:04.917Z</time>
      </trkpt>
      <trkpt lat="27.823991" lon="85.741854">
        <ele>1880.2812992</ele>
        <time>2019-10-23T09:54:03.917Z</time>
      </trkpt>
      <trkpt lat="27.823833" lon="85.741706">
        <ele>1872.5251968</ele>
        <time>2019-10-23T09:57:02.917Z</time>
      </trkpt>
      <trkpt lat="27.823511" lon="85.741402">
        <ele>1861.1251968</ele>
        <time>2019-10-23T09:58:03.917Z</time>
      </trkpt>
      <trkpt lat="27.822972" lon="85.741147">
        <ele>1852.5625984</ele>
        <time>2019-10-23T09:59:03.917Z</time>
      </trkpt>
      <trkpt lat="27.840718" lon="85.710724">
        <ele>2108.31769984</ele>
        <time>2019-10-23T12:16:26.917Z</time>
      </trkpt>
      <trkpt lat="27.840886" lon="85.710677">
        <ele>2113.2374016</ele>
        <time>2019-10-23T12:17:19.917Z</time>
      </trkpt>
      <trkpt lat="27.84117" lon="85.710222">
        <ele>2120.5187008</ele>
        <time>2019-10-23T12:18:18.917Z</time>
      </trkpt>
      <trkpt lat="27.841487" lon="85.709768">
        <ele>2125.7187008</ele>
        <time>2019-10-23T12:19:20.917Z</time>
      </trkpt>
      <trkpt lat="27.84173" lon="85.709491">
        <ele>2133.8374016</ele>
        <time>2019-10-23T12:20:17.917Z</time>
      </trkpt>
      <trkpt lat="27.842009" lon="85.70889">
        <ele>2131.2812992</ele>
        <time>2019-10-23T12:21:20.917Z</time>
      </trkpt>
      <trkpt lat="27.842632" lon="85.708718">
        <ele>2134.2374016</ele>
        <time>2019-10-23T12:22:19.917Z</time>
      </trkpt>
      <trkpt lat="27.843346" lon="85.708619">
        <ele>2138.6187008</ele>
        <time>2019-10-23T12:23:19.917Z</time>
      </trkpt>
      <trkpt lat="27.843903" lon="85.708371">
        <ele>2144</ele>
        <time>2019-10-23T12:24:19.917Z</time>
      </trkpt>
      <trkpt lat="27.844456" lon="85.708234">
        <ele>2140.4812992</ele>
        <time>2019-10-23T12:25:18.917Z</time>
      </trkpt>
      <trkpt lat="27.845277" lon="85.70778">
        <ele>2139</ele>
        <time>2019-10-23T12:26:17.917Z</time>
      </trkpt>
      <trkpt lat="27.845624" lon="85.707176">
        <ele>2141</ele>
        <time>2019-10-23T12:27:19.917Z</time>
      </trkpt>
      <trkpt lat="27.846151" lon="85.706798">
        <ele>2145</ele>
        <time>2019-10-23T12:28:20.917Z</time>
      </trkpt>
      <trkpt lat="27.846807" lon="85.706477">
        <ele>2146</ele>
        <time>2019-10-23T12:29:18.917Z</time>
      </trkpt>
      <trkpt lat="27.847352" lon="85.70591">
        <ele>2148.61831875234</ele>
        <time>2019-10-23T12:30:19.917Z</time>
      </trkpt>
      <trkpt lat="27.847787" lon="85.705355">
        <ele>2148.5812992</ele>
        <time>2019-10-23T12:31:17.917Z</time>
      </trkpt>
      <trkpt lat="27.8484" lon="85.704739">
        <ele>2142.5625984</ele>
        <time>2019-10-23T12:32:20.917Z</time>
      </trkpt>
      <trkpt lat="27.849068" lon="85.704327">
        <ele>2141</ele>
        <time>2019-10-23T12:33:19.917Z</time>
      </trkpt>
      <trkpt lat="27.849462" lon="85.70396">
        <ele>2139</ele>
        <time>2019-10-23T12:34:19.917Z</time>
      </trkpt>
      <trkpt lat="27.849805" lon="85.70329">
        <ele>2139</ele>
        <time>2019-10-23T12:35:20.917Z</time>
      </trkpt>
      <trkpt lat="27.849801" lon="85.703165">
        <ele>2138</ele>
        <time>2019-10-23T12:36:17.917Z</time>
      </trkpt>
      <trkpt lat="27.850308" lon="85.70245">
        <ele>2133</ele>
        <time>2019-10-23T12:37:18.917Z</time>
      </trkpt>
      <trkpt lat="27.850591" lon="85.701918">
        <ele>2135.8374016</ele>
        <time>2019-10-23T12:38:17.917Z</time>
      </trkpt>
      <trkpt lat="27.850956" lon="85.701775">
        <ele>2144</ele>
        <time>2019-10-23T12:39:17.917Z</time>
      </trkpt>
      <trkpt lat="27.850851" lon="85.701349">
        <ele>2149.8374016</ele>
        <time>2019-10-23T12:40:17.917Z</time>
      </trkpt>
      <trkpt lat="27.850819" lon="85.701155">
        <ele>2152.3812992</ele>
        <time>2019-10-23T12:41:19.917Z</time>
      </trkpt>
      <trkpt lat="27.850912" lon="85.70099">
        <ele>2153.4187008</ele>
        <time>2019-10-23T12:42:17.917Z</time>
      </trkpt>
      <trkpt lat="27.850934" lon="85.701149">
        <ele>2154</ele>
        <time>2019-10-23T12:46:20.917Z</time>
      </trkpt>
      <trkpt lat="27.850568" lon="85.701048">
        <ele>2156.98031919451</ele>
        <time>2019-10-23T12:47:53.917Z</time>
      </trkpt>
      <trkpt lat="27.850952" lon="85.701179">
        <ele>2157</ele>
        <time>2019-10-23T12:49:27.917Z</time>
      </trkpt>
      <trkpt lat="27.851249" lon="85.70077">
        <ele>2157.5187008</ele>
        <time>2019-10-23T12:50:58.917Z</time>
      </trkpt>
      <trkpt lat="27.851752" lon="85.700634">
        <ele>2165.0374016</ele>
        <time>2019-10-23T12:51:58.917Z</time>
      </trkpt>
      <trkpt lat="27.852339" lon="85.700454">
        <ele>2171</ele>
        <time>2019-10-23T12:52:58.917Z</time>
      </trkpt>
      <trkpt lat="27.85272" lon="85.70014">
        <ele>2176.5187008</ele>
        <time>2019-10-23T12:53:58.917Z</time>
      </trkpt>
      <trkpt lat="27.85307" lon="85.699842">
        <ele>2178.0187008</ele>
        <time>2019-10-23T12:54:43.917Z</time>
      </trkpt>
      <trkpt lat="27.853415" lon="85.699406">
        <ele>2180.5187008</ele>
        <time>2019-10-23T12:55:28.917Z</time>
      </trkpt>
      <trkpt lat="27.853711" lon="85.698783">
        <ele>2184</ele>
        <time>2019-10-23T12:56:20.917Z</time>
      </trkpt>
      <trkpt lat="27.853825" lon="85.698315">
        <ele>2185.9187008</ele>
        <time>2019-10-23T12:57:22.917Z</time>
      </trkpt>
      <trkpt lat="27.853809" lon="85.697961">
        <ele>2189</ele>
        <time>2019-10-23T12:58:19.917Z</time>
      </trkpt>
      <trkpt lat="27.854127" lon="85.697413">
        <ele>2188</ele>
        <time>2019-10-23T12:59:19.917Z</time>
      </trkpt>
      <trkpt lat="27.854232" lon="85.696884">
        <ele>2194</ele>
        <time>2019-10-23T13:00:20.917Z</time>
      </trkpt>
      <trkpt lat="27.854382" lon="85.696115">
        <ele>2196.4812992</ele>
        <time>2019-10-23T13:01:18.917Z</time>
      </trkpt>
      <trkpt lat="27.85446" lon="85.695387">
        <ele>2199.6187008</ele>
        <time>2019-10-23T13:02:19.917Z</time>
      </trkpt>
      <trkpt lat="27.854589" lon="85.69491">
        <ele>2205.0374016</ele>
        <time>2019-10-23T13:03:18.917Z</time>
      </trkpt>
      <trkpt lat="27.854555" lon="85.694411">
        <ele>2212.0374016</ele>
        <time>2019-10-23T13:04:18.917Z</time>
      </trkpt>
      <trkpt lat="27.854766" lon="85.693873">
        <ele>2216.6187008</ele>
        <time>2019-10-23T13:05:19.917Z</time>
      </trkpt>
      <trkpt lat="27.854965" lon="85.693171">
        <ele>2218</ele>
        <time>2019-10-23T13:06:19.917Z</time>
      </trkpt>
      <trkpt lat="27.854916" lon="85.692477">
        <ele>2223.7187008</ele>
        <time>2019-10-23T13:07:20.917Z</time>
      </trkpt>
      <trkpt lat="27.854941" lon="85.691759">
        <ele>2223</ele>
        <time>2019-10-23T13:08:20.917Z</time>
      </trkpt>
      <trkpt lat="27.854877" lon="85.691288">
        <ele>2229</ele>
        <time>2019-10-23T13:09:19.917Z</time>
      </trkpt>
      <trkpt lat="27.85501" lon="85.690836">
        <ele>2236</ele>
        <time>2019-10-23T13:10:20.917Z</time>
      </trkpt>
      <trkpt lat="27.85506" lon="85.690562">
        <ele>2243.6187008</ele>
        <time>2019-10-23T13:11:19.917Z</time>
      </trkpt>
      <trkpt lat="27.855528" lon="85.690493">
        <ele>2250</ele>
        <time>2019-10-23T13:12:20.917Z</time>
      </trkpt>
      <trkpt lat="27.855934" lon="85.690364">
        <ele>2256.3812992</ele>
        <time>2019-10-23T13:13:19.917Z</time>
      </trkpt>
      <trkpt lat="27.856323" lon="85.690577">
        <ele>2263.5187008</ele>
        <time>2019-10-23T13:14:18.917Z</time>
      </trkpt>
      <trkpt lat="27.856672" lon="85.690207">
        <ele>2267.0374016</ele>
        <time>2019-10-23T13:15:18.917Z</time>
      </trkpt>
      <trkpt lat="27.856741" lon="85.689721">
        <ele>2274.1561024</ele>
        <time>2019-10-23T13:16:20.917Z</time>
      </trkpt>
      <trkpt lat="27.856937" lon="85.689125">
        <ele>2276</ele>
        <time>2019-10-23T13:17:18.917Z</time>
      </trkpt>
      <trkpt lat="27.857138" lon="85.688724">
        <ele>2281.8187008</ele>
        <time>2019-10-23T13:18:21.917Z</time>
      </trkpt>
      <trkpt lat="27.857217" lon="85.68836">
        <ele>2288.7187008</ele>
        <time>2019-10-23T13:19:20.917Z</time>
      </trkpt>
      <trkpt lat="27.857508" lon="85.688023">
        <ele>2293.5187008</ele>
        <time>2019-10-23T13:20:18.917Z</time>
      </trkpt>
      <trkpt lat="27.857939" lon="85.688078">
        <ele>2298</ele>
        <time>2019-10-23T13:21:18.917Z</time>
      </trkpt>
      <trkpt lat="27.858266" lon="85.68819">
        <ele>2305.2374016</ele>
        <time>2019-10-23T13:22:19.917Z</time>
      </trkpt>
      <trkpt lat="27.85862" lon="85.688412">
        <ele>2311</ele>
        <time>2019-10-23T13:23:18.917Z</time>
      </trkpt>
      <trkpt lat="27.859085" lon="85.688257">
        <ele>2314</ele>
        <time>2019-10-23T13:24:19.917Z</time>
      </trkpt>
      <trkpt lat="27.859568" lon="85.687883">
        <ele>2313.3812992</ele>
        <time>2019-10-23T13:25:19.917Z</time>
      </trkpt>
      <trkpt lat="27.860056" lon="85.68759">
        <ele>2312</ele>
        <time>2019-10-23T13:26:19.917Z</time>
      </trkpt>
      <trkpt lat="27.860193" lon="85.686896">
        <ele>2311.3812992</ele>
        <time>2019-10-23T13:27:19.917Z</time>
      </trkpt>
      <trkpt lat="27.86039" lon="85.686246">
        <ele>2311</ele>
        <time>2019-10-23T13:28:18.917Z</time>
      </trkpt>
      <trkpt lat="27.860579" lon="85.68579">
        <ele>2314.5187008</ele>
        <time>2019-10-23T13:29:18.917Z</time>
      </trkpt>
      <trkpt lat="27.860876" lon="85.685348">
        <ele>2317</ele>
        <time>2019-10-23T13:30:19.917Z</time>
      </trkpt>
      <trkpt lat="27.861484" lon="85.68513">
        <ele>2315.5187008</ele>
        <time>2019-10-23T13:31:18.917Z</time>
      </trkpt>
      <trkpt lat="27.861904" lon="85.684993">
        <ele>2319</ele>
        <time>2019-10-23T13:32:19.917Z</time>
      </trkpt>
      <trkpt lat="27.862029" lon="85.684576">
        <ele>2317</ele>
        <time>2019-10-23T13:33:19.917Z</time>
      </trkpt>
      <trkpt lat="27.862016" lon="85.683812">
        <ele>2317</ele>
        <time>2019-10-23T13:34:20.917Z</time>
      </trkpt>
      <trkpt lat="27.862086" lon="85.683069">
        <ele>2316.3812992</ele>
        <time>2019-10-23T13:35:19.917Z</time>
      </trkpt>
      <trkpt lat="27.86243" lon="85.682435">
        <ele>2318.5187008</ele>
        <time>2019-10-23T13:36:18.917Z</time>
      </trkpt>
      <trkpt lat="27.862827" lon="85.681812">
        <ele>2321.6187008</ele>
        <time>2019-10-23T13:37:19.917Z</time>
      </trkpt>
      <trkpt lat="27.863066" lon="85.681231">
        <ele>2326.71841894863</ele>
        <time>2019-10-23T13:38:20.917Z</time>
      </trkpt>
      <trkpt lat="27.863278" lon="85.680697">
        <ele>2333.7187008</ele>
        <time>2019-10-23T13:39:20.917Z</time>
      </trkpt>
      <trkpt lat="27.86343" lon="85.680105">
        <ele>2338</ele>
        <time>2019-10-23T13:40:21.917Z</time>
      </trkpt>
      <trkpt lat="27.863482" lon="85.679749">
        <ele>2345</ele>
        <time>2019-10-23T13:41:19.917Z</time>
      </trkpt>
      <trkpt lat="27.863544" lon="85.679203">
        <ele>2351.0374016</ele>
        <time>2019-10-23T13:42:18.917Z</time>
      </trkpt>
      <trkpt lat="27.863246" lon="85.67865">
        <ele>2359</ele>
        <time>2019-10-23T13:43:21.917Z</time>
      </trkpt>
      <trkpt lat="27.863276" lon="85.678054">
        <ele>2362</ele>
        <time>2019-10-23T13:44:18.917Z</time>
      </trkpt>
      <trkpt lat="27.863365" lon="85.677191">
        <ele>2360</ele>
        <time>2019-10-23T13:45:20.917Z</time>
      </trkpt>
      <trkpt lat="27.863371" lon="85.676552">
        <ele>2362.6187008</ele>
        <time>2019-10-23T13:46:19.917Z</time>
      </trkpt>
      <trkpt lat="27.863046" lon="85.676184">
        <ele>2369.7187008</ele>
        <time>2019-10-23T13:47:20.917Z</time>
      </trkpt>
      <trkpt lat="27.862912" lon="85.675763">
        <ele>2376</ele>
        <time>2019-10-23T13:48:20.917Z</time>
      </trkpt>
      <trkpt lat="27.862905" lon="85.6752">
        <ele>2383</ele>
        <time>2019-10-23T13:49:20.917Z</time>
      </trkpt>
      <trkpt lat="27.862779" lon="85.674391">
        <ele>2379.2812992</ele>
        <time>2019-10-23T13:50:20.917Z</time>
      </trkpt>
      <trkpt lat="27.86255" lon="85.67382">
        <ele>2370.76336249532</ele>
        <time>2019-10-23T13:51:19.917Z</time>
      </trkpt>
      <trkpt lat="27.862228" lon="85.673091">
        <ele>2363.3812992</ele>
        <time>2019-10-23T13:52:19.917Z</time>
      </trkpt>
      <trkpt lat="27.86207" lon="85.672353">
        <ele>2354.3812992</ele>
        <time>2019-10-23T13:53:19.917Z</time>
      </trkpt>
      <trkpt lat="27.861841" lon="85.672184">
        <ele>2349</ele>
        <time>2019-10-23T13:54:19.917Z</time>
      </trkpt>
      <trkpt lat="27.862024" lon="85.672213">
        <ele>2349</ele>
        <time>2019-10-23T13:59:18.917Z</time>
      </trkpt>
      <trkpt lat="27.862084" lon="85.672121">
        <ele>2355</ele>
        <time>2019-10-23T14:01:19.917Z</time>
      </trkpt>
      <trkpt lat="27.862052" lon="85.67223">
        <ele>2441.39990234375</ele>
        <time>2019-10-24T05:36:46.094Z</time>
      </trkpt>
      <trkpt lat="27.862034" lon="85.672157">
        <ele>2316</ele>
        <time>2019-10-24T05:37:56.094Z</time>
      </trkpt>
      <trkpt lat="27.862461" lon="85.672033">
        <ele>2312.49710242036</ele>
        <time>2019-10-24T05:39:00.094Z</time>
      </trkpt>
      <trkpt lat="27.862724" lon="85.672264">
        <ele>2306</ele>
        <time>2019-10-24T05:40:06.094Z</time>
      </trkpt>
      <trkpt lat="27.863234" lon="85.672834">
        <ele>2294.69659904</ele>
        <time>2019-10-24T05:41:08.094Z</time>
      </trkpt>
      <trkpt lat="27.863773" lon="85.673344">
        <ele>2284</ele>
        <time>2019-10-24T05:42:11.094Z</time>
      </trkpt>
      <trkpt lat="27.864203" lon="85.673962">
        <ele>2275</ele>
        <time>2019-10-24T05:43:15.094Z</time>
      </trkpt>
      <trkpt lat="27.864882" lon="85.674417">
        <ele>2267.19659904</ele>
        <time>2019-10-24T05:44:23.094Z</time>
      </trkpt>
      <trkpt lat="27.865638" lon="85.674413">
        <ele>2260</ele>
        <time>2019-10-24T05:45:27.094Z</time>
      </trkpt>
      <trkpt lat="27.866385" lon="85.674286">
        <ele>2254</ele>
        <time>2019-10-24T05:46:31.094Z</time>
      </trkpt>
      <trkpt lat="27.867072" lon="85.674123">
        <ele>2240.99659904</ele>
        <time>2019-10-24T05:47:35.094Z</time>
      </trkpt>
      <trkpt lat="27.86758" lon="85.673726">
        <ele>2236</ele>
        <time>2019-10-24T05:48:35.094Z</time>
      </trkpt>
      <trkpt lat="27.868326" lon="85.673352">
        <ele>2234</ele>
        <time>2019-10-24T05:49:41.094Z</time>
      </trkpt>
      <trkpt lat="27.869196" lon="85.673177">
        <ele>2222</ele>
        <time>2019-10-24T05:51:15.094Z</time>
      </trkpt>
      <trkpt lat="27.869702" lon="85.673348">
        <ele>2216.99319808</ele>
        <time>2019-10-24T05:52:00.094Z</time>
      </trkpt>
      <trkpt lat="27.870284" lon="85.67369">
        <ele>2213.29659904</ele>
        <time>2019-10-24T05:52:52.094Z</time>
      </trkpt>
      <trkpt lat="27.870826" lon="85.673232">
        <ele>2210.08979712</ele>
        <time>2019-10-24T05:53:48.094Z</time>
      </trkpt>
      <trkpt lat="27.871374" lon="85.67322">
        <ele>2206</ele>
        <time>2019-10-24T05:54:48.094Z</time>
      </trkpt>
      <trkpt lat="27.871464" lon="85.673106">
        <ele>2207</ele>
        <time>2019-10-24T05:55:51.094Z</time>
      </trkpt>
      <trkpt lat="27.872099" lon="85.673153">
        <ele>2201.99659904</ele>
        <time>2019-10-24T05:56:55.094Z</time>
      </trkpt>
      <trkpt lat="27.872677" lon="85.673">
        <ele>2197.69659904</ele>
        <time>2019-10-24T05:57:48.094Z</time>
      </trkpt>
      <trkpt lat="27.873088" lon="85.673023">
        <ele>2191.69729700641</ele>
        <time>2019-10-24T05:58:48.094Z</time>
      </trkpt>
      <trkpt lat="27.873139" lon="85.672252">
        <ele>2184.39659904</ele>
        <time>2019-10-24T05:59:51.094Z</time>
      </trkpt>
      <trkpt lat="27.873265" lon="85.67158">
        <ele>2175.78639616</ele>
        <time>2019-10-24T06:00:48.094Z</time>
      </trkpt>
      <trkpt lat="27.873539" lon="85.67096">
        <ele>2164.69659904</ele>
        <time>2019-10-24T06:01:48.094Z</time>
      </trkpt>
      <trkpt lat="27.873872" lon="85.670524">
        <ele>2154.39319808</ele>
        <time>2019-10-24T06:02:53.094Z</time>
      </trkpt>
      <trkpt lat="27.873977" lon="85.669953">
        <ele>2148.98601208135</ele>
        <time>2019-10-24T06:03:51.094Z</time>
      </trkpt>
      <trkpt lat="27.874067" lon="85.669518">
        <ele>2135.59319808</ele>
        <time>2019-10-24T06:04:52.094Z</time>
      </trkpt>
      <trkpt lat="27.874132" lon="85.669199">
        <ele>2124.69659904</ele>
        <time>2019-10-24T06:05:48.094Z</time>
      </trkpt>
      <trkpt lat="27.87411" lon="85.668671">
        <ele>2109.69659904</ele>
        <time>2019-10-24T06:06:48.094Z</time>
      </trkpt>
      <trkpt lat="27.874115" lon="85.668178">
        <ele>2099.39319808</ele>
        <time>2019-10-24T06:07:48.094Z</time>
      </trkpt>
      <trkpt lat="27.8741" lon="85.667813">
        <ele>2091.39319808</ele>
        <time>2019-10-24T06:08:48.094Z</time>
      </trkpt>
      <trkpt lat="27.874085" lon="85.667644">
        <ele>2090.79319808</ele>
        <time>2019-10-24T06:14:51.094Z</time>
      </trkpt>
      <trkpt lat="27.874202" lon="85.667531">
        <ele>2087.08979712</ele>
        <time>2019-10-24T06:15:48.094Z</time>
      </trkpt>
      <trkpt lat="27.87416" lon="85.667067">
        <ele>2078</ele>
        <time>2019-10-24T06:16:48.094Z</time>
      </trkpt>
      <trkpt lat="27.873873" lon="85.666677">
        <ele>2059.79319808</ele>
        <time>2019-10-24T06:18:51.094Z</time>
      </trkpt>
      <trkpt lat="27.874162" lon="85.666485">
        <ele>2051</ele>
        <time>2019-10-24T06:19:51.094Z</time>
      </trkpt>
      <trkpt lat="27.874704" lon="85.666328">
        <ele>2041</ele>
        <time>2019-10-24T06:20:52.094Z</time>
      </trkpt>
      <trkpt lat="27.875048" lon="85.665876">
        <ele>2030.08979712</ele>
        <time>2019-10-24T06:21:48.094Z</time>
      </trkpt>
      <trkpt lat="27.87543" lon="85.665747">
        <ele>2018.39319808</ele>
        <time>2019-10-24T06:22:48.094Z</time>
      </trkpt>
      <trkpt lat="27.875774" lon="85.665495">
        <ele>2001.18979712</ele>
        <time>2019-10-24T06:23:51.094Z</time>
      </trkpt>
      <trkpt lat="27.876218" lon="85.665273">
        <ele>1988.79319808</ele>
        <time>2019-10-24T06:24:51.094Z</time>
      </trkpt>
      <trkpt lat="27.876353" lon="85.665326">
        <ele>1976.18979712</ele>
        <time>2019-10-24T06:25:51.094Z</time>
      </trkpt>
      <trkpt lat="27.876607" lon="85.665039">
        <ele>1963.69659904</ele>
        <time>2019-10-24T06:26:48.094Z</time>
      </trkpt>
      <trkpt lat="27.87684" lon="85.664925">
        <ele>1952.18979712</ele>
        <time>2019-10-24T06:27:51.094Z</time>
      </trkpt>
      <trkpt lat="27.877074" lon="85.664635">
        <ele>1939.69659904</ele>
        <time>2019-10-24T06:28:48.094Z</time>
      </trkpt>
      <trkpt lat="27.877055" lon="85.664372">
        <ele>1933</ele>
        <time>2019-10-24T06:29:48.094Z</time>
      </trkpt>
      <trkpt lat="27.877385" lon="85.663939">
        <ele>1929.49709661383</ele>
        <time>2019-10-24T06:30:50.094Z</time>
      </trkpt>
      <trkpt lat="27.877242" lon="85.663487">
        <ele>1936</ele>
        <time>2019-10-24T06:31:51.094Z</time>
      </trkpt>
      <trkpt lat="27.877262" lon="85.662787">
        <ele>1934.59659904</ele>
        <time>2019-10-24T06:32:49.094Z</time>
      </trkpt>
      <trkpt lat="27.877468" lon="85.661963">
        <ele>1933</ele>
        <time>2019-10-24T06:33:48.094Z</time>
      </trkpt>
      <trkpt lat="27.877619" lon="85.66151">
        <ele>1927.69659904</ele>
        <time>2019-10-24T06:34:48.094Z</time>
      </trkpt>
      <trkpt lat="27.877726" lon="85.661385">
        <ele>1924</ele>
        <time>2019-10-24T06:35:48.094Z</time>
      </trkpt>
      <trkpt lat="27.877861" lon="85.661188">
        <ele>1911.79399283507</ele>
        <time>2019-10-24T06:36:51.094Z</time>
      </trkpt>
      <trkpt lat="27.878044" lon="85.660742">
        <ele>1901.9829952</ele>
        <time>2019-10-24T06:37:51.094Z</time>
      </trkpt>
      <trkpt lat="27.878281" lon="85.660696">
        <ele>1899</ele>
        <time>2019-10-24T06:38:50.094Z</time>
      </trkpt>
      <trkpt lat="27.878512" lon="85.660632">
        <ele>1890.39319808</ele>
        <time>2019-10-24T06:39:48.094Z</time>
      </trkpt>
      <trkpt lat="27.878385" lon="85.660036">
        <ele>1882.69659904</ele>
        <time>2019-10-24T06:40:48.094Z</time>
      </trkpt>
      <trkpt lat="27.878414" lon="85.659683">
        <ele>1876.69659904</ele>
        <time>2019-10-24T06:41:48.094Z</time>
      </trkpt>
      <trkpt lat="27.877966" lon="85.659065">
        <ele>1868.4829952</ele>
        <time>2019-10-24T06:42:48.094Z</time>
      </trkpt>
      <trkpt lat="27.877774" lon="85.65841">
        <ele>1861.39319808</ele>
        <time>2019-10-24T06:43:48.094Z</time>
      </trkpt>
      <trkpt lat="27.877771" lon="85.657555">
        <ele>1848.78639616</ele>
        <time>2019-10-24T06:44:48.094Z</time>
      </trkpt>
      <trkpt lat="27.877843" lon="85.656857">
        <ele>1839.39319808</ele>
        <time>2019-10-24T06:45:48.094Z</time>
      </trkpt>
      <trkpt lat="27.878021" lon="85.656323">
        <ele>1827.39319808</ele>
        <time>2019-10-24T06:46:48.094Z</time>
      </trkpt>
      <trkpt lat="27.878369" lon="85.65577">
        <ele>1815.79440483254</ele>
        <time>2019-10-24T06:47:51.094Z</time>
      </trkpt>
      <trkpt lat="27.878582" lon="85.65561">
        <ele>1807</ele>
        <time>2019-10-24T06:48:48.094Z</time>
      </trkpt>
      <trkpt lat="27.87871" lon="85.655361">
        <ele>1796.39319808</ele>
        <time>2019-10-24T06:49:48.094Z</time>
      </trkpt>
      <trkpt lat="27.879263" lon="85.655172">
        <ele>1782.4829952</ele>
        <time>2019-10-24T06:50:48.094Z</time>
      </trkpt>
      <trkpt lat="27.879558" lon="85.654712">
        <ele>1770.78639616</ele>
        <time>2019-10-24T06:51:48.094Z</time>
      </trkpt>
      <trkpt lat="27.879564" lon="85.654132">
        <ele>1756.39659904</ele>
        <time>2019-10-24T06:52:51.094Z</time>
      </trkpt>
      <trkpt lat="27.879913" lon="85.653782">
        <ele>1747.39659904</ele>
        <time>2019-10-24T06:53:51.094Z</time>
      </trkpt>
      <trkpt lat="27.880205" lon="85.653625">
        <ele>1733.49659904</ele>
        <time>2019-10-24T06:54:50.094Z</time>
      </trkpt>
      <trkpt lat="27.880136" lon="85.653093">
        <ele>1725.39319808</ele>
        <time>2019-10-24T06:55:48.094Z</time>
      </trkpt>
      <trkpt lat="27.88042" lon="85.652263">
        <ele>1719.69659904</ele>
        <time>2019-10-24T06:56:48.094Z</time>
      </trkpt>
      <trkpt lat="27.880784" lon="85.651559">
        <ele>1709.69659904</ele>
        <time>2019-10-24T06:57:48.094Z</time>
      </trkpt>
      <trkpt lat="27.881015" lon="85.650957">
        <ele>1695.98639616</ele>
        <time>2019-10-24T06:58:50.094Z</time>
      </trkpt>
      <trkpt lat="27.881239" lon="85.650587">
        <ele>1684.49659904</ele>
        <time>2019-10-24T06:59:50.094Z</time>
      </trkpt>
      <trkpt lat="27.881122" lon="85.650188">
        <ele>1676.99319808</ele>
        <time>2019-10-24T07:01:50.094Z</time>
      </trkpt>
      <trkpt lat="27.881413" lon="85.649491">
        <ele>1666.78639616</ele>
        <time>2019-10-24T07:02:48.094Z</time>
      </trkpt>
      <trkpt lat="27.881658" lon="85.649079">
        <ele>1654.49659904</ele>
        <time>2019-10-24T07:03:50.094Z</time>
      </trkpt>
      <trkpt lat="27.881505" lon="85.648609">
        <ele>1643.49659904</ele>
        <time>2019-10-24T07:04:50.094Z</time>
      </trkpt>
      <trkpt lat="27.881325" lon="85.648396">
        <ele>1633.69659904</ele>
        <time>2019-10-24T07:05:48.094Z</time>
      </trkpt>
      <trkpt lat="27.881198" lon="85.647719">
        <ele>1625.59319808</ele>
        <time>2019-10-24T07:06:52.094Z</time>
      </trkpt>
      <trkpt lat="27.88159" lon="85.647369">
        <ele>1617.69659904</ele>
        <time>2019-10-24T07:07:48.094Z</time>
      </trkpt>
      <trkpt lat="27.881742" lon="85.646741">
        <ele>1607.98639616</ele>
        <time>2019-10-24T07:08:50.094Z</time>
      </trkpt>
      <trkpt lat="27.881817" lon="85.645914">
        <ele>1604</ele>
        <time>2019-10-24T07:09:48.094Z</time>
      </trkpt>
      <trkpt lat="27.881829" lon="85.645117">
        <ele>1601.29659904</ele>
        <time>2019-10-24T07:10:52.094Z</time>
      </trkpt>
      <trkpt lat="27.881717" lon="85.644579">
        <ele>1599</ele>
        <time>2019-10-24T07:11:48.094Z</time>
      </trkpt>
      <trkpt lat="27.881643" lon="85.643626">
        <ele>1594.69659904</ele>
        <time>2019-10-24T07:12:48.094Z</time>
      </trkpt>
      <trkpt lat="27.882087" lon="85.642852">
        <ele>1595</ele>
        <time>2019-10-24T07:13:50.094Z</time>
      </trkpt>
      <trkpt lat="27.882828" lon="85.642292">
        <ele>1591.49659904</ele>
        <time>2019-10-24T07:14:50.094Z</time>
      </trkpt>
      <trkpt lat="27.883292" lon="85.641575">
        <ele>1579</ele>
        <time>2019-10-24T07:15:48.094Z</time>
      </trkpt>
      <trkpt lat="27.883733" lon="85.640718">
        <ele>1567.39319808</ele>
        <time>2019-10-24T07:16:48.094Z</time>
      </trkpt>
      <trkpt lat="27.883886" lon="85.640485">
        <ele>1561.49659904</ele>
        <time>2019-10-24T07:17:50.094Z</time>
      </trkpt>
      <trkpt lat="27.884069" lon="85.639946">
        <ele>1553.58639616</ele>
        <time>2019-10-24T07:19:51.094Z</time>
      </trkpt>
      <trkpt lat="27.884241" lon="85.639322">
        <ele>1538.58639616</ele>
        <time>2019-10-24T07:20:51.094Z</time>
      </trkpt>
      <trkpt lat="27.884374" lon="85.638667">
        <ele>1527.99319808</ele>
        <time>2019-10-24T07:21:50.094Z</time>
      </trkpt>
      <trkpt lat="27.884492" lon="85.638016">
        <ele>1512.9829952</ele>
        <time>2019-10-24T07:22:49.094Z</time>
      </trkpt>
      <trkpt lat="27.884692" lon="85.637587">
        <ele>1500</ele>
        <time>2019-10-24T07:23:50.094Z</time>
      </trkpt>
      <trkpt lat="27.884964" lon="85.637181">
        <ele>1486.4829952</ele>
        <time>2019-10-24T07:24:48.094Z</time>
      </trkpt>
      <trkpt lat="27.885431" lon="85.636811">
        <ele>1474.98639616</ele>
        <time>2019-10-24T07:25:50.094Z</time>
      </trkpt>
      <trkpt lat="27.885598" lon="85.636519">
        <ele>1464.59319808</ele>
        <time>2019-10-24T07:26:52.094Z</time>
      </trkpt>
      <trkpt lat="27.885526" lon="85.636072">
        <ele>1449.08979712</ele>
        <time>2019-10-24T07:27:48.094Z</time>
      </trkpt>
      <trkpt lat="27.886068" lon="85.635719">
        <ele>1438</ele>
        <time>2019-10-24T07:28:48.094Z</time>
      </trkpt>
      <trkpt lat="27.88557" lon="85.63535">
        <ele>1433.79399283507</ele>
        <time>2019-10-24T07:29:51.094Z</time>
      </trkpt>
      <trkpt lat="27.88557" lon="85.634581">
        <ele>1426.59659904</ele>
        <time>2019-10-24T07:30:49.094Z</time>
      </trkpt>
      <trkpt lat="27.885328" lon="85.634342">
        <ele>1418.69659904</ele>
        <time>2019-10-24T07:31:48.094Z</time>
      </trkpt>
      <trkpt lat="27.885382" lon="85.633795">
        <ele>1405.79319808</ele>
        <time>2019-10-24T07:32:51.094Z</time>
      </trkpt>
      <trkpt lat="27.885627" lon="85.633182">
        <ele>1398.69659904</ele>
        <time>2019-10-24T07:33:48.094Z</time>
      </trkpt>
      <trkpt lat="27.885561" lon="85.632685">
        <ele>1386.4829952</ele>
        <time>2019-10-24T07:34:48.094Z</time>
      </trkpt>
      <trkpt lat="27.886139" lon="85.632185">
        <ele>1372.39659904</ele>
        <time>2019-10-24T07:35:51.094Z</time>
      </trkpt>
      <trkpt lat="27.886681" lon="85.631882">
        <ele>1360.69659904</ele>
        <time>2019-10-24T07:36:48.094Z</time>
      </trkpt>
      <trkpt lat="27.886351" lon="85.631371">
        <ele>1351.69659904</ele>
        <time>2019-10-24T07:37:48.094Z</time>
      </trkpt>
      <trkpt lat="27.886257" lon="85.630957">
        <ele>1343.78918802565</ele>
        <time>2019-10-24T07:38:48.094Z</time>
      </trkpt>
      <trkpt lat="27.886257" lon="85.630281">
        <ele>1326.29659904</ele>
        <time>2019-10-24T07:39:52.094Z</time>
      </trkpt>
      <trkpt lat="27.88647" lon="85.629502">
        <ele>1316.99319808</ele>
        <time>2019-10-24T07:40:50.094Z</time>
      </trkpt>
      <trkpt lat="27.886428" lon="85.629031">
        <ele>1303.39659904</ele>
        <time>2019-10-24T07:41:51.094Z</time>
      </trkpt>
      <trkpt lat="27.886432" lon="85.628498">
        <ele>1295.48979712</ele>
        <time>2019-10-24T07:42:50.094Z</time>
      </trkpt>
      <trkpt lat="27.88644" lon="85.62802">
        <ele>1280.49659904</ele>
        <time>2019-10-24T07:43:50.094Z</time>
      </trkpt>
      <trkpt lat="27.887236" lon="85.627921">
        <ele>1274.39659904</ele>
        <time>2019-10-24T07:44:51.094Z</time>
      </trkpt>
      <trkpt lat="27.887616" lon="85.62742">
        <ele>1264.08979712</ele>
        <time>2019-10-24T07:45:48.094Z</time>
      </trkpt>
      <trkpt lat="27.88743" lon="85.626676">
        <ele>1253.69659904</ele>
        <time>2019-10-24T07:46:48.094Z</time>
      </trkpt>
      <trkpt lat="27.887222" lon="85.626027">
        <ele>1244.99319808</ele>
        <time>2019-10-24T07:47:50.094Z</time>
      </trkpt>
      <trkpt lat="27.887114" lon="85.625693">
        <ele>1231.99319808</ele>
        <time>2019-10-24T07:48:50.094Z</time>
      </trkpt>
      <trkpt lat="27.887319" lon="85.625135">
        <ele>1218.39319808</ele>
        <time>2019-10-24T07:49:48.094Z</time>
      </trkpt>
      <trkpt lat="27.887078" lon="85.624981">
        <ele>1199.29659904</ele>
        <time>2019-10-24T07:50:52.094Z</time>
      </trkpt>
      <trkpt lat="27.887304" lon="85.62423">
        <ele>1187.69659904</ele>
        <time>2019-10-24T07:51:48.094Z</time>
      </trkpt>
      <trkpt lat="27.887058" lon="85.623842">
        <ele>1173.98697041249</ele>
        <time>2019-10-24T07:52:51.094Z</time>
      </trkpt>
      <trkpt lat="27.88713" lon="85.623472">
        <ele>1161.482496</ele>
        <time>2019-10-24T07:53:48.094Z</time>
      </trkpt>
      <trkpt lat="27.887255" lon="85.623306">
        <ele>1146.9789952</ele>
        <time>2019-10-24T07:54:50.094Z</time>
      </trkpt>
      <trkpt lat="27.887388" lon="85.623082">
        <ele>1135.482496</ele>
        <time>2019-10-24T07:55:52.094Z</time>
      </trkpt>
      <trkpt lat="27.887323" lon="85.622886">
        <ele>1119.08979712</ele>
        <time>2019-10-24T07:56:48.094Z</time>
      </trkpt>
      <trkpt lat="27.887275" lon="85.622558">
        <ele>1106.39659904</ele>
        <time>2019-10-24T07:57:51.094Z</time>
      </trkpt>
      <trkpt lat="27.887316" lon="85.622234">
        <ele>1093.69659904</ele>
        <time>2019-10-24T07:58:48.094Z</time>
      </trkpt>
      <trkpt lat="27.887339" lon="85.62159">
        <ele>1082.39319808</ele>
        <time>2019-10-24T07:59:48.094Z</time>
      </trkpt>
      <trkpt lat="27.887542" lon="85.620888">
        <ele>1069.19319808</ele>
        <time>2019-10-24T08:00:49.094Z</time>
      </trkpt>
      <trkpt lat="27.887463" lon="85.620675">
        <ele>1057.39319808</ele>
        <time>2019-10-24T08:01:48.094Z</time>
      </trkpt>
      <trkpt lat="27.887409" lon="85.620432">
        <ele>1042.38639616</ele>
        <time>2019-10-24T08:02:49.094Z</time>
      </trkpt>
      <trkpt lat="27.887757" lon="85.62036">
        <ele>1026.18639616</ele>
        <time>2019-10-24T08:03:52.094Z</time>
      </trkpt>
      <trkpt lat="27.887945" lon="85.620253">
        <ele>1013.29659904</ele>
        <time>2019-10-24T08:04:52.094Z</time>
      </trkpt>
      <trkpt lat="27.887511" lon="85.619778">
        <ele>1001.39659904</ele>
        <time>2019-10-24T08:05:51.094Z</time>
      </trkpt>
      <trkpt lat="27.887502" lon="85.619137">
        <ele>989.9829952</ele>
        <time>2019-10-24T08:06:51.094Z</time>
      </trkpt>
      <trkpt lat="27.887447" lon="85.618447">
        <ele>978.99319808</ele>
        <time>2019-10-24T08:07:50.094Z</time>
      </trkpt>
      <trkpt lat="27.88762" lon="85.618042">
        <ele>965.79319808</ele>
        <time>2019-10-24T08:08:51.094Z</time>
      </trkpt>
      <trkpt lat="27.887464" lon="85.617787">
        <ele>952.08979712</ele>
        <time>2019-10-24T08:09:48.094Z</time>
      </trkpt>
      <trkpt lat="27.887695" lon="85.617652">
        <ele>940</ele>
        <time>2019-10-24T08:10:50.094Z</time>
      </trkpt>
      <trkpt lat="27.887508" lon="85.617241">
        <ele>927.39659904</ele>
        <time>2019-10-24T08:11:51.094Z</time>
      </trkpt>
      <trkpt lat="27.887473" lon="85.61683">
        <ele>916.79319808</ele>
        <time>2019-10-24T08:12:51.094Z</time>
      </trkpt>
      <trkpt lat="27.887214" lon="85.616889">
        <ele>904.88979712</ele>
        <time>2019-10-24T08:13:52.094Z</time>
      </trkpt>
      <trkpt lat="27.887207" lon="85.616474">
        <ele>897.49659904</ele>
        <time>2019-10-24T08:14:50.094Z</time>
      </trkpt>
      <trkpt lat="27.887773" lon="85.616494">
        <ele>892.99319808</ele>
        <time>2019-10-24T08:15:50.094Z</time>
      </trkpt>
      <trkpt lat="27.888267" lon="85.616946">
        <ele>891.40680192</ele>
        <time>2019-10-24T08:16:52.094Z</time>
      </trkpt>
      <trkpt lat="27.888777" lon="85.617544">
        <ele>895</ele>
        <time>2019-10-24T08:17:51.094Z</time>
      </trkpt>
      <trkpt lat="27.889159" lon="85.617858">
        <ele>899</ele>
        <time>2019-10-24T08:18:52.094Z</time>
      </trkpt>
      <trkpt lat="27.889638" lon="85.618498">
        <ele>899.70340096</ele>
        <time>2019-10-24T08:19:52.094Z</time>
      </trkpt>
      <trkpt lat="27.890457" lon="85.618594">
        <ele>898</ele>
        <time>2019-10-24T08:20:52.094Z</time>
      </trkpt>
      <trkpt lat="27.890653" lon="85.618543">
        <ele>898</ele>
        <time>2019-10-24T08:21:52.094Z</time>
      </trkpt>
      <trkpt lat="27.891202" lon="85.618915">
        <ele>902</ele>
        <time>2019-10-24T08:22:57.094Z</time>
      </trkpt>
      <trkpt lat="27.891841" lon="85.618971">
        <ele>903</ele>
        <time>2019-10-24T08:23:50.094Z</time>
      </trkpt>
      <trkpt lat="27.892543" lon="85.619014">
        <ele>901</ele>
        <time>2019-10-24T08:24:51.094Z</time>
      </trkpt>
      <trkpt lat="27.892477" lon="85.619152">
        <ele>901</ele>
        <time>2019-10-24T08:25:50.094Z</time>
      </trkpt>
      <trkpt lat="27.89233" lon="85.61928">
        <ele>900</ele>
        <time>2019-10-24T08:26:51.094Z</time>
      </trkpt>
      <trkpt lat="27.892632" lon="85.619062">
        <ele>900</ele>
        <time>2019-10-24T08:27:53.094Z</time>
      </trkpt>
      <trkpt lat="27.89253" lon="85.619067">
        <ele>901</ele>
        <time>2019-10-24T08:31:50.094Z</time>
      </trkpt>
      <trkpt lat="27.892541" lon="85.618927">
        <ele>901</ele>
        <time>2019-10-24T08:35:50.094Z</time>
      </trkpt>
      <trkpt lat="27.892421" lon="85.618906">
        <ele>901</ele>
        <time>2019-10-24T08:36:50.094Z</time>
      </trkpt>
      <trkpt lat="27.892597" lon="85.619043">
        <ele>901</ele>
        <time>2019-10-24T08:37:51.094Z</time>
      </trkpt>
      <trkpt lat="27.892486" lon="85.619154">
        <ele>901</ele>
        <time>2019-10-24T08:39:50.094Z</time>
      </trkpt>
      <trkpt lat="27.892728" lon="85.619196">
        <ele>901</ele>
        <time>2019-10-24T08:43:51.094Z</time>
      </trkpt>
      <trkpt lat="27.89325" lon="85.619506">
        <ele>901</ele>
        <time>2019-10-24T08:44:51.094Z</time>
      </trkpt>
      <trkpt lat="27.893479" lon="85.619213">
        <ele>906</ele>
        <time>2019-10-24T08:45:51.094Z</time>
      </trkpt>
      <trkpt lat="27.893841" lon="85.618973">
        <ele>912.50340096</ele>
        <time>2019-10-24T08:46:50.094Z</time>
      </trkpt>
      <trkpt lat="27.894206" lon="85.618942">
        <ele>921.50340096</ele>
        <time>2019-10-24T08:47:50.094Z</time>
      </trkpt>
      <trkpt lat="27.894674" lon="85.618558">
        <ele>913.29659904</ele>
        <time>2019-10-24T08:48:52.094Z</time>
      </trkpt>
      <trkpt lat="27.895341" lon="85.618488">
        <ele>902.79319808</ele>
        <time>2019-10-24T08:49:51.094Z</time>
      </trkpt>
      <trkpt lat="27.895935" lon="85.618685">
        <ele>895</ele>
        <time>2019-10-24T08:50:50.094Z</time>
      </trkpt>
      <trkpt lat="27.896466" lon="85.617832">
        <ele>899.19879936</ele>
        <time>2019-10-24T08:52:31.094Z</time>
      </trkpt>
      <trkpt lat="27.896644" lon="85.617847">
        <ele>908.40340096</ele>
        <time>2019-10-24T08:53:39.094Z</time>
      </trkpt>
      <trkpt lat="27.896614" lon="85.617636">
        <ele>915.60340096</ele>
        <time>2019-10-24T08:54:41.094Z</time>
      </trkpt>
      <trkpt lat="27.896688" lon="85.617749">
        <ele>921.00680192</ele>
        <time>2019-10-24T08:56:30.094Z</time>
      </trkpt>
      <trkpt lat="27.896891" lon="85.618004">
        <ele>927.50340096</ele>
        <time>2019-10-24T08:57:30.094Z</time>
      </trkpt>
      <trkpt lat="27.897018" lon="85.617988">
        <ele>936.00680192</ele>
        <time>2019-10-24T08:59:10.094Z</time>
      </trkpt>
      <trkpt lat="27.896909" lon="85.617669">
        <ele>940.00680192</ele>
        <time>2019-10-24T08:59:55.094Z</time>
      </trkpt>
      <trkpt lat="27.897021" lon="85.617784">
        <ele>945</ele>
        <time>2019-10-24T09:00:53.094Z</time>
      </trkpt>
      <trkpt lat="27.897325" lon="85.617995">
        <ele>953.80340096</ele>
        <time>2019-10-24T09:01:53.094Z</time>
      </trkpt>
      <trkpt lat="27.89726" lon="85.617604">
        <ele>959.80340096</ele>
        <time>2019-10-24T09:02:53.094Z</time>
      </trkpt>
      <trkpt lat="27.896954" lon="85.617344">
        <ele>967</ele>
        <time>2019-10-24T09:03:54.094Z</time>
      </trkpt>
      <trkpt lat="27.897117" lon="85.616956">
        <ele>973.80680192</ele>
        <time>2019-10-24T09:04:49.094Z</time>
      </trkpt>
      <trkpt lat="27.896766" lon="85.617029">
        <ele>974.20680192</ele>
        <time>2019-10-24T09:05:56.094Z</time>
      </trkpt>
      <trkpt lat="27.897004" lon="85.616789">
        <ele>985</ele>
        <time>2019-10-24T09:07:51.094Z</time>
      </trkpt>
      <trkpt lat="27.897141" lon="85.616727">
        <ele>991.20680192</ele>
        <time>2019-10-24T09:08:51.094Z</time>
      </trkpt>
      <trkpt lat="27.897314" lon="85.616764">
        <ele>997.40340096</ele>
        <time>2019-10-24T09:09:49.094Z</time>
      </trkpt>
      <trkpt lat="27.897379" lon="85.616243">
        <ele>1005.50340096</ele>
        <time>2019-10-24T09:10:50.094Z</time>
      </trkpt>
      <trkpt lat="27.897481" lon="85.616094">
        <ele>1013.60340096</ele>
        <time>2019-10-24T09:11:51.094Z</time>
      </trkpt>
      <trkpt lat="27.897322" lon="85.616386">
        <ele>1019.39659904</ele>
        <time>2019-10-24T09:12:51.094Z</time>
      </trkpt>
      <trkpt lat="27.89754" lon="85.616312">
        <ele>1026.80340096</ele>
        <time>2019-10-24T09:13:53.094Z</time>
      </trkpt>
      <trkpt lat="27.897591" lon="85.616123">
        <ele>1034.70340096</ele>
        <time>2019-10-24T09:14:52.094Z</time>
      </trkpt>
      <trkpt lat="27.897734" lon="85.615714">
        <ele>1041.60340096</ele>
        <time>2019-10-24T09:15:51.094Z</time>
      </trkpt>
      <trkpt lat="27.897682" lon="85.615879">
        <ele>1056.80340096</ele>
        <time>2019-10-24T09:17:53.094Z</time>
      </trkpt>
      <trkpt lat="27.897732" lon="85.616104">
        <ele>1062</ele>
        <time>2019-10-24T09:18:50.094Z</time>
      </trkpt>
      <trkpt lat="27.897912" lon="85.616161">
        <ele>1067.6064079501</ele>
        <time>2019-10-24T09:19:53.094Z</time>
      </trkpt>
      <trkpt lat="27.89802" lon="85.616304">
        <ele>1074.50340096</ele>
        <time>2019-10-24T09:20:50.094Z</time>
      </trkpt>
      <trkpt lat="27.898164" lon="85.616472">
        <ele>1081.50340096</ele>
        <time>2019-10-24T09:21:50.094Z</time>
      </trkpt>
      <trkpt lat="27.898562" lon="85.616626">
        <ele>1088.50340096</ele>
        <time>2019-10-24T09:22:50.094Z</time>
      </trkpt>
      <trkpt lat="27.898879" lon="85.616745">
        <ele>1095</ele>
        <time>2019-10-24T09:23:51.094Z</time>
      </trkpt>
      <trkpt lat="27.898971" lon="85.617025">
        <ele>1101.60340096</ele>
        <time>2019-10-24T09:24:51.094Z</time>
      </trkpt>
      <trkpt lat="27.899108" lon="85.617129">
        <ele>1108.60340096</ele>
        <time>2019-10-24T09:25:51.094Z</time>
      </trkpt>
      <trkpt lat="27.899336" lon="85.61716">
        <ele>1115.60340096</ele>
        <time>2019-10-24T09:26:51.094Z</time>
      </trkpt>
      <trkpt lat="27.899534" lon="85.61703">
        <ele>1122.80680192</ele>
        <time>2019-10-24T09:27:49.094Z</time>
      </trkpt>
      <trkpt lat="27.899692" lon="85.617014">
        <ele>1131.60680192</ele>
        <time>2019-10-24T09:28:53.094Z</time>
      </trkpt>
      <trkpt lat="27.899779" lon="85.616958">
        <ele>1136.60340096</ele>
        <time>2019-10-24T09:29:51.094Z</time>
      </trkpt>
      <trkpt lat="27.899949" lon="85.616849">
        <ele>1143.40340096</ele>
        <time>2019-10-24T09:31:49.094Z</time>
      </trkpt>
      <trkpt lat="27.900347" lon="85.616889">
        <ele>1149</ele>
        <time>2019-10-24T09:32:52.094Z</time>
      </trkpt>
      <trkpt lat="27.90054" lon="85.616981">
        <ele>1155.60340096</ele>
        <time>2019-10-24T09:33:51.094Z</time>
      </trkpt>
      <trkpt lat="27.900805" lon="85.616976">
        <ele>1162.60340096</ele>
        <time>2019-10-24T09:34:51.094Z</time>
      </trkpt>
      <trkpt lat="27.901021" lon="85.616825">
        <ele>1167.70340096</ele>
        <time>2019-10-24T09:35:52.094Z</time>
      </trkpt>
      <trkpt lat="27.90113" lon="85.616393">
        <ele>1172.70340096</ele>
        <time>2019-10-24T09:36:52.094Z</time>
      </trkpt>
      <trkpt lat="27.901217" lon="85.616247">
        <ele>1177</ele>
        <time>2019-10-24T09:37:51.094Z</time>
      </trkpt>
      <trkpt lat="27.901516" lon="85.616049">
        <ele>1184</ele>
        <time>2019-10-24T09:38:51.094Z</time>
      </trkpt>
      <trkpt lat="27.901602" lon="85.615953">
        <ele>1190</ele>
        <time>2019-10-24T09:39:50.094Z</time>
      </trkpt>
      <trkpt lat="27.901756" lon="85.616082">
        <ele>1195.50340096</ele>
        <time>2019-10-24T09:40:50.094Z</time>
      </trkpt>
      <trkpt lat="27.901966" lon="85.616189">
        <ele>1202</ele>
        <time>2019-10-24T09:41:51.094Z</time>
      </trkpt>
      <trkpt lat="27.902216" lon="85.616375">
        <ele>1207</ele>
        <time>2019-10-24T09:42:51.094Z</time>
      </trkpt>
      <trkpt lat="27.902325" lon="85.616357">
        <ele>1214.60340096</ele>
        <time>2019-10-24T09:43:51.094Z</time>
      </trkpt>
      <trkpt lat="27.902438" lon="85.616375">
        <ele>1220.50340096</ele>
        <time>2019-10-24T09:44:50.094Z</time>
      </trkpt>
      <trkpt lat="27.902593" lon="85.616333">
        <ele>1228.3107008</ele>
        <time>2019-10-24T09:45:48.167Z</time>
      </trkpt>
      <trkpt lat="27.902794" lon="85.616343">
        <ele>1234</ele>
        <time>2019-10-24T09:46:49.094Z</time>
      </trkpt>
      <trkpt lat="27.90304" lon="85.616456">
        <ele>1241.20559516746</ele>
        <time>2019-10-24T09:47:51.094Z</time>
      </trkpt>
      <trkpt lat="27.903297" lon="85.616556">
        <ele>1246</ele>
        <time>2019-10-24T09:48:48.094Z</time>
      </trkpt>
      <trkpt lat="27.903308" lon="85.616391">
        <ele>1251.40340096</ele>
        <time>2019-10-24T09:49:49.094Z</time>
      </trkpt>
      <trkpt lat="27.903541" lon="85.616463">
        <ele>1257.60680192</ele>
        <time>2019-10-24T09:50:48.094Z</time>
      </trkpt>
      <trkpt lat="27.903774" lon="85.616384">
        <ele>1265.00680192</ele>
        <time>2019-10-24T09:51:50.094Z</time>
      </trkpt>
      <trkpt lat="27.903929" lon="85.616315">
        <ele>1272.00680192</ele>
        <time>2019-10-24T09:52:50.094Z</time>
      </trkpt>
      <trkpt lat="27.903941" lon="85.616153">
        <ele>1278</ele>
        <time>2019-10-24T09:53:50.094Z</time>
      </trkpt>
      <trkpt lat="27.904027" lon="85.615872">
        <ele>1286.40680192</ele>
        <time>2019-10-24T09:54:52.094Z</time>
      </trkpt>
      <trkpt lat="27.904106" lon="85.615726">
        <ele>1292.30340096</ele>
        <time>2019-10-24T09:55:48.094Z</time>
      </trkpt>
      <trkpt lat="27.904234" lon="85.615765">
        <ele>1298</ele>
        <time>2019-10-24T09:56:48.171Z</time>
      </trkpt>
      <trkpt lat="27.904412" lon="85.615712">
        <ele>1299.70340096</ele>
        <time>2019-10-24T09:57:52.094Z</time>
      </trkpt>
      <trkpt lat="27.904693" lon="85.615686">
        <ele>1303.60340096</ele>
        <time>2019-10-24T09:58:51.094Z</time>
      </trkpt>
      <trkpt lat="27.905002" lon="85.615557">
        <ele>1312</ele>
        <time>2019-10-24T10:00:52.094Z</time>
      </trkpt>
      <trkpt lat="27.90508" lon="85.61543">
        <ele>1319</ele>
        <time>2019-10-24T10:01:50.094Z</time>
      </trkpt>
      <trkpt lat="27.905166" lon="85.615334">
        <ele>1325</ele>
        <time>2019-10-24T10:02:53.094Z</time>
      </trkpt>
      <trkpt lat="27.90534" lon="85.6154">
        <ele>1329.70340096</ele>
        <time>2019-10-24T10:06:52.094Z</time>
      </trkpt>
      <trkpt lat="27.905576" lon="85.615232">
        <ele>1343.70340096</ele>
        <time>2019-10-24T10:08:52.094Z</time>
      </trkpt>
      <trkpt lat="27.905792" lon="85.615084">
        <ele>1350.60340096</ele>
        <time>2019-10-24T10:09:51.094Z</time>
      </trkpt>
      <trkpt lat="27.906295" lon="85.615162">
        <ele>1355.50290338617</ele>
        <time>2019-10-24T10:10:50.094Z</time>
      </trkpt>
      <trkpt lat="27.9065" lon="85.615009">
        <ele>1363</ele>
        <time>2019-10-24T10:11:51.094Z</time>
      </trkpt>
      <trkpt lat="27.906655" lon="85.614948">
        <ele>1368</ele>
        <time>2019-10-24T10:12:50.094Z</time>
      </trkpt>
      <trkpt lat="27.906756" lon="85.614934">
        <ele>1373.70340096</ele>
        <time>2019-10-24T10:13:52.094Z</time>
      </trkpt>
      <trkpt lat="27.906912" lon="85.614847">
        <ele>1381.00680192</ele>
        <time>2019-10-24T10:14:50.094Z</time>
      </trkpt>
      <trkpt lat="27.906842" lon="85.614745">
        <ele>1395.20680192</ele>
        <time>2019-10-24T10:16:51.094Z</time>
      </trkpt>
      <trkpt lat="27.907083" lon="85.614729">
        <ele>1402.70340096</ele>
        <time>2019-10-24T10:17:52.094Z</time>
      </trkpt>
      <trkpt lat="27.907308" lon="85.614753">
        <ele>1407.50340096</ele>
        <time>2019-10-24T10:18:50.094Z</time>
      </trkpt>
      <trkpt lat="27.907546" lon="85.614716">
        <ele>1415.50340096</ele>
        <time>2019-10-24T10:19:50.094Z</time>
      </trkpt>
      <trkpt lat="27.907483" lon="85.61453">
        <ele>1415.50340096</ele>
        <time>2019-10-24T10:20:50.094Z</time>
      </trkpt>
      <trkpt lat="27.907383" lon="85.614394">
        <ele>1420.90340096</ele>
        <time>2019-10-24T10:21:54.094Z</time>
      </trkpt>
      <trkpt lat="27.907329" lon="85.614249">
        <ele>1428</ele>
        <time>2019-10-24T10:22:49.094Z</time>
      </trkpt>
      <trkpt lat="27.907614" lon="85.614156">
        <ele>1442.50340096</ele>
        <time>2019-10-24T10:24:50.094Z</time>
      </trkpt>
      <trkpt lat="27.907728" lon="85.614025">
        <ele>1447.50340096</ele>
        <time>2019-10-24T10:25:50.094Z</time>
      </trkpt>
      <trkpt lat="27.907814" lon="85.613752">
        <ele>1453.20680192</ele>
        <time>2019-10-24T10:26:51.094Z</time>
      </trkpt>
      <trkpt lat="27.907834" lon="85.61359">
        <ele>1458.70340096</ele>
        <time>2019-10-24T10:27:52.094Z</time>
      </trkpt>
      <trkpt lat="27.90815" lon="85.613496">
        <ele>1467</ele>
        <time>2019-10-24T10:28:48.094Z</time>
      </trkpt>
      <trkpt lat="27.908307" lon="85.613591">
        <ele>1474.50340096</ele>
        <time>2019-10-24T10:29:50.094Z</time>
      </trkpt>
      <trkpt lat="27.908174" lon="85.613221">
        <ele>1487.40299757555</ele>
        <time>2019-10-24T10:31:49.094Z</time>
      </trkpt>
      <trkpt lat="27.908376" lon="85.613025">
        <ele>1494.30340096</ele>
        <time>2019-10-24T10:32:48.094Z</time>
      </trkpt>
      <trkpt lat="27.908557" lon="85.612952">
        <ele>1501.60279758373</ele>
        <time>2019-10-24T10:33:51.094Z</time>
      </trkpt>
      <trkpt lat="27.908756" lon="85.613017">
        <ele>1508.20680192</ele>
        <time>2019-10-24T10:34:51.094Z</time>
      </trkpt>
      <trkpt lat="27.909066" lon="85.612841">
        <ele>1514.79290112</ele>
        <time>2019-10-24T10:35:52.989Z</time>
      </trkpt>
      <trkpt lat="27.909202" lon="85.612979">
        <ele>1520.70340096</ele>
        <time>2019-10-24T10:36:52.094Z</time>
      </trkpt>
      <trkpt lat="27.909399" lon="85.613">
        <ele>1528.30340096</ele>
        <time>2019-10-24T10:37:48.094Z</time>
      </trkpt>
      <trkpt lat="27.909685" lon="85.612608">
        <ele>1532</ele>
        <time>2019-10-24T10:38:48.094Z</time>
      </trkpt>
      <trkpt lat="27.910066" lon="85.612316">
        <ele>1533.60340096</ele>
        <time>2019-10-24T10:39:51.094Z</time>
      </trkpt>
      <trkpt lat="27.910238" lon="85.612163">
        <ele>1539</ele>
        <time>2019-10-24T10:40:51.094Z</time>
      </trkpt>
      <trkpt lat="27.909834" lon="85.612174">
        <ele>1542.20680192</ele>
        <time>2019-10-24T10:41:51.094Z</time>
      </trkpt>
      <trkpt lat="27.909634" lon="85.612252">
        <ele>1548.60340096</ele>
        <time>2019-10-24T10:42:51.094Z</time>
      </trkpt>
      <trkpt lat="27.909636" lon="85.612038">
        <ele>1553.39659904</ele>
        <time>2019-10-24T10:43:51.094Z</time>
      </trkpt>
      <trkpt lat="27.909757" lon="85.611907">
        <ele>1559.60680192</ele>
        <time>2019-10-24T10:44:48.094Z</time>
      </trkpt>
      <trkpt lat="27.90986" lon="85.611689">
        <ele>1570.00340096</ele>
        <time>2019-10-24T10:46:05.094Z</time>
      </trkpt>
      <trkpt lat="27.910019" lon="85.611603">
        <ele>1575.50340096</ele>
        <time>2019-10-24T10:46:50.094Z</time>
      </trkpt>
      <trkpt lat="27.90985" lon="85.611375">
        <ele>1580</ele>
        <time>2019-10-24T10:47:52.094Z</time>
      </trkpt>
      <trkpt lat="27.909816" lon="85.611032">
        <ele>1583.00680192</ele>
        <time>2019-10-24T10:48:50.094Z</time>
      </trkpt>
      <trkpt lat="27.910203" lon="85.610807">
        <ele>1589.70340096</ele>
        <time>2019-10-24T10:49:52.094Z</time>
      </trkpt>
      <trkpt lat="27.910273" lon="85.610425">
        <ele>1593.80680192</ele>
        <time>2019-10-24T10:50:49.094Z</time>
      </trkpt>
      <trkpt lat="27.910024" lon="85.610183">
        <ele>1600.60340096</ele>
        <time>2019-10-24T10:51:51.094Z</time>
      </trkpt>
      <trkpt lat="27.909872" lon="85.609917">
        <ele>1608</ele>
        <time>2019-10-24T10:52:51.094Z</time>
      </trkpt>
      <trkpt lat="27.910283" lon="85.609563">
        <ele>1615</ele>
        <time>2019-10-24T10:53:51.094Z</time>
      </trkpt>
      <trkpt lat="27.910295" lon="85.60914">
        <ele>1620.70340096</ele>
        <time>2019-10-24T10:54:52.094Z</time>
      </trkpt>
      <trkpt lat="27.910175" lon="85.609004">
        <ele>1626.30340096</ele>
        <time>2019-10-24T10:55:48.094Z</time>
      </trkpt>
      <trkpt lat="27.910411" lon="85.608622">
        <ele>1632.70340096</ele>
        <time>2019-10-24T10:56:52.094Z</time>
      </trkpt>
      <trkpt lat="27.910532" lon="85.608278">
        <ele>1638.10340096</ele>
        <time>2019-10-24T10:57:56.094Z</time>
      </trkpt>
      <trkpt lat="27.910532" lon="85.608091">
        <ele>1644.30340096</ele>
        <time>2019-10-24T10:58:48.094Z</time>
      </trkpt>
      <trkpt lat="27.910623" lon="85.607916">
        <ele>1649.50340096</ele>
        <time>2019-10-24T10:59:50.094Z</time>
      </trkpt>
      <trkpt lat="27.910781" lon="85.607834">
        <ele>1656.40680192</ele>
        <time>2019-10-24T11:00:52.094Z</time>
      </trkpt>
      <trkpt lat="27.910928" lon="85.607674">
        <ele>1661.30340096</ele>
        <time>2019-10-24T11:01:48.094Z</time>
      </trkpt>
      <trkpt lat="27.911094" lon="85.607504">
        <ele>1667</ele>
        <time>2019-10-24T11:02:50.094Z</time>
      </trkpt>
      <trkpt lat="27.911267" lon="85.607522">
        <ele>1674</ele>
        <time>2019-10-24T11:05:25.094Z</time>
      </trkpt>
      <trkpt lat="27.911299" lon="85.607356">
        <ele>1674.69659904</ele>
        <time>2019-10-24T11:12:58.094Z</time>
      </trkpt>
      <trkpt lat="27.911287" lon="85.60765">
        <ele>1675.59659904</ele>
        <time>2019-10-24T11:13:59.094Z</time>
      </trkpt>
      <trkpt lat="27.911312" lon="85.607517">
        <ele>1674.39659904</ele>
        <time>2019-10-24T11:14:51.094Z</time>
      </trkpt>
      <trkpt lat="27.91124" lon="85.607399">
        <ele>1676</ele>
        <time>2019-10-24T11:16:49.094Z</time>
      </trkpt>
      <trkpt lat="27.911273" lon="85.607539">
        <ele>1676</ele>
        <time>2019-10-24T11:18:13.094Z</time>
      </trkpt>
      <trkpt lat="27.911278" lon="85.607411">
        <ele>1676</ele>
        <time>2019-10-24T11:19:53.094Z</time>
      </trkpt>
      <trkpt lat="27.911274" lon="85.607525">
        <ele>1676</ele>
        <time>2019-10-24T11:23:51.094Z</time>
      </trkpt>
      <trkpt lat="27.911346" lon="85.607402">
        <ele>1676</ele>
        <time>2019-10-24T11:24:52.094Z</time>
      </trkpt>
      <trkpt lat="27.911368" lon="85.607685">
        <ele>1676</ele>
        <time>2019-10-24T11:26:51.094Z</time>
      </trkpt>
      <trkpt lat="27.911285" lon="85.607426">
        <ele>1676</ele>
        <time>2019-10-24T11:27:51.094Z</time>
      </trkpt>
      <trkpt lat="27.911219" lon="85.607311">
        <ele>1676</ele>
        <time>2019-10-24T11:37:15.094Z</time>
      </trkpt>
      <trkpt lat="27.911367" lon="85.607234">
        <ele>1676</ele>
        <time>2019-10-24T11:38:00.094Z</time>
      </trkpt>
      <trkpt lat="27.91143" lon="85.607081">
        <ele>1676</ele>
        <time>2019-10-24T11:39:20.032Z</time>
      </trkpt>
      <trkpt lat="27.911662" lon="85.606798">
        <ele>1682.00340096</ele>
        <time>2019-10-24T11:40:05.094Z</time>
      </trkpt>
      <trkpt lat="27.911904" lon="85.606203">
        <ele>1690.50340096</ele>
        <time>2019-10-24T11:41:30.094Z</time>
      </trkpt>
      <trkpt lat="27.911932" lon="85.605959">
        <ele>1696.50340096</ele>
        <time>2019-10-24T11:42:30.094Z</time>
      </trkpt>
      <trkpt lat="27.911879" lon="85.605448">
        <ele>1700</ele>
        <time>2019-10-24T11:43:30.094Z</time>
      </trkpt>
      <trkpt lat="27.911912" lon="85.605171">
        <ele>1704.00340096</ele>
        <time>2019-10-24T11:44:15.094Z</time>
      </trkpt>
      <trkpt lat="27.911909" lon="85.604874">
        <ele>1710</ele>
        <time>2019-10-24T11:45:00.094Z</time>
      </trkpt>
      <trkpt lat="27.912034" lon="85.604735">
        <ele>1716</ele>
        <time>2019-10-24T11:45:50.094Z</time>
      </trkpt>
      <trkpt lat="27.912098" lon="85.6045">
        <ele>1722</ele>
        <time>2019-10-24T11:46:51.094Z</time>
      </trkpt>
      <trkpt lat="27.91216" lon="85.604354">
        <ele>1730</ele>
        <time>2019-10-24T11:47:49.094Z</time>
      </trkpt>
      <trkpt lat="27.912262" lon="85.604207">
        <ele>1736.60680192</ele>
        <time>2019-10-24T11:48:48.094Z</time>
      </trkpt>
      <trkpt lat="27.912421" lon="85.604079">
        <ele>1743</ele>
        <time>2019-10-24T11:49:53.094Z</time>
      </trkpt>
      <trkpt lat="27.912557" lon="85.603985">
        <ele>1750</ele>
        <time>2019-10-24T11:50:52.094Z</time>
      </trkpt>
      <trkpt lat="27.912573" lon="85.603712">
        <ele>1758.40680192</ele>
        <time>2019-10-24T11:51:52.094Z</time>
      </trkpt>
      <trkpt lat="27.912589" lon="85.603506">
        <ele>1765.29659904</ele>
        <time>2019-10-24T11:52:52.094Z</time>
      </trkpt>
      <trkpt lat="27.912628" lon="85.603364">
        <ele>1770</ele>
        <time>2019-10-24T11:53:51.094Z</time>
      </trkpt>
      <trkpt lat="27.912791" lon="85.603408">
        <ele>1774.40680192</ele>
        <time>2019-10-24T11:54:57.094Z</time>
      </trkpt>
      <trkpt lat="27.912867" lon="85.603254">
        <ele>1779.00680192</ele>
        <time>2019-10-24T11:55:50.094Z</time>
      </trkpt>
      <trkpt lat="27.912948" lon="85.603066">
        <ele>1785.60340096</ele>
        <time>2019-10-24T11:56:51.094Z</time>
      </trkpt>
      <trkpt lat="27.91316" lon="85.602906">
        <ele>1798</ele>
        <time>2019-10-24T11:58:54.094Z</time>
      </trkpt>
      <trkpt lat="27.913239" lon="85.602757">
        <ele>1805.60340096</ele>
        <time>2019-10-24T11:59:51.094Z</time>
      </trkpt>
      <trkpt lat="27.913313" lon="85.60265">
        <ele>1812.70340096</ele>
        <time>2019-10-24T12:00:52.094Z</time>
      </trkpt>
      <trkpt lat="27.913442" lon="85.602599">
        <ele>1820</ele>
        <time>2019-10-24T12:01:53.094Z</time>
      </trkpt>
      <trkpt lat="27.913434" lon="85.602391">
        <ele>1826.70340096</ele>
        <time>2019-10-24T12:02:52.094Z</time>
      </trkpt>
      <trkpt lat="27.913504" lon="85.602227">
        <ele>1834.60340096</ele>
        <time>2019-10-24T12:03:51.094Z</time>
      </trkpt>
      <trkpt lat="27.913572" lon="85.602032">
        <ele>1841</ele>
        <time>2019-10-24T12:04:50.094Z</time>
      </trkpt>
      <trkpt lat="27.913684" lon="85.601874">
        <ele>1857.00680192</ele>
        <time>2019-10-24T12:06:50.094Z</time>
      </trkpt>
      <trkpt lat="27.913788" lon="85.601864">
        <ele>1864.20680192</ele>
        <time>2019-10-24T12:07:51.094Z</time>
      </trkpt>
      <trkpt lat="27.913908" lon="85.601839">
        <ele>1878</ele>
        <time>2019-10-24T12:09:52.094Z</time>
      </trkpt>
      <trkpt lat="27.914112" lon="85.601768">
        <ele>1889.50340096</ele>
        <time>2019-10-24T12:11:50.094Z</time>
      </trkpt>
      <trkpt lat="27.914175" lon="85.601645">
        <ele>1895</ele>
        <time>2019-10-24T12:12:50.094Z</time>
      </trkpt>
      <trkpt lat="27.914193" lon="85.601516">
        <ele>1902.40340096</ele>
        <time>2019-10-24T12:13:49.094Z</time>
      </trkpt>
      <trkpt lat="27.914334" lon="85.601514">
        <ele>1908.70340096</ele>
        <time>2019-10-24T12:14:52.094Z</time>
      </trkpt>
      <trkpt lat="27.914511" lon="85.601363">
        <ele>1914.40340096</ele>
        <time>2019-10-24T12:15:49.094Z</time>
      </trkpt>
      <trkpt lat="27.914618" lon="85.601219">
        <ele>1922.60340096</ele>
        <time>2019-10-24T12:16:51.094Z</time>
      </trkpt>
      <trkpt lat="27.914384" lon="85.601138">
        <ele>1928.20680192</ele>
        <time>2019-10-24T12:17:51.094Z</time>
      </trkpt>
      <trkpt lat="27.914504" lon="85.601132">
        <ele>1934</ele>
        <time>2019-10-24T12:18:51.094Z</time>
      </trkpt>
      <trkpt lat="27.914604" lon="85.601053">
        <ele>1941.70269758782</ele>
        <time>2019-10-24T12:19:52.094Z</time>
      </trkpt>
      <trkpt lat="27.914427" lon="85.60093">
        <ele>1947.50340096</ele>
        <time>2019-10-24T12:20:50.094Z</time>
      </trkpt>
      <trkpt lat="27.914475" lon="85.60082">
        <ele>1959.59659904</ele>
        <time>2019-10-24T12:22:49.094Z</time>
      </trkpt>
      <trkpt lat="27.914545" lon="85.60072">
        <ele>1965.30340096</ele>
        <time>2019-10-24T12:23:48.094Z</time>
      </trkpt>
      <trkpt lat="27.91439" lon="85.600616">
        <ele>1980.80340096</ele>
        <time>2019-10-24T12:25:53.094Z</time>
      </trkpt>
      <trkpt lat="27.914384" lon="85.600464">
        <ele>1988</ele>
        <time>2019-10-24T12:26:53.094Z</time>
      </trkpt>
      <trkpt lat="27.914456" lon="85.600314">
        <ele>2002</ele>
        <time>2019-10-24T12:28:48.094Z</time>
      </trkpt>
      <trkpt lat="27.914614" lon="85.600184">
        <ele>2010.60680192</ele>
        <time>2019-10-24T12:29:53.094Z</time>
      </trkpt>
      <trkpt lat="27.914755" lon="85.600094">
        <ele>2017.90340096</ele>
        <time>2019-10-24T12:30:54.094Z</time>
      </trkpt>
      <trkpt lat="27.914883" lon="85.600067">
        <ele>2026.60680192</ele>
        <time>2019-10-24T12:31:53.094Z</time>
      </trkpt>
      <trkpt lat="27.914757" lon="85.60005">
        <ele>2028</ele>
        <time>2019-10-24T12:32:52.094Z</time>
      </trkpt>
      <trkpt lat="27.914868" lon="85.599928">
        <ele>2032.30340096</ele>
        <time>2019-10-24T12:33:48.094Z</time>
      </trkpt>
      <trkpt lat="27.914795" lon="85.599836">
        <ele>2041.40680192</ele>
        <time>2019-10-24T12:34:52.094Z</time>
      </trkpt>
      <trkpt lat="27.914985" lon="85.59978">
        <ele>2047</ele>
        <time>2019-10-24T12:35:53.094Z</time>
      </trkpt>
      <trkpt lat="27.915058" lon="85.59969">
        <ele>2053</ele>
        <time>2019-10-24T12:36:51.094Z</time>
      </trkpt>
      <trkpt lat="27.915042" lon="85.599551">
        <ele>2060.01020288</ele>
        <time>2019-10-24T12:37:55.094Z</time>
      </trkpt>
      <trkpt lat="27.915186" lon="85.599502">
        <ele>2067</ele>
        <time>2019-10-24T12:38:52.094Z</time>
      </trkpt>
      <trkpt lat="27.914997" lon="85.599391">
        <ele>2081</ele>
        <time>2019-10-24T12:40:52.094Z</time>
      </trkpt>
      <trkpt lat="27.914957" lon="85.599268">
        <ele>2088.20340096</ele>
        <time>2019-10-24T12:41:57.094Z</time>
      </trkpt>
      <trkpt lat="27.914782" lon="85.5993">
        <ele>2093</ele>
        <time>2019-10-24T12:42:53.094Z</time>
      </trkpt>
      <trkpt lat="27.914699" lon="85.599222">
        <ele>2098</ele>
        <time>2019-10-24T12:43:52.094Z</time>
      </trkpt>
      <trkpt lat="27.914752" lon="85.599076">
        <ele>2104.50340096</ele>
        <time>2019-10-24T12:44:50.094Z</time>
      </trkpt>
      <trkpt lat="27.914853" lon="85.599082">
        <ele>2113.11020288</ele>
        <time>2019-10-24T12:45:52.094Z</time>
      </trkpt>
      <trkpt lat="27.915019" lon="85.599004">
        <ele>2122.70340096</ele>
        <time>2019-10-24T12:49:52.094Z</time>
      </trkpt>
      <trkpt lat="27.915074" lon="85.598875">
        <ele>2137.50340096</ele>
        <time>2019-10-24T12:51:50.094Z</time>
      </trkpt>
      <trkpt lat="27.915189" lon="85.598738">
        <ele>2153</ele>
        <time>2019-10-24T12:53:51.094Z</time>
      </trkpt>
      <trkpt lat="27.915343" lon="85.598701">
        <ele>2159.60279758373</ele>
        <time>2019-10-24T12:54:51.094Z</time>
      </trkpt>
      <trkpt lat="27.915382" lon="85.598564">
        <ele>2165</ele>
        <time>2019-10-24T12:55:51.094Z</time>
      </trkpt>
      <trkpt lat="27.915573" lon="85.598437">
        <ele>2180.41360384</ele>
        <time>2019-10-24T12:57:51.094Z</time>
      </trkpt>
      <trkpt lat="27.915604" lon="85.598244">
        <ele>2186.40680192</ele>
        <time>2019-10-24T12:58:52.094Z</time>
      </trkpt>
      <trkpt lat="27.915649" lon="85.598436">
        <ele>2192.20680192</ele>
        <time>2019-10-24T12:59:51.094Z</time>
      </trkpt>
      <trkpt lat="27.915819" lon="85.598489">
        <ele>2200.40680192</ele>
        <time>2019-10-24T13:00:52.094Z</time>
      </trkpt>
      <trkpt lat="27.915843" lon="85.59832">
        <ele>2205.60340096</ele>
        <time>2019-10-24T13:01:51.094Z</time>
      </trkpt>
      <trkpt lat="27.915824" lon="85.598132">
        <ele>2212.70340096</ele>
        <time>2019-10-24T13:02:52.094Z</time>
      </trkpt>
      <trkpt lat="27.915978" lon="85.598164">
        <ele>2219.90330417134</ele>
        <time>2019-10-24T13:03:54.094Z</time>
      </trkpt>
      <trkpt lat="27.91607" lon="85.598006">
        <ele>2228</ele>
        <time>2019-10-24T13:04:52.094Z</time>
      </trkpt>
      <trkpt lat="27.915892" lon="85.59752">
        <ele>2240</ele>
        <time>2019-10-24T13:06:50.094Z</time>
      </trkpt>
      <trkpt lat="27.915847" lon="85.597102">
        <ele>2242.40340096</ele>
        <time>2019-10-24T13:07:49.094Z</time>
      </trkpt>
      <trkpt lat="27.916068" lon="85.596694">
        <ele>2249.40340096</ele>
        <time>2019-10-24T13:08:49.094Z</time>
      </trkpt>
      <trkpt lat="27.916173" lon="85.596458">
        <ele>2256</ele>
        <time>2019-10-24T13:09:48.094Z</time>
      </trkpt>
      <trkpt lat="27.916406" lon="85.596034">
        <ele>2261</ele>
        <time>2019-10-24T13:10:50.094Z</time>
      </trkpt>
      <trkpt lat="27.916497" lon="85.595802">
        <ele>2263</ele>
        <time>2019-10-24T13:11:48.094Z</time>
      </trkpt>
      <trkpt lat="27.916568" lon="85.595405">
        <ele>2270.50340096</ele>
        <time>2019-10-24T13:12:50.094Z</time>
      </trkpt>
      <trkpt lat="27.916554" lon="85.595248">
        <ele>2279</ele>
        <time>2019-10-24T13:13:51.094Z</time>
      </trkpt>
      <trkpt lat="27.916571" lon="85.595051">
        <ele>2286</ele>
        <time>2019-10-24T13:14:52.094Z</time>
      </trkpt>
      <trkpt lat="27.916616" lon="85.594815">
        <ele>2289.60340096</ele>
        <time>2019-10-24T13:15:51.094Z</time>
      </trkpt>
      <trkpt lat="27.916779" lon="85.594483">
        <ele>2292.40680192</ele>
        <time>2019-10-24T13:16:52.094Z</time>
      </trkpt>
      <trkpt lat="27.91689" lon="85.594255">
        <ele>2296</ele>
        <time>2019-10-24T13:17:52.094Z</time>
      </trkpt>
      <trkpt lat="27.917099" lon="85.593883">
        <ele>2300</ele>
        <time>2019-10-24T13:19:51.094Z</time>
      </trkpt>
      <trkpt lat="27.917536" lon="85.593694">
        <ele>2304.60340096</ele>
        <time>2019-10-24T13:20:51.094Z</time>
      </trkpt>
      <trkpt lat="27.917903" lon="85.593114">
        <ele>2308.60340096</ele>
        <time>2019-10-24T13:21:51.094Z</time>
      </trkpt>
      <trkpt lat="27.918048" lon="85.592654">
        <ele>2312.70340096</ele>
        <time>2019-10-24T13:22:52.094Z</time>
      </trkpt>
      <trkpt lat="27.918392" lon="85.592172">
        <ele>2319.80680192</ele>
        <time>2019-10-24T13:23:54.094Z</time>
      </trkpt>
      <trkpt lat="27.918543" lon="85.591979">
        <ele>2326</ele>
        <time>2019-10-24T13:24:51.094Z</time>
      </trkpt>
      <trkpt lat="27.918905" lon="85.591679">
        <ele>2330.80340096</ele>
        <time>2019-10-24T13:25:53.094Z</time>
      </trkpt>
      <trkpt lat="27.918945" lon="85.591519">
        <ele>2337.00680192</ele>
        <time>2019-10-24T13:26:55.094Z</time>
      </trkpt>
      <trkpt lat="27.919223" lon="85.59151">
        <ele>2343.80340096</ele>
        <time>2019-10-24T13:27:53.094Z</time>
      </trkpt>
      <trkpt lat="27.91911" lon="85.591405">
        <ele>2349</ele>
        <time>2019-10-24T13:28:51.094Z</time>
      </trkpt>
      <trkpt lat="27.919318" lon="85.591437">
        <ele>2352</ele>
        <time>2019-10-24T13:29:51.094Z</time>
      </trkpt>
      <trkpt lat="27.919244" lon="85.591323">
        <ele>2352.60340096</ele>
        <time>2019-10-24T13:31:51.094Z</time>
      </trkpt>
      <trkpt lat="27.919359" lon="85.591469">
        <ele>2353</ele>
        <time>2019-10-24T13:33:51.094Z</time>
      </trkpt>
      <trkpt lat="27.919686" lon="85.59174">
        <ele>2355</ele>
        <time>2019-10-24T13:34:49.094Z</time>
      </trkpt>
      <trkpt lat="27.920407" lon="85.591814">
        <ele>2350</ele>
        <time>2019-10-24T13:35:50.094Z</time>
      </trkpt>
      <trkpt lat="27.920892" lon="85.59225">
        <ele>2349.40340096</ele>
        <time>2019-10-24T13:36:49.094Z</time>
      </trkpt>
      <trkpt lat="27.921317" lon="85.592604">
        <ele>2349</ele>
        <time>2019-10-24T13:37:52.094Z</time>
      </trkpt>
      <trkpt lat="27.922001" lon="85.592862">
        <ele>2355</ele>
        <time>2019-10-24T13:38:54.094Z</time>
      </trkpt>
      <trkpt lat="27.922353" lon="85.593116">
        <ele>2361</ele>
        <time>2019-10-24T13:39:52.094Z</time>
      </trkpt>
      <trkpt lat="27.922958" lon="85.59329">
        <ele>2364.10340096</ele>
        <time>2019-10-24T13:40:56.094Z</time>
      </trkpt>
      <trkpt lat="27.923644" lon="85.593967">
        <ele>2368</ele>
        <time>2019-10-24T13:41:54.094Z</time>
      </trkpt>
      <trkpt lat="27.9232" lon="85.593974">
        <ele>2373</ele>
        <time>2019-10-24T13:42:52.094Z</time>
      </trkpt>
      <trkpt lat="27.923379" lon="85.594236">
        <ele>2376</ele>
        <time>2019-10-24T13:43:52.094Z</time>
      </trkpt>
      <trkpt lat="27.923466" lon="85.594472">
        <ele>2380.00680192</ele>
        <time>2019-10-24T13:44:50.094Z</time>
      </trkpt>
      <trkpt lat="27.924124" lon="85.594791">
        <ele>2387.60680192</ele>
        <time>2019-10-24T13:45:53.094Z</time>
      </trkpt>
      <trkpt lat="27.924609" lon="85.595172">
        <ele>2391</ele>
        <time>2019-10-24T13:46:52.094Z</time>
      </trkpt>
      <trkpt lat="27.925271" lon="85.595341">
        <ele>2391.70340096</ele>
        <time>2019-10-24T13:47:52.094Z</time>
      </trkpt>
      <trkpt lat="27.925839" lon="85.595294">
        <ele>2395</ele>
        <time>2019-10-24T13:48:51.094Z</time>
      </trkpt>
      <trkpt lat="27.926444" lon="85.59549">
        <ele>2397</ele>
        <time>2019-10-24T13:49:49.094Z</time>
      </trkpt>
      <trkpt lat="27.927187" lon="85.59559">
        <ele>2399.50340096</ele>
        <time>2019-10-24T13:50:50.094Z</time>
      </trkpt>
      <trkpt lat="27.92771" lon="85.595839">
        <ele>2401</ele>
        <time>2019-10-24T13:51:50.094Z</time>
      </trkpt>
      <trkpt lat="27.928362" lon="85.596006">
        <ele>2399</ele>
        <time>2019-10-24T13:52:52.094Z</time>
      </trkpt>
      <trkpt lat="27.929056" lon="85.596211">
        <ele>2397.29659904</ele>
        <time>2019-10-24T13:53:52.094Z</time>
      </trkpt>
      <trkpt lat="27.929667" lon="85.596037">
        <ele>2393.19319808</ele>
        <time>2019-10-24T13:54:54.094Z</time>
      </trkpt>
      <trkpt lat="27.930331" lon="85.596149">
        <ele>2390.19659904</ele>
        <time>2019-10-24T13:55:53.094Z</time>
      </trkpt>
      <trkpt lat="27.931" lon="85.596609">
        <ele>2387.29659904</ele>
        <time>2019-10-24T13:56:52.094Z</time>
      </trkpt>
      <trkpt lat="27.93152" lon="85.596521">
        <ele>2384</ele>
        <time>2019-10-24T13:57:51.094Z</time>
      </trkpt>
      <trkpt lat="27.932183" lon="85.596623">
        <ele>2382.80340096</ele>
        <time>2019-10-24T13:58:53.094Z</time>
      </trkpt>
      <trkpt lat="27.932504" lon="85.596284">
        <ele>2386</ele>
        <time>2019-10-24T13:59:50.094Z</time>
      </trkpt>
      <trkpt lat="27.933212" lon="85.596536">
        <ele>2390.80340096</ele>
        <time>2019-10-24T14:00:53.094Z</time>
      </trkpt>
      <trkpt lat="27.933638" lon="85.596272">
        <ele>2396.50340096</ele>
        <time>2019-10-24T14:01:50.094Z</time>
      </trkpt>
      <trkpt lat="27.934091" lon="85.596392">
        <ele>2402</ele>
        <time>2019-10-24T14:02:50.094Z</time>
      </trkpt>
      <trkpt lat="27.934843" lon="85.596493">
        <ele>2404</ele>
        <time>2019-10-24T14:03:53.094Z</time>
      </trkpt>
      <trkpt lat="27.935313" lon="85.596449">
        <ele>2408.00580677235</ele>
        <time>2019-10-24T14:04:50.094Z</time>
      </trkpt>
      <trkpt lat="27.936063" lon="85.596682">
        <ele>2411</ele>
        <time>2019-10-24T14:05:54.094Z</time>
      </trkpt>
      <trkpt lat="27.936671" lon="85.596675">
        <ele>2411.80259759191</ele>
        <time>2019-10-24T14:06:53.094Z</time>
      </trkpt>
      <trkpt lat="27.936775" lon="85.596917">
        <ele>2412</ele>
        <time>2019-10-24T14:07:52.094Z</time>
      </trkpt>
      <trkpt lat="27.937219" lon="85.596921">
        <ele>2412.90340096</ele>
        <time>2019-10-24T14:08:54.094Z</time>
      </trkpt>
      <trkpt lat="27.937839" lon="85.596822">
        <ele>2418.80340096</ele>
        <time>2019-10-24T14:09:53.094Z</time>
      </trkpt>
      <trkpt lat="27.938316" lon="85.59669">
        <ele>2425.60680192</ele>
        <time>2019-10-24T14:10:53.094Z</time>
      </trkpt>
      <trkpt lat="27.938746" lon="85.596846">
        <ele>2432</ele>
        <time>2019-10-24T14:11:52.094Z</time>
      </trkpt>
      <trkpt lat="27.939314" lon="85.596722">
        <ele>2435.50340096</ele>
        <time>2019-10-24T14:12:50.094Z</time>
      </trkpt>
      <trkpt lat="27.939822" lon="85.596488">
        <ele>2442.70340096</ele>
        <time>2019-10-24T14:13:52.094Z</time>
      </trkpt>
      <trkpt lat="27.940013" lon="85.596025">
        <ele>2449.10340096</ele>
        <time>2019-10-24T14:14:56.094Z</time>
      </trkpt>
      <trkpt lat="27.940199" lon="85.595434">
        <ele>2452.70340096</ele>
        <time>2019-10-24T14:15:52.094Z</time>
      </trkpt>
      <trkpt lat="27.940384" lon="85.595118">
        <ele>2458.70340096</ele>
        <time>2019-10-24T14:16:52.094Z</time>
      </trkpt>
      <trkpt lat="27.940628" lon="85.595129">
        <ele>2461.80340096</ele>
        <time>2019-10-24T14:17:53.094Z</time>
      </trkpt>
      <trkpt lat="27.941238" lon="85.595201">
        <ele>2467.29689622124</ele>
        <time>2019-10-24T14:18:52.094Z</time>
      </trkpt>
      <trkpt lat="27.941766" lon="85.595474">
        <ele>2474.80340096</ele>
        <time>2019-10-24T14:19:53.094Z</time>
      </trkpt>
      <trkpt lat="27.942407" lon="85.595656">
        <ele>2479.80340096</ele>
        <time>2019-10-24T14:21:13.094Z</time>
      </trkpt>
      <trkpt lat="27.942929" lon="85.59582">
        <ele>2481</ele>
        <time>2019-10-24T14:21:58.094Z</time>
      </trkpt>
      <trkpt lat="27.943563" lon="85.59592">
        <ele>2478</ele>
        <time>2019-10-24T14:22:54.094Z</time>
      </trkpt>
      <trkpt lat="27.943843" lon="85.596128">
        <ele>2478.40680192</ele>
        <time>2019-10-24T14:23:52.094Z</time>
      </trkpt>
      <trkpt lat="27.944077" lon="85.595928">
        <ele>2471.09659904</ele>
        <time>2019-10-24T14:25:54.094Z</time>
      </trkpt>
    </trkseg>
  </trk>
</gpx>
